﻿<?xml version="1.0" encoding="utf-8"?><gpx creator="Garmin Desktop App" version="1.1" xsi:schemaLocation="http://www.topografix.com/GPX/1/1 http://www.topografix.com/GPX/1/1/gpx.xsd http://www.garmin.com/xmlschemas/WaypointExtension/v1 http://www8.garmin.com/xmlschemas/WaypointExtensionv1.xsd http://www.garmin.com/xmlschemas/TrackPointExtension/v1 http://www.garmin.com/xmlschemas/TrackPointExtensionv1.xsd http://www.garmin.com/xmlschemas/GpxExtensions/v3 http://www8.garmin.com/xmlschemas/GpxExtensionsv3.xsd http://www.garmin.com/xmlschemas/ActivityExtension/v1 http://www8.garmin.com/xmlschemas/ActivityExtensionv1.xsd http://www.garmin.com/xmlschemas/AdventuresExtensions/v1 http://www8.garmin.com/xmlschemas/AdventuresExtensionv1.xsd http://www.garmin.com/xmlschemas/PressureExtension/v1 http://www.garmin.com/xmlschemas/PressureExtensionv1.xsd http://www.garmin.com/xmlschemas/TripExtensions/v1 http://www.garmin.com/xmlschemas/TripExtensionsv1.xsd http://www.garmin.com/xmlschemas/TripMetaDataExtensions/v1 http://www.garmin.com/xmlschemas/TripMetaDataExtensionsv1.xsd http://www.garmin.com/xmlschemas/ViaPointTransportationModeExtensions/v1 http://www.garmin.com/xmlschemas/ViaPointTransportationModeExtensionsv1.xsd http://www.garmin.com/xmlschemas/CreationTimeExtension/v1 http://www.garmin.com/xmlschemas/CreationTimeExtensionsv1.xsd http://www.garmin.com/xmlschemas/AccelerationExtension/v1 http://www.garmin.com/xmlschemas/AccelerationExtensionv1.xsd http://www.garmin.com/xmlschemas/PowerExtension/v1 http://www.garmin.com/xmlschemas/PowerExtensionv1.xsd http://www.garmin.com/xmlschemas/VideoExtension/v1 http://www.garmin.com/xmlschemas/VideoExtensionv1.xsd" xmlns="http://www.topografix.com/GPX/1/1" xmlns:xsi="http://www.w3.org/2001/XMLSchema-instance" xmlns:wptx1="http://www.garmin.com/xmlschemas/WaypointExtension/v1" xmlns:gpxtrx="http://www.garmin.com/xmlschemas/GpxExtensions/v3" xmlns:gpxtpx="http://www.garmin.com/xmlschemas/TrackPointExtension/v1" xmlns:gpxx="http://www.garmin.com/xmlschemas/GpxExtensions/v3" xmlns:trp="http://www.garmin.com/xmlschemas/TripExtensions/v1" xmlns:adv="http://www.garmin.com/xmlschemas/AdventuresExtensions/v1" xmlns:prs="http://www.garmin.com/xmlschemas/PressureExtension/v1" xmlns:tmd="http://www.garmin.com/xmlschemas/TripMetaDataExtensions/v1" xmlns:vptm="http://www.garmin.com/xmlschemas/ViaPointTransportationModeExtensions/v1" xmlns:ctx="http://www.garmin.com/xmlschemas/CreationTimeExtension/v1" xmlns:gpxacc="http://www.garmin.com/xmlschemas/AccelerationExtension/v1" xmlns:gpxpx="http://www.garmin.com/xmlschemas/PowerExtension/v1" xmlns:vidx1="http://www.garmin.com/xmlschemas/VideoExtension/v1">

  <metadata>
    <link href="http://www.garmin.com">
      <text>Garmin International</text>
    </link>
    <time>2019-08-24T08:32:46Z</time>
    <bounds maxlat="59.308644980192184" maxlon="8.256589863449335" minlat="59.262439319863915" minlon="8.181490022689104" />
  </metadata>

  <trk>
    <name>Roar - Hestekvævnuten 2019</name>
    <extensions>
      <gpxx:TrackExtension>
        <gpxx:DisplayColor>DarkGray</gpxx:DisplayColor>
      </gpxx:TrackExtension>
    </extensions>
    <trkseg>
      <trkpt lat="59.308545989915729" lon="8.190604001283646">
        <ele>617.91796875</ele>
        <time>2019-08-21T12:34:05Z</time>
      </trkpt>
      <trkpt lat="59.308620002120733" lon="8.190508028492332">
        <ele>617.17578125</ele>
        <time>2019-08-21T12:34:25Z</time>
      </trkpt>
      <trkpt lat="59.308551019057631" lon="8.190360004082322">
        <ele>615.84375</ele>
        <time>2019-08-21T12:34:56Z</time>
      </trkpt>
      <trkpt lat="59.308543978258967" lon="8.190368972718716">
        <ele>615.9453125</ele>
        <time>2019-08-21T12:35:17Z</time>
      </trkpt>
      <trkpt lat="59.308536015450954" lon="8.190320022404194">
        <ele>615.56640625</ele>
        <time>2019-08-21T12:35:20Z</time>
      </trkpt>
      <trkpt lat="59.308574991300702" lon="8.190325973555446">
        <ele>615.45703125</ele>
        <time>2019-08-21T12:35:38Z</time>
      </trkpt>
      <trkpt lat="59.30856904014945" lon="8.190368972718716">
        <ele>615.8515625</ele>
        <time>2019-08-21T12:35:43Z</time>
      </trkpt>
      <trkpt lat="59.308629976585507" lon="8.190516997128725">
        <ele>617.30078125</ele>
        <time>2019-08-21T12:35:54Z</time>
      </trkpt>
      <trkpt lat="59.308644980192184" lon="8.190550021827221">
        <ele>617.64453125</ele>
        <time>2019-08-21T12:36:09Z</time>
      </trkpt>
      <trkpt lat="59.308615978807211" lon="8.19050501100719">
        <ele>617.12890625</ele>
        <time>2019-08-21T12:36:24Z</time>
      </trkpt>
      <trkpt lat="59.308607010170817" lon="8.190486989915371">
        <ele>616.9296875</ele>
        <time>2019-08-21T12:36:25Z</time>
      </trkpt>
      <trkpt lat="59.308532997965813" lon="8.190443990752101">
        <ele>616.6171875</ele>
        <time>2019-08-21T12:36:37Z</time>
      </trkpt>
      <trkpt lat="59.308520006015897" lon="8.190498976036906">
        <ele>617.109375</ele>
        <time>2019-08-21T12:37:15Z</time>
      </trkpt>
      <trkpt lat="59.30852604098618" lon="8.190535018220544">
        <ele>617.39453125</ele>
        <time>2019-08-21T12:38:02Z</time>
      </trkpt>
      <trkpt lat="59.308501984924078" lon="8.19059201516211">
        <ele>617.8984375</ele>
        <time>2019-08-21T12:39:57Z</time>
      </trkpt>
      <trkpt lat="59.308496033772826" lon="8.190606012940407">
        <ele>618.01171875</ele>
        <time>2019-08-21T12:40:02Z</time>
      </trkpt>
      <trkpt lat="59.308397965505719" lon="8.191357031464577">
        <ele>620.59765625</ele>
        <time>2019-08-21T12:40:14Z</time>
      </trkpt>
      <trkpt lat="59.308167966082692" lon="8.191790040582418">
        <ele>620.1640625</ele>
        <time>2019-08-21T12:40:28Z</time>
      </trkpt>
      <trkpt lat="59.308036034926772" lon="8.191921971738339">
        <ele>619.96484375</ele>
        <time>2019-08-21T12:40:38Z</time>
      </trkpt>
      <trkpt lat="59.307978032156825" lon="8.191960025578737">
        <ele>619.953125</ele>
        <time>2019-08-21T12:41:45Z</time>
      </trkpt>
      <trkpt lat="59.307977026328444" lon="8.191962037235498">
        <ele>619.953125</ele>
        <time>2019-08-21T12:41:46Z</time>
      </trkpt>
      <trkpt lat="59.30771098472178" lon="8.191972011700273">
        <ele>620.0390625</ele>
        <time>2019-08-21T12:41:57Z</time>
      </trkpt>
      <trkpt lat="59.307596990838647" lon="8.191910991445184">
        <ele>620.296875</ele>
        <time>2019-08-21T12:42:08Z</time>
      </trkpt>
      <trkpt lat="59.307596990838647" lon="8.191910991445184">
        <ele>620.296875</ele>
        <time>2019-08-21T12:42:15Z</time>
      </trkpt>
      <trkpt lat="59.307379983365536" lon="8.19155802950263">
        <ele>620.81640625</ele>
        <time>2019-08-21T12:42:26Z</time>
      </trkpt>
      <trkpt lat="59.30730102583766" lon="8.191498015075922">
        <ele>621.06640625</ele>
        <time>2019-08-21T12:42:30Z</time>
      </trkpt>
      <trkpt lat="59.307234976440668" lon="8.191417967900634">
        <ele>621.3359375</ele>
        <time>2019-08-21T12:42:33Z</time>
      </trkpt>
      <trkpt lat="59.307171022519469" lon="8.191327024251223">
        <ele>621.796875</ele>
        <time>2019-08-21T12:42:36Z</time>
      </trkpt>
      <trkpt lat="59.307115031406283" lon="8.19121696986258">
        <ele>622.44921875</ele>
        <time>2019-08-21T12:42:40Z</time>
      </trkpt>
      <trkpt lat="59.307073038071394" lon="8.191122002899647">
        <ele>623.0390625</ele>
        <time>2019-08-21T12:42:43Z</time>
      </trkpt>
      <trkpt lat="59.307020986452699" lon="8.19100096821785">
        <ele>623.3515625</ele>
        <time>2019-08-21T12:42:47Z</time>
      </trkpt>
      <trkpt lat="59.306985028088093" lon="8.19091597571969">
        <ele>623.6171875</ele>
        <time>2019-08-21T12:42:50Z</time>
      </trkpt>
      <trkpt lat="59.30687396787107" lon="8.19059100933373">
        <ele>626.03515625</ele>
        <time>2019-08-21T12:42:58Z</time>
      </trkpt>
      <trkpt lat="59.30676600895822" lon="8.190236035734415">
        <ele>629.94921875</ele>
        <time>2019-08-21T12:43:07Z</time>
      </trkpt>
      <trkpt lat="59.306634999811649" lon="8.190039983019233">
        <ele>633.203125</ele>
        <time>2019-08-21T12:43:18Z</time>
      </trkpt>
      <trkpt lat="59.306490998715162" lon="8.18975399248302">
        <ele>636.25390625</ele>
        <time>2019-08-21T12:43:30Z</time>
      </trkpt>
      <trkpt lat="59.306316990405321" lon="8.18953899666667">
        <ele>638.90234375</ele>
        <time>2019-08-21T12:43:37Z</time>
      </trkpt>
      <trkpt lat="59.306300980970263" lon="8.189509995281696">
        <ele>639.12890625</ele>
        <time>2019-08-21T12:43:38Z</time>
      </trkpt>
      <trkpt lat="59.306287989020348" lon="8.189471019431949">
        <ele>639.40234375</ele>
        <time>2019-08-21T12:43:39Z</time>
      </trkpt>
      <trkpt lat="59.306276002898812" lon="8.189427014440298">
        <ele>639.58203125</ele>
        <time>2019-08-21T12:43:40Z</time>
      </trkpt>
      <trkpt lat="59.306265022605658" lon="8.189382003620267">
        <ele>639.69921875</ele>
        <time>2019-08-21T12:43:41Z</time>
      </trkpt>
      <trkpt lat="59.306251024827361" lon="8.189331041648984">
        <ele>639.84375</ele>
        <time>2019-08-21T12:43:42Z</time>
      </trkpt>
      <trkpt lat="59.306238032877445" lon="8.189287958666682">
        <ele>639.9765625</ele>
        <time>2019-08-21T12:43:43Z</time>
      </trkpt>
      <trkpt lat="59.306222023442388" lon="8.189235990867019">
        <ele>640.14453125</ele>
        <time>2019-08-21T12:43:44Z</time>
      </trkpt>
      <trkpt lat="59.306213976815343" lon="8.189179999753833">
        <ele>640.28515625</ele>
        <time>2019-08-21T12:43:45Z</time>
      </trkpt>
      <trkpt lat="59.306209031492472" lon="8.189133983105421">
        <ele>640.41796875</ele>
        <time>2019-08-21T12:43:46Z</time>
      </trkpt>
      <trkpt lat="59.306186987087131" lon="8.189095007255673">
        <ele>640.64453125</ele>
        <time>2019-08-21T12:43:47Z</time>
      </trkpt>
      <trkpt lat="59.306183969601989" lon="8.189048990607262">
        <ele>640.77734375</ele>
        <time>2019-08-21T12:43:48Z</time>
      </trkpt>
      <trkpt lat="59.306182963773608" lon="8.189006997272372">
        <ele>640.890625</ele>
        <time>2019-08-21T12:43:49Z</time>
      </trkpt>
      <trkpt lat="59.306182041764259" lon="8.188962992280722">
        <ele>641.0078125</ele>
        <time>2019-08-21T12:43:50Z</time>
      </trkpt>
      <trkpt lat="59.306182041764259" lon="8.188934996724129">
        <ele>641.08203125</ele>
        <time>2019-08-21T12:43:51Z</time>
      </trkpt>
      <trkpt lat="59.306183969601989" lon="8.188903983682394">
        <ele>641.14453125</ele>
        <time>2019-08-21T12:43:52Z</time>
      </trkpt>
      <trkpt lat="59.306194027885795" lon="8.188862996175885">
        <ele>641.17578125</ele>
        <time>2019-08-21T12:43:53Z</time>
      </trkpt>
      <trkpt lat="59.306201990693808" lon="8.188827037811279">
        <ele>641.20703125</ele>
        <time>2019-08-21T12:43:54Z</time>
      </trkpt>
      <trkpt lat="59.306210037320852" lon="8.188786972314119">
        <ele>641.2578125</ele>
        <time>2019-08-21T12:43:55Z</time>
      </trkpt>
      <trkpt lat="59.306220011785626" lon="8.188749002292752">
        <ele>641.2890625</ele>
        <time>2019-08-21T12:43:56Z</time>
      </trkpt>
      <trkpt lat="59.306224035099149" lon="8.188715977594256">
        <ele>641.34765625</ele>
        <time>2019-08-21T12:43:57Z</time>
      </trkpt>
      <trkpt lat="59.306222023442388" lon="8.188666021451354">
        <ele>641.5</ele>
        <time>2019-08-21T12:43:58Z</time>
      </trkpt>
      <trkpt lat="59.306225040927529" lon="8.188621010631323">
        <ele>641.6015625</ele>
        <time>2019-08-21T12:43:59Z</time>
      </trkpt>
      <trkpt lat="59.306229986250401" lon="8.18857298232615">
        <ele>641.73046875</ele>
        <time>2019-08-21T12:44:00Z</time>
      </trkpt>
      <trkpt lat="59.306239038705826" lon="8.188520008698106">
        <ele>641.85546875</ele>
        <time>2019-08-21T12:44:01Z</time>
      </trkpt>
      <trkpt lat="59.306242978200316" lon="8.188479021191597">
        <ele>641.97265625</ele>
        <time>2019-08-21T12:44:02Z</time>
      </trkpt>
      <trkpt lat="59.306240966543555" lon="8.188431998714805">
        <ele>642.14453125</ele>
        <time>2019-08-21T12:44:03Z</time>
      </trkpt>
      <trkpt lat="59.306234009563923" lon="8.188386987894774">
        <ele>642.33203125</ele>
        <time>2019-08-21T12:44:04Z</time>
      </trkpt>
      <trkpt lat="59.306226968765259" lon="8.188347006216645">
        <ele>642.49609375</ele>
        <time>2019-08-21T12:44:05Z</time>
      </trkpt>
      <trkpt lat="59.306222023442388" lon="8.188300989568234">
        <ele>642.78515625</ele>
        <time>2019-08-21T12:44:06Z</time>
      </trkpt>
      <trkpt lat="59.306210037320852" lon="8.188257990404964">
        <ele>643.09375</ele>
        <time>2019-08-21T12:44:07Z</time>
      </trkpt>
      <trkpt lat="59.306197967380285" lon="8.188221026211977">
        <ele>643.36328125</ele>
        <time>2019-08-21T12:44:08Z</time>
      </trkpt>
      <trkpt lat="59.306180030107498" lon="8.188184984028339">
        <ele>643.64453125</ele>
        <time>2019-08-21T12:44:09Z</time>
      </trkpt>
      <trkpt lat="59.306162009015679" lon="8.188160005956888">
        <ele>643.85546875</ele>
        <time>2019-08-21T12:44:10Z</time>
      </trkpt>
      <trkpt lat="59.306139964610338" lon="8.188143996521831">
        <ele>644.02734375</ele>
        <time>2019-08-21T12:44:11Z</time>
      </trkpt>
      <trkpt lat="59.306119009852409" lon="8.188137039542198">
        <ele>644.140625</ele>
        <time>2019-08-21T12:44:12Z</time>
      </trkpt>
      <trkpt lat="59.306101994588971" lon="8.188131004571915">
        <ele>644.234375</ele>
        <time>2019-08-21T12:44:13Z</time>
      </trkpt>
      <trkpt lat="59.306086990982294" lon="8.188110971823335">
        <ele>644.3984375</ele>
        <time>2019-08-21T12:44:14Z</time>
      </trkpt>
      <trkpt lat="59.30607701651752" lon="8.188097979873419">
        <ele>644.48828125</ele>
        <time>2019-08-21T12:44:15Z</time>
      </trkpt>
      <trkpt lat="59.306066036224365" lon="8.188095968216658">
        <ele>644.515625</ele>
        <time>2019-08-21T12:44:16Z</time>
      </trkpt>
      <trkpt lat="59.306049020960927" lon="8.188081970438361">
        <ele>644.609375</ele>
        <time>2019-08-21T12:44:17Z</time>
      </trkpt>
      <trkpt lat="59.306038040667772" lon="8.188067972660065">
        <ele>644.6875</ele>
        <time>2019-08-21T12:44:18Z</time>
      </trkpt>
      <trkpt lat="59.306028988212347" lon="8.188060009852052">
        <ele>644.7421875</ele>
        <time>2019-08-21T12:44:19Z</time>
      </trkpt>
      <trkpt lat="59.306010967120528" lon="8.188065038993955">
        <ele>644.734375</ele>
        <time>2019-08-21T12:44:20Z</time>
      </trkpt>
      <trkpt lat="59.305993029847741" lon="8.188083982095122">
        <ele>644.6796875</ele>
        <time>2019-08-21T12:44:21Z</time>
      </trkpt>
      <trkpt lat="59.305974002927542" lon="8.188114995136857">
        <ele>644.609375</ele>
        <time>2019-08-21T12:44:22Z</time>
      </trkpt>
      <trkpt lat="59.305956987664104" lon="8.188149025663734">
        <ele>644.54296875</ele>
        <time>2019-08-21T12:44:23Z</time>
      </trkpt>
      <trkpt lat="59.305940978229046" lon="8.188171992078424">
        <ele>644.52734375</ele>
        <time>2019-08-21T12:44:24Z</time>
      </trkpt>
      <trkpt lat="59.305924968793988" lon="8.188179032877088">
        <ele>644.5625</ele>
        <time>2019-08-21T12:44:25Z</time>
      </trkpt>
      <trkpt lat="59.30590501986444" lon="8.188198981806636">
        <ele>644.59375</ele>
        <time>2019-08-21T12:44:26Z</time>
      </trkpt>
      <trkpt lat="59.305885992944241" lon="8.188225971534848">
        <ele>644.62109375</ele>
        <time>2019-08-21T12:44:27Z</time>
      </trkpt>
      <trkpt lat="59.305865960195661" lon="8.188244998455048">
        <ele>644.6875</ele>
        <time>2019-08-21T12:44:28Z</time>
      </trkpt>
      <trkpt lat="59.305845005437732" lon="8.188254972919822">
        <ele>644.77734375</ele>
        <time>2019-08-21T12:44:29Z</time>
      </trkpt>
      <trkpt lat="59.305818015709519" lon="8.188262013718486">
        <ele>644.90625</ele>
        <time>2019-08-21T12:44:30Z</time>
      </trkpt>
      <trkpt lat="59.305792031809688" lon="8.18827198818326">
        <ele>645.01953125</ele>
        <time>2019-08-21T12:44:31Z</time>
      </trkpt>
      <trkpt lat="59.305767975747585" lon="8.188260002061725">
        <ele>645.125</ele>
        <time>2019-08-21T12:44:32Z</time>
      </trkpt>
      <trkpt lat="59.305747020989656" lon="8.188236029818654">
        <ele>645.234375</ele>
        <time>2019-08-21T12:44:33Z</time>
      </trkpt>
      <trkpt lat="59.305731011554599" lon="8.188210967928171">
        <ele>645.328125</ele>
        <time>2019-08-21T12:44:34Z</time>
      </trkpt>
      <trkpt lat="59.305715002119541" lon="8.188184984028339">
        <ele>645.4375</ele>
        <time>2019-08-21T12:44:35Z</time>
      </trkpt>
      <trkpt lat="59.305697986856103" lon="8.188154976814985">
        <ele>645.56640625</ele>
        <time>2019-08-21T12:44:36Z</time>
      </trkpt>
      <trkpt lat="59.305691029876471" lon="8.188129998743534">
        <ele>645.63671875</ele>
        <time>2019-08-21T12:44:37Z</time>
      </trkpt>
      <trkpt lat="59.305688012391329" lon="8.188108038157225">
        <ele>645.6875</ele>
        <time>2019-08-21T12:44:38Z</time>
      </trkpt>
      <trkpt lat="59.305680971592665" lon="8.188093034550548">
        <ele>645.75390625</ele>
        <time>2019-08-21T12:44:39Z</time>
      </trkpt>
      <trkpt lat="59.305673008784652" lon="8.188067972660065">
        <ele>645.84375</ele>
        <time>2019-08-21T12:44:40Z</time>
      </trkpt>
      <trkpt lat="59.30566999129951" lon="8.188032014295459">
        <ele>646.03515625</ele>
        <time>2019-08-21T12:44:41Z</time>
      </trkpt>
      <trkpt lat="59.305672002956271" lon="8.188001001253724">
        <ele>646.1796875</ele>
        <time>2019-08-21T12:44:42Z</time>
      </trkpt>
      <trkpt lat="59.305663034319878" lon="8.187967976555228">
        <ele>646.390625</ele>
        <time>2019-08-21T12:44:43Z</time>
      </trkpt>
      <trkpt lat="59.305648030713201" lon="8.187935035675764">
        <ele>646.625</ele>
        <time>2019-08-21T12:44:44Z</time>
      </trkpt>
      <trkpt lat="59.305635038763285" lon="8.187892958521843">
        <ele>646.87890625</ele>
        <time>2019-08-21T12:44:45Z</time>
      </trkpt>
      <trkpt lat="59.305620035156608" lon="8.187847025692463">
        <ele>647.1484375</ele>
        <time>2019-08-21T12:44:46Z</time>
      </trkpt>
      <trkpt lat="59.30560402572155" lon="8.18781903013587">
        <ele>647.328125</ele>
        <time>2019-08-21T12:44:47Z</time>
      </trkpt>
      <trkpt lat="59.305581981316209" lon="8.187790028750897">
        <ele>647.51953125</ele>
        <time>2019-08-21T12:44:48Z</time>
      </trkpt>
      <trkpt lat="59.305557003244758" lon="8.187748035416007">
        <ele>647.75390625</ele>
        <time>2019-08-21T12:44:49Z</time>
      </trkpt>
      <trkpt lat="59.3055409938097" lon="8.187711993232369">
        <ele>647.921875</ele>
        <time>2019-08-21T12:44:50Z</time>
      </trkpt>
      <trkpt lat="59.305530013516545" lon="8.187672011554241">
        <ele>648.0859375</ele>
        <time>2019-08-21T12:44:51Z</time>
      </trkpt>
      <trkpt lat="59.30551802739501" lon="8.187643010169268">
        <ele>648.24609375</ele>
        <time>2019-08-21T12:44:52Z</time>
      </trkpt>
      <trkpt lat="59.305504029616714" lon="8.187638986855745">
        <ele>648.3359375</ele>
        <time>2019-08-21T12:44:53Z</time>
      </trkpt>
      <trkpt lat="59.305486008524895" lon="8.187621971592307">
        <ele>648.4921875</ele>
        <time>2019-08-21T12:44:54Z</time>
      </trkpt>
      <trkpt lat="59.305474022403359" lon="8.187595987692475">
        <ele>648.64453125</ele>
        <time>2019-08-21T12:44:55Z</time>
      </trkpt>
      <trkpt lat="59.305461030453444" lon="8.187577966600657">
        <ele>648.7734375</ele>
        <time>2019-08-21T12:44:56Z</time>
      </trkpt>
      <trkpt lat="59.305456001311541" lon="8.187536979094148">
        <ele>648.9375</ele>
        <time>2019-08-21T12:44:57Z</time>
      </trkpt>
      <trkpt lat="59.305450972169638" lon="8.187499009072781">
        <ele>649.11328125</ele>
        <time>2019-08-21T12:44:58Z</time>
      </trkpt>
      <trkpt lat="59.305442003533244" lon="8.187453998252749">
        <ele>649.390625</ele>
        <time>2019-08-21T12:44:59Z</time>
      </trkpt>
      <trkpt lat="59.305430017411709" lon="8.187404964119196">
        <ele>649.703125</ele>
        <time>2019-08-21T12:45:00Z</time>
      </trkpt>
      <trkpt lat="59.305420964956284" lon="8.187359031289816">
        <ele>649.98046875</ele>
        <time>2019-08-21T12:45:01Z</time>
      </trkpt>
      <trkpt lat="59.305415013805032" lon="8.187315026298165">
        <ele>650.23046875</ele>
        <time>2019-08-21T12:45:02Z</time>
      </trkpt>
      <trkpt lat="59.305404033511877" lon="8.187272027134895">
        <ele>650.49609375</ele>
        <time>2019-08-21T12:45:03Z</time>
      </trkpt>
      <trkpt lat="59.30539196357131" lon="8.187233973294497">
        <ele>650.73828125</ele>
        <time>2019-08-21T12:45:04Z</time>
      </trkpt>
      <trkpt lat="59.305382994934916" lon="8.187188962474465">
        <ele>651.07421875</ele>
        <time>2019-08-21T12:45:05Z</time>
      </trkpt>
      <trkpt lat="59.305376037955284" lon="8.187155015766621">
        <ele>651.3203125</ele>
        <time>2019-08-21T12:45:06Z</time>
      </trkpt>
      <trkpt lat="59.305363968014717" lon="8.187120985239744">
        <ele>651.58203125</ele>
        <time>2019-08-21T12:45:07Z</time>
      </trkpt>
      <trkpt lat="59.305354999378324" lon="8.1870870385319">
        <ele>651.828125</ele>
        <time>2019-08-21T12:45:08Z</time>
      </trkpt>
      <trkpt lat="59.305352987721562" lon="8.187057031318545">
        <ele>652.0234375</ele>
        <time>2019-08-21T12:45:09Z</time>
      </trkpt>
      <trkpt lat="59.30534603074193" lon="8.187023000791669">
        <ele>652.25390625</ele>
        <time>2019-08-21T12:45:10Z</time>
      </trkpt>
      <trkpt lat="59.305332032963634" lon="8.186991987749934">
        <ele>652.484375</ele>
        <time>2019-08-21T12:45:11Z</time>
      </trkpt>
      <trkpt lat="59.305328009650111" lon="8.1869609747082">
        <ele>652.6796875</ele>
        <time>2019-08-21T12:45:12Z</time>
      </trkpt>
      <trkpt lat="59.305321974679828" lon="8.186929039657116">
        <ele>652.87109375</ele>
        <time>2019-08-21T12:45:13Z</time>
      </trkpt>
      <trkpt lat="59.305313006043434" lon="8.186904983595014">
        <ele>653.0234375</ele>
        <time>2019-08-21T12:45:14Z</time>
      </trkpt>
      <trkpt lat="59.305294984951615" lon="8.186894003301859">
        <ele>653.125</ele>
        <time>2019-08-21T12:45:15Z</time>
      </trkpt>
      <trkpt lat="59.305269001051784" lon="8.186869025230408">
        <ele>653.31640625</ele>
        <time>2019-08-21T12:45:16Z</time>
      </trkpt>
      <trkpt lat="59.305249974131584" lon="8.186848992481828">
        <ele>653.48046875</ele>
        <time>2019-08-21T12:45:17Z</time>
      </trkpt>
      <trkpt lat="59.305235976353288" lon="8.186830971390009">
        <ele>653.640625</ele>
        <time>2019-08-21T12:45:18Z</time>
      </trkpt>
      <trkpt lat="59.30521996691823" lon="8.186803981661797">
        <ele>653.85546875</ele>
        <time>2019-08-21T12:45:19Z</time>
      </trkpt>
      <trkpt lat="59.305209992453456" lon="8.186791995540261">
        <ele>653.9609375</ele>
        <time>2019-08-21T12:45:20Z</time>
      </trkpt>
      <trkpt lat="59.305202029645443" lon="8.186797024682164">
        <ele>653.96875</ele>
        <time>2019-08-21T12:45:21Z</time>
      </trkpt>
      <trkpt lat="59.305184008553624" lon="8.186814039945602">
        <ele>653.9609375</ele>
        <time>2019-08-21T12:45:22Z</time>
      </trkpt>
      <trkpt lat="59.305166993290186" lon="8.186817979440093">
        <ele>654.015625</ele>
        <time>2019-08-21T12:45:23Z</time>
      </trkpt>
      <trkpt lat="59.305148972198367" lon="8.186802975833416">
        <ele>654.1640625</ele>
        <time>2019-08-21T12:45:24Z</time>
      </trkpt>
      <trkpt lat="59.305136986076832" lon="8.186791995540261">
        <ele>654.265625</ele>
        <time>2019-08-21T12:45:25Z</time>
      </trkpt>
      <trkpt lat="59.305117959156632" lon="8.186804987490177">
        <ele>654.2890625</ele>
        <time>2019-08-21T12:45:26Z</time>
      </trkpt>
      <trkpt lat="59.305103961378336" lon="8.186815967783332">
        <ele>654.30078125</ele>
        <time>2019-08-21T12:45:27Z</time>
      </trkpt>
      <trkpt lat="59.30509096942842" lon="8.186828959733248">
        <ele>654.3046875</ele>
        <time>2019-08-21T12:45:28Z</time>
      </trkpt>
      <trkpt lat="59.305084012448788" lon="8.186833988875151">
        <ele>654.3125</ele>
        <time>2019-08-21T12:45:29Z</time>
      </trkpt>
      <trkpt lat="59.305071020498872" lon="8.186829965561628">
        <ele>654.38671875</ele>
        <time>2019-08-21T12:45:30Z</time>
      </trkpt>
      <trkpt lat="59.305058028548956" lon="8.186816973611713">
        <ele>654.49609375</ele>
        <time>2019-08-21T12:45:31Z</time>
      </trkpt>
      <trkpt lat="59.305045958608389" lon="8.186814039945602">
        <ele>654.5625</ele>
        <time>2019-08-21T12:45:32Z</time>
      </trkpt>
      <trkpt lat="59.305037995800376" lon="8.186822002753615">
        <ele>654.56640625</ele>
        <time>2019-08-21T12:45:33Z</time>
      </trkpt>
      <trkpt lat="59.305034978315234" lon="8.186820996925235">
        <ele>654.58203125</ele>
        <time>2019-08-21T12:45:34Z</time>
      </trkpt>
      <trkpt lat="59.305021986365318" lon="8.18683298304677">
        <ele>654.59765625</ele>
        <time>2019-08-21T12:45:35Z</time>
      </trkpt>
      <trkpt lat="59.305006982758641" lon="8.186827031895518">
        <ele>654.6875</ele>
        <time>2019-08-21T12:45:36Z</time>
      </trkpt>
      <trkpt lat="59.304991979151964" lon="8.18683197721839">
        <ele>654.734375</ele>
        <time>2019-08-21T12:45:37Z</time>
      </trkpt>
      <trkpt lat="59.304964989423752" lon="8.186857961118221">
        <ele>654.84765625</ele>
        <time>2019-08-21T12:45:38Z</time>
      </trkpt>
      <trkpt lat="59.304942023009062" lon="8.186878999695182">
        <ele>655.0234375</ele>
        <time>2019-08-21T12:45:39Z</time>
      </trkpt>
      <trkpt lat="59.304929031059146" lon="8.186900038272142">
        <ele>655.09765625</ele>
        <time>2019-08-21T12:45:40Z</time>
      </trkpt>
      <trkpt lat="59.304913021624088" lon="8.186915963888168">
        <ele>655.21875</ele>
        <time>2019-08-21T12:45:41Z</time>
      </trkpt>
      <trkpt lat="59.304899023845792" lon="8.186929961666465">
        <ele>655.328125</ele>
        <time>2019-08-21T12:45:42Z</time>
      </trkpt>
      <trkpt lat="59.304895000532269" lon="8.186948988586664">
        <ele>655.31640625</ele>
        <time>2019-08-21T12:45:43Z</time>
      </trkpt>
      <trkpt lat="59.304888965561986" lon="8.186983019113541">
        <ele>655.3125</ele>
        <time>2019-08-21T12:45:44Z</time>
      </trkpt>
      <trkpt lat="59.30487303994596" lon="8.187023000791669">
        <ele>655.40625</ele>
        <time>2019-08-21T12:45:45Z</time>
      </trkpt>
      <trkpt lat="59.304855018854141" lon="8.187049990519881">
        <ele>655.5390625</ele>
        <time>2019-08-21T12:45:46Z</time>
      </trkpt>
      <trkpt lat="59.304834986105561" lon="8.187065999954939">
        <ele>655.7109375</ele>
        <time>2019-08-21T12:45:47Z</time>
      </trkpt>
      <trkpt lat="59.304809002205729" lon="8.187078991904855">
        <ele>655.94140625</ele>
        <time>2019-08-21T12:45:48Z</time>
      </trkpt>
      <trkpt lat="59.304791986942291" lon="8.187077986076474">
        <ele>656.11328125</ele>
        <time>2019-08-21T12:45:49Z</time>
      </trkpt>
      <trkpt lat="59.304772038012743" lon="8.187088966369629">
        <ele>656.28515625</ele>
        <time>2019-08-21T12:45:50Z</time>
      </trkpt>
      <trkpt lat="59.30474597029388" lon="8.187095001339912">
        <ele>656.5234375</ele>
        <time>2019-08-21T12:45:51Z</time>
      </trkpt>
      <trkpt lat="59.30472400970757" lon="8.187093995511532">
        <ele>656.74609375</ele>
        <time>2019-08-21T12:45:52Z</time>
      </trkpt>
      <trkpt lat="59.304695008322597" lon="8.187099024653435">
        <ele>657</ele>
        <time>2019-08-21T12:45:53Z</time>
      </trkpt>
      <trkpt lat="59.304676987230778" lon="8.187078991904855">
        <ele>657.1875</ele>
        <time>2019-08-21T12:45:54Z</time>
      </trkpt>
      <trkpt lat="59.304657038301229" lon="8.187073962762952">
        <ele>657.33984375</ele>
        <time>2019-08-21T12:45:55Z</time>
      </trkpt>
      <trkpt lat="59.304643962532282" lon="8.187060970813036">
        <ele>657.4765625</ele>
        <time>2019-08-21T12:45:56Z</time>
      </trkpt>
      <trkpt lat="59.304631976410747" lon="8.187043033540249">
        <ele>657.62890625</ele>
        <time>2019-08-21T12:45:57Z</time>
      </trkpt>
      <trkpt lat="59.304623007774353" lon="8.187027024105191">
        <ele>657.75390625</ele>
        <time>2019-08-21T12:45:58Z</time>
      </trkpt>
      <trkpt lat="59.304612027481198" lon="8.187027024105191">
        <ele>657.83203125</ele>
        <time>2019-08-21T12:45:59Z</time>
      </trkpt>
      <trkpt lat="59.304590988904238" lon="8.187021994963288">
        <ele>658</ele>
        <time>2019-08-21T12:46:00Z</time>
      </trkpt>
      <trkpt lat="59.304571039974689" lon="8.187013026326895">
        <ele>658.18359375</ele>
        <time>2019-08-21T12:46:01Z</time>
      </trkpt>
      <trkpt lat="59.304554024711251" lon="8.186998022720218">
        <ele>658.37109375</ele>
        <time>2019-08-21T12:46:02Z</time>
      </trkpt>
      <trkpt lat="59.304533991962671" lon="8.18698100745678">
        <ele>658.59765625</ele>
        <time>2019-08-21T12:46:03Z</time>
      </trkpt>
      <trkpt lat="59.30450800806284" lon="8.186972960829735">
        <ele>658.83203125</ele>
        <time>2019-08-21T12:46:04Z</time>
      </trkpt>
      <trkpt lat="59.304483029991388" lon="8.186957035213709">
        <ele>659.1015625</ele>
        <time>2019-08-21T12:46:05Z</time>
      </trkpt>
      <trkpt lat="59.304464003071189" lon="8.186924010515213">
        <ele>659.3203125</ele>
        <time>2019-08-21T12:46:06Z</time>
      </trkpt>
      <trkpt lat="59.304459979757667" lon="8.186888974159956">
        <ele>659.4296875</ele>
        <time>2019-08-21T12:46:07Z</time>
      </trkpt>
      <trkpt lat="59.304461991414428" lon="8.186873970553279">
        <ele>659.4453125</ele>
        <time>2019-08-21T12:46:08Z</time>
      </trkpt>
      <trkpt lat="59.304451011121273" lon="8.186866007745266">
        <ele>659.546875</ele>
        <time>2019-08-21T12:46:09Z</time>
      </trkpt>
      <trkpt lat="59.304436007514596" lon="8.186857039108872">
        <ele>659.68359375</ele>
        <time>2019-08-21T12:46:10Z</time>
      </trkpt>
      <trkpt lat="59.304417986422777" lon="8.186851004138589">
        <ele>659.83984375</ele>
        <time>2019-08-21T12:46:11Z</time>
      </trkpt>
      <trkpt lat="59.304398959502578" lon="8.186849998310208">
        <ele>660.00390625</ele>
        <time>2019-08-21T12:46:12Z</time>
      </trkpt>
      <trkpt lat="59.304370963945985" lon="8.186844969168305">
        <ele>660.25390625</ele>
        <time>2019-08-21T12:46:13Z</time>
      </trkpt>
      <trkpt lat="59.304344980046153" lon="8.18683298304677">
        <ele>660.51171875</ele>
        <time>2019-08-21T12:46:14Z</time>
      </trkpt>
      <trkpt lat="59.304323019459844" lon="8.186814961954951">
        <ele>660.75390625</ele>
        <time>2019-08-21T12:46:15Z</time>
      </trkpt>
      <trkpt lat="59.304300975054502" lon="8.18678897805512">
        <ele>661.03125</ele>
        <time>2019-08-21T12:46:16Z</time>
      </trkpt>
      <trkpt lat="59.30429401807487" lon="8.186750002205372">
        <ele>661.21875</ele>
        <time>2019-08-21T12:46:17Z</time>
      </trkpt>
      <trkpt lat="59.304282031953335" lon="8.18672301247716">
        <ele>661.41796875</ele>
        <time>2019-08-21T12:46:18Z</time>
      </trkpt>
      <trkpt lat="59.304268034175038" lon="8.186693005263805">
        <ele>661.65234375</ele>
        <time>2019-08-21T12:46:19Z</time>
      </trkpt>
      <trkpt lat="59.304246995598078" lon="8.186647994443774">
        <ele>662.01953125</ele>
        <time>2019-08-21T12:46:21Z</time>
      </trkpt>
      <trkpt lat="59.304234003648162" lon="8.186633996665478">
        <ele>662.203125</ele>
        <time>2019-08-21T12:46:22Z</time>
      </trkpt>
      <trkpt lat="59.304217994213104" lon="8.186626033857465">
        <ele>662.3984375</ele>
        <time>2019-08-21T12:46:23Z</time>
      </trkpt>
      <trkpt lat="59.304197039455175" lon="8.186610024422407">
        <ele>662.67578125</ele>
        <time>2019-08-21T12:46:24Z</time>
      </trkpt>
      <trkpt lat="59.304181030020118" lon="8.186579011380673">
        <ele>662.97265625</ele>
        <time>2019-08-21T12:46:25Z</time>
      </trkpt>
      <trkpt lat="59.304168960079551" lon="8.186539029702544">
        <ele>663.26953125</ele>
        <time>2019-08-21T12:46:26Z</time>
      </trkpt>
      <trkpt lat="59.304158985614777" lon="8.186491001397371">
        <ele>663.5859375</ele>
        <time>2019-08-21T12:46:27Z</time>
      </trkpt>
      <trkpt lat="59.304155968129635" lon="8.186454959213734">
        <ele>663.7734375</ele>
        <time>2019-08-21T12:46:28Z</time>
      </trkpt>
      <trkpt lat="59.30414498783648" lon="8.186424029991031">
        <ele>664.0390625</ele>
        <time>2019-08-21T12:46:29Z</time>
      </trkpt>
      <trkpt lat="59.30412202142179" lon="8.186397962272167">
        <ele>664.55859375</ele>
        <time>2019-08-21T12:46:30Z</time>
      </trkpt>
      <trkpt lat="59.304109029471874" lon="8.186370972543955">
        <ele>664.9609375</ele>
        <time>2019-08-21T12:46:31Z</time>
      </trkpt>
      <trkpt lat="59.304093020036817" lon="8.186342976987362">
        <ele>665.41796875</ele>
        <time>2019-08-21T12:46:32Z</time>
      </trkpt>
      <trkpt lat="59.30407801643014" lon="8.186300983652473">
        <ele>665.9453125</ele>
        <time>2019-08-21T12:46:33Z</time>
      </trkpt>
      <trkpt lat="59.304067036136985" lon="8.186257984489203">
        <ele>666.40234375</ele>
        <time>2019-08-21T12:46:34Z</time>
      </trkpt>
      <trkpt lat="59.304055972024798" lon="8.186225965619087">
        <ele>666.7890625</ele>
        <time>2019-08-21T12:46:35Z</time>
      </trkpt>
      <trkpt lat="59.304037028923631" lon="8.186200987547636">
        <ele>667.26171875</ele>
        <time>2019-08-21T12:46:36Z</time>
      </trkpt>
      <trkpt lat="59.304016996175051" lon="8.186182966455817">
        <ele>667.70703125</ele>
        <time>2019-08-21T12:46:37Z</time>
      </trkpt>
      <trkpt lat="59.304001992568374" lon="8.186168968677521">
        <ele>668.04296875</ele>
        <time>2019-08-21T12:46:38Z</time>
      </trkpt>
      <trkpt lat="59.303991012275219" lon="8.186158994212747">
        <ele>668.28515625</ele>
        <time>2019-08-21T12:46:39Z</time>
      </trkpt>
      <trkpt lat="59.303983971476555" lon="8.186155976727605">
        <ele>668.421875</ele>
        <time>2019-08-21T12:46:40Z</time>
      </trkpt>
      <trkpt lat="59.303970979526639" lon="8.186153965070844">
        <ele>668.6484375</ele>
        <time>2019-08-21T12:46:41Z</time>
      </trkpt>
      <trkpt lat="59.303955975919962" lon="8.18614399060607">
        <ele>668.95703125</ele>
        <time>2019-08-21T12:46:42Z</time>
      </trkpt>
      <trkpt lat="59.303943989798427" lon="8.186118006706238">
        <ele>669.3046875</ele>
        <time>2019-08-21T12:46:43Z</time>
      </trkpt>
      <trkpt lat="59.303925968706608" lon="8.186097973957658">
        <ele>669.71875</ele>
        <time>2019-08-21T12:46:44Z</time>
      </trkpt>
      <trkpt lat="59.303917000070214" lon="8.186086993664503">
        <ele>669.93359375</ele>
        <time>2019-08-21T12:46:45Z</time>
      </trkpt>
      <trkpt lat="59.303914988413453" lon="8.186093028634787">
        <ele>669.93359375</ele>
        <time>2019-08-21T12:46:46Z</time>
      </trkpt>
      <trkpt lat="59.303909037262201" lon="8.18608095869422">
        <ele>670.10546875</ele>
        <time>2019-08-21T12:46:47Z</time>
      </trkpt>
      <trkpt lat="59.303897973150015" lon="8.186064027249813">
        <ele>670.3984375</ele>
        <time>2019-08-21T12:46:48Z</time>
      </trkpt>
      <trkpt lat="59.303884981200099" lon="8.186046006157994">
        <ele>670.73828125</ele>
        <time>2019-08-21T12:46:49Z</time>
      </trkpt>
      <trkpt lat="59.303877018392086" lon="8.186027985066176">
        <ele>670.9921875</ele>
        <time>2019-08-21T12:46:50Z</time>
      </trkpt>
      <trkpt lat="59.303875006735325" lon="8.186008036136627">
        <ele>671.15625</ele>
        <time>2019-08-21T12:46:51Z</time>
      </trkpt>
      <trkpt lat="59.303868971765041" lon="8.185967970639467">
        <ele>671.52734375</ele>
        <time>2019-08-21T12:46:52Z</time>
      </trkpt>
      <trkpt lat="59.303860003128648" lon="8.18592899478972">
        <ele>671.94140625</ele>
        <time>2019-08-21T12:46:53Z</time>
      </trkpt>
      <trkpt lat="59.303837958723307" lon="8.185904016718268">
        <ele>672.46484375</ele>
        <time>2019-08-21T12:46:54Z</time>
      </trkpt>
      <trkpt lat="59.303827984258533" lon="8.185875015333295">
        <ele>672.80078125</ele>
        <time>2019-08-21T12:46:55Z</time>
      </trkpt>
      <trkpt lat="59.303811974823475" lon="8.185839978978038">
        <ele>673.23828125</ele>
        <time>2019-08-21T12:46:56Z</time>
      </trkpt>
      <trkpt lat="59.30379998870194" lon="8.185805026441813">
        <ele>673.55859375</ele>
        <time>2019-08-21T12:46:57Z</time>
      </trkpt>
      <trkpt lat="59.303794959560037" lon="8.185769990086556">
        <ele>673.765625</ele>
        <time>2019-08-21T12:46:58Z</time>
      </trkpt>
      <trkpt lat="59.303794037550688" lon="8.185729002580047">
        <ele>673.9375</ele>
        <time>2019-08-21T12:46:59Z</time>
      </trkpt>
      <trkpt lat="59.303794037550688" lon="8.185706958174706">
        <ele>674.01953125</ele>
        <time>2019-08-21T12:47:00Z</time>
      </trkpt>
      <trkpt lat="59.303794037550688" lon="8.185700001195073">
        <ele>674.046875</ele>
        <time>2019-08-21T12:47:01Z</time>
      </trkpt>
      <trkpt lat="59.303781967610121" lon="8.185687009245157">
        <ele>674.26953125</ele>
        <time>2019-08-21T12:47:02Z</time>
      </trkpt>
      <trkpt lat="59.303774004802108" lon="8.185657002031803">
        <ele>674.48828125</ele>
        <time>2019-08-21T12:47:03Z</time>
      </trkpt>
      <trkpt lat="59.303765036165714" lon="8.185636969283223">
        <ele>674.6875</ele>
        <time>2019-08-21T12:47:04Z</time>
      </trkpt>
      <trkpt lat="59.303755983710289" lon="8.185618026182056">
        <ele>674.87890625</ele>
        <time>2019-08-21T12:47:05Z</time>
      </trkpt>
      <trkpt lat="59.303742991760373" lon="8.185601010918617">
        <ele>675.11328125</ele>
        <time>2019-08-21T12:47:06Z</time>
      </trkpt>
      <trkpt lat="59.303725976496935" lon="8.185578966513276">
        <ele>675.4140625</ele>
        <time>2019-08-21T12:47:07Z</time>
      </trkpt>
      <trkpt lat="59.303721031174064" lon="8.185567986220121">
        <ele>675.515625</ele>
        <time>2019-08-21T12:47:08Z</time>
      </trkpt>
      <trkpt lat="59.3037139903754" lon="8.185556000098586">
        <ele>675.6484375</ele>
        <time>2019-08-21T12:47:09Z</time>
      </trkpt>
      <trkpt lat="59.3037139903754" lon="8.185534961521626">
        <ele>675.72265625</ele>
        <time>2019-08-21T12:47:10Z</time>
      </trkpt>
      <trkpt lat="59.3037139903754" lon="8.185523981228471">
        <ele>675.76171875</ele>
        <time>2019-08-21T12:47:11Z</time>
      </trkpt>
      <trkpt lat="59.3037139903754" lon="8.185505038127303">
        <ele>675.828125</ele>
        <time>2019-08-21T12:47:12Z</time>
      </trkpt>
      <trkpt lat="59.303706027567387" lon="8.185486011207104">
        <ele>676.01171875</ele>
        <time>2019-08-21T12:47:13Z</time>
      </trkpt>
      <trkpt lat="59.303695969283581" lon="8.185460027307272">
        <ele>676.25390625</ele>
        <time>2019-08-21T12:47:14Z</time>
      </trkpt>
      <trkpt lat="59.303683983162045" lon="8.185448963195086">
        <ele>676.4765625</ele>
        <time>2019-08-21T12:47:15Z</time>
      </trkpt>
      <trkpt lat="59.303673002868891" lon="8.185445023700595">
        <ele>676.66015625</ele>
        <time>2019-08-21T12:47:16Z</time>
      </trkpt>
      <trkpt lat="59.303663028404117" lon="8.185424990952015">
        <ele>676.89453125</ele>
        <time>2019-08-21T12:47:17Z</time>
      </trkpt>
      <trkpt lat="59.303652970120311" lon="8.185391966253519">
        <ele>677.19921875</ele>
        <time>2019-08-21T12:47:18Z</time>
      </trkpt>
      <trkpt lat="59.303645007312298" lon="8.185358019545674">
        <ele>677.484375</ele>
        <time>2019-08-21T12:47:19Z</time>
      </trkpt>
      <trkpt lat="59.303640983998775" lon="8.185329018160701">
        <ele>677.68359375</ele>
        <time>2019-08-21T12:47:20Z</time>
      </trkpt>
      <trkpt lat="59.303639978170395" lon="8.185302028432488">
        <ele>677.828125</ele>
        <time>2019-08-21T12:47:21Z</time>
      </trkpt>
      <trkpt lat="59.303637966513634" lon="8.185283001512289">
        <ele>677.984375</ele>
        <time>2019-08-21T12:47:22Z</time>
      </trkpt>
      <trkpt lat="59.303636038675904" lon="8.185270009562373">
        <ele>678.13671875</ele>
        <time>2019-08-21T12:47:23Z</time>
      </trkpt>
      <trkpt lat="59.303631009534001" lon="8.185246037319303">
        <ele>678.4375</ele>
        <time>2019-08-21T12:47:24Z</time>
      </trkpt>
      <trkpt lat="59.30362799204886" lon="8.185219969600439">
        <ele>678.72265625</ele>
        <time>2019-08-21T12:47:25Z</time>
      </trkpt>
      <trkpt lat="59.303623968735337" lon="8.185185017064214">
        <ele>679.10546875</ele>
        <time>2019-08-21T12:47:26Z</time>
      </trkpt>
      <trkpt lat="59.303612988442183" lon="8.185146963223815">
        <ele>679.62890625</ele>
        <time>2019-08-21T12:47:27Z</time>
      </trkpt>
      <trkpt lat="59.303601002320647" lon="8.185116034001112">
        <ele>680.10546875</ele>
        <time>2019-08-21T12:47:28Z</time>
      </trkpt>
      <trkpt lat="59.303598990663886" lon="8.185097007080913">
        <ele>680.30859375</ele>
        <time>2019-08-21T12:47:29Z</time>
      </trkpt>
      <trkpt lat="59.303601002320647" lon="8.185073034837842">
        <ele>680.48828125</ele>
        <time>2019-08-21T12:47:30Z</time>
      </trkpt>
      <trkpt lat="59.303604019805789" lon="8.185047972947359">
        <ele>680.65625</ele>
        <time>2019-08-21T12:47:31Z</time>
      </trkpt>
      <trkpt lat="59.303595973178744" lon="8.185025006532669">
        <ele>680.9921875</ele>
        <time>2019-08-21T12:47:32Z</time>
      </trkpt>
      <trkpt lat="59.303593039512634" lon="8.184999022632837">
        <ele>681.1953125</ele>
        <time>2019-08-21T12:47:33Z</time>
      </trkpt>
      <trkpt lat="59.303595973178744" lon="8.184959962964058">
        <ele>681.27734375</ele>
        <time>2019-08-21T12:47:34Z</time>
      </trkpt>
      <trkpt lat="59.303594967350364" lon="8.184926016256213">
        <ele>681.40625</ele>
        <time>2019-08-21T12:47:35Z</time>
      </trkpt>
      <trkpt lat="59.303598990663886" lon="8.184888968244195">
        <ele>681.46484375</ele>
        <time>2019-08-21T12:47:36Z</time>
      </trkpt>
      <trkpt lat="59.30360502563417" lon="8.184840017929673">
        <ele>681.53125</ele>
        <time>2019-08-21T12:47:37Z</time>
      </trkpt>
      <trkpt lat="59.303607037290931" lon="8.184802969917655">
        <ele>681.625</ele>
        <time>2019-08-21T12:47:38Z</time>
      </trkpt>
      <trkpt lat="59.30360603146255" lon="8.184778997674584">
        <ele>681.72265625</ele>
        <time>2019-08-21T12:47:39Z</time>
      </trkpt>
      <trkpt lat="59.303596979007125" lon="8.184751002117991">
        <ele>681.953125</ele>
        <time>2019-08-21T12:47:40Z</time>
      </trkpt>
      <trkpt lat="59.303587004542351" lon="8.184723006561399">
        <ele>682.19140625</ele>
        <time>2019-08-21T12:47:41Z</time>
      </trkpt>
      <trkpt lat="59.303582981228828" lon="8.184699034318328">
        <ele>682.31640625</ele>
        <time>2019-08-21T12:47:42Z</time>
      </trkpt>
      <trkpt lat="59.303581975400448" lon="8.184674978256226">
        <ele>682.38671875</ele>
        <time>2019-08-21T12:47:43Z</time>
      </trkpt>
      <trkpt lat="59.303583987057209" lon="8.184644971042872">
        <ele>682.41796875</ele>
        <time>2019-08-21T12:47:44Z</time>
      </trkpt>
      <trkpt lat="59.303593039512634" lon="8.184613035991788">
        <ele>682.3359375</ele>
        <time>2019-08-21T12:47:45Z</time>
      </trkpt>
      <trkpt lat="59.303596979007125" lon="8.184590991586447">
        <ele>682.32421875</ele>
        <time>2019-08-21T12:47:46Z</time>
      </trkpt>
      <trkpt lat="59.303592033684254" lon="8.184585040435195">
        <ele>682.4140625</ele>
        <time>2019-08-21T12:47:47Z</time>
      </trkpt>
      <trkpt lat="59.303581975400448" lon="8.184566013514996">
        <ele>682.62890625</ele>
        <time>2019-08-21T12:47:48Z</time>
      </trkpt>
      <trkpt lat="59.303577030077577" lon="8.1845329888165">
        <ele>682.79296875</ele>
        <time>2019-08-21T12:47:49Z</time>
      </trkpt>
      <trkpt lat="59.303564038127661" lon="8.184523014351726">
        <ele>683.0546875</ele>
        <time>2019-08-21T12:47:50Z</time>
      </trkpt>
      <trkpt lat="59.303558003157377" lon="8.184519996866584">
        <ele>683.171875</ele>
        <time>2019-08-21T12:47:51Z</time>
      </trkpt>
      <trkpt lat="59.303550040349364" lon="8.18451002240181">
        <ele>683.34375</ele>
        <time>2019-08-21T12:47:52Z</time>
      </trkpt>
      <trkpt lat="59.303538976237178" lon="8.184483032673597">
        <ele>683.61328125</ele>
        <time>2019-08-21T12:47:53Z</time>
      </trkpt>
      <trkpt lat="59.303525984287262" lon="8.184461994096637">
        <ele>683.90625</ele>
        <time>2019-08-21T12:47:54Z</time>
      </trkpt>
      <trkpt lat="59.30352296680212" lon="8.184442967176437">
        <ele>684.10546875</ele>
        <time>2019-08-21T12:47:55Z</time>
      </trkpt>
      <trkpt lat="59.303518021479249" lon="8.184423018246889">
        <ele>684.37890625</ele>
        <time>2019-08-21T12:47:56Z</time>
      </trkpt>
      <trkpt lat="59.303511986508965" lon="8.184389993548393">
        <ele>684.78515625</ele>
        <time>2019-08-21T12:47:57Z</time>
      </trkpt>
      <trkpt lat="59.303509974852204" lon="8.184343976899982">
        <ele>685.23046875</ele>
        <time>2019-08-21T12:47:58Z</time>
      </trkpt>
      <trkpt lat="59.303516009822488" lon="8.184310030192137">
        <ele>685.43359375</ele>
        <time>2019-08-21T12:47:59Z</time>
      </trkpt>
      <trkpt lat="59.303511986508965" lon="8.184288991615176">
        <ele>685.6875</ele>
        <time>2019-08-21T12:48:00Z</time>
      </trkpt>
      <trkpt lat="59.303503017872572" lon="8.184259990230203">
        <ele>686.09375</ele>
        <time>2019-08-21T12:48:01Z</time>
      </trkpt>
      <trkpt lat="59.303494971245527" lon="8.184222020208836">
        <ele>686.55859375</ele>
        <time>2019-08-21T12:48:02Z</time>
      </trkpt>
      <trkpt lat="59.303481979295611" lon="8.184196958318353">
        <ele>686.98046875</ele>
        <time>2019-08-21T12:48:03Z</time>
      </trkpt>
      <trkpt lat="59.303473010659218" lon="8.184170974418521">
        <ele>687.35546875</ele>
        <time>2019-08-21T12:48:04Z</time>
      </trkpt>
      <trkpt lat="59.303462030366063" lon="8.18414599634707">
        <ele>687.76953125</ele>
        <time>2019-08-21T12:48:05Z</time>
      </trkpt>
      <trkpt lat="59.303450966253877" lon="8.184130992740393">
        <ele>688.08984375</ele>
        <time>2019-08-21T12:48:06Z</time>
      </trkpt>
      <trkpt lat="59.303444009274244" lon="8.184110037982464">
        <ele>688.40234375</ele>
        <time>2019-08-21T12:48:07Z</time>
      </trkpt>
      <trkpt lat="59.30343403480947" lon="8.184086987748742">
        <ele>688.78515625</ele>
        <time>2019-08-21T12:48:08Z</time>
      </trkpt>
      <trkpt lat="59.303423976525664" lon="8.184071984142065">
        <ele>689.0859375</ele>
        <time>2019-08-21T12:48:09Z</time>
      </trkpt>
      <trkpt lat="59.30341299623251" lon="8.184055974707007">
        <ele>689.4140625</ele>
        <time>2019-08-21T12:48:10Z</time>
      </trkpt>
      <trkpt lat="59.30339296348393" lon="8.184030996635556">
        <ele>689.96875</ele>
        <time>2019-08-21T12:48:11Z</time>
      </trkpt>
      <trkpt lat="59.303372008726001" lon="8.184003001078963">
        <ele>690.56640625</ele>
        <time>2019-08-21T12:48:12Z</time>
      </trkpt>
      <trkpt lat="59.303364967927337" lon="8.183980034664273">
        <ele>690.90234375</ele>
        <time>2019-08-21T12:48:13Z</time>
      </trkpt>
      <trkpt lat="59.30334996432066" lon="8.183962013572455">
        <ele>691.3125</ele>
        <time>2019-08-21T12:48:14Z</time>
      </trkpt>
      <trkpt lat="59.303334038704634" lon="8.183938963338733">
        <ele>691.78515625</ele>
        <time>2019-08-21T12:48:15Z</time>
      </trkpt>
      <trkpt lat="59.303323980420828" lon="8.183926977217197">
        <ele>692.05859375</ele>
        <time>2019-08-21T12:48:16Z</time>
      </trkpt>
      <trkpt lat="59.30330696515739" lon="8.183914991095662">
        <ele>692.43359375</ele>
        <time>2019-08-21T12:48:17Z</time>
      </trkpt>
      <trkpt lat="59.303292967379093" lon="8.183882972225547">
        <ele>692.9453125</ele>
        <time>2019-08-21T12:48:18Z</time>
      </trkpt>
      <trkpt lat="59.303276035934687" lon="8.183843996375799">
        <ele>693.56640625</ele>
        <time>2019-08-21T12:48:19Z</time>
      </trkpt>
      <trkpt lat="59.303252985700965" lon="8.183819018304348">
        <ele>694.1328125</ele>
        <time>2019-08-21T12:48:20Z</time>
      </trkpt>
      <trkpt lat="59.303234964609146" lon="8.183799991384149">
        <ele>694.56640625</ele>
        <time>2019-08-21T12:48:21Z</time>
      </trkpt>
      <trkpt lat="59.303228007629514" lon="8.183776019141078">
        <ele>694.890625</ele>
        <time>2019-08-21T12:48:22Z</time>
      </trkpt>
      <trkpt lat="59.303213004022837" lon="8.183763027191162">
        <ele>695.21875</ele>
        <time>2019-08-21T12:48:23Z</time>
      </trkpt>
      <trkpt lat="59.30319800041616" lon="8.183745006099343">
        <ele>695.59765625</ele>
        <time>2019-08-21T12:48:24Z</time>
      </trkpt>
      <trkpt lat="59.303187020123005" lon="8.183742994442582">
        <ele>695.765625</ele>
        <time>2019-08-21T12:48:25Z</time>
      </trkpt>
      <trkpt lat="59.303172016516328" lon="8.183736959472299">
        <ele>696.02734375</ele>
        <time>2019-08-21T12:48:26Z</time>
      </trkpt>
      <trkpt lat="59.30315500125289" lon="8.183722039684653">
        <ele>696.39453125</ele>
        <time>2019-08-21T12:48:27Z</time>
      </trkpt>
      <trkpt lat="59.303137985989451" lon="8.183704018592835">
        <ele>696.79296875</ele>
        <time>2019-08-21T12:48:28Z</time>
      </trkpt>
      <trkpt lat="59.303128011524677" lon="8.183687003329396">
        <ele>697.08203125</ele>
        <time>2019-08-21T12:48:29Z</time>
      </trkpt>
      <trkpt lat="59.303115019574761" lon="8.183659007772803">
        <ele>697.51171875</ele>
        <time>2019-08-21T12:48:30Z</time>
      </trkpt>
      <trkpt lat="59.303107978776097" lon="8.183623971417546">
        <ele>697.92578125</ele>
        <time>2019-08-21T12:48:31Z</time>
      </trkpt>
      <trkpt lat="59.303101021796465" lon="8.183607961982489">
        <ele>698.1796875</ele>
        <time>2019-08-21T12:48:32Z</time>
      </trkpt>
      <trkpt lat="59.30308903567493" lon="8.183592958375812">
        <ele>698.48828125</ele>
        <time>2019-08-21T12:48:33Z</time>
      </trkpt>
      <trkpt lat="59.303078977391124" lon="8.183560017496347">
        <ele>698.953125</ele>
        <time>2019-08-21T12:48:34Z</time>
      </trkpt>
      <trkpt lat="59.303066991269588" lon="8.183533027768135">
        <ele>699.375</ele>
        <time>2019-08-21T12:48:35Z</time>
      </trkpt>
      <trkpt lat="59.30304997600615" lon="8.183516012504697">
        <ele>699.765625</ele>
        <time>2019-08-21T12:48:36Z</time>
      </trkpt>
      <trkpt lat="59.303032038733363" lon="8.183497991412878">
        <ele>700.16796875</ele>
        <time>2019-08-21T12:48:37Z</time>
      </trkpt>
      <trkpt lat="59.303018040955067" lon="8.18348097614944">
        <ele>700.48828125</ele>
        <time>2019-08-21T12:48:38Z</time>
      </trkpt>
      <trkpt lat="59.302999014034867" lon="8.183465972542763">
        <ele>700.828125</ele>
        <time>2019-08-21T12:48:39Z</time>
      </trkpt>
      <trkpt lat="59.302981998771429" lon="8.183434037491679">
        <ele>701.28515625</ele>
        <time>2019-08-21T12:48:40Z</time>
      </trkpt>
      <trkpt lat="59.302973030135036" lon="8.183397995308042">
        <ele>701.67578125</ele>
        <time>2019-08-21T12:48:41Z</time>
      </trkpt>
      <trkpt lat="59.302965989336371" lon="8.183362958952785">
        <ele>702.02734375</ele>
        <time>2019-08-21T12:48:42Z</time>
      </trkpt>
      <trkpt lat="59.302956014871597" lon="8.183337980881333">
        <ele>702.3125</ele>
        <time>2019-08-21T12:48:43Z</time>
      </trkpt>
      <trkpt lat="59.302945034578443" lon="8.183318031951785">
        <ele>702.5625</ele>
        <time>2019-08-21T12:48:44Z</time>
      </trkpt>
      <trkpt lat="59.302943022921681" lon="8.183288024738431">
        <ele>702.83203125</ele>
        <time>2019-08-21T12:48:45Z</time>
      </trkpt>
      <trkpt lat="59.302931958809495" lon="8.183259023353458">
        <ele>703.16796875</ele>
        <time>2019-08-21T12:48:46Z</time>
      </trkpt>
      <trkpt lat="59.302918966859579" lon="8.183232033625245">
        <ele>703.5078125</ele>
        <time>2019-08-21T12:48:47Z</time>
      </trkpt>
      <trkpt lat="59.302907986566424" lon="8.183214012533426">
        <ele>703.76171875</ele>
        <time>2019-08-21T12:48:48Z</time>
      </trkpt>
      <trkpt lat="59.302894994616508" lon="8.183194985613227">
        <ele>704.0390625</ele>
        <time>2019-08-21T12:48:49Z</time>
      </trkpt>
      <trkpt lat="59.302880996838212" lon="8.183170007541776">
        <ele>704.38671875</ele>
        <time>2019-08-21T12:48:50Z</time>
      </trkpt>
      <trkpt lat="59.302869010716677" lon="8.183150980621576">
        <ele>704.66796875</ele>
        <time>2019-08-21T12:48:51Z</time>
      </trkpt>
      <trkpt lat="59.302858030423522" lon="8.183127008378506">
        <ele>704.984375</ele>
        <time>2019-08-21T12:48:52Z</time>
      </trkpt>
      <trkpt lat="59.30285400711" lon="8.183099012821913">
        <ele>705.27734375</ele>
        <time>2019-08-21T12:48:53Z</time>
      </trkpt>
      <trkpt lat="59.302844032645226" lon="8.183089960366488">
        <ele>705.45703125</ele>
        <time>2019-08-21T12:48:54Z</time>
      </trkpt>
      <trkpt lat="59.302831962704659" lon="8.183076968416572">
        <ele>705.6953125</ele>
        <time>2019-08-21T12:48:55Z</time>
      </trkpt>
      <trkpt lat="59.302825005725026" lon="8.183041010051966">
        <ele>706.046875</ele>
        <time>2019-08-21T12:48:56Z</time>
      </trkpt>
      <trkpt lat="59.302816959097981" lon="8.183001028373838">
        <ele>706.43359375</ele>
        <time>2019-08-21T12:48:57Z</time>
      </trkpt>
      <trkpt lat="59.302816037088633" lon="8.182970015332103">
        <ele>706.6796875</ele>
        <time>2019-08-21T12:48:58Z</time>
      </trkpt>
      <trkpt lat="59.302815031260252" lon="8.18294201977551">
        <ele>706.90234375</ele>
        <time>2019-08-21T12:48:59Z</time>
      </trkpt>
      <trkpt lat="59.30281201377511" lon="8.182910000905395">
        <ele>707.1875</ele>
        <time>2019-08-21T12:49:00Z</time>
      </trkpt>
      <trkpt lat="59.302804972976446" lon="8.182891979813576">
        <ele>707.421875</ele>
        <time>2019-08-21T12:49:01Z</time>
      </trkpt>
      <trkpt lat="59.302803967148066" lon="8.18287898786366">
        <ele>707.53515625</ele>
        <time>2019-08-21T12:49:02Z</time>
      </trkpt>
      <trkpt lat="59.302798015996814" lon="8.182865995913744">
        <ele>707.72265625</ele>
        <time>2019-08-21T12:49:03Z</time>
      </trkpt>
      <trkpt lat="59.302788963541389" lon="8.18285602144897">
        <ele>707.9296875</ele>
        <time>2019-08-21T12:49:04Z</time>
      </trkpt>
      <trkpt lat="59.302784018218517" lon="8.182850992307067">
        <ele>708.0390625</ele>
        <time>2019-08-21T12:49:05Z</time>
      </trkpt>
      <trkpt lat="59.302787035703659" lon="8.182846968993545">
        <ele>708.03125</ele>
        <time>2019-08-21T12:49:06Z</time>
      </trkpt>
      <trkpt lat="59.30278804153204" lon="8.182846968993545">
        <ele>708.015625</ele>
        <time>2019-08-21T12:49:07Z</time>
      </trkpt>
      <trkpt lat="59.30279097519815" lon="8.182833977043629">
        <ele>708.078125</ele>
        <time>2019-08-21T12:49:08Z</time>
      </trkpt>
      <trkpt lat="59.302786029875278" lon="8.182816039770842">
        <ele>708.296875</ele>
        <time>2019-08-21T12:49:09Z</time>
      </trkpt>
      <trkpt lat="59.302787035703659" lon="8.182791983708739">
        <ele>708.48046875</ele>
        <time>2019-08-21T12:49:10Z</time>
      </trkpt>
      <trkpt lat="59.30279097519815" lon="8.182769017294049">
        <ele>708.53515625</ele>
        <time>2019-08-21T12:49:11Z</time>
      </trkpt>
      <trkpt lat="59.302783012390137" lon="8.182752002030611">
        <ele>708.74609375</ele>
        <time>2019-08-21T12:49:12Z</time>
      </trkpt>
      <trkpt lat="59.302770020440221" lon="8.182730963453651">
        <ele>709.06640625</ele>
        <time>2019-08-21T12:49:13Z</time>
      </trkpt>
      <trkpt lat="59.302756022661924" lon="8.182713026180863">
        <ele>709.390625</ele>
        <time>2019-08-21T12:49:14Z</time>
      </trkpt>
      <trkpt lat="59.302744036540389" lon="8.182696010917425">
        <ele>709.76171875</ele>
        <time>2019-08-21T12:49:15Z</time>
      </trkpt>
      <trkpt lat="59.302727021276951" lon="8.182682013139129">
        <ele>710.23046875</ele>
        <time>2019-08-21T12:49:16Z</time>
      </trkpt>
      <trkpt lat="59.302722997963428" lon="8.182673966512084">
        <ele>710.3671875</ele>
        <time>2019-08-21T12:49:17Z</time>
      </trkpt>
      <trkpt lat="59.302710006013513" lon="8.182662986218929">
        <ele>710.7265625</ele>
        <time>2019-08-21T12:49:18Z</time>
      </trkpt>
      <trkpt lat="59.302698019891977" lon="8.182653011754155">
        <ele>711.05859375</ele>
        <time>2019-08-21T12:49:19Z</time>
      </trkpt>
      <trkpt lat="59.302687961608171" lon="8.182640019804239">
        <ele>711.359375</ele>
        <time>2019-08-21T12:49:20Z</time>
      </trkpt>
      <trkpt lat="59.302678992971778" lon="8.182633984833956">
        <ele>711.6015625</ele>
        <time>2019-08-21T12:49:21Z</time>
      </trkpt>
      <trkpt lat="59.30266298353672" lon="8.182624010369182">
        <ele>712.0234375</ele>
        <time>2019-08-21T12:49:22Z</time>
      </trkpt>
      <trkpt lat="59.302644962444901" lon="8.182606995105743">
        <ele>712.53125</ele>
        <time>2019-08-21T12:49:23Z</time>
      </trkpt>
      <trkpt lat="59.302633982151747" lon="8.182601965963841">
        <ele>712.8125</ele>
        <time>2019-08-21T12:49:24Z</time>
      </trkpt>
      <trkpt lat="59.302621996030211" lon="8.18260096013546">
        <ele>713.09375</ele>
        <time>2019-08-21T12:49:25Z</time>
      </trkpt>
      <trkpt lat="59.302607998251915" lon="8.182604983448982">
        <ele>713.39453125</ele>
        <time>2019-08-21T12:49:26Z</time>
      </trkpt>
      <trkpt lat="59.302595006301999" lon="8.182604983448982">
        <ele>713.6953125</ele>
        <time>2019-08-21T12:49:27Z</time>
      </trkpt>
      <trkpt lat="59.302587965503335" lon="8.182586040347815">
        <ele>713.9609375</ele>
        <time>2019-08-21T12:49:28Z</time>
      </trkpt>
      <trkpt lat="59.30257698521018" lon="8.182567013427615">
        <ele>714.3203125</ele>
        <time>2019-08-21T12:49:29Z</time>
      </trkpt>
      <trkpt lat="59.302567010745406" lon="8.182551003992558">
        <ele>714.63671875</ele>
        <time>2019-08-21T12:49:30Z</time>
      </trkpt>
      <trkpt lat="59.302562987431884" lon="8.182531977072358">
        <ele>714.83203125</ele>
        <time>2019-08-21T12:49:31Z</time>
      </trkpt>
      <trkpt lat="59.302557958289981" lon="8.182500964030623">
        <ele>715.05078125</ele>
        <time>2019-08-21T12:49:32Z</time>
      </trkpt>
      <trkpt lat="59.302548989653587" lon="8.182468023151159">
        <ele>715.265625</ele>
        <time>2019-08-21T12:49:33Z</time>
      </trkpt>
      <trkpt lat="59.302543960511684" lon="8.182452013716102">
        <ele>715.3828125</ele>
        <time>2019-08-21T12:49:34Z</time>
      </trkpt>
      <trkpt lat="59.30253298021853" lon="8.182442039251328">
        <ele>715.63671875</ele>
        <time>2019-08-21T12:49:35Z</time>
      </trkpt>
      <trkpt lat="59.302514037117362" lon="8.182430975139141">
        <ele>716.0703125</ele>
        <time>2019-08-21T12:49:36Z</time>
      </trkpt>
      <trkpt lat="59.302495010197163" lon="8.18242602981627">
        <ele>716.50390625</ele>
        <time>2019-08-21T12:49:37Z</time>
      </trkpt>
      <trkpt lat="59.302486963570118" lon="8.18242896348238">
        <ele>716.68359375</ele>
        <time>2019-08-21T12:49:38Z</time>
      </trkpt>
      <trkpt lat="59.302471959963441" lon="8.182440027594566">
        <ele>717.05078125</ele>
        <time>2019-08-21T12:49:39Z</time>
      </trkpt>
      <trkpt lat="59.302454022690654" lon="8.182432986795902">
        <ele>717.5234375</ele>
        <time>2019-08-21T12:49:40Z</time>
      </trkpt>
      <trkpt lat="59.302442036569118" lon="8.18242602981627">
        <ele>717.83984375</ele>
        <time>2019-08-21T12:49:41Z</time>
      </trkpt>
      <trkpt lat="59.302438013255596" lon="8.182422006502748">
        <ele>717.9453125</ele>
        <time>2019-08-21T12:49:42Z</time>
      </trkpt>
      <trkpt lat="59.302426027134061" lon="8.182425023987889">
        <ele>718.26171875</ele>
        <time>2019-08-21T12:49:43Z</time>
      </trkpt>
      <trkpt lat="59.3024049885571" lon="8.182436004281044">
        <ele>718.81640625</ele>
        <time>2019-08-21T12:49:44Z</time>
      </trkpt>
      <trkpt lat="59.302388979122043" lon="8.182421000674367">
        <ele>719.23828125</ele>
        <time>2019-08-21T12:49:45Z</time>
      </trkpt>
      <trkpt lat="59.302376993000507" lon="8.182404991239309">
        <ele>719.55078125</ele>
        <time>2019-08-21T12:49:46Z</time>
      </trkpt>
      <trkpt lat="59.302364001050591" lon="8.182386970147491">
        <ele>719.89453125</ele>
        <time>2019-08-21T12:49:47Z</time>
      </trkpt>
      <trkpt lat="59.302355032414198" lon="8.182368027046323">
        <ele>720.1328125</ele>
        <time>2019-08-21T12:49:48Z</time>
      </trkpt>
      <trkpt lat="59.302346985787153" lon="8.182341037318111">
        <ele>720.34375</ele>
        <time>2019-08-21T12:49:49Z</time>
      </trkpt>
      <trkpt lat="59.30233801715076" lon="8.182327961549163">
        <ele>720.578125</ele>
        <time>2019-08-21T12:49:50Z</time>
      </trkpt>
      <trkpt lat="59.302336005493999" lon="8.182324022054672">
        <ele>720.6328125</ele>
        <time>2019-08-21T12:49:51Z</time>
      </trkpt>
      <trkpt lat="59.302328964695334" lon="8.182317987084389">
        <ele>720.81640625</ele>
        <time>2019-08-21T12:49:52Z</time>
      </trkpt>
      <trkpt lat="59.302308009937406" lon="8.182311030104756">
        <ele>721.37109375</ele>
        <time>2019-08-21T12:49:53Z</time>
      </trkpt>
      <trkpt lat="59.30229602381587" lon="8.182286974042654">
        <ele>721.6875</ele>
        <time>2019-08-21T12:49:54Z</time>
      </trkpt>
      <trkpt lat="59.302286971360445" lon="8.182269036769867">
        <ele>721.92578125</ele>
        <time>2019-08-21T12:49:55Z</time>
      </trkpt>
      <trkpt lat="59.30227498523891" lon="8.182267025113106">
        <ele>722.2421875</ele>
        <time>2019-08-21T12:49:56Z</time>
      </trkpt>
      <trkpt lat="59.302256964147091" lon="8.182265013456345">
        <ele>722.71484375</ele>
        <time>2019-08-21T12:49:57Z</time>
      </trkpt>
      <trkpt lat="59.302243972197175" lon="8.182243974879384">
        <ele>723.05859375</ele>
        <time>2019-08-21T12:49:58Z</time>
      </trkpt>
      <trkpt lat="59.302227040752769" lon="8.182240035384893">
        <ele>723.50390625</ele>
        <time>2019-08-21T12:49:59Z</time>
      </trkpt>
      <trkpt lat="59.302221005782485" lon="8.182231988757849">
        <ele>723.65234375</ele>
        <time>2019-08-21T12:50:00Z</time>
      </trkpt>
      <trkpt lat="59.302211031317711" lon="8.182246992364526">
        <ele>723.92578125</ele>
        <time>2019-08-21T12:50:01Z</time>
      </trkpt>
      <trkpt lat="59.302199967205524" lon="8.182267025113106">
        <ele>724.2265625</ele>
        <time>2019-08-21T12:50:02Z</time>
      </trkpt>
      <trkpt lat="59.302187981083989" lon="8.182284962385893">
        <ele>724.6328125</ele>
        <time>2019-08-21T12:50:03Z</time>
      </trkpt>
      <trkpt lat="59.302180018275976" lon="8.182284040376544">
        <ele>724.90625</ele>
        <time>2019-08-21T12:50:04Z</time>
      </trkpt>
      <trkpt lat="59.302170965820551" lon="8.182283034548163">
        <ele>725.2109375</ele>
        <time>2019-08-21T12:50:05Z</time>
      </trkpt>
      <trkpt lat="59.302157973870635" lon="8.182294014841318">
        <ele>725.65625</ele>
        <time>2019-08-21T12:50:06Z</time>
      </trkpt>
      <trkpt lat="59.302143976092339" lon="8.182313963770866">
        <ele>726.1328125</ele>
        <time>2019-08-21T12:50:07Z</time>
      </trkpt>
      <trkpt lat="59.302140958607197" lon="8.182327039539814">
        <ele>726.234375</ele>
        <time>2019-08-21T12:50:08Z</time>
      </trkpt>
      <trkpt lat="59.302140958607197" lon="8.182329973205924">
        <ele>726.234375</ele>
        <time>2019-08-21T12:50:09Z</time>
      </trkpt>
      <trkpt lat="59.302136013284326" lon="8.182337014004588">
        <ele>726.40234375</ele>
        <time>2019-08-21T12:50:10Z</time>
      </trkpt>
      <trkpt lat="59.302127966657281" lon="8.182353023439646">
        <ele>726.67578125</ele>
        <time>2019-08-21T12:50:11Z</time>
      </trkpt>
      <trkpt lat="59.302114974707365" lon="8.182368027046323">
        <ele>727.1171875</ele>
        <time>2019-08-21T12:50:12Z</time>
      </trkpt>
      <trkpt lat="59.302110029384494" lon="8.182378001511097">
        <ele>727.28515625</ele>
        <time>2019-08-21T12:50:13Z</time>
      </trkpt>
      <trkpt lat="59.302101982757449" lon="8.182380013167858">
        <ele>727.5625</ele>
        <time>2019-08-21T12:50:14Z</time>
      </trkpt>
      <trkpt lat="59.302084967494011" lon="8.182395016774535">
        <ele>728.140625</ele>
        <time>2019-08-21T12:50:15Z</time>
      </trkpt>
      <trkpt lat="59.302078010514379" lon="8.182407002896071">
        <ele>728.375</ele>
        <time>2019-08-21T12:50:16Z</time>
      </trkpt>
      <trkpt lat="59.302075998857617" lon="8.182404991239309">
        <ele>728.4453125</ele>
        <time>2019-08-21T12:50:17Z</time>
      </trkpt>
      <trkpt lat="59.302077004685998" lon="8.182409014552832">
        <ele>728.41015625</ele>
        <time>2019-08-21T12:50:18Z</time>
      </trkpt>
      <trkpt lat="59.302066024392843" lon="8.182411026209593">
        <ele>728.78515625</ele>
        <time>2019-08-21T12:50:19Z</time>
      </trkpt>
      <trkpt lat="59.302054960280657" lon="8.182400967925787">
        <ele>729.16015625</ele>
        <time>2019-08-21T12:50:20Z</time>
      </trkpt>
      <trkpt lat="59.302044985815883" lon="8.182399962097406">
        <ele>729.5</ele>
        <time>2019-08-21T12:50:21Z</time>
      </trkpt>
      <trkpt lat="59.302036017179489" lon="8.182414965704083">
        <ele>729.8046875</ele>
        <time>2019-08-21T12:50:22Z</time>
      </trkpt>
      <trkpt lat="59.302025958895683" lon="8.182431980967522">
        <ele>730.1484375</ele>
        <time>2019-08-21T12:50:23Z</time>
      </trkpt>
      <trkpt lat="59.302007015794516" lon="8.182451007887721">
        <ele>730.79296875</ele>
        <time>2019-08-21T12:50:24Z</time>
      </trkpt>
      <trkpt lat="59.301991006359458" lon="8.182458970695734">
        <ele>731.33984375</ele>
        <time>2019-08-21T12:50:25Z</time>
      </trkpt>
      <trkpt lat="59.301981031894684" lon="8.182452013716102">
        <ele>731.67578125</ele>
        <time>2019-08-21T12:50:26Z</time>
      </trkpt>
      <trkpt lat="59.301967034116387" lon="8.182446984574199">
        <ele>732.15234375</ele>
        <time>2019-08-21T12:50:27Z</time>
      </trkpt>
      <trkpt lat="59.301949013024569" lon="8.182442039251328">
        <ele>732.76953125</ele>
        <time>2019-08-21T12:50:28Z</time>
      </trkpt>
      <trkpt lat="59.30193099193275" lon="8.182443967089057">
        <ele>733.3828125</ele>
        <time>2019-08-21T12:50:29Z</time>
      </trkpt>
      <trkpt lat="59.301916994154453" lon="8.182457964867353">
        <ele>733.75</ele>
        <time>2019-08-21T12:50:30Z</time>
      </trkpt>
      <trkpt lat="59.301910037174821" lon="8.182456037029624">
        <ele>733.8671875</ele>
        <time>2019-08-21T12:50:31Z</time>
      </trkpt>
      <trkpt lat="59.301896961405873" lon="8.182460982352495">
        <ele>734.0859375</ele>
        <time>2019-08-21T12:50:32Z</time>
      </trkpt>
      <trkpt lat="59.301885981112719" lon="8.182462994009256">
        <ele>734.26953125</ele>
        <time>2019-08-21T12:50:33Z</time>
      </trkpt>
      <trkpt lat="59.301873994991183" lon="8.182466011494398">
        <ele>734.47265625</ele>
        <time>2019-08-21T12:50:34Z</time>
      </trkpt>
      <trkpt lat="59.30186603218317" lon="8.182467017322779">
        <ele>734.60546875</ele>
        <time>2019-08-21T12:50:35Z</time>
      </trkpt>
      <trkpt lat="59.301856979727745" lon="8.182471040636301">
        <ele>734.7578125</ele>
        <time>2019-08-21T12:50:36Z</time>
      </trkpt>
      <trkpt lat="59.301839964464307" lon="8.182481015101075">
        <ele>735.03515625</ele>
        <time>2019-08-21T12:50:37Z</time>
      </trkpt>
      <trkpt lat="59.301829989999533" lon="8.182482020929456">
        <ele>735.203125</ele>
        <time>2019-08-21T12:50:38Z</time>
      </trkpt>
      <trkpt lat="59.301824038848281" lon="8.182471040636301">
        <ele>735.30859375</ele>
        <time>2019-08-21T12:50:39Z</time>
      </trkpt>
      <trkpt lat="59.301812974736094" lon="8.182475985959172">
        <ele>735.4921875</ele>
        <time>2019-08-21T12:50:40Z</time>
      </trkpt>
      <trkpt lat="59.301794031634927" lon="8.18247196264565">
        <ele>735.8125</ele>
        <time>2019-08-21T12:50:41Z</time>
      </trkpt>
      <trkpt lat="59.30178196169436" lon="8.182462994009256">
        <ele>736.02734375</ele>
        <time>2019-08-21T12:50:42Z</time>
      </trkpt>
      <trkpt lat="59.301773998886347" lon="8.182467017322779">
        <ele>736.15625</ele>
        <time>2019-08-21T12:50:43Z</time>
      </trkpt>
      <trkpt lat="59.30175899527967" lon="8.182485038414598">
        <ele>736.38671875</ele>
        <time>2019-08-21T12:50:44Z</time>
      </trkpt>
      <trkpt lat="59.301749020814896" lon="8.182499036192894">
        <ele>736.53125</ele>
        <time>2019-08-21T12:50:45Z</time>
      </trkpt>
      <trkpt lat="59.301749020814896" lon="8.182503981515765">
        <ele>736.5234375</ele>
        <time>2019-08-21T12:50:46Z</time>
      </trkpt>
      <trkpt lat="59.301755977794528" lon="8.182518985122442">
        <ele>736.3984375</ele>
        <time>2019-08-21T12:50:47Z</time>
      </trkpt>
      <trkpt lat="59.30175899527967" lon="8.182548992335796">
        <ele>736.3671875</ele>
        <time>2019-08-21T12:50:48Z</time>
      </trkpt>
      <trkpt lat="59.301747009158134" lon="8.182576987892389">
        <ele>736.5859375</ele>
        <time>2019-08-21T12:50:49Z</time>
      </trkpt>
      <trkpt lat="59.30173602886498" lon="8.18259903229773">
        <ele>736.7890625</ele>
        <time>2019-08-21T12:50:50Z</time>
      </trkpt>
      <trkpt lat="59.301726976409554" lon="8.182614035904408">
        <ele>736.94921875</ele>
        <time>2019-08-21T12:50:51Z</time>
      </trkpt>
      <trkpt lat="59.301712978631258" lon="8.182619987055659">
        <ele>737.19140625</ele>
        <time>2019-08-21T12:50:52Z</time>
      </trkpt>
      <trkpt lat="59.30169403553009" lon="8.182625016197562">
        <ele>737.515625</ele>
        <time>2019-08-21T12:50:53Z</time>
      </trkpt>
      <trkpt lat="59.301678026095033" lon="8.182627027854323">
        <ele>737.7890625</ele>
        <time>2019-08-21T12:50:54Z</time>
      </trkpt>
      <trkpt lat="59.301666961982846" lon="8.182633984833956">
        <ele>737.984375</ele>
        <time>2019-08-21T12:50:55Z</time>
      </trkpt>
      <trkpt lat="59.301655981689692" lon="8.182638008147478">
        <ele>738.171875</ele>
        <time>2019-08-21T12:50:56Z</time>
      </trkpt>
      <trkpt lat="59.301641983911395" lon="8.182647982612252">
        <ele>738.43359375</ele>
        <time>2019-08-21T12:50:57Z</time>
      </trkpt>
      <trkpt lat="59.301635026931763" lon="8.182661980390549">
        <ele>738.5859375</ele>
        <time>2019-08-21T12:50:58Z</time>
      </trkpt>
      <trkpt lat="59.301625974476337" lon="8.182677989825606">
        <ele>738.77734375</ele>
        <time>2019-08-21T12:50:59Z</time>
      </trkpt>
      <trkpt lat="59.301616000011563" lon="8.182693999260664">
        <ele>738.98828125</ele>
        <time>2019-08-21T12:51:00Z</time>
      </trkpt>
      <trkpt lat="59.301604013890028" lon="8.182720988988876">
        <ele>739.2421875</ele>
        <time>2019-08-21T12:51:01Z</time>
      </trkpt>
      <trkpt lat="59.30158800445497" lon="8.182719983160496">
        <ele>739.546875</ele>
        <time>2019-08-21T12:51:02Z</time>
      </trkpt>
      <trkpt lat="59.301576018333435" lon="8.182692993432283">
        <ele>739.76171875</ele>
        <time>2019-08-21T12:51:03Z</time>
      </trkpt>
      <trkpt lat="59.3015640322119" lon="8.182672038674355">
        <ele>739.98828125</ele>
        <time>2019-08-21T12:51:04Z</time>
      </trkpt>
      <trkpt lat="59.3015450052917" lon="8.182657035067678">
        <ele>740.35546875</ele>
        <time>2019-08-21T12:51:05Z</time>
      </trkpt>
      <trkpt lat="59.301534024998546" lon="8.182626022025943">
        <ele>740.56640625</ele>
        <time>2019-08-21T12:51:06Z</time>
      </trkpt>
      <trkpt lat="59.301532013341784" lon="8.182597020640969">
        <ele>740.6015625</ele>
        <time>2019-08-21T12:51:07Z</time>
      </trkpt>
      <trkpt lat="59.30152203887701" lon="8.182576987892389">
        <ele>740.80078125</ele>
        <time>2019-08-21T12:51:08Z</time>
      </trkpt>
      <trkpt lat="59.301508041098714" lon="8.182560978457332">
        <ele>741.0859375</ele>
        <time>2019-08-21T12:51:09Z</time>
      </trkpt>
      <trkpt lat="59.301491025835276" lon="8.18255603313446">
        <ele>741.43359375</ele>
        <time>2019-08-21T12:51:10Z</time>
      </trkpt>
      <trkpt lat="59.301479961723089" lon="8.1825349945575">
        <ele>741.66796875</ele>
        <time>2019-08-21T12:51:11Z</time>
      </trkpt>
      <trkpt lat="59.301466969773173" lon="8.18251496180892">
        <ele>741.94140625</ele>
        <time>2019-08-21T12:51:12Z</time>
      </trkpt>
      <trkpt lat="59.301453977823257" lon="8.182504987344146">
        <ele>742.234375</ele>
        <time>2019-08-21T12:51:13Z</time>
      </trkpt>
      <trkpt lat="59.30143503472209" lon="8.182489983737469">
        <ele>742.66015625</ele>
        <time>2019-08-21T12:51:14Z</time>
      </trkpt>
      <trkpt lat="59.301418019458652" lon="8.182470034807921">
        <ele>743.0625</ele>
        <time>2019-08-21T12:51:15Z</time>
      </trkpt>
      <trkpt lat="59.30141500197351" lon="8.182439021766186">
        <ele>743.19140625</ele>
        <time>2019-08-21T12:51:16Z</time>
      </trkpt>
      <trkpt lat="59.301404021680355" lon="8.182408008724451">
        <ele>743.48828125</ele>
        <time>2019-08-21T12:51:17Z</time>
      </trkpt>
      <trkpt lat="59.301389018073678" lon="8.182383030653">
        <ele>743.85546875</ele>
        <time>2019-08-21T12:51:18Z</time>
      </trkpt>
      <trkpt lat="59.301375020295382" lon="8.182379007339478">
        <ele>744.15625</ele>
        <time>2019-08-21T12:51:19Z</time>
      </trkpt>
      <trkpt lat="59.30134903639555" lon="8.182384958490729">
        <ele>744.71875</ele>
        <time>2019-08-21T12:51:20Z</time>
      </trkpt>
      <trkpt lat="59.301331015303731" lon="8.182393005117774">
        <ele>745.1015625</ele>
        <time>2019-08-21T12:51:21Z</time>
      </trkpt>
      <trkpt lat="59.301319029182196" lon="8.182387975975871">
        <ele>745.3828125</ele>
        <time>2019-08-21T12:51:22Z</time>
      </trkpt>
      <trkpt lat="59.301300002261996" lon="8.182384958490729">
        <ele>745.8203125</ele>
        <time>2019-08-21T12:51:23Z</time>
      </trkpt>
      <trkpt lat="59.301283992826939" lon="8.182370038703084">
        <ele>746.21484375</ele>
        <time>2019-08-21T12:51:24Z</time>
      </trkpt>
      <trkpt lat="59.301276030018926" lon="8.182352017611265">
        <ele>746.44140625</ele>
        <time>2019-08-21T12:51:25Z</time>
      </trkpt>
      <trkpt lat="59.3012669775635" lon="8.182324022054672">
        <ele>746.71875</ele>
        <time>2019-08-21T12:51:26Z</time>
      </trkpt>
      <trkpt lat="59.301262032240629" lon="8.182284962385893">
        <ele>746.93359375</ele>
        <time>2019-08-21T12:51:27Z</time>
      </trkpt>
      <trkpt lat="59.301250968128443" lon="8.182269958779216">
        <ele>747.2265625</ele>
        <time>2019-08-21T12:51:28Z</time>
      </trkpt>
      <trkpt lat="59.30124401114881" lon="8.182259984314442">
        <ele>747.4140625</ele>
        <time>2019-08-21T12:51:29Z</time>
      </trkpt>
      <trkpt lat="59.301229007542133" lon="8.182241963222623">
        <ele>747.8046875</ele>
        <time>2019-08-21T12:51:30Z</time>
      </trkpt>
      <trkpt lat="59.301215009763837" lon="8.182222014293075">
        <ele>748.16796875</ele>
        <time>2019-08-21T12:51:31Z</time>
      </trkpt>
      <trkpt lat="59.30120101198554" lon="8.182204999029636">
        <ele>748.51953125</ele>
        <time>2019-08-21T12:51:32Z</time>
      </trkpt>
      <trkpt lat="59.30117997340858" lon="8.182181026786566">
        <ele>749.0546875</ele>
        <time>2019-08-21T12:51:33Z</time>
      </trkpt>
      <trkpt lat="59.30115801282227" lon="8.182158982381225">
        <ele>749.60546875</ele>
        <time>2019-08-21T12:51:34Z</time>
      </trkpt>
      <trkpt lat="59.301133034750819" lon="8.18214800208807">
        <ele>750.2109375</ele>
        <time>2019-08-21T12:51:35Z</time>
      </trkpt>
      <trkpt lat="59.301109984517097" lon="8.182130986824632">
        <ele>750.7890625</ele>
        <time>2019-08-21T12:51:36Z</time>
      </trkpt>
      <trkpt lat="59.30109104141593" lon="8.182116989046335">
        <ele>751.26171875</ele>
        <time>2019-08-21T12:51:37Z</time>
      </trkpt>
      <trkpt lat="59.301068997010589" lon="8.182103997096419">
        <ele>751.73046875</ele>
        <time>2019-08-21T12:51:38Z</time>
      </trkpt>
      <trkpt lat="59.301047036424279" lon="8.182089999318123">
        <ele>752.19140625</ele>
        <time>2019-08-21T12:51:39Z</time>
      </trkpt>
      <trkpt lat="59.301033038645983" lon="8.182071978226304">
        <ele>752.5</ele>
        <time>2019-08-21T12:51:40Z</time>
      </trkpt>
      <trkpt lat="59.301021974533796" lon="8.182047000154853">
        <ele>752.7578125</ele>
        <time>2019-08-21T12:51:41Z</time>
      </trkpt>
      <trkpt lat="59.301013005897403" lon="8.182011963799596">
        <ele>752.984375</ele>
        <time>2019-08-21T12:51:42Z</time>
      </trkpt>
      <trkpt lat="59.301005965098739" lon="8.18197600543499">
        <ele>753.17578125</ele>
        <time>2019-08-21T12:51:43Z</time>
      </trkpt>
      <trkpt lat="59.301002025604248" lon="8.181940969079733">
        <ele>753.30078125</ele>
        <time>2019-08-21T12:51:44Z</time>
      </trkpt>
      <trkpt lat="59.300994984805584" lon="8.181907022371888">
        <ele>753.48046875</ele>
        <time>2019-08-21T12:51:45Z</time>
      </trkpt>
      <trkpt lat="59.30098601616919" lon="8.181878020986915">
        <ele>753.6953125</ele>
        <time>2019-08-21T12:51:46Z</time>
      </trkpt>
      <trkpt lat="59.300976963713765" lon="8.181850025430322">
        <ele>753.91015625</ele>
        <time>2019-08-21T12:51:47Z</time>
      </trkpt>
      <trkpt lat="59.300963971763849" lon="8.181824963539839">
        <ele>754.19921875</ele>
        <time>2019-08-21T12:51:48Z</time>
      </trkpt>
      <trkpt lat="59.300953997299075" lon="8.181805014610291">
        <ele>754.421875</ele>
        <time>2019-08-21T12:51:49Z</time>
      </trkpt>
      <trkpt lat="59.30094301700592" lon="8.181787999346852">
        <ele>754.6640625</ele>
        <time>2019-08-21T12:51:50Z</time>
      </trkpt>
      <trkpt lat="59.300932958722115" lon="8.181771989911795">
        <ele>754.88671875</ele>
        <time>2019-08-21T12:51:51Z</time>
      </trkpt>
      <trkpt lat="59.300928013399243" lon="8.181746006011963">
        <ele>755.02734375</ele>
        <time>2019-08-21T12:51:52Z</time>
      </trkpt>
      <trkpt lat="59.300924995914102" lon="8.181717004626989">
        <ele>755.13671875</ele>
        <time>2019-08-21T12:51:53Z</time>
      </trkpt>
      <trkpt lat="59.300918038934469" lon="8.181690014898777">
        <ele>755.3203125</ele>
        <time>2019-08-21T12:51:54Z</time>
      </trkpt>
      <trkpt lat="59.300909992307425" lon="8.181662019342184">
        <ele>755.55859375</ele>
        <time>2019-08-21T12:51:55Z</time>
      </trkpt>
      <trkpt lat="59.300901023671031" lon="8.181638969108462">
        <ele>755.81640625</ele>
        <time>2019-08-21T12:51:56Z</time>
      </trkpt>
      <trkpt lat="59.300888031721115" lon="8.181626982986927">
        <ele>756.12109375</ele>
        <time>2019-08-21T12:51:57Z</time>
      </trkpt>
      <trkpt lat="59.300873028114438" lon="8.181622037664056">
        <ele>756.4453125</ele>
        <time>2019-08-21T12:51:58Z</time>
      </trkpt>
      <trkpt lat="59.300861964002252" lon="8.181614996865392">
        <ele>756.69921875</ele>
        <time>2019-08-21T12:51:59Z</time>
      </trkpt>
      <trkpt lat="59.300856012851" lon="8.181610973551869">
        <ele>756.8359375</ele>
        <time>2019-08-21T12:52:00Z</time>
      </trkpt>
      <trkpt lat="59.300848972052336" lon="8.181603010743856">
        <ele>757.01171875</ele>
        <time>2019-08-21T12:52:01Z</time>
      </trkpt>
      <trkpt lat="59.300837991759181" lon="8.181595969945192">
        <ele>757.26953125</ele>
        <time>2019-08-21T12:52:02Z</time>
      </trkpt>
      <trkpt lat="59.300828017294407" lon="8.181584989652038">
        <ele>757.5234375</ele>
        <time>2019-08-21T12:52:03Z</time>
      </trkpt>
      <trkpt lat="59.300820976495743" lon="8.181578032672405">
        <ele>757.69921875</ele>
        <time>2019-08-21T12:52:04Z</time>
      </trkpt>
      <trkpt lat="59.300811002030969" lon="8.181581972166896">
        <ele>757.87109375</ele>
        <time>2019-08-21T12:52:05Z</time>
      </trkpt>
      <trkpt lat="59.30079398676753" lon="8.18158901296556">
        <ele>758</ele>
        <time>2019-08-21T12:52:06Z</time>
      </trkpt>
      <trkpt lat="59.300774037837982" lon="8.181595969945192">
        <ele>758.1640625</ele>
        <time>2019-08-21T12:52:07Z</time>
      </trkpt>
      <trkpt lat="59.300757022574544" lon="8.181604016572237">
        <ele>758.30078125</ele>
        <time>2019-08-21T12:52:08Z</time>
      </trkpt>
      <trkpt lat="59.300734978169203" lon="8.181600999087095">
        <ele>758.5234375</ele>
        <time>2019-08-21T12:52:09Z</time>
      </trkpt>
      <trkpt lat="59.300719974562526" lon="8.181575015187264">
        <ele>758.74609375</ele>
        <time>2019-08-21T12:52:10Z</time>
      </trkpt>
      <trkpt lat="59.300705976784229" lon="8.181547019630671">
        <ele>758.953125</ele>
        <time>2019-08-21T12:52:11Z</time>
      </trkpt>
      <trkpt lat="59.300689967349172" lon="8.181516006588936">
        <ele>759.16796875</ele>
        <time>2019-08-21T12:52:12Z</time>
      </trkpt>
      <trkpt lat="59.300673035904765" lon="8.181491028517485">
        <ele>759.36328125</ele>
        <time>2019-08-21T12:52:13Z</time>
      </trkpt>
      <trkpt lat="59.300647974014282" lon="8.181490022689104">
        <ele>759.56640625</ele>
        <time>2019-08-21T12:52:14Z</time>
      </trkpt>
      <trkpt lat="59.30062199011445" lon="8.181493962183595">
        <ele>759.765625</ele>
        <time>2019-08-21T12:52:15Z</time>
      </trkpt>
      <trkpt lat="59.30059902369976" lon="8.181508965790272">
        <ele>759.9375</ele>
        <time>2019-08-21T12:52:16Z</time>
      </trkpt>
      <trkpt lat="59.300582008436322" lon="8.181527992710471">
        <ele>760.0625</ele>
        <time>2019-08-21T12:52:17Z</time>
      </trkpt>
      <trkpt lat="59.300569016486406" lon="8.181538973003626">
        <ele>760.16796875</ele>
        <time>2019-08-21T12:52:18Z</time>
      </trkpt>
      <trkpt lat="59.300548983737826" lon="8.181550037115812">
        <ele>760.33984375</ele>
        <time>2019-08-21T12:52:20Z</time>
      </trkpt>
      <trkpt lat="59.300543032586575" lon="8.181564034894109">
        <ele>760.390625</ele>
        <time>2019-08-21T12:52:21Z</time>
      </trkpt>
      <trkpt lat="59.300533980131149" lon="8.181566968560219">
        <ele>760.48046875</ele>
        <time>2019-08-21T12:52:22Z</time>
      </trkpt>
      <trkpt lat="59.300525011494756" lon="8.181584989652038">
        <ele>760.62109375</ele>
        <time>2019-08-21T12:52:23Z</time>
      </trkpt>
      <trkpt lat="59.30051595903933" lon="8.181605022400618">
        <ele>760.76953125</ele>
        <time>2019-08-21T12:52:24Z</time>
      </trkpt>
      <trkpt lat="59.300504978746176" lon="8.181622037664056">
        <ele>760.9453125</ele>
        <time>2019-08-21T12:52:25Z</time>
      </trkpt>
      <trkpt lat="59.30049299262464" lon="8.181646009907126">
        <ele>761.14453125</ele>
        <time>2019-08-21T12:52:26Z</time>
      </trkpt>
      <trkpt lat="59.300483018159866" lon="8.181649027392268">
        <ele>761.30859375</ele>
        <time>2019-08-21T12:52:27Z</time>
      </trkpt>
      <trkpt lat="59.300477989017963" lon="8.181653972715139">
        <ele>761.39453125</ele>
        <time>2019-08-21T12:52:28Z</time>
      </trkpt>
      <trkpt lat="59.300472037866712" lon="8.181677022948861">
        <ele>761.5</ele>
        <time>2019-08-21T12:52:29Z</time>
      </trkpt>
      <trkpt lat="59.300471032038331" lon="8.181705018505454">
        <ele>761.5390625</ele>
        <time>2019-08-21T12:52:30Z</time>
      </trkpt>
      <trkpt lat="59.300461979582906" lon="8.181725973263383">
        <ele>761.70703125</ele>
        <time>2019-08-21T12:52:31Z</time>
      </trkpt>
      <trkpt lat="59.300445970147848" lon="8.181739971041679">
        <ele>761.99609375</ele>
        <time>2019-08-21T12:52:32Z</time>
      </trkpt>
      <trkpt lat="59.30042996071279" lon="8.181755980476737">
        <ele>762.2890625</ele>
        <time>2019-08-21T12:52:33Z</time>
      </trkpt>
      <trkpt lat="59.300423003733158" lon="8.181766960769892">
        <ele>762.42578125</ele>
        <time>2019-08-21T12:52:34Z</time>
      </trkpt>
      <trkpt lat="59.300420992076397" lon="8.181775007396936">
        <ele>762.47265625</ele>
        <time>2019-08-21T12:52:35Z</time>
      </trkpt>
      <trkpt lat="59.300415040925145" lon="8.181776013225317">
        <ele>762.578125</ele>
        <time>2019-08-21T12:52:36Z</time>
      </trkpt>
      <trkpt lat="59.3004069942981" lon="8.181789005175233">
        <ele>762.73828125</ele>
        <time>2019-08-21T12:52:37Z</time>
      </trkpt>
      <trkpt lat="59.300401965156198" lon="8.181795962154865">
        <ele>762.83984375</ele>
        <time>2019-08-21T12:52:38Z</time>
      </trkpt>
      <trkpt lat="59.300398025661707" lon="8.181800991296768">
        <ele>762.91796875</ele>
        <time>2019-08-21T12:52:39Z</time>
      </trkpt>
      <trkpt lat="59.300391990691423" lon="8.181808032095432">
        <ele>763.0390625</ele>
        <time>2019-08-21T12:52:40Z</time>
      </trkpt>
      <trkpt lat="59.300374975427985" lon="8.181835021823645">
        <ele>763.39453125</ele>
        <time>2019-08-21T12:52:41Z</time>
      </trkpt>
      <trkpt lat="59.300356032326818" lon="8.181866034865379">
        <ele>763.80859375</ele>
        <time>2019-08-21T12:52:42Z</time>
      </trkpt>
      <trkpt lat="59.300347985699773" lon="8.181876009330154">
        <ele>763.98046875</ele>
        <time>2019-08-21T12:52:43Z</time>
      </trkpt>
      <trkpt lat="59.300354020670056" lon="8.18186997435987">
        <ele>763.8515625</ele>
        <time>2019-08-21T12:52:44Z</time>
      </trkpt>
      <trkpt lat="59.300356032326818" lon="8.181883972138166">
        <ele>763.84375</ele>
        <time>2019-08-21T12:52:45Z</time>
      </trkpt>
      <trkpt lat="59.300359971821308" lon="8.181894030421972">
        <ele>763.79296875</ele>
        <time>2019-08-21T12:52:46Z</time>
      </trkpt>
      <trkpt lat="59.300357960164547" lon="8.181907022371888">
        <ele>763.859375</ele>
        <time>2019-08-21T12:52:47Z</time>
      </trkpt>
      <trkpt lat="59.300354020670056" lon="8.181916996836662">
        <ele>763.953125</ele>
        <time>2019-08-21T12:52:48Z</time>
      </trkpt>
      <trkpt lat="59.300354020670056" lon="8.181923031806946">
        <ele>763.96875</ele>
        <time>2019-08-21T12:52:49Z</time>
      </trkpt>
      <trkpt lat="59.300338011234999" lon="8.181982962414622">
        <ele>764.44921875</ele>
        <time>2019-08-21T12:52:51Z</time>
      </trkpt>
      <trkpt lat="59.300327030941844" lon="8.18201900459826">
        <ele>764.80859375</ele>
        <time>2019-08-21T12:52:52Z</time>
      </trkpt>
      <trkpt lat="59.300306998193264" lon="8.182047000154853">
        <ele>765.32421875</ele>
        <time>2019-08-21T12:52:53Z</time>
      </trkpt>
      <trkpt lat="59.300285959616303" lon="8.182068960741162">
        <ele>765.84765625</ele>
        <time>2019-08-21T12:52:54Z</time>
      </trkpt>
      <trkpt lat="59.300272967666388" lon="8.182092010974884">
        <ele>766.21484375</ele>
        <time>2019-08-21T12:52:55Z</time>
      </trkpt>
      <trkpt lat="59.300268022343516" lon="8.182107014581561">
        <ele>766.3828125</ele>
        <time>2019-08-21T12:52:56Z</time>
      </trkpt>
      <trkpt lat="59.300265004858375" lon="8.182120006531477">
        <ele>766.5</ele>
        <time>2019-08-21T12:52:57Z</time>
      </trkpt>
      <trkpt lat="59.300257964059711" lon="8.182122018188238">
        <ele>766.66015625</ele>
        <time>2019-08-21T12:52:58Z</time>
      </trkpt>
      <trkpt lat="59.300253018736839" lon="8.182126041501761">
        <ele>766.84765625</ele>
        <time>2019-08-21T12:52:59Z</time>
      </trkpt>
      <trkpt lat="59.300236003473401" lon="8.182178009301424">
        <ele>767.671875</ele>
        <time>2019-08-21T12:53:01Z</time>
      </trkpt>
      <trkpt lat="59.300224017351866" lon="8.182208016514778">
        <ele>768.2265625</ele>
        <time>2019-08-21T12:53:02Z</time>
      </trkpt>
      <trkpt lat="59.300214964896441" lon="8.182237017899752">
        <ele>768.671875</ele>
        <time>2019-08-21T12:53:03Z</time>
      </trkpt>
      <trkpt lat="59.300210019573569" lon="8.182260990142822">
        <ele>769.15234375</ele>
        <time>2019-08-21T12:53:04Z</time>
      </trkpt>
      <trkpt lat="59.300209013745189" lon="8.182268030941486">
        <ele>769.27734375</ele>
        <time>2019-08-21T12:53:05Z</time>
      </trkpt>
      <trkpt lat="59.300208007916808" lon="8.182279011234641">
        <ele>769.44921875</ele>
        <time>2019-08-21T12:53:06Z</time>
      </trkpt>
      <trkpt lat="59.300202978774905" lon="8.18229703232646">
        <ele>769.84375</ele>
        <time>2019-08-21T12:53:07Z</time>
      </trkpt>
      <trkpt lat="59.300196021795273" lon="8.182324022054672">
        <ele>770.41015625</ele>
        <time>2019-08-21T12:53:08Z</time>
      </trkpt>
      <trkpt lat="59.300184035673738" lon="8.182344976812601">
        <ele>771.046875</ele>
        <time>2019-08-21T12:53:09Z</time>
      </trkpt>
      <trkpt lat="59.300187975168228" lon="8.182366015389562">
        <ele>771.17578125</ele>
        <time>2019-08-21T12:53:11Z</time>
      </trkpt>
      <trkpt lat="59.30019099265337" lon="8.18238596431911">
        <ele>771.32421875</ele>
        <time>2019-08-21T12:53:12Z</time>
      </trkpt>
      <trkpt lat="59.30019199848175" lon="8.18240599706769">
        <ele>771.5390625</ele>
        <time>2019-08-21T12:53:13Z</time>
      </trkpt>
      <trkpt lat="59.30019199848175" lon="8.182434998452663">
        <ele>771.890625</ele>
        <time>2019-08-21T12:53:14Z</time>
      </trkpt>
      <trkpt lat="59.300185041502118" lon="8.182456959038973">
        <ele>772.35546875</ele>
        <time>2019-08-21T12:53:15Z</time>
      </trkpt>
      <trkpt lat="59.300180012360215" lon="8.18247196264565">
        <ele>772.67578125</ele>
        <time>2019-08-21T12:53:16Z</time>
      </trkpt>
      <trkpt lat="59.300179006531835" lon="8.182497024536133">
        <ele>772.99609375</ele>
        <time>2019-08-21T12:53:17Z</time>
      </trkpt>
      <trkpt lat="59.300180012360215" lon="8.182519990950823">
        <ele>773.19140625</ele>
        <time>2019-08-21T12:53:18Z</time>
      </trkpt>
      <trkpt lat="59.300175989046693" lon="8.182539017871022">
        <ele>773.35546875</ele>
        <time>2019-08-21T12:53:19Z</time>
      </trkpt>
      <trkpt lat="59.300171965733171" lon="8.182560978457332">
        <ele>773.52734375</ele>
        <time>2019-08-21T12:53:20Z</time>
      </trkpt>
      <trkpt lat="59.300172971561551" lon="8.182587968185544">
        <ele>773.578125</ele>
        <time>2019-08-21T12:53:21Z</time>
      </trkpt>
      <trkpt lat="59.300161991268396" lon="8.182613030076027">
        <ele>773.9375</ele>
        <time>2019-08-21T12:53:22Z</time>
      </trkpt>
      <trkpt lat="59.30014899931848" lon="8.18262099288404">
        <ele>774.30078125</ele>
        <time>2019-08-21T12:53:23Z</time>
      </trkpt>
      <trkpt lat="59.300116980448365" lon="8.182640019804239">
        <ele>775.1796875</ele>
        <time>2019-08-21T12:53:25Z</time>
      </trkpt>
      <trkpt lat="59.300098959356546" lon="8.182655023410916">
        <ele>775.6875</ele>
        <time>2019-08-21T12:53:26Z</time>
      </trkpt>
      <trkpt lat="59.300081022083759" lon="8.182669021189213">
        <ele>776.1875</ele>
        <time>2019-08-21T12:53:27Z</time>
      </trkpt>
      <trkpt lat="59.300070963799953" lon="8.182675978168845">
        <ele>776.46484375</ele>
        <time>2019-08-21T12:53:28Z</time>
      </trkpt>
      <trkpt lat="59.300070963799953" lon="8.182686036452651">
        <ele>776.48828125</ele>
        <time>2019-08-21T12:53:29Z</time>
      </trkpt>
      <trkpt lat="59.300060989335179" lon="8.18274999037385">
        <ele>776.90625</ele>
        <time>2019-08-21T12:53:31Z</time>
      </trkpt>
      <trkpt lat="59.300052020698786" lon="8.182773040607572">
        <ele>777.19140625</ele>
        <time>2019-08-21T12:53:32Z</time>
      </trkpt>
      <trkpt lat="59.300026958808303" lon="8.182803969830275">
        <ele>777.84375</ele>
        <time>2019-08-21T12:53:34Z</time>
      </trkpt>
      <trkpt lat="59.300014972686768" lon="8.182827020063996">
        <ele>778.09765625</ele>
        <time>2019-08-21T12:53:35Z</time>
      </trkpt>
      <trkpt lat="59.300010027363896" lon="8.182833977043629">
        <ele>778.20703125</ele>
        <time>2019-08-21T12:53:36Z</time>
      </trkpt>
      <trkpt lat="59.300010027363896" lon="8.182842023670673">
        <ele>778.1875</ele>
        <time>2019-08-21T12:53:37Z</time>
      </trkpt>
      <trkpt lat="59.300008015707135" lon="8.182845041155815">
        <ele>778.234375</ele>
        <time>2019-08-21T12:53:38Z</time>
      </trkpt>
      <trkpt lat="59.300001980736852" lon="8.182859960943461">
        <ele>778.3515625</ele>
        <time>2019-08-21T12:53:39Z</time>
      </trkpt>
      <trkpt lat="59.299992006272078" lon="8.182877982035279">
        <ele>778.56640625</ele>
        <time>2019-08-21T12:53:40Z</time>
      </trkpt>
      <trkpt lat="59.29997599683702" lon="8.182902038097382">
        <ele>778.95703125</ele>
        <time>2019-08-21T12:53:41Z</time>
      </trkpt>
      <trkpt lat="59.299963004887104" lon="8.182919975370169">
        <ele>779.37109375</ele>
        <time>2019-08-21T12:53:42Z</time>
      </trkpt>
      <trkpt lat="59.299958981573582" lon="8.182932967320085">
        <ele>779.48828125</ele>
        <time>2019-08-21T12:53:43Z</time>
      </trkpt>
      <trkpt lat="59.29995403625071" lon="8.182941013947129">
        <ele>779.6484375</ele>
        <time>2019-08-21T12:53:44Z</time>
      </trkpt>
      <trkpt lat="59.299943977966905" lon="8.182951994240284">
        <ele>779.984375</ele>
        <time>2019-08-21T12:53:45Z</time>
      </trkpt>
      <trkpt lat="59.299930986016989" lon="8.182958029210568">
        <ele>780.4375</ele>
        <time>2019-08-21T12:53:46Z</time>
      </trkpt>
      <trkpt lat="59.299918999895453" lon="8.182948976755142">
        <ele>780.875</ele>
        <time>2019-08-21T12:53:47Z</time>
      </trkpt>
      <trkpt lat="59.299911959096789" lon="8.182950988411903">
        <ele>781.12109375</ele>
        <time>2019-08-21T12:53:48Z</time>
      </trkpt>
      <trkpt lat="59.299884969368577" lon="8.182960040867329">
        <ele>782.07421875</ele>
        <time>2019-08-21T12:53:50Z</time>
      </trkpt>
      <trkpt lat="59.2998699657619" lon="8.182948976755142">
        <ele>782.61328125</ele>
        <time>2019-08-21T12:53:51Z</time>
      </trkpt>
      <trkpt lat="59.299851022660732" lon="8.182948976755142">
        <ele>783.28125</ele>
        <time>2019-08-21T12:53:52Z</time>
      </trkpt>
      <trkpt lat="59.299840964376926" lon="8.182953000068665">
        <ele>783.640625</ele>
        <time>2019-08-21T12:53:53Z</time>
      </trkpt>
      <trkpt lat="59.299834007397294" lon="8.182960040867329">
        <ele>783.88671875</ele>
        <time>2019-08-21T12:53:54Z</time>
      </trkpt>
      <trkpt lat="59.299815986305475" lon="8.182969009503722">
        <ele>784.53125</ele>
        <time>2019-08-21T12:53:55Z</time>
      </trkpt>
      <trkpt lat="59.299791008234024" lon="8.182973032817245">
        <ele>785.42578125</ele>
        <time>2019-08-21T12:53:56Z</time>
      </trkpt>
      <trkpt lat="59.299779022112489" lon="8.182978983968496">
        <ele>785.86328125</ele>
        <time>2019-08-21T12:53:57Z</time>
      </trkpt>
      <trkpt lat="59.299773992970586" lon="8.18298501893878">
        <ele>786.05078125</ele>
        <time>2019-08-21T12:53:58Z</time>
      </trkpt>
      <trkpt lat="59.29976100102067" lon="8.182992981746793">
        <ele>786.52734375</ele>
        <time>2019-08-21T12:53:59Z</time>
      </trkpt>
      <trkpt lat="59.299745997413993" lon="8.182998010888696">
        <ele>787.078125</ele>
        <time>2019-08-21T12:54:00Z</time>
      </trkpt>
      <trkpt lat="59.299734011292458" lon="8.183003962039948">
        <ele>787.51953125</ele>
        <time>2019-08-21T12:54:01Z</time>
      </trkpt>
      <trkpt lat="59.299727976322174" lon="8.183014020323753">
        <ele>787.7578125</ele>
        <time>2019-08-21T12:54:02Z</time>
      </trkpt>
      <trkpt lat="59.299720013514161" lon="8.183032041415572">
        <ele>788.08203125</ele>
        <time>2019-08-21T12:54:03Z</time>
      </trkpt>
      <trkpt lat="59.299707021564245" lon="8.183042015880346">
        <ele>788.58203125</ele>
        <time>2019-08-21T12:54:04Z</time>
      </trkpt>
      <trkpt lat="59.299696041271091" lon="8.183038998395205">
        <ele>788.92578125</ele>
        <time>2019-08-21T12:54:05Z</time>
      </trkpt>
      <trkpt lat="59.299696041271091" lon="8.183035980910063">
        <ele>788.91796875</ele>
        <time>2019-08-21T12:54:06Z</time>
      </trkpt>
      <trkpt lat="59.299694029614329" lon="8.183041010051966">
        <ele>788.98828125</ele>
        <time>2019-08-21T12:54:07Z</time>
      </trkpt>
      <trkpt lat="59.299693023785949" lon="8.183048972859979">
        <ele>789.03515625</ele>
        <time>2019-08-21T12:54:08Z</time>
      </trkpt>
      <trkpt lat="59.299667961895466" lon="8.18309498950839">
        <ele>789.71875</ele>
        <time>2019-08-21T12:54:10Z</time>
      </trkpt>
      <trkpt lat="59.299656981602311" lon="8.18311502225697">
        <ele>789.97265625</ele>
        <time>2019-08-21T12:54:11Z</time>
      </trkpt>
      <trkpt lat="59.299651030451059" lon="8.183121979236603">
        <ele>790.125</ele>
        <time>2019-08-21T12:54:12Z</time>
      </trkpt>
      <trkpt lat="59.299638960510492" lon="8.183150980621576">
        <ele>790.39453125</ele>
        <time>2019-08-21T12:54:14Z</time>
      </trkpt>
      <trkpt lat="59.299623034894466" lon="8.183172019198537">
        <ele>790.8046875</ele>
        <time>2019-08-21T12:54:15Z</time>
      </trkpt>
      <trkpt lat="59.299599984660745" lon="8.18318098783493">
        <ele>791.45703125</ele>
        <time>2019-08-21T12:54:16Z</time>
      </trkpt>
      <trkpt lat="59.299585986882448" lon="8.183189034461975">
        <ele>791.8515625</ele>
        <time>2019-08-21T12:54:17Z</time>
      </trkpt>
      <trkpt lat="59.299577018246055" lon="8.183193979784846">
        <ele>792.1015625</ele>
        <time>2019-08-21T12:54:18Z</time>
      </trkpt>
      <trkpt lat="59.299564026296139" lon="8.183195991441608">
        <ele>792.48046875</ele>
        <time>2019-08-21T12:54:19Z</time>
      </trkpt>
      <trkpt lat="59.299547011032701" lon="8.183199008926749">
        <ele>792.98046875</ele>
        <time>2019-08-21T12:54:20Z</time>
      </trkpt>
      <trkpt lat="59.299533013254404" lon="8.183195991441608">
        <ele>793.3984375</ele>
        <time>2019-08-21T12:54:21Z</time>
      </trkpt>
      <trkpt lat="59.29952597245574" lon="8.183204038068652">
        <ele>793.58984375</ele>
        <time>2019-08-21T12:54:22Z</time>
      </trkpt>
      <trkpt lat="59.299513986334205" lon="8.183218035846949">
        <ele>793.921875</ele>
        <time>2019-08-21T12:54:23Z</time>
      </trkpt>
      <trkpt lat="59.299497976899147" lon="8.183234967291355">
        <ele>794.3671875</ele>
        <time>2019-08-21T12:54:24Z</time>
      </trkpt>
      <trkpt lat="59.299485990777612" lon="8.183245025575161">
        <ele>794.7109375</ele>
        <time>2019-08-21T12:54:25Z</time>
      </trkpt>
      <trkpt lat="59.299461012706161" lon="8.183262962847948">
        <ele>795.43359375</ele>
        <time>2019-08-21T12:54:27Z</time>
      </trkpt>
      <trkpt lat="59.299440979957581" lon="8.183267991989851">
        <ele>796.02734375</ele>
        <time>2019-08-21T12:54:28Z</time>
      </trkpt>
      <trkpt lat="59.299424970522523" lon="8.183270003646612">
        <ele>796.5078125</ele>
        <time>2019-08-21T12:54:29Z</time>
      </trkpt>
      <trkpt lat="59.299416001886129" lon="8.183279978111386">
        <ele>796.71875</ele>
        <time>2019-08-21T12:54:30Z</time>
      </trkpt>
      <trkpt lat="59.299412984400988" lon="8.183273021131754">
        <ele>796.796875</ele>
        <time>2019-08-21T12:54:31Z</time>
      </trkpt>
      <trkpt lat="59.299408039078116" lon="8.183268997818232">
        <ele>796.921875</ele>
        <time>2019-08-21T12:54:32Z</time>
      </trkpt>
      <trkpt lat="59.299385994672775" lon="8.183255000039935">
        <ele>797.46484375</ele>
        <time>2019-08-21T12:54:33Z</time>
      </trkpt>
      <trkpt lat="59.299366967752576" lon="8.183247037231922">
        <ele>797.9296875</ele>
        <time>2019-08-21T12:54:34Z</time>
      </trkpt>
      <trkpt lat="59.299355987459421" lon="8.1832430139184">
        <ele>798.1953125</ele>
        <time>2019-08-21T12:54:35Z</time>
      </trkpt>
      <trkpt lat="59.299346012994647" lon="8.18324401974678">
        <ele>798.43359375</ele>
        <time>2019-08-21T12:54:36Z</time>
      </trkpt>
      <trkpt lat="59.299327991902828" lon="8.183246031403542">
        <ele>798.8671875</ele>
        <time>2019-08-21T12:54:37Z</time>
      </trkpt>
      <trkpt lat="59.299313994124532" lon="8.183239996433258">
        <ele>799.203125</ele>
        <time>2019-08-21T12:54:38Z</time>
      </trkpt>
      <trkpt lat="59.299306031316519" lon="8.183237984776497">
        <ele>799.39453125</ele>
        <time>2019-08-21T12:54:39Z</time>
      </trkpt>
      <trkpt lat="59.299294967204332" lon="8.183258017525077">
        <ele>799.66796875</ele>
        <time>2019-08-21T12:54:40Z</time>
      </trkpt>
      <trkpt lat="59.299279041588306" lon="8.183273021131754">
        <ele>800.0625</ele>
        <time>2019-08-21T12:54:41Z</time>
      </trkpt>
      <trkpt lat="59.299261020496488" lon="8.183285007253289">
        <ele>800.51171875</ele>
        <time>2019-08-21T12:54:42Z</time>
      </trkpt>
      <trkpt lat="59.299250962212682" lon="8.18328601308167">
        <ele>800.7578125</ele>
        <time>2019-08-21T12:54:43Z</time>
      </trkpt>
      <trkpt lat="59.299238976091146" lon="8.183294981718063">
        <ele>801.0625</ele>
        <time>2019-08-21T12:54:44Z</time>
      </trkpt>
      <trkpt lat="59.299222966656089" lon="8.183282995596528">
        <ele>801.44140625</ele>
        <time>2019-08-21T12:54:45Z</time>
      </trkpt>
      <trkpt lat="59.299206035211682" lon="8.183274026960135">
        <ele>801.84375</ele>
        <time>2019-08-21T12:54:46Z</time>
      </trkpt>
      <trkpt lat="59.299188014119864" lon="8.183271009474993">
        <ele>802.27734375</ele>
        <time>2019-08-21T12:54:47Z</time>
      </trkpt>
      <trkpt lat="59.299173010513186" lon="8.183260029181838">
        <ele>802.62109375</ele>
        <time>2019-08-21T12:54:48Z</time>
      </trkpt>
      <trkpt lat="59.299160018563271" lon="8.183251982554793">
        <ele>802.921875</ele>
        <time>2019-08-21T12:54:49Z</time>
      </trkpt>
      <trkpt lat="59.299151971936226" lon="8.183247959241271">
        <ele>803.10546875</ele>
        <time>2019-08-21T12:54:50Z</time>
      </trkpt>
      <trkpt lat="59.299139985814691" lon="8.183245025575161">
        <ele>803.359375</ele>
        <time>2019-08-21T12:54:51Z</time>
      </trkpt>
      <trkpt lat="59.299127999693155" lon="8.18322298116982">
        <ele>803.53515625</ele>
        <time>2019-08-21T12:54:52Z</time>
      </trkpt>
      <trkpt lat="59.299110984429717" lon="8.183210995048285">
        <ele>803.8203125</ele>
        <time>2019-08-21T12:54:53Z</time>
      </trkpt>
      <trkpt lat="59.299093969166279" lon="8.183216024190188">
        <ele>804.16015625</ele>
        <time>2019-08-21T12:54:54Z</time>
      </trkpt>
      <trkpt lat="59.299077959731221" lon="8.183225998654962">
        <ele>804.51171875</ele>
        <time>2019-08-21T12:54:55Z</time>
      </trkpt>
      <trkpt lat="59.299060022458434" lon="8.183236978948116">
        <ele>804.921875</ele>
        <time>2019-08-21T12:54:56Z</time>
      </trkpt>
      <trkpt lat="59.299044013023376" lon="8.183247037231922">
        <ele>805.30078125</ele>
        <time>2019-08-21T12:54:57Z</time>
      </trkpt>
      <trkpt lat="59.299029009416699" lon="8.183245025575161">
        <ele>805.58984375</ele>
        <time>2019-08-21T12:54:58Z</time>
      </trkpt>
      <trkpt lat="59.299008976668119" lon="8.183233961462975">
        <ele>805.91015625</ele>
        <time>2019-08-21T12:54:59Z</time>
      </trkpt>
      <trkpt lat="59.298995984718204" lon="8.183217030018568">
        <ele>806.02734375</ele>
        <time>2019-08-21T12:55:00Z</time>
      </trkpt>
      <trkpt lat="59.298986010253429" lon="8.183215018361807">
        <ele>806.19921875</ele>
        <time>2019-08-21T12:55:01Z</time>
      </trkpt>
      <trkpt lat="59.298965977504849" lon="8.183217030018568">
        <ele>806.59765625</ele>
        <time>2019-08-21T12:55:02Z</time>
      </trkpt>
      <trkpt lat="59.298948962241411" lon="8.183208983391523">
        <ele>806.83984375</ele>
        <time>2019-08-21T12:55:03Z</time>
      </trkpt>
      <trkpt lat="59.298934964463115" lon="8.183205965906382">
        <ele>807.0703125</ele>
        <time>2019-08-21T12:55:04Z</time>
      </trkpt>
      <trkpt lat="59.298928007483482" lon="8.183204960078001">
        <ele>807.1875</ele>
        <time>2019-08-21T12:55:05Z</time>
      </trkpt>
      <trkpt lat="59.298915015533566" lon="8.18320102058351">
        <ele>807.3828125</ele>
        <time>2019-08-21T12:55:06Z</time>
      </trkpt>
      <trkpt lat="59.298902023583651" lon="8.18320001475513">
        <ele>807.609375</ele>
        <time>2019-08-21T12:55:07Z</time>
      </trkpt>
      <trkpt lat="59.298900011926889" lon="8.18320102058351">
        <ele>807.66015625</ele>
        <time>2019-08-21T12:55:08Z</time>
      </trkpt>
      <trkpt lat="59.298892971128225" lon="8.183207977563143">
        <ele>807.875</ele>
        <time>2019-08-21T12:55:09Z</time>
      </trkpt>
      <trkpt lat="59.29888098500669" lon="8.183217030018568">
        <ele>808.2109375</ele>
        <time>2019-08-21T12:55:10Z</time>
      </trkpt>
      <trkpt lat="59.298867993056774" lon="8.183237984776497">
        <ele>808.7265625</ele>
        <time>2019-08-21T12:55:11Z</time>
      </trkpt>
      <trkpt lat="59.298857012763619" lon="8.183257011696696">
        <ele>809.1171875</ele>
        <time>2019-08-21T12:55:12Z</time>
      </trkpt>
      <trkpt lat="59.298839997500181" lon="8.183284001424909">
        <ele>809.68359375</ele>
        <time>2019-08-21T12:55:13Z</time>
      </trkpt>
      <trkpt lat="59.298823988065124" lon="8.183297999203205">
        <ele>810.0625</ele>
        <time>2019-08-21T12:55:14Z</time>
      </trkpt>
      <trkpt lat="59.298812001943588" lon="8.18330998532474">
        <ele>810.3671875</ele>
        <time>2019-08-21T12:55:15Z</time>
      </trkpt>
      <trkpt lat="59.298798004165292" lon="8.183332029730082">
        <ele>810.81640625</ele>
        <time>2019-08-21T12:55:16Z</time>
      </trkpt>
      <trkpt lat="59.298780988901854" lon="8.183348039165139">
        <ele>811.21484375</ele>
        <time>2019-08-21T12:55:17Z</time>
      </trkpt>
      <trkpt lat="59.298765985295177" lon="8.183361031115055">
        <ele>811.4296875</ele>
        <time>2019-08-21T12:55:18Z</time>
      </trkpt>
      <trkpt lat="59.298755005002022" lon="8.183366982266307">
        <ele>811.578125</ele>
        <time>2019-08-21T12:55:19Z</time>
      </trkpt>
      <trkpt lat="59.298742013052106" lon="8.183379974216223">
        <ele>811.76953125</ele>
        <time>2019-08-21T12:55:20Z</time>
      </trkpt>
      <trkpt lat="59.298726003617048" lon="8.183389026671648">
        <ele>811.99609375</ele>
        <time>2019-08-21T12:55:21Z</time>
      </trkpt>
      <trkpt lat="59.298711000010371" lon="8.183412998914719">
        <ele>812.2578125</ele>
        <time>2019-08-21T12:55:22Z</time>
      </trkpt>
      <trkpt lat="59.298701025545597" lon="8.183426996693015">
        <ele>812.42578125</ele>
        <time>2019-08-21T12:55:23Z</time>
      </trkpt>
      <trkpt lat="59.298692978918552" lon="8.183445017784834">
        <ele>812.58984375</ele>
        <time>2019-08-21T12:55:24Z</time>
      </trkpt>
      <trkpt lat="59.29868602193892" lon="8.183462033048272">
        <ele>812.73828125</ele>
        <time>2019-08-21T12:55:25Z</time>
      </trkpt>
      <trkpt lat="59.298685016110539" lon="8.183469995856285">
        <ele>812.77734375</ele>
        <time>2019-08-21T12:55:26Z</time>
      </trkpt>
      <trkpt lat="59.298683004453778" lon="8.183489022776485">
        <ele>812.8671875</ele>
        <time>2019-08-21T12:55:27Z</time>
      </trkpt>
      <trkpt lat="59.298674035817385" lon="8.183506038039923">
        <ele>813.05078125</ele>
        <time>2019-08-21T12:55:28Z</time>
      </trkpt>
      <trkpt lat="59.298656014725566" lon="8.183525986969471">
        <ele>813.37109375</ele>
        <time>2019-08-21T12:55:29Z</time>
      </trkpt>
      <trkpt lat="59.29864302277565" lon="8.183546019718051">
        <ele>813.6328125</ele>
        <time>2019-08-21T12:55:30Z</time>
      </trkpt>
      <trkpt lat="59.298635981976986" lon="8.183565968647599">
        <ele>813.8125</ele>
        <time>2019-08-21T12:55:31Z</time>
      </trkpt>
      <trkpt lat="59.298632964491844" lon="8.183578960597515">
        <ele>813.90625</ele>
        <time>2019-08-21T12:55:32Z</time>
      </trkpt>
      <trkpt lat="59.298628019168973" lon="8.183576026931405">
        <ele>813.96875</ele>
        <time>2019-08-21T12:55:33Z</time>
      </trkpt>
      <trkpt lat="59.298606980592012" lon="8.183557000011206">
        <ele>814.19921875</ele>
        <time>2019-08-21T12:55:35Z</time>
      </trkpt>
      <trkpt lat="59.298590971156955" lon="8.183562029153109">
        <ele>814.453125</ele>
        <time>2019-08-21T12:55:36Z</time>
      </trkpt>
      <trkpt lat="59.298580996692181" lon="8.183578038588166">
        <ele>814.63671875</ele>
        <time>2019-08-21T12:55:37Z</time>
      </trkpt>
      <trkpt lat="59.298564987257123" lon="8.183613996952772">
        <ele>814.9921875</ele>
        <time>2019-08-21T12:55:39Z</time>
      </trkpt>
      <trkpt lat="59.298549983650446" lon="8.18361097946763">
        <ele>815.15625</ele>
        <time>2019-08-21T12:55:40Z</time>
      </trkpt>
      <trkpt lat="59.298545038327575" lon="8.18361097946763">
        <ele>815.21484375</ele>
        <time>2019-08-21T12:55:41Z</time>
      </trkpt>
      <trkpt lat="59.298543026670814" lon="8.183618020266295">
        <ele>815.2734375</ele>
        <time>2019-08-21T12:55:42Z</time>
      </trkpt>
      <trkpt lat="59.298533974215388" lon="8.183626988902688">
        <ele>815.42578125</ele>
        <time>2019-08-21T12:55:43Z</time>
      </trkpt>
      <trkpt lat="59.298513019457459" lon="8.183613996952772">
        <ele>815.609375</ele>
        <time>2019-08-21T12:55:45Z</time>
      </trkpt>
      <trkpt lat="59.298500027507544" lon="8.183605028316379">
        <ele>815.71875</ele>
        <time>2019-08-21T12:55:46Z</time>
      </trkpt>
      <trkpt lat="59.298500027507544" lon="8.183603016659617">
        <ele>815.70703125</ele>
        <time>2019-08-21T12:55:47Z</time>
      </trkpt>
      <trkpt lat="59.298487035557628" lon="8.183641992509365">
        <ele>816.06640625</ele>
        <time>2019-08-21T12:55:49Z</time>
      </trkpt>
      <trkpt lat="59.298482006415725" lon="8.1836539786309">
        <ele>816.18359375</ele>
        <time>2019-08-21T12:55:50Z</time>
      </trkpt>
      <trkpt lat="59.298477983102202" lon="8.183655990287662">
        <ele>816.2421875</ele>
        <time>2019-08-21T12:55:51Z</time>
      </trkpt>
      <trkpt lat="59.298474965617061" lon="8.183666970580816">
        <ele>816.33203125</ele>
        <time>2019-08-21T12:55:52Z</time>
      </trkpt>
      <trkpt lat="59.298458034172654" lon="8.183708041906357">
        <ele>816.7421875</ele>
        <time>2019-08-21T12:55:54Z</time>
      </trkpt>
      <trkpt lat="59.298449987545609" lon="8.183724973350763">
        <ele>816.92578125</ele>
        <time>2019-08-21T12:55:55Z</time>
      </trkpt>
      <trkpt lat="59.298445964232087" lon="8.18373897112906">
        <ele>817.046875</ele>
        <time>2019-08-21T12:55:56Z</time>
      </trkpt>
      <trkpt lat="59.298434983938932" lon="8.183753974735737">
        <ele>817.2578125</ele>
        <time>2019-08-21T12:55:57Z</time>
      </trkpt>
      <trkpt lat="59.298422997817397" lon="8.18375900387764">
        <ele>817.43359375</ele>
        <time>2019-08-21T12:55:58Z</time>
      </trkpt>
      <trkpt lat="59.298409000039101" lon="8.183766966685653">
        <ele>817.65234375</ele>
        <time>2019-08-21T12:55:59Z</time>
      </trkpt>
      <trkpt lat="59.298401037231088" lon="8.183785993605852">
        <ele>817.8515625</ele>
        <time>2019-08-21T12:56:00Z</time>
      </trkpt>
      <trkpt lat="59.298392990604043" lon="8.183796973899007">
        <ele>818.01171875</ele>
        <time>2019-08-21T12:56:01Z</time>
      </trkpt>
      <trkpt lat="59.298381004482508" lon="8.183808960020542">
        <ele>818.2265625</ele>
        <time>2019-08-21T12:56:02Z</time>
      </trkpt>
      <trkpt lat="59.298373041674495" lon="8.183817006647587">
        <ele>818.37109375</ele>
        <time>2019-08-21T12:56:03Z</time>
      </trkpt>
      <trkpt lat="59.29836499504745" lon="8.183814994990826">
        <ele>818.46484375</ele>
        <time>2019-08-21T12:56:04Z</time>
      </trkpt>
      <trkpt lat="59.298359965905547" lon="8.183813989162445">
        <ele>818.5234375</ele>
        <time>2019-08-21T12:56:05Z</time>
      </trkpt>
      <trkpt lat="59.298353008925915" lon="8.183810971677303">
        <ele>818.59765625</ele>
        <time>2019-08-21T12:56:06Z</time>
      </trkpt>
      <trkpt lat="59.298346973955631" lon="8.18380200304091">
        <ele>818.625</ele>
        <time>2019-08-21T12:56:07Z</time>
      </trkpt>
      <trkpt lat="59.298340016975999" lon="8.183792028576136">
        <ele>818.66015625</ele>
        <time>2019-08-21T12:56:08Z</time>
      </trkpt>
      <trkpt lat="59.298338005319238" lon="8.183786999434233">
        <ele>818.66015625</ele>
        <time>2019-08-21T12:56:09Z</time>
      </trkpt>
      <trkpt lat="59.298336999490857" lon="8.183785993605852">
        <ele>818.6640625</ele>
        <time>2019-08-21T12:56:10Z</time>
      </trkpt>
      <trkpt lat="59.298335993662477" lon="8.183786999434233">
        <ele>818.68359375</ele>
        <time>2019-08-21T12:56:11Z</time>
      </trkpt>
      <trkpt lat="59.298332976177335" lon="8.183789011090994">
        <ele>818.734375</ele>
        <time>2019-08-21T12:56:12Z</time>
      </trkpt>
      <trkpt lat="59.298329958692193" lon="8.183794040232897">
        <ele>818.80078125</ele>
        <time>2019-08-21T12:56:13Z</time>
      </trkpt>
      <trkpt lat="59.298316966742277" lon="8.183813989162445">
        <ele>819.07421875</ele>
        <time>2019-08-21T12:56:15Z</time>
      </trkpt>
      <trkpt lat="59.298305986449122" lon="8.183818012475967">
        <ele>819.2421875</ele>
        <time>2019-08-21T12:56:16Z</time>
      </trkpt>
      <trkpt lat="59.298291988670826" lon="8.183837961405516">
        <ele>819.54296875</ele>
        <time>2019-08-21T12:56:17Z</time>
      </trkpt>
      <trkpt lat="59.298286037519574" lon="8.18386604078114">
        <ele>819.78515625</ele>
        <time>2019-08-21T12:56:18Z</time>
      </trkpt>
      <trkpt lat="59.298282014206052" lon="8.183880038559437">
        <ele>819.92578125</ele>
        <time>2019-08-21T12:56:19Z</time>
      </trkpt>
      <trkpt lat="59.298266004770994" lon="8.183915996924043">
        <ele>820.359375</ele>
        <time>2019-08-21T12:56:21Z</time>
      </trkpt>
      <trkpt lat="59.298261981457472" lon="8.183929994702339">
        <ele>820.49609375</ele>
        <time>2019-08-21T12:56:22Z</time>
      </trkpt>
      <trkpt lat="59.298269022256136" lon="8.18393100053072">
        <ele>820.3984375</ele>
        <time>2019-08-21T12:56:23Z</time>
      </trkpt>
      <trkpt lat="59.298274973407388" lon="8.183938963338733">
        <ele>820.3515625</ele>
        <time>2019-08-21T12:56:24Z</time>
      </trkpt>
      <trkpt lat="59.298264998942614" lon="8.183952961117029">
        <ele>820.578125</ele>
        <time>2019-08-21T12:56:25Z</time>
      </trkpt>
      <trkpt lat="59.298253012821078" lon="8.183966958895326">
        <ele>820.84765625</ele>
        <time>2019-08-21T12:56:26Z</time>
      </trkpt>
      <trkpt lat="59.298240020871162" lon="8.183969976380467">
        <ele>821.0703125</ele>
        <time>2019-08-21T12:56:27Z</time>
      </trkpt>
      <trkpt lat="59.298237003386021" lon="8.183976011350751">
        <ele>821.15625</ele>
        <time>2019-08-21T12:56:28Z</time>
      </trkpt>
      <trkpt lat="59.298228034749627" lon="8.183981040492654">
        <ele>821.33203125</ele>
        <time>2019-08-21T12:56:29Z</time>
      </trkpt>
      <trkpt lat="59.298228034749627" lon="8.184008030220866">
        <ele>821.5078125</ele>
        <time>2019-08-21T12:56:31Z</time>
      </trkpt>
      <trkpt lat="59.298226023092866" lon="8.184024039655924">
        <ele>821.64453125</ele>
        <time>2019-08-21T12:56:32Z</time>
      </trkpt>
      <trkpt lat="59.298219988122582" lon="8.18403996527195">
        <ele>821.8515625</ele>
        <time>2019-08-21T12:56:33Z</time>
      </trkpt>
      <trkpt lat="59.298212025314569" lon="8.184079024940729">
        <ele>822.2578125</ele>
        <time>2019-08-21T12:56:35Z</time>
      </trkpt>
      <trkpt lat="59.298211019486189" lon="8.184100985527039">
        <ele>822.4296875</ele>
        <time>2019-08-21T12:56:36Z</time>
      </trkpt>
      <trkpt lat="59.298221999779344" lon="8.184113977476955">
        <ele>822.3046875</ele>
        <time>2019-08-21T12:56:38Z</time>
      </trkpt>
      <trkpt lat="59.298225017264485" lon="8.184133004397154">
        <ele>822.37109375</ele>
        <time>2019-08-21T12:56:39Z</time>
      </trkpt>
      <trkpt lat="59.298223005607724" lon="8.184157982468605">
        <ele>822.57421875</ele>
        <time>2019-08-21T12:56:40Z</time>
      </trkpt>
      <trkpt lat="59.298216970637441" lon="8.184185978025198">
        <ele>822.9453125</ele>
        <time>2019-08-21T12:56:41Z</time>
      </trkpt>
      <trkpt lat="59.298208002001047" lon="8.18421296775341">
        <ele>823.578125</ele>
        <time>2019-08-21T12:56:42Z</time>
      </trkpt>
      <trkpt lat="59.298197021707892" lon="8.184240041300654">
        <ele>824.2421875</ele>
        <time>2019-08-21T12:56:43Z</time>
      </trkpt>
      <trkpt lat="59.298191992565989" lon="8.184262001886964">
        <ele>824.6953125</ele>
        <time>2019-08-21T12:56:44Z</time>
      </trkpt>
      <trkpt lat="59.29819299839437" lon="8.184270970523357">
        <ele>824.82421875</ele>
        <time>2019-08-21T12:56:45Z</time>
      </trkpt>
      <trkpt lat="59.298188975080848" lon="8.184277005493641">
        <ele>824.99609375</ele>
        <time>2019-08-21T12:56:46Z</time>
      </trkpt>
      <trkpt lat="59.298186963424087" lon="8.184291003271937">
        <ele>825.26171875</ele>
        <time>2019-08-21T12:56:47Z</time>
      </trkpt>
      <trkpt lat="59.298176988959312" lon="8.18433903157711">
        <ele>826.2109375</ele>
        <time>2019-08-21T12:56:49Z</time>
      </trkpt>
      <trkpt lat="59.298173971474171" lon="8.184366021305323">
        <ele>826.6953125</ele>
        <time>2019-08-21T12:56:50Z</time>
      </trkpt>
      <trkpt lat="59.298175983130932" lon="8.184385970234871">
        <ele>826.9765625</ele>
        <time>2019-08-21T12:56:51Z</time>
      </trkpt>
      <trkpt lat="59.298177994787693" lon="8.184432992711663">
        <ele>827.6953125</ele>
        <time>2019-08-21T12:56:53Z</time>
      </trkpt>
      <trkpt lat="59.298180006444454" lon="8.184456964954734">
        <ele>828.046875</ele>
        <time>2019-08-21T12:56:54Z</time>
      </trkpt>
      <trkpt lat="59.298180006444454" lon="8.184466017410159">
        <ele>828.1640625</ele>
        <time>2019-08-21T12:56:55Z</time>
      </trkpt>
      <trkpt lat="59.298179000616074" lon="8.18447096273303">
        <ele>828.2421875</ele>
        <time>2019-08-21T12:56:56Z</time>
      </trkpt>
      <trkpt lat="59.298176988959312" lon="8.184480015188456">
        <ele>828.38671875</ele>
        <time>2019-08-21T12:56:57Z</time>
      </trkpt>
      <trkpt lat="59.298168020322919" lon="8.184485966339707">
        <ele>828.59765625</ele>
        <time>2019-08-21T12:56:58Z</time>
      </trkpt>
      <trkpt lat="59.298161985352635" lon="8.184488983824849">
        <ele>828.7265625</ele>
        <time>2019-08-21T12:56:59Z</time>
      </trkpt>
      <trkpt lat="59.298156034201384" lon="8.184496024623513">
        <ele>828.90625</ele>
        <time>2019-08-21T12:57:00Z</time>
      </trkpt>
      <trkpt lat="59.2981499992311" lon="8.184508010745049">
        <ele>829.1484375</ele>
        <time>2019-08-21T12:57:01Z</time>
      </trkpt>
      <trkpt lat="59.298146981745958" lon="8.184516979381442">
        <ele>829.30859375</ele>
        <time>2019-08-21T12:57:02Z</time>
      </trkpt>
      <trkpt lat="59.298142036423087" lon="8.184526031836867">
        <ele>829.49609375</ele>
        <time>2019-08-21T12:57:03Z</time>
      </trkpt>
      <trkpt lat="59.298138013109565" lon="8.184541035443544">
        <ele>829.7421875</ele>
        <time>2019-08-21T12:57:04Z</time>
      </trkpt>
      <trkpt lat="59.298132983967662" lon="8.184557966887951">
        <ele>830.03125</ele>
        <time>2019-08-21T12:57:05Z</time>
      </trkpt>
      <trkpt lat="59.298118986189365" lon="8.18459602072835">
        <ele>830.7109375</ele>
        <time>2019-08-21T12:57:07Z</time>
      </trkpt>
      <trkpt lat="59.298115968704224" lon="8.184610018506646">
        <ele>830.9296875</ele>
        <time>2019-08-21T12:57:08Z</time>
      </trkpt>
      <trkpt lat="59.298109011724591" lon="8.184628961607814">
        <ele>831.265625</ele>
        <time>2019-08-21T12:57:09Z</time>
      </trkpt>
      <trkpt lat="59.298101970925927" lon="8.184644971042872">
        <ele>831.56640625</ele>
        <time>2019-08-21T12:57:10Z</time>
      </trkpt>
      <trkpt lat="59.298096019774675" lon="8.184653017669916">
        <ele>831.75390625</ele>
        <time>2019-08-21T12:57:11Z</time>
      </trkpt>
      <trkpt lat="59.298074981197715" lon="8.184666009619832">
        <ele>832.21875</ele>
        <time>2019-08-21T12:57:13Z</time>
      </trkpt>
      <trkpt lat="59.298065006732941" lon="8.184673972427845">
        <ele>832.4609375</ele>
        <time>2019-08-21T12:57:14Z</time>
      </trkpt>
      <trkpt lat="59.298054026439786" lon="8.18468201905489">
        <ele>832.71875</ele>
        <time>2019-08-21T12:57:15Z</time>
      </trkpt>
      <trkpt lat="59.2980429623276" lon="8.184687970206142">
        <ele>832.953125</ele>
        <time>2019-08-21T12:57:16Z</time>
      </trkpt>
      <trkpt lat="59.298031982034445" lon="8.184694005176425">
        <ele>833.26171875</ele>
        <time>2019-08-21T12:57:17Z</time>
      </trkpt>
      <trkpt lat="59.29802100174129" lon="8.184697022661567">
        <ele>833.62890625</ele>
        <time>2019-08-21T12:57:18Z</time>
      </trkpt>
      <trkpt lat="59.298012033104897" lon="8.184706997126341">
        <ele>834.0234375</ele>
        <time>2019-08-21T12:57:19Z</time>
      </trkpt>
      <trkpt lat="59.298002980649471" lon="8.184719989076257">
        <ele>834.4609375</ele>
        <time>2019-08-21T12:57:20Z</time>
      </trkpt>
      <trkpt lat="59.297995017841458" lon="8.184727029874921">
        <ele>834.79296875</ele>
        <time>2019-08-21T12:57:21Z</time>
      </trkpt>
      <trkpt lat="59.297987977042794" lon="8.184734992682934">
        <ele>835.11328125</ele>
        <time>2019-08-21T12:57:22Z</time>
      </trkpt>
      <trkpt lat="59.297982025891542" lon="8.184744967147708">
        <ele>835.41796875</ele>
        <time>2019-08-21T12:57:23Z</time>
      </trkpt>
      <trkpt lat="59.297971967607737" lon="8.184773968532682">
        <ele>836.09375</ele>
        <time>2019-08-21T12:57:25Z</time>
      </trkpt>
      <trkpt lat="59.297967022284865" lon="8.184803975746036">
        <ele>836.625</ele>
        <time>2019-08-21T12:57:27Z</time>
      </trkpt>
      <trkpt lat="59.297958975657821" lon="8.184816967695952">
        <ele>837.04296875</ele>
        <time>2019-08-21T12:57:28Z</time>
      </trkpt>
      <trkpt lat="59.297946989536285" lon="8.184830965474248">
        <ele>837.59765625</ele>
        <time>2019-08-21T12:57:29Z</time>
      </trkpt>
      <trkpt lat="59.297929974272847" lon="8.184844963252544">
        <ele>838.31640625</ele>
        <time>2019-08-21T12:57:30Z</time>
      </trkpt>
      <trkpt lat="59.297911031171679" lon="8.184853009879589">
        <ele>839.01953125</ele>
        <time>2019-08-21T12:57:31Z</time>
      </trkpt>
      <trkpt lat="59.297900972887874" lon="8.184863990172744">
        <ele>839.48046875</ele>
        <time>2019-08-21T12:57:32Z</time>
      </trkpt>
      <trkpt lat="59.297898039221764" lon="8.184873964637518">
        <ele>839.70703125</ele>
        <time>2019-08-21T12:57:33Z</time>
      </trkpt>
      <trkpt lat="59.297888986766338" lon="8.184884022921324">
        <ele>840.12890625</ele>
        <time>2019-08-21T12:57:34Z</time>
      </trkpt>
      <trkpt lat="59.297875994816422" lon="8.184893997386098">
        <ele>840.67578125</ele>
        <time>2019-08-21T12:57:35Z</time>
      </trkpt>
      <trkpt lat="59.297860991209745" lon="8.184899026528001">
        <ele>841.22265625</ele>
        <time>2019-08-21T12:57:36Z</time>
      </trkpt>
      <trkpt lat="59.297846993431449" lon="8.184911012649536">
        <ele>841.8359375</ele>
        <time>2019-08-21T12:57:37Z</time>
      </trkpt>
      <trkpt lat="59.297837018966675" lon="8.184916963800788">
        <ele>842.23828125</ele>
        <time>2019-08-21T12:57:38Z</time>
      </trkpt>
      <trkpt lat="59.297835007309914" lon="8.18491998128593">
        <ele>842.34375</ele>
        <time>2019-08-21T12:57:39Z</time>
      </trkpt>
      <trkpt lat="59.297832995653152" lon="8.184927022084594">
        <ele>842.50390625</ele>
        <time>2019-08-21T12:57:40Z</time>
      </trkpt>
      <trkpt lat="59.29782897233963" lon="8.184934984892607">
        <ele>842.7421875</ele>
        <time>2019-08-21T12:57:41Z</time>
      </trkpt>
      <trkpt lat="59.29782503284514" lon="8.184948982670903">
        <ele>843.0625</ele>
        <time>2019-08-21T12:57:42Z</time>
      </trkpt>
      <trkpt lat="59.297818997874856" lon="8.184969015419483">
        <ele>843.53515625</ele>
        <time>2019-08-21T12:57:43Z</time>
      </trkpt>
      <trkpt lat="59.297816986218095" lon="8.184986030682921">
        <ele>843.8359375</ele>
        <time>2019-08-21T12:57:44Z</time>
      </trkpt>
      <trkpt lat="59.297815980389714" lon="8.184997010976076">
        <ele>844.01953125</ele>
        <time>2019-08-21T12:57:45Z</time>
      </trkpt>
      <trkpt lat="59.297814974561334" lon="8.185000028461218">
        <ele>844.09375</ele>
        <time>2019-08-21T12:57:46Z</time>
      </trkpt>
      <trkpt lat="59.297812962904572" lon="8.18500597961247">
        <ele>844.2421875</ele>
        <time>2019-08-21T12:57:47Z</time>
      </trkpt>
      <trkpt lat="59.297812962904572" lon="8.185012014582753">
        <ele>844.328125</ele>
        <time>2019-08-21T12:57:48Z</time>
      </trkpt>
      <trkpt lat="59.297809023410082" lon="8.185017965734005">
        <ele>844.53125</ele>
        <time>2019-08-21T12:57:49Z</time>
      </trkpt>
      <trkpt lat="59.297808017581701" lon="8.185024000704289">
        <ele>844.63671875</ele>
        <time>2019-08-21T12:57:50Z</time>
      </trkpt>
      <trkpt lat="59.29780500009656" lon="8.185029029846191">
        <ele>844.80078125</ele>
        <time>2019-08-21T12:57:51Z</time>
      </trkpt>
      <trkpt lat="59.297802988439798" lon="8.185035986825824">
        <ele>844.953125</ele>
        <time>2019-08-21T12:57:52Z</time>
      </trkpt>
      <trkpt lat="59.297799970954657" lon="8.185045961290598">
        <ele>845.17578125</ele>
        <time>2019-08-21T12:57:53Z</time>
      </trkpt>
      <trkpt lat="59.297799970954657" lon="8.185046967118979">
        <ele>845.1875</ele>
        <time>2019-08-21T12:57:54Z</time>
      </trkpt>
      <trkpt lat="59.297798965126276" lon="8.185047972947359">
        <ele>845.234375</ele>
        <time>2019-08-21T12:57:55Z</time>
      </trkpt>
      <trkpt lat="59.297798965126276" lon="8.185047972947359">
        <ele>845.234375</ele>
        <time>2019-08-21T12:57:56Z</time>
      </trkpt>
      <trkpt lat="59.297798965126276" lon="8.185046967118979">
        <ele>845.22265625</ele>
        <time>2019-08-21T12:57:57Z</time>
      </trkpt>
      <trkpt lat="59.297798965126276" lon="8.185046967118979">
        <ele>845.22265625</ele>
        <time>2019-08-21T12:57:58Z</time>
      </trkpt>
      <trkpt lat="59.297798965126276" lon="8.185046967118979">
        <ele>845.22265625</ele>
        <time>2019-08-21T12:57:59Z</time>
      </trkpt>
      <trkpt lat="59.297798965126276" lon="8.185046967118979">
        <ele>845.22265625</ele>
        <time>2019-08-21T12:58:00Z</time>
      </trkpt>
      <trkpt lat="59.297798965126276" lon="8.185046967118979">
        <ele>845.22265625</ele>
        <time>2019-08-21T12:58:01Z</time>
      </trkpt>
      <trkpt lat="59.297798965126276" lon="8.185046967118979">
        <ele>845.22265625</ele>
        <time>2019-08-21T12:58:02Z</time>
      </trkpt>
      <trkpt lat="59.297798965126276" lon="8.185046967118979">
        <ele>845.22265625</ele>
        <time>2019-08-21T12:58:03Z</time>
      </trkpt>
      <trkpt lat="59.297798965126276" lon="8.185047972947359">
        <ele>845.234375</ele>
        <time>2019-08-21T12:58:04Z</time>
      </trkpt>
      <trkpt lat="59.297798965126276" lon="8.185047972947359">
        <ele>845.234375</ele>
        <time>2019-08-21T12:58:05Z</time>
      </trkpt>
      <trkpt lat="59.297798965126276" lon="8.185047972947359">
        <ele>845.234375</ele>
        <time>2019-08-21T12:58:06Z</time>
      </trkpt>
      <trkpt lat="59.297798965126276" lon="8.185047972947359">
        <ele>845.234375</ele>
        <time>2019-08-21T12:58:07Z</time>
      </trkpt>
      <trkpt lat="59.297787984833121" lon="8.185046967118979">
        <ele>845.58984375</ele>
        <time>2019-08-21T12:58:09Z</time>
      </trkpt>
      <trkpt lat="59.297771975398064" lon="8.185051996260881">
        <ele>846.1953125</ele>
        <time>2019-08-21T12:58:10Z</time>
      </trkpt>
      <trkpt lat="59.297746997326612" lon="8.185073034837842">
        <ele>847.27734375</ele>
        <time>2019-08-21T12:58:12Z</time>
      </trkpt>
      <trkpt lat="59.297740962356329" lon="8.185077980160713">
        <ele>847.52734375</ele>
        <time>2019-08-21T12:58:13Z</time>
      </trkpt>
      <trkpt lat="59.297731993719935" lon="8.185089966282249">
        <ele>847.9609375</ele>
        <time>2019-08-21T12:58:14Z</time>
      </trkpt>
      <trkpt lat="59.297717995941639" lon="8.185098012909293">
        <ele>848.49609375</ele>
        <time>2019-08-21T12:58:15Z</time>
      </trkpt>
      <trkpt lat="59.297708021476865" lon="8.185107987374067">
        <ele>848.9375</ele>
        <time>2019-08-21T12:58:16Z</time>
      </trkpt>
      <trkpt lat="59.297705003991723" lon="8.185132965445519">
        <ele>849.359375</ele>
        <time>2019-08-21T12:58:17Z</time>
      </trkpt>
      <trkpt lat="59.29769704118371" lon="8.185148974880576">
        <ele>849.8125</ele>
        <time>2019-08-21T12:58:18Z</time>
      </trkpt>
      <trkpt lat="59.297683965414762" lon="8.185158027336001">
        <ele>850.3359375</ele>
        <time>2019-08-21T12:58:19Z</time>
      </trkpt>
      <trkpt lat="59.297670973464847" lon="8.185183005407453">
        <ele>851.0625</ele>
        <time>2019-08-21T12:58:20Z</time>
      </trkpt>
      <trkpt lat="59.29765596985817" lon="8.185209995135665">
        <ele>851.87890625</ele>
        <time>2019-08-21T12:58:21Z</time>
      </trkpt>
      <trkpt lat="59.297641972079873" lon="8.185229022055864">
        <ele>852.55859375</ele>
        <time>2019-08-21T12:58:22Z</time>
      </trkpt>
      <trkpt lat="59.297631997615099" lon="8.185258023440838">
        <ele>853.25</ele>
        <time>2019-08-21T12:58:23Z</time>
      </trkpt>
      <trkpt lat="59.297620011493564" lon="8.185281995683909">
        <ele>853.93359375</ele>
        <time>2019-08-21T12:58:24Z</time>
      </trkpt>
      <trkpt lat="59.29761003702879" lon="8.185301022604108">
        <ele>854.4921875</ele>
        <time>2019-08-21T12:58:25Z</time>
      </trkpt>
      <trkpt lat="59.297601990401745" lon="8.185321977362037">
        <ele>855.01171875</ele>
        <time>2019-08-21T12:58:26Z</time>
      </trkpt>
      <trkpt lat="59.29759000428021" lon="8.185343015938997">
        <ele>855.6328125</ele>
        <time>2019-08-21T12:58:27Z</time>
      </trkpt>
      <trkpt lat="59.297579023987055" lon="8.185362964868546">
        <ele>856.19140625</ele>
        <time>2019-08-21T12:58:28Z</time>
      </trkpt>
      <trkpt lat="59.297571983188391" lon="8.185375034809113">
        <ele>856.53515625</ele>
        <time>2019-08-21T12:58:29Z</time>
      </trkpt>
      <trkpt lat="59.29756703786552" lon="8.185396995395422">
        <ele>856.93359375</ele>
        <time>2019-08-21T12:58:30Z</time>
      </trkpt>
      <trkpt lat="59.297553040087223" lon="8.185421973466873">
        <ele>857.59375</ele>
        <time>2019-08-21T12:58:31Z</time>
      </trkpt>
      <trkpt lat="59.297537030652165" lon="8.185444017872214">
        <ele>858.24609375</ele>
        <time>2019-08-21T12:58:32Z</time>
      </trkpt>
      <trkpt lat="59.297529989853501" lon="8.185460027307272">
        <ele>858.59375</ele>
        <time>2019-08-21T12:58:33Z</time>
      </trkpt>
      <trkpt lat="59.297523032873869" lon="8.185477964580059">
        <ele>858.94921875</ele>
        <time>2019-08-21T12:58:34Z</time>
      </trkpt>
      <trkpt lat="59.297512974590063" lon="8.185497997328639">
        <ele>859.390625</ele>
        <time>2019-08-21T12:58:35Z</time>
      </trkpt>
      <trkpt lat="59.29750501178205" lon="8.18552004173398">
        <ele>859.7890625</ele>
        <time>2019-08-21T12:58:36Z</time>
      </trkpt>
      <trkpt lat="59.297500988468528" lon="8.185535967350006">
        <ele>860.03125</ele>
        <time>2019-08-21T12:58:37Z</time>
      </trkpt>
      <trkpt lat="59.297496965155005" lon="8.185547031462193">
        <ele>860.22265625</ele>
        <time>2019-08-21T12:58:38Z</time>
      </trkpt>
      <trkpt lat="59.297486990690231" lon="8.185552982613444">
        <ele>860.48828125</ele>
        <time>2019-08-21T12:58:39Z</time>
      </trkpt>
      <trkpt lat="59.297485984861851" lon="8.18556496873498">
        <ele>860.6171875</ele>
        <time>2019-08-21T12:58:40Z</time>
      </trkpt>
      <trkpt lat="59.29748497903347" lon="8.185588018968701">
        <ele>860.80078125</ele>
        <time>2019-08-21T12:58:41Z</time>
      </trkpt>
      <trkpt lat="59.29748103953898" lon="8.185612997040153">
        <ele>861.04296875</ele>
        <time>2019-08-21T12:58:42Z</time>
      </trkpt>
      <trkpt lat="59.297479027882218" lon="8.185625988990068">
        <ele>861.16015625</ele>
        <time>2019-08-21T12:58:43Z</time>
      </trkpt>
      <trkpt lat="59.297478022053838" lon="8.185634035617113">
        <ele>861.2265625</ele>
        <time>2019-08-21T12:58:44Z</time>
      </trkpt>
      <trkpt lat="59.297472992911935" lon="8.185646021738648">
        <ele>861.3828125</ele>
        <time>2019-08-21T12:58:45Z</time>
      </trkpt>
      <trkpt lat="59.297451032325625" lon="8.185688015073538">
        <ele>862</ele>
        <time>2019-08-21T12:58:47Z</time>
      </trkpt>
      <trkpt lat="59.297438962385058" lon="8.185701007023454">
        <ele>862.26953125</ele>
        <time>2019-08-21T12:58:48Z</time>
      </trkpt>
      <trkpt lat="59.297436028718948" lon="8.185716010630131">
        <ele>862.4140625</ele>
        <time>2019-08-21T12:58:49Z</time>
      </trkpt>
      <trkpt lat="59.297430999577045" lon="8.185729002580047">
        <ele>862.57421875</ele>
        <time>2019-08-21T12:58:50Z</time>
      </trkpt>
      <trkpt lat="59.297426976263523" lon="8.18573503755033">
        <ele>862.67578125</ele>
        <time>2019-08-21T12:58:51Z</time>
      </trkpt>
      <trkpt lat="59.297423036769032" lon="8.185744006186724">
        <ele>862.796875</ele>
        <time>2019-08-21T12:58:52Z</time>
      </trkpt>
      <trkpt lat="59.29741901345551" lon="8.185766972601414">
        <ele>863.01171875</ele>
        <time>2019-08-21T12:58:53Z</time>
      </trkpt>
      <trkpt lat="59.297413984313607" lon="8.185802008956671">
        <ele>863.3203125</ele>
        <time>2019-08-21T12:58:54Z</time>
      </trkpt>
      <trkpt lat="59.297409038990736" lon="8.185839978978038">
        <ele>863.64453125</ele>
        <time>2019-08-21T12:58:55Z</time>
      </trkpt>
      <trkpt lat="59.297394035384059" lon="8.185851965099573">
        <ele>863.9609375</ele>
        <time>2019-08-21T12:58:56Z</time>
      </trkpt>
      <trkpt lat="59.29737601429224" lon="8.185869986191392">
        <ele>864.3828125</ele>
        <time>2019-08-21T12:58:57Z</time>
      </trkpt>
      <trkpt lat="59.297360004857183" lon="8.185895970091224">
        <ele>864.859375</ele>
        <time>2019-08-21T12:58:58Z</time>
      </trkpt>
      <trkpt lat="59.297350030392408" lon="8.185917008668184">
        <ele>865.203125</ele>
        <time>2019-08-21T12:58:59Z</time>
      </trkpt>
      <trkpt lat="59.297347012907267" lon="8.185931006446481">
        <ele>865.37890625</ele>
        <time>2019-08-21T12:59:00Z</time>
      </trkpt>
      <trkpt lat="59.297334020957351" lon="8.185937963426113">
        <ele>865.6640625</ele>
        <time>2019-08-21T12:59:01Z</time>
      </trkpt>
      <trkpt lat="59.29731298238039" lon="8.185939975082874">
        <ele>866.0546875</ele>
        <time>2019-08-21T12:59:02Z</time>
      </trkpt>
      <trkpt lat="59.297294961288571" lon="8.185926983132958">
        <ele>866.2421875</ele>
        <time>2019-08-21T12:59:03Z</time>
      </trkpt>
      <trkpt lat="59.29726897738874" lon="8.185869986191392">
        <ele>866.09375</ele>
        <time>2019-08-21T12:59:05Z</time>
      </trkpt>
      <trkpt lat="59.297261014580727" lon="8.18586302921176">
        <ele>866.14453125</ele>
        <time>2019-08-21T12:59:06Z</time>
      </trkpt>
      <trkpt lat="59.297240981832147" lon="8.185875015333295">
        <ele>866.59375</ele>
        <time>2019-08-21T12:59:07Z</time>
      </trkpt>
      <trkpt lat="59.297223966568708" lon="8.185882978141308">
        <ele>866.9609375</ele>
        <time>2019-08-21T12:59:08Z</time>
      </trkpt>
      <trkpt lat="59.297207035124302" lon="8.185890018939972">
        <ele>867.3203125</ele>
        <time>2019-08-21T12:59:09Z</time>
      </trkpt>
      <trkpt lat="59.297189014032483" lon="8.185903010889888">
        <ele>867.85546875</ele>
        <time>2019-08-21T12:59:10Z</time>
      </trkpt>
      <trkpt lat="59.297178033739328" lon="8.185923965647817">
        <ele>868.3515625</ele>
        <time>2019-08-21T12:59:11Z</time>
      </trkpt>
      <trkpt lat="59.297166969627142" lon="8.185939975082874">
        <ele>868.78515625</ele>
        <time>2019-08-21T12:59:12Z</time>
      </trkpt>
      <trkpt lat="59.297154983505607" lon="8.185953972861171">
        <ele>869.21875</ele>
        <time>2019-08-21T12:59:13Z</time>
      </trkpt>
      <trkpt lat="59.297137968242168" lon="8.1859490275383">
        <ele>869.53125</ele>
        <time>2019-08-21T12:59:14Z</time>
      </trkpt>
      <trkpt lat="59.297119025141001" lon="8.185939975082874">
        <ele>869.83984375</ele>
        <time>2019-08-21T12:59:15Z</time>
      </trkpt>
      <trkpt lat="59.297098992392421" lon="8.185926983132958">
        <ele>870.12109375</ele>
        <time>2019-08-21T12:59:16Z</time>
      </trkpt>
      <trkpt lat="59.297078959643841" lon="8.185922037810087">
        <ele>870.50390625</ele>
        <time>2019-08-21T12:59:17Z</time>
      </trkpt>
      <trkpt lat="59.297065967693925" lon="8.18590703420341">
        <ele>870.60546875</ele>
        <time>2019-08-21T12:59:18Z</time>
      </trkpt>
      <trkpt lat="59.29705398157239" lon="8.185882978141308">
        <ele>870.578125</ele>
        <time>2019-08-21T12:59:19Z</time>
      </trkpt>
      <trkpt lat="59.297044007107615" lon="8.18586696870625">
        <ele>870.60546875</ele>
        <time>2019-08-21T12:59:20Z</time>
      </trkpt>
      <trkpt lat="59.297023974359035" lon="8.185852970927954">
        <ele>870.875</ele>
        <time>2019-08-21T12:59:21Z</time>
      </trkpt>
      <trkpt lat="59.297002013772726" lon="8.185831010341644">
        <ele>871.11328125</ele>
        <time>2019-08-21T12:59:22Z</time>
      </trkpt>
      <trkpt lat="59.296980975195765" lon="8.18582103587687">
        <ele>871.4609375</ele>
        <time>2019-08-21T12:59:23Z</time>
      </trkpt>
      <trkpt lat="59.296961026266217" lon="8.185807038098574">
        <ele>871.73046875</ele>
        <time>2019-08-21T12:59:24Z</time>
      </trkpt>
      <trkpt lat="59.296941999346018" lon="8.185796979814768">
        <ele>872.01171875</ele>
        <time>2019-08-21T12:59:25Z</time>
      </trkpt>
      <trkpt lat="59.296920960769057" lon="8.185793962329626">
        <ele>872.35546875</ele>
        <time>2019-08-21T12:59:26Z</time>
      </trkpt>
      <trkpt lat="59.296895982697606" lon="8.185793040320277">
        <ele>872.5859375</ele>
        <time>2019-08-21T12:59:27Z</time>
      </trkpt>
      <trkpt lat="59.296874022111297" lon="8.185794968158007">
        <ele>872.82421875</ele>
        <time>2019-08-21T12:59:28Z</time>
      </trkpt>
      <trkpt lat="59.296856001019478" lon="8.185796979814768">
        <ele>873.0234375</ele>
        <time>2019-08-21T12:59:29Z</time>
      </trkpt>
      <trkpt lat="59.296837979927659" lon="8.185796979814768">
        <ele>873.19921875</ele>
        <time>2019-08-21T12:59:30Z</time>
      </trkpt>
      <trkpt lat="59.296819036826491" lon="8.185807038098574">
        <ele>873.5078125</ele>
        <time>2019-08-21T12:59:31Z</time>
      </trkpt>
      <trkpt lat="59.296801015734673" lon="8.185824975371361">
        <ele>873.91015625</ele>
        <time>2019-08-21T12:59:32Z</time>
      </trkpt>
      <trkpt lat="59.296786012127995" lon="8.185836961492896">
        <ele>874.20703125</ele>
        <time>2019-08-21T12:59:33Z</time>
      </trkpt>
      <trkpt lat="59.296778971329331" lon="8.185839978978038">
        <ele>874.31640625</ele>
        <time>2019-08-21T12:59:34Z</time>
      </trkpt>
      <trkpt lat="59.296768996864557" lon="8.185841990634799">
        <ele>874.4375</ele>
        <time>2019-08-21T12:59:35Z</time>
      </trkpt>
      <trkpt lat="59.296756004914641" lon="8.185850037261844">
        <ele>874.66796875</ele>
        <time>2019-08-21T12:59:36Z</time>
      </trkpt>
      <trkpt lat="59.296744018793106" lon="8.185879960656166">
        <ele>875.171875</ele>
        <time>2019-08-21T12:59:37Z</time>
      </trkpt>
      <trkpt lat="59.296733038499951" lon="8.185902005061507">
        <ele>875.56640625</ele>
        <time>2019-08-21T12:59:38Z</time>
      </trkpt>
      <trkpt lat="59.296718034893274" lon="8.185925977304578">
        <ele>876.02734375</ele>
        <time>2019-08-21T12:59:39Z</time>
      </trkpt>
      <trkpt lat="59.296705964952707" lon="8.185938969254494">
        <ele>876.31640625</ele>
        <time>2019-08-21T12:59:40Z</time>
      </trkpt>
      <trkpt lat="59.296690039336681" lon="8.185957996174693">
        <ele>876.7265625</ele>
        <time>2019-08-21T12:59:41Z</time>
      </trkpt>
      <trkpt lat="59.296672018244863" lon="8.185965958982706">
        <ele>877.01953125</ele>
        <time>2019-08-21T12:59:42Z</time>
      </trkpt>
      <trkpt lat="59.296653997153044" lon="8.185970988124609">
        <ele>877.26953125</ele>
        <time>2019-08-21T12:59:43Z</time>
      </trkpt>
      <trkpt lat="59.296635976061225" lon="8.185967970639467">
        <ele>877.3828125</ele>
        <time>2019-08-21T12:59:44Z</time>
      </trkpt>
      <trkpt lat="59.296618038788438" lon="8.185965958982706">
        <ele>877.4921875</ele>
        <time>2019-08-21T12:59:45Z</time>
      </trkpt>
      <trkpt lat="59.296603035181761" lon="8.185955984517932">
        <ele>877.46875</ele>
        <time>2019-08-21T12:59:46Z</time>
      </trkpt>
      <trkpt lat="59.296590965241194" lon="8.185939975082874">
        <ele>877.33984375</ele>
        <time>2019-08-21T12:59:47Z</time>
      </trkpt>
      <trkpt lat="59.296575039625168" lon="8.185916002839804">
        <ele>877.12890625</ele>
        <time>2019-08-21T12:59:48Z</time>
      </trkpt>
      <trkpt lat="59.296557018533349" lon="8.185896975919604">
        <ele>876.9921875</ele>
        <time>2019-08-21T12:59:49Z</time>
      </trkpt>
      <trkpt lat="59.29653899744153" lon="8.185883983969688">
        <ele>876.93359375</ele>
        <time>2019-08-21T12:59:50Z</time>
      </trkpt>
      <trkpt lat="59.296522988006473" lon="8.185878032818437">
        <ele>876.9609375</ele>
        <time>2019-08-21T12:59:51Z</time>
      </trkpt>
      <trkpt lat="59.296491974964738" lon="8.18590602837503">
        <ele>877.578125</ele>
        <time>2019-08-21T12:59:53Z</time>
      </trkpt>
      <trkpt lat="59.296477977186441" lon="8.185921031981707">
        <ele>877.89453125</ele>
        <time>2019-08-21T12:59:54Z</time>
      </trkpt>
      <trkpt lat="59.296469008550048" lon="8.185931006446481">
        <ele>878.10546875</ele>
        <time>2019-08-21T12:59:55Z</time>
      </trkpt>
      <trkpt lat="59.296449981629848" lon="8.185945004224777">
        <ele>878.44921875</ele>
        <time>2019-08-21T12:59:56Z</time>
      </trkpt>
      <trkpt lat="59.296421986073256" lon="8.185946010053158">
        <ele>878.66796875</ele>
        <time>2019-08-21T12:59:57Z</time>
      </trkpt>
      <trkpt lat="59.296400025486946" lon="8.185940980911255">
        <ele>878.75390625</ele>
        <time>2019-08-21T12:59:58Z</time>
      </trkpt>
      <trkpt lat="59.296375969424844" lon="8.185939975082874">
        <ele>878.91796875</ele>
        <time>2019-08-21T12:59:59Z</time>
      </trkpt>
      <trkpt lat="59.296351997181773" lon="8.185939975082874">
        <ele>879.0703125</ele>
        <time>2019-08-21T13:00:00Z</time>
      </trkpt>
      <trkpt lat="59.296329030767083" lon="8.185937963426113">
        <ele>879.18359375</ele>
        <time>2019-08-21T13:00:01Z</time>
      </trkpt>
      <trkpt lat="59.296310003846884" lon="8.185942992568016">
        <ele>879.37890625</ele>
        <time>2019-08-21T13:00:02Z</time>
      </trkpt>
      <trkpt lat="59.296295000240207" lon="8.18595196120441">
        <ele>879.6171875</ele>
        <time>2019-08-21T13:00:03Z</time>
      </trkpt>
      <trkpt lat="59.29627999663353" lon="8.185982974246144">
        <ele>880.2109375</ele>
        <time>2019-08-21T13:00:04Z</time>
      </trkpt>
      <trkpt lat="59.296264993026853" lon="8.186013987287879">
        <ele>880.8125</ele>
        <time>2019-08-21T13:00:05Z</time>
      </trkpt>
      <trkpt lat="59.296246971935034" lon="8.18601599894464">
        <ele>880.96875</ele>
        <time>2019-08-21T13:00:06Z</time>
      </trkpt>
      <trkpt lat="59.296228028833866" lon="8.185996972024441">
        <ele>880.78515625</ele>
        <time>2019-08-21T13:00:07Z</time>
      </trkpt>
      <trkpt lat="59.296215958893299" lon="8.185980040580034">
        <ele>880.58203125</ele>
        <time>2019-08-21T13:00:08Z</time>
      </trkpt>
      <trkpt lat="59.296199027448893" lon="8.185976017266512">
        <ele>880.62890625</ele>
        <time>2019-08-21T13:00:09Z</time>
      </trkpt>
      <trkpt lat="59.296180000528693" lon="8.185974005609751">
        <ele>880.71875</ele>
        <time>2019-08-21T13:00:10Z</time>
      </trkpt>
      <trkpt lat="59.296164996922016" lon="8.185964031144977">
        <ele>880.64453125</ele>
        <time>2019-08-21T13:00:11Z</time>
      </trkpt>
      <trkpt lat="59.296157034114003" lon="8.185959002003074">
        <ele>880.609375</ele>
        <time>2019-08-21T13:00:12Z</time>
      </trkpt>
      <trkpt lat="59.296157034114003" lon="8.185959002003074">
        <ele>880.609375</ele>
        <time>2019-08-21T13:00:13Z</time>
      </trkpt>
      <trkpt lat="59.296149993315339" lon="8.185962019488215">
        <ele>880.70703125</ele>
        <time>2019-08-21T13:00:14Z</time>
      </trkpt>
      <trkpt lat="59.296137001365423" lon="8.185960007831454">
        <ele>880.7578125</ele>
        <time>2019-08-21T13:00:15Z</time>
      </trkpt>
      <trkpt lat="59.29612903855741" lon="8.185954978689551">
        <ele>880.71875</ele>
        <time>2019-08-21T13:00:16Z</time>
      </trkpt>
      <trkpt lat="59.296116968616843" lon="8.185961013659835">
        <ele>880.90234375</ele>
        <time>2019-08-21T13:00:17Z</time>
      </trkpt>
      <trkpt lat="59.296101965010166" lon="8.185970988124609">
        <ele>881.171875</ele>
        <time>2019-08-21T13:00:18Z</time>
      </trkpt>
      <trkpt lat="59.296086961403489" lon="8.185977023094893">
        <ele>881.46875</ele>
        <time>2019-08-21T13:00:19Z</time>
      </trkpt>
      <trkpt lat="59.296074975281954" lon="8.185979034751654">
        <ele>881.75390625</ele>
        <time>2019-08-21T13:00:20Z</time>
      </trkpt>
      <trkpt lat="59.296059971675277" lon="8.185981968417764">
        <ele>882.12109375</ele>
        <time>2019-08-21T13:00:21Z</time>
      </trkpt>
      <trkpt lat="59.29604304023087" lon="8.185989009216428">
        <ele>882.59765625</ele>
        <time>2019-08-21T13:00:22Z</time>
      </trkpt>
      <trkpt lat="59.296024013310671" lon="8.185997977852821">
        <ele>883.16015625</ele>
        <time>2019-08-21T13:00:23Z</time>
      </trkpt>
      <trkpt lat="59.296003980562091" lon="8.185997977852821">
        <ele>883.578125</ele>
        <time>2019-08-21T13:00:24Z</time>
      </trkpt>
      <trkpt lat="59.295983025804162" lon="8.18599202670157">
        <ele>883.91015625</ele>
        <time>2019-08-21T13:00:25Z</time>
      </trkpt>
      <trkpt lat="59.295963998883963" lon="8.185984985902906">
        <ele>884.17578125</ele>
        <time>2019-08-21T13:00:26Z</time>
      </trkpt>
      <trkpt lat="59.295951006934047" lon="8.185989009216428">
        <ele>884.5234375</ele>
        <time>2019-08-21T13:00:27Z</time>
      </trkpt>
      <trkpt lat="59.295929968357086" lon="8.185991020873189">
        <ele>885</ele>
        <time>2019-08-21T13:00:29Z</time>
      </trkpt>
      <trkpt lat="59.295919993892312" lon="8.18599596619606">
        <ele>885.30078125</ele>
        <time>2019-08-21T13:00:30Z</time>
      </trkpt>
      <trkpt lat="59.295918988063931" lon="8.18599596619606">
        <ele>885.32421875</ele>
        <time>2019-08-21T13:00:31Z</time>
      </trkpt>
      <trkpt lat="59.295912031084299" lon="8.185998983681202">
        <ele>885.52734375</ele>
        <time>2019-08-21T13:00:32Z</time>
      </trkpt>
      <trkpt lat="59.295904990285635" lon="8.186011975631118">
        <ele>885.921875</ele>
        <time>2019-08-21T13:00:33Z</time>
      </trkpt>
      <trkpt lat="59.295901972800493" lon="8.186032008379698">
        <ele>886.3671875</ele>
        <time>2019-08-21T13:00:34Z</time>
      </trkpt>
      <trkpt lat="59.295902978628874" lon="8.186051035299897">
        <ele>886.70703125</ele>
        <time>2019-08-21T13:00:35Z</time>
      </trkpt>
      <trkpt lat="59.295904990285635" lon="8.186064027249813">
        <ele>886.9140625</ele>
        <time>2019-08-21T13:00:36Z</time>
      </trkpt>
      <trkpt lat="59.295901972800493" lon="8.186075007542968">
        <ele>887.1875</ele>
        <time>2019-08-21T13:00:37Z</time>
      </trkpt>
      <trkpt lat="59.295899039134383" lon="8.186080036684871">
        <ele>887.34765625</ele>
        <time>2019-08-21T13:00:38Z</time>
      </trkpt>
      <trkpt lat="59.295870959758759" lon="8.186086993664503">
        <ele>888.08984375</ele>
        <time>2019-08-21T13:00:40Z</time>
      </trkpt>
      <trkpt lat="59.295859979465604" lon="8.186095962300897">
        <ele>888.5</ele>
        <time>2019-08-21T13:00:41Z</time>
      </trkpt>
      <trkpt lat="59.295855034142733" lon="8.18610199727118">
        <ele>888.7265625</ele>
        <time>2019-08-21T13:00:42Z</time>
      </trkpt>
      <trkpt lat="59.295846987515688" lon="8.186109960079193">
        <ele>889.05859375</ele>
        <time>2019-08-21T13:00:43Z</time>
      </trkpt>
      <trkpt lat="59.295840030536056" lon="8.186115995049477">
        <ele>889.328125</ele>
        <time>2019-08-21T13:00:44Z</time>
      </trkpt>
      <trkpt lat="59.295832989737391" lon="8.186120018362999">
        <ele>889.55859375</ele>
        <time>2019-08-21T13:00:45Z</time>
      </trkpt>
      <trkpt lat="59.295827960595489" lon="8.186126975342631">
        <ele>889.75390625</ele>
        <time>2019-08-21T13:00:46Z</time>
      </trkpt>
      <trkpt lat="59.295824021100998" lon="8.186136027798057">
        <ele>889.8828125</ele>
        <time>2019-08-21T13:00:47Z</time>
      </trkpt>
      <trkpt lat="59.295819997787476" lon="8.186150025576353">
        <ele>890.03515625</ele>
        <time>2019-08-21T13:00:48Z</time>
      </trkpt>
      <trkpt lat="59.295818991959095" lon="8.18616502918303">
        <ele>890.12109375</ele>
        <time>2019-08-21T13:00:49Z</time>
      </trkpt>
      <trkpt lat="59.295816980302334" lon="8.186173997819424">
        <ele>890.203125</ele>
        <time>2019-08-21T13:00:50Z</time>
      </trkpt>
      <trkpt lat="59.295813040807843" lon="8.186181960627437">
        <ele>890.28515625</ele>
        <time>2019-08-21T13:00:51Z</time>
      </trkpt>
      <trkpt lat="59.295809017494321" lon="8.186193024739623">
        <ele>890.37890625</ele>
        <time>2019-08-21T13:00:52Z</time>
      </trkpt>
      <trkpt lat="59.295804994180799" lon="8.186205010861158">
        <ele>890.4765625</ele>
        <time>2019-08-21T13:00:53Z</time>
      </trkpt>
      <trkpt lat="59.295800970867276" lon="8.186216996982694">
        <ele>890.57421875</ele>
        <time>2019-08-21T13:00:54Z</time>
      </trkpt>
      <trkpt lat="59.295797031372786" lon="8.18623099476099">
        <ele>890.6875</ele>
        <time>2019-08-21T13:00:55Z</time>
      </trkpt>
      <trkpt lat="59.29578403942287" lon="8.186254967004061">
        <ele>890.95703125</ele>
        <time>2019-08-21T13:00:57Z</time>
      </trkpt>
      <trkpt lat="59.295778004452586" lon="8.186258990317583">
        <ele>891.05078125</ele>
        <time>2019-08-21T13:00:58Z</time>
      </trkpt>
      <trkpt lat="59.295771969482303" lon="8.186261001974344">
        <ele>891.1328125</ele>
        <time>2019-08-21T13:00:59Z</time>
      </trkpt>
      <trkpt lat="59.295770041644573" lon="8.186270976439118">
        <ele>891.2109375</ele>
        <time>2019-08-21T13:01:00Z</time>
      </trkpt>
      <trkpt lat="59.295763000845909" lon="8.186286985874176">
        <ele>891.390625</ele>
        <time>2019-08-21T13:01:01Z</time>
      </trkpt>
      <trkpt lat="59.295754032209516" lon="8.186295032501221">
        <ele>891.55078125</ele>
        <time>2019-08-21T13:01:02Z</time>
      </trkpt>
      <trkpt lat="59.295741962268949" lon="8.186305006965995">
        <ele>891.765625</ele>
        <time>2019-08-21T13:01:03Z</time>
      </trkpt>
      <trkpt lat="59.295729976147413" lon="8.186333002522588">
        <ele>892.1015625</ele>
        <time>2019-08-21T13:01:04Z</time>
      </trkpt>
      <trkpt lat="59.295723019167781" lon="8.186354963108897">
        <ele>892.34375</ele>
        <time>2019-08-21T13:01:05Z</time>
      </trkpt>
      <trkpt lat="59.295718995854259" lon="8.186370972543955">
        <ele>892.5078125</ele>
        <time>2019-08-21T13:01:06Z</time>
      </trkpt>
      <trkpt lat="59.295702986419201" lon="8.186410032212734">
        <ele>893.10546875</ele>
        <time>2019-08-21T13:01:08Z</time>
      </trkpt>
      <trkpt lat="59.295695023611188" lon="8.186426041647792">
        <ele>893.5</ele>
        <time>2019-08-21T13:01:09Z</time>
      </trkpt>
      <trkpt lat="59.295696029439569" lon="8.18644498474896">
        <ele>893.80078125</ele>
        <time>2019-08-21T13:01:10Z</time>
      </trkpt>
      <trkpt lat="59.29569804109633" lon="8.186464011669159">
        <ele>894.0859375</ele>
        <time>2019-08-21T13:01:11Z</time>
      </trkpt>
      <trkpt lat="59.295699968934059" lon="8.186479015275836">
        <ele>894.30859375</ele>
        <time>2019-08-21T13:01:12Z</time>
      </trkpt>
      <trkpt lat="59.29569804109633" lon="8.18650801666081">
        <ele>894.82421875</ele>
        <time>2019-08-21T13:01:14Z</time>
      </trkpt>
      <trkpt lat="59.295691000297666" lon="8.186518996953964">
        <ele>895.12890625</ele>
        <time>2019-08-21T13:01:15Z</time>
      </trkpt>
      <trkpt lat="59.295688988640904" lon="8.186526037752628">
        <ele>895.28125</ele>
        <time>2019-08-21T13:01:16Z</time>
      </trkpt>
      <trkpt lat="59.295687982812524" lon="8.186529977247119">
        <ele>895.36328125</ele>
        <time>2019-08-21T13:01:17Z</time>
      </trkpt>
      <trkpt lat="59.295688988640904" lon="8.186543975025415">
        <ele>895.58203125</ele>
        <time>2019-08-21T13:01:18Z</time>
      </trkpt>
      <trkpt lat="59.295682031661272" lon="8.186581023037434">
        <ele>896.33203125</ele>
        <time>2019-08-21T13:01:20Z</time>
      </trkpt>
      <trkpt lat="59.295671973377466" lon="8.18659401498735">
        <ele>896.73046875</ele>
        <time>2019-08-21T13:01:21Z</time>
      </trkpt>
      <trkpt lat="59.295663004741073" lon="8.18659502081573">
        <ele>896.90234375</ele>
        <time>2019-08-21T13:01:22Z</time>
      </trkpt>
      <trkpt lat="59.295649006962776" lon="8.18659401498735">
        <ele>897.1328125</ele>
        <time>2019-08-21T13:01:23Z</time>
      </trkpt>
      <trkpt lat="59.295632997527719" lon="8.186593009158969">
        <ele>897.3984375</ele>
        <time>2019-08-21T13:01:24Z</time>
      </trkpt>
      <trkpt lat="59.29561598226428" lon="8.18659401498735">
        <ele>897.71875</ele>
        <time>2019-08-21T13:01:25Z</time>
      </trkpt>
      <trkpt lat="59.295599972829223" lon="8.186598038300872">
        <ele>898.07421875</ele>
        <time>2019-08-21T13:01:26Z</time>
      </trkpt>
      <trkpt lat="59.295589998364449" lon="8.186598038300872">
        <ele>898.25</ele>
        <time>2019-08-21T13:01:27Z</time>
      </trkpt>
      <trkpt lat="59.295581029728055" lon="8.186603989452124">
        <ele>898.515625</ele>
        <time>2019-08-21T13:01:28Z</time>
      </trkpt>
      <trkpt lat="59.295574994757771" lon="8.186606001108885">
        <ele>898.66015625</ele>
        <time>2019-08-21T13:01:29Z</time>
      </trkpt>
      <trkpt lat="59.295581029728055" lon="8.186601977795363">
        <ele>898.48046875</ele>
        <time>2019-08-21T13:01:30Z</time>
      </trkpt>
      <trkpt lat="59.295583963394165" lon="8.186602983623743">
        <ele>898.4453125</ele>
        <time>2019-08-21T13:01:31Z</time>
      </trkpt>
      <trkpt lat="59.295587986707687" lon="8.186611030250788">
        <ele>898.51953125</ele>
        <time>2019-08-21T13:01:32Z</time>
      </trkpt>
      <trkpt lat="59.295584969222546" lon="8.186650006100535">
        <ele>899.28125</ele>
        <time>2019-08-21T13:01:34Z</time>
      </trkpt>
      <trkpt lat="59.295576000586152" lon="8.186664003878832">
        <ele>899.69921875</ele>
        <time>2019-08-21T13:01:35Z</time>
      </trkpt>
      <trkpt lat="59.295570971444249" lon="8.186687976121903">
        <ele>900.23046875</ele>
        <time>2019-08-21T13:01:36Z</time>
      </trkpt>
      <trkpt lat="59.295558985322714" lon="8.186714965850115">
        <ele>900.95703125</ele>
        <time>2019-08-21T13:01:38Z</time>
      </trkpt>
      <trkpt lat="59.295553034171462" lon="8.186726029962301">
        <ele>901.2734375</ele>
        <time>2019-08-21T13:01:39Z</time>
      </trkpt>
      <trkpt lat="59.295525960624218" lon="8.186741033568978">
        <ele>902.05078125</ele>
        <time>2019-08-21T13:01:41Z</time>
      </trkpt>
      <trkpt lat="59.295514980331063" lon="8.186747990548611">
        <ele>902.375</ele>
        <time>2019-08-21T13:01:42Z</time>
      </trkpt>
      <trkpt lat="59.295502994209528" lon="8.186757965013385">
        <ele>902.76953125</ele>
        <time>2019-08-21T13:01:43Z</time>
      </trkpt>
      <trkpt lat="59.295491008087993" lon="8.186771962791681">
        <ele>903.2421875</ele>
        <time>2019-08-21T13:01:44Z</time>
      </trkpt>
      <trkpt lat="59.295476004481316" lon="8.186805993318558">
        <ele>904.140625</ele>
        <time>2019-08-21T13:01:46Z</time>
      </trkpt>
      <trkpt lat="59.295479021966457" lon="8.186803981661797">
        <ele>904.05078125</ele>
        <time>2019-08-21T13:01:47Z</time>
      </trkpt>
      <trkpt lat="59.295480027794838" lon="8.186814961954951">
        <ele>904.23828125</ele>
        <time>2019-08-21T13:01:48Z</time>
      </trkpt>
      <trkpt lat="59.295478016138077" lon="8.186830971390009">
        <ele>904.5703125</ele>
        <time>2019-08-21T13:01:49Z</time>
      </trkpt>
      <trkpt lat="59.295478016138077" lon="8.186848992481828">
        <ele>904.90625</ele>
        <time>2019-08-21T13:01:50Z</time>
      </trkpt>
      <trkpt lat="59.295470975339413" lon="8.186857961118221">
        <ele>905.19921875</ele>
        <time>2019-08-21T13:01:51Z</time>
      </trkpt>
      <trkpt lat="59.295465024188161" lon="8.186866007745266">
        <ele>905.453125</ele>
        <time>2019-08-21T13:01:52Z</time>
      </trkpt>
      <trkpt lat="59.295454965904355" lon="8.186863996088505">
        <ele>905.59375</ele>
        <time>2019-08-21T13:01:53Z</time>
      </trkpt>
      <trkpt lat="59.295453960075974" lon="8.186862990260124">
        <ele>905.58984375</ele>
        <time>2019-08-21T13:01:54Z</time>
      </trkpt>
      <trkpt lat="59.295452032238245" lon="8.186860978603363">
        <ele>905.5859375</ele>
        <time>2019-08-21T13:01:55Z</time>
      </trkpt>
      <trkpt lat="59.295453038066626" lon="8.186861984431744">
        <ele>905.58984375</ele>
        <time>2019-08-21T13:01:56Z</time>
      </trkpt>
      <trkpt lat="59.295454965904355" lon="8.186863996088505">
        <ele>905.59375</ele>
        <time>2019-08-21T13:01:57Z</time>
      </trkpt>
      <trkpt lat="59.295455971732736" lon="8.186866007745266">
        <ele>905.61328125</ele>
        <time>2019-08-21T13:01:58Z</time>
      </trkpt>
      <trkpt lat="59.295455971732736" lon="8.186865001916885">
        <ele>905.59375</ele>
        <time>2019-08-21T13:01:59Z</time>
      </trkpt>
      <trkpt lat="59.295455971732736" lon="8.186865001916885">
        <ele>905.59375</ele>
        <time>2019-08-21T13:02:00Z</time>
      </trkpt>
      <trkpt lat="59.295455971732736" lon="8.186866007745266">
        <ele>905.61328125</ele>
        <time>2019-08-21T13:02:01Z</time>
      </trkpt>
      <trkpt lat="59.295455971732736" lon="8.186866007745266">
        <ele>905.61328125</ele>
        <time>2019-08-21T13:02:02Z</time>
      </trkpt>
      <trkpt lat="59.295454965904355" lon="8.186866007745266">
        <ele>905.62890625</ele>
        <time>2019-08-21T13:02:03Z</time>
      </trkpt>
      <trkpt lat="59.295453038066626" lon="8.186866007745266">
        <ele>905.6640625</ele>
        <time>2019-08-21T13:02:04Z</time>
      </trkpt>
      <trkpt lat="59.295453038066626" lon="8.186866007745266">
        <ele>905.6640625</ele>
        <time>2019-08-21T13:02:05Z</time>
      </trkpt>
      <trkpt lat="59.295451026409864" lon="8.186863996088505">
        <ele>905.66015625</ele>
        <time>2019-08-21T13:02:06Z</time>
      </trkpt>
      <trkpt lat="59.295450020581484" lon="8.186862990260124">
        <ele>905.66015625</ele>
        <time>2019-08-21T13:02:07Z</time>
      </trkpt>
      <trkpt lat="59.295450020581484" lon="8.186860978603363">
        <ele>905.625</ele>
        <time>2019-08-21T13:02:08Z</time>
      </trkpt>
      <trkpt lat="59.295449014753103" lon="8.186860978603363">
        <ele>905.640625</ele>
        <time>2019-08-21T13:02:09Z</time>
      </trkpt>
      <trkpt lat="59.295451026409864" lon="8.186859972774983">
        <ele>905.5859375</ele>
        <time>2019-08-21T13:02:10Z</time>
      </trkpt>
      <trkpt lat="59.295449014753103" lon="8.186859972774983">
        <ele>905.62109375</ele>
        <time>2019-08-21T13:02:11Z</time>
      </trkpt>
      <trkpt lat="59.295450020581484" lon="8.186859972774983">
        <ele>905.60546875</ele>
        <time>2019-08-21T13:02:12Z</time>
      </trkpt>
      <trkpt lat="59.295450020581484" lon="8.186859972774983">
        <ele>905.60546875</ele>
        <time>2019-08-21T13:02:13Z</time>
      </trkpt>
      <trkpt lat="59.295450020581484" lon="8.186857961118221">
        <ele>905.56640625</ele>
        <time>2019-08-21T13:02:14Z</time>
      </trkpt>
      <trkpt lat="59.295451026409864" lon="8.186857039108872">
        <ele>905.53125</ele>
        <time>2019-08-21T13:02:15Z</time>
      </trkpt>
      <trkpt lat="59.295451026409864" lon="8.186857039108872">
        <ele>905.53125</ele>
        <time>2019-08-21T13:02:16Z</time>
      </trkpt>
      <trkpt lat="59.295451026409864" lon="8.186857039108872">
        <ele>905.53125</ele>
        <time>2019-08-21T13:02:17Z</time>
      </trkpt>
      <trkpt lat="59.295451026409864" lon="8.186857039108872">
        <ele>905.53125</ele>
        <time>2019-08-21T13:02:18Z</time>
      </trkpt>
      <trkpt lat="59.295451026409864" lon="8.186857961118221">
        <ele>905.55078125</ele>
        <time>2019-08-21T13:02:19Z</time>
      </trkpt>
      <trkpt lat="59.295451026409864" lon="8.186857961118221">
        <ele>905.55078125</ele>
        <time>2019-08-21T13:02:20Z</time>
      </trkpt>
      <trkpt lat="59.295451026409864" lon="8.186857039108872">
        <ele>905.53125</ele>
        <time>2019-08-21T13:02:21Z</time>
      </trkpt>
      <trkpt lat="59.295451026409864" lon="8.186857961118221">
        <ele>905.55078125</ele>
        <time>2019-08-21T13:02:22Z</time>
      </trkpt>
      <trkpt lat="59.295449014753103" lon="8.186859972774983">
        <ele>905.62109375</ele>
        <time>2019-08-21T13:02:23Z</time>
      </trkpt>
      <trkpt lat="59.295448008924723" lon="8.186863996088505">
        <ele>905.71484375</ele>
        <time>2019-08-21T13:02:24Z</time>
      </trkpt>
      <trkpt lat="59.295444991439581" lon="8.186866007745266">
        <ele>905.8046875</ele>
        <time>2019-08-21T13:02:25Z</time>
      </trkpt>
      <trkpt lat="59.29544297978282" lon="8.186867013573647">
        <ele>905.859375</ele>
        <time>2019-08-21T13:02:26Z</time>
      </trkpt>
      <trkpt lat="59.29544297978282" lon="8.186866007745266">
        <ele>905.83984375</ele>
        <time>2019-08-21T13:02:27Z</time>
      </trkpt>
      <trkpt lat="59.295440968126059" lon="8.186867013573647">
        <ele>905.89453125</ele>
        <time>2019-08-21T13:02:28Z</time>
      </trkpt>
      <trkpt lat="59.295439962297678" lon="8.186869025230408">
        <ele>905.94921875</ele>
        <time>2019-08-21T13:02:29Z</time>
      </trkpt>
      <trkpt lat="59.295438034459949" lon="8.186871036887169">
        <ele>906.01953125</ele>
        <time>2019-08-21T13:02:30Z</time>
      </trkpt>
      <trkpt lat="59.295434011146426" lon="8.186876988038421">
        <ele>906.203125</ele>
        <time>2019-08-21T13:02:31Z</time>
      </trkpt>
      <trkpt lat="59.295427976176143" lon="8.186889979988337">
        <ele>906.55078125</ele>
        <time>2019-08-21T13:02:32Z</time>
      </trkpt>
      <trkpt lat="59.295424958691001" lon="8.18689601495862">
        <ele>906.71875</ele>
        <time>2019-08-21T13:02:33Z</time>
      </trkpt>
      <trkpt lat="59.295424036681652" lon="8.186903977766633">
        <ele>906.8828125</ele>
        <time>2019-08-21T13:02:34Z</time>
      </trkpt>
      <trkpt lat="59.295425964519382" lon="8.186915963888168">
        <ele>907.0703125</ele>
        <time>2019-08-21T13:02:35Z</time>
      </trkpt>
      <trkpt lat="59.295423030853271" lon="8.186929961666465">
        <ele>907.38671875</ele>
        <time>2019-08-21T13:02:36Z</time>
      </trkpt>
      <trkpt lat="59.295418001711369" lon="8.186937002465129">
        <ele>907.60546875</ele>
        <time>2019-08-21T13:02:37Z</time>
      </trkpt>
      <trkpt lat="59.295415990054607" lon="8.18693800829351">
        <ele>907.66015625</ele>
        <time>2019-08-21T13:02:38Z</time>
      </trkpt>
      <trkpt lat="59.295414984226227" lon="8.186941025778651">
        <ele>907.734375</ele>
        <time>2019-08-21T13:02:39Z</time>
      </trkpt>
      <trkpt lat="59.295415990054607" lon="8.186940019950271">
        <ele>907.6953125</ele>
        <time>2019-08-21T13:02:40Z</time>
      </trkpt>
      <trkpt lat="59.295415990054607" lon="8.186941025778651">
        <ele>907.71484375</ele>
        <time>2019-08-21T13:02:41Z</time>
      </trkpt>
      <trkpt lat="59.295416995882988" lon="8.186943037435412">
        <ele>907.734375</ele>
        <time>2019-08-21T13:02:42Z</time>
      </trkpt>
      <trkpt lat="59.295415990054607" lon="8.186943037435412">
        <ele>907.75390625</ele>
        <time>2019-08-21T13:02:43Z</time>
      </trkpt>
      <trkpt lat="59.295416995882988" lon="8.186943037435412">
        <ele>907.734375</ele>
        <time>2019-08-21T13:02:44Z</time>
      </trkpt>
      <trkpt lat="59.295416995882988" lon="8.186944965273142">
        <ele>907.76953125</ele>
        <time>2019-08-21T13:02:45Z</time>
      </trkpt>
      <trkpt lat="59.295416995882988" lon="8.186944965273142">
        <ele>907.76953125</ele>
        <time>2019-08-21T13:02:46Z</time>
      </trkpt>
      <trkpt lat="59.295418001711369" lon="8.186941025778651">
        <ele>907.6796875</ele>
        <time>2019-08-21T13:02:47Z</time>
      </trkpt>
      <trkpt lat="59.295416995882988" lon="8.186943037435412">
        <ele>907.734375</ele>
        <time>2019-08-21T13:02:48Z</time>
      </trkpt>
      <trkpt lat="59.295418001711369" lon="8.186943037435412">
        <ele>907.71875</ele>
        <time>2019-08-21T13:02:49Z</time>
      </trkpt>
      <trkpt lat="59.295418001711369" lon="8.186943037435412">
        <ele>907.71875</ele>
        <time>2019-08-21T13:02:50Z</time>
      </trkpt>
      <trkpt lat="59.295418001711369" lon="8.186943037435412">
        <ele>907.71875</ele>
        <time>2019-08-21T13:02:51Z</time>
      </trkpt>
      <trkpt lat="59.295418001711369" lon="8.186943037435412">
        <ele>907.71875</ele>
        <time>2019-08-21T13:02:52Z</time>
      </trkpt>
      <trkpt lat="59.295418001711369" lon="8.186943037435412">
        <ele>907.71875</ele>
        <time>2019-08-21T13:02:53Z</time>
      </trkpt>
      <trkpt lat="59.295418001711369" lon="8.186943037435412">
        <ele>907.71875</ele>
        <time>2019-08-21T13:02:54Z</time>
      </trkpt>
      <trkpt lat="59.295418001711369" lon="8.186943037435412">
        <ele>907.71875</ele>
        <time>2019-08-21T13:02:55Z</time>
      </trkpt>
      <trkpt lat="59.295419007539749" lon="8.186943959444761">
        <ele>907.71875</ele>
        <time>2019-08-21T13:02:56Z</time>
      </trkpt>
      <trkpt lat="59.295418001711369" lon="8.186943037435412">
        <ele>907.71875</ele>
        <time>2019-08-21T13:02:57Z</time>
      </trkpt>
      <trkpt lat="59.295418001711369" lon="8.186943037435412">
        <ele>907.71875</ele>
        <time>2019-08-21T13:02:58Z</time>
      </trkpt>
      <trkpt lat="59.295418001711369" lon="8.186943037435412">
        <ele>907.71875</ele>
        <time>2019-08-21T13:02:59Z</time>
      </trkpt>
      <trkpt lat="59.295416995882988" lon="8.186942031607032">
        <ele>907.71484375</ele>
        <time>2019-08-21T13:03:00Z</time>
      </trkpt>
      <trkpt lat="59.295419007539749" lon="8.186942031607032">
        <ele>907.6796875</ele>
        <time>2019-08-21T13:03:01Z</time>
      </trkpt>
      <trkpt lat="59.295419007539749" lon="8.186941025778651">
        <ele>907.6640625</ele>
        <time>2019-08-21T13:03:02Z</time>
      </trkpt>
      <trkpt lat="59.295410960912704" lon="8.186949994415045">
        <ele>907.97265625</ele>
        <time>2019-08-21T13:03:03Z</time>
      </trkpt>
      <trkpt lat="59.295387994498014" lon="8.187000034376979">
        <ele>909.21484375</ele>
        <time>2019-08-21T13:03:05Z</time>
      </trkpt>
      <trkpt lat="59.295380031690001" lon="8.187021994963288">
        <ele>909.72265625</ele>
        <time>2019-08-21T13:03:06Z</time>
      </trkpt>
      <trkpt lat="59.295373996719718" lon="8.187048984691501">
        <ele>910.28515625</ele>
        <time>2019-08-21T13:03:07Z</time>
      </trkpt>
      <trkpt lat="59.295364022254944" lon="8.187073962762952">
        <ele>910.8828125</ele>
        <time>2019-08-21T13:03:08Z</time>
      </trkpt>
      <trkpt lat="59.295355975627899" lon="8.187093995511532">
        <ele>911.37109375</ele>
        <time>2019-08-21T13:03:09Z</time>
      </trkpt>
      <trkpt lat="59.295348012819886" lon="8.187116961926222">
        <ele>911.90625</ele>
        <time>2019-08-21T13:03:10Z</time>
      </trkpt>
      <trkpt lat="59.295333009213209" lon="8.187136994674802">
        <ele>912.52734375</ele>
        <time>2019-08-21T13:03:11Z</time>
      </trkpt>
      <trkpt lat="59.295324962586164" lon="8.187158033251762">
        <ele>913.0390625</ele>
        <time>2019-08-21T13:03:12Z</time>
      </trkpt>
      <trkpt lat="59.295316999778152" lon="8.187173958867788">
        <ele>913.46484375</ele>
        <time>2019-08-21T13:03:13Z</time>
      </trkpt>
      <trkpt lat="59.29531498812139" lon="8.187206983566284">
        <ele>914.0703125</ele>
        <time>2019-08-21T13:03:14Z</time>
      </trkpt>
      <trkpt lat="59.29531498812139" lon="8.1872390024364">
        <ele>914.625</ele>
        <time>2019-08-21T13:03:15Z</time>
      </trkpt>
      <trkpt lat="59.295320017263293" lon="8.18726004101336">
        <ele>914.9140625</ele>
        <time>2019-08-21T13:03:16Z</time>
      </trkpt>
      <trkpt lat="59.295324040576816" lon="8.187284013256431">
        <ele>915.27734375</ele>
        <time>2019-08-21T13:03:17Z</time>
      </trkpt>
      <trkpt lat="59.295321023091674" lon="8.187318965792656">
        <ele>915.98046875</ele>
        <time>2019-08-21T13:03:18Z</time>
      </trkpt>
      <trkpt lat="59.295322028920054" lon="8.187352996319532">
        <ele>916.5859375</ele>
        <time>2019-08-21T13:03:19Z</time>
      </trkpt>
      <trkpt lat="59.295318005606532" lon="8.187423991039395">
        <ele>917.9765625</ele>
        <time>2019-08-21T13:03:21Z</time>
      </trkpt>
      <trkpt lat="59.295318005606532" lon="8.187450980767608">
        <ele>918.4765625</ele>
        <time>2019-08-21T13:03:22Z</time>
      </trkpt>
      <trkpt lat="59.29531498812139" lon="8.187475958839059">
        <ele>919</ele>
        <time>2019-08-21T13:03:23Z</time>
      </trkpt>
      <trkpt lat="59.295303001999855" lon="8.187509989365935">
        <ele>919.87890625</ele>
        <time>2019-08-21T13:03:24Z</time>
      </trkpt>
      <trkpt lat="59.295298978686333" lon="8.187535973265767">
        <ele>920.4140625</ele>
        <time>2019-08-21T13:03:25Z</time>
      </trkpt>
      <trkpt lat="59.2952920217067" lon="8.187559023499489">
        <ele>920.9609375</ele>
        <time>2019-08-21T13:03:26Z</time>
      </trkpt>
      <trkpt lat="59.295287998393178" lon="8.187590036541224">
        <ele>921.58984375</ele>
        <time>2019-08-21T13:03:27Z</time>
      </trkpt>
      <trkpt lat="59.295284980908036" lon="8.187611997127533">
        <ele>922.03515625</ele>
        <time>2019-08-21T13:03:28Z</time>
      </trkpt>
      <trkpt lat="59.295280035585165" lon="8.187630018219352">
        <ele>922.45703125</ele>
        <time>2019-08-21T13:03:29Z</time>
      </trkpt>
      <trkpt lat="59.295281963422894" lon="8.187656002119184">
        <ele>922.87109375</ele>
        <time>2019-08-21T13:03:30Z</time>
      </trkpt>
      <trkpt lat="59.295286992564797" lon="8.187688020989299">
        <ele>923.3203125</ele>
        <time>2019-08-21T13:03:31Z</time>
      </trkpt>
      <trkpt lat="59.29529101587832" lon="8.187715010717511">
        <ele>923.703125</ele>
        <time>2019-08-21T13:03:32Z</time>
      </trkpt>
      <trkpt lat="59.295289004221559" lon="8.187749041244388">
        <ele>924.34375</ele>
        <time>2019-08-21T13:03:33Z</time>
      </trkpt>
      <trkpt lat="59.295282969251275" lon="8.187786005437374">
        <ele>925.12109375</ele>
        <time>2019-08-21T13:03:34Z</time>
      </trkpt>
      <trkpt lat="59.295282969251275" lon="8.187808971852064">
        <ele>925.48046875</ele>
        <time>2019-08-21T13:03:35Z</time>
      </trkpt>
      <trkpt lat="59.295282969251275" lon="8.187820035964251">
        <ele>925.6484375</ele>
        <time>2019-08-21T13:03:36Z</time>
      </trkpt>
      <trkpt lat="59.295283975079656" lon="8.187843002378941">
        <ele>925.98046875</ele>
        <time>2019-08-21T13:03:37Z</time>
      </trkpt>
      <trkpt lat="59.295289004221559" lon="8.187872003763914">
        <ele>926.31640625</ele>
        <time>2019-08-21T13:03:38Z</time>
      </trkpt>
      <trkpt lat="59.2952920217067" lon="8.187888013198972">
        <ele>926.49609375</ele>
        <time>2019-08-21T13:03:39Z</time>
      </trkpt>
      <trkpt lat="59.295293027535081" lon="8.187907040119171">
        <ele>926.765625</ele>
        <time>2019-08-21T13:03:40Z</time>
      </trkpt>
      <trkpt lat="59.295280035585165" lon="8.187937969341874">
        <ele>927.52734375</ele>
        <time>2019-08-21T13:03:41Z</time>
      </trkpt>
      <trkpt lat="59.295266037806869" lon="8.187955990433693">
        <ele>928.109375</ele>
        <time>2019-08-21T13:03:42Z</time>
      </trkpt>
      <trkpt lat="59.295254973694682" lon="8.187962025403976">
        <ele>928.41796875</ele>
        <time>2019-08-21T13:03:43Z</time>
      </trkpt>
      <trkpt lat="59.295241981744766" lon="8.187975017353892">
        <ele>928.83984375</ele>
        <time>2019-08-21T13:03:44Z</time>
      </trkpt>
      <trkpt lat="59.295226978138089" lon="8.187984991818667">
        <ele>929.2578125</ele>
        <time>2019-08-21T13:03:45Z</time>
      </trkpt>
      <trkpt lat="59.295214992016554" lon="8.188002007082105">
        <ele>929.7421875</ele>
        <time>2019-08-21T13:03:46Z</time>
      </trkpt>
      <trkpt lat="59.295210968703032" lon="8.188021034002304">
        <ele>930.1171875</ele>
        <time>2019-08-21T13:03:47Z</time>
      </trkpt>
      <trkpt lat="59.295208035036922" lon="8.188053974881768">
        <ele>930.70703125</ele>
        <time>2019-08-21T13:03:48Z</time>
      </trkpt>
      <trkpt lat="59.295192025601864" lon="8.188088005408645">
        <ele>931.50390625</ele>
        <time>2019-08-21T13:03:49Z</time>
      </trkpt>
      <trkpt lat="59.295194037258625" lon="8.188114995136857">
        <ele>931.8359375</ele>
        <time>2019-08-21T13:03:50Z</time>
      </trkpt>
      <trkpt lat="59.295189008116722" lon="8.188126981258392">
        <ele>932.09375</ele>
        <time>2019-08-21T13:03:51Z</time>
      </trkpt>
      <trkpt lat="59.295180961489677" lon="8.188136033713818">
        <ele>932.375</ele>
        <time>2019-08-21T13:03:52Z</time>
      </trkpt>
      <trkpt lat="59.295166041702032" lon="8.18814299069345">
        <ele>932.7578125</ele>
        <time>2019-08-21T13:03:53Z</time>
      </trkpt>
      <trkpt lat="59.295151038095355" lon="8.188146008178592">
        <ele>933.08984375</ele>
        <time>2019-08-21T13:03:54Z</time>
      </trkpt>
      <trkpt lat="59.295138968154788" lon="8.188146008178592">
        <ele>933.32421875</ele>
        <time>2019-08-21T13:03:55Z</time>
      </trkpt>
      <trkpt lat="59.295127987861633" lon="8.188150031492114">
        <ele>933.58984375</ele>
        <time>2019-08-21T13:03:56Z</time>
      </trkpt>
      <trkpt lat="59.295118013396859" lon="8.188174003735185">
        <ele>934.12890625</ele>
        <time>2019-08-21T13:03:57Z</time>
      </trkpt>
      <trkpt lat="59.295112984254956" lon="8.188200993463397">
        <ele>934.61328125</ele>
        <time>2019-08-21T13:03:58Z</time>
      </trkpt>
      <trkpt lat="59.295113990083337" lon="8.188227983191609">
        <ele>934.98046875</ele>
        <time>2019-08-21T13:03:59Z</time>
      </trkpt>
      <trkpt lat="59.295117007568479" lon="8.188267964869738">
        <ele>935.4921875</ele>
        <time>2019-08-21T13:04:00Z</time>
      </trkpt>
      <trkpt lat="59.295117007568479" lon="8.188311969861388">
        <ele>936.12109375</ele>
        <time>2019-08-21T13:04:01Z</time>
      </trkpt>
      <trkpt lat="59.29511901922524" lon="8.188337031751871">
        <ele>936.4375</ele>
        <time>2019-08-21T13:04:02Z</time>
      </trkpt>
      <trkpt lat="59.295114995911717" lon="8.188353963196278">
        <ele>936.6796875</ele>
        <time>2019-08-21T13:04:03Z</time>
      </trkpt>
      <trkpt lat="59.295109966769814" lon="8.188384976238012">
        <ele>936.9453125</ele>
        <time>2019-08-21T13:04:04Z</time>
      </trkpt>
      <trkpt lat="59.295108960941434" lon="8.188410960137844">
        <ele>937.10546875</ele>
        <time>2019-08-21T13:04:05Z</time>
      </trkpt>
      <trkpt lat="59.295103009790182" lon="8.188429987058044">
        <ele>937.3203125</ele>
        <time>2019-08-21T13:04:06Z</time>
      </trkpt>
      <trkpt lat="59.295093035325408" lon="8.188462005928159">
        <ele>937.67578125</ele>
        <time>2019-08-21T13:04:07Z</time>
      </trkpt>
      <trkpt lat="59.295081971213222" lon="8.188495030626655">
        <ele>938.046875</ele>
        <time>2019-08-21T13:04:08Z</time>
      </trkpt>
      <trkpt lat="59.295068979263306" lon="8.188514979556203">
        <ele>938.37890625</ele>
        <time>2019-08-21T13:04:09Z</time>
      </trkpt>
      <trkpt lat="59.295061016455293" lon="8.188541969284415">
        <ele>938.64453125</ele>
        <time>2019-08-21T13:04:10Z</time>
      </trkpt>
      <trkpt lat="59.295050036162138" lon="8.188578011468053">
        <ele>938.99609375</ele>
        <time>2019-08-21T13:04:11Z</time>
      </trkpt>
      <trkpt lat="59.295044001191854" lon="8.188616987317801">
        <ele>939.265625</ele>
        <time>2019-08-21T13:04:12Z</time>
      </trkpt>
      <trkpt lat="59.295037966221571" lon="8.188656968995929">
        <ele>939.546875</ele>
        <time>2019-08-21T13:04:13Z</time>
      </trkpt>
      <trkpt lat="59.295032015070319" lon="8.188687982037664">
        <ele>939.7890625</ele>
        <time>2019-08-21T13:04:14Z</time>
      </trkpt>
      <trkpt lat="59.295027991756797" lon="8.188723018392921">
        <ele>940.01171875</ele>
        <time>2019-08-21T13:04:15Z</time>
      </trkpt>
      <trkpt lat="59.295016005635262" lon="8.18876501172781">
        <ele>940.39453125</ele>
        <time>2019-08-21T13:04:16Z</time>
      </trkpt>
      <trkpt lat="59.295008964836597" lon="8.188790995627642">
        <ele>940.625</ele>
        <time>2019-08-21T13:04:17Z</time>
      </trkpt>
      <trkpt lat="59.295007959008217" lon="8.188815973699093">
        <ele>940.75</ele>
        <time>2019-08-21T13:04:18Z</time>
      </trkpt>
      <trkpt lat="59.294995972886682" lon="8.188846986740828">
        <ele>941.078125</ele>
        <time>2019-08-21T13:04:19Z</time>
      </trkpt>
      <trkpt lat="59.294982980936766" lon="8.188869031146169">
        <ele>941.375</ele>
        <time>2019-08-21T13:04:20Z</time>
      </trkpt>
      <trkpt lat="59.294973006471992" lon="8.188887974247336">
        <ele>941.48828125</ele>
        <time>2019-08-21T13:04:21Z</time>
      </trkpt>
      <trkpt lat="59.294964037835598" lon="8.188915969803929">
        <ele>941.73828125</ele>
        <time>2019-08-21T13:04:22Z</time>
      </trkpt>
      <trkpt lat="59.294959008693695" lon="8.188945977017283">
        <ele>942.0625</ele>
        <time>2019-08-21T13:04:23Z</time>
      </trkpt>
      <trkpt lat="59.294958002865314" lon="8.18895997479558">
        <ele>942.20703125</ele>
        <time>2019-08-21T13:04:24Z</time>
      </trkpt>
      <trkpt lat="59.294953979551792" lon="8.18898000754416">
        <ele>942.4296875</ele>
        <time>2019-08-21T13:04:25Z</time>
      </trkpt>
      <trkpt lat="59.294940987601876" lon="8.18900004029274">
        <ele>942.69140625</ele>
        <time>2019-08-21T13:04:26Z</time>
      </trkpt>
      <trkpt lat="59.294935958459973" lon="8.189018983393908">
        <ele>942.9140625</ele>
        <time>2019-08-21T13:04:27Z</time>
      </trkpt>
      <trkpt lat="59.294924978166819" lon="8.189041027799249">
        <ele>943.19921875</ele>
        <time>2019-08-21T13:04:28Z</time>
      </trkpt>
      <trkpt lat="59.294912992045283" lon="8.189067011699081">
        <ele>943.53515625</ele>
        <time>2019-08-21T13:04:29Z</time>
      </trkpt>
      <trkpt lat="59.294906035065651" lon="8.189089978113771">
        <ele>943.8203125</ele>
        <time>2019-08-21T13:04:30Z</time>
      </trkpt>
      <trkpt lat="59.294908968731761" lon="8.189110010862351">
        <ele>944.01953125</ele>
        <time>2019-08-21T13:04:32Z</time>
      </trkpt>
      <trkpt lat="59.294882984831929" lon="8.189148986712098">
        <ele>944.6015625</ele>
        <time>2019-08-21T13:04:34Z</time>
      </trkpt>
      <trkpt lat="59.294874016195536" lon="8.189172958955169">
        <ele>944.92578125</ele>
        <time>2019-08-21T13:04:35Z</time>
      </trkpt>
      <trkpt lat="59.294859012588859" lon="8.189197015017271">
        <ele>945.2265625</ele>
        <time>2019-08-21T13:04:36Z</time>
      </trkpt>
      <trkpt lat="59.294849038124084" lon="8.189218975603581">
        <ele>945.4765625</ele>
        <time>2019-08-21T13:04:37Z</time>
      </trkpt>
      <trkpt lat="59.294838979840279" lon="8.189244037494063">
        <ele>945.765625</ele>
        <time>2019-08-21T13:04:38Z</time>
      </trkpt>
      <trkpt lat="59.29481802508235" lon="8.189265998080373">
        <ele>946.13671875</ele>
        <time>2019-08-21T13:04:39Z</time>
      </trkpt>
      <trkpt lat="59.294805033132434" lon="8.189285025000572">
        <ele>946.43359375</ele>
        <time>2019-08-21T13:04:40Z</time>
      </trkpt>
      <trkpt lat="59.294792041182518" lon="8.189305979758501">
        <ele>946.76171875</ele>
        <time>2019-08-21T13:04:41Z</time>
      </trkpt>
      <trkpt lat="59.29477502591908" lon="8.189321989193559">
        <ele>947.09375</ele>
        <time>2019-08-21T13:04:42Z</time>
      </trkpt>
      <trkpt lat="59.2947549931705" lon="8.189340010285378">
        <ele>947.5</ele>
        <time>2019-08-21T13:04:43Z</time>
      </trkpt>
      <trkpt lat="59.2947359662503" lon="8.18936800584197">
        <ele>948.02734375</ele>
        <time>2019-08-21T13:04:44Z</time>
      </trkpt>
      <trkpt lat="59.294724985957146" lon="8.189399018883705">
        <ele>948.515625</ele>
        <time>2019-08-21T13:04:45Z</time>
      </trkpt>
      <trkpt lat="59.294722974300385" lon="8.18940999917686">
        <ele>948.66796875</ele>
        <time>2019-08-21T13:04:46Z</time>
      </trkpt>
      <trkpt lat="59.294705037027597" lon="8.189461966976523">
        <ele>949.515625</ele>
        <time>2019-08-21T13:04:48Z</time>
      </trkpt>
      <trkpt lat="59.29469196125865" lon="8.189478982239962">
        <ele>949.77734375</ele>
        <time>2019-08-21T13:04:49Z</time>
      </trkpt>
      <trkpt lat="59.294679975137115" lon="8.189501026645303">
        <ele>950.09765625</ele>
        <time>2019-08-21T13:04:50Z</time>
      </trkpt>
      <trkpt lat="59.294666983187199" lon="8.189521981403232">
        <ele>950.4140625</ele>
        <time>2019-08-21T13:04:51Z</time>
      </trkpt>
      <trkpt lat="59.294648040086031" lon="8.189537990838289">
        <ele>950.71875</ele>
        <time>2019-08-21T13:04:52Z</time>
      </trkpt>
      <trkpt lat="59.29462599568069" lon="8.18956296890974">
        <ele>951.16015625</ele>
        <time>2019-08-21T13:04:53Z</time>
      </trkpt>
      <trkpt lat="59.294616021215916" lon="8.189580990001559">
        <ele>951.4453125</ele>
        <time>2019-08-21T13:04:54Z</time>
      </trkpt>
      <trkpt lat="59.294594982638955" lon="8.189629018306732">
        <ele>952.18359375</ele>
        <time>2019-08-21T13:04:56Z</time>
      </trkpt>
      <trkpt lat="59.294578973203897" lon="8.189651984721422">
        <ele>952.58984375</ele>
        <time>2019-08-21T13:04:57Z</time>
      </trkpt>
      <trkpt lat="59.294567992910743" lon="8.189682997763157">
        <ele>953.0703125</ele>
        <time>2019-08-21T13:04:58Z</time>
      </trkpt>
      <trkpt lat="59.294559024274349" lon="8.189719039946795">
        <ele>953.6015625</ele>
        <time>2019-08-21T13:04:59Z</time>
      </trkpt>
      <trkpt lat="59.294549971818924" lon="8.189747035503388">
        <ele>954.015625</ele>
        <time>2019-08-21T13:05:00Z</time>
      </trkpt>
      <trkpt lat="59.294538991525769" lon="8.189779976382852">
        <ele>954.48828125</ele>
        <time>2019-08-21T13:05:01Z</time>
      </trkpt>
      <trkpt lat="59.294521976262331" lon="8.189808977767825">
        <ele>954.9921875</ele>
        <time>2019-08-21T13:05:02Z</time>
      </trkpt>
      <trkpt lat="59.294504960998893" lon="8.189831022173166">
        <ele>955.42578125</ele>
        <time>2019-08-21T13:05:03Z</time>
      </trkpt>
      <trkpt lat="59.294490963220596" lon="8.189859017729759">
        <ele>955.91015625</ele>
        <time>2019-08-21T13:05:04Z</time>
      </trkpt>
      <trkpt lat="59.294479982927442" lon="8.189889024943113">
        <ele>956.3984375</ele>
        <time>2019-08-21T13:05:05Z</time>
      </trkpt>
      <trkpt lat="59.29447503760457" lon="8.1899259891361">
        <ele>956.9140625</ele>
        <time>2019-08-21T13:05:06Z</time>
      </trkpt>
      <trkpt lat="59.294466990977526" lon="8.189967982470989">
        <ele>957.5390625</ele>
        <time>2019-08-21T13:05:07Z</time>
      </trkpt>
      <trkpt lat="59.294456010684371" lon="8.189998995512724">
        <ele>958.0703125</ele>
        <time>2019-08-21T13:05:08Z</time>
      </trkpt>
      <trkpt lat="59.294446036219597" lon="8.19003202021122">
        <ele>958.5078125</ele>
        <time>2019-08-21T13:05:09Z</time>
      </trkpt>
      <trkpt lat="59.29443396627903" lon="8.190063033252955">
        <ele>958.90625</ele>
        <time>2019-08-21T13:05:10Z</time>
      </trkpt>
      <trkpt lat="59.294416029006243" lon="8.190088011324406">
        <ele>959.1640625</ele>
        <time>2019-08-21T13:05:11Z</time>
      </trkpt>
      <trkpt lat="59.294402031227946" lon="8.19011902436614">
        <ele>959.39453125</ele>
        <time>2019-08-21T13:05:12Z</time>
      </trkpt>
      <trkpt lat="59.294393984600902" lon="8.190139979124069">
        <ele>959.5546875</ele>
        <time>2019-08-21T13:05:13Z</time>
      </trkpt>
      <trkpt lat="59.294381998479366" lon="8.190196976065636">
        <ele>960.015625</ele>
        <time>2019-08-21T13:05:15Z</time>
      </trkpt>
      <trkpt lat="59.294372024014592" lon="8.19022698327899">
        <ele>960.265625</ele>
        <time>2019-08-21T13:05:16Z</time>
      </trkpt>
      <trkpt lat="59.294364983215928" lon="8.190255984663963">
        <ele>960.515625</ele>
        <time>2019-08-21T13:05:17Z</time>
      </trkpt>
      <trkpt lat="59.294352997094393" lon="8.190283980220556">
        <ele>960.76171875</ele>
        <time>2019-08-21T13:05:18Z</time>
      </trkpt>
      <trkpt lat="59.29434897378087" lon="8.19031298160553">
        <ele>960.85546875</ele>
        <time>2019-08-21T13:05:19Z</time>
      </trkpt>
      <trkpt lat="59.29434897378087" lon="8.190336031839252">
        <ele>960.90234375</ele>
        <time>2019-08-21T13:05:20Z</time>
      </trkpt>
      <trkpt lat="59.294343022629619" lon="8.190364027395845">
        <ele>960.97265625</ele>
        <time>2019-08-21T13:05:21Z</time>
      </trkpt>
      <trkpt lat="59.294336987659335" lon="8.190384982153773">
        <ele>961.0234375</ele>
        <time>2019-08-21T13:05:22Z</time>
      </trkpt>
      <trkpt lat="59.294333970174193" lon="8.190411971881986">
        <ele>961.0859375</ele>
        <time>2019-08-21T13:05:23Z</time>
      </trkpt>
      <trkpt lat="59.2943250015378" lon="8.190449019894004">
        <ele>961.1796875</ele>
        <time>2019-08-21T13:05:24Z</time>
      </trkpt>
      <trkpt lat="59.294319972395897" lon="8.190470980480313">
        <ele>961.23046875</ele>
        <time>2019-08-21T13:05:25Z</time>
      </trkpt>
      <trkpt lat="59.294312009587884" lon="8.190479027107358">
        <ele>961.2578125</ele>
        <time>2019-08-21T13:05:26Z</time>
      </trkpt>
      <trkpt lat="59.294298011809587" lon="8.190521020442247">
        <ele>961.3671875</ele>
        <time>2019-08-21T13:05:28Z</time>
      </trkpt>
      <trkpt lat="59.294300023466349" lon="8.190524959936738">
        <ele>961.37109375</ele>
        <time>2019-08-21T13:05:29Z</time>
      </trkpt>
      <trkpt lat="59.294308992102742" lon="8.190580029040575">
        <ele>961.51171875</ele>
        <time>2019-08-21T13:05:31Z</time>
      </trkpt>
      <trkpt lat="59.294309997931123" lon="8.190610036253929">
        <ele>961.6328125</ele>
        <time>2019-08-21T13:05:32Z</time>
      </trkpt>
      <trkpt lat="59.2943059746176" lon="8.190627973526716">
        <ele>961.71484375</ele>
        <time>2019-08-21T13:05:33Z</time>
      </trkpt>
      <trkpt lat="59.294270016252995" lon="8.190640965476632">
        <ele>961.84765625</ele>
        <time>2019-08-21T13:05:35Z</time>
      </trkpt>
      <trkpt lat="59.294256018474698" lon="8.190651023760438">
        <ele>961.9296875</ele>
        <time>2019-08-21T13:05:36Z</time>
      </trkpt>
      <trkpt lat="59.294250989332795" lon="8.190662004053593">
        <ele>962</ele>
        <time>2019-08-21T13:05:37Z</time>
      </trkpt>
      <trkpt lat="59.294257024303079" lon="8.190726041793823">
        <ele>962.296875</ele>
        <time>2019-08-21T13:05:39Z</time>
      </trkpt>
      <trkpt lat="59.29425903595984" lon="8.190755965188146">
        <ele>962.43359375</ele>
        <time>2019-08-21T13:05:40Z</time>
      </trkpt>
      <trkpt lat="59.29426196962595" lon="8.190781027078629">
        <ele>962.54296875</ele>
        <time>2019-08-21T13:05:41Z</time>
      </trkpt>
      <trkpt lat="59.294254006817937" lon="8.190810028463602">
        <ele>962.72265625</ele>
        <time>2019-08-21T13:05:42Z</time>
      </trkpt>
      <trkpt lat="59.294254006817937" lon="8.190827965736389">
        <ele>962.8125</ele>
        <time>2019-08-21T13:05:43Z</time>
      </trkpt>
      <trkpt lat="59.294260963797569" lon="8.190841041505337">
        <ele>962.8359375</ele>
        <time>2019-08-21T13:05:44Z</time>
      </trkpt>
      <trkpt lat="59.29426297545433" lon="8.19087197072804">
        <ele>963.13671875</ele>
        <time>2019-08-21T13:05:45Z</time>
      </trkpt>
      <trkpt lat="59.294266998767853" lon="8.190894015133381">
        <ele>963.33203125</ele>
        <time>2019-08-21T13:05:46Z</time>
      </trkpt>
      <trkpt lat="59.294266998767853" lon="8.190903989598155">
        <ele>963.43359375</ele>
        <time>2019-08-21T13:05:47Z</time>
      </trkpt>
      <trkpt lat="59.294274961575866" lon="8.190922010689974">
        <ele>963.55078125</ele>
        <time>2019-08-21T13:05:48Z</time>
      </trkpt>
      <trkpt lat="59.294280996546149" lon="8.190947994589806">
        <ele>963.75</ele>
        <time>2019-08-21T13:05:49Z</time>
      </trkpt>
      <trkpt lat="59.29428200237453" lon="8.190966015681624">
        <ele>963.9140625</ele>
        <time>2019-08-21T13:05:50Z</time>
      </trkpt>
      <trkpt lat="59.294285019859672" lon="8.190981019288302">
        <ele>964.0234375</ele>
        <time>2019-08-21T13:05:51Z</time>
      </trkpt>
      <trkpt lat="59.294288037344813" lon="8.19100197404623">
        <ele>964.19140625</ele>
        <time>2019-08-21T13:05:52Z</time>
      </trkpt>
      <trkpt lat="59.294292982667685" lon="8.191033992916346">
        <ele>964.4296875</ele>
        <time>2019-08-21T13:05:53Z</time>
      </trkpt>
      <trkpt lat="59.294297005981207" lon="8.191062994301319">
        <ele>964.64453125</ele>
        <time>2019-08-21T13:05:54Z</time>
      </trkpt>
      <trkpt lat="59.294298011809587" lon="8.191071040928364">
        <ele>964.703125</ele>
        <time>2019-08-21T13:05:55Z</time>
      </trkpt>
      <trkpt lat="59.294293988496065" lon="8.191083027049899">
        <ele>964.8671875</ele>
        <time>2019-08-21T13:05:56Z</time>
      </trkpt>
      <trkpt lat="59.294276973232627" lon="8.191113034263253">
        <ele>965.3984375</ele>
        <time>2019-08-21T13:05:58Z</time>
      </trkpt>
      <trkpt lat="59.294273033738136" lon="8.191126026213169">
        <ele>965.6171875</ele>
        <time>2019-08-21T13:05:59Z</time>
      </trkpt>
      <trkpt lat="59.294271022081375" lon="8.19114999845624">
        <ele>966.0234375</ele>
        <time>2019-08-21T13:06:00Z</time>
      </trkpt>
      <trkpt lat="59.294264987111092" lon="8.191174976527691">
        <ele>966.5234375</ele>
        <time>2019-08-21T13:06:01Z</time>
      </trkpt>
      <trkpt lat="59.294258030131459" lon="8.191202972084284">
        <ele>967.09765625</ele>
        <time>2019-08-21T13:06:02Z</time>
      </trkpt>
      <trkpt lat="59.294246966019273" lon="8.191226022318006">
        <ele>967.69140625</ele>
        <time>2019-08-21T13:06:03Z</time>
      </trkpt>
      <trkpt lat="59.294244032353163" lon="8.191245971247554">
        <ele>968.0859375</ele>
        <time>2019-08-21T13:06:04Z</time>
      </trkpt>
      <trkpt lat="59.294246966019273" lon="8.191258041188121">
        <ele>968.2265625</ele>
        <time>2019-08-21T13:06:05Z</time>
      </trkpt>
      <trkpt lat="59.294254006817937" lon="8.191261980682612">
        <ele>968.140625</ele>
        <time>2019-08-21T13:06:06Z</time>
      </trkpt>
      <trkpt lat="59.294270016252995" lon="8.191301040351391">
        <ele>968.40625</ele>
        <time>2019-08-21T13:06:08Z</time>
      </trkpt>
      <trkpt lat="59.294272027909756" lon="8.191331969574094">
        <ele>968.83984375</ele>
        <time>2019-08-21T13:06:09Z</time>
      </trkpt>
      <trkpt lat="59.294275967404246" lon="8.191358037292957">
        <ele>969.14453125</ele>
        <time>2019-08-21T13:06:10Z</time>
      </trkpt>
      <trkpt lat="59.294274039566517" lon="8.191382009536028">
        <ele>969.56640625</ele>
        <time>2019-08-21T13:06:11Z</time>
      </trkpt>
      <trkpt lat="59.294273033738136" lon="8.191404975950718">
        <ele>969.9453125</ele>
        <time>2019-08-21T13:06:12Z</time>
      </trkpt>
      <trkpt lat="59.294274961575866" lon="8.191434983164072">
        <ele>970.3359375</ele>
        <time>2019-08-21T13:06:13Z</time>
      </trkpt>
      <trkpt lat="59.294279990717769" lon="8.191465996205807">
        <ele>970.64453125</ele>
        <time>2019-08-21T13:06:14Z</time>
      </trkpt>
      <trkpt lat="59.29428200237453" lon="8.191482005640864">
        <ele>970.81640625</ele>
        <time>2019-08-21T13:06:15Z</time>
      </trkpt>
      <trkpt lat="59.294278984889388" lon="8.191476976498961">
        <ele>970.8359375</ele>
        <time>2019-08-21T13:06:16Z</time>
      </trkpt>
      <trkpt lat="59.294274961575866" lon="8.191477982327342">
        <ele>970.9765625</ele>
        <time>2019-08-21T13:06:17Z</time>
      </trkpt>
      <trkpt lat="59.294265992939472" lon="8.191498015075922">
        <ele>971.5546875</ele>
        <time>2019-08-21T13:06:18Z</time>
      </trkpt>
      <trkpt lat="59.294254006817937" lon="8.191518969833851">
        <ele>972.2578125</ele>
        <time>2019-08-21T13:06:19Z</time>
      </trkpt>
      <trkpt lat="59.294228022918105" lon="8.191529028117657">
        <ele>973.26171875</ele>
        <time>2019-08-21T13:06:21Z</time>
      </trkpt>
      <trkpt lat="59.29421603679657" lon="8.19153699092567">
        <ele>973.79296875</ele>
        <time>2019-08-21T13:06:22Z</time>
      </trkpt>
      <trkpt lat="59.294206984341145" lon="8.191554006189108">
        <ele>974.38671875</ele>
        <time>2019-08-21T13:06:23Z</time>
      </trkpt>
      <trkpt lat="59.294202961027622" lon="8.191566998139024">
        <ele>974.75390625</ele>
        <time>2019-08-21T13:06:24Z</time>
      </trkpt>
      <trkpt lat="59.294202039018273" lon="8.191574960947037">
        <ele>974.92578125</ele>
        <time>2019-08-21T13:06:25Z</time>
      </trkpt>
      <trkpt lat="59.294203966856003" lon="8.191625000908971">
        <ele>975.7421875</ele>
        <time>2019-08-21T13:06:27Z</time>
      </trkpt>
      <trkpt lat="59.294199021533132" lon="8.191661965101957">
        <ele>976.58203125</ele>
        <time>2019-08-21T13:06:28Z</time>
      </trkpt>
      <trkpt lat="59.294188963249326" lon="8.191688032820821">
        <ele>977.44921875</ele>
        <time>2019-08-21T13:06:29Z</time>
      </trkpt>
      <trkpt lat="59.294182006269693" lon="8.191705970093608">
        <ele>978.0625</ele>
        <time>2019-08-21T13:06:30Z</time>
      </trkpt>
      <trkpt lat="59.294178988784552" lon="8.191727008670569">
        <ele>978.5859375</ele>
        <time>2019-08-21T13:06:31Z</time>
      </trkpt>
      <trkpt lat="59.2941730376333" lon="8.191742012277246">
        <ele>979.11328125</ele>
        <time>2019-08-21T13:06:32Z</time>
      </trkpt>
      <trkpt lat="59.294164991006255" lon="8.19175198674202">
        <ele>979.625</ele>
        <time>2019-08-21T13:06:33Z</time>
      </trkpt>
      <trkpt lat="59.29415300488472" lon="8.191764978691936">
        <ele>980.35546875</ele>
        <time>2019-08-21T13:06:34Z</time>
      </trkpt>
      <trkpt lat="59.294134983792901" lon="8.191767996177077">
        <ele>980.88671875</ele>
        <time>2019-08-21T13:06:35Z</time>
      </trkpt>
      <trkpt lat="59.294121991842985" lon="8.191767996177077">
        <ele>981.1953125</ele>
        <time>2019-08-21T13:06:36Z</time>
      </trkpt>
      <trkpt lat="59.294114029034972" lon="8.191769002005458">
        <ele>981.40625</ele>
        <time>2019-08-21T13:06:37Z</time>
      </trkpt>
      <trkpt lat="59.29411000572145" lon="8.191775036975741">
        <ele>981.62890625</ele>
        <time>2019-08-21T13:06:38Z</time>
      </trkpt>
      <trkpt lat="59.294108999893069" lon="8.191791968420148">
        <ele>982.0078125</ele>
        <time>2019-08-21T13:06:39Z</time>
      </trkpt>
      <trkpt lat="59.294113023206592" lon="8.191834967583418">
        <ele>982.8125</ele>
        <time>2019-08-21T13:06:41Z</time>
      </trkpt>
      <trkpt lat="59.294103970751166" lon="8.191862963140011">
        <ele>983.640625</ele>
        <time>2019-08-21T13:06:42Z</time>
      </trkpt>
      <trkpt lat="59.29409097880125" lon="8.191885007545352">
        <ele>984.46484375</ele>
        <time>2019-08-21T13:06:43Z</time>
      </trkpt>
      <trkpt lat="59.294082010164857" lon="8.191903028637171">
        <ele>985.10546875</ele>
        <time>2019-08-21T13:06:44Z</time>
      </trkpt>
      <trkpt lat="59.294076981022954" lon="8.191922977566719">
        <ele>985.6875</ele>
        <time>2019-08-21T13:06:45Z</time>
      </trkpt>
      <trkpt lat="59.294074969366193" lon="8.191919960081577">
        <ele>985.6796875</ele>
        <time>2019-08-21T13:06:46Z</time>
      </trkpt>
      <trkpt lat="59.294076981022954" lon="8.191919038072228">
        <ele>985.6015625</ele>
        <time>2019-08-21T13:06:47Z</time>
      </trkpt>
      <trkpt lat="59.294083015993237" lon="8.191921971738339">
        <ele>985.4921875</ele>
        <time>2019-08-21T13:06:48Z</time>
      </trkpt>
      <trkpt lat="59.294088967144489" lon="8.191932030022144">
        <ele>985.5390625</ele>
        <time>2019-08-21T13:06:49Z</time>
      </trkpt>
      <trkpt lat="59.294087961316109" lon="8.191952984780073">
        <ele>986.0234375</ele>
        <time>2019-08-21T13:06:50Z</time>
      </trkpt>
      <trkpt lat="59.294075975194573" lon="8.191972011700273">
        <ele>986.81640625</ele>
        <time>2019-08-21T13:06:51Z</time>
      </trkpt>
      <trkpt lat="59.294050997123122" lon="8.191978968679905">
        <ele>987.734375</ele>
        <time>2019-08-21T13:06:53Z</time>
      </trkpt>
      <trkpt lat="59.294049991294742" lon="8.191992966458201">
        <ele>988.09375</ele>
        <time>2019-08-21T13:06:54Z</time>
      </trkpt>
      <trkpt lat="59.294054014608264" lon="8.191992966458201">
        <ele>987.97265625</ele>
        <time>2019-08-21T13:06:55Z</time>
      </trkpt>
      <trkpt lat="59.294058037921786" lon="8.191991038620472">
        <ele>987.8046875</ele>
        <time>2019-08-21T13:06:56Z</time>
      </trkpt>
      <trkpt lat="59.294058959931135" lon="8.191994978114963">
        <ele>987.8671875</ele>
        <time>2019-08-21T13:06:57Z</time>
      </trkpt>
      <trkpt lat="59.294059965759516" lon="8.19201098755002">
        <ele>988.2109375</ele>
        <time>2019-08-21T13:06:58Z</time>
      </trkpt>
      <trkpt lat="59.294062983244658" lon="8.192020962014794">
        <ele>988.34765625</ele>
        <time>2019-08-21T13:06:59Z</time>
      </trkpt>
      <trkpt lat="59.294060971587896" lon="8.192032026126981">
        <ele>988.66796875</ele>
        <time>2019-08-21T13:07:00Z</time>
      </trkpt>
      <trkpt lat="59.294055020436645" lon="8.192036971449852">
        <ele>988.9765625</ele>
        <time>2019-08-21T13:07:01Z</time>
      </trkpt>
      <trkpt lat="59.294044962152839" lon="8.192042000591755">
        <ele>989.41796875</ele>
        <time>2019-08-21T13:07:02Z</time>
      </trkpt>
      <trkpt lat="59.294039011001587" lon="8.192051975056529">
        <ele>989.84765625</ele>
        <time>2019-08-21T13:07:03Z</time>
      </trkpt>
      <trkpt lat="59.294030964374542" lon="8.192066978663206">
        <ele>990.46875</ele>
        <time>2019-08-21T13:07:04Z</time>
      </trkpt>
      <trkpt lat="59.294030964374542" lon="8.192079970613122">
        <ele>990.78515625</ele>
        <time>2019-08-21T13:07:05Z</time>
      </trkpt>
      <trkpt lat="59.294030964374542" lon="8.192110983654857">
        <ele>991.53125</ele>
        <time>2019-08-21T13:07:07Z</time>
      </trkpt>
      <trkpt lat="59.294029036536813" lon="8.192125987261534">
        <ele>991.9609375</ele>
        <time>2019-08-21T13:07:08Z</time>
      </trkpt>
      <trkpt lat="59.294031970202923" lon="8.192143002524972">
        <ele>992.2734375</ele>
        <time>2019-08-21T13:07:09Z</time>
      </trkpt>
      <trkpt lat="59.294043034315109" lon="8.192165968939662">
        <ele>992.43359375</ele>
        <time>2019-08-21T13:07:10Z</time>
      </trkpt>
      <trkpt lat="59.294050997123122" lon="8.192192036658526">
        <ele>992.765625</ele>
        <time>2019-08-21T13:07:11Z</time>
      </trkpt>
      <trkpt lat="59.294053008779883" lon="8.192207962274551">
        <ele>993.06640625</ele>
        <time>2019-08-21T13:07:12Z</time>
      </trkpt>
      <trkpt lat="59.294053008779883" lon="8.192221960052848">
        <ele>993.3984375</ele>
        <time>2019-08-21T13:07:13Z</time>
      </trkpt>
      <trkpt lat="59.294050997123122" lon="8.192233024165034">
        <ele>993.71875</ele>
        <time>2019-08-21T13:07:14Z</time>
      </trkpt>
      <trkpt lat="59.294053008779883" lon="8.192239981144667">
        <ele>993.76171875</ele>
        <time>2019-08-21T13:07:15Z</time>
      </trkpt>
      <trkpt lat="59.294056026265025" lon="8.192252973094583">
        <ele>993.8671875</ele>
        <time>2019-08-21T13:07:16Z</time>
      </trkpt>
      <trkpt lat="59.294058037921786" lon="8.192269988358021">
        <ele>994.078125</ele>
        <time>2019-08-21T13:07:17Z</time>
      </trkpt>
      <trkpt lat="59.294056026265025" lon="8.192290021106601">
        <ele>994.4921875</ele>
        <time>2019-08-21T13:07:18Z</time>
      </trkpt>
      <trkpt lat="59.294049991294742" lon="8.192307958379388">
        <ele>995.03515625</ele>
        <time>2019-08-21T13:07:19Z</time>
      </trkpt>
      <trkpt lat="59.294049991294742" lon="8.192321034148336">
        <ele>995.2578125</ele>
        <time>2019-08-21T13:07:20Z</time>
      </trkpt>
      <trkpt lat="59.294048985466361" lon="8.192328996956348">
        <ele>995.43359375</ele>
        <time>2019-08-21T13:07:21Z</time>
      </trkpt>
      <trkpt lat="59.294029958546162" lon="8.192347018048167">
        <ele>996.51171875</ele>
        <time>2019-08-21T13:07:23Z</time>
      </trkpt>
      <trkpt lat="59.294029958546162" lon="8.192356992512941">
        <ele>996.6875</ele>
        <time>2019-08-21T13:07:24Z</time>
      </trkpt>
      <trkpt lat="59.294028030708432" lon="8.192368978634477">
        <ele>996.9765625</ele>
        <time>2019-08-21T13:07:25Z</time>
      </trkpt>
      <trkpt lat="59.294026019051671" lon="8.192383982241154">
        <ele>997.32421875</ele>
        <time>2019-08-21T13:07:26Z</time>
      </trkpt>
      <trkpt lat="59.29402400739491" lon="8.192399991676211">
        <ele>997.6953125</ele>
        <time>2019-08-21T13:07:27Z</time>
      </trkpt>
      <trkpt lat="59.294021995738149" lon="8.192413989454508">
        <ele>998.02734375</ele>
        <time>2019-08-21T13:07:28Z</time>
      </trkpt>
      <trkpt lat="59.29402400739491" lon="8.192426981404424">
        <ele>998.171875</ele>
        <time>2019-08-21T13:07:29Z</time>
      </trkpt>
      <trkpt lat="59.294029036536813" lon="8.192489007487893">
        <ele>999.05078125</ele>
        <time>2019-08-21T13:07:31Z</time>
      </trkpt>
      <trkpt lat="59.294026019051671" lon="8.192514991387725">
        <ele>999.62109375</ele>
        <time>2019-08-21T13:07:32Z</time>
      </trkpt>
      <trkpt lat="59.294016966596246" lon="8.192556984722614">
        <ele>1000.625</ele>
        <time>2019-08-21T13:07:34Z</time>
      </trkpt>
      <trkpt lat="59.294018978253007" lon="8.19259000942111">
        <ele>1001</ele>
        <time>2019-08-21T13:07:35Z</time>
      </trkpt>
      <trkpt lat="59.294018978253007" lon="8.192626973614097">
        <ele>1001.5234375</ele>
        <time>2019-08-21T13:07:36Z</time>
      </trkpt>
      <trkpt lat="59.294016966596246" lon="8.19265597499907">
        <ele>1002.03125</ele>
        <time>2019-08-21T13:07:37Z</time>
      </trkpt>
      <trkpt lat="59.294010009616613" lon="8.192682964727283">
        <ele>1002.74609375</ele>
        <time>2019-08-21T13:07:38Z</time>
      </trkpt>
      <trkpt lat="59.294005986303091" lon="8.192705009132624">
        <ele>1003.25390625</ele>
        <time>2019-08-21T13:07:39Z</time>
      </trkpt>
      <trkpt lat="59.29400104098022" lon="8.192724036052823">
        <ele>1003.76953125</ele>
        <time>2019-08-21T13:07:40Z</time>
      </trkpt>
      <trkpt lat="59.293992994353175" lon="8.19273803383112">
        <ele>1004.36328125</ele>
        <time>2019-08-21T13:07:41Z</time>
      </trkpt>
      <trkpt lat="59.293985031545162" lon="8.192753959447146">
        <ele>1004.984375</ele>
        <time>2019-08-21T13:07:42Z</time>
      </trkpt>
      <trkpt lat="59.293978996574879" lon="8.192770974710584">
        <ele>1005.53125</ele>
        <time>2019-08-21T13:07:43Z</time>
      </trkpt>
      <trkpt lat="59.293972961604595" lon="8.192790001630783">
        <ele>1006.08984375</ele>
        <time>2019-08-21T13:07:44Z</time>
      </trkpt>
      <trkpt lat="59.293963992968202" lon="8.192800981923938">
        <ele>1006.63671875</ele>
        <time>2019-08-21T13:07:45Z</time>
      </trkpt>
      <trkpt lat="59.293952006846666" lon="8.192802993580699">
        <ele>1007.25</ele>
        <time>2019-08-21T13:07:46Z</time>
      </trkpt>
      <trkpt lat="59.293927028775215" lon="8.19278103299439">
        <ele>1008.2421875</ele>
        <time>2019-08-21T13:07:48Z</time>
      </trkpt>
      <trkpt lat="59.29391898214817" lon="8.192777009680867">
        <ele>1008.57421875</ele>
        <time>2019-08-21T13:07:49Z</time>
      </trkpt>
      <trkpt lat="59.293910013511777" lon="8.192779021337628">
        <ele>1009.05078125</ele>
        <time>2019-08-21T13:07:50Z</time>
      </trkpt>
      <trkpt lat="59.293901966884732" lon="8.19278103299439">
        <ele>1009.48046875</ele>
        <time>2019-08-21T13:07:51Z</time>
      </trkpt>
      <trkpt lat="59.2938950099051" lon="8.192788995802403">
        <ele>1009.9296875</ele>
        <time>2019-08-21T13:07:52Z</time>
      </trkpt>
      <trkpt lat="59.293888974934816" lon="8.192792013287544">
        <ele>1010.2578125</ele>
        <time>2019-08-21T13:07:53Z</time>
      </trkpt>
      <trkpt lat="59.293882017955184" lon="8.192799976095557">
        <ele>1010.68359375</ele>
        <time>2019-08-21T13:07:54Z</time>
      </trkpt>
      <trkpt lat="59.2938759829849" lon="8.192811040207744">
        <ele>1011.08984375</ele>
        <time>2019-08-21T13:07:55Z</time>
      </trkpt>
      <trkpt lat="59.293869026005268" lon="8.192819003015757">
        <ele>1011.3359375</ele>
        <time>2019-08-21T13:07:56Z</time>
      </trkpt>
      <trkpt lat="59.293861985206604" lon="8.192828977480531">
        <ele>1011.44921875</ele>
        <time>2019-08-21T13:07:57Z</time>
      </trkpt>
      <trkpt lat="59.293846981599927" lon="8.192859990522265">
        <ele>1011.80078125</ele>
        <time>2019-08-21T13:07:59Z</time>
      </trkpt>
      <trkpt lat="59.293838012963533" lon="8.192874994128943">
        <ele>1011.98046875</ele>
        <time>2019-08-21T13:08:00Z</time>
      </trkpt>
      <trkpt lat="59.293828038498759" lon="8.192882034927607">
        <ele>1012.0859375</ele>
        <time>2019-08-21T13:08:01Z</time>
      </trkpt>
      <trkpt lat="59.293816974386573" lon="8.192883040755987">
        <ele>1012.12890625</ele>
        <time>2019-08-21T13:08:02Z</time>
      </trkpt>
      <trkpt lat="59.293808005750179" lon="8.192879017442465">
        <ele>1012.11328125</ele>
        <time>2019-08-21T13:08:03Z</time>
      </trkpt>
      <trkpt lat="59.293797025457025" lon="8.192879017442465">
        <ele>1012.14453125</ele>
        <time>2019-08-21T13:08:04Z</time>
      </trkpt>
      <trkpt lat="59.293785961344838" lon="8.192875999957323">
        <ele>1012.14453125</ele>
        <time>2019-08-21T13:08:05Z</time>
      </trkpt>
      <trkpt lat="59.293774981051683" lon="8.192871976643801">
        <ele>1012.125</ele>
        <time>2019-08-21T13:08:06Z</time>
      </trkpt>
      <trkpt lat="59.293762994930148" lon="8.192868959158659">
        <ele>1012.125</ele>
        <time>2019-08-21T13:08:07Z</time>
      </trkpt>
      <trkpt lat="59.293751008808613" lon="8.19286803714931">
        <ele>1012.14453125</ele>
        <time>2019-08-21T13:08:08Z</time>
      </trkpt>
      <trkpt lat="59.293742962181568" lon="8.192866025492549">
        <ele>1012.140625</ele>
        <time>2019-08-21T13:08:09Z</time>
      </trkpt>
      <trkpt lat="59.293738016858697" lon="8.192866025492549">
        <ele>1012.15625</ele>
        <time>2019-08-21T13:08:10Z</time>
      </trkpt>
      <trkpt lat="59.293730976060033" lon="8.19287097081542">
        <ele>1012.23828125</ele>
        <time>2019-08-21T13:08:11Z</time>
      </trkpt>
      <trkpt lat="59.293718989938498" lon="8.192879017442465">
        <ele>1012.375</ele>
        <time>2019-08-21T13:08:12Z</time>
      </trkpt>
      <trkpt lat="59.293713038787246" lon="8.192885974422097">
        <ele>1012.484375</ele>
        <time>2019-08-21T13:08:13Z</time>
      </trkpt>
      <trkpt lat="59.293711027130485" lon="8.192898966372013">
        <ele>1012.66015625</ele>
        <time>2019-08-21T13:08:14Z</time>
      </trkpt>
      <trkpt lat="59.293707003816962" lon="8.192911958321929">
        <ele>1012.84375</ele>
        <time>2019-08-21T13:08:15Z</time>
      </trkpt>
      <trkpt lat="59.293695017695427" lon="8.192914975807071">
        <ele>1012.92578125</ele>
        <time>2019-08-21T13:08:16Z</time>
      </trkpt>
      <trkpt lat="59.293686971068382" lon="8.192928973585367">
        <ele>1013.14453125</ele>
        <time>2019-08-21T13:08:17Z</time>
      </trkpt>
      <trkpt lat="59.293679008260369" lon="8.192972978577018">
        <ele>1013.78125</ele>
        <time>2019-08-21T13:08:19Z</time>
      </trkpt>
      <trkpt lat="59.293672973290086" lon="8.192993011325598">
        <ele>1014.0859375</ele>
        <time>2019-08-21T13:08:20Z</time>
      </trkpt>
      <trkpt lat="59.293667022138834" lon="8.193010026589036">
        <ele>1014.35546875</ele>
        <time>2019-08-21T13:08:21Z</time>
      </trkpt>
      <trkpt lat="59.293661992996931" lon="8.193030981346965">
        <ele>1014.67578125</ele>
        <time>2019-08-21T13:08:22Z</time>
      </trkpt>
      <trkpt lat="59.293653024360538" lon="8.193046990782023">
        <ele>1014.95703125</ele>
        <time>2019-08-21T13:08:23Z</time>
      </trkpt>
      <trkpt lat="59.293641960248351" lon="8.193059982731938">
        <ele>1015.21484375</ele>
        <time>2019-08-21T13:08:24Z</time>
      </trkpt>
      <trkpt lat="59.293636009097099" lon="8.193073980510235">
        <ele>1015.421875</ele>
        <time>2019-08-21T13:08:25Z</time>
      </trkpt>
      <trkpt lat="59.293628968298435" lon="8.193093007430434">
        <ele>1015.69140625</ele>
        <time>2019-08-21T13:08:26Z</time>
      </trkpt>
      <trkpt lat="59.293623017147183" lon="8.193108011037111">
        <ele>1015.90625</ele>
        <time>2019-08-21T13:08:27Z</time>
      </trkpt>
      <trkpt lat="59.293614970520139" lon="8.193114968016744">
        <ele>1016.046875</ele>
        <time>2019-08-21T13:08:28Z</time>
      </trkpt>
      <trkpt lat="59.293610025197268" lon="8.193122008815408">
        <ele>1016.16796875</ele>
        <time>2019-08-21T13:08:29Z</time>
      </trkpt>
      <trkpt lat="59.293606001883745" lon="8.19312896579504">
        <ele>1016.28125</ele>
        <time>2019-08-21T13:08:30Z</time>
      </trkpt>
      <trkpt lat="59.293598039075732" lon="8.193143969401717">
        <ele>1016.5234375</ele>
        <time>2019-08-21T13:08:31Z</time>
      </trkpt>
      <trkpt lat="59.293592004105449" lon="8.193159978836775">
        <ele>1016.734375</ele>
        <time>2019-08-21T13:08:32Z</time>
      </trkpt>
      <trkpt lat="59.293585969135165" lon="8.193174982443452">
        <ele>1016.9140625</ele>
        <time>2019-08-21T13:08:33Z</time>
      </trkpt>
      <trkpt lat="59.293578006327152" lon="8.193185040727258">
        <ele>1017.0390625</ele>
        <time>2019-08-21T13:08:34Z</time>
      </trkpt>
      <trkpt lat="59.293570965528488" lon="8.193187974393368">
        <ele>1017.07421875</ele>
        <time>2019-08-21T13:08:35Z</time>
      </trkpt>
      <trkpt lat="59.293564008548856" lon="8.19319099187851">
        <ele>1017.11328125</ele>
        <time>2019-08-21T13:08:36Z</time>
      </trkpt>
      <trkpt lat="59.293555961921811" lon="8.193200966343284">
        <ele>1017.25390625</ele>
        <time>2019-08-21T13:08:37Z</time>
      </trkpt>
      <trkpt lat="59.293547999113798" lon="8.19321496412158">
        <ele>1017.453125</ele>
        <time>2019-08-21T13:08:38Z</time>
      </trkpt>
      <trkpt lat="59.293536012992263" lon="8.193252012133598">
        <ele>1018.0078125</ele>
        <time>2019-08-21T13:08:40Z</time>
      </trkpt>
      <trkpt lat="59.293531989678741" lon="8.193271039053798">
        <ele>1018.30078125</ele>
        <time>2019-08-21T13:08:41Z</time>
      </trkpt>
      <trkpt lat="59.293525032699108" lon="8.193289982154965">
        <ele>1018.61328125</ele>
        <time>2019-08-21T13:08:42Z</time>
      </trkpt>
      <trkpt lat="59.293510029092431" lon="8.193316971883178">
        <ele>1019.10546875</ele>
        <time>2019-08-21T13:08:44Z</time>
      </trkpt>
      <trkpt lat="59.293504999950528" lon="8.193328035995364">
        <ele>1019.30859375</ele>
        <time>2019-08-21T13:08:45Z</time>
      </trkpt>
      <trkpt lat="59.293498964980245" lon="8.193337004631758">
        <ele>1019.4921875</ele>
        <time>2019-08-21T13:08:46Z</time>
      </trkpt>
      <trkpt lat="59.29348798468709" lon="8.193343039602041">
        <ele>1019.65234375</ele>
        <time>2019-08-21T13:08:47Z</time>
      </trkpt>
      <trkpt lat="59.293474992737174" lon="8.193347984924913">
        <ele>1019.79296875</ele>
        <time>2019-08-21T13:08:48Z</time>
      </trkpt>
      <trkpt lat="59.293457977473736" lon="8.193360976874828">
        <ele>1020.05859375</ele>
        <time>2019-08-21T13:08:49Z</time>
      </trkpt>
      <trkpt lat="59.293430987745523" lon="8.193377992138267">
        <ele>1020.45703125</ele>
        <time>2019-08-21T13:08:50Z</time>
      </trkpt>
      <trkpt lat="59.293407015502453" lon="8.193399030715227">
        <ele>1020.9140625</ele>
        <time>2019-08-21T13:08:51Z</time>
      </trkpt>
      <trkpt lat="59.293397963047028" lon="8.193409005180001">
        <ele>1021.1171875</ele>
        <time>2019-08-21T13:08:52Z</time>
      </trkpt>
      <trkpt lat="59.293395029380918" lon="8.193415040150285">
        <ele>1021.22265625</ele>
        <time>2019-08-21T13:08:53Z</time>
      </trkpt>
      <trkpt lat="59.293391006067395" lon="8.193425014615059">
        <ele>1021.390625</ele>
        <time>2019-08-21T13:08:54Z</time>
      </trkpt>
      <trkpt lat="59.293368961662054" lon="8.193440018221736">
        <ele>1021.796875</ele>
        <time>2019-08-21T13:08:56Z</time>
      </trkpt>
      <trkpt lat="59.293357981368899" lon="8.19344898685813">
        <ele>1022.02734375</ele>
        <time>2019-08-21T13:08:57Z</time>
      </trkpt>
      <trkpt lat="59.293349012732506" lon="8.193453010171652">
        <ele>1022.171875</ele>
        <time>2019-08-21T13:08:58Z</time>
      </trkpt>
      <trkpt lat="59.293342977762222" lon="8.193446975201368">
        <ele>1022.140625</ele>
        <time>2019-08-21T13:08:59Z</time>
      </trkpt>
      <trkpt lat="59.293320011347532" lon="8.193407999351621">
        <ele>1021.76171875</ele>
        <time>2019-08-21T13:09:01Z</time>
      </trkpt>
      <trkpt lat="59.293304001912475" lon="8.193390984088182">
        <ele>1021.6796875</ele>
        <time>2019-08-21T13:09:02Z</time>
      </trkpt>
      <trkpt lat="59.293292015790939" lon="8.19338402710855">
        <ele>1021.70703125</ele>
        <time>2019-08-21T13:09:03Z</time>
      </trkpt>
      <trkpt lat="59.293280029669404" lon="8.193372040987015">
        <ele>1021.64453125</ele>
        <time>2019-08-21T13:09:04Z</time>
      </trkpt>
      <trkpt lat="59.293265026062727" lon="8.193344967439771">
        <ele>1021.33984375</ele>
        <time>2019-08-21T13:09:05Z</time>
      </trkpt>
      <trkpt lat="59.293253039941192" lon="8.193330969661474">
        <ele>1021.1484375</ele>
        <time>2019-08-21T13:09:06Z</time>
      </trkpt>
      <trkpt lat="59.293243987485766" lon="8.193330969661474">
        <ele>1021.23828125</ele>
        <time>2019-08-21T13:09:07Z</time>
      </trkpt>
      <trkpt lat="59.293230995535851" lon="8.193332981318235">
        <ele>1021.41796875</ele>
        <time>2019-08-21T13:09:08Z</time>
      </trkpt>
      <trkpt lat="59.293216997757554" lon="8.193313032388687">
        <ele>1021.08203125</ele>
        <time>2019-08-21T13:09:09Z</time>
      </trkpt>
      <trkpt lat="59.293201994150877" lon="8.193292999640107">
        <ele>1020.7578125</ele>
        <time>2019-08-21T13:09:10Z</time>
      </trkpt>
      <trkpt lat="59.293192019686103" lon="8.193275984376669">
        <ele>1020.453125</ele>
        <time>2019-08-21T13:09:11Z</time>
      </trkpt>
      <trkpt lat="59.293178021907806" lon="8.193271039053798">
        <ele>1020.48046875</ele>
        <time>2019-08-21T13:09:12Z</time>
      </trkpt>
      <trkpt lat="59.293162012472749" lon="8.19327699020505">
        <ele>1020.78125</ele>
        <time>2019-08-21T13:09:13Z</time>
      </trkpt>
      <trkpt lat="59.293150026351213" lon="8.193281013518572">
        <ele>1020.99609375</ele>
        <time>2019-08-21T13:09:14Z</time>
      </trkpt>
      <trkpt lat="59.293147008866072" lon="8.193272966891527">
        <ele>1020.83984375</ele>
        <time>2019-08-21T13:09:15Z</time>
      </trkpt>
      <trkpt lat="59.293135022744536" lon="8.193260980769992">
        <ele>1020.6796875</ele>
        <time>2019-08-21T13:09:16Z</time>
      </trkpt>
      <trkpt lat="59.293119013309479" lon="8.193232985213399">
        <ele>1020.1875</ele>
        <time>2019-08-21T13:09:17Z</time>
      </trkpt>
      <trkpt lat="59.293109960854053" lon="8.193224016577005">
        <ele>1020.07421875</ele>
        <time>2019-08-21T13:09:18Z</time>
      </trkpt>
      <trkpt lat="59.293091017752886" lon="8.193184034898877">
        <ele>1019.33984375</ele>
        <time>2019-08-21T13:09:20Z</time>
      </trkpt>
      <trkpt lat="59.293076014146209" lon="8.1931690312922">
        <ele>1019.1484375</ele>
        <time>2019-08-21T13:09:21Z</time>
      </trkpt>
      <trkpt lat="59.293065033853054" lon="8.193157967180014">
        <ele>1019.0078125</ele>
        <time>2019-08-21T13:09:22Z</time>
      </trkpt>
      <trkpt lat="59.293052963912487" lon="8.193139024078846">
        <ele>1018.69921875</ele>
        <time>2019-08-21T13:09:23Z</time>
      </trkpt>
      <trkpt lat="59.293043995276093" lon="8.193118991330266">
        <ele>1018.33203125</ele>
        <time>2019-08-21T13:09:24Z</time>
      </trkpt>
      <trkpt lat="59.293040977790952" lon="8.193113040179014">
        <ele>1018.2265625</ele>
        <time>2019-08-21T13:09:25Z</time>
      </trkpt>
      <trkpt lat="59.293034020811319" lon="8.193110022693873">
        <ele>1018.21484375</ele>
        <time>2019-08-21T13:09:26Z</time>
      </trkpt>
      <trkpt lat="59.293021028861403" lon="8.193121002987027">
        <ele>1018.57421875</ele>
        <time>2019-08-21T13:09:28Z</time>
      </trkpt>
      <trkpt lat="59.293021028861403" lon="8.193139024078846">
        <ele>1018.9921875</ele>
        <time>2019-08-21T13:09:29Z</time>
      </trkpt>
      <trkpt lat="59.293027985841036" lon="8.193152016028762">
        <ele>1019.23828125</ele>
        <time>2019-08-21T13:09:30Z</time>
      </trkpt>
      <trkpt lat="59.293031003326178" lon="8.193172970786691">
        <ele>1019.6953125</ele>
        <time>2019-08-21T13:09:32Z</time>
      </trkpt>
      <trkpt lat="59.293023962527514" lon="8.193174982443452">
        <ele>1019.8046875</ele>
        <time>2019-08-21T13:09:33Z</time>
      </trkpt>
      <trkpt lat="59.292994039133191" lon="8.19317095912993">
        <ele>1019.96484375</ele>
        <time>2019-08-21T13:09:35Z</time>
      </trkpt>
      <trkpt lat="59.292990015819669" lon="8.193176994100213">
        <ele>1020.140625</ele>
        <time>2019-08-21T13:09:36Z</time>
      </trkpt>
      <trkpt lat="59.292986998334527" lon="8.193173976615071">
        <ele>1020.09765625</ele>
        <time>2019-08-21T13:09:37Z</time>
      </trkpt>
      <trkpt lat="59.292977023869753" lon="8.193159978836775">
        <ele>1019.8515625</ele>
        <time>2019-08-21T13:09:38Z</time>
      </trkpt>
      <trkpt lat="59.292965037748218" lon="8.193146986886859">
        <ele>1019.64453125</ele>
        <time>2019-08-21T13:09:39Z</time>
      </trkpt>
      <trkpt lat="59.292954979464412" lon="8.193139024078846">
        <ele>1019.5390625</ele>
        <time>2019-08-21T13:09:40Z</time>
      </trkpt>
      <trkpt lat="59.292937964200974" lon="8.193141035735607">
        <ele>1019.73046875</ele>
        <time>2019-08-21T13:09:41Z</time>
      </trkpt>
      <trkpt lat="59.292917009443045" lon="8.193140029907227">
        <ele>1019.87890625</ele>
        <time>2019-08-21T13:09:42Z</time>
      </trkpt>
      <trkpt lat="59.292901000007987" lon="8.193140029907227">
        <ele>1020.01171875</ele>
        <time>2019-08-21T13:09:43Z</time>
      </trkpt>
      <trkpt lat="59.292893037199974" lon="8.193141035735607">
        <ele>1020.1015625</ele>
        <time>2019-08-21T13:09:44Z</time>
      </trkpt>
      <trkpt lat="59.292883984744549" lon="8.193156039342284">
        <ele>1020.54296875</ele>
        <time>2019-08-21T13:09:45Z</time>
      </trkpt>
      <trkpt lat="59.292871998623013" lon="8.19317095912993">
        <ele>1021.0078125</ele>
        <time>2019-08-21T13:09:46Z</time>
      </trkpt>
      <trkpt lat="59.292862024158239" lon="8.19319099187851">
        <ele>1021.58203125</ele>
        <time>2019-08-21T13:09:47Z</time>
      </trkpt>
      <trkpt lat="59.292854983359575" lon="8.193208007141948">
        <ele>1022.05859375</ele>
        <time>2019-08-21T13:09:48Z</time>
      </trkpt>
      <trkpt lat="59.292847020551562" lon="8.193228961899877">
        <ele>1022.64453125</ele>
        <time>2019-08-21T13:09:49Z</time>
      </trkpt>
      <trkpt lat="59.292841991409659" lon="8.193247988820076">
        <ele>1023.16015625</ele>
        <time>2019-08-21T13:09:50Z</time>
      </trkpt>
      <trkpt lat="59.292837968096137" lon="8.193259974941611">
        <ele>1023.4921875</ele>
        <time>2019-08-21T13:09:51Z</time>
      </trkpt>
      <trkpt lat="59.292838973924518" lon="8.193252012133598">
        <ele>1023.28515625</ele>
        <time>2019-08-21T13:09:52Z</time>
      </trkpt>
      <trkpt lat="59.292838973924518" lon="8.193257041275501">
        <ele>1023.41015625</ele>
        <time>2019-08-21T13:09:53Z</time>
      </trkpt>
      <trkpt lat="59.292840985581279" lon="8.19329802878201">
        <ele>1024.40234375</ele>
        <time>2019-08-21T13:09:55Z</time>
      </trkpt>
      <trkpt lat="59.292838973924518" lon="8.19331998936832">
        <ele>1024.9609375</ele>
        <time>2019-08-21T13:09:56Z</time>
      </trkpt>
      <trkpt lat="59.292834028601646" lon="8.193335998803377">
        <ele>1025.40625</ele>
        <time>2019-08-21T13:09:57Z</time>
      </trkpt>
      <trkpt lat="59.292832016944885" lon="8.193345973268151">
        <ele>1025.66796875</ele>
        <time>2019-08-21T13:09:58Z</time>
      </trkpt>
      <trkpt lat="59.292817013338208" lon="8.193381009623408">
        <ele>1026.671875</ele>
        <time>2019-08-21T13:10:00Z</time>
      </trkpt>
      <trkpt lat="59.292809972539544" lon="8.19340699352324">
        <ele>1027.37109375</ele>
        <time>2019-08-21T13:10:01Z</time>
      </trkpt>
      <trkpt lat="59.292807038873434" lon="8.193432977423072">
        <ele>1028.03515625</ele>
        <time>2019-08-21T13:10:02Z</time>
      </trkpt>
      <trkpt lat="59.292795974761248" lon="8.193478994071484">
        <ele>1029.2578125</ele>
        <time>2019-08-21T13:10:04Z</time>
      </trkpt>
      <trkpt lat="59.292797986418009" lon="8.193493997678161">
        <ele>1029.6015625</ele>
        <time>2019-08-21T13:10:05Z</time>
      </trkpt>
      <trkpt lat="59.292798992246389" lon="8.193509001284838">
        <ele>1029.95703125</ele>
        <time>2019-08-21T13:10:06Z</time>
      </trkpt>
      <trkpt lat="59.292801003903151" lon="8.193530961871147">
        <ele>1030.47265625</ele>
        <time>2019-08-21T13:10:07Z</time>
      </trkpt>
      <trkpt lat="59.292801003903151" lon="8.193557029590011">
        <ele>1031.10546875</ele>
        <time>2019-08-21T13:10:08Z</time>
      </trkpt>
      <trkpt lat="59.29279999807477" lon="8.193582007661462">
        <ele>1031.72265625</ele>
        <time>2019-08-21T13:10:09Z</time>
      </trkpt>
      <trkpt lat="59.292798992246389" lon="8.193602040410042">
        <ele>1032.21875</ele>
        <time>2019-08-21T13:10:10Z</time>
      </trkpt>
      <trkpt lat="59.292802009731531" lon="8.193616960197687">
        <ele>1032.5546875</ele>
        <time>2019-08-21T13:10:11Z</time>
      </trkpt>
      <trkpt lat="59.292804021388292" lon="8.193630035966635">
        <ele>1032.7890625</ele>
        <time>2019-08-21T13:10:12Z</time>
      </trkpt>
      <trkpt lat="59.292801003903151" lon="8.193665994331241">
        <ele>1033.48046875</ele>
        <time>2019-08-21T13:10:14Z</time>
      </trkpt>
      <trkpt lat="59.292797986418009" lon="8.193688960745931">
        <ele>1033.92578125</ele>
        <time>2019-08-21T13:10:15Z</time>
      </trkpt>
      <trkpt lat="59.292797986418009" lon="8.193705976009369">
        <ele>1034.23828125</ele>
        <time>2019-08-21T13:10:16Z</time>
      </trkpt>
      <trkpt lat="59.292795974761248" lon="8.193716034293175">
        <ele>1034.4375</ele>
        <time>2019-08-21T13:10:17Z</time>
      </trkpt>
      <trkpt lat="59.292794968932867" lon="8.19372802041471">
        <ele>1034.6640625</ele>
        <time>2019-08-21T13:10:18Z</time>
      </trkpt>
      <trkpt lat="59.292797986418009" lon="8.193735983222723">
        <ele>1034.79296875</ele>
        <time>2019-08-21T13:10:19Z</time>
      </trkpt>
      <trkpt lat="59.292797986418009" lon="8.193742018193007">
        <ele>1034.90234375</ele>
        <time>2019-08-21T13:10:20Z</time>
      </trkpt>
      <trkpt lat="59.292796980589628" lon="8.193745035678148">
        <ele>1034.96484375</ele>
        <time>2019-08-21T13:10:21Z</time>
      </trkpt>
      <trkpt lat="59.292794968932867" lon="8.193748975172639">
        <ele>1035.046875</ele>
        <time>2019-08-21T13:10:22Z</time>
      </trkpt>
      <trkpt lat="59.292794968932867" lon="8.193748975172639">
        <ele>1035.046875</ele>
        <time>2019-08-21T13:10:23Z</time>
      </trkpt>
      <trkpt lat="59.292793963104486" lon="8.193748975172639">
        <ele>1035.0546875</ele>
        <time>2019-08-21T13:10:24Z</time>
      </trkpt>
      <trkpt lat="59.292793963104486" lon="8.19374998100102">
        <ele>1035.07421875</ele>
        <time>2019-08-21T13:10:25Z</time>
      </trkpt>
      <trkpt lat="59.292793963104486" lon="8.193748975172639">
        <ele>1035.0546875</ele>
        <time>2019-08-21T13:10:26Z</time>
      </trkpt>
      <trkpt lat="59.292794968932867" lon="8.19374998100102">
        <ele>1035.06640625</ele>
        <time>2019-08-21T13:10:27Z</time>
      </trkpt>
      <trkpt lat="59.292792035266757" lon="8.193748975172639">
        <ele>1035.06640625</ele>
        <time>2019-08-21T13:10:28Z</time>
      </trkpt>
      <trkpt lat="59.292791029438376" lon="8.1937509868294">
        <ele>1035.109375</ele>
        <time>2019-08-21T13:10:29Z</time>
      </trkpt>
      <trkpt lat="59.292788011953235" lon="8.193752998486161">
        <ele>1035.16015625</ele>
        <time>2019-08-21T13:10:30Z</time>
      </trkpt>
      <trkpt lat="59.292783988639712" lon="8.193760039284825">
        <ele>1035.3125</ele>
        <time>2019-08-21T13:10:31Z</time>
      </trkpt>
      <trkpt lat="59.292792035266757" lon="8.193788034841418">
        <ele>1035.77734375</ele>
        <time>2019-08-21T13:10:32Z</time>
      </trkpt>
      <trkpt lat="59.292781976982951" lon="8.193802032619715">
        <ele>1036.078125</ele>
        <time>2019-08-21T13:10:33Z</time>
      </trkpt>
      <trkpt lat="59.292782982811332" lon="8.193811001256108">
        <ele>1036.23828125</ele>
        <time>2019-08-21T13:10:34Z</time>
      </trkpt>
      <trkpt lat="59.292784994468093" lon="8.193812007084489">
        <ele>1036.24609375</ele>
        <time>2019-08-21T13:10:35Z</time>
      </trkpt>
      <trkpt lat="59.292787006124854" lon="8.193817958235741">
        <ele>1036.34765625</ele>
        <time>2019-08-21T13:10:36Z</time>
      </trkpt>
      <trkpt lat="59.292793041095138" lon="8.193817958235741">
        <ele>1036.3203125</ele>
        <time>2019-08-21T13:10:37Z</time>
      </trkpt>
      <trkpt lat="59.292794968932867" lon="8.193818964064121">
        <ele>1036.33203125</ele>
        <time>2019-08-21T13:10:38Z</time>
      </trkpt>
      <trkpt lat="59.292796980589628" lon="8.193820975720882">
        <ele>1036.359375</ele>
        <time>2019-08-21T13:10:39Z</time>
      </trkpt>
      <trkpt lat="59.292798992246389" lon="8.193822987377644">
        <ele>1036.390625</ele>
        <time>2019-08-21T13:10:40Z</time>
      </trkpt>
      <trkpt lat="59.292798992246389" lon="8.193826004862785">
        <ele>1036.4453125</ele>
        <time>2019-08-21T13:10:41Z</time>
      </trkpt>
      <trkpt lat="59.292801003903151" lon="8.193828016519547">
        <ele>1036.4765625</ele>
        <time>2019-08-21T13:10:42Z</time>
      </trkpt>
      <trkpt lat="59.292801003903151" lon="8.193828016519547">
        <ele>1036.4765625</ele>
        <time>2019-08-21T13:10:43Z</time>
      </trkpt>
      <trkpt lat="59.292801003903151" lon="8.193828016519547">
        <ele>1036.4765625</ele>
        <time>2019-08-21T13:10:44Z</time>
      </trkpt>
      <trkpt lat="59.292801003903151" lon="8.193828016519547">
        <ele>1036.4765625</ele>
        <time>2019-08-21T13:10:45Z</time>
      </trkpt>
      <trkpt lat="59.292801003903151" lon="8.193828016519547">
        <ele>1036.4765625</ele>
        <time>2019-08-21T13:10:46Z</time>
      </trkpt>
      <trkpt lat="59.292801003903151" lon="8.193828016519547">
        <ele>1036.4765625</ele>
        <time>2019-08-21T13:10:47Z</time>
      </trkpt>
      <trkpt lat="59.292801003903151" lon="8.193828016519547">
        <ele>1036.4765625</ele>
        <time>2019-08-21T13:10:48Z</time>
      </trkpt>
      <trkpt lat="59.292801003903151" lon="8.193828016519547">
        <ele>1036.4765625</ele>
        <time>2019-08-21T13:10:49Z</time>
      </trkpt>
      <trkpt lat="59.292802009731531" lon="8.193828016519547">
        <ele>1036.47265625</ele>
        <time>2019-08-21T13:10:50Z</time>
      </trkpt>
      <trkpt lat="59.292801003903151" lon="8.193827010691166">
        <ele>1036.45703125</ele>
        <time>2019-08-21T13:10:51Z</time>
      </trkpt>
      <trkpt lat="59.292801003903151" lon="8.193827010691166">
        <ele>1036.45703125</ele>
        <time>2019-08-21T13:10:52Z</time>
      </trkpt>
      <trkpt lat="59.292801003903151" lon="8.193827010691166">
        <ele>1036.45703125</ele>
        <time>2019-08-21T13:10:53Z</time>
      </trkpt>
      <trkpt lat="59.292801003903151" lon="8.193827010691166">
        <ele>1036.45703125</ele>
        <time>2019-08-21T13:10:54Z</time>
      </trkpt>
      <trkpt lat="59.292801003903151" lon="8.193823993206024">
        <ele>1036.40234375</ele>
        <time>2019-08-21T13:10:55Z</time>
      </trkpt>
      <trkpt lat="59.292802009731531" lon="8.193824999034405">
        <ele>1036.4140625</ele>
        <time>2019-08-21T13:10:56Z</time>
      </trkpt>
      <trkpt lat="59.292802009731531" lon="8.193824999034405">
        <ele>1036.4140625</ele>
        <time>2019-08-21T13:10:57Z</time>
      </trkpt>
      <trkpt lat="59.292801003903151" lon="8.193824999034405">
        <ele>1036.41796875</ele>
        <time>2019-08-21T13:10:58Z</time>
      </trkpt>
      <trkpt lat="59.292801003903151" lon="8.193826004862785">
        <ele>1036.4375</ele>
        <time>2019-08-21T13:10:59Z</time>
      </trkpt>
      <trkpt lat="59.292801003903151" lon="8.193826004862785">
        <ele>1036.4375</ele>
        <time>2019-08-21T13:11:00Z</time>
      </trkpt>
      <trkpt lat="59.292801003903151" lon="8.193826004862785">
        <ele>1036.4375</ele>
        <time>2019-08-21T13:11:01Z</time>
      </trkpt>
      <trkpt lat="59.292801003903151" lon="8.193826004862785">
        <ele>1036.4375</ele>
        <time>2019-08-21T13:11:02Z</time>
      </trkpt>
      <trkpt lat="59.292801003903151" lon="8.193826004862785">
        <ele>1036.4375</ele>
        <time>2019-08-21T13:11:03Z</time>
      </trkpt>
      <trkpt lat="59.292801003903151" lon="8.193826004862785">
        <ele>1036.4375</ele>
        <time>2019-08-21T13:11:04Z</time>
      </trkpt>
      <trkpt lat="59.292801003903151" lon="8.193826004862785">
        <ele>1036.4375</ele>
        <time>2019-08-21T13:11:05Z</time>
      </trkpt>
      <trkpt lat="59.292801003903151" lon="8.193826004862785">
        <ele>1036.4375</ele>
        <time>2019-08-21T13:11:06Z</time>
      </trkpt>
      <trkpt lat="59.292801003903151" lon="8.193826004862785">
        <ele>1036.4375</ele>
        <time>2019-08-21T13:11:07Z</time>
      </trkpt>
      <trkpt lat="59.292801003903151" lon="8.193826004862785">
        <ele>1036.4375</ele>
        <time>2019-08-21T13:11:08Z</time>
      </trkpt>
      <trkpt lat="59.292801003903151" lon="8.193828016519547">
        <ele>1036.4765625</ele>
        <time>2019-08-21T13:11:09Z</time>
      </trkpt>
      <trkpt lat="59.292801003903151" lon="8.193827010691166">
        <ele>1036.45703125</ele>
        <time>2019-08-21T13:11:10Z</time>
      </trkpt>
      <trkpt lat="59.292801003903151" lon="8.193827010691166">
        <ele>1036.45703125</ele>
        <time>2019-08-21T13:11:11Z</time>
      </trkpt>
      <trkpt lat="59.292801003903151" lon="8.193827010691166">
        <ele>1036.45703125</ele>
        <time>2019-08-21T13:11:12Z</time>
      </trkpt>
      <trkpt lat="59.292801003903151" lon="8.193827010691166">
        <ele>1036.45703125</ele>
        <time>2019-08-21T13:11:13Z</time>
      </trkpt>
      <trkpt lat="59.292801003903151" lon="8.193827010691166">
        <ele>1036.45703125</ele>
        <time>2019-08-21T13:11:14Z</time>
      </trkpt>
      <trkpt lat="59.292801003903151" lon="8.193827010691166">
        <ele>1036.45703125</ele>
        <time>2019-08-21T13:11:15Z</time>
      </trkpt>
      <trkpt lat="59.292801003903151" lon="8.193827010691166">
        <ele>1036.45703125</ele>
        <time>2019-08-21T13:11:16Z</time>
      </trkpt>
      <trkpt lat="59.292801003903151" lon="8.193827010691166">
        <ele>1036.45703125</ele>
        <time>2019-08-21T13:11:17Z</time>
      </trkpt>
      <trkpt lat="59.292801003903151" lon="8.193827010691166">
        <ele>1036.45703125</ele>
        <time>2019-08-21T13:11:18Z</time>
      </trkpt>
      <trkpt lat="59.292801003903151" lon="8.193827010691166">
        <ele>1036.45703125</ele>
        <time>2019-08-21T13:11:19Z</time>
      </trkpt>
      <trkpt lat="59.292801003903151" lon="8.193827010691166">
        <ele>1036.45703125</ele>
        <time>2019-08-21T13:11:20Z</time>
      </trkpt>
      <trkpt lat="59.292801003903151" lon="8.193827010691166">
        <ele>1036.45703125</ele>
        <time>2019-08-21T13:11:21Z</time>
      </trkpt>
      <trkpt lat="59.292801003903151" lon="8.193827010691166">
        <ele>1036.45703125</ele>
        <time>2019-08-21T13:11:22Z</time>
      </trkpt>
      <trkpt lat="59.292801003903151" lon="8.193827010691166">
        <ele>1036.45703125</ele>
        <time>2019-08-21T13:11:23Z</time>
      </trkpt>
      <trkpt lat="59.292801003903151" lon="8.193827010691166">
        <ele>1036.45703125</ele>
        <time>2019-08-21T13:11:24Z</time>
      </trkpt>
      <trkpt lat="59.292801003903151" lon="8.193827010691166">
        <ele>1036.45703125</ele>
        <time>2019-08-21T13:11:25Z</time>
      </trkpt>
      <trkpt lat="59.292801003903151" lon="8.193827010691166">
        <ele>1036.45703125</ele>
        <time>2019-08-21T13:11:26Z</time>
      </trkpt>
      <trkpt lat="59.292801003903151" lon="8.193827010691166">
        <ele>1036.45703125</ele>
        <time>2019-08-21T13:11:27Z</time>
      </trkpt>
      <trkpt lat="59.292801003903151" lon="8.193827010691166">
        <ele>1036.45703125</ele>
        <time>2019-08-21T13:11:28Z</time>
      </trkpt>
      <trkpt lat="59.292801003903151" lon="8.193827010691166">
        <ele>1036.45703125</ele>
        <time>2019-08-21T13:11:29Z</time>
      </trkpt>
      <trkpt lat="59.292801003903151" lon="8.193827010691166">
        <ele>1036.45703125</ele>
        <time>2019-08-21T13:11:30Z</time>
      </trkpt>
      <trkpt lat="59.292801003903151" lon="8.193827010691166">
        <ele>1036.45703125</ele>
        <time>2019-08-21T13:11:31Z</time>
      </trkpt>
      <trkpt lat="59.292801003903151" lon="8.193827010691166">
        <ele>1036.45703125</ele>
        <time>2019-08-21T13:11:32Z</time>
      </trkpt>
      <trkpt lat="59.292801003903151" lon="8.193827010691166">
        <ele>1036.45703125</ele>
        <time>2019-08-21T13:11:33Z</time>
      </trkpt>
      <trkpt lat="59.292801003903151" lon="8.193827010691166">
        <ele>1036.45703125</ele>
        <time>2019-08-21T13:11:34Z</time>
      </trkpt>
      <trkpt lat="59.292801003903151" lon="8.193827010691166">
        <ele>1036.45703125</ele>
        <time>2019-08-21T13:11:35Z</time>
      </trkpt>
      <trkpt lat="59.292801003903151" lon="8.193827010691166">
        <ele>1036.45703125</ele>
        <time>2019-08-21T13:11:36Z</time>
      </trkpt>
      <trkpt lat="59.292801003903151" lon="8.193827010691166">
        <ele>1036.45703125</ele>
        <time>2019-08-21T13:11:37Z</time>
      </trkpt>
      <trkpt lat="59.292801003903151" lon="8.193827010691166">
        <ele>1036.45703125</ele>
        <time>2019-08-21T13:11:38Z</time>
      </trkpt>
      <trkpt lat="59.292801003903151" lon="8.193827010691166">
        <ele>1036.45703125</ele>
        <time>2019-08-21T13:11:39Z</time>
      </trkpt>
      <trkpt lat="59.292801003903151" lon="8.193827010691166">
        <ele>1036.45703125</ele>
        <time>2019-08-21T13:11:40Z</time>
      </trkpt>
      <trkpt lat="59.292801003903151" lon="8.193828016519547">
        <ele>1036.4765625</ele>
        <time>2019-08-21T13:11:41Z</time>
      </trkpt>
      <trkpt lat="59.292801003903151" lon="8.193828016519547">
        <ele>1036.4765625</ele>
        <time>2019-08-21T13:11:42Z</time>
      </trkpt>
      <trkpt lat="59.292801003903151" lon="8.193828016519547">
        <ele>1036.4765625</ele>
        <time>2019-08-21T13:11:43Z</time>
      </trkpt>
      <trkpt lat="59.292801003903151" lon="8.193828016519547">
        <ele>1036.4765625</ele>
        <time>2019-08-21T13:11:44Z</time>
      </trkpt>
      <trkpt lat="59.292801003903151" lon="8.193830028176308">
        <ele>1036.51171875</ele>
        <time>2019-08-21T13:11:45Z</time>
      </trkpt>
      <trkpt lat="59.292801003903151" lon="8.193830028176308">
        <ele>1036.51171875</ele>
        <time>2019-08-21T13:11:46Z</time>
      </trkpt>
      <trkpt lat="59.292801003903151" lon="8.193830028176308">
        <ele>1036.51171875</ele>
        <time>2019-08-21T13:11:47Z</time>
      </trkpt>
      <trkpt lat="59.292801003903151" lon="8.193829022347927">
        <ele>1036.4921875</ele>
        <time>2019-08-21T13:11:48Z</time>
      </trkpt>
      <trkpt lat="59.292801003903151" lon="8.193831034004688">
        <ele>1036.53125</ele>
        <time>2019-08-21T13:11:49Z</time>
      </trkpt>
      <trkpt lat="59.29279999807477" lon="8.193831034004688">
        <ele>1036.53515625</ele>
        <time>2019-08-21T13:11:50Z</time>
      </trkpt>
      <trkpt lat="59.29279999807477" lon="8.193831034004688">
        <ele>1036.53515625</ele>
        <time>2019-08-21T13:11:51Z</time>
      </trkpt>
      <trkpt lat="59.29279999807477" lon="8.193831034004688">
        <ele>1036.53515625</ele>
        <time>2019-08-21T13:11:52Z</time>
      </trkpt>
      <trkpt lat="59.29279999807477" lon="8.193831034004688">
        <ele>1036.53515625</ele>
        <time>2019-08-21T13:11:53Z</time>
      </trkpt>
      <trkpt lat="59.29279999807477" lon="8.193831034004688">
        <ele>1036.53515625</ele>
        <time>2019-08-21T13:11:54Z</time>
      </trkpt>
      <trkpt lat="59.29279999807477" lon="8.193831034004688">
        <ele>1036.53515625</ele>
        <time>2019-08-21T13:11:55Z</time>
      </trkpt>
      <trkpt lat="59.29279999807477" lon="8.193831034004688">
        <ele>1036.53515625</ele>
        <time>2019-08-21T13:11:56Z</time>
      </trkpt>
      <trkpt lat="59.29279999807477" lon="8.193831034004688">
        <ele>1036.53515625</ele>
        <time>2019-08-21T13:11:57Z</time>
      </trkpt>
      <trkpt lat="59.29279999807477" lon="8.193831034004688">
        <ele>1036.53515625</ele>
        <time>2019-08-21T13:11:58Z</time>
      </trkpt>
      <trkpt lat="59.29279999807477" lon="8.193831034004688">
        <ele>1036.53515625</ele>
        <time>2019-08-21T13:11:59Z</time>
      </trkpt>
      <trkpt lat="59.29279999807477" lon="8.193831034004688">
        <ele>1036.53515625</ele>
        <time>2019-08-21T13:12:00Z</time>
      </trkpt>
      <trkpt lat="59.29279999807477" lon="8.193831034004688">
        <ele>1036.53515625</ele>
        <time>2019-08-21T13:12:01Z</time>
      </trkpt>
      <trkpt lat="59.292801003903151" lon="8.193831034004688">
        <ele>1036.53125</ele>
        <time>2019-08-21T13:12:02Z</time>
      </trkpt>
      <trkpt lat="59.292801003903151" lon="8.193831034004688">
        <ele>1036.53125</ele>
        <time>2019-08-21T13:12:03Z</time>
      </trkpt>
      <trkpt lat="59.292801003903151" lon="8.193831034004688">
        <ele>1036.53125</ele>
        <time>2019-08-21T13:12:04Z</time>
      </trkpt>
      <trkpt lat="59.292801003903151" lon="8.193831034004688">
        <ele>1036.53125</ele>
        <time>2019-08-21T13:12:05Z</time>
      </trkpt>
      <trkpt lat="59.292801003903151" lon="8.193831034004688">
        <ele>1036.53125</ele>
        <time>2019-08-21T13:12:06Z</time>
      </trkpt>
      <trkpt lat="59.292801003903151" lon="8.193831034004688">
        <ele>1036.53125</ele>
        <time>2019-08-21T13:12:07Z</time>
      </trkpt>
      <trkpt lat="59.292801003903151" lon="8.193831034004688">
        <ele>1036.53125</ele>
        <time>2019-08-21T13:12:08Z</time>
      </trkpt>
      <trkpt lat="59.292801003903151" lon="8.193832039833069">
        <ele>1036.55078125</ele>
        <time>2019-08-21T13:12:09Z</time>
      </trkpt>
      <trkpt lat="59.292801003903151" lon="8.193832039833069">
        <ele>1036.55078125</ele>
        <time>2019-08-21T13:12:10Z</time>
      </trkpt>
      <trkpt lat="59.292801003903151" lon="8.193832039833069">
        <ele>1036.55078125</ele>
        <time>2019-08-21T13:12:11Z</time>
      </trkpt>
      <trkpt lat="59.292801003903151" lon="8.193832039833069">
        <ele>1036.55078125</ele>
        <time>2019-08-21T13:12:12Z</time>
      </trkpt>
      <trkpt lat="59.292801003903151" lon="8.193832039833069">
        <ele>1036.55078125</ele>
        <time>2019-08-21T13:12:13Z</time>
      </trkpt>
      <trkpt lat="59.292801003903151" lon="8.193829022347927">
        <ele>1036.4921875</ele>
        <time>2019-08-21T13:12:14Z</time>
      </trkpt>
      <trkpt lat="59.292801003903151" lon="8.193829022347927">
        <ele>1036.4921875</ele>
        <time>2019-08-21T13:12:15Z</time>
      </trkpt>
      <trkpt lat="59.292801003903151" lon="8.193829022347927">
        <ele>1036.4921875</ele>
        <time>2019-08-21T13:12:16Z</time>
      </trkpt>
      <trkpt lat="59.292801003903151" lon="8.193829022347927">
        <ele>1036.4921875</ele>
        <time>2019-08-21T13:12:17Z</time>
      </trkpt>
      <trkpt lat="59.292801003903151" lon="8.193829022347927">
        <ele>1036.4921875</ele>
        <time>2019-08-21T13:12:18Z</time>
      </trkpt>
      <trkpt lat="59.292801003903151" lon="8.193829022347927">
        <ele>1036.4921875</ele>
        <time>2019-08-21T13:12:19Z</time>
      </trkpt>
      <trkpt lat="59.292801003903151" lon="8.193829022347927">
        <ele>1036.4921875</ele>
        <time>2019-08-21T13:12:20Z</time>
      </trkpt>
      <trkpt lat="59.292801003903151" lon="8.193829022347927">
        <ele>1036.4921875</ele>
        <time>2019-08-21T13:12:21Z</time>
      </trkpt>
      <trkpt lat="59.292801003903151" lon="8.193829022347927">
        <ele>1036.4921875</ele>
        <time>2019-08-21T13:12:22Z</time>
      </trkpt>
      <trkpt lat="59.292801003903151" lon="8.193829022347927">
        <ele>1036.4921875</ele>
        <time>2019-08-21T13:12:23Z</time>
      </trkpt>
      <trkpt lat="59.292801003903151" lon="8.193829022347927">
        <ele>1036.4921875</ele>
        <time>2019-08-21T13:12:24Z</time>
      </trkpt>
      <trkpt lat="59.292801003903151" lon="8.193829022347927">
        <ele>1036.4921875</ele>
        <time>2019-08-21T13:12:25Z</time>
      </trkpt>
      <trkpt lat="59.292801003903151" lon="8.193829022347927">
        <ele>1036.4921875</ele>
        <time>2019-08-21T13:12:26Z</time>
      </trkpt>
      <trkpt lat="59.292801003903151" lon="8.193829022347927">
        <ele>1036.4921875</ele>
        <time>2019-08-21T13:12:27Z</time>
      </trkpt>
      <trkpt lat="59.292801003903151" lon="8.193829022347927">
        <ele>1036.4921875</ele>
        <time>2019-08-21T13:12:28Z</time>
      </trkpt>
      <trkpt lat="59.292801003903151" lon="8.193829022347927">
        <ele>1036.4921875</ele>
        <time>2019-08-21T13:12:29Z</time>
      </trkpt>
      <trkpt lat="59.292801003903151" lon="8.193829022347927">
        <ele>1036.4921875</ele>
        <time>2019-08-21T13:12:30Z</time>
      </trkpt>
      <trkpt lat="59.292801003903151" lon="8.193829022347927">
        <ele>1036.4921875</ele>
        <time>2019-08-21T13:12:31Z</time>
      </trkpt>
      <trkpt lat="59.292801003903151" lon="8.193829022347927">
        <ele>1036.4921875</ele>
        <time>2019-08-21T13:12:32Z</time>
      </trkpt>
      <trkpt lat="59.292801003903151" lon="8.193829022347927">
        <ele>1036.4921875</ele>
        <time>2019-08-21T13:12:33Z</time>
      </trkpt>
      <trkpt lat="59.292801003903151" lon="8.193829022347927">
        <ele>1036.4921875</ele>
        <time>2019-08-21T13:12:34Z</time>
      </trkpt>
      <trkpt lat="59.292801003903151" lon="8.193829022347927">
        <ele>1036.4921875</ele>
        <time>2019-08-21T13:12:35Z</time>
      </trkpt>
      <trkpt lat="59.292801003903151" lon="8.193829022347927">
        <ele>1036.4921875</ele>
        <time>2019-08-21T13:12:36Z</time>
      </trkpt>
      <trkpt lat="59.292802009731531" lon="8.193829022347927">
        <ele>1036.48828125</ele>
        <time>2019-08-21T13:12:37Z</time>
      </trkpt>
      <trkpt lat="59.292802009731531" lon="8.193829022347927">
        <ele>1036.48828125</ele>
        <time>2019-08-21T13:12:38Z</time>
      </trkpt>
      <trkpt lat="59.292802009731531" lon="8.193829022347927">
        <ele>1036.48828125</ele>
        <time>2019-08-21T13:12:39Z</time>
      </trkpt>
      <trkpt lat="59.292802009731531" lon="8.193829022347927">
        <ele>1036.48828125</ele>
        <time>2019-08-21T13:12:40Z</time>
      </trkpt>
      <trkpt lat="59.292802009731531" lon="8.193829022347927">
        <ele>1036.48828125</ele>
        <time>2019-08-21T13:12:41Z</time>
      </trkpt>
      <trkpt lat="59.292802009731531" lon="8.193829022347927">
        <ele>1036.48828125</ele>
        <time>2019-08-21T13:12:42Z</time>
      </trkpt>
      <trkpt lat="59.292802009731531" lon="8.193829022347927">
        <ele>1036.48828125</ele>
        <time>2019-08-21T13:12:43Z</time>
      </trkpt>
      <trkpt lat="59.292802009731531" lon="8.193829022347927">
        <ele>1036.48828125</ele>
        <time>2019-08-21T13:12:44Z</time>
      </trkpt>
      <trkpt lat="59.292802009731531" lon="8.193829022347927">
        <ele>1036.48828125</ele>
        <time>2019-08-21T13:12:45Z</time>
      </trkpt>
      <trkpt lat="59.292802009731531" lon="8.193829022347927">
        <ele>1036.48828125</ele>
        <time>2019-08-21T13:12:46Z</time>
      </trkpt>
      <trkpt lat="59.292802009731531" lon="8.193829022347927">
        <ele>1036.48828125</ele>
        <time>2019-08-21T13:12:47Z</time>
      </trkpt>
      <trkpt lat="59.292802009731531" lon="8.193829022347927">
        <ele>1036.48828125</ele>
        <time>2019-08-21T13:12:48Z</time>
      </trkpt>
      <trkpt lat="59.292802009731531" lon="8.193829022347927">
        <ele>1036.48828125</ele>
        <time>2019-08-21T13:12:49Z</time>
      </trkpt>
      <trkpt lat="59.292802009731531" lon="8.193829022347927">
        <ele>1036.48828125</ele>
        <time>2019-08-21T13:12:50Z</time>
      </trkpt>
      <trkpt lat="59.292802009731531" lon="8.193829022347927">
        <ele>1036.48828125</ele>
        <time>2019-08-21T13:12:51Z</time>
      </trkpt>
      <trkpt lat="59.292802009731531" lon="8.193829022347927">
        <ele>1036.48828125</ele>
        <time>2019-08-21T13:12:52Z</time>
      </trkpt>
      <trkpt lat="59.292802009731531" lon="8.193829022347927">
        <ele>1036.48828125</ele>
        <time>2019-08-21T13:12:53Z</time>
      </trkpt>
      <trkpt lat="59.292802009731531" lon="8.193829022347927">
        <ele>1036.48828125</ele>
        <time>2019-08-21T13:12:54Z</time>
      </trkpt>
      <trkpt lat="59.292802009731531" lon="8.193829022347927">
        <ele>1036.48828125</ele>
        <time>2019-08-21T13:12:55Z</time>
      </trkpt>
      <trkpt lat="59.292802009731531" lon="8.193830028176308">
        <ele>1036.5078125</ele>
        <time>2019-08-21T13:12:56Z</time>
      </trkpt>
      <trkpt lat="59.292802009731531" lon="8.193829022347927">
        <ele>1036.48828125</ele>
        <time>2019-08-21T13:12:57Z</time>
      </trkpt>
      <trkpt lat="59.292802009731531" lon="8.193830028176308">
        <ele>1036.5078125</ele>
        <time>2019-08-21T13:12:58Z</time>
      </trkpt>
      <trkpt lat="59.292802009731531" lon="8.193830028176308">
        <ele>1036.5078125</ele>
        <time>2019-08-21T13:12:59Z</time>
      </trkpt>
      <trkpt lat="59.292802009731531" lon="8.193830028176308">
        <ele>1036.5078125</ele>
        <time>2019-08-21T13:13:00Z</time>
      </trkpt>
      <trkpt lat="59.292802009731531" lon="8.193830028176308">
        <ele>1036.5078125</ele>
        <time>2019-08-21T13:13:01Z</time>
      </trkpt>
      <trkpt lat="59.292802009731531" lon="8.193830028176308">
        <ele>1036.5078125</ele>
        <time>2019-08-21T13:13:02Z</time>
      </trkpt>
      <trkpt lat="59.292802009731531" lon="8.193830028176308">
        <ele>1036.5078125</ele>
        <time>2019-08-21T13:13:03Z</time>
      </trkpt>
      <trkpt lat="59.292802009731531" lon="8.193830028176308">
        <ele>1036.5078125</ele>
        <time>2019-08-21T13:13:04Z</time>
      </trkpt>
      <trkpt lat="59.292802009731531" lon="8.193830028176308">
        <ele>1036.5078125</ele>
        <time>2019-08-21T13:13:05Z</time>
      </trkpt>
      <trkpt lat="59.292802009731531" lon="8.193830028176308">
        <ele>1036.5078125</ele>
        <time>2019-08-21T13:13:06Z</time>
      </trkpt>
      <trkpt lat="59.292802009731531" lon="8.193830028176308">
        <ele>1036.5078125</ele>
        <time>2019-08-21T13:13:07Z</time>
      </trkpt>
      <trkpt lat="59.292802009731531" lon="8.193830028176308">
        <ele>1036.5078125</ele>
        <time>2019-08-21T13:13:08Z</time>
      </trkpt>
      <trkpt lat="59.292802009731531" lon="8.193830028176308">
        <ele>1036.5078125</ele>
        <time>2019-08-21T13:13:09Z</time>
      </trkpt>
      <trkpt lat="59.292802009731531" lon="8.193830028176308">
        <ele>1036.5078125</ele>
        <time>2019-08-21T13:13:10Z</time>
      </trkpt>
      <trkpt lat="59.292802009731531" lon="8.193830028176308">
        <ele>1036.5078125</ele>
        <time>2019-08-21T13:13:11Z</time>
      </trkpt>
      <trkpt lat="59.292802009731531" lon="8.193830028176308">
        <ele>1036.5078125</ele>
        <time>2019-08-21T13:13:12Z</time>
      </trkpt>
      <trkpt lat="59.292802009731531" lon="8.193830028176308">
        <ele>1036.5078125</ele>
        <time>2019-08-21T13:13:13Z</time>
      </trkpt>
      <trkpt lat="59.292802009731531" lon="8.193830028176308">
        <ele>1036.5078125</ele>
        <time>2019-08-21T13:13:14Z</time>
      </trkpt>
      <trkpt lat="59.292802009731531" lon="8.193830028176308">
        <ele>1036.5078125</ele>
        <time>2019-08-21T13:13:15Z</time>
      </trkpt>
      <trkpt lat="59.292802009731531" lon="8.193830028176308">
        <ele>1036.5078125</ele>
        <time>2019-08-21T13:13:16Z</time>
      </trkpt>
      <trkpt lat="59.292802009731531" lon="8.193830028176308">
        <ele>1036.5078125</ele>
        <time>2019-08-21T13:13:17Z</time>
      </trkpt>
      <trkpt lat="59.292802009731531" lon="8.193830028176308">
        <ele>1036.5078125</ele>
        <time>2019-08-21T13:13:18Z</time>
      </trkpt>
      <trkpt lat="59.292802009731531" lon="8.193830028176308">
        <ele>1036.5078125</ele>
        <time>2019-08-21T13:13:19Z</time>
      </trkpt>
      <trkpt lat="59.292802009731531" lon="8.193830028176308">
        <ele>1036.5078125</ele>
        <time>2019-08-21T13:13:20Z</time>
      </trkpt>
      <trkpt lat="59.292802009731531" lon="8.193830028176308">
        <ele>1036.5078125</ele>
        <time>2019-08-21T13:13:21Z</time>
      </trkpt>
      <trkpt lat="59.292802009731531" lon="8.193830028176308">
        <ele>1036.5078125</ele>
        <time>2019-08-21T13:13:22Z</time>
      </trkpt>
      <trkpt lat="59.292802009731531" lon="8.193830028176308">
        <ele>1036.5078125</ele>
        <time>2019-08-21T13:13:23Z</time>
      </trkpt>
      <trkpt lat="59.292802009731531" lon="8.193830028176308">
        <ele>1036.5078125</ele>
        <time>2019-08-21T13:13:24Z</time>
      </trkpt>
      <trkpt lat="59.292802009731531" lon="8.193830028176308">
        <ele>1036.5078125</ele>
        <time>2019-08-21T13:13:25Z</time>
      </trkpt>
      <trkpt lat="59.292802009731531" lon="8.193830028176308">
        <ele>1036.5078125</ele>
        <time>2019-08-21T13:13:26Z</time>
      </trkpt>
      <trkpt lat="59.292802009731531" lon="8.193830028176308">
        <ele>1036.5078125</ele>
        <time>2019-08-21T13:13:27Z</time>
      </trkpt>
      <trkpt lat="59.292802009731531" lon="8.193830028176308">
        <ele>1036.5078125</ele>
        <time>2019-08-21T13:13:28Z</time>
      </trkpt>
      <trkpt lat="59.292803015559912" lon="8.193830028176308">
        <ele>1036.50390625</ele>
        <time>2019-08-21T13:13:29Z</time>
      </trkpt>
      <trkpt lat="59.292803015559912" lon="8.193830028176308">
        <ele>1036.50390625</ele>
        <time>2019-08-21T13:13:30Z</time>
      </trkpt>
      <trkpt lat="59.292803015559912" lon="8.193830028176308">
        <ele>1036.50390625</ele>
        <time>2019-08-21T13:13:31Z</time>
      </trkpt>
      <trkpt lat="59.292803015559912" lon="8.193830028176308">
        <ele>1036.50390625</ele>
        <time>2019-08-21T13:13:32Z</time>
      </trkpt>
      <trkpt lat="59.292803015559912" lon="8.193830028176308">
        <ele>1036.50390625</ele>
        <time>2019-08-21T13:13:33Z</time>
      </trkpt>
      <trkpt lat="59.292803015559912" lon="8.193831034004688">
        <ele>1036.5234375</ele>
        <time>2019-08-21T13:13:34Z</time>
      </trkpt>
      <trkpt lat="59.292803015559912" lon="8.193831034004688">
        <ele>1036.5234375</ele>
        <time>2019-08-21T13:13:35Z</time>
      </trkpt>
      <trkpt lat="59.292803015559912" lon="8.193831034004688">
        <ele>1036.5234375</ele>
        <time>2019-08-21T13:13:36Z</time>
      </trkpt>
      <trkpt lat="59.292803015559912" lon="8.193831034004688">
        <ele>1036.5234375</ele>
        <time>2019-08-21T13:13:37Z</time>
      </trkpt>
      <trkpt lat="59.292803015559912" lon="8.193829022347927">
        <ele>1036.484375</ele>
        <time>2019-08-21T13:13:38Z</time>
      </trkpt>
      <trkpt lat="59.292803015559912" lon="8.193830028176308">
        <ele>1036.50390625</ele>
        <time>2019-08-21T13:13:39Z</time>
      </trkpt>
      <trkpt lat="59.292803015559912" lon="8.193830028176308">
        <ele>1036.50390625</ele>
        <time>2019-08-21T13:13:40Z</time>
      </trkpt>
      <trkpt lat="59.292804021388292" lon="8.193829022347927">
        <ele>1036.48046875</ele>
        <time>2019-08-21T13:13:41Z</time>
      </trkpt>
      <trkpt lat="59.292804021388292" lon="8.193829022347927">
        <ele>1036.48046875</ele>
        <time>2019-08-21T13:13:42Z</time>
      </trkpt>
      <trkpt lat="59.292804021388292" lon="8.193829022347927">
        <ele>1036.48046875</ele>
        <time>2019-08-21T13:13:43Z</time>
      </trkpt>
      <trkpt lat="59.292804021388292" lon="8.193829022347927">
        <ele>1036.48046875</ele>
        <time>2019-08-21T13:13:44Z</time>
      </trkpt>
      <trkpt lat="59.292804021388292" lon="8.193829022347927">
        <ele>1036.48046875</ele>
        <time>2019-08-21T13:13:45Z</time>
      </trkpt>
      <trkpt lat="59.292804021388292" lon="8.193829022347927">
        <ele>1036.48046875</ele>
        <time>2019-08-21T13:13:46Z</time>
      </trkpt>
      <trkpt lat="59.292804021388292" lon="8.193829022347927">
        <ele>1036.48046875</ele>
        <time>2019-08-21T13:13:47Z</time>
      </trkpt>
      <trkpt lat="59.292804021388292" lon="8.193829022347927">
        <ele>1036.48046875</ele>
        <time>2019-08-21T13:13:48Z</time>
      </trkpt>
      <trkpt lat="59.292804021388292" lon="8.193829022347927">
        <ele>1036.48046875</ele>
        <time>2019-08-21T13:13:49Z</time>
      </trkpt>
      <trkpt lat="59.292804021388292" lon="8.193828016519547">
        <ele>1036.46484375</ele>
        <time>2019-08-21T13:13:50Z</time>
      </trkpt>
      <trkpt lat="59.292804021388292" lon="8.193828016519547">
        <ele>1036.46484375</ele>
        <time>2019-08-21T13:13:51Z</time>
      </trkpt>
      <trkpt lat="59.292804021388292" lon="8.193828016519547">
        <ele>1036.46484375</ele>
        <time>2019-08-21T13:13:52Z</time>
      </trkpt>
      <trkpt lat="59.292804021388292" lon="8.193828016519547">
        <ele>1036.46484375</ele>
        <time>2019-08-21T13:13:53Z</time>
      </trkpt>
      <trkpt lat="59.292804021388292" lon="8.193828016519547">
        <ele>1036.46484375</ele>
        <time>2019-08-21T13:13:54Z</time>
      </trkpt>
      <trkpt lat="59.292804021388292" lon="8.193828016519547">
        <ele>1036.46484375</ele>
        <time>2019-08-21T13:13:55Z</time>
      </trkpt>
      <trkpt lat="59.292804021388292" lon="8.193828016519547">
        <ele>1036.46484375</ele>
        <time>2019-08-21T13:13:56Z</time>
      </trkpt>
      <trkpt lat="59.292804021388292" lon="8.193828016519547">
        <ele>1036.46484375</ele>
        <time>2019-08-21T13:13:57Z</time>
      </trkpt>
      <trkpt lat="59.292804021388292" lon="8.193828016519547">
        <ele>1036.46484375</ele>
        <time>2019-08-21T13:13:58Z</time>
      </trkpt>
      <trkpt lat="59.292804021388292" lon="8.193828016519547">
        <ele>1036.46484375</ele>
        <time>2019-08-21T13:13:59Z</time>
      </trkpt>
      <trkpt lat="59.292804021388292" lon="8.193828016519547">
        <ele>1036.46484375</ele>
        <time>2019-08-21T13:14:00Z</time>
      </trkpt>
      <trkpt lat="59.292804021388292" lon="8.193828016519547">
        <ele>1036.46484375</ele>
        <time>2019-08-21T13:14:01Z</time>
      </trkpt>
      <trkpt lat="59.292804021388292" lon="8.193828016519547">
        <ele>1036.46484375</ele>
        <time>2019-08-21T13:14:02Z</time>
      </trkpt>
      <trkpt lat="59.292804021388292" lon="8.193828016519547">
        <ele>1036.46484375</ele>
        <time>2019-08-21T13:14:03Z</time>
      </trkpt>
      <trkpt lat="59.292804021388292" lon="8.193828016519547">
        <ele>1036.46484375</ele>
        <time>2019-08-21T13:14:04Z</time>
      </trkpt>
      <trkpt lat="59.292804021388292" lon="8.193828016519547">
        <ele>1036.46484375</ele>
        <time>2019-08-21T13:14:05Z</time>
      </trkpt>
      <trkpt lat="59.292804021388292" lon="8.193828016519547">
        <ele>1036.46484375</ele>
        <time>2019-08-21T13:14:06Z</time>
      </trkpt>
      <trkpt lat="59.292804021388292" lon="8.193828016519547">
        <ele>1036.46484375</ele>
        <time>2019-08-21T13:14:07Z</time>
      </trkpt>
      <trkpt lat="59.292804021388292" lon="8.193828016519547">
        <ele>1036.46484375</ele>
        <time>2019-08-21T13:14:08Z</time>
      </trkpt>
      <trkpt lat="59.292804021388292" lon="8.193828016519547">
        <ele>1036.46484375</ele>
        <time>2019-08-21T13:14:09Z</time>
      </trkpt>
      <trkpt lat="59.292804021388292" lon="8.193828016519547">
        <ele>1036.46484375</ele>
        <time>2019-08-21T13:14:10Z</time>
      </trkpt>
      <trkpt lat="59.292804021388292" lon="8.193828016519547">
        <ele>1036.46484375</ele>
        <time>2019-08-21T13:14:11Z</time>
      </trkpt>
      <trkpt lat="59.292804021388292" lon="8.193828016519547">
        <ele>1036.46484375</ele>
        <time>2019-08-21T13:14:12Z</time>
      </trkpt>
      <trkpt lat="59.292804021388292" lon="8.193828016519547">
        <ele>1036.46484375</ele>
        <time>2019-08-21T13:14:13Z</time>
      </trkpt>
      <trkpt lat="59.292804021388292" lon="8.193828016519547">
        <ele>1036.46484375</ele>
        <time>2019-08-21T13:14:14Z</time>
      </trkpt>
      <trkpt lat="59.292804021388292" lon="8.193828016519547">
        <ele>1036.46484375</ele>
        <time>2019-08-21T13:14:15Z</time>
      </trkpt>
      <trkpt lat="59.292804021388292" lon="8.193828016519547">
        <ele>1036.46484375</ele>
        <time>2019-08-21T13:14:16Z</time>
      </trkpt>
      <trkpt lat="59.292804021388292" lon="8.193828016519547">
        <ele>1036.46484375</ele>
        <time>2019-08-21T13:14:17Z</time>
      </trkpt>
      <trkpt lat="59.292804021388292" lon="8.193828016519547">
        <ele>1036.46484375</ele>
        <time>2019-08-21T13:14:18Z</time>
      </trkpt>
      <trkpt lat="59.292804021388292" lon="8.193828016519547">
        <ele>1036.46484375</ele>
        <time>2019-08-21T13:14:19Z</time>
      </trkpt>
      <trkpt lat="59.292804021388292" lon="8.193828016519547">
        <ele>1036.46484375</ele>
        <time>2019-08-21T13:14:20Z</time>
      </trkpt>
      <trkpt lat="59.292804021388292" lon="8.193828016519547">
        <ele>1036.46484375</ele>
        <time>2019-08-21T13:14:21Z</time>
      </trkpt>
      <trkpt lat="59.292804021388292" lon="8.193828016519547">
        <ele>1036.46484375</ele>
        <time>2019-08-21T13:14:22Z</time>
      </trkpt>
      <trkpt lat="59.292804021388292" lon="8.193828016519547">
        <ele>1036.46484375</ele>
        <time>2019-08-21T13:14:23Z</time>
      </trkpt>
      <trkpt lat="59.292804021388292" lon="8.193828016519547">
        <ele>1036.46484375</ele>
        <time>2019-08-21T13:14:24Z</time>
      </trkpt>
      <trkpt lat="59.292804021388292" lon="8.193828016519547">
        <ele>1036.46484375</ele>
        <time>2019-08-21T13:14:25Z</time>
      </trkpt>
      <trkpt lat="59.292804021388292" lon="8.193828016519547">
        <ele>1036.46484375</ele>
        <time>2019-08-21T13:14:26Z</time>
      </trkpt>
      <trkpt lat="59.292804021388292" lon="8.193828016519547">
        <ele>1036.46484375</ele>
        <time>2019-08-21T13:14:27Z</time>
      </trkpt>
      <trkpt lat="59.292804021388292" lon="8.193828016519547">
        <ele>1036.46484375</ele>
        <time>2019-08-21T13:14:28Z</time>
      </trkpt>
      <trkpt lat="59.292804021388292" lon="8.193828016519547">
        <ele>1036.46484375</ele>
        <time>2019-08-21T13:14:29Z</time>
      </trkpt>
      <trkpt lat="59.292804021388292" lon="8.193828016519547">
        <ele>1036.46484375</ele>
        <time>2019-08-21T13:14:30Z</time>
      </trkpt>
      <trkpt lat="59.292804021388292" lon="8.193829022347927">
        <ele>1036.48046875</ele>
        <time>2019-08-21T13:14:31Z</time>
      </trkpt>
      <trkpt lat="59.292804021388292" lon="8.193829022347927">
        <ele>1036.48046875</ele>
        <time>2019-08-21T13:14:32Z</time>
      </trkpt>
      <trkpt lat="59.292804021388292" lon="8.193829022347927">
        <ele>1036.48046875</ele>
        <time>2019-08-21T13:14:33Z</time>
      </trkpt>
      <trkpt lat="59.292804021388292" lon="8.193829022347927">
        <ele>1036.48046875</ele>
        <time>2019-08-21T13:14:34Z</time>
      </trkpt>
      <trkpt lat="59.292804021388292" lon="8.193829022347927">
        <ele>1036.48046875</ele>
        <time>2019-08-21T13:14:35Z</time>
      </trkpt>
      <trkpt lat="59.292804021388292" lon="8.193829022347927">
        <ele>1036.48046875</ele>
        <time>2019-08-21T13:14:36Z</time>
      </trkpt>
      <trkpt lat="59.292804021388292" lon="8.193829022347927">
        <ele>1036.48046875</ele>
        <time>2019-08-21T13:14:37Z</time>
      </trkpt>
      <trkpt lat="59.292804021388292" lon="8.193829022347927">
        <ele>1036.48046875</ele>
        <time>2019-08-21T13:14:38Z</time>
      </trkpt>
      <trkpt lat="59.292804021388292" lon="8.193829022347927">
        <ele>1036.48046875</ele>
        <time>2019-08-21T13:14:39Z</time>
      </trkpt>
      <trkpt lat="59.292804021388292" lon="8.193829022347927">
        <ele>1036.48046875</ele>
        <time>2019-08-21T13:14:40Z</time>
      </trkpt>
      <trkpt lat="59.292804021388292" lon="8.193829022347927">
        <ele>1036.48046875</ele>
        <time>2019-08-21T13:14:41Z</time>
      </trkpt>
      <trkpt lat="59.292804021388292" lon="8.193829022347927">
        <ele>1036.48046875</ele>
        <time>2019-08-21T13:14:42Z</time>
      </trkpt>
      <trkpt lat="59.292804021388292" lon="8.193829022347927">
        <ele>1036.48046875</ele>
        <time>2019-08-21T13:14:43Z</time>
      </trkpt>
      <trkpt lat="59.292804021388292" lon="8.193829022347927">
        <ele>1036.48046875</ele>
        <time>2019-08-21T13:14:44Z</time>
      </trkpt>
      <trkpt lat="59.292804021388292" lon="8.193829022347927">
        <ele>1036.48046875</ele>
        <time>2019-08-21T13:14:45Z</time>
      </trkpt>
      <trkpt lat="59.292804021388292" lon="8.193829022347927">
        <ele>1036.48046875</ele>
        <time>2019-08-21T13:14:46Z</time>
      </trkpt>
      <trkpt lat="59.292804021388292" lon="8.193829022347927">
        <ele>1036.48046875</ele>
        <time>2019-08-21T13:14:47Z</time>
      </trkpt>
      <trkpt lat="59.292804021388292" lon="8.193829022347927">
        <ele>1036.48046875</ele>
        <time>2019-08-21T13:14:48Z</time>
      </trkpt>
      <trkpt lat="59.292804021388292" lon="8.193829022347927">
        <ele>1036.48046875</ele>
        <time>2019-08-21T13:14:49Z</time>
      </trkpt>
      <trkpt lat="59.292804021388292" lon="8.193829022347927">
        <ele>1036.48046875</ele>
        <time>2019-08-21T13:14:50Z</time>
      </trkpt>
      <trkpt lat="59.292804021388292" lon="8.193829022347927">
        <ele>1036.48046875</ele>
        <time>2019-08-21T13:14:51Z</time>
      </trkpt>
      <trkpt lat="59.292804021388292" lon="8.193829022347927">
        <ele>1036.48046875</ele>
        <time>2019-08-21T13:14:52Z</time>
      </trkpt>
      <trkpt lat="59.292804021388292" lon="8.193830028176308">
        <ele>1036.5</ele>
        <time>2019-08-21T13:14:53Z</time>
      </trkpt>
      <trkpt lat="59.292804021388292" lon="8.193830028176308">
        <ele>1036.5</ele>
        <time>2019-08-21T13:14:54Z</time>
      </trkpt>
      <trkpt lat="59.292803015559912" lon="8.193833967670798">
        <ele>1036.578125</ele>
        <time>2019-08-21T13:14:55Z</time>
      </trkpt>
      <trkpt lat="59.292801003903151" lon="8.193893982097507">
        <ele>1037.6953125</ele>
        <time>2019-08-21T13:14:57Z</time>
      </trkpt>
      <trkpt lat="59.292802009731531" lon="8.193916026502848">
        <ele>1037.81640625</ele>
        <time>2019-08-21T13:14:58Z</time>
      </trkpt>
      <trkpt lat="59.292798992246389" lon="8.193930024281144">
        <ele>1037.875</ele>
        <time>2019-08-21T13:14:59Z</time>
      </trkpt>
      <trkpt lat="59.292795974761248" lon="8.193941004574299">
        <ele>1037.91796875</ele>
        <time>2019-08-21T13:15:00Z</time>
      </trkpt>
      <trkpt lat="59.292795974761248" lon="8.193960031494498">
        <ele>1037.9921875</ele>
        <time>2019-08-21T13:15:01Z</time>
      </trkpt>
      <trkpt lat="59.292793041095138" lon="8.193989032879472">
        <ele>1038.09375</ele>
        <time>2019-08-21T13:15:02Z</time>
      </trkpt>
      <trkpt lat="59.292790023609996" lon="8.194009987637401">
        <ele>1038.16015625</ele>
        <time>2019-08-21T13:15:03Z</time>
      </trkpt>
      <trkpt lat="59.292783988639712" lon="8.194030020385981">
        <ele>1038.20703125</ele>
        <time>2019-08-21T13:15:04Z</time>
      </trkpt>
      <trkpt lat="59.292781976982951" lon="8.194048041477799">
        <ele>1038.25390625</ele>
        <time>2019-08-21T13:15:05Z</time>
      </trkpt>
      <trkpt lat="59.292780971154571" lon="8.194067990407348">
        <ele>1038.3125</ele>
        <time>2019-08-21T13:15:06Z</time>
      </trkpt>
      <trkpt lat="59.292778959497809" lon="8.194086011499167">
        <ele>1038.35546875</ele>
        <time>2019-08-21T13:15:07Z</time>
      </trkpt>
      <trkpt lat="59.292776025831699" lon="8.194103026762605">
        <ele>1038.3828125</ele>
        <time>2019-08-21T13:15:08Z</time>
      </trkpt>
      <trkpt lat="59.292774014174938" lon="8.194117024540901">
        <ele>1038.40625</ele>
        <time>2019-08-21T13:15:09Z</time>
      </trkpt>
      <trkpt lat="59.292772002518177" lon="8.194131022319198">
        <ele>1038.42578125</ele>
        <time>2019-08-21T13:15:10Z</time>
      </trkpt>
      <trkpt lat="59.292765967547894" lon="8.194146025925875">
        <ele>1038.40625</ele>
        <time>2019-08-21T13:15:11Z</time>
      </trkpt>
      <trkpt lat="59.292760016396642" lon="8.194154994562268">
        <ele>1038.3046875</ele>
        <time>2019-08-21T13:15:12Z</time>
      </trkpt>
      <trkpt lat="59.2927569989115" lon="8.194163041189313">
        <ele>1038.20703125</ele>
        <time>2019-08-21T13:15:13Z</time>
      </trkpt>
      <trkpt lat="59.292755993083119" lon="8.194173015654087">
        <ele>1038.19140625</ele>
        <time>2019-08-21T13:15:14Z</time>
      </trkpt>
      <trkpt lat="59.292753981426358" lon="8.194186007604003">
        <ele>1038.28515625</ele>
        <time>2019-08-21T13:15:15Z</time>
      </trkpt>
      <trkpt lat="59.292748030275106" lon="8.194209979847074">
        <ele>1038.40234375</ele>
        <time>2019-08-21T13:15:16Z</time>
      </trkpt>
      <trkpt lat="59.292749958112836" lon="8.194226995110512">
        <ele>1038.71875</ele>
        <time>2019-08-21T13:15:17Z</time>
      </trkpt>
      <trkpt lat="59.292753981426358" lon="8.194226995110512">
        <ele>1038.875</ele>
        <time>2019-08-21T13:15:18Z</time>
      </trkpt>
      <trkpt lat="59.292752975597978" lon="8.194229006767273">
        <ele>1038.86328125</ele>
        <time>2019-08-21T13:15:19Z</time>
      </trkpt>
      <trkpt lat="59.292754987254739" lon="8.194229006767273">
        <ele>1038.94140625</ele>
        <time>2019-08-21T13:15:20Z</time>
      </trkpt>
      <trkpt lat="59.292755993083119" lon="8.194230012595654">
        <ele>1038.9921875</ele>
        <time>2019-08-21T13:15:21Z</time>
      </trkpt>
      <trkpt lat="59.292755993083119" lon="8.194230012595654">
        <ele>1038.9921875</ele>
        <time>2019-08-21T13:15:22Z</time>
      </trkpt>
      <trkpt lat="59.292755993083119" lon="8.194229006767273">
        <ele>1038.98046875</ele>
        <time>2019-08-21T13:15:23Z</time>
      </trkpt>
      <trkpt lat="59.292753981426358" lon="8.194235041737557">
        <ele>1038.98828125</ele>
        <time>2019-08-21T13:15:24Z</time>
      </trkpt>
      <trkpt lat="59.292748030275106" lon="8.194241998717189">
        <ele>1038.859375</ele>
        <time>2019-08-21T13:15:25Z</time>
      </trkpt>
      <trkpt lat="59.292743001133204" lon="8.194253984838724">
        <ele>1038.83984375</ele>
        <time>2019-08-21T13:15:26Z</time>
      </trkpt>
      <trkpt lat="59.292739983648062" lon="8.194263037294149">
        <ele>1038.85546875</ele>
        <time>2019-08-21T13:15:27Z</time>
      </trkpt>
      <trkpt lat="59.292739983648062" lon="8.194265970960259">
        <ele>1038.8984375</ele>
        <time>2019-08-21T13:15:28Z</time>
      </trkpt>
      <trkpt lat="59.292746018618345" lon="8.19426697678864">
        <ele>1039.140625</ele>
        <time>2019-08-21T13:15:29Z</time>
      </trkpt>
      <trkpt lat="59.292749958112836" lon="8.194268988445401">
        <ele>1039.3203125</ele>
        <time>2019-08-21T13:15:30Z</time>
      </trkpt>
      <trkpt lat="59.292750963941216" lon="8.194267982617021">
        <ele>1039.34375</ele>
        <time>2019-08-21T13:15:31Z</time>
      </trkpt>
      <trkpt lat="59.292750963941216" lon="8.19426697678864">
        <ele>1039.33203125</ele>
        <time>2019-08-21T13:15:32Z</time>
      </trkpt>
      <trkpt lat="59.292750963941216" lon="8.194265970960259">
        <ele>1039.31640625</ele>
        <time>2019-08-21T13:15:33Z</time>
      </trkpt>
      <trkpt lat="59.292750963941216" lon="8.19426697678864">
        <ele>1039.33203125</ele>
        <time>2019-08-21T13:15:34Z</time>
      </trkpt>
      <trkpt lat="59.292750963941216" lon="8.194265970960259">
        <ele>1039.31640625</ele>
        <time>2019-08-21T13:15:35Z</time>
      </trkpt>
      <trkpt lat="59.292749958112836" lon="8.19426697678864">
        <ele>1039.29296875</ele>
        <time>2019-08-21T13:15:36Z</time>
      </trkpt>
      <trkpt lat="59.292749958112836" lon="8.194267982617021">
        <ele>1039.30859375</ele>
        <time>2019-08-21T13:15:37Z</time>
      </trkpt>
      <trkpt lat="59.292749958112836" lon="8.194268988445401">
        <ele>1039.3203125</ele>
        <time>2019-08-21T13:15:38Z</time>
      </trkpt>
      <trkpt lat="59.292749958112836" lon="8.194268988445401">
        <ele>1039.3203125</ele>
        <time>2019-08-21T13:15:39Z</time>
      </trkpt>
      <trkpt lat="59.292749958112836" lon="8.194268988445401">
        <ele>1039.3203125</ele>
        <time>2019-08-21T13:15:40Z</time>
      </trkpt>
      <trkpt lat="59.292749958112836" lon="8.194268988445401">
        <ele>1039.3203125</ele>
        <time>2019-08-21T13:15:41Z</time>
      </trkpt>
      <trkpt lat="59.292749958112836" lon="8.194268988445401">
        <ele>1039.3203125</ele>
        <time>2019-08-21T13:15:42Z</time>
      </trkpt>
      <trkpt lat="59.292749036103487" lon="8.194268988445401">
        <ele>1039.28515625</ele>
        <time>2019-08-21T13:15:43Z</time>
      </trkpt>
      <trkpt lat="59.292749036103487" lon="8.194268988445401">
        <ele>1039.28515625</ele>
        <time>2019-08-21T13:15:44Z</time>
      </trkpt>
      <trkpt lat="59.292749036103487" lon="8.194269994273782">
        <ele>1039.30078125</ele>
        <time>2019-08-21T13:15:45Z</time>
      </trkpt>
      <trkpt lat="59.292749036103487" lon="8.194269994273782">
        <ele>1039.30078125</ele>
        <time>2019-08-21T13:15:46Z</time>
      </trkpt>
      <trkpt lat="59.292749036103487" lon="8.194269994273782">
        <ele>1039.30078125</ele>
        <time>2019-08-21T13:15:47Z</time>
      </trkpt>
      <trkpt lat="59.292749036103487" lon="8.194269994273782">
        <ele>1039.30078125</ele>
        <time>2019-08-21T13:15:48Z</time>
      </trkpt>
      <trkpt lat="59.292749036103487" lon="8.194269994273782">
        <ele>1039.30078125</ele>
        <time>2019-08-21T13:15:49Z</time>
      </trkpt>
      <trkpt lat="59.292749036103487" lon="8.194269994273782">
        <ele>1039.30078125</ele>
        <time>2019-08-21T13:15:50Z</time>
      </trkpt>
      <trkpt lat="59.292749036103487" lon="8.194269994273782">
        <ele>1039.30078125</ele>
        <time>2019-08-21T13:15:51Z</time>
      </trkpt>
      <trkpt lat="59.292749036103487" lon="8.194269994273782">
        <ele>1039.30078125</ele>
        <time>2019-08-21T13:15:52Z</time>
      </trkpt>
      <trkpt lat="59.292749036103487" lon="8.194269994273782">
        <ele>1039.30078125</ele>
        <time>2019-08-21T13:15:53Z</time>
      </trkpt>
      <trkpt lat="59.292749036103487" lon="8.194271000102162">
        <ele>1039.31640625</ele>
        <time>2019-08-21T13:15:54Z</time>
      </trkpt>
      <trkpt lat="59.292749036103487" lon="8.194269994273782">
        <ele>1039.30078125</ele>
        <time>2019-08-21T13:15:55Z</time>
      </trkpt>
      <trkpt lat="59.292749036103487" lon="8.194271000102162">
        <ele>1039.31640625</ele>
        <time>2019-08-21T13:15:56Z</time>
      </trkpt>
      <trkpt lat="59.292749036103487" lon="8.194271000102162">
        <ele>1039.31640625</ele>
        <time>2019-08-21T13:15:57Z</time>
      </trkpt>
      <trkpt lat="59.292749036103487" lon="8.194269994273782">
        <ele>1039.30078125</ele>
        <time>2019-08-21T13:15:58Z</time>
      </trkpt>
      <trkpt lat="59.292749036103487" lon="8.194271000102162">
        <ele>1039.31640625</ele>
        <time>2019-08-21T13:15:59Z</time>
      </trkpt>
      <trkpt lat="59.292749036103487" lon="8.194271000102162">
        <ele>1039.31640625</ele>
        <time>2019-08-21T13:16:00Z</time>
      </trkpt>
      <trkpt lat="59.292749036103487" lon="8.194271000102162">
        <ele>1039.31640625</ele>
        <time>2019-08-21T13:16:01Z</time>
      </trkpt>
      <trkpt lat="59.292749036103487" lon="8.194271000102162">
        <ele>1039.31640625</ele>
        <time>2019-08-21T13:16:02Z</time>
      </trkpt>
      <trkpt lat="59.292749036103487" lon="8.194271000102162">
        <ele>1039.31640625</ele>
        <time>2019-08-21T13:16:03Z</time>
      </trkpt>
      <trkpt lat="59.292749036103487" lon="8.194271000102162">
        <ele>1039.31640625</ele>
        <time>2019-08-21T13:16:04Z</time>
      </trkpt>
      <trkpt lat="59.292749036103487" lon="8.194271000102162">
        <ele>1039.31640625</ele>
        <time>2019-08-21T13:16:05Z</time>
      </trkpt>
      <trkpt lat="59.292749036103487" lon="8.194271000102162">
        <ele>1039.31640625</ele>
        <time>2019-08-21T13:16:06Z</time>
      </trkpt>
      <trkpt lat="59.292749036103487" lon="8.194271000102162">
        <ele>1039.31640625</ele>
        <time>2019-08-21T13:16:07Z</time>
      </trkpt>
      <trkpt lat="59.292749036103487" lon="8.194271000102162">
        <ele>1039.31640625</ele>
        <time>2019-08-21T13:16:08Z</time>
      </trkpt>
      <trkpt lat="59.292749036103487" lon="8.194271000102162">
        <ele>1039.31640625</ele>
        <time>2019-08-21T13:16:09Z</time>
      </trkpt>
      <trkpt lat="59.292749036103487" lon="8.194271000102162">
        <ele>1039.31640625</ele>
        <time>2019-08-21T13:16:10Z</time>
      </trkpt>
      <trkpt lat="59.292749036103487" lon="8.194271000102162">
        <ele>1039.31640625</ele>
        <time>2019-08-21T13:16:11Z</time>
      </trkpt>
      <trkpt lat="59.292749036103487" lon="8.194271000102162">
        <ele>1039.31640625</ele>
        <time>2019-08-21T13:16:12Z</time>
      </trkpt>
      <trkpt lat="59.292749036103487" lon="8.194271000102162">
        <ele>1039.31640625</ele>
        <time>2019-08-21T13:16:13Z</time>
      </trkpt>
      <trkpt lat="59.292749036103487" lon="8.194271000102162">
        <ele>1039.31640625</ele>
        <time>2019-08-21T13:16:14Z</time>
      </trkpt>
      <trkpt lat="59.292749036103487" lon="8.194271000102162">
        <ele>1039.31640625</ele>
        <time>2019-08-21T13:16:15Z</time>
      </trkpt>
      <trkpt lat="59.292749036103487" lon="8.194271000102162">
        <ele>1039.31640625</ele>
        <time>2019-08-21T13:16:16Z</time>
      </trkpt>
      <trkpt lat="59.292749036103487" lon="8.194271000102162">
        <ele>1039.31640625</ele>
        <time>2019-08-21T13:16:17Z</time>
      </trkpt>
      <trkpt lat="59.292749036103487" lon="8.194271000102162">
        <ele>1039.31640625</ele>
        <time>2019-08-21T13:16:18Z</time>
      </trkpt>
      <trkpt lat="59.292749036103487" lon="8.194271000102162">
        <ele>1039.31640625</ele>
        <time>2019-08-21T13:16:19Z</time>
      </trkpt>
      <trkpt lat="59.292749036103487" lon="8.194271000102162">
        <ele>1039.31640625</ele>
        <time>2019-08-21T13:16:20Z</time>
      </trkpt>
      <trkpt lat="59.292749036103487" lon="8.194271000102162">
        <ele>1039.31640625</ele>
        <time>2019-08-21T13:16:21Z</time>
      </trkpt>
      <trkpt lat="59.292749036103487" lon="8.194271000102162">
        <ele>1039.31640625</ele>
        <time>2019-08-21T13:16:22Z</time>
      </trkpt>
      <trkpt lat="59.292749036103487" lon="8.194271000102162">
        <ele>1039.31640625</ele>
        <time>2019-08-21T13:16:23Z</time>
      </trkpt>
      <trkpt lat="59.292749036103487" lon="8.194271000102162">
        <ele>1039.31640625</ele>
        <time>2019-08-21T13:16:24Z</time>
      </trkpt>
      <trkpt lat="59.292749036103487" lon="8.194271000102162">
        <ele>1039.31640625</ele>
        <time>2019-08-21T13:16:25Z</time>
      </trkpt>
      <trkpt lat="59.292749036103487" lon="8.194271000102162">
        <ele>1039.31640625</ele>
        <time>2019-08-21T13:16:26Z</time>
      </trkpt>
      <trkpt lat="59.292749036103487" lon="8.194271000102162">
        <ele>1039.31640625</ele>
        <time>2019-08-21T13:16:27Z</time>
      </trkpt>
      <trkpt lat="59.292749036103487" lon="8.194293966516852">
        <ele>1039.64453125</ele>
        <time>2019-08-21T13:16:28Z</time>
      </trkpt>
      <trkpt lat="59.292749036103487" lon="8.194315005093813">
        <ele>1039.9453125</ele>
        <time>2019-08-21T13:16:29Z</time>
      </trkpt>
      <trkpt lat="59.292748030275106" lon="8.194333026185632">
        <ele>1040.1640625</ele>
        <time>2019-08-21T13:16:30Z</time>
      </trkpt>
      <trkpt lat="59.292749036103487" lon="8.194347023963928">
        <ele>1040.40625</ele>
        <time>2019-08-21T13:16:31Z</time>
      </trkpt>
      <trkpt lat="59.292744006961584" lon="8.194360015913844">
        <ele>1040.40234375</ele>
        <time>2019-08-21T13:16:32Z</time>
      </trkpt>
      <trkpt lat="59.292738977819681" lon="8.194372002035379">
        <ele>1040.3828125</ele>
        <time>2019-08-21T13:16:33Z</time>
      </trkpt>
      <trkpt lat="59.29273696616292" lon="8.194381976500154">
        <ele>1040.453125</ele>
        <time>2019-08-21T13:16:34Z</time>
      </trkpt>
      <trkpt lat="59.29273403249681" lon="8.19439304061234">
        <ele>1040.5</ele>
        <time>2019-08-21T13:16:35Z</time>
      </trkpt>
      <trkpt lat="59.292731015011668" lon="8.194404020905495">
        <ele>1040.546875</ele>
        <time>2019-08-21T13:16:36Z</time>
      </trkpt>
      <trkpt lat="59.292726991698146" lon="8.194419024512172">
        <ele>1040.609375</ele>
        <time>2019-08-21T13:16:37Z</time>
      </trkpt>
      <trkpt lat="59.292721962556243" lon="8.194436961784959">
        <ele>1040.68359375</ele>
        <time>2019-08-21T13:16:38Z</time>
      </trkpt>
      <trkpt lat="59.292719028890133" lon="8.194455988705158">
        <ele>1040.83203125</ele>
        <time>2019-08-21T13:16:39Z</time>
      </trkpt>
      <trkpt lat="59.292717017233372" lon="8.194475015625358">
        <ele>1040.9609375</ele>
        <time>2019-08-21T13:16:40Z</time>
      </trkpt>
      <trkpt lat="59.292716011404991" lon="8.194492030888796">
        <ele>1041.10546875</ele>
        <time>2019-08-21T13:16:41Z</time>
      </trkpt>
      <trkpt lat="59.29271399974823" lon="8.194506028667092">
        <ele>1041.18359375</ele>
        <time>2019-08-21T13:16:42Z</time>
      </trkpt>
      <trkpt lat="59.292712993919849" lon="8.194514997303486">
        <ele>1041.24609375</ele>
        <time>2019-08-21T13:16:43Z</time>
      </trkpt>
      <trkpt lat="59.292712993919849" lon="8.194525977596641">
        <ele>1041.3671875</ele>
        <time>2019-08-21T13:16:44Z</time>
      </trkpt>
      <trkpt lat="59.292708970606327" lon="8.194538969546557">
        <ele>1041.36328125</ele>
        <time>2019-08-21T13:16:45Z</time>
      </trkpt>
      <trkpt lat="59.292704025283456" lon="8.194551961496472">
        <ele>1041.33203125</ele>
        <time>2019-08-21T13:16:46Z</time>
      </trkpt>
      <trkpt lat="59.292697990313172" lon="8.19456503726542">
        <ele>1041.26171875</ele>
        <time>2019-08-21T13:16:47Z</time>
      </trkpt>
      <trkpt lat="59.292692961171269" lon="8.194577023386955">
        <ele>1041.22265625</ele>
        <time>2019-08-21T13:16:48Z</time>
      </trkpt>
      <trkpt lat="59.292688015848398" lon="8.194593032822013">
        <ele>1041.23046875</ele>
        <time>2019-08-21T13:16:49Z</time>
      </trkpt>
      <trkpt lat="59.292683992534876" lon="8.194608958438039">
        <ele>1041.2734375</ele>
        <time>2019-08-21T13:16:50Z</time>
      </trkpt>
      <trkpt lat="59.292681980878115" lon="8.194621028378606">
        <ele>1041.34375</ele>
        <time>2019-08-21T13:16:51Z</time>
      </trkpt>
      <trkpt lat="59.292681980878115" lon="8.194632008671761">
        <ele>1041.46875</ele>
        <time>2019-08-21T13:16:52Z</time>
      </trkpt>
      <trkpt lat="59.292682986706495" lon="8.194637959823012">
        <ele>1041.5703125</ele>
        <time>2019-08-21T13:16:53Z</time>
      </trkpt>
      <trkpt lat="59.292683992534876" lon="8.194652041420341">
        <ele>1041.765625</ele>
        <time>2019-08-21T13:16:54Z</time>
      </trkpt>
      <trkpt lat="59.292679969221354" lon="8.194692023098469">
        <ele>1042.08984375</ele>
        <time>2019-08-21T13:16:56Z</time>
      </trkpt>
      <trkpt lat="59.292678041383624" lon="8.194708032533526">
        <ele>1042.21484375</ele>
        <time>2019-08-21T13:16:57Z</time>
      </trkpt>
      <trkpt lat="59.292680975049734" lon="8.194723958149552">
        <ele>1042.4921875</ele>
        <time>2019-08-21T13:16:58Z</time>
      </trkpt>
      <trkpt lat="59.292682986706495" lon="8.194740973412991">
        <ele>1042.6875</ele>
        <time>2019-08-21T13:16:59Z</time>
      </trkpt>
      <trkpt lat="59.292689021676779" lon="8.19476000033319">
        <ele>1042.98828125</ele>
        <time>2019-08-21T13:17:00Z</time>
      </trkpt>
      <trkpt lat="59.292700001969934" lon="8.194783972576261">
        <ele>1043.46484375</ele>
        <time>2019-08-21T13:17:01Z</time>
      </trkpt>
      <trkpt lat="59.292697990313172" lon="8.194811968132854">
        <ele>1043.5625</ele>
        <time>2019-08-21T13:17:02Z</time>
      </trkpt>
      <trkpt lat="59.292695978656411" lon="8.194835018366575">
        <ele>1043.6328125</ele>
        <time>2019-08-21T13:17:03Z</time>
      </trkpt>
      <trkpt lat="59.292692961171269" lon="8.194853961467743">
        <ele>1043.65234375</ele>
        <time>2019-08-21T13:17:04Z</time>
      </trkpt>
      <trkpt lat="59.292689021676779" lon="8.194892015308142">
        <ele>1043.7578125</ele>
        <time>2019-08-21T13:17:06Z</time>
      </trkpt>
      <trkpt lat="59.292690027505159" lon="8.194908024743199">
        <ele>1043.87890625</ele>
        <time>2019-08-21T13:17:07Z</time>
      </trkpt>
      <trkpt lat="59.292692039161921" lon="8.194925040006638">
        <ele>1044.03515625</ele>
        <time>2019-08-21T13:17:08Z</time>
      </trkpt>
      <trkpt lat="59.29269103333354" lon="8.194944988936186">
        <ele>1044.12109375</ele>
        <time>2019-08-21T13:17:09Z</time>
      </trkpt>
      <trkpt lat="59.292686004191637" lon="8.194962004199624">
        <ele>1044.0859375</ele>
        <time>2019-08-21T13:17:10Z</time>
      </trkpt>
      <trkpt lat="59.292687010020018" lon="8.194978013634682">
        <ele>1044.20703125</ele>
        <time>2019-08-21T13:17:11Z</time>
      </trkpt>
      <trkpt lat="59.292682986706495" lon="8.194989999756217">
        <ele>1044.16796875</ele>
        <time>2019-08-21T13:17:12Z</time>
      </trkpt>
      <trkpt lat="59.292676029726863" lon="8.195000980049372">
        <ele>1044.05078125</ele>
        <time>2019-08-21T13:17:13Z</time>
      </trkpt>
      <trkpt lat="59.292666977271438" lon="8.195041967555881">
        <ele>1044.06640625</ele>
        <time>2019-08-21T13:17:15Z</time>
      </trkpt>
      <trkpt lat="59.292664965614676" lon="8.195062000304461">
        <ele>1044.13671875</ele>
        <time>2019-08-21T13:17:16Z</time>
      </trkpt>
      <trkpt lat="59.292663037776947" lon="8.19508102722466">
        <ele>1044.203125</ele>
        <time>2019-08-21T13:17:17Z</time>
      </trkpt>
      <trkpt lat="59.292661026120186" lon="8.195099970325828">
        <ele>1044.265625</ele>
        <time>2019-08-21T13:17:18Z</time>
      </trkpt>
      <trkpt lat="59.292660020291805" lon="8.195120003074408">
        <ele>1044.36328125</ele>
        <time>2019-08-21T13:17:19Z</time>
      </trkpt>
      <trkpt lat="59.292657002806664" lon="8.195141041651368">
        <ele>1044.4140625</ele>
        <time>2019-08-21T13:17:20Z</time>
      </trkpt>
      <trkpt lat="59.292652979493141" lon="8.195159984752536">
        <ele>1044.421875</ele>
        <time>2019-08-21T13:17:21Z</time>
      </trkpt>
      <trkpt lat="59.292652979493141" lon="8.195181023329496">
        <ele>1044.55078125</ele>
        <time>2019-08-21T13:17:22Z</time>
      </trkpt>
      <trkpt lat="59.292649039998651" lon="8.195198960602284">
        <ele>1044.5546875</ele>
        <time>2019-08-21T13:17:23Z</time>
      </trkpt>
      <trkpt lat="59.292645016685128" lon="8.195212036371231">
        <ele>1044.5234375</ele>
        <time>2019-08-21T13:17:24Z</time>
      </trkpt>
      <trkpt lat="59.292641999199986" lon="8.195224022492766">
        <ele>1044.515625</ele>
        <time>2019-08-21T13:17:25Z</time>
      </trkpt>
      <trkpt lat="59.292640993371606" lon="8.195239026099443">
        <ele>1044.58203125</ele>
        <time>2019-08-21T13:17:26Z</time>
      </trkpt>
      <trkpt lat="59.292640993371606" lon="8.195259980857372">
        <ele>1044.70703125</ele>
        <time>2019-08-21T13:17:27Z</time>
      </trkpt>
      <trkpt lat="59.292637975886464" lon="8.195282025262713">
        <ele>1044.76171875</ele>
        <time>2019-08-21T13:17:28Z</time>
      </trkpt>
      <trkpt lat="59.292637975886464" lon="8.195304991677404">
        <ele>1044.96484375</ele>
        <time>2019-08-21T13:17:29Z</time>
      </trkpt>
      <trkpt lat="59.292635964229703" lon="8.195327036082745">
        <ele>1045.109375</ele>
        <time>2019-08-21T13:17:30Z</time>
      </trkpt>
      <trkpt lat="59.292632024735212" lon="8.195350002497435">
        <ele>1045.21875</ele>
        <time>2019-08-21T13:17:31Z</time>
      </trkpt>
      <trkpt lat="59.292624983936548" lon="8.195369029417634">
        <ele>1045.20703125</ele>
        <time>2019-08-21T13:17:32Z</time>
      </trkpt>
      <trkpt lat="59.292617021128535" lon="8.195385038852692">
        <ele>1045.1484375</ele>
        <time>2019-08-21T13:17:33Z</time>
      </trkpt>
      <trkpt lat="59.29260796867311" lon="8.195398030802608">
        <ele>1045.03125</ele>
        <time>2019-08-21T13:17:34Z</time>
      </trkpt>
      <trkpt lat="59.292603023350239" lon="8.195414962247014">
        <ele>1045.06640625</ele>
        <time>2019-08-21T13:17:35Z</time>
      </trkpt>
      <trkpt lat="59.292600005865097" lon="8.195438012480736">
        <ele>1045.2109375</ele>
        <time>2019-08-21T13:17:36Z</time>
      </trkpt>
      <trkpt lat="59.292593970894814" lon="8.195458967238665">
        <ele>1045.2578125</ele>
        <time>2019-08-21T13:17:37Z</time>
      </trkpt>
      <trkpt lat="59.292586008086801" lon="8.195473970845342">
        <ele>1045.203125</ele>
        <time>2019-08-21T13:17:38Z</time>
      </trkpt>
      <trkpt lat="59.292580978944898" lon="8.195488974452019">
        <ele>1045.22265625</ele>
        <time>2019-08-21T13:17:39Z</time>
      </trkpt>
      <trkpt lat="59.292575027793646" lon="8.195508001372218">
        <ele>1045.26171875</ele>
        <time>2019-08-21T13:17:40Z</time>
      </trkpt>
      <trkpt lat="59.292567986994982" lon="8.195529039949179">
        <ele>1045.296875</ele>
        <time>2019-08-21T13:17:41Z</time>
      </trkpt>
      <trkpt lat="59.29256203584373" lon="8.195548988878727">
        <ele>1045.35546875</ele>
        <time>2019-08-21T13:17:42Z</time>
      </trkpt>
      <trkpt lat="59.292556000873446" lon="8.195568015798926">
        <ele>1045.4140625</ele>
        <time>2019-08-21T13:17:43Z</time>
      </trkpt>
      <trkpt lat="59.292551977559924" lon="8.195587964728475">
        <ele>1045.5703125</ele>
        <time>2019-08-21T13:17:44Z</time>
      </trkpt>
      <trkpt lat="59.292548038065434" lon="8.195607997477055">
        <ele>1045.734375</ele>
        <time>2019-08-21T13:17:45Z</time>
      </trkpt>
      <trkpt lat="59.292544014751911" lon="8.195629036054015">
        <ele>1045.91015625</ele>
        <time>2019-08-21T13:17:46Z</time>
      </trkpt>
      <trkpt lat="59.292538985610008" lon="8.195648984983563">
        <ele>1046.05859375</ele>
        <time>2019-08-21T13:17:47Z</time>
      </trkpt>
      <trkpt lat="59.292534040287137" lon="8.195668011903763">
        <ele>1046.1953125</ele>
        <time>2019-08-21T13:17:48Z</time>
      </trkpt>
      <trkpt lat="59.292530016973615" lon="8.195687038823962">
        <ele>1046.359375</ele>
        <time>2019-08-21T13:17:49Z</time>
      </trkpt>
      <trkpt lat="59.292524987831712" lon="8.195704976096749">
        <ele>1046.4921875</ele>
        <time>2019-08-21T13:17:50Z</time>
      </trkpt>
      <trkpt lat="59.292519958689809" lon="8.195722997188568">
        <ele>1046.62890625</ele>
        <time>2019-08-21T13:17:51Z</time>
      </trkpt>
      <trkpt lat="59.292515013366938" lon="8.195744035765529">
        <ele>1046.81640625</ele>
        <time>2019-08-21T13:17:52Z</time>
      </trkpt>
      <trkpt lat="59.292510990053415" lon="8.195765996351838">
        <ele>1047.03515625</ele>
        <time>2019-08-21T13:17:53Z</time>
      </trkpt>
      <trkpt lat="59.292508978396654" lon="8.195788962766528">
        <ele>1047.3125</ele>
        <time>2019-08-21T13:17:54Z</time>
      </trkpt>
      <trkpt lat="59.292505960911512" lon="8.195815030485392">
        <ele>1047.61328125</ele>
        <time>2019-08-21T13:17:55Z</time>
      </trkpt>
      <trkpt lat="59.292502021417022" lon="8.195840008556843">
        <ele>1047.88671875</ele>
        <time>2019-08-21T13:17:56Z</time>
      </trkpt>
      <trkpt lat="59.292497998103499" lon="8.195861969143152">
        <ele>1048.12109375</ele>
        <time>2019-08-21T13:17:57Z</time>
      </trkpt>
      <trkpt lat="59.292494980618358" lon="8.195883007720113">
        <ele>1048.36328125</ele>
        <time>2019-08-21T13:17:58Z</time>
      </trkpt>
      <trkpt lat="59.292491041123867" lon="8.195903040468693">
        <ele>1048.58203125</ele>
        <time>2019-08-21T13:17:59Z</time>
      </trkpt>
      <trkpt lat="59.292487017810345" lon="8.195922989398241">
        <ele>1048.80078125</ele>
        <time>2019-08-21T13:18:00Z</time>
      </trkpt>
      <trkpt lat="59.292484000325203" lon="8.19594101049006">
        <ele>1049.0078125</ele>
        <time>2019-08-21T13:18:01Z</time>
      </trkpt>
      <trkpt lat="59.292484000325203" lon="8.195960037410259">
        <ele>1049.28125</ele>
        <time>2019-08-21T13:18:02Z</time>
      </trkpt>
      <trkpt lat="59.292482994496822" lon="8.195977974683046">
        <ele>1049.515625</ele>
        <time>2019-08-21T13:18:03Z</time>
      </trkpt>
      <trkpt lat="59.292482994496822" lon="8.195993984118104">
        <ele>1049.7421875</ele>
        <time>2019-08-21T13:18:04Z</time>
      </trkpt>
      <trkpt lat="59.292481988668442" lon="8.196003036573529">
        <ele>1049.8515625</ele>
        <time>2019-08-21T13:18:05Z</time>
      </trkpt>
      <trkpt lat="59.292481988668442" lon="8.196005970239639">
        <ele>1049.89453125</ele>
        <time>2019-08-21T13:18:06Z</time>
      </trkpt>
      <trkpt lat="59.292480982840061" lon="8.196007981896401">
        <ele>1049.8984375</ele>
        <time>2019-08-21T13:18:07Z</time>
      </trkpt>
      <trkpt lat="59.292480982840061" lon="8.196008987724781">
        <ele>1049.9140625</ele>
        <time>2019-08-21T13:18:08Z</time>
      </trkpt>
      <trkpt lat="59.292480982840061" lon="8.196008987724781">
        <ele>1049.9140625</ele>
        <time>2019-08-21T13:18:09Z</time>
      </trkpt>
      <trkpt lat="59.292481988668442" lon="8.196012005209923">
        <ele>1049.98046875</ele>
        <time>2019-08-21T13:18:10Z</time>
      </trkpt>
      <trkpt lat="59.292481988668442" lon="8.196012005209923">
        <ele>1049.98046875</ele>
        <time>2019-08-21T13:18:11Z</time>
      </trkpt>
      <trkpt lat="59.292481988668442" lon="8.196012005209923">
        <ele>1049.98046875</ele>
        <time>2019-08-21T13:18:12Z</time>
      </trkpt>
      <trkpt lat="59.2924789711833" lon="8.196022985503078">
        <ele>1050.07421875</ele>
        <time>2019-08-21T13:18:13Z</time>
      </trkpt>
      <trkpt lat="59.292477965354919" lon="8.196030026301742">
        <ele>1050.15234375</ele>
        <time>2019-08-21T13:18:14Z</time>
      </trkpt>
      <trkpt lat="59.2924789711833" lon="8.196032959967852">
        <ele>1050.21484375</ele>
        <time>2019-08-21T13:18:15Z</time>
      </trkpt>
      <trkpt lat="59.292479977011681" lon="8.196038994938135">
        <ele>1050.32421875</ele>
        <time>2019-08-21T13:18:16Z</time>
      </trkpt>
      <trkpt lat="59.2924789711833" lon="8.19604997523129">
        <ele>1050.4609375</ele>
        <time>2019-08-21T13:18:17Z</time>
      </trkpt>
      <trkpt lat="59.292477965354919" lon="8.196064978837967">
        <ele>1050.65625</ele>
        <time>2019-08-21T13:18:18Z</time>
      </trkpt>
      <trkpt lat="59.29247603751719" lon="8.196081994101405">
        <ele>1050.859375</ele>
        <time>2019-08-21T13:18:19Z</time>
      </trkpt>
      <trkpt lat="59.292475031688809" lon="8.196101021021605">
        <ele>1051.11328125</ele>
        <time>2019-08-21T13:18:20Z</time>
      </trkpt>
      <trkpt lat="59.292479977011681" lon="8.196147959679365">
        <ele>1051.78515625</ele>
        <time>2019-08-21T13:18:22Z</time>
      </trkpt>
      <trkpt lat="59.292481988668442" lon="8.196170004084706">
        <ele>1052.0703125</ele>
        <time>2019-08-21T13:18:23Z</time>
      </trkpt>
      <trkpt lat="59.2924789711833" lon="8.196191964671016">
        <ele>1052.2578125</ele>
        <time>2019-08-21T13:18:24Z</time>
      </trkpt>
      <trkpt lat="59.292476959526539" lon="8.196211997419596">
        <ele>1052.4453125</ele>
        <time>2019-08-21T13:18:25Z</time>
      </trkpt>
      <trkpt lat="59.29247603751719" lon="8.196228006854653">
        <ele>1052.609375</ele>
        <time>2019-08-21T13:18:26Z</time>
      </trkpt>
      <trkpt lat="59.29247603751719" lon="8.196245022118092">
        <ele>1052.796875</ele>
        <time>2019-08-21T13:18:27Z</time>
      </trkpt>
      <trkpt lat="59.292472014203668" lon="8.19628500379622">
        <ele>1053.18359375</ele>
        <time>2019-08-21T13:18:29Z</time>
      </trkpt>
      <trkpt lat="59.292471008375287" lon="8.196304030716419">
        <ele>1053.3828125</ele>
        <time>2019-08-21T13:18:30Z</time>
      </trkpt>
      <trkpt lat="59.292467990890145" lon="8.196325991302729">
        <ele>1053.5859375</ele>
        <time>2019-08-21T13:18:31Z</time>
      </trkpt>
      <trkpt lat="59.292465979233384" lon="8.196347029879689">
        <ele>1053.796875</ele>
        <time>2019-08-21T13:18:32Z</time>
      </trkpt>
      <trkpt lat="59.292462039738894" lon="8.196362033486366">
        <ele>1053.9140625</ele>
        <time>2019-08-21T13:18:33Z</time>
      </trkpt>
      <trkpt lat="59.29245600476861" lon="8.196375025436282">
        <ele>1053.98046875</ele>
        <time>2019-08-21T13:18:34Z</time>
      </trkpt>
      <trkpt lat="59.292449969798326" lon="8.196389023214579">
        <ele>1054.0625</ele>
        <time>2019-08-21T13:18:35Z</time>
      </trkpt>
      <trkpt lat="59.292443012818694" lon="8.196403020992875">
        <ele>1054.10546875</ele>
        <time>2019-08-21T13:18:36Z</time>
      </trkpt>
      <trkpt lat="59.292433960363269" lon="8.19641400128603">
        <ele>1054.08203125</ele>
        <time>2019-08-21T13:18:37Z</time>
      </trkpt>
      <trkpt lat="59.292425997555256" lon="8.196417018771172">
        <ele>1054.0078125</ele>
        <time>2019-08-21T13:18:38Z</time>
      </trkpt>
      <trkpt lat="59.292418034747243" lon="8.196420036256313">
        <ele>1053.9375</ele>
        <time>2019-08-21T13:18:39Z</time>
      </trkpt>
      <trkpt lat="59.292401019483805" lon="8.196438979357481">
        <ele>1053.91015625</ele>
        <time>2019-08-21T13:18:41Z</time>
      </trkpt>
      <trkpt lat="59.292395990341902" lon="8.196448031812906">
        <ele>1053.9375</ele>
        <time>2019-08-21T13:18:42Z</time>
      </trkpt>
      <trkpt lat="59.292393978685141" lon="8.1964570004493">
        <ele>1054.00390625</ele>
        <time>2019-08-21T13:18:43Z</time>
      </trkpt>
      <trkpt lat="59.292395990341902" lon="8.196470998227596">
        <ele>1054.1640625</ele>
        <time>2019-08-21T13:18:44Z</time>
      </trkpt>
      <trkpt lat="59.292394984513521" lon="8.196484996005893">
        <ele>1054.2890625</ele>
        <time>2019-08-21T13:18:45Z</time>
      </trkpt>
      <trkpt lat="59.292389033362269" lon="8.196493964642286">
        <ele>1054.3203125</ele>
        <time>2019-08-21T13:18:46Z</time>
      </trkpt>
      <trkpt lat="59.292384004220366" lon="8.196496982127428">
        <ele>1054.30078125</ele>
        <time>2019-08-21T13:18:47Z</time>
      </trkpt>
      <trkpt lat="59.292380986735225" lon="8.19650100544095">
        <ele>1054.3125</ele>
        <time>2019-08-21T13:18:48Z</time>
      </trkpt>
      <trkpt lat="59.292378975078464" lon="8.196511985734105">
        <ele>1054.41015625</ele>
        <time>2019-08-21T13:18:49Z</time>
      </trkpt>
      <trkpt lat="59.292376963421702" lon="8.196524977684021">
        <ele>1054.52734375</ele>
        <time>2019-08-21T13:18:50Z</time>
      </trkpt>
      <trkpt lat="59.292372018098831" lon="8.196532018482685">
        <ele>1054.55859375</ele>
        <time>2019-08-21T13:18:51Z</time>
      </trkpt>
      <trkpt lat="59.292369000613689" lon="8.196540987119079">
        <ele>1054.62890625</ele>
        <time>2019-08-21T13:18:52Z</time>
      </trkpt>
      <trkpt lat="59.292369000613689" lon="8.196551967412233">
        <ele>1054.74609375</ele>
        <time>2019-08-21T13:18:53Z</time>
      </trkpt>
      <trkpt lat="59.292369000613689" lon="8.19656596519053">
        <ele>1054.89453125</ele>
        <time>2019-08-21T13:18:54Z</time>
      </trkpt>
      <trkpt lat="59.292366988956928" lon="8.196579962968826">
        <ele>1055.03125</ele>
        <time>2019-08-21T13:18:55Z</time>
      </trkpt>
      <trkpt lat="59.292365983128548" lon="8.196590021252632">
        <ele>1055.13671875</ele>
        <time>2019-08-21T13:18:56Z</time>
      </trkpt>
      <trkpt lat="59.292367994785309" lon="8.196599995717406">
        <ele>1055.25390625</ele>
        <time>2019-08-21T13:18:57Z</time>
      </trkpt>
      <trkpt lat="59.292369000613689" lon="8.196611981838942">
        <ele>1055.390625</ele>
        <time>2019-08-21T13:18:58Z</time>
      </trkpt>
      <trkpt lat="59.292371012270451" lon="8.196623967960477">
        <ele>1055.52734375</ele>
        <time>2019-08-21T13:18:59Z</time>
      </trkpt>
      <trkpt lat="59.29237000644207" lon="8.196636037901044">
        <ele>1055.65234375</ele>
        <time>2019-08-21T13:19:00Z</time>
      </trkpt>
      <trkpt lat="59.292367994785309" lon="8.196646012365818">
        <ele>1055.75</ele>
        <time>2019-08-21T13:19:01Z</time>
      </trkpt>
      <trkpt lat="59.292365983128548" lon="8.196654981002212">
        <ele>1055.8359375</ele>
        <time>2019-08-21T13:19:02Z</time>
      </trkpt>
      <trkpt lat="59.292361037805676" lon="8.196663027629256">
        <ele>1055.90625</ele>
        <time>2019-08-21T13:19:03Z</time>
      </trkpt>
      <trkpt lat="59.292358020320535" lon="8.196669984608889">
        <ele>1055.97265625</ele>
        <time>2019-08-21T13:19:04Z</time>
      </trkpt>
      <trkpt lat="59.292357014492154" lon="8.196676019579172">
        <ele>1056.02734375</ele>
        <time>2019-08-21T13:19:05Z</time>
      </trkpt>
      <trkpt lat="59.292358020320535" lon="8.196677025407553">
        <ele>1056.0390625</ele>
        <time>2019-08-21T13:19:06Z</time>
      </trkpt>
      <trkpt lat="59.292358020320535" lon="8.196675013750792">
        <ele>1056.0234375</ele>
        <time>2019-08-21T13:19:07Z</time>
      </trkpt>
      <trkpt lat="59.292357014492154" lon="8.196676019579172">
        <ele>1056.02734375</ele>
        <time>2019-08-21T13:19:08Z</time>
      </trkpt>
      <trkpt lat="59.292357014492154" lon="8.196677025407553">
        <ele>1056.03515625</ele>
        <time>2019-08-21T13:19:09Z</time>
      </trkpt>
      <trkpt lat="59.292357014492154" lon="8.196677025407553">
        <ele>1056.03515625</ele>
        <time>2019-08-21T13:19:10Z</time>
      </trkpt>
      <trkpt lat="59.292358020320535" lon="8.196677025407553">
        <ele>1056.0390625</ele>
        <time>2019-08-21T13:19:11Z</time>
      </trkpt>
      <trkpt lat="59.292358020320535" lon="8.196677025407553">
        <ele>1056.0390625</ele>
        <time>2019-08-21T13:19:12Z</time>
      </trkpt>
      <trkpt lat="59.292359026148915" lon="8.196678031235933">
        <ele>1056.05078125</ele>
        <time>2019-08-21T13:19:13Z</time>
      </trkpt>
      <trkpt lat="59.292360031977296" lon="8.19669303484261">
        <ele>1056.17578125</ele>
        <time>2019-08-21T13:19:14Z</time>
      </trkpt>
      <trkpt lat="59.292360031977296" lon="8.196708960458636">
        <ele>1056.3046875</ele>
        <time>2019-08-21T13:19:15Z</time>
      </trkpt>
      <trkpt lat="59.292362965643406" lon="8.196729999035597">
        <ele>1056.4765625</ele>
        <time>2019-08-21T13:19:16Z</time>
      </trkpt>
      <trkpt lat="59.29237000644207" lon="8.196766041219235">
        <ele>1056.75390625</ele>
        <time>2019-08-21T13:19:18Z</time>
      </trkpt>
      <trkpt lat="59.292374029755592" lon="8.19677903316915">
        <ele>1056.84765625</ele>
        <time>2019-08-21T13:19:19Z</time>
      </trkpt>
      <trkpt lat="59.292382998391986" lon="8.196804011240602">
        <ele>1057.0078125</ele>
        <time>2019-08-21T13:19:21Z</time>
      </trkpt>
      <trkpt lat="59.292386015877128" lon="8.196823038160801">
        <ele>1057.12890625</ele>
        <time>2019-08-21T13:19:22Z</time>
      </trkpt>
      <trkpt lat="59.292386015877128" lon="8.19684499874711">
        <ele>1057.27734375</ele>
        <time>2019-08-21T13:19:23Z</time>
      </trkpt>
      <trkpt lat="59.292380986735225" lon="8.196863019838929">
        <ele>1057.43359375</ele>
        <time>2019-08-21T13:19:24Z</time>
      </trkpt>
      <trkpt lat="59.292375035583973" lon="8.196875005960465">
        <ele>1057.5546875</ele>
        <time>2019-08-21T13:19:25Z</time>
      </trkpt>
      <trkpt lat="59.292365983128548" lon="8.196883974596858">
        <ele>1057.68359375</ele>
        <time>2019-08-21T13:19:26Z</time>
      </trkpt>
      <trkpt lat="59.292360031977296" lon="8.196895960718393">
        <ele>1057.8203125</ele>
        <time>2019-08-21T13:19:27Z</time>
      </trkpt>
      <trkpt lat="59.292358020320535" lon="8.196906019002199">
        <ele>1057.91796875</ele>
        <time>2019-08-21T13:19:28Z</time>
      </trkpt>
      <trkpt lat="59.292360031977296" lon="8.196916999295354">
        <ele>1057.98828125</ele>
        <time>2019-08-21T13:19:29Z</time>
      </trkpt>
      <trkpt lat="59.292361959815025" lon="8.196926973760128">
        <ele>1058.0546875</ele>
        <time>2019-08-21T13:19:30Z</time>
      </trkpt>
      <trkpt lat="59.292364977300167" lon="8.196938037872315">
        <ele>1058.11328125</ele>
        <time>2019-08-21T13:19:31Z</time>
      </trkpt>
      <trkpt lat="59.292365983128548" lon="8.196946000680327">
        <ele>1058.16796875</ele>
        <time>2019-08-21T13:19:32Z</time>
      </trkpt>
      <trkpt lat="59.292365983128548" lon="8.196949018165469">
        <ele>1058.19140625</ele>
        <time>2019-08-21T13:19:33Z</time>
      </trkpt>
      <trkpt lat="59.292364977300167" lon="8.196953041478992">
        <ele>1058.20703125</ele>
        <time>2019-08-21T13:19:34Z</time>
      </trkpt>
      <trkpt lat="59.292362965643406" lon="8.196962010115385">
        <ele>1058.2109375</ele>
        <time>2019-08-21T13:19:35Z</time>
      </trkpt>
      <trkpt lat="59.292360031977296" lon="8.19697299040854">
        <ele>1058.2265625</ele>
        <time>2019-08-21T13:19:36Z</time>
      </trkpt>
      <trkpt lat="59.292352991178632" lon="8.196981037035584">
        <ele>1058.2890625</ele>
        <time>2019-08-21T13:19:37Z</time>
      </trkpt>
      <trkpt lat="59.292346034198999" lon="8.196988999843597">
        <ele>1058.35546875</ele>
        <time>2019-08-21T13:19:38Z</time>
      </trkpt>
      <trkpt lat="59.292341005057096" lon="8.196996040642262">
        <ele>1058.40234375</ele>
        <time>2019-08-21T13:19:39Z</time>
      </trkpt>
      <trkpt lat="59.292337987571955" lon="8.197002997621894">
        <ele>1058.4296875</ele>
        <time>2019-08-21T13:19:40Z</time>
      </trkpt>
      <trkpt lat="59.292336981743574" lon="8.197005009278655">
        <ele>1058.4375</ele>
        <time>2019-08-21T13:19:41Z</time>
      </trkpt>
      <trkpt lat="59.292336981743574" lon="8.197007020935416">
        <ele>1058.4375</ele>
        <time>2019-08-21T13:19:42Z</time>
      </trkpt>
      <trkpt lat="59.292338993400335" lon="8.197013977915049">
        <ele>1058.40625</ele>
        <time>2019-08-21T13:19:43Z</time>
      </trkpt>
      <trkpt lat="59.292341005057096" lon="8.197026969864965">
        <ele>1058.37109375</ele>
        <time>2019-08-21T13:19:44Z</time>
      </trkpt>
      <trkpt lat="59.292341005057096" lon="8.197035016492009">
        <ele>1058.36328125</ele>
        <time>2019-08-21T13:19:45Z</time>
      </trkpt>
      <trkpt lat="59.292342010885477" lon="8.19703702814877">
        <ele>1058.34765625</ele>
        <time>2019-08-21T13:19:46Z</time>
      </trkpt>
      <trkpt lat="59.292336981743574" lon="8.19703996181488">
        <ele>1058.40625</ele>
        <time>2019-08-21T13:19:47Z</time>
      </trkpt>
      <trkpt lat="59.292333964258432" lon="8.197048008441925">
        <ele>1058.4375</ele>
        <time>2019-08-21T13:19:48Z</time>
      </trkpt>
      <trkpt lat="59.292332958430052" lon="8.197055971249938">
        <ele>1058.44140625</ele>
        <time>2019-08-21T13:19:49Z</time>
      </trkpt>
      <trkpt lat="59.292332036420703" lon="8.197057982906699">
        <ele>1058.453125</ele>
        <time>2019-08-21T13:19:50Z</time>
      </trkpt>
      <trkpt lat="59.292331030592322" lon="8.197056977078319">
        <ele>1058.46484375</ele>
        <time>2019-08-21T13:19:51Z</time>
      </trkpt>
      <trkpt lat="59.292331030592322" lon="8.197056977078319">
        <ele>1058.46484375</ele>
        <time>2019-08-21T13:19:52Z</time>
      </trkpt>
      <trkpt lat="59.292331030592322" lon="8.197056977078319">
        <ele>1058.46484375</ele>
        <time>2019-08-21T13:19:53Z</time>
      </trkpt>
      <trkpt lat="59.292331030592322" lon="8.197056977078319">
        <ele>1058.46484375</ele>
        <time>2019-08-21T13:19:54Z</time>
      </trkpt>
      <trkpt lat="59.292332036420703" lon="8.197057982906699">
        <ele>1058.453125</ele>
        <time>2019-08-21T13:19:55Z</time>
      </trkpt>
      <trkpt lat="59.292332958430052" lon="8.197056977078319">
        <ele>1058.44140625</ele>
        <time>2019-08-21T13:19:56Z</time>
      </trkpt>
      <trkpt lat="59.292334970086813" lon="8.197055971249938">
        <ele>1058.41796875</ele>
        <time>2019-08-21T13:19:57Z</time>
      </trkpt>
      <trkpt lat="59.292335975915194" lon="8.197056977078319">
        <ele>1058.40234375</ele>
        <time>2019-08-21T13:19:58Z</time>
      </trkpt>
      <trkpt lat="59.292333964258432" lon="8.197056977078319">
        <ele>1058.4296875</ele>
        <time>2019-08-21T13:19:59Z</time>
      </trkpt>
      <trkpt lat="59.292333964258432" lon="8.197053959593177">
        <ele>1058.4296875</ele>
        <time>2019-08-21T13:20:00Z</time>
      </trkpt>
      <trkpt lat="59.292333964258432" lon="8.197055971249938">
        <ele>1058.4296875</ele>
        <time>2019-08-21T13:20:01Z</time>
      </trkpt>
      <trkpt lat="59.292333964258432" lon="8.197057982906699">
        <ele>1058.4296875</ele>
        <time>2019-08-21T13:20:02Z</time>
      </trkpt>
      <trkpt lat="59.292332036420703" lon="8.197057982906699">
        <ele>1058.453125</ele>
        <time>2019-08-21T13:20:03Z</time>
      </trkpt>
      <trkpt lat="59.292332036420703" lon="8.19705898873508">
        <ele>1058.453125</ele>
        <time>2019-08-21T13:20:04Z</time>
      </trkpt>
      <trkpt lat="59.292332036420703" lon="8.19705898873508">
        <ele>1058.453125</ele>
        <time>2019-08-21T13:20:05Z</time>
      </trkpt>
      <trkpt lat="59.292332036420703" lon="8.19705898873508">
        <ele>1058.453125</ele>
        <time>2019-08-21T13:20:06Z</time>
      </trkpt>
      <trkpt lat="59.292332036420703" lon="8.19705898873508">
        <ele>1058.453125</ele>
        <time>2019-08-21T13:20:07Z</time>
      </trkpt>
      <trkpt lat="59.292332036420703" lon="8.19705898873508">
        <ele>1058.453125</ele>
        <time>2019-08-21T13:20:08Z</time>
      </trkpt>
      <trkpt lat="59.292331030592322" lon="8.197063012048602">
        <ele>1058.4609375</ele>
        <time>2019-08-21T13:20:09Z</time>
      </trkpt>
      <trkpt lat="59.292329018935561" lon="8.197071980684996">
        <ele>1058.48046875</ele>
        <time>2019-08-21T13:20:10Z</time>
      </trkpt>
      <trkpt lat="59.292329018935561" lon="8.197081033140421">
        <ele>1058.47265625</ele>
        <time>2019-08-21T13:20:11Z</time>
      </trkpt>
      <trkpt lat="59.292330024763942" lon="8.197091007605195">
        <ele>1058.453125</ele>
        <time>2019-08-21T13:20:12Z</time>
      </trkpt>
      <trkpt lat="59.292331030592322" lon="8.197096036747098">
        <ele>1058.4375</ele>
        <time>2019-08-21T13:20:13Z</time>
      </trkpt>
      <trkpt lat="59.292331030592322" lon="8.197096958756447">
        <ele>1058.43359375</ele>
        <time>2019-08-21T13:20:14Z</time>
      </trkpt>
      <trkpt lat="59.292331030592322" lon="8.197097964584827">
        <ele>1058.43359375</ele>
        <time>2019-08-21T13:20:15Z</time>
      </trkpt>
      <trkpt lat="59.292330024763942" lon="8.197100982069969">
        <ele>1058.4453125</ele>
        <time>2019-08-21T13:20:16Z</time>
      </trkpt>
      <trkpt lat="59.292330024763942" lon="8.19710299372673">
        <ele>1058.4453125</ele>
        <time>2019-08-21T13:20:17Z</time>
      </trkpt>
      <trkpt lat="59.292309992015362" lon="8.197140963748097">
        <ele>1058.70703125</ele>
        <time>2019-08-21T13:20:19Z</time>
      </trkpt>
      <trkpt lat="59.292294988408685" lon="8.197170970961452">
        <ele>1058.92578125</ele>
        <time>2019-08-21T13:20:20Z</time>
      </trkpt>
      <trkpt lat="59.292275961488485" lon="8.197202989831567">
        <ele>1059.23046875</ele>
        <time>2019-08-21T13:20:21Z</time>
      </trkpt>
      <trkpt lat="59.292258024215698" lon="8.197226962074637">
        <ele>1059.5390625</ele>
        <time>2019-08-21T13:20:22Z</time>
      </trkpt>
      <trkpt lat="59.292251989245415" lon="8.197248000651598">
        <ele>1059.80078125</ele>
        <time>2019-08-21T13:20:23Z</time>
      </trkpt>
      <trkpt lat="59.292249977588654" lon="8.197275996208191">
        <ele>1060.05859375</ele>
        <time>2019-08-21T13:20:24Z</time>
      </trkpt>
      <trkpt lat="59.292244026437402" lon="8.197302985936403">
        <ele>1060.39453125</ele>
        <time>2019-08-21T13:20:25Z</time>
      </trkpt>
      <trkpt lat="59.292233968153596" lon="8.197335004806519">
        <ele>1060.87109375</ele>
        <time>2019-08-21T13:20:26Z</time>
      </trkpt>
      <trkpt lat="59.292226005345583" lon="8.197358977049589">
        <ele>1061.25390625</ele>
        <time>2019-08-21T13:20:27Z</time>
      </trkpt>
      <trkpt lat="59.29222097620368" lon="8.197378003969789">
        <ele>1061.54296875</ele>
        <time>2019-08-21T13:20:28Z</time>
      </trkpt>
      <trkpt lat="59.292217036709189" lon="8.197388984262943">
        <ele>1061.73828125</ele>
        <time>2019-08-21T13:20:29Z</time>
      </trkpt>
      <trkpt lat="59.292211001738906" lon="8.197400970384479">
        <ele>1061.99609375</ele>
        <time>2019-08-21T13:20:30Z</time>
      </trkpt>
      <trkpt lat="59.292204966768622" lon="8.197415973991156">
        <ele>1062.20703125</ele>
        <time>2019-08-21T13:20:31Z</time>
      </trkpt>
      <trkpt lat="59.292202033102512" lon="8.197429971769452">
        <ele>1062.30859375</ele>
        <time>2019-08-21T13:20:32Z</time>
      </trkpt>
      <trkpt lat="59.292200021445751" lon="8.197442963719368">
        <ele>1062.4140625</ele>
        <time>2019-08-21T13:20:33Z</time>
      </trkpt>
      <trkpt lat="59.292197003960609" lon="8.197451010346413">
        <ele>1062.453125</ele>
        <time>2019-08-21T13:20:34Z</time>
      </trkpt>
      <trkpt lat="59.292195998132229" lon="8.197455033659935">
        <ele>1062.484375</ele>
        <time>2019-08-21T13:20:35Z</time>
      </trkpt>
      <trkpt lat="59.292191974818707" lon="8.197459978982806">
        <ele>1062.484375</ele>
        <time>2019-08-21T13:20:36Z</time>
      </trkpt>
      <trkpt lat="59.292191974818707" lon="8.197460984811187">
        <ele>1062.4921875</ele>
        <time>2019-08-21T13:20:37Z</time>
      </trkpt>
      <trkpt lat="59.292190968990326" lon="8.197458973154426">
        <ele>1062.4609375</ele>
        <time>2019-08-21T13:20:38Z</time>
      </trkpt>
      <trkpt lat="59.292189963161945" lon="8.197458973154426">
        <ele>1062.44921875</ele>
        <time>2019-08-21T13:20:39Z</time>
      </trkpt>
      <trkpt lat="59.292190968990326" lon="8.197459978982806">
        <ele>1062.46875</ele>
        <time>2019-08-21T13:20:40Z</time>
      </trkpt>
      <trkpt lat="59.292189963161945" lon="8.197459978982806">
        <ele>1062.45703125</ele>
        <time>2019-08-21T13:20:41Z</time>
      </trkpt>
      <trkpt lat="59.292189963161945" lon="8.197458973154426">
        <ele>1062.44921875</ele>
        <time>2019-08-21T13:20:42Z</time>
      </trkpt>
      <trkpt lat="59.292189963161945" lon="8.197458973154426">
        <ele>1062.44921875</ele>
        <time>2019-08-21T13:20:43Z</time>
      </trkpt>
      <trkpt lat="59.292189963161945" lon="8.197458973154426">
        <ele>1062.44921875</ele>
        <time>2019-08-21T13:20:44Z</time>
      </trkpt>
      <trkpt lat="59.292189963161945" lon="8.197458973154426">
        <ele>1062.44921875</ele>
        <time>2019-08-21T13:20:45Z</time>
      </trkpt>
      <trkpt lat="59.292189963161945" lon="8.197458973154426">
        <ele>1062.44921875</ele>
        <time>2019-08-21T13:20:46Z</time>
      </trkpt>
      <trkpt lat="59.292189963161945" lon="8.197458973154426">
        <ele>1062.44921875</ele>
        <time>2019-08-21T13:20:47Z</time>
      </trkpt>
      <trkpt lat="59.292189963161945" lon="8.197458973154426">
        <ele>1062.44921875</ele>
        <time>2019-08-21T13:20:48Z</time>
      </trkpt>
      <trkpt lat="59.292189963161945" lon="8.197458973154426">
        <ele>1062.44921875</ele>
        <time>2019-08-21T13:20:49Z</time>
      </trkpt>
      <trkpt lat="59.292189963161945" lon="8.197458973154426">
        <ele>1062.44921875</ele>
        <time>2019-08-21T13:20:50Z</time>
      </trkpt>
      <trkpt lat="59.292189963161945" lon="8.197458973154426">
        <ele>1062.44921875</ele>
        <time>2019-08-21T13:20:51Z</time>
      </trkpt>
      <trkpt lat="59.292189963161945" lon="8.197458973154426">
        <ele>1062.44921875</ele>
        <time>2019-08-21T13:20:52Z</time>
      </trkpt>
      <trkpt lat="59.292189963161945" lon="8.197458973154426">
        <ele>1062.44921875</ele>
        <time>2019-08-21T13:20:53Z</time>
      </trkpt>
      <trkpt lat="59.292189963161945" lon="8.197458973154426">
        <ele>1062.44921875</ele>
        <time>2019-08-21T13:20:54Z</time>
      </trkpt>
      <trkpt lat="59.292189963161945" lon="8.197458973154426">
        <ele>1062.44921875</ele>
        <time>2019-08-21T13:20:55Z</time>
      </trkpt>
      <trkpt lat="59.292189963161945" lon="8.197458973154426">
        <ele>1062.44921875</ele>
        <time>2019-08-21T13:20:56Z</time>
      </trkpt>
      <trkpt lat="59.292189963161945" lon="8.197458973154426">
        <ele>1062.44921875</ele>
        <time>2019-08-21T13:20:57Z</time>
      </trkpt>
      <trkpt lat="59.292189963161945" lon="8.197458973154426">
        <ele>1062.44921875</ele>
        <time>2019-08-21T13:20:58Z</time>
      </trkpt>
      <trkpt lat="59.292189963161945" lon="8.197458973154426">
        <ele>1062.44921875</ele>
        <time>2019-08-21T13:20:59Z</time>
      </trkpt>
      <trkpt lat="59.292189963161945" lon="8.197458973154426">
        <ele>1062.44921875</ele>
        <time>2019-08-21T13:21:00Z</time>
      </trkpt>
      <trkpt lat="59.292189963161945" lon="8.197458973154426">
        <ele>1062.44921875</ele>
        <time>2019-08-21T13:21:01Z</time>
      </trkpt>
      <trkpt lat="59.292189963161945" lon="8.197458973154426">
        <ele>1062.44921875</ele>
        <time>2019-08-21T13:21:02Z</time>
      </trkpt>
      <trkpt lat="59.292189963161945" lon="8.197458973154426">
        <ele>1062.44921875</ele>
        <time>2019-08-21T13:21:03Z</time>
      </trkpt>
      <trkpt lat="59.292189963161945" lon="8.197458973154426">
        <ele>1062.44921875</ele>
        <time>2019-08-21T13:21:04Z</time>
      </trkpt>
      <trkpt lat="59.292189963161945" lon="8.197458973154426">
        <ele>1062.44921875</ele>
        <time>2019-08-21T13:21:05Z</time>
      </trkpt>
      <trkpt lat="59.292189963161945" lon="8.197458973154426">
        <ele>1062.44921875</ele>
        <time>2019-08-21T13:21:06Z</time>
      </trkpt>
      <trkpt lat="59.292189963161945" lon="8.197458973154426">
        <ele>1062.44921875</ele>
        <time>2019-08-21T13:21:07Z</time>
      </trkpt>
      <trkpt lat="59.292192980647087" lon="8.197500966489315">
        <ele>1062.921875</ele>
        <time>2019-08-21T13:21:09Z</time>
      </trkpt>
      <trkpt lat="59.292192980647087" lon="8.19753197953105">
        <ele>1063.3515625</ele>
        <time>2019-08-21T13:21:10Z</time>
      </trkpt>
      <trkpt lat="59.292192980647087" lon="8.197546983137727">
        <ele>1063.5703125</ele>
        <time>2019-08-21T13:21:11Z</time>
      </trkpt>
      <trkpt lat="59.292192980647087" lon="8.197576990351081">
        <ele>1064.0078125</ele>
        <time>2019-08-21T13:21:12Z</time>
      </trkpt>
      <trkpt lat="59.292188035324216" lon="8.197603980079293">
        <ele>1064.3515625</ele>
        <time>2019-08-21T13:21:13Z</time>
      </trkpt>
      <trkpt lat="59.292176971212029" lon="8.197622001171112">
        <ele>1064.51171875</ele>
        <time>2019-08-21T13:21:14Z</time>
      </trkpt>
      <trkpt lat="59.292164985090494" lon="8.197645973414183">
        <ele>1064.76171875</ele>
        <time>2019-08-21T13:21:15Z</time>
      </trkpt>
      <trkpt lat="59.292152998968959" lon="8.197671035304666">
        <ele>1065.03515625</ele>
        <time>2019-08-21T13:21:16Z</time>
      </trkpt>
      <trkpt lat="59.292137995362282" lon="8.197696013376117">
        <ele>1065.29296875</ele>
        <time>2019-08-21T13:21:17Z</time>
      </trkpt>
      <trkpt lat="59.292123997583985" lon="8.197726020589471">
        <ele>1065.65234375</ele>
        <time>2019-08-21T13:21:18Z</time>
      </trkpt>
      <trkpt lat="59.292117040604353" lon="8.197762984782457">
        <ele>1066.1796875</ele>
        <time>2019-08-21T13:21:19Z</time>
      </trkpt>
      <trkpt lat="59.292106982320547" lon="8.197797015309334">
        <ele>1066.62890625</ele>
        <time>2019-08-21T13:21:20Z</time>
      </trkpt>
      <trkpt lat="59.29209197871387" lon="8.197821993380785">
        <ele>1066.89453125</ele>
        <time>2019-08-21T13:21:21Z</time>
      </trkpt>
      <trkpt lat="59.292074963450432" lon="8.197840014472604">
        <ele>1067.05859375</ele>
        <time>2019-08-21T13:21:22Z</time>
      </trkpt>
      <trkpt lat="59.292061971500516" lon="8.197852000594139">
        <ele>1067.16015625</ele>
        <time>2019-08-21T13:21:23Z</time>
      </trkpt>
      <trkpt lat="59.292045040056109" lon="8.197869015857577">
        <ele>1067.31640625</ele>
        <time>2019-08-21T13:21:24Z</time>
      </trkpt>
      <trkpt lat="59.292029030621052" lon="8.197879996150732">
        <ele>1067.3984375</ele>
        <time>2019-08-21T13:21:25Z</time>
      </trkpt>
      <trkpt lat="59.292017966508865" lon="8.197894999757409">
        <ele>1067.56640625</ele>
        <time>2019-08-21T13:21:26Z</time>
      </trkpt>
      <trkpt lat="59.292002962902188" lon="8.197921989485622">
        <ele>1067.91015625</ele>
        <time>2019-08-21T13:21:27Z</time>
      </trkpt>
      <trkpt lat="59.291991982609034" lon="8.197942022234201">
        <ele>1068.171875</ele>
        <time>2019-08-21T13:21:28Z</time>
      </trkpt>
      <trkpt lat="59.291988965123892" lon="8.197959959506989">
        <ele>1068.4375</ele>
        <time>2019-08-21T13:21:29Z</time>
      </trkpt>
      <trkpt lat="59.291979996487498" lon="8.19798300974071">
        <ele>1068.765625</ele>
        <time>2019-08-21T13:21:30Z</time>
      </trkpt>
      <trkpt lat="59.291969016194344" lon="8.198001030832529">
        <ele>1069.0078125</ele>
        <time>2019-08-21T13:21:31Z</time>
      </trkpt>
      <trkpt lat="59.291959963738918" lon="8.198017962276936">
        <ele>1069.2421875</ele>
        <time>2019-08-21T13:21:32Z</time>
      </trkpt>
      <trkpt lat="59.291954012587667" lon="8.198031960055232">
        <ele>1069.4453125</ele>
        <time>2019-08-21T13:21:33Z</time>
      </trkpt>
      <trkpt lat="59.291947977617383" lon="8.198044029995799">
        <ele>1069.62109375</ele>
        <time>2019-08-21T13:21:34Z</time>
      </trkpt>
      <trkpt lat="59.291933979839087" lon="8.198049981147051">
        <ele>1069.66796875</ele>
        <time>2019-08-21T13:21:35Z</time>
      </trkpt>
      <trkpt lat="59.291929034516215" lon="8.198060961440206">
        <ele>1069.8359375</ele>
        <time>2019-08-21T13:21:36Z</time>
      </trkpt>
      <trkpt lat="59.291925011202693" lon="8.198075965046883">
        <ele>1070.09765625</ele>
        <time>2019-08-21T13:21:37Z</time>
      </trkpt>
      <trkpt lat="59.291920987889171" lon="8.198093986138701">
        <ele>1070.41015625</ele>
        <time>2019-08-21T13:21:38Z</time>
      </trkpt>
      <trkpt lat="59.291917970404029" lon="8.19811100140214">
        <ele>1070.703125</ele>
        <time>2019-08-21T13:21:39Z</time>
      </trkpt>
      <trkpt lat="59.291917970404029" lon="8.198117958381772">
        <ele>1070.81640625</ele>
        <time>2019-08-21T13:21:40Z</time>
      </trkpt>
      <trkpt lat="59.291917970404029" lon="8.198127010837197">
        <ele>1070.96484375</ele>
        <time>2019-08-21T13:21:41Z</time>
      </trkpt>
      <trkpt lat="59.291916964575648" lon="8.198142014443874">
        <ele>1071.21875</ele>
        <time>2019-08-21T13:21:42Z</time>
      </trkpt>
      <trkpt lat="59.291913025081158" lon="8.198156012222171">
        <ele>1071.46484375</ele>
        <time>2019-08-21T13:21:43Z</time>
      </trkpt>
      <trkpt lat="59.291910007596016" lon="8.198172021657229">
        <ele>1071.74609375</ele>
        <time>2019-08-21T13:21:44Z</time>
      </trkpt>
      <trkpt lat="59.291907995939255" lon="8.198188031092286">
        <ele>1072.01953125</ele>
        <time>2019-08-21T13:21:45Z</time>
      </trkpt>
      <trkpt lat="59.291901960968971" lon="8.198205968365073">
        <ele>1072.34375</ele>
        <time>2019-08-21T13:21:46Z</time>
      </trkpt>
      <trkpt lat="59.291896009817719" lon="8.198224995285273">
        <ele>1072.6875</ele>
        <time>2019-08-21T13:21:47Z</time>
      </trkpt>
      <trkpt lat="59.291891986504197" lon="8.198242010548711">
        <ele>1072.9921875</ele>
        <time>2019-08-21T13:21:48Z</time>
      </trkpt>
      <trkpt lat="59.291890980675817" lon="8.198259025812149">
        <ele>1073.28125</ele>
        <time>2019-08-21T13:21:49Z</time>
      </trkpt>
      <trkpt lat="59.291887041181326" lon="8.198276963084936">
        <ele>1073.60546875</ele>
        <time>2019-08-21T13:21:50Z</time>
      </trkpt>
      <trkpt lat="59.291881006211042" lon="8.198291966691613">
        <ele>1073.88671875</ele>
        <time>2019-08-21T13:21:51Z</time>
      </trkpt>
      <trkpt lat="59.291874971240759" lon="8.198302024975419">
        <ele>1074.0859375</ele>
        <time>2019-08-21T13:21:52Z</time>
      </trkpt>
      <trkpt lat="59.291871031746268" lon="8.198310993611813">
        <ele>1074.26171875</ele>
        <time>2019-08-21T13:21:53Z</time>
      </trkpt>
      <trkpt lat="59.291868014261127" lon="8.198314011096954">
        <ele>1074.328125</ele>
        <time>2019-08-21T13:21:54Z</time>
      </trkpt>
      <trkpt lat="59.291866002604365" lon="8.198317028582096">
        <ele>1074.390625</ele>
        <time>2019-08-21T13:21:55Z</time>
      </trkpt>
      <trkpt lat="59.291864996775985" lon="8.198319040238857">
        <ele>1074.4296875</ele>
        <time>2019-08-21T13:21:56Z</time>
      </trkpt>
      <trkpt lat="59.291863990947604" lon="8.198323985561729">
        <ele>1074.51953125</ele>
        <time>2019-08-21T13:21:57Z</time>
      </trkpt>
      <trkpt lat="59.291861979290843" lon="8.198330020532012">
        <ele>1074.6328125</ele>
        <time>2019-08-21T13:21:58Z</time>
      </trkpt>
      <trkpt lat="59.291859967634082" lon="8.198336977511644">
        <ele>1074.76171875</ele>
        <time>2019-08-21T13:21:59Z</time>
      </trkpt>
      <trkpt lat="59.291857033967972" lon="8.198342006653547">
        <ele>1074.84765625</ele>
        <time>2019-08-21T13:22:00Z</time>
      </trkpt>
      <trkpt lat="59.291856028139591" lon="8.19834896363318">
        <ele>1074.9453125</ele>
        <time>2019-08-21T13:22:01Z</time>
      </trkpt>
      <trkpt lat="59.291855022311211" lon="8.198353992775083">
        <ele>1075.01953125</ele>
        <time>2019-08-21T13:22:02Z</time>
      </trkpt>
      <trkpt lat="59.29185401648283" lon="8.198354998603463">
        <ele>1075.03515625</ele>
        <time>2019-08-21T13:22:03Z</time>
      </trkpt>
      <trkpt lat="59.291855022311211" lon="8.198352986946702">
        <ele>1075.00390625</ele>
        <time>2019-08-21T13:22:04Z</time>
      </trkpt>
      <trkpt lat="59.291856028139591" lon="8.198351981118321">
        <ele>1074.984375</ele>
        <time>2019-08-21T13:22:05Z</time>
      </trkpt>
      <trkpt lat="59.291856028139591" lon="8.198351981118321">
        <ele>1074.984375</ele>
        <time>2019-08-21T13:22:06Z</time>
      </trkpt>
      <trkpt lat="59.291856028139591" lon="8.198351981118321">
        <ele>1074.984375</ele>
        <time>2019-08-21T13:22:07Z</time>
      </trkpt>
      <trkpt lat="59.291856028139591" lon="8.198351981118321">
        <ele>1074.984375</ele>
        <time>2019-08-21T13:22:08Z</time>
      </trkpt>
      <trkpt lat="59.291856028139591" lon="8.198351981118321">
        <ele>1074.984375</ele>
        <time>2019-08-21T13:22:09Z</time>
      </trkpt>
      <trkpt lat="59.291856028139591" lon="8.198351981118321">
        <ele>1074.984375</ele>
        <time>2019-08-21T13:22:10Z</time>
      </trkpt>
      <trkpt lat="59.291857033967972" lon="8.198351981118321">
        <ele>1074.98046875</ele>
        <time>2019-08-21T13:22:11Z</time>
      </trkpt>
      <trkpt lat="59.291857033967972" lon="8.198351981118321">
        <ele>1074.98046875</ele>
        <time>2019-08-21T13:22:12Z</time>
      </trkpt>
      <trkpt lat="59.291857033967972" lon="8.198351981118321">
        <ele>1074.98046875</ele>
        <time>2019-08-21T13:22:13Z</time>
      </trkpt>
      <trkpt lat="59.291856028139591" lon="8.198351981118321">
        <ele>1074.984375</ele>
        <time>2019-08-21T13:22:14Z</time>
      </trkpt>
      <trkpt lat="59.291856028139591" lon="8.198351981118321">
        <ele>1074.984375</ele>
        <time>2019-08-21T13:22:15Z</time>
      </trkpt>
      <trkpt lat="59.291856028139591" lon="8.198351981118321">
        <ele>1074.984375</ele>
        <time>2019-08-21T13:22:16Z</time>
      </trkpt>
      <trkpt lat="59.291856028139591" lon="8.198351981118321">
        <ele>1074.984375</ele>
        <time>2019-08-21T13:22:17Z</time>
      </trkpt>
      <trkpt lat="59.291856028139591" lon="8.198350975289941">
        <ele>1074.97265625</ele>
        <time>2019-08-21T13:22:18Z</time>
      </trkpt>
      <trkpt lat="59.291856028139591" lon="8.198350975289941">
        <ele>1074.97265625</ele>
        <time>2019-08-21T13:22:19Z</time>
      </trkpt>
      <trkpt lat="59.291856028139591" lon="8.198350975289941">
        <ele>1074.97265625</ele>
        <time>2019-08-21T13:22:20Z</time>
      </trkpt>
      <trkpt lat="59.291856028139591" lon="8.198350975289941">
        <ele>1074.97265625</ele>
        <time>2019-08-21T13:22:21Z</time>
      </trkpt>
      <trkpt lat="59.291856028139591" lon="8.198350975289941">
        <ele>1074.97265625</ele>
        <time>2019-08-21T13:22:22Z</time>
      </trkpt>
      <trkpt lat="59.291856028139591" lon="8.198350975289941">
        <ele>1074.97265625</ele>
        <time>2019-08-21T13:22:23Z</time>
      </trkpt>
      <trkpt lat="59.291856028139591" lon="8.198350975289941">
        <ele>1074.97265625</ele>
        <time>2019-08-21T13:22:24Z</time>
      </trkpt>
      <trkpt lat="59.291856028139591" lon="8.198350975289941">
        <ele>1074.97265625</ele>
        <time>2019-08-21T13:22:25Z</time>
      </trkpt>
      <trkpt lat="59.291856028139591" lon="8.198350975289941">
        <ele>1074.97265625</ele>
        <time>2019-08-21T13:22:26Z</time>
      </trkpt>
      <trkpt lat="59.291856028139591" lon="8.198350975289941">
        <ele>1074.97265625</ele>
        <time>2019-08-21T13:22:27Z</time>
      </trkpt>
      <trkpt lat="59.291856028139591" lon="8.198350975289941">
        <ele>1074.97265625</ele>
        <time>2019-08-21T13:22:28Z</time>
      </trkpt>
      <trkpt lat="59.291856028139591" lon="8.198350975289941">
        <ele>1074.97265625</ele>
        <time>2019-08-21T13:22:29Z</time>
      </trkpt>
      <trkpt lat="59.291856028139591" lon="8.198350975289941">
        <ele>1074.97265625</ele>
        <time>2019-08-21T13:22:30Z</time>
      </trkpt>
      <trkpt lat="59.291856028139591" lon="8.198350975289941">
        <ele>1074.97265625</ele>
        <time>2019-08-21T13:22:31Z</time>
      </trkpt>
      <trkpt lat="59.291856028139591" lon="8.198350975289941">
        <ele>1074.97265625</ele>
        <time>2019-08-21T13:22:32Z</time>
      </trkpt>
      <trkpt lat="59.291856028139591" lon="8.198350975289941">
        <ele>1074.97265625</ele>
        <time>2019-08-21T13:22:33Z</time>
      </trkpt>
      <trkpt lat="59.291856028139591" lon="8.198350975289941">
        <ele>1074.97265625</ele>
        <time>2019-08-21T13:22:34Z</time>
      </trkpt>
      <trkpt lat="59.291856028139591" lon="8.198350975289941">
        <ele>1074.97265625</ele>
        <time>2019-08-21T13:22:35Z</time>
      </trkpt>
      <trkpt lat="59.291856028139591" lon="8.198350975289941">
        <ele>1074.97265625</ele>
        <time>2019-08-21T13:22:36Z</time>
      </trkpt>
      <trkpt lat="59.291856028139591" lon="8.198350975289941">
        <ele>1074.97265625</ele>
        <time>2019-08-21T13:22:37Z</time>
      </trkpt>
      <trkpt lat="59.291856028139591" lon="8.198350975289941">
        <ele>1074.97265625</ele>
        <time>2019-08-21T13:22:38Z</time>
      </trkpt>
      <trkpt lat="59.291856028139591" lon="8.198350975289941">
        <ele>1074.97265625</ele>
        <time>2019-08-21T13:22:39Z</time>
      </trkpt>
      <trkpt lat="59.291856028139591" lon="8.198350975289941">
        <ele>1074.97265625</ele>
        <time>2019-08-21T13:22:40Z</time>
      </trkpt>
      <trkpt lat="59.291856028139591" lon="8.198350975289941">
        <ele>1074.97265625</ele>
        <time>2019-08-21T13:22:41Z</time>
      </trkpt>
      <trkpt lat="59.291856028139591" lon="8.198350975289941">
        <ele>1074.97265625</ele>
        <time>2019-08-21T13:22:42Z</time>
      </trkpt>
      <trkpt lat="59.291856028139591" lon="8.198350975289941">
        <ele>1074.97265625</ele>
        <time>2019-08-21T13:22:43Z</time>
      </trkpt>
      <trkpt lat="59.291856028139591" lon="8.198350975289941">
        <ele>1074.97265625</ele>
        <time>2019-08-21T13:22:44Z</time>
      </trkpt>
      <trkpt lat="59.291856028139591" lon="8.198350975289941">
        <ele>1074.97265625</ele>
        <time>2019-08-21T13:22:45Z</time>
      </trkpt>
      <trkpt lat="59.291856028139591" lon="8.198350975289941">
        <ele>1074.97265625</ele>
        <time>2019-08-21T13:22:46Z</time>
      </trkpt>
      <trkpt lat="59.291856028139591" lon="8.198350975289941">
        <ele>1074.97265625</ele>
        <time>2019-08-21T13:22:47Z</time>
      </trkpt>
      <trkpt lat="59.291856028139591" lon="8.198350975289941">
        <ele>1074.97265625</ele>
        <time>2019-08-21T13:22:48Z</time>
      </trkpt>
      <trkpt lat="59.291856028139591" lon="8.198350975289941">
        <ele>1074.97265625</ele>
        <time>2019-08-21T13:22:49Z</time>
      </trkpt>
      <trkpt lat="59.291856028139591" lon="8.198350975289941">
        <ele>1074.97265625</ele>
        <time>2019-08-21T13:22:50Z</time>
      </trkpt>
      <trkpt lat="59.291856028139591" lon="8.198350975289941">
        <ele>1074.97265625</ele>
        <time>2019-08-21T13:22:51Z</time>
      </trkpt>
      <trkpt lat="59.291856028139591" lon="8.198350975289941">
        <ele>1074.97265625</ele>
        <time>2019-08-21T13:22:52Z</time>
      </trkpt>
      <trkpt lat="59.291856028139591" lon="8.198381988331676">
        <ele>1075.3828125</ele>
        <time>2019-08-21T13:22:54Z</time>
      </trkpt>
      <trkpt lat="59.291857033967972" lon="8.19839196279645">
        <ele>1075.5078125</ele>
        <time>2019-08-21T13:22:55Z</time>
      </trkpt>
      <trkpt lat="59.291860973462462" lon="8.198401015251875">
        <ele>1075.6015625</ele>
        <time>2019-08-21T13:22:56Z</time>
      </trkpt>
      <trkpt lat="59.291864996775985" lon="8.198417024686933">
        <ele>1075.78515625</ele>
        <time>2019-08-21T13:22:57Z</time>
      </trkpt>
      <trkpt lat="59.291861979290843" lon="8.198440996930003">
        <ele>1076.12109375</ele>
        <time>2019-08-21T13:22:58Z</time>
      </trkpt>
      <trkpt lat="59.291861979290843" lon="8.198459018021822">
        <ele>1076.359375</ele>
        <time>2019-08-21T13:22:59Z</time>
      </trkpt>
      <trkpt lat="59.291858961805701" lon="8.198495982214809">
        <ele>1076.87109375</ele>
        <time>2019-08-21T13:23:01Z</time>
      </trkpt>
      <trkpt lat="59.291858039796352" lon="8.198517020791769">
        <ele>1077.15625</ele>
        <time>2019-08-21T13:23:02Z</time>
      </trkpt>
      <trkpt lat="59.291855022311211" lon="8.198528001084924">
        <ele>1077.32421875</ele>
        <time>2019-08-21T13:23:03Z</time>
      </trkpt>
      <trkpt lat="59.291855022311211" lon="8.198535963892937">
        <ele>1077.4296875</ele>
        <time>2019-08-21T13:23:04Z</time>
      </trkpt>
      <trkpt lat="59.291857033967972" lon="8.19854199886322">
        <ele>1077.4921875</ele>
        <time>2019-08-21T13:23:05Z</time>
      </trkpt>
      <trkpt lat="59.291858961805701" lon="8.198549961671233">
        <ele>1077.58203125</ele>
        <time>2019-08-21T13:23:06Z</time>
      </trkpt>
      <trkpt lat="59.291858961805701" lon="8.198551973327994">
        <ele>1077.609375</ele>
        <time>2019-08-21T13:23:07Z</time>
      </trkpt>
      <trkpt lat="59.291858961805701" lon="8.198552979156375">
        <ele>1077.62109375</ele>
        <time>2019-08-21T13:23:08Z</time>
      </trkpt>
      <trkpt lat="59.291858961805701" lon="8.198551973327994">
        <ele>1077.609375</ele>
        <time>2019-08-21T13:23:09Z</time>
      </trkpt>
      <trkpt lat="59.291858961805701" lon="8.198551973327994">
        <ele>1077.609375</ele>
        <time>2019-08-21T13:23:10Z</time>
      </trkpt>
      <trkpt lat="59.291858961805701" lon="8.198552979156375">
        <ele>1077.62109375</ele>
        <time>2019-08-21T13:23:11Z</time>
      </trkpt>
      <trkpt lat="59.291858961805701" lon="8.198552979156375">
        <ele>1077.62109375</ele>
        <time>2019-08-21T13:23:12Z</time>
      </trkpt>
      <trkpt lat="59.291858961805701" lon="8.198552979156375">
        <ele>1077.62109375</ele>
        <time>2019-08-21T13:23:13Z</time>
      </trkpt>
      <trkpt lat="59.291858961805701" lon="8.198552979156375">
        <ele>1077.62109375</ele>
        <time>2019-08-21T13:23:14Z</time>
      </trkpt>
      <trkpt lat="59.291860973462462" lon="8.198559014126658">
        <ele>1077.68359375</ele>
        <time>2019-08-21T13:23:15Z</time>
      </trkpt>
      <trkpt lat="59.291859967634082" lon="8.198568988591433">
        <ele>1077.82421875</ele>
        <time>2019-08-21T13:23:16Z</time>
      </trkpt>
      <trkpt lat="59.291858039796352" lon="8.19858399219811">
        <ele>1078.0390625</ele>
        <time>2019-08-21T13:23:17Z</time>
      </trkpt>
      <trkpt lat="59.291852004826069" lon="8.198594972491264">
        <ele>1078.2421875</ele>
        <time>2019-08-21T13:23:18Z</time>
      </trkpt>
      <trkpt lat="59.291848987340927" lon="8.198603019118309">
        <ele>1078.37890625</ele>
        <time>2019-08-21T13:23:19Z</time>
      </trkpt>
      <trkpt lat="59.291847981512547" lon="8.19860402494669">
        <ele>1078.40234375</ele>
        <time>2019-08-21T13:23:20Z</time>
      </trkpt>
      <trkpt lat="59.291847981512547" lon="8.19860402494669">
        <ele>1078.40234375</ele>
        <time>2019-08-21T13:23:21Z</time>
      </trkpt>
      <trkpt lat="59.291845969855785" lon="8.198612993583083">
        <ele>1078.54296875</ele>
        <time>2019-08-21T13:23:22Z</time>
      </trkpt>
      <trkpt lat="59.291838007047772" lon="8.19865096360445">
        <ele>1078.953125</ele>
        <time>2019-08-21T13:23:24Z</time>
      </trkpt>
      <trkpt lat="59.291837001219392" lon="8.19866999052465">
        <ele>1079.125</ele>
        <time>2019-08-21T13:23:25Z</time>
      </trkpt>
      <trkpt lat="59.291838007047772" lon="8.198709972202778">
        <ele>1079.44921875</ele>
        <time>2019-08-21T13:23:26Z</time>
      </trkpt>
      <trkpt lat="59.291842030361295" lon="8.198752971366048">
        <ele>1079.7578125</ele>
        <time>2019-08-21T13:23:27Z</time>
      </trkpt>
      <trkpt lat="59.291845969855785" lon="8.19877996109426">
        <ele>1079.9296875</ele>
        <time>2019-08-21T13:23:28Z</time>
      </trkpt>
      <trkpt lat="59.291840018704534" lon="8.198813991621137">
        <ele>1080.29296875</ele>
        <time>2019-08-21T13:23:29Z</time>
      </trkpt>
      <trkpt lat="59.291830966249108" lon="8.198853973299265">
        <ele>1080.7578125</ele>
        <time>2019-08-21T13:23:30Z</time>
      </trkpt>
      <trkpt lat="59.291827026754618" lon="8.198875011876226">
        <ele>1080.99609375</ele>
        <time>2019-08-21T13:23:31Z</time>
      </trkpt>
      <trkpt lat="59.291824009269476" lon="8.198896972462535">
        <ele>1081.21484375</ele>
        <time>2019-08-21T13:23:32Z</time>
      </trkpt>
      <trkpt lat="59.291820991784334" lon="8.198922034353018">
        <ele>1081.359375</ele>
        <time>2019-08-21T13:23:33Z</time>
      </trkpt>
      <trkpt lat="59.291812023147941" lon="8.198945000767708">
        <ele>1081.59375</ele>
        <time>2019-08-21T13:23:34Z</time>
      </trkpt>
      <trkpt lat="59.291810011491179" lon="8.198982970789075">
        <ele>1081.78515625</ele>
        <time>2019-08-21T13:23:35Z</time>
      </trkpt>
      <trkpt lat="59.291806994006038" lon="8.199021024629474">
        <ele>1081.9921875</ele>
        <time>2019-08-21T13:23:36Z</time>
      </trkpt>
      <trkpt lat="59.291801964864135" lon="8.199042985215783">
        <ele>1082.171875</ele>
        <time>2019-08-21T13:23:37Z</time>
      </trkpt>
      <trkpt lat="59.291803976520896" lon="8.19907701574266">
        <ele>1082.27734375</ele>
        <time>2019-08-21T13:23:38Z</time>
      </trkpt>
      <trkpt lat="59.291810011491179" lon="8.19912001490593">
        <ele>1082.34375</ele>
        <time>2019-08-21T13:23:39Z</time>
      </trkpt>
      <trkpt lat="59.291813028976321" lon="8.199159996584058">
        <ele>1082.4453125</ele>
        <time>2019-08-21T13:23:40Z</time>
      </trkpt>
      <trkpt lat="59.291813028976321" lon="8.199198972433806">
        <ele>1082.5546875</ele>
        <time>2019-08-21T13:23:41Z</time>
      </trkpt>
      <trkpt lat="59.291802970692515" lon="8.199233002960682">
        <ele>1082.828125</ele>
        <time>2019-08-21T13:23:42Z</time>
      </trkpt>
      <trkpt lat="59.291794002056122" lon="8.199263010174036">
        <ele>1083.0703125</ele>
        <time>2019-08-21T13:23:43Z</time>
      </trkpt>
      <trkpt lat="59.291787967085838" lon="8.199278013780713">
        <ele>1083.22265625</ele>
        <time>2019-08-21T13:23:44Z</time>
      </trkpt>
      <trkpt lat="59.291784027591348" lon="8.199278013780713">
        <ele>1083.30078125</ele>
        <time>2019-08-21T13:23:45Z</time>
      </trkpt>
      <trkpt lat="59.291788972914219" lon="8.199305003508925">
        <ele>1083.26171875</ele>
        <time>2019-08-21T13:23:46Z</time>
      </trkpt>
      <trkpt lat="59.291786961257458" lon="8.199334004893899">
        <ele>1083.36328125</ele>
        <time>2019-08-21T13:23:47Z</time>
      </trkpt>
      <trkpt lat="59.291785033419728" lon="8.199359988793731">
        <ele>1083.4609375</ele>
        <time>2019-08-21T13:23:48Z</time>
      </trkpt>
      <trkpt lat="59.291776986792684" lon="8.199383961036801">
        <ele>1083.671875</ele>
        <time>2019-08-21T13:23:49Z</time>
      </trkpt>
      <trkpt lat="59.29176801815629" lon="8.199413968250155">
        <ele>1083.9140625</ele>
        <time>2019-08-21T13:23:50Z</time>
      </trkpt>
      <trkpt lat="59.291760977357626" lon="8.199440035969019">
        <ele>1084.109375</ele>
        <time>2019-08-21T13:23:51Z</time>
      </trkpt>
      <trkpt lat="59.291761983186007" lon="8.199480017647147">
        <ele>1084.14453125</ele>
        <time>2019-08-21T13:23:52Z</time>
      </trkpt>
      <trkpt lat="59.291761983186007" lon="8.199516981840134">
        <ele>1084.18359375</ele>
        <time>2019-08-21T13:23:53Z</time>
      </trkpt>
      <trkpt lat="59.291762989014387" lon="8.199546989053488">
        <ele>1084.19921875</ele>
        <time>2019-08-21T13:23:54Z</time>
      </trkpt>
      <trkpt lat="59.291772963479161" lon="8.199587976559997">
        <ele>1084.046875</ele>
        <time>2019-08-21T13:23:55Z</time>
      </trkpt>
      <trkpt lat="59.291783021762967" lon="8.199621001258493">
        <ele>1083.8828125</ele>
        <time>2019-08-21T13:23:56Z</time>
      </trkpt>
      <trkpt lat="59.291794002056122" lon="8.19965997710824">
        <ele>1083.70703125</ele>
        <time>2019-08-21T13:23:57Z</time>
      </trkpt>
      <trkpt lat="59.291795007884502" lon="8.199688978493214">
        <ele>1083.71875</ele>
        <time>2019-08-21T13:23:58Z</time>
      </trkpt>
      <trkpt lat="59.29179098457098" lon="8.199715968221426">
        <ele>1083.828125</ele>
        <time>2019-08-21T13:23:59Z</time>
      </trkpt>
      <trkpt lat="59.291781010106206" lon="8.199753016233444">
        <ele>1084.09765625</ele>
        <time>2019-08-21T13:24:00Z</time>
      </trkpt>
      <trkpt lat="59.291767012327909" lon="8.199777994304895">
        <ele>1084.4375</ele>
        <time>2019-08-21T13:24:01Z</time>
      </trkpt>
      <trkpt lat="59.291757959872484" lon="8.199794003739953">
        <ele>1084.66015625</ele>
        <time>2019-08-21T13:24:02Z</time>
      </trkpt>
      <trkpt lat="59.291749997064471" lon="8.199820993468165">
        <ele>1084.890625</ele>
        <time>2019-08-21T13:24:03Z</time>
      </trkpt>
      <trkpt lat="59.291743962094188" lon="8.19985100068152">
        <ele>1085.08984375</ele>
        <time>2019-08-21T13:24:04Z</time>
      </trkpt>
      <trkpt lat="59.291735999286175" lon="8.199876984581351">
        <ele>1085.32421875</ele>
        <time>2019-08-21T13:24:05Z</time>
      </trkpt>
      <trkpt lat="59.291731975972652" lon="8.19991797208786">
        <ele>1085.51953125</ele>
        <time>2019-08-21T13:24:06Z</time>
      </trkpt>
      <trkpt lat="59.291727030649781" lon="8.199952002614737">
        <ele>1085.71484375</ele>
        <time>2019-08-21T13:24:07Z</time>
      </trkpt>
      <trkpt lat="59.29172501899302" lon="8.199985027313232">
        <ele>1085.84765625</ele>
        <time>2019-08-21T13:24:08Z</time>
      </trkpt>
      <trkpt lat="59.291723007336259" lon="8.200025008991361">
        <ele>1086.0625</ele>
        <time>2019-08-21T13:24:09Z</time>
      </trkpt>
      <trkpt lat="59.291719989851117" lon="8.200057027861476">
        <ele>1086.3046875</ele>
        <time>2019-08-21T13:24:10Z</time>
      </trkpt>
      <trkpt lat="59.291724013164639" lon="8.20008896291256">
        <ele>1086.390625</ele>
        <time>2019-08-21T13:24:11Z</time>
      </trkpt>
      <trkpt lat="59.291720995679498" lon="8.200117964297533">
        <ele>1086.6171875</ele>
        <time>2019-08-21T13:24:12Z</time>
      </trkpt>
      <trkpt lat="59.291714960709214" lon="8.200136991217732">
        <ele>1086.8515625</ele>
        <time>2019-08-21T13:24:13Z</time>
      </trkpt>
      <trkpt lat="59.291712027043104" lon="8.200159035623074">
        <ele>1087.0390625</ele>
        <time>2019-08-21T13:24:14Z</time>
      </trkpt>
      <trkpt lat="59.291708003729582" lon="8.200183007866144">
        <ele>1087.2578125</ele>
        <time>2019-08-21T13:24:15Z</time>
      </trkpt>
      <trkpt lat="59.29170498624444" lon="8.200200023129582">
        <ele>1087.41796875</ele>
        <time>2019-08-21T13:24:16Z</time>
      </trkpt>
      <trkpt lat="59.291700962930918" lon="8.200222989544272">
        <ele>1087.6328125</ele>
        <time>2019-08-21T13:24:17Z</time>
      </trkpt>
      <trkpt lat="59.291699035093188" lon="8.200247967615724">
        <ele>1087.8125</ele>
        <time>2019-08-21T13:24:18Z</time>
      </trkpt>
      <trkpt lat="59.291698029264808" lon="8.200285015627742">
        <ele>1088.0546875</ele>
        <time>2019-08-21T13:24:19Z</time>
      </trkpt>
      <trkpt lat="59.291698029264808" lon="8.200318040326238">
        <ele>1088.390625</ele>
        <time>2019-08-21T13:24:20Z</time>
      </trkpt>
      <trkpt lat="59.291693000122905" lon="8.200340000912547">
        <ele>1088.7265625</ele>
        <time>2019-08-21T13:24:21Z</time>
      </trkpt>
      <trkpt lat="59.291686965152621" lon="8.200364978983998">
        <ele>1089.109375</ele>
        <time>2019-08-21T13:24:22Z</time>
      </trkpt>
      <trkpt lat="59.291676990687847" lon="8.200386017560959">
        <ele>1089.53125</ele>
        <time>2019-08-21T13:24:23Z</time>
      </trkpt>
      <trkpt lat="59.291669027879834" lon="8.200404960662127">
        <ele>1089.890625</ele>
        <time>2019-08-21T13:24:24Z</time>
      </trkpt>
      <trkpt lat="59.29166198708117" lon="8.200424993410707">
        <ele>1090.23828125</ele>
        <time>2019-08-21T13:24:25Z</time>
      </trkpt>
      <trkpt lat="59.291656035929918" lon="8.200447959825397">
        <ele>1090.58984375</ele>
        <time>2019-08-21T13:24:26Z</time>
      </trkpt>
      <trkpt lat="59.291653018444777" lon="8.20047402754426">
        <ele>1090.91015625</ele>
        <time>2019-08-21T13:24:27Z</time>
      </trkpt>
      <trkpt lat="59.291648995131254" lon="8.20049699395895">
        <ele>1091.2421875</ele>
        <time>2019-08-21T13:24:28Z</time>
      </trkpt>
      <trkpt lat="59.291644971817732" lon="8.200520966202021">
        <ele>1091.58984375</ele>
        <time>2019-08-21T13:24:29Z</time>
      </trkpt>
      <trkpt lat="59.291642038151622" lon="8.200548961758614">
        <ele>1091.9453125</ele>
        <time>2019-08-21T13:24:30Z</time>
      </trkpt>
      <trkpt lat="59.291642038151622" lon="8.200578968971968">
        <ele>1092.27734375</ele>
        <time>2019-08-21T13:24:31Z</time>
      </trkpt>
      <trkpt lat="59.29163902066648" lon="8.200607970356941">
        <ele>1092.703125</ele>
        <time>2019-08-21T13:24:32Z</time>
      </trkpt>
      <trkpt lat="59.291638014838099" lon="8.200633032247424">
        <ele>1093.0234375</ele>
        <time>2019-08-21T13:24:33Z</time>
      </trkpt>
      <trkpt lat="59.291634997352958" lon="8.200655998662114">
        <ele>1093.3671875</ele>
        <time>2019-08-21T13:24:34Z</time>
      </trkpt>
      <trkpt lat="59.291632985696197" lon="8.200680976733565">
        <ele>1093.70703125</ele>
        <time>2019-08-21T13:24:35Z</time>
      </trkpt>
      <trkpt lat="59.291641032323241" lon="8.200709978118539">
        <ele>1093.85546875</ele>
        <time>2019-08-21T13:24:36Z</time>
      </trkpt>
      <trkpt lat="59.291654024273157" lon="8.200743002817035">
        <ele>1093.95703125</ele>
        <time>2019-08-21T13:24:37Z</time>
      </trkpt>
      <trkpt lat="59.291666010394692" lon="8.200778039172292">
        <ele>1094.17578125</ele>
        <time>2019-08-21T13:24:38Z</time>
      </trkpt>
      <trkpt lat="59.291676990687847" lon="8.200813997536898">
        <ele>1094.4296875</ele>
        <time>2019-08-21T13:24:39Z</time>
      </trkpt>
      <trkpt lat="59.29168201982975" lon="8.200847022235394">
        <ele>1094.71875</ele>
        <time>2019-08-21T13:24:40Z</time>
      </trkpt>
      <trkpt lat="59.291683025658131" lon="8.200877029448748">
        <ele>1094.97265625</ele>
        <time>2019-08-21T13:24:41Z</time>
      </trkpt>
      <trkpt lat="59.291685959324241" lon="8.200912987813354">
        <ele>1095.2421875</ele>
        <time>2019-08-21T13:24:42Z</time>
      </trkpt>
      <trkpt lat="59.291686965152621" lon="8.200945006683469">
        <ele>1095.51171875</ele>
        <time>2019-08-21T13:24:43Z</time>
      </trkpt>
      <trkpt lat="59.291688976809382" lon="8.20096998475492">
        <ele>1095.703125</ele>
        <time>2019-08-21T13:24:44Z</time>
      </trkpt>
      <trkpt lat="59.291688976809382" lon="8.201003009453416">
        <ele>1096</ele>
        <time>2019-08-21T13:24:45Z</time>
      </trkpt>
      <trkpt lat="59.291685037314892" lon="8.201029999181628">
        <ele>1096.30078125</ele>
        <time>2019-08-21T13:24:46Z</time>
      </trkpt>
      <trkpt lat="59.291685959324241" lon="8.201057994738221">
        <ele>1096.53515625</ele>
        <time>2019-08-21T13:24:47Z</time>
      </trkpt>
      <trkpt lat="59.291689982637763" lon="8.201084984466434">
        <ele>1096.71484375</ele>
        <time>2019-08-21T13:24:48Z</time>
      </trkpt>
      <trkpt lat="59.291685959324241" lon="8.201109962537885">
        <ele>1097</ele>
        <time>2019-08-21T13:24:49Z</time>
      </trkpt>
      <trkpt lat="59.291683025658131" lon="8.201143993064761">
        <ele>1097.32421875</ele>
        <time>2019-08-21T13:24:50Z</time>
      </trkpt>
      <trkpt lat="59.291680008172989" lon="8.201166037470102">
        <ele>1097.546875</ele>
        <time>2019-08-21T13:24:51Z</time>
      </trkpt>
      <trkpt lat="59.291681014001369" lon="8.201197972521186">
        <ele>1097.7890625</ele>
        <time>2019-08-21T13:24:52Z</time>
      </trkpt>
      <trkpt lat="59.29168201982975" lon="8.201244994997978">
        <ele>1098.15234375</ele>
        <time>2019-08-21T13:24:53Z</time>
      </trkpt>
      <trkpt lat="59.291683025658131" lon="8.201288999989629">
        <ele>1098.4921875</ele>
        <time>2019-08-21T13:24:54Z</time>
      </trkpt>
      <trkpt lat="59.29168201982975" lon="8.201338034123182">
        <ele>1098.90234375</ele>
        <time>2019-08-21T13:24:55Z</time>
      </trkpt>
      <trkpt lat="59.291687970981002" lon="8.201378015801311">
        <ele>1099.1484375</ele>
        <time>2019-08-21T13:24:56Z</time>
      </trkpt>
      <trkpt lat="59.291686965152621" lon="8.201422020792961">
        <ele>1099.5390625</ele>
        <time>2019-08-21T13:24:57Z</time>
      </trkpt>
      <trkpt lat="59.291686965152621" lon="8.201465019956231">
        <ele>1099.91796875</ele>
        <time>2019-08-21T13:24:58Z</time>
      </trkpt>
      <trkpt lat="59.291686965152621" lon="8.20150600746274">
        <ele>1100.27734375</ele>
        <time>2019-08-21T13:24:59Z</time>
      </trkpt>
      <trkpt lat="59.291687970981002" lon="8.201550012454391">
        <ele>1100.65234375</ele>
        <time>2019-08-21T13:25:00Z</time>
      </trkpt>
      <trkpt lat="59.291687970981002" lon="8.201577002182603">
        <ele>1100.88671875</ele>
        <time>2019-08-21T13:25:01Z</time>
      </trkpt>
      <trkpt lat="59.29168201982975" lon="8.201607009395957">
        <ele>1101.22265625</ele>
        <time>2019-08-21T13:25:02Z</time>
      </trkpt>
      <trkpt lat="59.291683025658131" lon="8.201642967760563">
        <ele>1101.52734375</ele>
        <time>2019-08-21T13:25:03Z</time>
      </trkpt>
      <trkpt lat="59.291673973202705" lon="8.201671969145536">
        <ele>1101.89453125</ele>
        <time>2019-08-21T13:25:04Z</time>
      </trkpt>
      <trkpt lat="59.291662992909551" lon="8.201702982187271">
        <ele>1102.36328125</ele>
        <time>2019-08-21T13:25:05Z</time>
      </trkpt>
      <trkpt lat="59.291647989302874" lon="8.201727038249373">
        <ele>1102.8203125</ele>
        <time>2019-08-21T13:25:06Z</time>
      </trkpt>
      <trkpt lat="59.291642038151622" lon="8.201755033805966">
        <ele>1103.20703125</ele>
        <time>2019-08-21T13:25:07Z</time>
      </trkpt>
      <trkpt lat="59.291642960160971" lon="8.201796021312475">
        <ele>1103.6484375</ele>
        <time>2019-08-21T13:25:08Z</time>
      </trkpt>
      <trkpt lat="59.29163902066648" lon="8.201823011040688">
        <ele>1104</ele>
        <time>2019-08-21T13:25:09Z</time>
      </trkpt>
      <trkpt lat="59.291637009009719" lon="8.201857041567564">
        <ele>1104.40234375</ele>
        <time>2019-08-21T13:25:10Z</time>
      </trkpt>
      <trkpt lat="59.291631979867816" lon="8.201894005760551">
        <ele>1104.87890625</ele>
        <time>2019-08-21T13:25:11Z</time>
      </trkpt>
      <trkpt lat="59.291634997352958" lon="8.201929964125156">
        <ele>1105.234375</ele>
        <time>2019-08-21T13:25:12Z</time>
      </trkpt>
      <trkpt lat="59.291636003181338" lon="8.201973969116807">
        <ele>1105.44140625</ele>
        <time>2019-08-21T13:25:13Z</time>
      </trkpt>
      <trkpt lat="59.291638014838099" lon="8.202012022957206">
        <ele>1105.45703125</ele>
        <time>2019-08-21T13:25:14Z</time>
      </trkpt>
      <trkpt lat="59.291643965989351" lon="8.202055022120476">
        <ele>1105.41796875</ele>
        <time>2019-08-21T13:25:15Z</time>
      </trkpt>
      <trkpt lat="59.291646983474493" lon="8.202098021283746">
        <ele>1105.421875</ele>
        <time>2019-08-21T13:25:16Z</time>
      </trkpt>
      <trkpt lat="59.291641032323241" lon="8.202136997133493">
        <ele>1105.5546875</ele>
        <time>2019-08-21T13:25:17Z</time>
      </trkpt>
      <trkpt lat="59.291641032323241" lon="8.202178990468383">
        <ele>1105.6015625</ele>
        <time>2019-08-21T13:25:18Z</time>
      </trkpt>
      <trkpt lat="59.291642960160971" lon="8.202210003510118">
        <ele>1105.609375</ele>
        <time>2019-08-21T13:25:19Z</time>
      </trkpt>
      <trkpt lat="59.291640026494861" lon="8.202244034036994">
        <ele>1105.671875</ele>
        <time>2019-08-21T13:25:20Z</time>
      </trkpt>
      <trkpt lat="59.291637009009719" lon="8.202269012108445">
        <ele>1105.71875</ele>
        <time>2019-08-21T13:25:21Z</time>
      </trkpt>
      <trkpt lat="59.291637009009719" lon="8.202296001836658">
        <ele>1105.71875</ele>
        <time>2019-08-21T13:25:22Z</time>
      </trkpt>
      <trkpt lat="59.291636003181338" lon="8.202340006828308">
        <ele>1105.73828125</ele>
        <time>2019-08-21T13:25:23Z</time>
      </trkpt>
      <trkpt lat="59.291630974039435" lon="8.202374037355185">
        <ele>1105.8203125</ele>
        <time>2019-08-21T13:25:24Z</time>
      </trkpt>
      <trkpt lat="59.291624017059803" lon="8.20240898989141">
        <ele>1105.9375</ele>
        <time>2019-08-21T13:25:25Z</time>
      </trkpt>
      <trkpt lat="59.291615970432758" lon="8.202444026246667">
        <ele>1106.0703125</ele>
        <time>2019-08-21T13:25:26Z</time>
      </trkpt>
      <trkpt lat="59.291612030938268" lon="8.202467998489738">
        <ele>1106.140625</ele>
        <time>2019-08-21T13:25:27Z</time>
      </trkpt>
      <trkpt lat="59.291608007624745" lon="8.202489037066698">
        <ele>1106.20703125</ele>
        <time>2019-08-21T13:25:28Z</time>
      </trkpt>
      <trkpt lat="59.291604990139604" lon="8.202508985996246">
        <ele>1106.26953125</ele>
        <time>2019-08-21T13:25:29Z</time>
      </trkpt>
      <trkpt lat="59.291600966826081" lon="8.202528012916446">
        <ele>1106.359375</ele>
        <time>2019-08-21T13:25:30Z</time>
      </trkpt>
      <trkpt lat="59.291601972654462" lon="8.202547961845994">
        <ele>1106.3671875</ele>
        <time>2019-08-21T13:25:31Z</time>
      </trkpt>
      <trkpt lat="59.291604990139604" lon="8.202569000422955">
        <ele>1106.34765625</ele>
        <time>2019-08-21T13:25:32Z</time>
      </trkpt>
      <trkpt lat="59.291603984311223" lon="8.202589033171535">
        <ele>1106.38671875</ele>
        <time>2019-08-21T13:25:33Z</time>
      </trkpt>
      <trkpt lat="59.291604990139604" lon="8.202616022899747">
        <ele>1106.40625</ele>
        <time>2019-08-21T13:25:34Z</time>
      </trkpt>
      <trkpt lat="59.291613958775997" lon="8.202650975435972">
        <ele>1106.296875</ele>
        <time>2019-08-21T13:25:35Z</time>
      </trkpt>
      <trkpt lat="59.291619993746281" lon="8.202690035104752">
        <ele>1106.2421875</ele>
        <time>2019-08-21T13:25:36Z</time>
      </trkpt>
      <trkpt lat="59.291623011231422" lon="8.202725993469358">
        <ele>1106.234375</ele>
        <time>2019-08-21T13:25:37Z</time>
      </trkpt>
      <trkpt lat="59.291620999574661" lon="8.202756000682712">
        <ele>1106.3046875</ele>
        <time>2019-08-21T13:25:38Z</time>
      </trkpt>
      <trkpt lat="59.291615970432758" lon="8.202777039259672">
        <ele>1106.41796875</ele>
        <time>2019-08-21T13:25:39Z</time>
      </trkpt>
      <trkpt lat="59.291613036766648" lon="8.202794976532459">
        <ele>1106.5</ele>
        <time>2019-08-21T13:25:40Z</time>
      </trkpt>
      <trkpt lat="59.291610019281507" lon="8.202811991795898">
        <ele>1106.5859375</ele>
        <time>2019-08-21T13:25:41Z</time>
      </trkpt>
      <trkpt lat="59.291607001796365" lon="8.202832024544478">
        <ele>1106.67578125</ele>
        <time>2019-08-21T13:25:42Z</time>
      </trkpt>
      <trkpt lat="59.291602978482842" lon="8.202851973474026">
        <ele>1106.78515625</ele>
        <time>2019-08-21T13:25:43Z</time>
      </trkpt>
      <trkpt lat="59.291599960997701" lon="8.202871000394225">
        <ele>1106.87890625</ele>
        <time>2019-08-21T13:25:44Z</time>
      </trkpt>
      <trkpt lat="59.291598033159971" lon="8.202890027314425">
        <ele>1106.953125</ele>
        <time>2019-08-21T13:25:45Z</time>
      </trkpt>
      <trkpt lat="59.29159602150321" lon="8.202908970415592">
        <ele>1107.03125</ele>
        <time>2019-08-21T13:25:46Z</time>
      </trkpt>
      <trkpt lat="59.291593004018068" lon="8.20292497985065">
        <ele>1107.12109375</ele>
        <time>2019-08-21T13:25:47Z</time>
      </trkpt>
      <trkpt lat="59.291590992361307" lon="8.202937971800566">
        <ele>1107.1875</ele>
        <time>2019-08-21T13:25:48Z</time>
      </trkpt>
      <trkpt lat="59.291589986532927" lon="8.202955992892385">
        <ele>1107.24609375</ele>
        <time>2019-08-21T13:25:49Z</time>
      </trkpt>
      <trkpt lat="59.291589986532927" lon="8.202976025640965">
        <ele>1107.2890625</ele>
        <time>2019-08-21T13:25:50Z</time>
      </trkpt>
      <trkpt lat="59.291593004018068" lon="8.202998992055655">
        <ele>1107.26953125</ele>
        <time>2019-08-21T13:25:51Z</time>
      </trkpt>
      <trkpt lat="59.291593004018068" lon="8.203020030632615">
        <ele>1107.3125</ele>
        <time>2019-08-21T13:25:52Z</time>
      </trkpt>
      <trkpt lat="59.291587974876165" lon="8.203036962077022">
        <ele>1107.45703125</ele>
        <time>2019-08-21T13:25:53Z</time>
      </trkpt>
      <trkpt lat="59.291581017896533" lon="8.203050959855318">
        <ele>1107.640625</ele>
        <time>2019-08-21T13:25:54Z</time>
      </trkpt>
      <trkpt lat="59.291571965441108" lon="8.203065963461995">
        <ele>1107.8359375</ele>
        <time>2019-08-21T13:25:55Z</time>
      </trkpt>
      <trkpt lat="59.291566014289856" lon="8.203082978725433">
        <ele>1107.9375</ele>
        <time>2019-08-21T13:25:56Z</time>
      </trkpt>
      <trkpt lat="59.291558973491192" lon="8.203098988160491">
        <ele>1108.0625</ele>
        <time>2019-08-21T13:25:57Z</time>
      </trkpt>
      <trkpt lat="59.29155302233994" lon="8.203110974282026">
        <ele>1108.171875</ele>
        <time>2019-08-21T13:25:58Z</time>
      </trkpt>
      <trkpt lat="59.291544975712895" lon="8.203122960403562">
        <ele>1108.328125</ele>
        <time>2019-08-21T13:25:59Z</time>
      </trkpt>
      <trkpt lat="59.291540030390024" lon="8.203133018687367">
        <ele>1108.421875</ele>
        <time>2019-08-21T13:26:00Z</time>
      </trkpt>
      <trkpt lat="59.291538018733263" lon="8.203146010637283">
        <ele>1108.44140625</ele>
        <time>2019-08-21T13:26:01Z</time>
      </trkpt>
      <trkpt lat="59.291535001248121" lon="8.20316101424396">
        <ele>1108.484375</ele>
        <time>2019-08-21T13:26:02Z</time>
      </trkpt>
      <trkpt lat="59.291530977934599" lon="8.203170988708735">
        <ele>1108.55859375</ele>
        <time>2019-08-21T13:26:03Z</time>
      </trkpt>
      <trkpt lat="59.291527960449457" lon="8.20318004116416">
        <ele>1108.609375</ele>
        <time>2019-08-21T13:26:04Z</time>
      </trkpt>
      <trkpt lat="59.291528966277838" lon="8.203190015628934">
        <ele>1108.5703125</ele>
        <time>2019-08-21T13:26:05Z</time>
      </trkpt>
      <trkpt lat="59.291526032611728" lon="8.203199990093708">
        <ele>1108.6171875</ele>
        <time>2019-08-21T13:26:06Z</time>
      </trkpt>
      <trkpt lat="59.291527960449457" lon="8.203199990093708">
        <ele>1108.57421875</ele>
        <time>2019-08-21T13:26:07Z</time>
      </trkpt>
      <trkpt lat="59.291527960449457" lon="8.203199990093708">
        <ele>1108.57421875</ele>
        <time>2019-08-21T13:26:08Z</time>
      </trkpt>
      <trkpt lat="59.291527960449457" lon="8.203199990093708">
        <ele>1108.57421875</ele>
        <time>2019-08-21T13:26:09Z</time>
      </trkpt>
      <trkpt lat="59.291527960449457" lon="8.203199990093708">
        <ele>1108.57421875</ele>
        <time>2019-08-21T13:26:10Z</time>
      </trkpt>
      <trkpt lat="59.291527960449457" lon="8.203199990093708">
        <ele>1108.57421875</ele>
        <time>2019-08-21T13:26:11Z</time>
      </trkpt>
      <trkpt lat="59.291527038440108" lon="8.203200995922089">
        <ele>1108.59375</ele>
        <time>2019-08-21T13:26:12Z</time>
      </trkpt>
      <trkpt lat="59.291527038440108" lon="8.203200995922089">
        <ele>1108.59375</ele>
        <time>2019-08-21T13:26:13Z</time>
      </trkpt>
      <trkpt lat="59.291527038440108" lon="8.203200995922089">
        <ele>1108.59375</ele>
        <time>2019-08-21T13:26:14Z</time>
      </trkpt>
      <trkpt lat="59.291527038440108" lon="8.203200995922089">
        <ele>1108.59375</ele>
        <time>2019-08-21T13:26:15Z</time>
      </trkpt>
      <trkpt lat="59.291527038440108" lon="8.203200995922089">
        <ele>1108.59375</ele>
        <time>2019-08-21T13:26:16Z</time>
      </trkpt>
      <trkpt lat="59.291527038440108" lon="8.203200995922089">
        <ele>1108.59375</ele>
        <time>2019-08-21T13:26:17Z</time>
      </trkpt>
      <trkpt lat="59.291527038440108" lon="8.203200995922089">
        <ele>1108.59375</ele>
        <time>2019-08-21T13:26:18Z</time>
      </trkpt>
      <trkpt lat="59.291527038440108" lon="8.203200995922089">
        <ele>1108.59375</ele>
        <time>2019-08-21T13:26:19Z</time>
      </trkpt>
      <trkpt lat="59.291527038440108" lon="8.203200995922089">
        <ele>1108.59375</ele>
        <time>2019-08-21T13:26:20Z</time>
      </trkpt>
      <trkpt lat="59.291526032611728" lon="8.203200995922089">
        <ele>1108.6171875</ele>
        <time>2019-08-21T13:26:21Z</time>
      </trkpt>
      <trkpt lat="59.291526032611728" lon="8.203200995922089">
        <ele>1108.6171875</ele>
        <time>2019-08-21T13:26:22Z</time>
      </trkpt>
      <trkpt lat="59.291527038440108" lon="8.203200995922089">
        <ele>1108.59375</ele>
        <time>2019-08-21T13:26:23Z</time>
      </trkpt>
      <trkpt lat="59.291527038440108" lon="8.203202001750469">
        <ele>1108.59375</ele>
        <time>2019-08-21T13:26:24Z</time>
      </trkpt>
      <trkpt lat="59.291527038440108" lon="8.203202001750469">
        <ele>1108.59375</ele>
        <time>2019-08-21T13:26:25Z</time>
      </trkpt>
      <trkpt lat="59.291527038440108" lon="8.203202001750469">
        <ele>1108.59375</ele>
        <time>2019-08-21T13:26:26Z</time>
      </trkpt>
      <trkpt lat="59.291527038440108" lon="8.203202001750469">
        <ele>1108.59375</ele>
        <time>2019-08-21T13:26:27Z</time>
      </trkpt>
      <trkpt lat="59.291527038440108" lon="8.203202001750469">
        <ele>1108.59375</ele>
        <time>2019-08-21T13:26:28Z</time>
      </trkpt>
      <trkpt lat="59.291527960449457" lon="8.203200995922089">
        <ele>1108.57421875</ele>
        <time>2019-08-21T13:26:29Z</time>
      </trkpt>
      <trkpt lat="59.291527038440108" lon="8.203200995922089">
        <ele>1108.59375</ele>
        <time>2019-08-21T13:26:30Z</time>
      </trkpt>
      <trkpt lat="59.291527038440108" lon="8.203199990093708">
        <ele>1108.59765625</ele>
        <time>2019-08-21T13:26:31Z</time>
      </trkpt>
      <trkpt lat="59.291527038440108" lon="8.203199990093708">
        <ele>1108.59765625</ele>
        <time>2019-08-21T13:26:32Z</time>
      </trkpt>
      <trkpt lat="59.291527038440108" lon="8.203200995922089">
        <ele>1108.59375</ele>
        <time>2019-08-21T13:26:33Z</time>
      </trkpt>
      <trkpt lat="59.291527038440108" lon="8.203199990093708">
        <ele>1108.59765625</ele>
        <time>2019-08-21T13:26:34Z</time>
      </trkpt>
      <trkpt lat="59.291527038440108" lon="8.203200995922089">
        <ele>1108.59375</ele>
        <time>2019-08-21T13:26:35Z</time>
      </trkpt>
      <trkpt lat="59.291527038440108" lon="8.203199990093708">
        <ele>1108.59765625</ele>
        <time>2019-08-21T13:26:36Z</time>
      </trkpt>
      <trkpt lat="59.291527038440108" lon="8.203200995922089">
        <ele>1108.59375</ele>
        <time>2019-08-21T13:26:37Z</time>
      </trkpt>
      <trkpt lat="59.291527038440108" lon="8.203202001750469">
        <ele>1108.59375</ele>
        <time>2019-08-21T13:26:38Z</time>
      </trkpt>
      <trkpt lat="59.291527960449457" lon="8.20320401340723">
        <ele>1108.5703125</ele>
        <time>2019-08-21T13:26:39Z</time>
      </trkpt>
      <trkpt lat="59.291527960449457" lon="8.20320401340723">
        <ele>1108.5703125</ele>
        <time>2019-08-21T13:26:40Z</time>
      </trkpt>
      <trkpt lat="59.291527960449457" lon="8.20320401340723">
        <ele>1108.5703125</ele>
        <time>2019-08-21T13:26:41Z</time>
      </trkpt>
      <trkpt lat="59.291527960449457" lon="8.20320401340723">
        <ele>1108.5703125</ele>
        <time>2019-08-21T13:26:42Z</time>
      </trkpt>
      <trkpt lat="59.291527960449457" lon="8.20320401340723">
        <ele>1108.5703125</ele>
        <time>2019-08-21T13:26:43Z</time>
      </trkpt>
      <trkpt lat="59.291527960449457" lon="8.20320401340723">
        <ele>1108.5703125</ele>
        <time>2019-08-21T13:26:44Z</time>
      </trkpt>
      <trkpt lat="59.291527960449457" lon="8.20320401340723">
        <ele>1108.5703125</ele>
        <time>2019-08-21T13:26:45Z</time>
      </trkpt>
      <trkpt lat="59.291527960449457" lon="8.20320401340723">
        <ele>1108.5703125</ele>
        <time>2019-08-21T13:26:46Z</time>
      </trkpt>
      <trkpt lat="59.291527960449457" lon="8.20320401340723">
        <ele>1108.5703125</ele>
        <time>2019-08-21T13:26:47Z</time>
      </trkpt>
      <trkpt lat="59.291527960449457" lon="8.20320401340723">
        <ele>1108.5703125</ele>
        <time>2019-08-21T13:26:48Z</time>
      </trkpt>
      <trkpt lat="59.291527960449457" lon="8.20320401340723">
        <ele>1108.5703125</ele>
        <time>2019-08-21T13:26:49Z</time>
      </trkpt>
      <trkpt lat="59.291527960449457" lon="8.20320401340723">
        <ele>1108.5703125</ele>
        <time>2019-08-21T13:26:50Z</time>
      </trkpt>
      <trkpt lat="59.291527038440108" lon="8.203207030892372">
        <ele>1108.5859375</ele>
        <time>2019-08-21T13:26:51Z</time>
      </trkpt>
      <trkpt lat="59.291526032611728" lon="8.203208958730102">
        <ele>1108.60546875</ele>
        <time>2019-08-21T13:26:52Z</time>
      </trkpt>
      <trkpt lat="59.291528966277838" lon="8.203202001750469">
        <ele>1108.55078125</ele>
        <time>2019-08-21T13:26:53Z</time>
      </trkpt>
      <trkpt lat="59.291528966277838" lon="8.203200995922089">
        <ele>1108.55078125</ele>
        <time>2019-08-21T13:26:54Z</time>
      </trkpt>
      <trkpt lat="59.291527960449457" lon="8.203199990093708">
        <ele>1108.57421875</ele>
        <time>2019-08-21T13:26:55Z</time>
      </trkpt>
      <trkpt lat="59.291527960449457" lon="8.203199990093708">
        <ele>1108.57421875</ele>
        <time>2019-08-21T13:26:56Z</time>
      </trkpt>
      <trkpt lat="59.291527038440108" lon="8.203208036720753">
        <ele>1108.58203125</ele>
        <time>2019-08-21T13:26:57Z</time>
      </trkpt>
      <trkpt lat="59.291526032611728" lon="8.203208958730102">
        <ele>1108.60546875</ele>
        <time>2019-08-21T13:26:58Z</time>
      </trkpt>
      <trkpt lat="59.291527038440108" lon="8.203208958730102">
        <ele>1108.58203125</ele>
        <time>2019-08-21T13:26:59Z</time>
      </trkpt>
      <trkpt lat="59.291527038440108" lon="8.203208958730102">
        <ele>1108.58203125</ele>
        <time>2019-08-21T13:27:00Z</time>
      </trkpt>
      <trkpt lat="59.291527960449457" lon="8.203209964558482">
        <ele>1108.55859375</ele>
        <time>2019-08-21T13:27:01Z</time>
      </trkpt>
      <trkpt lat="59.291527960449457" lon="8.203209964558482">
        <ele>1108.55859375</ele>
        <time>2019-08-21T13:27:02Z</time>
      </trkpt>
      <trkpt lat="59.291527960449457" lon="8.203209964558482">
        <ele>1108.55859375</ele>
        <time>2019-08-21T13:27:03Z</time>
      </trkpt>
      <trkpt lat="59.291527960449457" lon="8.203209964558482">
        <ele>1108.55859375</ele>
        <time>2019-08-21T13:27:04Z</time>
      </trkpt>
      <trkpt lat="59.291527960449457" lon="8.203209964558482">
        <ele>1108.55859375</ele>
        <time>2019-08-21T13:27:05Z</time>
      </trkpt>
      <trkpt lat="59.291527960449457" lon="8.203209964558482">
        <ele>1108.55859375</ele>
        <time>2019-08-21T13:27:06Z</time>
      </trkpt>
      <trkpt lat="59.291527960449457" lon="8.203209964558482">
        <ele>1108.55859375</ele>
        <time>2019-08-21T13:27:07Z</time>
      </trkpt>
      <trkpt lat="59.291527960449457" lon="8.203209964558482">
        <ele>1108.55859375</ele>
        <time>2019-08-21T13:27:08Z</time>
      </trkpt>
      <trkpt lat="59.291527960449457" lon="8.203209964558482">
        <ele>1108.55859375</ele>
        <time>2019-08-21T13:27:09Z</time>
      </trkpt>
      <trkpt lat="59.291528966277838" lon="8.203209964558482">
        <ele>1108.53515625</ele>
        <time>2019-08-21T13:27:10Z</time>
      </trkpt>
      <trkpt lat="59.291528966277838" lon="8.203209964558482">
        <ele>1108.53515625</ele>
        <time>2019-08-21T13:27:11Z</time>
      </trkpt>
      <trkpt lat="59.291528966277838" lon="8.203209964558482">
        <ele>1108.53515625</ele>
        <time>2019-08-21T13:27:12Z</time>
      </trkpt>
      <trkpt lat="59.291527038440108" lon="8.203212982043624">
        <ele>1108.57421875</ele>
        <time>2019-08-21T13:27:13Z</time>
      </trkpt>
      <trkpt lat="59.291527960449457" lon="8.203210970386863">
        <ele>1108.55859375</ele>
        <time>2019-08-21T13:27:14Z</time>
      </trkpt>
      <trkpt lat="59.291527038440108" lon="8.203211976215243">
        <ele>1108.57421875</ele>
        <time>2019-08-21T13:27:15Z</time>
      </trkpt>
      <trkpt lat="59.291527038440108" lon="8.203211976215243">
        <ele>1108.57421875</ele>
        <time>2019-08-21T13:27:16Z</time>
      </trkpt>
      <trkpt lat="59.291527038440108" lon="8.203211976215243">
        <ele>1108.57421875</ele>
        <time>2019-08-21T13:27:17Z</time>
      </trkpt>
      <trkpt lat="59.291527038440108" lon="8.203211976215243">
        <ele>1108.57421875</ele>
        <time>2019-08-21T13:27:18Z</time>
      </trkpt>
      <trkpt lat="59.291527038440108" lon="8.203211976215243">
        <ele>1108.57421875</ele>
        <time>2019-08-21T13:27:19Z</time>
      </trkpt>
      <trkpt lat="59.291527038440108" lon="8.203211976215243">
        <ele>1108.57421875</ele>
        <time>2019-08-21T13:27:20Z</time>
      </trkpt>
      <trkpt lat="59.291527038440108" lon="8.203211976215243">
        <ele>1108.57421875</ele>
        <time>2019-08-21T13:27:21Z</time>
      </trkpt>
      <trkpt lat="59.291527038440108" lon="8.203211976215243">
        <ele>1108.57421875</ele>
        <time>2019-08-21T13:27:22Z</time>
      </trkpt>
      <trkpt lat="59.291527038440108" lon="8.203211976215243">
        <ele>1108.57421875</ele>
        <time>2019-08-21T13:27:23Z</time>
      </trkpt>
      <trkpt lat="59.291527038440108" lon="8.203211976215243">
        <ele>1108.57421875</ele>
        <time>2019-08-21T13:27:24Z</time>
      </trkpt>
      <trkpt lat="59.291527038440108" lon="8.203211976215243">
        <ele>1108.57421875</ele>
        <time>2019-08-21T13:27:25Z</time>
      </trkpt>
      <trkpt lat="59.291527038440108" lon="8.203211976215243">
        <ele>1108.57421875</ele>
        <time>2019-08-21T13:27:26Z</time>
      </trkpt>
      <trkpt lat="59.291527038440108" lon="8.203211976215243">
        <ele>1108.57421875</ele>
        <time>2019-08-21T13:27:27Z</time>
      </trkpt>
      <trkpt lat="59.291527038440108" lon="8.203211976215243">
        <ele>1108.57421875</ele>
        <time>2019-08-21T13:27:28Z</time>
      </trkpt>
      <trkpt lat="59.291527038440108" lon="8.203211976215243">
        <ele>1108.57421875</ele>
        <time>2019-08-21T13:27:29Z</time>
      </trkpt>
      <trkpt lat="59.291527038440108" lon="8.203211976215243">
        <ele>1108.57421875</ele>
        <time>2019-08-21T13:27:30Z</time>
      </trkpt>
      <trkpt lat="59.291527038440108" lon="8.203211976215243">
        <ele>1108.57421875</ele>
        <time>2019-08-21T13:27:31Z</time>
      </trkpt>
      <trkpt lat="59.291527038440108" lon="8.203211976215243">
        <ele>1108.57421875</ele>
        <time>2019-08-21T13:27:32Z</time>
      </trkpt>
      <trkpt lat="59.291527038440108" lon="8.203211976215243">
        <ele>1108.57421875</ele>
        <time>2019-08-21T13:27:33Z</time>
      </trkpt>
      <trkpt lat="59.291527038440108" lon="8.203211976215243">
        <ele>1108.57421875</ele>
        <time>2019-08-21T13:27:34Z</time>
      </trkpt>
      <trkpt lat="59.291527038440108" lon="8.203211976215243">
        <ele>1108.57421875</ele>
        <time>2019-08-21T13:27:35Z</time>
      </trkpt>
      <trkpt lat="59.291527038440108" lon="8.203212982043624">
        <ele>1108.57421875</ele>
        <time>2019-08-21T13:27:36Z</time>
      </trkpt>
      <trkpt lat="59.291527038440108" lon="8.203212982043624">
        <ele>1108.57421875</ele>
        <time>2019-08-21T13:27:37Z</time>
      </trkpt>
      <trkpt lat="59.291527038440108" lon="8.203212982043624">
        <ele>1108.57421875</ele>
        <time>2019-08-21T13:27:38Z</time>
      </trkpt>
      <trkpt lat="59.291527038440108" lon="8.203212982043624">
        <ele>1108.57421875</ele>
        <time>2019-08-21T13:27:39Z</time>
      </trkpt>
      <trkpt lat="59.291527038440108" lon="8.203212982043624">
        <ele>1108.57421875</ele>
        <time>2019-08-21T13:27:40Z</time>
      </trkpt>
      <trkpt lat="59.291527038440108" lon="8.203212982043624">
        <ele>1108.57421875</ele>
        <time>2019-08-21T13:27:41Z</time>
      </trkpt>
      <trkpt lat="59.291527038440108" lon="8.203212982043624">
        <ele>1108.57421875</ele>
        <time>2019-08-21T13:27:42Z</time>
      </trkpt>
      <trkpt lat="59.291527038440108" lon="8.203211976215243">
        <ele>1108.57421875</ele>
        <time>2019-08-21T13:27:43Z</time>
      </trkpt>
      <trkpt lat="59.291527038440108" lon="8.203211976215243">
        <ele>1108.57421875</ele>
        <time>2019-08-21T13:27:44Z</time>
      </trkpt>
      <trkpt lat="59.291527038440108" lon="8.203211976215243">
        <ele>1108.57421875</ele>
        <time>2019-08-21T13:27:45Z</time>
      </trkpt>
      <trkpt lat="59.291527038440108" lon="8.203211976215243">
        <ele>1108.57421875</ele>
        <time>2019-08-21T13:27:46Z</time>
      </trkpt>
      <trkpt lat="59.291527038440108" lon="8.203211976215243">
        <ele>1108.57421875</ele>
        <time>2019-08-21T13:27:47Z</time>
      </trkpt>
      <trkpt lat="59.291527038440108" lon="8.203211976215243">
        <ele>1108.57421875</ele>
        <time>2019-08-21T13:27:48Z</time>
      </trkpt>
      <trkpt lat="59.291527038440108" lon="8.203211976215243">
        <ele>1108.57421875</ele>
        <time>2019-08-21T13:27:49Z</time>
      </trkpt>
      <trkpt lat="59.291527038440108" lon="8.203211976215243">
        <ele>1108.57421875</ele>
        <time>2019-08-21T13:27:50Z</time>
      </trkpt>
      <trkpt lat="59.291527038440108" lon="8.203211976215243">
        <ele>1108.57421875</ele>
        <time>2019-08-21T13:27:51Z</time>
      </trkpt>
      <trkpt lat="59.291527038440108" lon="8.203211976215243">
        <ele>1108.57421875</ele>
        <time>2019-08-21T13:27:52Z</time>
      </trkpt>
      <trkpt lat="59.291527038440108" lon="8.203211976215243">
        <ele>1108.57421875</ele>
        <time>2019-08-21T13:27:53Z</time>
      </trkpt>
      <trkpt lat="59.291527038440108" lon="8.203211976215243">
        <ele>1108.57421875</ele>
        <time>2019-08-21T13:27:54Z</time>
      </trkpt>
      <trkpt lat="59.291527038440108" lon="8.203211976215243">
        <ele>1108.57421875</ele>
        <time>2019-08-21T13:27:55Z</time>
      </trkpt>
      <trkpt lat="59.291527038440108" lon="8.203211976215243">
        <ele>1108.57421875</ele>
        <time>2019-08-21T13:27:56Z</time>
      </trkpt>
      <trkpt lat="59.291527038440108" lon="8.203211976215243">
        <ele>1108.57421875</ele>
        <time>2019-08-21T13:27:57Z</time>
      </trkpt>
      <trkpt lat="59.291527038440108" lon="8.203211976215243">
        <ele>1108.57421875</ele>
        <time>2019-08-21T13:27:58Z</time>
      </trkpt>
      <trkpt lat="59.291527038440108" lon="8.203211976215243">
        <ele>1108.57421875</ele>
        <time>2019-08-21T13:27:59Z</time>
      </trkpt>
      <trkpt lat="59.291527038440108" lon="8.203211976215243">
        <ele>1108.57421875</ele>
        <time>2019-08-21T13:28:00Z</time>
      </trkpt>
      <trkpt lat="59.291527038440108" lon="8.203211976215243">
        <ele>1108.57421875</ele>
        <time>2019-08-21T13:28:01Z</time>
      </trkpt>
      <trkpt lat="59.291527038440108" lon="8.203211976215243">
        <ele>1108.57421875</ele>
        <time>2019-08-21T13:28:02Z</time>
      </trkpt>
      <trkpt lat="59.291527038440108" lon="8.203211976215243">
        <ele>1108.57421875</ele>
        <time>2019-08-21T13:28:03Z</time>
      </trkpt>
      <trkpt lat="59.291527038440108" lon="8.203211976215243">
        <ele>1108.57421875</ele>
        <time>2019-08-21T13:28:04Z</time>
      </trkpt>
      <trkpt lat="59.291527038440108" lon="8.203211976215243">
        <ele>1108.57421875</ele>
        <time>2019-08-21T13:28:05Z</time>
      </trkpt>
      <trkpt lat="59.291527038440108" lon="8.203211976215243">
        <ele>1108.57421875</ele>
        <time>2019-08-21T13:28:06Z</time>
      </trkpt>
      <trkpt lat="59.291527038440108" lon="8.203211976215243">
        <ele>1108.57421875</ele>
        <time>2019-08-21T13:28:07Z</time>
      </trkpt>
      <trkpt lat="59.291527038440108" lon="8.203212982043624">
        <ele>1108.57421875</ele>
        <time>2019-08-21T13:28:08Z</time>
      </trkpt>
      <trkpt lat="59.291527038440108" lon="8.203212982043624">
        <ele>1108.57421875</ele>
        <time>2019-08-21T13:28:09Z</time>
      </trkpt>
      <trkpt lat="59.291527038440108" lon="8.203212982043624">
        <ele>1108.57421875</ele>
        <time>2019-08-21T13:28:10Z</time>
      </trkpt>
      <trkpt lat="59.291527038440108" lon="8.203211976215243">
        <ele>1108.57421875</ele>
        <time>2019-08-21T13:28:11Z</time>
      </trkpt>
      <trkpt lat="59.291527960449457" lon="8.203209964558482">
        <ele>1108.55859375</ele>
        <time>2019-08-21T13:28:12Z</time>
      </trkpt>
      <trkpt lat="59.29153198376298" lon="8.203205019235611">
        <ele>1108.4765625</ele>
        <time>2019-08-21T13:28:13Z</time>
      </trkpt>
      <trkpt lat="59.291528966277838" lon="8.203207030892372">
        <ele>1108.54296875</ele>
        <time>2019-08-21T13:28:14Z</time>
      </trkpt>
      <trkpt lat="59.291530977934599" lon="8.203206025063992">
        <ele>1108.49609375</ele>
        <time>2019-08-21T13:28:15Z</time>
      </trkpt>
      <trkpt lat="59.291530977934599" lon="8.203206025063992">
        <ele>1108.49609375</ele>
        <time>2019-08-21T13:28:16Z</time>
      </trkpt>
      <trkpt lat="59.291530977934599" lon="8.203206025063992">
        <ele>1108.49609375</ele>
        <time>2019-08-21T13:28:17Z</time>
      </trkpt>
      <trkpt lat="59.291530977934599" lon="8.203206025063992">
        <ele>1108.49609375</ele>
        <time>2019-08-21T13:28:18Z</time>
      </trkpt>
      <trkpt lat="59.29153198376298" lon="8.203202001750469">
        <ele>1108.48046875</ele>
        <time>2019-08-21T13:28:19Z</time>
      </trkpt>
      <trkpt lat="59.29153198376298" lon="8.203202001750469">
        <ele>1108.48046875</ele>
        <time>2019-08-21T13:28:20Z</time>
      </trkpt>
      <trkpt lat="59.29153198376298" lon="8.203202001750469">
        <ele>1108.48046875</ele>
        <time>2019-08-21T13:28:21Z</time>
      </trkpt>
      <trkpt lat="59.291537012904882" lon="8.203237960115075">
        <ele>1108.3046875</ele>
        <time>2019-08-21T13:28:23Z</time>
      </trkpt>
      <trkpt lat="59.291541036218405" lon="8.20329001173377">
        <ele>1108.12109375</ele>
        <time>2019-08-21T13:28:24Z</time>
      </trkpt>
      <trkpt lat="59.291540030390024" lon="8.203343991190195">
        <ele>1108.03515625</ele>
        <time>2019-08-21T13:28:25Z</time>
      </trkpt>
      <trkpt lat="59.291529972106218" lon="8.203439963981509">
        <ele>1107.94140625</ele>
        <time>2019-08-21T13:28:27Z</time>
      </trkpt>
      <trkpt lat="59.291515974327922" lon="8.20348396897316">
        <ele>1108.12890625</ele>
        <time>2019-08-21T13:28:28Z</time>
      </trkpt>
      <trkpt lat="59.291499964892864" lon="8.203528979793191">
        <ele>1108.37109375</ele>
        <time>2019-08-21T13:28:29Z</time>
      </trkpt>
      <trkpt lat="59.291492002084851" lon="8.203568961471319">
        <ele>1108.4453125</ele>
        <time>2019-08-21T13:28:30Z</time>
      </trkpt>
      <trkpt lat="59.291485967114568" lon="8.203608021140099">
        <ele>1108.47265625</ele>
        <time>2019-08-21T13:28:31Z</time>
      </trkpt>
      <trkpt lat="59.291480015963316" lon="8.203657977283001">
        <ele>1108.390625</ele>
        <time>2019-08-21T13:28:32Z</time>
      </trkpt>
      <trkpt lat="59.291469035670161" lon="8.20369997061789">
        <ele>1108.47265625</ele>
        <time>2019-08-21T13:28:33Z</time>
      </trkpt>
      <trkpt lat="59.291456965729594" lon="8.203732995316386">
        <ele>1108.625</ele>
        <time>2019-08-21T13:28:34Z</time>
      </trkpt>
      <trkpt lat="59.291441962122917" lon="8.203712962567806">
        <ele>1109.10546875</ele>
        <time>2019-08-21T13:28:36Z</time>
      </trkpt>
      <trkpt lat="59.291454032063484" lon="8.203665018081665">
        <ele>1109.01953125</ele>
        <time>2019-08-21T13:28:37Z</time>
      </trkpt>
      <trkpt lat="59.291470963507891" lon="8.20361103862524">
        <ele>1108.84375</ele>
        <time>2019-08-21T13:28:38Z</time>
      </trkpt>
      <trkpt lat="59.291483033448458" lon="8.203564016148448">
        <ele>1108.68359375</ele>
        <time>2019-08-21T13:28:39Z</time>
      </trkpt>
      <trkpt lat="59.29148898459971" lon="8.203510036692023">
        <ele>1108.703125</ele>
        <time>2019-08-21T13:28:40Z</time>
      </trkpt>
      <trkpt lat="59.291508011519909" lon="8.20346100255847">
        <ele>1108.39453125</ele>
        <time>2019-08-21T13:28:41Z</time>
      </trkpt>
      <trkpt lat="59.291522009298205" lon="8.203448010608554">
        <ele>1108.1015625</ele>
        <time>2019-08-21T13:28:42Z</time>
      </trkpt>
      <trkpt lat="59.291521003469825" lon="8.203463014215231">
        <ele>1108.078125</ele>
        <time>2019-08-21T13:28:43Z</time>
      </trkpt>
      <trkpt lat="59.291500970721245" lon="8.20354700088501">
        <ele>1108.2890625</ele>
        <time>2019-08-21T13:28:45Z</time>
      </trkpt>
      <trkpt lat="59.291493007913232" lon="8.20359000004828">
        <ele>1108.3515625</ele>
        <time>2019-08-21T13:28:46Z</time>
      </trkpt>
      <trkpt lat="59.291475992649794" lon="8.203631993383169">
        <ele>1108.6171875</ele>
        <time>2019-08-21T13:28:47Z</time>
      </trkpt>
      <trkpt lat="59.291466018185019" lon="8.203622018918395">
        <ele>1108.91796875</ele>
        <time>2019-08-21T13:28:49Z</time>
      </trkpt>
      <trkpt lat="59.291484039276838" lon="8.203587988391519">
        <ele>1108.58203125</ele>
        <time>2019-08-21T13:28:50Z</time>
      </trkpt>
      <trkpt lat="59.291504994034767" lon="8.203550018370152">
        <ele>1108.1796875</ele>
        <time>2019-08-21T13:28:51Z</time>
      </trkpt>
      <trkpt lat="59.291522009298205" lon="8.203496960923076">
        <ele>1107.9375</ele>
        <time>2019-08-21T13:28:52Z</time>
      </trkpt>
      <trkpt lat="59.291542964056134" lon="8.203449016436935">
        <ele>1107.59765625</ele>
        <time>2019-08-21T13:28:53Z</time>
      </trkpt>
      <trkpt lat="59.291557967662811" lon="8.203423032537103">
        <ele>1107.33203125</ele>
        <time>2019-08-21T13:28:54Z</time>
      </trkpt>
      <trkpt lat="59.291562996804714" lon="8.203386990353465">
        <ele>1107.34765625</ele>
        <time>2019-08-21T13:28:55Z</time>
      </trkpt>
      <trkpt lat="59.291567020118237" lon="8.20335203781724">
        <ele>1107.3828125</ele>
        <time>2019-08-21T13:28:56Z</time>
      </trkpt>
      <trkpt lat="59.291569031774998" lon="8.203322030603886">
        <ele>1107.421875</ele>
        <time>2019-08-21T13:28:57Z</time>
      </trkpt>
      <trkpt lat="59.291569031774998" lon="8.203298980370164">
        <ele>1107.46484375</ele>
        <time>2019-08-21T13:28:58Z</time>
      </trkpt>
      <trkpt lat="59.291567020118237" lon="8.203284982591867">
        <ele>1107.5390625</ele>
        <time>2019-08-21T13:28:59Z</time>
      </trkpt>
      <trkpt lat="59.291564002633095" lon="8.20326897315681">
        <ele>1107.63671875</ele>
        <time>2019-08-21T13:29:00Z</time>
      </trkpt>
      <trkpt lat="59.291557967662811" lon="8.203254975378513">
        <ele>1107.80078125</ele>
        <time>2019-08-21T13:29:01Z</time>
      </trkpt>
      <trkpt lat="59.291554028168321" lon="8.203242989256978">
        <ele>1107.91015625</ele>
        <time>2019-08-21T13:29:02Z</time>
      </trkpt>
      <trkpt lat="59.29155302233994" lon="8.203236032277346">
        <ele>1107.9453125</ele>
        <time>2019-08-21T13:29:03Z</time>
      </trkpt>
      <trkpt lat="59.291551010683179" lon="8.203229997307062">
        <ele>1108.00390625</ele>
        <time>2019-08-21T13:29:04Z</time>
      </trkpt>
      <trkpt lat="59.291546987369657" lon="8.203221028670669">
        <ele>1108.109375</ele>
        <time>2019-08-21T13:29:05Z</time>
      </trkpt>
      <trkpt lat="59.291546987369657" lon="8.203220022842288">
        <ele>1108.11328125</ele>
        <time>2019-08-21T13:29:06Z</time>
      </trkpt>
      <trkpt lat="59.291544975712895" lon="8.203223962336779">
        <ele>1108.1484375</ele>
        <time>2019-08-21T13:29:07Z</time>
      </trkpt>
      <trkpt lat="59.291544975712895" lon="8.203223962336779">
        <ele>1108.1484375</ele>
        <time>2019-08-21T13:29:08Z</time>
      </trkpt>
      <trkpt lat="59.291544975712895" lon="8.203223962336779">
        <ele>1108.1484375</ele>
        <time>2019-08-21T13:29:09Z</time>
      </trkpt>
      <trkpt lat="59.291544975712895" lon="8.203223962336779">
        <ele>1108.1484375</ele>
        <time>2019-08-21T13:29:10Z</time>
      </trkpt>
      <trkpt lat="59.291544975712895" lon="8.203223962336779">
        <ele>1108.1484375</ele>
        <time>2019-08-21T13:29:11Z</time>
      </trkpt>
      <trkpt lat="59.291544975712895" lon="8.203223962336779">
        <ele>1108.1484375</ele>
        <time>2019-08-21T13:29:12Z</time>
      </trkpt>
      <trkpt lat="59.291544975712895" lon="8.203223962336779">
        <ele>1108.1484375</ele>
        <time>2019-08-21T13:29:13Z</time>
      </trkpt>
      <trkpt lat="59.291544975712895" lon="8.203223962336779">
        <ele>1108.1484375</ele>
        <time>2019-08-21T13:29:14Z</time>
      </trkpt>
      <trkpt lat="59.291544975712895" lon="8.203223962336779">
        <ele>1108.1484375</ele>
        <time>2019-08-21T13:29:15Z</time>
      </trkpt>
      <trkpt lat="59.291544975712895" lon="8.203223962336779">
        <ele>1108.1484375</ele>
        <time>2019-08-21T13:29:16Z</time>
      </trkpt>
      <trkpt lat="59.291544975712895" lon="8.203223962336779">
        <ele>1108.1484375</ele>
        <time>2019-08-21T13:29:17Z</time>
      </trkpt>
      <trkpt lat="59.291544975712895" lon="8.203223962336779">
        <ele>1108.1484375</ele>
        <time>2019-08-21T13:29:18Z</time>
      </trkpt>
      <trkpt lat="59.291544975712895" lon="8.203223962336779">
        <ele>1108.1484375</ele>
        <time>2019-08-21T13:29:19Z</time>
      </trkpt>
      <trkpt lat="59.291544975712895" lon="8.203223962336779">
        <ele>1108.1484375</ele>
        <time>2019-08-21T13:29:20Z</time>
      </trkpt>
      <trkpt lat="59.291544975712895" lon="8.203224968165159">
        <ele>1108.1484375</ele>
        <time>2019-08-21T13:29:21Z</time>
      </trkpt>
      <trkpt lat="59.291544975712895" lon="8.203224968165159">
        <ele>1108.1484375</ele>
        <time>2019-08-21T13:29:22Z</time>
      </trkpt>
      <trkpt lat="59.291544975712895" lon="8.203224968165159">
        <ele>1108.1484375</ele>
        <time>2019-08-21T13:29:23Z</time>
      </trkpt>
      <trkpt lat="59.291544975712895" lon="8.203224968165159">
        <ele>1108.1484375</ele>
        <time>2019-08-21T13:29:24Z</time>
      </trkpt>
      <trkpt lat="59.291544975712895" lon="8.203224968165159">
        <ele>1108.1484375</ele>
        <time>2019-08-21T13:29:25Z</time>
      </trkpt>
      <trkpt lat="59.291544975712895" lon="8.203224968165159">
        <ele>1108.1484375</ele>
        <time>2019-08-21T13:29:26Z</time>
      </trkpt>
      <trkpt lat="59.291544975712895" lon="8.203224968165159">
        <ele>1108.1484375</ele>
        <time>2019-08-21T13:29:27Z</time>
      </trkpt>
      <trkpt lat="59.291544975712895" lon="8.203224968165159">
        <ele>1108.1484375</ele>
        <time>2019-08-21T13:29:28Z</time>
      </trkpt>
      <trkpt lat="59.291544975712895" lon="8.203224968165159">
        <ele>1108.1484375</ele>
        <time>2019-08-21T13:29:29Z</time>
      </trkpt>
      <trkpt lat="59.291544975712895" lon="8.203224968165159">
        <ele>1108.1484375</ele>
        <time>2019-08-21T13:29:30Z</time>
      </trkpt>
      <trkpt lat="59.291544975712895" lon="8.203224968165159">
        <ele>1108.1484375</ele>
        <time>2019-08-21T13:29:31Z</time>
      </trkpt>
      <trkpt lat="59.291544975712895" lon="8.203224968165159">
        <ele>1108.1484375</ele>
        <time>2019-08-21T13:29:32Z</time>
      </trkpt>
      <trkpt lat="59.291544975712895" lon="8.203224968165159">
        <ele>1108.1484375</ele>
        <time>2019-08-21T13:29:33Z</time>
      </trkpt>
      <trkpt lat="59.291544975712895" lon="8.203224968165159">
        <ele>1108.1484375</ele>
        <time>2019-08-21T13:29:34Z</time>
      </trkpt>
      <trkpt lat="59.291544975712895" lon="8.203224968165159">
        <ele>1108.1484375</ele>
        <time>2019-08-21T13:29:35Z</time>
      </trkpt>
      <trkpt lat="59.291544975712895" lon="8.203224968165159">
        <ele>1108.1484375</ele>
        <time>2019-08-21T13:29:36Z</time>
      </trkpt>
      <trkpt lat="59.291544975712895" lon="8.203224968165159">
        <ele>1108.1484375</ele>
        <time>2019-08-21T13:29:37Z</time>
      </trkpt>
      <trkpt lat="59.291544975712895" lon="8.203224968165159">
        <ele>1108.1484375</ele>
        <time>2019-08-21T13:29:38Z</time>
      </trkpt>
      <trkpt lat="59.291544975712895" lon="8.203224968165159">
        <ele>1108.1484375</ele>
        <time>2019-08-21T13:29:39Z</time>
      </trkpt>
      <trkpt lat="59.291544975712895" lon="8.203224968165159">
        <ele>1108.1484375</ele>
        <time>2019-08-21T13:29:40Z</time>
      </trkpt>
      <trkpt lat="59.291544975712895" lon="8.203224968165159">
        <ele>1108.1484375</ele>
        <time>2019-08-21T13:29:41Z</time>
      </trkpt>
      <trkpt lat="59.291544975712895" lon="8.203224968165159">
        <ele>1108.1484375</ele>
        <time>2019-08-21T13:29:42Z</time>
      </trkpt>
      <trkpt lat="59.291544975712895" lon="8.203224968165159">
        <ele>1108.1484375</ele>
        <time>2019-08-21T13:29:43Z</time>
      </trkpt>
      <trkpt lat="59.291544975712895" lon="8.203224968165159">
        <ele>1108.1484375</ele>
        <time>2019-08-21T13:29:44Z</time>
      </trkpt>
      <trkpt lat="59.291544975712895" lon="8.203224968165159">
        <ele>1108.1484375</ele>
        <time>2019-08-21T13:29:45Z</time>
      </trkpt>
      <trkpt lat="59.291544975712895" lon="8.203224968165159">
        <ele>1108.1484375</ele>
        <time>2019-08-21T13:29:46Z</time>
      </trkpt>
      <trkpt lat="59.291544975712895" lon="8.203224968165159">
        <ele>1108.1484375</ele>
        <time>2019-08-21T13:29:47Z</time>
      </trkpt>
      <trkpt lat="59.291544975712895" lon="8.203224968165159">
        <ele>1108.1484375</ele>
        <time>2019-08-21T13:29:48Z</time>
      </trkpt>
      <trkpt lat="59.291544975712895" lon="8.203224968165159">
        <ele>1108.1484375</ele>
        <time>2019-08-21T13:29:49Z</time>
      </trkpt>
      <trkpt lat="59.291544975712895" lon="8.203224968165159">
        <ele>1108.1484375</ele>
        <time>2019-08-21T13:29:50Z</time>
      </trkpt>
      <trkpt lat="59.291544975712895" lon="8.203224968165159">
        <ele>1108.1484375</ele>
        <time>2019-08-21T13:29:51Z</time>
      </trkpt>
      <trkpt lat="59.291544975712895" lon="8.203224968165159">
        <ele>1108.1484375</ele>
        <time>2019-08-21T13:29:52Z</time>
      </trkpt>
      <trkpt lat="59.291544975712895" lon="8.203224968165159">
        <ele>1108.1484375</ele>
        <time>2019-08-21T13:29:53Z</time>
      </trkpt>
      <trkpt lat="59.291544975712895" lon="8.203224968165159">
        <ele>1108.1484375</ele>
        <time>2019-08-21T13:29:54Z</time>
      </trkpt>
      <trkpt lat="59.291544975712895" lon="8.203224968165159">
        <ele>1108.1484375</ele>
        <time>2019-08-21T13:29:55Z</time>
      </trkpt>
      <trkpt lat="59.291544975712895" lon="8.203224968165159">
        <ele>1108.1484375</ele>
        <time>2019-08-21T13:29:56Z</time>
      </trkpt>
      <trkpt lat="59.291544975712895" lon="8.203224968165159">
        <ele>1108.1484375</ele>
        <time>2019-08-21T13:29:57Z</time>
      </trkpt>
      <trkpt lat="59.291544975712895" lon="8.203224968165159">
        <ele>1108.1484375</ele>
        <time>2019-08-21T13:29:58Z</time>
      </trkpt>
      <trkpt lat="59.291544975712895" lon="8.203224968165159">
        <ele>1108.1484375</ele>
        <time>2019-08-21T13:29:59Z</time>
      </trkpt>
      <trkpt lat="59.291544975712895" lon="8.203224968165159">
        <ele>1108.1484375</ele>
        <time>2019-08-21T13:30:00Z</time>
      </trkpt>
      <trkpt lat="59.291544975712895" lon="8.203224968165159">
        <ele>1108.1484375</ele>
        <time>2019-08-21T13:30:01Z</time>
      </trkpt>
      <trkpt lat="59.291544975712895" lon="8.203224968165159">
        <ele>1108.1484375</ele>
        <time>2019-08-21T13:30:02Z</time>
      </trkpt>
      <trkpt lat="59.291544975712895" lon="8.203224968165159">
        <ele>1108.1484375</ele>
        <time>2019-08-21T13:30:03Z</time>
      </trkpt>
      <trkpt lat="59.291544975712895" lon="8.203224968165159">
        <ele>1108.1484375</ele>
        <time>2019-08-21T13:30:04Z</time>
      </trkpt>
      <trkpt lat="59.291544975712895" lon="8.203224968165159">
        <ele>1108.1484375</ele>
        <time>2019-08-21T13:30:05Z</time>
      </trkpt>
      <trkpt lat="59.291544975712895" lon="8.203224968165159">
        <ele>1108.1484375</ele>
        <time>2019-08-21T13:30:06Z</time>
      </trkpt>
      <trkpt lat="59.291544975712895" lon="8.203224968165159">
        <ele>1108.1484375</ele>
        <time>2019-08-21T13:30:07Z</time>
      </trkpt>
      <trkpt lat="59.291544975712895" lon="8.203224968165159">
        <ele>1108.1484375</ele>
        <time>2019-08-21T13:30:08Z</time>
      </trkpt>
      <trkpt lat="59.291544975712895" lon="8.203224968165159">
        <ele>1108.1484375</ele>
        <time>2019-08-21T13:30:09Z</time>
      </trkpt>
      <trkpt lat="59.291544975712895" lon="8.203224968165159">
        <ele>1108.1484375</ele>
        <time>2019-08-21T13:30:10Z</time>
      </trkpt>
      <trkpt lat="59.291544975712895" lon="8.203224968165159">
        <ele>1108.1484375</ele>
        <time>2019-08-21T13:30:11Z</time>
      </trkpt>
      <trkpt lat="59.291544975712895" lon="8.203224968165159">
        <ele>1108.1484375</ele>
        <time>2019-08-21T13:30:12Z</time>
      </trkpt>
      <trkpt lat="59.291544975712895" lon="8.203223962336779">
        <ele>1108.1484375</ele>
        <time>2019-08-21T13:30:13Z</time>
      </trkpt>
      <trkpt lat="59.291544975712895" lon="8.203223962336779">
        <ele>1108.1484375</ele>
        <time>2019-08-21T13:30:14Z</time>
      </trkpt>
      <trkpt lat="59.291544975712895" lon="8.203223962336779">
        <ele>1108.1484375</ele>
        <time>2019-08-21T13:30:15Z</time>
      </trkpt>
      <trkpt lat="59.291544975712895" lon="8.203223962336779">
        <ele>1108.1484375</ele>
        <time>2019-08-21T13:30:16Z</time>
      </trkpt>
      <trkpt lat="59.291544975712895" lon="8.203223962336779">
        <ele>1108.1484375</ele>
        <time>2019-08-21T13:30:17Z</time>
      </trkpt>
      <trkpt lat="59.291544975712895" lon="8.203223962336779">
        <ele>1108.1484375</ele>
        <time>2019-08-21T13:30:18Z</time>
      </trkpt>
      <trkpt lat="59.291544975712895" lon="8.203223962336779">
        <ele>1108.1484375</ele>
        <time>2019-08-21T13:30:19Z</time>
      </trkpt>
      <trkpt lat="59.291544975712895" lon="8.203223962336779">
        <ele>1108.1484375</ele>
        <time>2019-08-21T13:30:20Z</time>
      </trkpt>
      <trkpt lat="59.291544975712895" lon="8.203224968165159">
        <ele>1108.1484375</ele>
        <time>2019-08-21T13:30:21Z</time>
      </trkpt>
      <trkpt lat="59.291544975712895" lon="8.203224968165159">
        <ele>1108.1484375</ele>
        <time>2019-08-21T13:30:22Z</time>
      </trkpt>
      <trkpt lat="59.291544975712895" lon="8.203224968165159">
        <ele>1108.1484375</ele>
        <time>2019-08-21T13:30:23Z</time>
      </trkpt>
      <trkpt lat="59.291544975712895" lon="8.203224968165159">
        <ele>1108.1484375</ele>
        <time>2019-08-21T13:30:24Z</time>
      </trkpt>
      <trkpt lat="59.291544975712895" lon="8.203224968165159">
        <ele>1108.1484375</ele>
        <time>2019-08-21T13:30:25Z</time>
      </trkpt>
      <trkpt lat="59.291544975712895" lon="8.203224968165159">
        <ele>1108.1484375</ele>
        <time>2019-08-21T13:30:26Z</time>
      </trkpt>
      <trkpt lat="59.291544975712895" lon="8.203224968165159">
        <ele>1108.1484375</ele>
        <time>2019-08-21T13:30:27Z</time>
      </trkpt>
      <trkpt lat="59.291544975712895" lon="8.203224968165159">
        <ele>1108.1484375</ele>
        <time>2019-08-21T13:30:28Z</time>
      </trkpt>
      <trkpt lat="59.291544975712895" lon="8.203224968165159">
        <ele>1108.1484375</ele>
        <time>2019-08-21T13:30:29Z</time>
      </trkpt>
      <trkpt lat="59.291544975712895" lon="8.203224968165159">
        <ele>1108.1484375</ele>
        <time>2019-08-21T13:30:30Z</time>
      </trkpt>
      <trkpt lat="59.291544975712895" lon="8.203224968165159">
        <ele>1108.1484375</ele>
        <time>2019-08-21T13:30:31Z</time>
      </trkpt>
      <trkpt lat="59.291544975712895" lon="8.203224968165159">
        <ele>1108.1484375</ele>
        <time>2019-08-21T13:30:32Z</time>
      </trkpt>
      <trkpt lat="59.291544975712895" lon="8.203224968165159">
        <ele>1108.1484375</ele>
        <time>2019-08-21T13:30:33Z</time>
      </trkpt>
      <trkpt lat="59.291544975712895" lon="8.203224968165159">
        <ele>1108.1484375</ele>
        <time>2019-08-21T13:30:34Z</time>
      </trkpt>
      <trkpt lat="59.291544975712895" lon="8.203224968165159">
        <ele>1108.1484375</ele>
        <time>2019-08-21T13:30:35Z</time>
      </trkpt>
      <trkpt lat="59.291544975712895" lon="8.203223962336779">
        <ele>1108.1484375</ele>
        <time>2019-08-21T13:30:36Z</time>
      </trkpt>
      <trkpt lat="59.291544975712895" lon="8.203223962336779">
        <ele>1108.1484375</ele>
        <time>2019-08-21T13:30:37Z</time>
      </trkpt>
      <trkpt lat="59.291544975712895" lon="8.203223962336779">
        <ele>1108.1484375</ele>
        <time>2019-08-21T13:30:38Z</time>
      </trkpt>
      <trkpt lat="59.291544975712895" lon="8.203223962336779">
        <ele>1108.1484375</ele>
        <time>2019-08-21T13:30:39Z</time>
      </trkpt>
      <trkpt lat="59.291544975712895" lon="8.203223962336779">
        <ele>1108.1484375</ele>
        <time>2019-08-21T13:30:40Z</time>
      </trkpt>
      <trkpt lat="59.291547993198037" lon="8.20322697982192">
        <ele>1108.078125</ele>
        <time>2019-08-21T13:30:41Z</time>
      </trkpt>
      <trkpt lat="59.29155302233994" lon="8.203241983428598">
        <ele>1107.93359375</ele>
        <time>2019-08-21T13:30:42Z</time>
      </trkpt>
      <trkpt lat="59.291554028168321" lon="8.203252963721752">
        <ele>1107.89453125</ele>
        <time>2019-08-21T13:30:43Z</time>
      </trkpt>
      <trkpt lat="59.291556961834431" lon="8.203270984813571">
        <ele>1107.79296875</ele>
        <time>2019-08-21T13:30:44Z</time>
      </trkpt>
      <trkpt lat="59.291558973491192" lon="8.203280959278345">
        <ele>1107.73046875</ele>
        <time>2019-08-21T13:30:45Z</time>
      </trkpt>
      <trkpt lat="59.291567020118237" lon="8.203328987583518">
        <ele>1107.45703125</ele>
        <time>2019-08-21T13:30:47Z</time>
      </trkpt>
      <trkpt lat="59.291568025946617" lon="8.203357988968492">
        <ele>1107.3359375</ele>
        <time>2019-08-21T13:30:48Z</time>
      </trkpt>
      <trkpt lat="59.291567020118237" lon="8.203379027545452">
        <ele>1107.28125</ele>
        <time>2019-08-21T13:30:49Z</time>
      </trkpt>
      <trkpt lat="59.291565008461475" lon="8.203400988131762">
        <ele>1107.24609375</ele>
        <time>2019-08-21T13:30:50Z</time>
      </trkpt>
      <trkpt lat="59.291559979319572" lon="8.203423032537103">
        <ele>1107.28515625</ele>
        <time>2019-08-21T13:30:51Z</time>
      </trkpt>
      <trkpt lat="59.291555033996701" lon="8.203443987295032">
        <ele>1107.328125</ele>
        <time>2019-08-21T13:30:52Z</time>
      </trkpt>
      <trkpt lat="59.291548999026418" lon="8.203463014215231">
        <ele>1107.40234375</ele>
        <time>2019-08-21T13:30:53Z</time>
      </trkpt>
      <trkpt lat="59.291542964056134" lon="8.203480029478669">
        <ele>1107.48828125</ele>
        <time>2019-08-21T13:30:54Z</time>
      </trkpt>
      <trkpt lat="59.291539024561644" lon="8.203498972579837">
        <ele>1107.515625</ele>
        <time>2019-08-21T13:30:55Z</time>
      </trkpt>
      <trkpt lat="59.291535001248121" lon="8.203516993671656">
        <ele>1107.55078125</ele>
        <time>2019-08-21T13:30:56Z</time>
      </trkpt>
      <trkpt lat="59.29153198376298" lon="8.203533003106713">
        <ele>1107.5703125</ele>
        <time>2019-08-21T13:30:57Z</time>
      </trkpt>
      <trkpt lat="59.291529972106218" lon="8.203552030026913">
        <ele>1107.5546875</ele>
        <time>2019-08-21T13:30:58Z</time>
      </trkpt>
      <trkpt lat="59.291527038440108" lon="8.203577008098364">
        <ele>1107.54296875</ele>
        <time>2019-08-21T13:30:59Z</time>
      </trkpt>
      <trkpt lat="59.291525026783347" lon="8.203599974513054">
        <ele>1107.515625</ele>
        <time>2019-08-21T13:31:00Z</time>
      </trkpt>
      <trkpt lat="59.291521003469825" lon="8.203622018918395">
        <ele>1107.52734375</ele>
        <time>2019-08-21T13:31:01Z</time>
      </trkpt>
      <trkpt lat="59.291517985984683" lon="8.203641967847943">
        <ele>1107.50390625</ele>
        <time>2019-08-21T13:31:02Z</time>
      </trkpt>
      <trkpt lat="59.291517985984683" lon="8.203665018081665">
        <ele>1107.390625</ele>
        <time>2019-08-21T13:31:03Z</time>
      </trkpt>
      <trkpt lat="59.291514968499541" lon="8.203686978667975">
        <ele>1107.359375</ele>
        <time>2019-08-21T13:31:04Z</time>
      </trkpt>
      <trkpt lat="59.291511029005051" lon="8.203704999759793">
        <ele>1107.37109375</ele>
        <time>2019-08-21T13:31:05Z</time>
      </trkpt>
      <trkpt lat="59.291505999863148" lon="8.20372000336647">
        <ele>1107.42578125</ele>
        <time>2019-08-21T13:31:06Z</time>
      </trkpt>
      <trkpt lat="59.291498959064484" lon="8.203731989488006">
        <ele>1107.546875</ele>
        <time>2019-08-21T13:31:07Z</time>
      </trkpt>
      <trkpt lat="59.291492002084851" lon="8.203745987266302">
        <ele>1107.66015625</ele>
        <time>2019-08-21T13:31:08Z</time>
      </trkpt>
      <trkpt lat="59.291487978771329" lon="8.203758979216218">
        <ele>1107.69921875</ele>
        <time>2019-08-21T13:31:09Z</time>
      </trkpt>
      <trkpt lat="59.291484039276838" lon="8.203772976994515">
        <ele>1107.734375</ele>
        <time>2019-08-21T13:31:10Z</time>
      </trkpt>
      <trkpt lat="59.291479010134935" lon="8.20378596894443">
        <ele>1107.80078125</ele>
        <time>2019-08-21T13:31:11Z</time>
      </trkpt>
      <trkpt lat="59.291473980993032" lon="8.203798038884997">
        <ele>1107.875</ele>
        <time>2019-08-21T13:31:12Z</time>
      </trkpt>
      <trkpt lat="59.2914670240134" lon="8.203810025006533">
        <ele>1108</ele>
        <time>2019-08-21T13:31:13Z</time>
      </trkpt>
      <trkpt lat="59.291464006528258" lon="8.203824022784829">
        <ele>1108.01171875</ele>
        <time>2019-08-21T13:31:14Z</time>
      </trkpt>
      <trkpt lat="59.291461994871497" lon="8.203835003077984">
        <ele>1108.01171875</ele>
        <time>2019-08-21T13:31:15Z</time>
      </trkpt>
      <trkpt lat="59.291459983214736" lon="8.203841038048267">
        <ele>1108.03515625</ele>
        <time>2019-08-21T13:31:16Z</time>
      </trkpt>
      <trkpt lat="59.291459983214736" lon="8.203856963664293">
        <ele>1107.9609375</ele>
        <time>2019-08-21T13:31:17Z</time>
      </trkpt>
      <trkpt lat="59.291458977386355" lon="8.203889988362789">
        <ele>1107.83203125</ele>
        <time>2019-08-21T13:31:18Z</time>
      </trkpt>
      <trkpt lat="59.291457971557975" lon="8.203924018889666">
        <ele>1107.75</ele>
        <time>2019-08-21T13:31:19Z</time>
      </trkpt>
      <trkpt lat="59.291457971557975" lon="8.203951008617878">
        <ele>1107.6640625</ele>
        <time>2019-08-21T13:31:20Z</time>
      </trkpt>
      <trkpt lat="59.291455037891865" lon="8.20397799834609">
        <ele>1107.65625</ele>
        <time>2019-08-21T13:31:21Z</time>
      </trkpt>
      <trkpt lat="59.291450008749962" lon="8.204001970589161">
        <ele>1107.71875</ele>
        <time>2019-08-21T13:31:22Z</time>
      </trkpt>
      <trkpt lat="59.291444979608059" lon="8.204023009166122">
        <ele>1107.796875</ele>
        <time>2019-08-21T13:31:23Z</time>
      </trkpt>
      <trkpt lat="59.291438022628427" lon="8.20404002442956">
        <ele>1107.9375</ele>
        <time>2019-08-21T13:31:24Z</time>
      </trkpt>
      <trkpt lat="59.291430981829762" lon="8.204057039692998">
        <ele>1108.08984375</ele>
        <time>2019-08-21T13:31:25Z</time>
      </trkpt>
      <trkpt lat="59.29142695851624" lon="8.204075982794166">
        <ele>1108.1484375</ele>
        <time>2019-08-21T13:31:26Z</time>
      </trkpt>
      <trkpt lat="59.291423019021749" lon="8.204095009714365">
        <ele>1108.2109375</ele>
        <time>2019-08-21T13:31:27Z</time>
      </trkpt>
      <trkpt lat="59.291418995708227" lon="8.204109007492662">
        <ele>1108.28515625</ele>
        <time>2019-08-21T13:31:28Z</time>
      </trkpt>
      <trkpt lat="59.291415978223085" lon="8.204123005270958">
        <ele>1108.3359375</ele>
        <time>2019-08-21T13:31:29Z</time>
      </trkpt>
      <trkpt lat="59.291415978223085" lon="8.204143038019538">
        <ele>1108.28125</ele>
        <time>2019-08-21T13:31:30Z</time>
      </trkpt>
      <trkpt lat="59.291417989879847" lon="8.204162986949086">
        <ele>1108.16796875</ele>
        <time>2019-08-21T13:31:31Z</time>
      </trkpt>
      <trkpt lat="59.291418995708227" lon="8.204172039404512">
        <ele>1108.09375</ele>
        <time>2019-08-21T13:31:32Z</time>
      </trkpt>
      <trkpt lat="59.291416984051466" lon="8.20417296141386">
        <ele>1108.14453125</ele>
        <time>2019-08-21T13:31:33Z</time>
      </trkpt>
      <trkpt lat="59.291416984051466" lon="8.204171033576131">
        <ele>1108.16015625</ele>
        <time>2019-08-21T13:31:34Z</time>
      </trkpt>
      <trkpt lat="59.291415978223085" lon="8.20417002774775">
        <ele>1108.19921875</ele>
        <time>2019-08-21T13:31:35Z</time>
      </trkpt>
      <trkpt lat="59.291415978223085" lon="8.204166004434228">
        <ele>1108.21875</ele>
        <time>2019-08-21T13:31:36Z</time>
      </trkpt>
      <trkpt lat="59.291415978223085" lon="8.204166004434228">
        <ele>1108.21875</ele>
        <time>2019-08-21T13:31:37Z</time>
      </trkpt>
      <trkpt lat="59.291415978223085" lon="8.204166004434228">
        <ele>1108.21875</ele>
        <time>2019-08-21T13:31:38Z</time>
      </trkpt>
      <trkpt lat="59.291415978223085" lon="8.204166004434228">
        <ele>1108.21875</ele>
        <time>2019-08-21T13:31:39Z</time>
      </trkpt>
      <trkpt lat="59.291415978223085" lon="8.204166004434228">
        <ele>1108.21875</ele>
        <time>2019-08-21T13:31:40Z</time>
      </trkpt>
      <trkpt lat="59.291415978223085" lon="8.204166004434228">
        <ele>1108.21875</ele>
        <time>2019-08-21T13:31:41Z</time>
      </trkpt>
      <trkpt lat="59.291415978223085" lon="8.204166004434228">
        <ele>1108.21875</ele>
        <time>2019-08-21T13:31:42Z</time>
      </trkpt>
      <trkpt lat="59.291415978223085" lon="8.204166004434228">
        <ele>1108.21875</ele>
        <time>2019-08-21T13:31:43Z</time>
      </trkpt>
      <trkpt lat="59.291415978223085" lon="8.204166004434228">
        <ele>1108.21875</ele>
        <time>2019-08-21T13:31:44Z</time>
      </trkpt>
      <trkpt lat="59.291415978223085" lon="8.204166004434228">
        <ele>1108.21875</ele>
        <time>2019-08-21T13:31:45Z</time>
      </trkpt>
      <trkpt lat="59.291415978223085" lon="8.204166004434228">
        <ele>1108.21875</ele>
        <time>2019-08-21T13:31:46Z</time>
      </trkpt>
      <trkpt lat="59.291415978223085" lon="8.204166004434228">
        <ele>1108.21875</ele>
        <time>2019-08-21T13:31:47Z</time>
      </trkpt>
      <trkpt lat="59.291415978223085" lon="8.204166004434228">
        <ele>1108.21875</ele>
        <time>2019-08-21T13:31:48Z</time>
      </trkpt>
      <trkpt lat="59.291415978223085" lon="8.204166004434228">
        <ele>1108.21875</ele>
        <time>2019-08-21T13:31:49Z</time>
      </trkpt>
      <trkpt lat="59.291415978223085" lon="8.204166004434228">
        <ele>1108.21875</ele>
        <time>2019-08-21T13:31:50Z</time>
      </trkpt>
      <trkpt lat="59.291415978223085" lon="8.204166004434228">
        <ele>1108.21875</ele>
        <time>2019-08-21T13:31:51Z</time>
      </trkpt>
      <trkpt lat="59.291415978223085" lon="8.204166004434228">
        <ele>1108.21875</ele>
        <time>2019-08-21T13:31:52Z</time>
      </trkpt>
      <trkpt lat="59.291415978223085" lon="8.204166004434228">
        <ele>1108.21875</ele>
        <time>2019-08-21T13:31:53Z</time>
      </trkpt>
      <trkpt lat="59.291415978223085" lon="8.204166004434228">
        <ele>1108.21875</ele>
        <time>2019-08-21T13:31:54Z</time>
      </trkpt>
      <trkpt lat="59.291415978223085" lon="8.204166004434228">
        <ele>1108.21875</ele>
        <time>2019-08-21T13:31:55Z</time>
      </trkpt>
      <trkpt lat="59.291415978223085" lon="8.204166004434228">
        <ele>1108.21875</ele>
        <time>2019-08-21T13:31:56Z</time>
      </trkpt>
      <trkpt lat="59.291415978223085" lon="8.204166004434228">
        <ele>1108.21875</ele>
        <time>2019-08-21T13:31:57Z</time>
      </trkpt>
      <trkpt lat="59.291415978223085" lon="8.204166004434228">
        <ele>1108.21875</ele>
        <time>2019-08-21T13:31:58Z</time>
      </trkpt>
      <trkpt lat="59.291415978223085" lon="8.204166004434228">
        <ele>1108.21875</ele>
        <time>2019-08-21T13:31:59Z</time>
      </trkpt>
      <trkpt lat="59.291415978223085" lon="8.204166004434228">
        <ele>1108.21875</ele>
        <time>2019-08-21T13:32:00Z</time>
      </trkpt>
      <trkpt lat="59.291415978223085" lon="8.204166004434228">
        <ele>1108.21875</ele>
        <time>2019-08-21T13:32:01Z</time>
      </trkpt>
      <trkpt lat="59.291415978223085" lon="8.204166004434228">
        <ele>1108.21875</ele>
        <time>2019-08-21T13:32:02Z</time>
      </trkpt>
      <trkpt lat="59.291415978223085" lon="8.204164998605847">
        <ele>1108.22265625</ele>
        <time>2019-08-21T13:32:03Z</time>
      </trkpt>
      <trkpt lat="59.291415978223085" lon="8.204166004434228">
        <ele>1108.21875</ele>
        <time>2019-08-21T13:32:04Z</time>
      </trkpt>
      <trkpt lat="59.291415978223085" lon="8.204166004434228">
        <ele>1108.21875</ele>
        <time>2019-08-21T13:32:05Z</time>
      </trkpt>
      <trkpt lat="59.291415978223085" lon="8.204164998605847">
        <ele>1108.22265625</ele>
        <time>2019-08-21T13:32:06Z</time>
      </trkpt>
      <trkpt lat="59.291415978223085" lon="8.204164998605847">
        <ele>1108.22265625</ele>
        <time>2019-08-21T13:32:07Z</time>
      </trkpt>
      <trkpt lat="59.291415978223085" lon="8.204164998605847">
        <ele>1108.22265625</ele>
        <time>2019-08-21T13:32:08Z</time>
      </trkpt>
      <trkpt lat="59.291415978223085" lon="8.204164998605847">
        <ele>1108.22265625</ele>
        <time>2019-08-21T13:32:09Z</time>
      </trkpt>
      <trkpt lat="59.291415978223085" lon="8.204164998605847">
        <ele>1108.22265625</ele>
        <time>2019-08-21T13:32:10Z</time>
      </trkpt>
      <trkpt lat="59.291415978223085" lon="8.204164998605847">
        <ele>1108.22265625</ele>
        <time>2019-08-21T13:32:11Z</time>
      </trkpt>
      <trkpt lat="59.291415978223085" lon="8.204164998605847">
        <ele>1108.22265625</ele>
        <time>2019-08-21T13:32:12Z</time>
      </trkpt>
      <trkpt lat="59.291415978223085" lon="8.204164998605847">
        <ele>1108.22265625</ele>
        <time>2019-08-21T13:32:13Z</time>
      </trkpt>
      <trkpt lat="59.291415978223085" lon="8.204164998605847">
        <ele>1108.22265625</ele>
        <time>2019-08-21T13:32:14Z</time>
      </trkpt>
      <trkpt lat="59.291415978223085" lon="8.204164998605847">
        <ele>1108.22265625</ele>
        <time>2019-08-21T13:32:15Z</time>
      </trkpt>
      <trkpt lat="59.291415978223085" lon="8.204164998605847">
        <ele>1108.22265625</ele>
        <time>2019-08-21T13:32:16Z</time>
      </trkpt>
      <trkpt lat="59.291415978223085" lon="8.204164998605847">
        <ele>1108.22265625</ele>
        <time>2019-08-21T13:32:17Z</time>
      </trkpt>
      <trkpt lat="59.291415978223085" lon="8.204164998605847">
        <ele>1108.22265625</ele>
        <time>2019-08-21T13:32:18Z</time>
      </trkpt>
      <trkpt lat="59.291415978223085" lon="8.204164998605847">
        <ele>1108.22265625</ele>
        <time>2019-08-21T13:32:19Z</time>
      </trkpt>
      <trkpt lat="59.291415978223085" lon="8.204164998605847">
        <ele>1108.22265625</ele>
        <time>2019-08-21T13:32:20Z</time>
      </trkpt>
      <trkpt lat="59.291415978223085" lon="8.204164998605847">
        <ele>1108.22265625</ele>
        <time>2019-08-21T13:32:21Z</time>
      </trkpt>
      <trkpt lat="59.291415978223085" lon="8.204164998605847">
        <ele>1108.22265625</ele>
        <time>2019-08-21T13:32:22Z</time>
      </trkpt>
      <trkpt lat="59.291415978223085" lon="8.204164998605847">
        <ele>1108.22265625</ele>
        <time>2019-08-21T13:32:23Z</time>
      </trkpt>
      <trkpt lat="59.291415978223085" lon="8.204164998605847">
        <ele>1108.22265625</ele>
        <time>2019-08-21T13:32:24Z</time>
      </trkpt>
      <trkpt lat="59.291415978223085" lon="8.204164998605847">
        <ele>1108.22265625</ele>
        <time>2019-08-21T13:32:25Z</time>
      </trkpt>
      <trkpt lat="59.291415978223085" lon="8.204164998605847">
        <ele>1108.22265625</ele>
        <time>2019-08-21T13:32:26Z</time>
      </trkpt>
      <trkpt lat="59.291415978223085" lon="8.204164998605847">
        <ele>1108.22265625</ele>
        <time>2019-08-21T13:32:27Z</time>
      </trkpt>
      <trkpt lat="59.291415978223085" lon="8.204164998605847">
        <ele>1108.22265625</ele>
        <time>2019-08-21T13:32:28Z</time>
      </trkpt>
      <trkpt lat="59.291415978223085" lon="8.204164998605847">
        <ele>1108.22265625</ele>
        <time>2019-08-21T13:32:29Z</time>
      </trkpt>
      <trkpt lat="59.291415978223085" lon="8.204164998605847">
        <ele>1108.22265625</ele>
        <time>2019-08-21T13:32:30Z</time>
      </trkpt>
      <trkpt lat="59.291415978223085" lon="8.204164998605847">
        <ele>1108.22265625</ele>
        <time>2019-08-21T13:32:31Z</time>
      </trkpt>
      <trkpt lat="59.291415978223085" lon="8.204164998605847">
        <ele>1108.22265625</ele>
        <time>2019-08-21T13:32:32Z</time>
      </trkpt>
      <trkpt lat="59.291415978223085" lon="8.204164998605847">
        <ele>1108.22265625</ele>
        <time>2019-08-21T13:32:33Z</time>
      </trkpt>
      <trkpt lat="59.291415978223085" lon="8.204164998605847">
        <ele>1108.22265625</ele>
        <time>2019-08-21T13:32:34Z</time>
      </trkpt>
      <trkpt lat="59.291415978223085" lon="8.204164998605847">
        <ele>1108.22265625</ele>
        <time>2019-08-21T13:32:35Z</time>
      </trkpt>
      <trkpt lat="59.291415978223085" lon="8.204164998605847">
        <ele>1108.22265625</ele>
        <time>2019-08-21T13:32:36Z</time>
      </trkpt>
      <trkpt lat="59.291415978223085" lon="8.204164998605847">
        <ele>1108.22265625</ele>
        <time>2019-08-21T13:32:37Z</time>
      </trkpt>
      <trkpt lat="59.291415978223085" lon="8.204164998605847">
        <ele>1108.22265625</ele>
        <time>2019-08-21T13:32:38Z</time>
      </trkpt>
      <trkpt lat="59.291415978223085" lon="8.204164998605847">
        <ele>1108.22265625</ele>
        <time>2019-08-21T13:32:39Z</time>
      </trkpt>
      <trkpt lat="59.291415978223085" lon="8.204164998605847">
        <ele>1108.22265625</ele>
        <time>2019-08-21T13:32:40Z</time>
      </trkpt>
      <trkpt lat="59.291415978223085" lon="8.204164998605847">
        <ele>1108.22265625</ele>
        <time>2019-08-21T13:32:41Z</time>
      </trkpt>
      <trkpt lat="59.291415978223085" lon="8.204164998605847">
        <ele>1108.22265625</ele>
        <time>2019-08-21T13:32:42Z</time>
      </trkpt>
      <trkpt lat="59.291415978223085" lon="8.204164998605847">
        <ele>1108.22265625</ele>
        <time>2019-08-21T13:32:43Z</time>
      </trkpt>
      <trkpt lat="59.291415978223085" lon="8.204164998605847">
        <ele>1108.22265625</ele>
        <time>2019-08-21T13:32:44Z</time>
      </trkpt>
      <trkpt lat="59.291415978223085" lon="8.204164998605847">
        <ele>1108.22265625</ele>
        <time>2019-08-21T13:32:45Z</time>
      </trkpt>
      <trkpt lat="59.291415978223085" lon="8.204164998605847">
        <ele>1108.22265625</ele>
        <time>2019-08-21T13:32:46Z</time>
      </trkpt>
      <trkpt lat="59.291415978223085" lon="8.204164998605847">
        <ele>1108.22265625</ele>
        <time>2019-08-21T13:32:47Z</time>
      </trkpt>
      <trkpt lat="59.291415978223085" lon="8.204164998605847">
        <ele>1108.22265625</ele>
        <time>2019-08-21T13:32:48Z</time>
      </trkpt>
      <trkpt lat="59.291415978223085" lon="8.204164998605847">
        <ele>1108.22265625</ele>
        <time>2019-08-21T13:32:49Z</time>
      </trkpt>
      <trkpt lat="59.291415978223085" lon="8.204164998605847">
        <ele>1108.22265625</ele>
        <time>2019-08-21T13:32:50Z</time>
      </trkpt>
      <trkpt lat="59.291415978223085" lon="8.204164998605847">
        <ele>1108.22265625</ele>
        <time>2019-08-21T13:32:51Z</time>
      </trkpt>
      <trkpt lat="59.291415978223085" lon="8.204164998605847">
        <ele>1108.22265625</ele>
        <time>2019-08-21T13:32:52Z</time>
      </trkpt>
      <trkpt lat="59.291415978223085" lon="8.204164998605847">
        <ele>1108.22265625</ele>
        <time>2019-08-21T13:32:53Z</time>
      </trkpt>
      <trkpt lat="59.291415978223085" lon="8.204164998605847">
        <ele>1108.22265625</ele>
        <time>2019-08-21T13:32:54Z</time>
      </trkpt>
      <trkpt lat="59.291415978223085" lon="8.204164998605847">
        <ele>1108.22265625</ele>
        <time>2019-08-21T13:32:55Z</time>
      </trkpt>
      <trkpt lat="59.291415978223085" lon="8.204164998605847">
        <ele>1108.22265625</ele>
        <time>2019-08-21T13:32:56Z</time>
      </trkpt>
      <trkpt lat="59.291415978223085" lon="8.204164998605847">
        <ele>1108.22265625</ele>
        <time>2019-08-21T13:32:57Z</time>
      </trkpt>
      <trkpt lat="59.291415978223085" lon="8.204164998605847">
        <ele>1108.22265625</ele>
        <time>2019-08-21T13:32:58Z</time>
      </trkpt>
      <trkpt lat="59.291415978223085" lon="8.204164998605847">
        <ele>1108.22265625</ele>
        <time>2019-08-21T13:32:59Z</time>
      </trkpt>
      <trkpt lat="59.291415978223085" lon="8.204164998605847">
        <ele>1108.22265625</ele>
        <time>2019-08-21T13:33:00Z</time>
      </trkpt>
      <trkpt lat="59.291415978223085" lon="8.204164998605847">
        <ele>1108.22265625</ele>
        <time>2019-08-21T13:33:01Z</time>
      </trkpt>
      <trkpt lat="59.291415978223085" lon="8.204164998605847">
        <ele>1108.22265625</ele>
        <time>2019-08-21T13:33:02Z</time>
      </trkpt>
      <trkpt lat="59.291415978223085" lon="8.204164998605847">
        <ele>1108.22265625</ele>
        <time>2019-08-21T13:33:03Z</time>
      </trkpt>
      <trkpt lat="59.291415978223085" lon="8.204164998605847">
        <ele>1108.22265625</ele>
        <time>2019-08-21T13:33:04Z</time>
      </trkpt>
      <trkpt lat="59.291415978223085" lon="8.204164998605847">
        <ele>1108.22265625</ele>
        <time>2019-08-21T13:33:05Z</time>
      </trkpt>
      <trkpt lat="59.291415978223085" lon="8.204164998605847">
        <ele>1108.22265625</ele>
        <time>2019-08-21T13:33:06Z</time>
      </trkpt>
      <trkpt lat="59.291415978223085" lon="8.204164998605847">
        <ele>1108.22265625</ele>
        <time>2019-08-21T13:33:07Z</time>
      </trkpt>
      <trkpt lat="59.291415978223085" lon="8.204164998605847">
        <ele>1108.22265625</ele>
        <time>2019-08-21T13:33:08Z</time>
      </trkpt>
      <trkpt lat="59.291415978223085" lon="8.204164998605847">
        <ele>1108.22265625</ele>
        <time>2019-08-21T13:33:09Z</time>
      </trkpt>
      <trkpt lat="59.291415978223085" lon="8.204164998605847">
        <ele>1108.22265625</ele>
        <time>2019-08-21T13:33:10Z</time>
      </trkpt>
      <trkpt lat="59.291415978223085" lon="8.204164998605847">
        <ele>1108.22265625</ele>
        <time>2019-08-21T13:33:11Z</time>
      </trkpt>
      <trkpt lat="59.291415978223085" lon="8.204164998605847">
        <ele>1108.22265625</ele>
        <time>2019-08-21T13:33:12Z</time>
      </trkpt>
      <trkpt lat="59.291415978223085" lon="8.204164998605847">
        <ele>1108.22265625</ele>
        <time>2019-08-21T13:33:13Z</time>
      </trkpt>
      <trkpt lat="59.291415978223085" lon="8.204166004434228">
        <ele>1108.21875</ele>
        <time>2019-08-21T13:33:14Z</time>
      </trkpt>
      <trkpt lat="59.291415978223085" lon="8.204164998605847">
        <ele>1108.22265625</ele>
        <time>2019-08-21T13:33:15Z</time>
      </trkpt>
      <trkpt lat="59.291415978223085" lon="8.204164998605847">
        <ele>1108.22265625</ele>
        <time>2019-08-21T13:33:16Z</time>
      </trkpt>
      <trkpt lat="59.291415978223085" lon="8.204164998605847">
        <ele>1108.22265625</ele>
        <time>2019-08-21T13:33:17Z</time>
      </trkpt>
      <trkpt lat="59.291415978223085" lon="8.204166004434228">
        <ele>1108.21875</ele>
        <time>2019-08-21T13:33:18Z</time>
      </trkpt>
      <trkpt lat="59.291415978223085" lon="8.204166004434228">
        <ele>1108.21875</ele>
        <time>2019-08-21T13:33:19Z</time>
      </trkpt>
      <trkpt lat="59.291415978223085" lon="8.204166004434228">
        <ele>1108.21875</ele>
        <time>2019-08-21T13:33:20Z</time>
      </trkpt>
      <trkpt lat="59.291415978223085" lon="8.204166004434228">
        <ele>1108.21875</ele>
        <time>2019-08-21T13:33:21Z</time>
      </trkpt>
      <trkpt lat="59.291415978223085" lon="8.204166004434228">
        <ele>1108.21875</ele>
        <time>2019-08-21T13:33:22Z</time>
      </trkpt>
      <trkpt lat="59.291415978223085" lon="8.204166004434228">
        <ele>1108.21875</ele>
        <time>2019-08-21T13:33:23Z</time>
      </trkpt>
      <trkpt lat="59.291415978223085" lon="8.204164998605847">
        <ele>1108.22265625</ele>
        <time>2019-08-21T13:33:24Z</time>
      </trkpt>
      <trkpt lat="59.291416984051466" lon="8.204162986949086">
        <ele>1108.19921875</ele>
        <time>2019-08-21T13:33:25Z</time>
      </trkpt>
      <trkpt lat="59.291418995708227" lon="8.204160975292325">
        <ele>1108.14453125</ele>
        <time>2019-08-21T13:33:26Z</time>
      </trkpt>
      <trkpt lat="59.291421007364988" lon="8.204159969463944">
        <ele>1108.08984375</ele>
        <time>2019-08-21T13:33:27Z</time>
      </trkpt>
      <trkpt lat="59.291421007364988" lon="8.204158041626215">
        <ele>1108.09375</ele>
        <time>2019-08-21T13:33:28Z</time>
      </trkpt>
      <trkpt lat="59.291421007364988" lon="8.204158963635564">
        <ele>1108.08984375</ele>
        <time>2019-08-21T13:33:29Z</time>
      </trkpt>
      <trkpt lat="59.291420001536608" lon="8.204159969463944">
        <ele>1108.1171875</ele>
        <time>2019-08-21T13:33:30Z</time>
      </trkpt>
      <trkpt lat="59.291421007364988" lon="8.204159969463944">
        <ele>1108.08984375</ele>
        <time>2019-08-21T13:33:31Z</time>
      </trkpt>
      <trkpt lat="59.291421007364988" lon="8.204159969463944">
        <ele>1108.08984375</ele>
        <time>2019-08-21T13:33:32Z</time>
      </trkpt>
      <trkpt lat="59.291420001536608" lon="8.204160975292325">
        <ele>1108.1171875</ele>
        <time>2019-08-21T13:33:33Z</time>
      </trkpt>
      <trkpt lat="59.291421007364988" lon="8.204159969463944">
        <ele>1108.08984375</ele>
        <time>2019-08-21T13:33:34Z</time>
      </trkpt>
      <trkpt lat="59.291421007364988" lon="8.204158963635564">
        <ele>1108.08984375</ele>
        <time>2019-08-21T13:33:35Z</time>
      </trkpt>
      <trkpt lat="59.291421007364988" lon="8.204158963635564">
        <ele>1108.08984375</ele>
        <time>2019-08-21T13:33:36Z</time>
      </trkpt>
      <trkpt lat="59.291421007364988" lon="8.204158963635564">
        <ele>1108.08984375</ele>
        <time>2019-08-21T13:33:37Z</time>
      </trkpt>
      <trkpt lat="59.291421007364988" lon="8.204158963635564">
        <ele>1108.08984375</ele>
        <time>2019-08-21T13:33:38Z</time>
      </trkpt>
      <trkpt lat="59.291421007364988" lon="8.204158963635564">
        <ele>1108.08984375</ele>
        <time>2019-08-21T13:33:39Z</time>
      </trkpt>
      <trkpt lat="59.291421007364988" lon="8.204158963635564">
        <ele>1108.08984375</ele>
        <time>2019-08-21T13:33:40Z</time>
      </trkpt>
      <trkpt lat="59.291421007364988" lon="8.204158963635564">
        <ele>1108.08984375</ele>
        <time>2019-08-21T13:33:41Z</time>
      </trkpt>
      <trkpt lat="59.291421007364988" lon="8.204158963635564">
        <ele>1108.08984375</ele>
        <time>2019-08-21T13:33:42Z</time>
      </trkpt>
      <trkpt lat="59.291421007364988" lon="8.204158963635564">
        <ele>1108.08984375</ele>
        <time>2019-08-21T13:33:43Z</time>
      </trkpt>
      <trkpt lat="59.291421007364988" lon="8.204158963635564">
        <ele>1108.08984375</ele>
        <time>2019-08-21T13:33:44Z</time>
      </trkpt>
      <trkpt lat="59.291420001536608" lon="8.204158963635564">
        <ele>1108.12109375</ele>
        <time>2019-08-21T13:33:45Z</time>
      </trkpt>
      <trkpt lat="59.291420001536608" lon="8.204158963635564">
        <ele>1108.12109375</ele>
        <time>2019-08-21T13:33:46Z</time>
      </trkpt>
      <trkpt lat="59.291420001536608" lon="8.204158963635564">
        <ele>1108.12109375</ele>
        <time>2019-08-21T13:33:47Z</time>
      </trkpt>
      <trkpt lat="59.291420001536608" lon="8.204158963635564">
        <ele>1108.12109375</ele>
        <time>2019-08-21T13:33:48Z</time>
      </trkpt>
      <trkpt lat="59.291420001536608" lon="8.204158963635564">
        <ele>1108.12109375</ele>
        <time>2019-08-21T13:33:49Z</time>
      </trkpt>
      <trkpt lat="59.291420001536608" lon="8.204158963635564">
        <ele>1108.12109375</ele>
        <time>2019-08-21T13:33:50Z</time>
      </trkpt>
      <trkpt lat="59.291420001536608" lon="8.204158963635564">
        <ele>1108.12109375</ele>
        <time>2019-08-21T13:33:51Z</time>
      </trkpt>
      <trkpt lat="59.291420001536608" lon="8.204158963635564">
        <ele>1108.12109375</ele>
        <time>2019-08-21T13:33:52Z</time>
      </trkpt>
      <trkpt lat="59.291420001536608" lon="8.204158963635564">
        <ele>1108.12109375</ele>
        <time>2019-08-21T13:33:53Z</time>
      </trkpt>
      <trkpt lat="59.291420001536608" lon="8.204158963635564">
        <ele>1108.12109375</ele>
        <time>2019-08-21T13:33:54Z</time>
      </trkpt>
      <trkpt lat="59.291420001536608" lon="8.204158963635564">
        <ele>1108.12109375</ele>
        <time>2019-08-21T13:33:55Z</time>
      </trkpt>
      <trkpt lat="59.291420001536608" lon="8.204158963635564">
        <ele>1108.12109375</ele>
        <time>2019-08-21T13:33:56Z</time>
      </trkpt>
      <trkpt lat="59.291421007364988" lon="8.204159969463944">
        <ele>1108.08984375</ele>
        <time>2019-08-21T13:33:57Z</time>
      </trkpt>
      <trkpt lat="59.291412960737944" lon="8.204163992777467">
        <ele>1108.31640625</ele>
        <time>2019-08-21T13:33:58Z</time>
      </trkpt>
      <trkpt lat="59.291410027071834" lon="8.204163992777467">
        <ele>1108.40234375</ele>
        <time>2019-08-21T13:33:59Z</time>
      </trkpt>
      <trkpt lat="59.291409021243453" lon="8.204162986949086">
        <ele>1108.43359375</ele>
        <time>2019-08-21T13:34:00Z</time>
      </trkpt>
      <trkpt lat="59.291409021243453" lon="8.204161981120706">
        <ele>1108.4375</ele>
        <time>2019-08-21T13:34:01Z</time>
      </trkpt>
      <trkpt lat="59.291410027071834" lon="8.204162986949086">
        <ele>1108.40625</ele>
        <time>2019-08-21T13:34:02Z</time>
      </trkpt>
      <trkpt lat="59.291408015415072" lon="8.204166004434228">
        <ele>1108.45703125</ele>
        <time>2019-08-21T13:34:03Z</time>
      </trkpt>
      <trkpt lat="59.291408015415072" lon="8.204166004434228">
        <ele>1108.45703125</ele>
        <time>2019-08-21T13:34:04Z</time>
      </trkpt>
      <trkpt lat="59.291408015415072" lon="8.204168016090989">
        <ele>1108.44921875</ele>
        <time>2019-08-21T13:34:05Z</time>
      </trkpt>
      <trkpt lat="59.291407009586692" lon="8.20417002774775">
        <ele>1108.46484375</ele>
        <time>2019-08-21T13:34:06Z</time>
      </trkpt>
      <trkpt lat="59.291407009586692" lon="8.20417002774775">
        <ele>1108.46484375</ele>
        <time>2019-08-21T13:34:07Z</time>
      </trkpt>
      <trkpt lat="59.291407009586692" lon="8.20417002774775">
        <ele>1108.46484375</ele>
        <time>2019-08-21T13:34:08Z</time>
      </trkpt>
      <trkpt lat="59.291407009586692" lon="8.20417002774775">
        <ele>1108.46484375</ele>
        <time>2019-08-21T13:34:09Z</time>
      </trkpt>
      <trkpt lat="59.291407009586692" lon="8.20417002774775">
        <ele>1108.46484375</ele>
        <time>2019-08-21T13:34:10Z</time>
      </trkpt>
      <trkpt lat="59.291407009586692" lon="8.20417002774775">
        <ele>1108.46484375</ele>
        <time>2019-08-21T13:34:11Z</time>
      </trkpt>
      <trkpt lat="59.291407009586692" lon="8.20417002774775">
        <ele>1108.46484375</ele>
        <time>2019-08-21T13:34:12Z</time>
      </trkpt>
      <trkpt lat="59.291407009586692" lon="8.20416902191937">
        <ele>1108.47265625</ele>
        <time>2019-08-21T13:34:13Z</time>
      </trkpt>
      <trkpt lat="59.291407009586692" lon="8.20417002774775">
        <ele>1108.46484375</ele>
        <time>2019-08-21T13:34:14Z</time>
      </trkpt>
      <trkpt lat="59.291407009586692" lon="8.20416902191937">
        <ele>1108.47265625</ele>
        <time>2019-08-21T13:34:15Z</time>
      </trkpt>
      <trkpt lat="59.291408015415072" lon="8.20416902191937">
        <ele>1108.44140625</ele>
        <time>2019-08-21T13:34:16Z</time>
      </trkpt>
      <trkpt lat="59.291408015415072" lon="8.20416902191937">
        <ele>1108.44140625</ele>
        <time>2019-08-21T13:34:17Z</time>
      </trkpt>
      <trkpt lat="59.291408015415072" lon="8.20416902191937">
        <ele>1108.44140625</ele>
        <time>2019-08-21T13:34:18Z</time>
      </trkpt>
      <trkpt lat="59.291407009586692" lon="8.204163992777467">
        <ele>1108.4921875</ele>
        <time>2019-08-21T13:34:19Z</time>
      </trkpt>
      <trkpt lat="59.291407009586692" lon="8.204162986949086">
        <ele>1108.49609375</ele>
        <time>2019-08-21T13:34:20Z</time>
      </trkpt>
      <trkpt lat="59.291406003758311" lon="8.204162986949086">
        <ele>1108.5234375</ele>
        <time>2019-08-21T13:34:21Z</time>
      </trkpt>
      <trkpt lat="59.291406003758311" lon="8.204162986949086">
        <ele>1108.5234375</ele>
        <time>2019-08-21T13:34:22Z</time>
      </trkpt>
      <trkpt lat="59.291406003758311" lon="8.204162986949086">
        <ele>1108.5234375</ele>
        <time>2019-08-21T13:34:23Z</time>
      </trkpt>
      <trkpt lat="59.291406003758311" lon="8.204162986949086">
        <ele>1108.5234375</ele>
        <time>2019-08-21T13:34:24Z</time>
      </trkpt>
      <trkpt lat="59.291406003758311" lon="8.204162986949086">
        <ele>1108.5234375</ele>
        <time>2019-08-21T13:34:25Z</time>
      </trkpt>
      <trkpt lat="59.291406003758311" lon="8.204162986949086">
        <ele>1108.5234375</ele>
        <time>2019-08-21T13:34:26Z</time>
      </trkpt>
      <trkpt lat="59.291406003758311" lon="8.204162986949086">
        <ele>1108.5234375</ele>
        <time>2019-08-21T13:34:27Z</time>
      </trkpt>
      <trkpt lat="59.291406003758311" lon="8.204162986949086">
        <ele>1108.5234375</ele>
        <time>2019-08-21T13:34:28Z</time>
      </trkpt>
      <trkpt lat="59.291407009586692" lon="8.204162986949086">
        <ele>1108.49609375</ele>
        <time>2019-08-21T13:34:29Z</time>
      </trkpt>
      <trkpt lat="59.291407009586692" lon="8.204162986949086">
        <ele>1108.49609375</ele>
        <time>2019-08-21T13:34:30Z</time>
      </trkpt>
      <trkpt lat="59.291407009586692" lon="8.204162986949086">
        <ele>1108.49609375</ele>
        <time>2019-08-21T13:34:31Z</time>
      </trkpt>
      <trkpt lat="59.291407009586692" lon="8.204162986949086">
        <ele>1108.49609375</ele>
        <time>2019-08-21T13:34:32Z</time>
      </trkpt>
      <trkpt lat="59.291407009586692" lon="8.204164998605847">
        <ele>1108.48828125</ele>
        <time>2019-08-21T13:34:33Z</time>
      </trkpt>
      <trkpt lat="59.291406003758311" lon="8.204163992777467">
        <ele>1108.51953125</ele>
        <time>2019-08-21T13:34:34Z</time>
      </trkpt>
      <trkpt lat="59.291406003758311" lon="8.204163992777467">
        <ele>1108.51953125</ele>
        <time>2019-08-21T13:34:35Z</time>
      </trkpt>
      <trkpt lat="59.291406003758311" lon="8.204163992777467">
        <ele>1108.51953125</ele>
        <time>2019-08-21T13:34:36Z</time>
      </trkpt>
      <trkpt lat="59.291406003758311" lon="8.204163992777467">
        <ele>1108.51953125</ele>
        <time>2019-08-21T13:34:37Z</time>
      </trkpt>
      <trkpt lat="59.291407009586692" lon="8.204163992777467">
        <ele>1108.4921875</ele>
        <time>2019-08-21T13:34:38Z</time>
      </trkpt>
      <trkpt lat="59.291407009586692" lon="8.204163992777467">
        <ele>1108.4921875</ele>
        <time>2019-08-21T13:34:39Z</time>
      </trkpt>
      <trkpt lat="59.291407009586692" lon="8.204163992777467">
        <ele>1108.4921875</ele>
        <time>2019-08-21T13:34:40Z</time>
      </trkpt>
      <trkpt lat="59.291407009586692" lon="8.204163992777467">
        <ele>1108.4921875</ele>
        <time>2019-08-21T13:34:41Z</time>
      </trkpt>
      <trkpt lat="59.291407009586692" lon="8.204163992777467">
        <ele>1108.4921875</ele>
        <time>2019-08-21T13:34:42Z</time>
      </trkpt>
      <trkpt lat="59.291407009586692" lon="8.204163992777467">
        <ele>1108.4921875</ele>
        <time>2019-08-21T13:34:43Z</time>
      </trkpt>
      <trkpt lat="59.291407009586692" lon="8.204163992777467">
        <ele>1108.4921875</ele>
        <time>2019-08-21T13:34:44Z</time>
      </trkpt>
      <trkpt lat="59.291407009586692" lon="8.204163992777467">
        <ele>1108.4921875</ele>
        <time>2019-08-21T13:34:45Z</time>
      </trkpt>
      <trkpt lat="59.291407009586692" lon="8.204163992777467">
        <ele>1108.4921875</ele>
        <time>2019-08-21T13:34:46Z</time>
      </trkpt>
      <trkpt lat="59.291407009586692" lon="8.204163992777467">
        <ele>1108.4921875</ele>
        <time>2019-08-21T13:34:47Z</time>
      </trkpt>
      <trkpt lat="59.291407009586692" lon="8.204163992777467">
        <ele>1108.4921875</ele>
        <time>2019-08-21T13:34:48Z</time>
      </trkpt>
      <trkpt lat="59.291407009586692" lon="8.204163992777467">
        <ele>1108.4921875</ele>
        <time>2019-08-21T13:34:49Z</time>
      </trkpt>
      <trkpt lat="59.291407009586692" lon="8.204163992777467">
        <ele>1108.4921875</ele>
        <time>2019-08-21T13:34:50Z</time>
      </trkpt>
      <trkpt lat="59.291407009586692" lon="8.204163992777467">
        <ele>1108.4921875</ele>
        <time>2019-08-21T13:34:51Z</time>
      </trkpt>
      <trkpt lat="59.291393011808395" lon="8.204183019697666">
        <ele>1108.77734375</ele>
        <time>2019-08-21T13:34:53Z</time>
      </trkpt>
      <trkpt lat="59.291383037343621" lon="8.204218978062272">
        <ele>1108.796875</ele>
        <time>2019-08-21T13:34:54Z</time>
      </trkpt>
      <trkpt lat="59.29138102568686" lon="8.204273041337729">
        <ele>1108.44140625</ele>
        <time>2019-08-21T13:34:55Z</time>
      </trkpt>
      <trkpt lat="59.291374990716577" lon="8.204326014965773">
        <ele>1108.21484375</ele>
        <time>2019-08-21T13:34:56Z</time>
      </trkpt>
      <trkpt lat="59.291370967403054" lon="8.204373037442565">
        <ele>1107.98828125</ele>
        <time>2019-08-21T13:34:57Z</time>
      </trkpt>
      <trkpt lat="59.291365016251802" lon="8.204404972493649">
        <ele>1107.953125</ele>
        <time>2019-08-21T13:34:58Z</time>
      </trkpt>
      <trkpt lat="59.2913599871099" lon="8.204437997192144">
        <ele>1107.875</ele>
        <time>2019-08-21T13:34:59Z</time>
      </trkpt>
      <trkpt lat="59.291345989331603" lon="8.204488959163427">
        <ele>1107.87890625</ele>
        <time>2019-08-21T13:35:00Z</time>
      </trkpt>
      <trkpt lat="59.291331991553307" lon="8.204546039924026">
        <ele>1107.80859375</ele>
        <time>2019-08-21T13:35:01Z</time>
      </trkpt>
      <trkpt lat="59.291330985724926" lon="8.20460001938045">
        <ele>1107.30859375</ele>
        <time>2019-08-21T13:35:02Z</time>
      </trkpt>
      <trkpt lat="59.291339032351971" lon="8.204663973301649">
        <ele>1106.39453125</ele>
        <time>2019-08-21T13:35:03Z</time>
      </trkpt>
      <trkpt lat="59.291348000988364" lon="8.204733962193131">
        <ele>1105.44140625</ele>
        <time>2019-08-21T13:35:04Z</time>
      </trkpt>
      <trkpt lat="59.291358981281519" lon="8.204802023246884">
        <ele>1104.69921875</ele>
        <time>2019-08-21T13:35:05Z</time>
      </trkpt>
      <trkpt lat="59.291363004595041" lon="8.20485801436007">
        <ele>1104.2578125</ele>
        <time>2019-08-21T13:35:06Z</time>
      </trkpt>
      <trkpt lat="59.29136099293828" lon="8.204897996038199">
        <ele>1104.125</ele>
        <time>2019-08-21T13:35:07Z</time>
      </trkpt>
      <trkpt lat="59.291357975453138" lon="8.20492297410965">
        <ele>1104.11328125</ele>
        <time>2019-08-21T13:35:08Z</time>
      </trkpt>
      <trkpt lat="59.291352024301887" lon="8.204947030171752">
        <ele>1104.22265625</ele>
        <time>2019-08-21T13:35:09Z</time>
      </trkpt>
      <trkpt lat="59.291349006816745" lon="8.204980976879597">
        <ele>1104.17578125</ele>
        <time>2019-08-21T13:35:10Z</time>
      </trkpt>
      <trkpt lat="59.291348000988364" lon="8.205010984092951">
        <ele>1104.0234375</ele>
        <time>2019-08-21T13:35:11Z</time>
      </trkpt>
      <trkpt lat="59.29133702069521" lon="8.205036967992783">
        <ele>1104.24609375</ele>
        <time>2019-08-21T13:35:12Z</time>
      </trkpt>
      <trkpt lat="59.291327968239784" lon="8.205059012398124">
        <ele>1104.44140625</ele>
        <time>2019-08-21T13:35:13Z</time>
      </trkpt>
      <trkpt lat="59.291327968239784" lon="8.205087007954717">
        <ele>1104.203125</ele>
        <time>2019-08-21T13:35:14Z</time>
      </trkpt>
      <trkpt lat="59.291327968239784" lon="8.205129001289606">
        <ele>1103.8515625</ele>
        <time>2019-08-21T13:35:15Z</time>
      </trkpt>
      <trkpt lat="59.291329979896545" lon="8.205164959654212">
        <ele>1103.45703125</ele>
        <time>2019-08-21T13:35:16Z</time>
      </trkpt>
      <trkpt lat="59.291328974068165" lon="8.205193961039186">
        <ele>1103.2578125</ele>
        <time>2019-08-21T13:35:17Z</time>
      </trkpt>
      <trkpt lat="59.291320005431771" lon="8.205222962424159">
        <ele>1103.44140625</ele>
        <time>2019-08-21T13:35:18Z</time>
      </trkpt>
      <trkpt lat="59.291306007653475" lon="8.205251963809133">
        <ele>1103.8828125</ele>
        <time>2019-08-21T13:35:19Z</time>
      </trkpt>
      <trkpt lat="59.291326040402055" lon="8.205203013494611">
        <ele>1103.3203125</ele>
        <time>2019-08-21T13:35:21Z</time>
      </trkpt>
      <trkpt lat="59.291325034573674" lon="8.205160014331341">
        <ele>1103.72265625</ele>
        <time>2019-08-21T13:35:22Z</time>
      </trkpt>
      <trkpt lat="59.291326962411404" lon="8.205123972147703">
        <ele>1103.9375</ele>
        <time>2019-08-21T13:35:23Z</time>
      </trkpt>
      <trkpt lat="59.291328974068165" lon="8.20509597659111">
        <ele>1104.0859375</ele>
        <time>2019-08-21T13:35:24Z</time>
      </trkpt>
      <trkpt lat="59.291326962411404" lon="8.205109974369407">
        <ele>1104.0546875</ele>
        <time>2019-08-21T13:35:25Z</time>
      </trkpt>
      <trkpt lat="59.291326040402055" lon="8.205131012946367">
        <ele>1103.921875</ele>
        <time>2019-08-21T13:35:26Z</time>
      </trkpt>
      <trkpt lat="59.291310030966997" lon="8.205187004059553">
        <ele>1104.19921875</ele>
        <time>2019-08-21T13:35:28Z</time>
      </trkpt>
      <trkpt lat="59.29131799377501" lon="8.20518197491765">
        <ele>1103.8671875</ele>
        <time>2019-08-21T13:35:29Z</time>
      </trkpt>
      <trkpt lat="59.291326962411404" lon="8.205170994624496">
        <ele>1103.54296875</ele>
        <time>2019-08-21T13:35:30Z</time>
      </trkpt>
      <trkpt lat="59.291336014866829" lon="8.205079967156053">
        <ele>1103.91796875</ele>
        <time>2019-08-21T13:35:32Z</time>
      </trkpt>
      <trkpt lat="59.29133702069521" lon="8.205061024054885">
        <ele>1104.0390625</ele>
        <time>2019-08-21T13:35:33Z</time>
      </trkpt>
      <trkpt lat="59.29133702069521" lon="8.205062029883266">
        <ele>1104.03125</ele>
        <time>2019-08-21T13:35:34Z</time>
      </trkpt>
      <trkpt lat="59.291334003210068" lon="8.205151967704296">
        <ele>1103.3828125</ele>
        <time>2019-08-21T13:35:36Z</time>
      </trkpt>
      <trkpt lat="59.291330985724926" lon="8.205174012109637">
        <ele>1103.33203125</ele>
        <time>2019-08-21T13:35:37Z</time>
      </trkpt>
      <trkpt lat="59.291339032351971" lon="8.20517904125154">
        <ele>1102.91796875</ele>
        <time>2019-08-21T13:35:38Z</time>
      </trkpt>
      <trkpt lat="59.29133702069521" lon="8.205177029594779">
        <ele>1103.02734375</ele>
        <time>2019-08-21T13:35:39Z</time>
      </trkpt>
      <trkpt lat="59.291335009038448" lon="8.20515800267458">
        <ele>1103.28515625</ele>
        <time>2019-08-21T13:35:40Z</time>
      </trkpt>
      <trkpt lat="59.2913409601897" lon="8.205137969926">
        <ele>1103.19140625</ele>
        <time>2019-08-21T13:35:41Z</time>
      </trkpt>
      <trkpt lat="59.2913409601897" lon="8.205105029046536">
        <ele>1103.48046875</ele>
        <time>2019-08-21T13:35:43Z</time>
      </trkpt>
      <trkpt lat="59.291340038180351" lon="8.20511500351131">
        <ele>1103.43359375</ele>
        <time>2019-08-21T13:35:44Z</time>
      </trkpt>
      <trkpt lat="59.291339032351971" lon="8.205121960490942">
        <ele>1103.41796875</ele>
        <time>2019-08-21T13:35:45Z</time>
      </trkpt>
      <trkpt lat="59.291332997381687" lon="8.205120032653213">
        <ele>1103.703125</ele>
        <time>2019-08-21T13:35:46Z</time>
      </trkpt>
      <trkpt lat="59.291328974068165" lon="8.20511500351131">
        <ele>1103.92578125</ele>
        <time>2019-08-21T13:35:47Z</time>
      </trkpt>
      <trkpt lat="59.291328974068165" lon="8.20511600933969">
        <ele>1103.9140625</ele>
        <time>2019-08-21T13:35:48Z</time>
      </trkpt>
      <trkpt lat="59.291328974068165" lon="8.20511600933969">
        <ele>1103.9140625</ele>
        <time>2019-08-21T13:35:49Z</time>
      </trkpt>
      <trkpt lat="59.291328974068165" lon="8.20511600933969">
        <ele>1103.9140625</ele>
        <time>2019-08-21T13:35:50Z</time>
      </trkpt>
      <trkpt lat="59.291335009038448" lon="8.205110980197787">
        <ele>1103.69140625</ele>
        <time>2019-08-21T13:35:51Z</time>
      </trkpt>
      <trkpt lat="59.291335009038448" lon="8.20518197491765">
        <ele>1103.078125</ele>
        <time>2019-08-21T13:35:53Z</time>
      </trkpt>
      <trkpt lat="59.291330985724926" lon="8.205206030979753">
        <ele>1103.0625</ele>
        <time>2019-08-21T13:35:54Z</time>
      </trkpt>
      <trkpt lat="59.291334003210068" lon="8.205207958817482">
        <ele>1102.90234375</ele>
        <time>2019-08-21T13:35:55Z</time>
      </trkpt>
      <trkpt lat="59.291331991553307" lon="8.205161020159721">
        <ele>1103.3984375</ele>
        <time>2019-08-21T13:35:57Z</time>
      </trkpt>
      <trkpt lat="59.291326962411404" lon="8.205129001289606">
        <ele>1103.89453125</ele>
        <time>2019-08-21T13:35:58Z</time>
      </trkpt>
      <trkpt lat="59.291321011260152" lon="8.205113997682929">
        <ele>1104.28515625</ele>
        <time>2019-08-21T13:35:59Z</time>
      </trkpt>
      <trkpt lat="59.291322017088532" lon="8.205119026824832">
        <ele>1104.19921875</ele>
        <time>2019-08-21T13:36:00Z</time>
      </trkpt>
      <trkpt lat="59.291321011260152" lon="8.205117015168071">
        <ele>1104.26171875</ele>
        <time>2019-08-21T13:36:01Z</time>
      </trkpt>
      <trkpt lat="59.291318999603391" lon="8.205108968541026">
        <ele>1104.4140625</ele>
        <time>2019-08-21T13:36:02Z</time>
      </trkpt>
      <trkpt lat="59.29131698794663" lon="8.20509597659111">
        <ele>1104.609375</ele>
        <time>2019-08-21T13:36:03Z</time>
      </trkpt>
      <trkpt lat="59.29131698794663" lon="8.205082984641194">
        <ele>1104.71484375</ele>
        <time>2019-08-21T13:36:04Z</time>
      </trkpt>
      <trkpt lat="59.291328974068165" lon="8.20505197159946">
        <ele>1104.45703125</ele>
        <time>2019-08-21T13:36:06Z</time>
      </trkpt>
      <trkpt lat="59.291330985724926" lon="8.205034034326673">
        <ele>1104.5234375</ele>
        <time>2019-08-21T13:36:07Z</time>
      </trkpt>
      <trkpt lat="59.291331991553307" lon="8.20500897243619">
        <ele>1104.6953125</ele>
        <time>2019-08-21T13:36:08Z</time>
      </trkpt>
      <trkpt lat="59.291330985724926" lon="8.20498701184988">
        <ele>1104.87109375</ele>
        <time>2019-08-21T13:36:09Z</time>
      </trkpt>
      <trkpt lat="59.291335009038448" lon="8.204957004636526">
        <ele>1104.8515625</ele>
        <time>2019-08-21T13:36:10Z</time>
      </trkpt>
      <trkpt lat="59.291335009038448" lon="8.204934960231185">
        <ele>1104.953125</ele>
        <time>2019-08-21T13:36:11Z</time>
      </trkpt>
      <trkpt lat="59.291341966018081" lon="8.204926997423172">
        <ele>1104.71875</ele>
        <time>2019-08-21T13:36:12Z</time>
      </trkpt>
      <trkpt lat="59.291349006816745" lon="8.204910987988114">
        <ele>1104.5234375</ele>
        <time>2019-08-21T13:36:13Z</time>
      </trkpt>
      <trkpt lat="59.291351018473506" lon="8.204891961067915">
        <ele>1104.54296875</ele>
        <time>2019-08-21T13:36:14Z</time>
      </trkpt>
      <trkpt lat="59.291341966018081" lon="8.204873017966747">
        <ele>1104.98046875</ele>
        <time>2019-08-21T13:36:15Z</time>
      </trkpt>
      <trkpt lat="59.291325034573674" lon="8.204833958297968">
        <ele>1105.80078125</ele>
        <time>2019-08-21T13:36:16Z</time>
      </trkpt>
      <trkpt lat="59.291309025138617" lon="8.204792970791459">
        <ele>1106.5703125</ele>
        <time>2019-08-21T13:36:17Z</time>
      </trkpt>
      <trkpt lat="59.291306007653475" lon="8.20475198328495">
        <ele>1106.8515625</ele>
        <time>2019-08-21T13:36:18Z</time>
      </trkpt>
      <trkpt lat="59.291303995996714" lon="8.204715019091964">
        <ele>1107.12109375</ele>
        <time>2019-08-21T13:36:19Z</time>
      </trkpt>
      <trkpt lat="59.291299972683191" lon="8.204688029363751">
        <ele>1107.53125</ele>
        <time>2019-08-21T13:36:20Z</time>
      </trkpt>
      <trkpt lat="59.29129402153194" lon="8.204663973301649">
        <ele>1107.9765625</ele>
        <time>2019-08-21T13:36:21Z</time>
      </trkpt>
      <trkpt lat="59.291291004046798" lon="8.20464201271534">
        <ele>1108.30078125</ele>
        <time>2019-08-21T13:36:22Z</time>
      </trkpt>
      <trkpt lat="59.291293015703559" lon="8.204620974138379">
        <ele>1108.4375</ele>
        <time>2019-08-21T13:36:23Z</time>
      </trkpt>
      <trkpt lat="59.29129796102643" lon="8.204598007723689">
        <ele>1108.4921875</ele>
        <time>2019-08-21T13:36:24Z</time>
      </trkpt>
      <trkpt lat="59.291300978511572" lon="8.204575041308999">
        <ele>1108.609375</ele>
        <time>2019-08-21T13:36:25Z</time>
      </trkpt>
      <trkpt lat="59.291302990168333" lon="8.204555008560419">
        <ele>1108.73828125</ele>
        <time>2019-08-21T13:36:26Z</time>
      </trkpt>
      <trkpt lat="59.291306007653475" lon="8.20453598164022">
        <ele>1108.8203125</ele>
        <time>2019-08-21T13:36:27Z</time>
      </trkpt>
      <trkpt lat="59.291311958804727" lon="8.204517038539052">
        <ele>1108.796875</ele>
        <time>2019-08-21T13:36:28Z</time>
      </trkpt>
      <trkpt lat="59.291312964633107" lon="8.204503040760756">
        <ele>1108.90234375</ele>
        <time>2019-08-21T13:36:29Z</time>
      </trkpt>
      <trkpt lat="59.291313970461488" lon="8.204485019668937">
        <ele>1109.04296875</ele>
        <time>2019-08-21T13:36:30Z</time>
      </trkpt>
      <trkpt lat="59.29131698794663" lon="8.20447102189064">
        <ele>1109.07421875</ele>
        <time>2019-08-21T13:36:31Z</time>
      </trkpt>
      <trkpt lat="59.291328974068165" lon="8.204455012455583">
        <ele>1108.8125</ele>
        <time>2019-08-21T13:36:32Z</time>
      </trkpt>
      <trkpt lat="59.291340038180351" lon="8.204445037990809">
        <ele>1108.5234375</ele>
        <time>2019-08-21T13:36:33Z</time>
      </trkpt>
      <trkpt lat="59.291342971846461" lon="8.204434979707003">
        <ele>1108.49609375</ele>
        <time>2019-08-21T13:36:34Z</time>
      </trkpt>
      <trkpt lat="59.291343977674842" lon="8.204413019120693">
        <ele>1108.6328125</ele>
        <time>2019-08-21T13:36:35Z</time>
      </trkpt>
      <trkpt lat="59.291349006816745" lon="8.204388041049242">
        <ele>1108.65234375</ele>
        <time>2019-08-21T13:36:36Z</time>
      </trkpt>
      <trkpt lat="59.291349006816745" lon="8.204365996643901">
        <ele>1108.82421875</ele>
        <time>2019-08-21T13:36:37Z</time>
      </trkpt>
      <trkpt lat="59.291350012645125" lon="8.204349987208843">
        <ele>1108.91015625</ele>
        <time>2019-08-21T13:36:38Z</time>
      </trkpt>
      <trkpt lat="59.291349006816745" lon="8.204336995258927">
        <ele>1109.05078125</ele>
        <time>2019-08-21T13:36:39Z</time>
      </trkpt>
      <trkpt lat="59.291350012645125" lon="8.204317968338728">
        <ele>1109.16015625</ele>
        <time>2019-08-21T13:36:40Z</time>
      </trkpt>
      <trkpt lat="59.291351018473506" lon="8.20429801940918">
        <ele>1109.28125</ele>
        <time>2019-08-21T13:36:41Z</time>
      </trkpt>
      <trkpt lat="59.291348000988364" lon="8.2042779866606">
        <ele>1109.546875</ele>
        <time>2019-08-21T13:36:42Z</time>
      </trkpt>
      <trkpt lat="59.291346995159984" lon="8.2042589597404">
        <ele>1109.73046875</ele>
        <time>2019-08-21T13:36:43Z</time>
      </trkpt>
      <trkpt lat="59.291348000988364" lon="8.204239010810852">
        <ele>1109.84765625</ele>
        <time>2019-08-21T13:36:44Z</time>
      </trkpt>
      <trkpt lat="59.291350012645125" lon="8.204218978062272">
        <ele>1109.93359375</ele>
        <time>2019-08-21T13:36:45Z</time>
      </trkpt>
      <trkpt lat="59.291354035958648" lon="8.204199029132724">
        <ele>1109.94140625</ele>
        <time>2019-08-21T13:36:46Z</time>
      </trkpt>
      <trkpt lat="59.291358981281519" lon="8.204176984727383">
        <ele>1109.93359375</ele>
        <time>2019-08-21T13:36:47Z</time>
      </trkpt>
      <trkpt lat="59.291378008201718" lon="8.204161981120706">
        <ele>1109.35546875</ele>
        <time>2019-08-21T13:36:49Z</time>
      </trkpt>
      <trkpt lat="59.291380019858479" lon="8.204168016090989">
        <ele>1109.28125</ele>
        <time>2019-08-21T13:36:50Z</time>
      </trkpt>
      <trkpt lat="59.291382031515241" lon="8.204180002212524">
        <ele>1109.12890625</ele>
        <time>2019-08-21T13:36:51Z</time>
      </trkpt>
      <trkpt lat="59.291384965181351" lon="8.204182013869286">
        <ele>1109.02734375</ele>
        <time>2019-08-21T13:36:52Z</time>
      </trkpt>
      <trkpt lat="59.291389994323254" lon="8.204180002212524">
        <ele>1108.890625</ele>
        <time>2019-08-21T13:36:53Z</time>
      </trkpt>
      <trkpt lat="59.291388988494873" lon="8.20417296141386">
        <ele>1108.9765625</ele>
        <time>2019-08-21T13:36:54Z</time>
      </trkpt>
      <trkpt lat="59.291386976838112" lon="8.20416902191937">
        <ele>1109.06640625</ele>
        <time>2019-08-21T13:36:55Z</time>
      </trkpt>
      <trkpt lat="59.291385971009731" lon="8.204162986949086">
        <ele>1109.1171875</ele>
        <time>2019-08-21T13:36:56Z</time>
      </trkpt>
      <trkpt lat="59.291385971009731" lon="8.204166004434228">
        <ele>1109.109375</ele>
        <time>2019-08-21T13:36:57Z</time>
      </trkpt>
      <trkpt lat="59.29138395935297" lon="8.204163992777467">
        <ele>1109.17578125</ele>
        <time>2019-08-21T13:36:58Z</time>
      </trkpt>
      <trkpt lat="59.291383037343621" lon="8.204160975292325">
        <ele>1109.20703125</ele>
        <time>2019-08-21T13:36:59Z</time>
      </trkpt>
      <trkpt lat="59.29138395935297" lon="8.204161981120706">
        <ele>1109.1796875</ele>
        <time>2019-08-21T13:37:00Z</time>
      </trkpt>
      <trkpt lat="59.291384965181351" lon="8.204162986949086">
        <ele>1109.1484375</ele>
        <time>2019-08-21T13:37:01Z</time>
      </trkpt>
      <trkpt lat="59.291384965181351" lon="8.204166004434228">
        <ele>1109.140625</ele>
        <time>2019-08-21T13:37:02Z</time>
      </trkpt>
      <trkpt lat="59.291384965181351" lon="8.204166004434228">
        <ele>1109.140625</ele>
        <time>2019-08-21T13:37:03Z</time>
      </trkpt>
      <trkpt lat="59.291384965181351" lon="8.204166004434228">
        <ele>1109.140625</ele>
        <time>2019-08-21T13:37:04Z</time>
      </trkpt>
      <trkpt lat="59.291384965181351" lon="8.204166004434228">
        <ele>1109.140625</ele>
        <time>2019-08-21T13:37:05Z</time>
      </trkpt>
      <trkpt lat="59.291384965181351" lon="8.204166004434228">
        <ele>1109.140625</ele>
        <time>2019-08-21T13:37:06Z</time>
      </trkpt>
      <trkpt lat="59.291384965181351" lon="8.204167010262609">
        <ele>1109.13671875</ele>
        <time>2019-08-21T13:37:07Z</time>
      </trkpt>
      <trkpt lat="59.291384965181351" lon="8.204167010262609">
        <ele>1109.13671875</ele>
        <time>2019-08-21T13:37:08Z</time>
      </trkpt>
      <trkpt lat="59.29138395935297" lon="8.204167010262609">
        <ele>1109.16796875</ele>
        <time>2019-08-21T13:37:09Z</time>
      </trkpt>
      <trkpt lat="59.29138395935297" lon="8.204166004434228">
        <ele>1109.16796875</ele>
        <time>2019-08-21T13:37:10Z</time>
      </trkpt>
      <trkpt lat="59.29138395935297" lon="8.204167010262609">
        <ele>1109.16796875</ele>
        <time>2019-08-21T13:37:11Z</time>
      </trkpt>
      <trkpt lat="59.291384965181351" lon="8.204167010262609">
        <ele>1109.13671875</ele>
        <time>2019-08-21T13:37:12Z</time>
      </trkpt>
      <trkpt lat="59.291384965181351" lon="8.204167010262609">
        <ele>1109.13671875</ele>
        <time>2019-08-21T13:37:13Z</time>
      </trkpt>
      <trkpt lat="59.291384965181351" lon="8.204167010262609">
        <ele>1109.13671875</ele>
        <time>2019-08-21T13:37:14Z</time>
      </trkpt>
      <trkpt lat="59.291384965181351" lon="8.204167010262609">
        <ele>1109.13671875</ele>
        <time>2019-08-21T13:37:15Z</time>
      </trkpt>
      <trkpt lat="59.291384965181351" lon="8.204167010262609">
        <ele>1109.13671875</ele>
        <time>2019-08-21T13:37:16Z</time>
      </trkpt>
      <trkpt lat="59.291384965181351" lon="8.204167010262609">
        <ele>1109.13671875</ele>
        <time>2019-08-21T13:37:17Z</time>
      </trkpt>
      <trkpt lat="59.291384965181351" lon="8.204167010262609">
        <ele>1109.13671875</ele>
        <time>2019-08-21T13:37:18Z</time>
      </trkpt>
      <trkpt lat="59.29138395935297" lon="8.204167010262609">
        <ele>1109.16796875</ele>
        <time>2019-08-21T13:37:19Z</time>
      </trkpt>
      <trkpt lat="59.291378008201718" lon="8.204172039404512">
        <ele>1109.30859375</ele>
        <time>2019-08-21T13:37:20Z</time>
      </trkpt>
      <trkpt lat="59.291377002373338" lon="8.204178996384144">
        <ele>1109.28515625</ele>
        <time>2019-08-21T13:37:21Z</time>
      </trkpt>
      <trkpt lat="59.291373984888196" lon="8.204190982505679">
        <ele>1109.28515625</ele>
        <time>2019-08-21T13:37:22Z</time>
      </trkpt>
      <trkpt lat="59.291373984888196" lon="8.204202968627214">
        <ele>1109.19140625</ele>
        <time>2019-08-21T13:37:23Z</time>
      </trkpt>
      <trkpt lat="59.291373984888196" lon="8.204220989719033">
        <ele>1109.0546875</ele>
        <time>2019-08-21T13:37:24Z</time>
      </trkpt>
      <trkpt lat="59.291373984888196" lon="8.204239010810852">
        <ele>1108.9140625</ele>
        <time>2019-08-21T13:37:25Z</time>
      </trkpt>
      <trkpt lat="59.291368033736944" lon="8.20425502024591">
        <ele>1109.00390625</ele>
        <time>2019-08-21T13:37:26Z</time>
      </trkpt>
      <trkpt lat="59.291367027908564" lon="8.204268012195826">
        <ele>1108.94140625</ele>
        <time>2019-08-21T13:37:27Z</time>
      </trkpt>
      <trkpt lat="59.291368033736944" lon="8.204271029680967">
        <ele>1108.8828125</ele>
        <time>2019-08-21T13:37:28Z</time>
      </trkpt>
      <trkpt lat="59.291368033736944" lon="8.204282009974122">
        <ele>1108.796875</ele>
        <time>2019-08-21T13:37:29Z</time>
      </trkpt>
      <trkpt lat="59.291369039565325" lon="8.204288966953754">
        <ele>1108.70703125</ele>
        <time>2019-08-21T13:37:30Z</time>
      </trkpt>
      <trkpt lat="59.291369961574674" lon="8.204302964732051">
        <ele>1108.56640625</ele>
        <time>2019-08-21T13:37:31Z</time>
      </trkpt>
      <trkpt lat="59.291369039565325" lon="8.204308999702334">
        <ele>1108.55078125</ele>
        <time>2019-08-21T13:37:32Z</time>
      </trkpt>
      <trkpt lat="59.291369961574674" lon="8.204316962510347">
        <ele>1108.45703125</ele>
        <time>2019-08-21T13:37:33Z</time>
      </trkpt>
      <trkpt lat="59.291368033736944" lon="8.204318974167109">
        <ele>1108.51171875</ele>
        <time>2019-08-21T13:37:34Z</time>
      </trkpt>
      <trkpt lat="59.291366022080183" lon="8.204325009137392">
        <ele>1108.53515625</ele>
        <time>2019-08-21T13:37:35Z</time>
      </trkpt>
      <trkpt lat="59.291366022080183" lon="8.204325009137392">
        <ele>1108.53515625</ele>
        <time>2019-08-21T13:37:36Z</time>
      </trkpt>
      <trkpt lat="59.291365016251802" lon="8.204324003309012">
        <ele>1108.58203125</ele>
        <time>2019-08-21T13:37:37Z</time>
      </trkpt>
      <trkpt lat="59.291364010423422" lon="8.204325009137392">
        <ele>1108.609375</ele>
        <time>2019-08-21T13:37:38Z</time>
      </trkpt>
      <trkpt lat="59.291363004595041" lon="8.204325009137392">
        <ele>1108.64453125</ele>
        <time>2019-08-21T13:37:39Z</time>
      </trkpt>
      <trkpt lat="59.291364010423422" lon="8.204328026622534">
        <ele>1108.5859375</ele>
        <time>2019-08-21T13:37:40Z</time>
      </trkpt>
      <trkpt lat="59.291364010423422" lon="8.204331966117024">
        <ele>1108.5546875</ele>
        <time>2019-08-21T13:37:41Z</time>
      </trkpt>
      <trkpt lat="59.291365016251802" lon="8.204333977773786">
        <ele>1108.50390625</ele>
        <time>2019-08-21T13:37:42Z</time>
      </trkpt>
      <trkpt lat="59.291365016251802" lon="8.204331966117024">
        <ele>1108.51953125</ele>
        <time>2019-08-21T13:37:43Z</time>
      </trkpt>
      <trkpt lat="59.291366022080183" lon="8.204331966117024">
        <ele>1108.484375</ele>
        <time>2019-08-21T13:37:44Z</time>
      </trkpt>
      <trkpt lat="59.291366022080183" lon="8.204333977773786">
        <ele>1108.46875</ele>
        <time>2019-08-21T13:37:45Z</time>
      </trkpt>
      <trkpt lat="59.291367027908564" lon="8.204335989430547">
        <ele>1108.4140625</ele>
        <time>2019-08-21T13:37:46Z</time>
      </trkpt>
      <trkpt lat="59.291369961574674" lon="8.204335989430547">
        <ele>1108.3125</ele>
        <time>2019-08-21T13:37:47Z</time>
      </trkpt>
      <trkpt lat="59.291370967403054" lon="8.204335989430547">
        <ele>1108.27734375</ele>
        <time>2019-08-21T13:37:48Z</time>
      </trkpt>
      <trkpt lat="59.291370967403054" lon="8.204339006915689">
        <ele>1108.25390625</ele>
        <time>2019-08-21T13:37:49Z</time>
      </trkpt>
      <trkpt lat="59.291369961574674" lon="8.20434101857245">
        <ele>1108.2734375</ele>
        <time>2019-08-21T13:37:50Z</time>
      </trkpt>
      <trkpt lat="59.291370967403054" lon="8.204336995258927">
        <ele>1108.26953125</ele>
        <time>2019-08-21T13:37:51Z</time>
      </trkpt>
      <trkpt lat="59.291370967403054" lon="8.204336995258927">
        <ele>1108.26953125</ele>
        <time>2019-08-21T13:37:52Z</time>
      </trkpt>
      <trkpt lat="59.291370967403054" lon="8.204336995258927">
        <ele>1108.26953125</ele>
        <time>2019-08-21T13:37:53Z</time>
      </trkpt>
      <trkpt lat="59.291369961574674" lon="8.204335989430547">
        <ele>1108.3125</ele>
        <time>2019-08-21T13:37:54Z</time>
      </trkpt>
      <trkpt lat="59.291369961574674" lon="8.204335989430547">
        <ele>1108.3125</ele>
        <time>2019-08-21T13:37:55Z</time>
      </trkpt>
      <trkpt lat="59.291369039565325" lon="8.204336995258927">
        <ele>1108.3359375</ele>
        <time>2019-08-21T13:37:56Z</time>
      </trkpt>
      <trkpt lat="59.291368033736944" lon="8.204338001087308">
        <ele>1108.36328125</ele>
        <time>2019-08-21T13:37:57Z</time>
      </trkpt>
      <trkpt lat="59.291367027908564" lon="8.204339006915689">
        <ele>1108.390625</ele>
        <time>2019-08-21T13:37:58Z</time>
      </trkpt>
      <trkpt lat="59.291366022080183" lon="8.204338001087308">
        <ele>1108.4375</ele>
        <time>2019-08-21T13:37:59Z</time>
      </trkpt>
      <trkpt lat="59.291366022080183" lon="8.204336995258927">
        <ele>1108.4453125</ele>
        <time>2019-08-21T13:38:00Z</time>
      </trkpt>
      <trkpt lat="59.291366022080183" lon="8.204336995258927">
        <ele>1108.4453125</ele>
        <time>2019-08-21T13:38:01Z</time>
      </trkpt>
      <trkpt lat="59.291367027908564" lon="8.204335989430547">
        <ele>1108.4140625</ele>
        <time>2019-08-21T13:38:02Z</time>
      </trkpt>
      <trkpt lat="59.291369039565325" lon="8.204339006915689">
        <ele>1108.3203125</ele>
        <time>2019-08-21T13:38:03Z</time>
      </trkpt>
      <trkpt lat="59.291369039565325" lon="8.20434101857245">
        <ele>1108.3046875</ele>
        <time>2019-08-21T13:38:04Z</time>
      </trkpt>
      <trkpt lat="59.291368033736944" lon="8.20434101857245">
        <ele>1108.33984375</ele>
        <time>2019-08-21T13:38:05Z</time>
      </trkpt>
      <trkpt lat="59.291365016251802" lon="8.204340012744069">
        <ele>1108.45703125</ele>
        <time>2019-08-21T13:38:06Z</time>
      </trkpt>
      <trkpt lat="59.291369039565325" lon="8.204339006915689">
        <ele>1108.3203125</ele>
        <time>2019-08-21T13:38:07Z</time>
      </trkpt>
      <trkpt lat="59.291369961574674" lon="8.204339006915689">
        <ele>1108.2890625</ele>
        <time>2019-08-21T13:38:08Z</time>
      </trkpt>
      <trkpt lat="59.291369961574674" lon="8.204339006915689">
        <ele>1108.2890625</ele>
        <time>2019-08-21T13:38:09Z</time>
      </trkpt>
      <trkpt lat="59.291369961574674" lon="8.204336995258927">
        <ele>1108.3046875</ele>
        <time>2019-08-21T13:38:10Z</time>
      </trkpt>
      <trkpt lat="59.291369961574674" lon="8.204334983602166">
        <ele>1108.3203125</ele>
        <time>2019-08-21T13:38:11Z</time>
      </trkpt>
      <trkpt lat="59.291370967403054" lon="8.204333977773786">
        <ele>1108.29296875</ele>
        <time>2019-08-21T13:38:12Z</time>
      </trkpt>
      <trkpt lat="59.291369961574674" lon="8.204331966117024">
        <ele>1108.34375</ele>
        <time>2019-08-21T13:38:13Z</time>
      </trkpt>
      <trkpt lat="59.291369039565325" lon="8.204331966117024">
        <ele>1108.375</ele>
        <time>2019-08-21T13:38:14Z</time>
      </trkpt>
      <trkpt lat="59.291369039565325" lon="8.204331966117024">
        <ele>1108.375</ele>
        <time>2019-08-21T13:38:15Z</time>
      </trkpt>
      <trkpt lat="59.291368033736944" lon="8.204328026622534">
        <ele>1108.44140625</ele>
        <time>2019-08-21T13:38:16Z</time>
      </trkpt>
      <trkpt lat="59.291367027908564" lon="8.204327020794153">
        <ele>1108.484375</ele>
        <time>2019-08-21T13:38:17Z</time>
      </trkpt>
      <trkpt lat="59.291365016251802" lon="8.204329032450914">
        <ele>1108.54296875</ele>
        <time>2019-08-21T13:38:18Z</time>
      </trkpt>
      <trkpt lat="59.291366022080183" lon="8.204338001087308">
        <ele>1108.4375</ele>
        <time>2019-08-21T13:38:19Z</time>
      </trkpt>
      <trkpt lat="59.291367027908564" lon="8.204343030229211">
        <ele>1108.36328125</ele>
        <time>2019-08-21T13:38:20Z</time>
      </trkpt>
      <trkpt lat="59.291368033736944" lon="8.204344036057591">
        <ele>1108.31640625</ele>
        <time>2019-08-21T13:38:21Z</time>
      </trkpt>
      <trkpt lat="59.291368033736944" lon="8.204346969723702">
        <ele>1108.296875</ele>
        <time>2019-08-21T13:38:22Z</time>
      </trkpt>
      <trkpt lat="59.291371973231435" lon="8.204345963895321">
        <ele>1108.1640625</ele>
        <time>2019-08-21T13:38:23Z</time>
      </trkpt>
      <trkpt lat="59.291371973231435" lon="8.204345041885972">
        <ele>1108.171875</ele>
        <time>2019-08-21T13:38:24Z</time>
      </trkpt>
      <trkpt lat="59.291371973231435" lon="8.204345041885972">
        <ele>1108.171875</ele>
        <time>2019-08-21T13:38:25Z</time>
      </trkpt>
      <trkpt lat="59.291371973231435" lon="8.204345041885972">
        <ele>1108.171875</ele>
        <time>2019-08-21T13:38:26Z</time>
      </trkpt>
      <trkpt lat="59.291371973231435" lon="8.204345041885972">
        <ele>1108.171875</ele>
        <time>2019-08-21T13:38:27Z</time>
      </trkpt>
      <trkpt lat="59.291371973231435" lon="8.204344036057591">
        <ele>1108.1796875</ele>
        <time>2019-08-21T13:38:28Z</time>
      </trkpt>
      <trkpt lat="59.291372979059815" lon="8.204345963895321">
        <ele>1108.12890625</ele>
        <time>2019-08-21T13:38:29Z</time>
      </trkpt>
      <trkpt lat="59.291371973231435" lon="8.204348981380463">
        <ele>1108.140625</ele>
        <time>2019-08-21T13:38:30Z</time>
      </trkpt>
      <trkpt lat="59.291372979059815" lon="8.204349987208843">
        <ele>1108.09765625</ele>
        <time>2019-08-21T13:38:31Z</time>
      </trkpt>
      <trkpt lat="59.291372979059815" lon="8.204351998865604">
        <ele>1108.08203125</ele>
        <time>2019-08-21T13:38:32Z</time>
      </trkpt>
      <trkpt lat="59.291372979059815" lon="8.204353004693985">
        <ele>1108.07421875</ele>
        <time>2019-08-21T13:38:33Z</time>
      </trkpt>
      <trkpt lat="59.291372979059815" lon="8.204354010522366">
        <ele>1108.06640625</ele>
        <time>2019-08-21T13:38:34Z</time>
      </trkpt>
      <trkpt lat="59.291372979059815" lon="8.204354010522366">
        <ele>1108.06640625</ele>
        <time>2019-08-21T13:38:35Z</time>
      </trkpt>
      <trkpt lat="59.291372979059815" lon="8.204354010522366">
        <ele>1108.06640625</ele>
        <time>2019-08-21T13:38:36Z</time>
      </trkpt>
      <trkpt lat="59.291372979059815" lon="8.204354010522366">
        <ele>1108.06640625</ele>
        <time>2019-08-21T13:38:37Z</time>
      </trkpt>
      <trkpt lat="59.291372979059815" lon="8.204354010522366">
        <ele>1108.06640625</ele>
        <time>2019-08-21T13:38:38Z</time>
      </trkpt>
      <trkpt lat="59.291372979059815" lon="8.204354010522366">
        <ele>1108.06640625</ele>
        <time>2019-08-21T13:38:39Z</time>
      </trkpt>
      <trkpt lat="59.291372979059815" lon="8.204354010522366">
        <ele>1108.06640625</ele>
        <time>2019-08-21T13:38:40Z</time>
      </trkpt>
      <trkpt lat="59.291372979059815" lon="8.204354010522366">
        <ele>1108.06640625</ele>
        <time>2019-08-21T13:38:41Z</time>
      </trkpt>
      <trkpt lat="59.291372979059815" lon="8.204354010522366">
        <ele>1108.06640625</ele>
        <time>2019-08-21T13:38:42Z</time>
      </trkpt>
      <trkpt lat="59.291372979059815" lon="8.204354010522366">
        <ele>1108.06640625</ele>
        <time>2019-08-21T13:38:43Z</time>
      </trkpt>
      <trkpt lat="59.291372979059815" lon="8.204354010522366">
        <ele>1108.06640625</ele>
        <time>2019-08-21T13:38:44Z</time>
      </trkpt>
      <trkpt lat="59.291372979059815" lon="8.204354010522366">
        <ele>1108.06640625</ele>
        <time>2019-08-21T13:38:45Z</time>
      </trkpt>
      <trkpt lat="59.291372979059815" lon="8.204354010522366">
        <ele>1108.06640625</ele>
        <time>2019-08-21T13:38:46Z</time>
      </trkpt>
      <trkpt lat="59.291372979059815" lon="8.204354010522366">
        <ele>1108.06640625</ele>
        <time>2019-08-21T13:38:47Z</time>
      </trkpt>
      <trkpt lat="59.291372979059815" lon="8.204354010522366">
        <ele>1108.06640625</ele>
        <time>2019-08-21T13:38:48Z</time>
      </trkpt>
      <trkpt lat="59.291372979059815" lon="8.204354010522366">
        <ele>1108.06640625</ele>
        <time>2019-08-21T13:38:49Z</time>
      </trkpt>
      <trkpt lat="59.291372979059815" lon="8.204354010522366">
        <ele>1108.06640625</ele>
        <time>2019-08-21T13:38:50Z</time>
      </trkpt>
      <trkpt lat="59.291372979059815" lon="8.204354010522366">
        <ele>1108.06640625</ele>
        <time>2019-08-21T13:38:51Z</time>
      </trkpt>
      <trkpt lat="59.291372979059815" lon="8.204354010522366">
        <ele>1108.06640625</ele>
        <time>2019-08-21T13:38:52Z</time>
      </trkpt>
      <trkpt lat="59.291372979059815" lon="8.204354010522366">
        <ele>1108.06640625</ele>
        <time>2019-08-21T13:38:53Z</time>
      </trkpt>
      <trkpt lat="59.291372979059815" lon="8.204354010522366">
        <ele>1108.06640625</ele>
        <time>2019-08-21T13:38:54Z</time>
      </trkpt>
      <trkpt lat="59.291372979059815" lon="8.204354010522366">
        <ele>1108.06640625</ele>
        <time>2019-08-21T13:38:55Z</time>
      </trkpt>
      <trkpt lat="59.291372979059815" lon="8.204354010522366">
        <ele>1108.06640625</ele>
        <time>2019-08-21T13:38:56Z</time>
      </trkpt>
      <trkpt lat="59.291372979059815" lon="8.204354010522366">
        <ele>1108.06640625</ele>
        <time>2019-08-21T13:38:57Z</time>
      </trkpt>
      <trkpt lat="59.291372979059815" lon="8.204354010522366">
        <ele>1108.06640625</ele>
        <time>2019-08-21T13:38:58Z</time>
      </trkpt>
      <trkpt lat="59.291372979059815" lon="8.204354010522366">
        <ele>1108.06640625</ele>
        <time>2019-08-21T13:38:59Z</time>
      </trkpt>
      <trkpt lat="59.291372979059815" lon="8.204354010522366">
        <ele>1108.06640625</ele>
        <time>2019-08-21T13:39:00Z</time>
      </trkpt>
      <trkpt lat="59.291372979059815" lon="8.204354010522366">
        <ele>1108.06640625</ele>
        <time>2019-08-21T13:39:01Z</time>
      </trkpt>
      <trkpt lat="59.291372979059815" lon="8.204354010522366">
        <ele>1108.06640625</ele>
        <time>2019-08-21T13:39:02Z</time>
      </trkpt>
      <trkpt lat="59.291372979059815" lon="8.204354010522366">
        <ele>1108.06640625</ele>
        <time>2019-08-21T13:39:03Z</time>
      </trkpt>
      <trkpt lat="59.291372979059815" lon="8.204354010522366">
        <ele>1108.06640625</ele>
        <time>2019-08-21T13:39:04Z</time>
      </trkpt>
      <trkpt lat="59.291372979059815" lon="8.204354010522366">
        <ele>1108.06640625</ele>
        <time>2019-08-21T13:39:05Z</time>
      </trkpt>
      <trkpt lat="59.291372979059815" lon="8.204354010522366">
        <ele>1108.06640625</ele>
        <time>2019-08-21T13:39:06Z</time>
      </trkpt>
      <trkpt lat="59.291372979059815" lon="8.204354010522366">
        <ele>1108.06640625</ele>
        <time>2019-08-21T13:39:07Z</time>
      </trkpt>
      <trkpt lat="59.291372979059815" lon="8.204354010522366">
        <ele>1108.06640625</ele>
        <time>2019-08-21T13:39:08Z</time>
      </trkpt>
      <trkpt lat="59.291372979059815" lon="8.204354010522366">
        <ele>1108.06640625</ele>
        <time>2019-08-21T13:39:09Z</time>
      </trkpt>
      <trkpt lat="59.291372979059815" lon="8.204354010522366">
        <ele>1108.06640625</ele>
        <time>2019-08-21T13:39:10Z</time>
      </trkpt>
      <trkpt lat="59.291372979059815" lon="8.204354010522366">
        <ele>1108.06640625</ele>
        <time>2019-08-21T13:39:11Z</time>
      </trkpt>
      <trkpt lat="59.291372979059815" lon="8.204354010522366">
        <ele>1108.06640625</ele>
        <time>2019-08-21T13:39:12Z</time>
      </trkpt>
      <trkpt lat="59.291372979059815" lon="8.204354010522366">
        <ele>1108.06640625</ele>
        <time>2019-08-21T13:39:13Z</time>
      </trkpt>
      <trkpt lat="59.291372979059815" lon="8.204354010522366">
        <ele>1108.06640625</ele>
        <time>2019-08-21T13:39:14Z</time>
      </trkpt>
      <trkpt lat="59.291372979059815" lon="8.204355016350746">
        <ele>1108.05859375</ele>
        <time>2019-08-21T13:39:15Z</time>
      </trkpt>
      <trkpt lat="59.291372979059815" lon="8.204355016350746">
        <ele>1108.05859375</ele>
        <time>2019-08-21T13:39:16Z</time>
      </trkpt>
      <trkpt lat="59.291372979059815" lon="8.204355016350746">
        <ele>1108.05859375</ele>
        <time>2019-08-21T13:39:17Z</time>
      </trkpt>
      <trkpt lat="59.291372979059815" lon="8.204355016350746">
        <ele>1108.05859375</ele>
        <time>2019-08-21T13:39:18Z</time>
      </trkpt>
      <trkpt lat="59.291372979059815" lon="8.204355016350746">
        <ele>1108.05859375</ele>
        <time>2019-08-21T13:39:19Z</time>
      </trkpt>
      <trkpt lat="59.291372979059815" lon="8.204355016350746">
        <ele>1108.05859375</ele>
        <time>2019-08-21T13:39:20Z</time>
      </trkpt>
      <trkpt lat="59.291372979059815" lon="8.204355016350746">
        <ele>1108.05859375</ele>
        <time>2019-08-21T13:39:21Z</time>
      </trkpt>
      <trkpt lat="59.291372979059815" lon="8.204355016350746">
        <ele>1108.05859375</ele>
        <time>2019-08-21T13:39:22Z</time>
      </trkpt>
      <trkpt lat="59.291372979059815" lon="8.204355016350746">
        <ele>1108.05859375</ele>
        <time>2019-08-21T13:39:23Z</time>
      </trkpt>
      <trkpt lat="59.291372979059815" lon="8.204355016350746">
        <ele>1108.05859375</ele>
        <time>2019-08-21T13:39:24Z</time>
      </trkpt>
      <trkpt lat="59.291372979059815" lon="8.204355016350746">
        <ele>1108.05859375</ele>
        <time>2019-08-21T13:39:25Z</time>
      </trkpt>
      <trkpt lat="59.291372979059815" lon="8.204355016350746">
        <ele>1108.05859375</ele>
        <time>2019-08-21T13:39:26Z</time>
      </trkpt>
      <trkpt lat="59.291372979059815" lon="8.204355016350746">
        <ele>1108.05859375</ele>
        <time>2019-08-21T13:39:27Z</time>
      </trkpt>
      <trkpt lat="59.291372979059815" lon="8.204355016350746">
        <ele>1108.05859375</ele>
        <time>2019-08-21T13:39:28Z</time>
      </trkpt>
      <trkpt lat="59.291372979059815" lon="8.204355016350746">
        <ele>1108.05859375</ele>
        <time>2019-08-21T13:39:29Z</time>
      </trkpt>
      <trkpt lat="59.291372979059815" lon="8.204355016350746">
        <ele>1108.05859375</ele>
        <time>2019-08-21T13:39:30Z</time>
      </trkpt>
      <trkpt lat="59.291372979059815" lon="8.204355016350746">
        <ele>1108.05859375</ele>
        <time>2019-08-21T13:39:31Z</time>
      </trkpt>
      <trkpt lat="59.291372979059815" lon="8.204355016350746">
        <ele>1108.05859375</ele>
        <time>2019-08-21T13:39:32Z</time>
      </trkpt>
      <trkpt lat="59.291372979059815" lon="8.204355016350746">
        <ele>1108.05859375</ele>
        <time>2019-08-21T13:39:33Z</time>
      </trkpt>
      <trkpt lat="59.291372979059815" lon="8.204355016350746">
        <ele>1108.05859375</ele>
        <time>2019-08-21T13:39:34Z</time>
      </trkpt>
      <trkpt lat="59.291372979059815" lon="8.204355016350746">
        <ele>1108.05859375</ele>
        <time>2019-08-21T13:39:35Z</time>
      </trkpt>
      <trkpt lat="59.291372979059815" lon="8.204355016350746">
        <ele>1108.05859375</ele>
        <time>2019-08-21T13:39:36Z</time>
      </trkpt>
      <trkpt lat="59.291372979059815" lon="8.204355016350746">
        <ele>1108.05859375</ele>
        <time>2019-08-21T13:39:37Z</time>
      </trkpt>
      <trkpt lat="59.291372979059815" lon="8.204355016350746">
        <ele>1108.05859375</ele>
        <time>2019-08-21T13:39:38Z</time>
      </trkpt>
      <trkpt lat="59.291372979059815" lon="8.204355016350746">
        <ele>1108.05859375</ele>
        <time>2019-08-21T13:39:39Z</time>
      </trkpt>
      <trkpt lat="59.291372979059815" lon="8.204355016350746">
        <ele>1108.05859375</ele>
        <time>2019-08-21T13:39:40Z</time>
      </trkpt>
      <trkpt lat="59.291372979059815" lon="8.204355016350746">
        <ele>1108.05859375</ele>
        <time>2019-08-21T13:39:41Z</time>
      </trkpt>
      <trkpt lat="59.291372979059815" lon="8.204355016350746">
        <ele>1108.05859375</ele>
        <time>2019-08-21T13:39:42Z</time>
      </trkpt>
      <trkpt lat="59.291372979059815" lon="8.204355016350746">
        <ele>1108.05859375</ele>
        <time>2019-08-21T13:39:43Z</time>
      </trkpt>
      <trkpt lat="59.291372979059815" lon="8.204355016350746">
        <ele>1108.05859375</ele>
        <time>2019-08-21T13:39:44Z</time>
      </trkpt>
      <trkpt lat="59.291372979059815" lon="8.204355016350746">
        <ele>1108.05859375</ele>
        <time>2019-08-21T13:39:45Z</time>
      </trkpt>
      <trkpt lat="59.291372979059815" lon="8.204355016350746">
        <ele>1108.05859375</ele>
        <time>2019-08-21T13:39:46Z</time>
      </trkpt>
      <trkpt lat="59.291372979059815" lon="8.204355016350746">
        <ele>1108.05859375</ele>
        <time>2019-08-21T13:39:47Z</time>
      </trkpt>
      <trkpt lat="59.291372979059815" lon="8.204355016350746">
        <ele>1108.05859375</ele>
        <time>2019-08-21T13:39:48Z</time>
      </trkpt>
      <trkpt lat="59.291372979059815" lon="8.204355016350746">
        <ele>1108.05859375</ele>
        <time>2019-08-21T13:39:49Z</time>
      </trkpt>
      <trkpt lat="59.291372979059815" lon="8.204355016350746">
        <ele>1108.05859375</ele>
        <time>2019-08-21T13:39:50Z</time>
      </trkpt>
      <trkpt lat="59.291372979059815" lon="8.204355016350746">
        <ele>1108.05859375</ele>
        <time>2019-08-21T13:39:51Z</time>
      </trkpt>
      <trkpt lat="59.291372979059815" lon="8.204355016350746">
        <ele>1108.05859375</ele>
        <time>2019-08-21T13:39:52Z</time>
      </trkpt>
      <trkpt lat="59.291372979059815" lon="8.204355016350746">
        <ele>1108.05859375</ele>
        <time>2019-08-21T13:39:53Z</time>
      </trkpt>
      <trkpt lat="59.291372979059815" lon="8.204355016350746">
        <ele>1108.05859375</ele>
        <time>2019-08-21T13:39:54Z</time>
      </trkpt>
      <trkpt lat="59.291372979059815" lon="8.204355016350746">
        <ele>1108.05859375</ele>
        <time>2019-08-21T13:39:55Z</time>
      </trkpt>
      <trkpt lat="59.291372979059815" lon="8.204355016350746">
        <ele>1108.05859375</ele>
        <time>2019-08-21T13:39:56Z</time>
      </trkpt>
      <trkpt lat="59.291372979059815" lon="8.204355016350746">
        <ele>1108.05859375</ele>
        <time>2019-08-21T13:39:57Z</time>
      </trkpt>
      <trkpt lat="59.291372979059815" lon="8.204356022179127">
        <ele>1108.05078125</ele>
        <time>2019-08-21T13:39:58Z</time>
      </trkpt>
      <trkpt lat="59.291372979059815" lon="8.204356022179127">
        <ele>1108.05078125</ele>
        <time>2019-08-21T13:39:59Z</time>
      </trkpt>
      <trkpt lat="59.291372979059815" lon="8.204356022179127">
        <ele>1108.05078125</ele>
        <time>2019-08-21T13:40:00Z</time>
      </trkpt>
      <trkpt lat="59.291372979059815" lon="8.204356022179127">
        <ele>1108.05078125</ele>
        <time>2019-08-21T13:40:01Z</time>
      </trkpt>
      <trkpt lat="59.291372979059815" lon="8.204356022179127">
        <ele>1108.05078125</ele>
        <time>2019-08-21T13:40:02Z</time>
      </trkpt>
      <trkpt lat="59.291372979059815" lon="8.204356022179127">
        <ele>1108.05078125</ele>
        <time>2019-08-21T13:40:03Z</time>
      </trkpt>
      <trkpt lat="59.291372979059815" lon="8.204356022179127">
        <ele>1108.05078125</ele>
        <time>2019-08-21T13:40:04Z</time>
      </trkpt>
      <trkpt lat="59.291372979059815" lon="8.204356022179127">
        <ele>1108.05078125</ele>
        <time>2019-08-21T13:40:05Z</time>
      </trkpt>
      <trkpt lat="59.291372979059815" lon="8.204356022179127">
        <ele>1108.05078125</ele>
        <time>2019-08-21T13:40:06Z</time>
      </trkpt>
      <trkpt lat="59.291372979059815" lon="8.204356022179127">
        <ele>1108.05078125</ele>
        <time>2019-08-21T13:40:07Z</time>
      </trkpt>
      <trkpt lat="59.291372979059815" lon="8.204356022179127">
        <ele>1108.05078125</ele>
        <time>2019-08-21T13:40:08Z</time>
      </trkpt>
      <trkpt lat="59.291372979059815" lon="8.204356022179127">
        <ele>1108.05078125</ele>
        <time>2019-08-21T13:40:09Z</time>
      </trkpt>
      <trkpt lat="59.291372979059815" lon="8.204356022179127">
        <ele>1108.05078125</ele>
        <time>2019-08-21T13:40:10Z</time>
      </trkpt>
      <trkpt lat="59.291372979059815" lon="8.204356022179127">
        <ele>1108.05078125</ele>
        <time>2019-08-21T13:40:11Z</time>
      </trkpt>
      <trkpt lat="59.291372979059815" lon="8.204356022179127">
        <ele>1108.05078125</ele>
        <time>2019-08-21T13:40:12Z</time>
      </trkpt>
      <trkpt lat="59.291372979059815" lon="8.204356022179127">
        <ele>1108.05078125</ele>
        <time>2019-08-21T13:40:13Z</time>
      </trkpt>
      <trkpt lat="59.291372979059815" lon="8.204356022179127">
        <ele>1108.05078125</ele>
        <time>2019-08-21T13:40:14Z</time>
      </trkpt>
      <trkpt lat="59.291372979059815" lon="8.204356022179127">
        <ele>1108.05078125</ele>
        <time>2019-08-21T13:40:15Z</time>
      </trkpt>
      <trkpt lat="59.291372979059815" lon="8.204356022179127">
        <ele>1108.05078125</ele>
        <time>2019-08-21T13:40:16Z</time>
      </trkpt>
      <trkpt lat="59.291372979059815" lon="8.204356022179127">
        <ele>1108.05078125</ele>
        <time>2019-08-21T13:40:17Z</time>
      </trkpt>
      <trkpt lat="59.291372979059815" lon="8.204356022179127">
        <ele>1108.05078125</ele>
        <time>2019-08-21T13:40:18Z</time>
      </trkpt>
      <trkpt lat="59.291372979059815" lon="8.204356022179127">
        <ele>1108.05078125</ele>
        <time>2019-08-21T13:40:19Z</time>
      </trkpt>
      <trkpt lat="59.291373984888196" lon="8.204356022179127">
        <ele>1108.015625</ele>
        <time>2019-08-21T13:40:20Z</time>
      </trkpt>
      <trkpt lat="59.291373984888196" lon="8.204356022179127">
        <ele>1108.015625</ele>
        <time>2019-08-21T13:40:21Z</time>
      </trkpt>
      <trkpt lat="59.291373984888196" lon="8.204356022179127">
        <ele>1108.015625</ele>
        <time>2019-08-21T13:40:22Z</time>
      </trkpt>
      <trkpt lat="59.291373984888196" lon="8.204356022179127">
        <ele>1108.015625</ele>
        <time>2019-08-21T13:40:23Z</time>
      </trkpt>
      <trkpt lat="59.291373984888196" lon="8.204356022179127">
        <ele>1108.015625</ele>
        <time>2019-08-21T13:40:24Z</time>
      </trkpt>
      <trkpt lat="59.291373984888196" lon="8.204356022179127">
        <ele>1108.015625</ele>
        <time>2019-08-21T13:40:25Z</time>
      </trkpt>
      <trkpt lat="59.291373984888196" lon="8.204356022179127">
        <ele>1108.015625</ele>
        <time>2019-08-21T13:40:26Z</time>
      </trkpt>
      <trkpt lat="59.291373984888196" lon="8.204356022179127">
        <ele>1108.015625</ele>
        <time>2019-08-21T13:40:27Z</time>
      </trkpt>
      <trkpt lat="59.291373984888196" lon="8.204356022179127">
        <ele>1108.015625</ele>
        <time>2019-08-21T13:40:28Z</time>
      </trkpt>
      <trkpt lat="59.291373984888196" lon="8.204356022179127">
        <ele>1108.015625</ele>
        <time>2019-08-21T13:40:29Z</time>
      </trkpt>
      <trkpt lat="59.291373984888196" lon="8.204356022179127">
        <ele>1108.015625</ele>
        <time>2019-08-21T13:40:30Z</time>
      </trkpt>
      <trkpt lat="59.291373984888196" lon="8.204356022179127">
        <ele>1108.015625</ele>
        <time>2019-08-21T13:40:31Z</time>
      </trkpt>
      <trkpt lat="59.291373984888196" lon="8.204356022179127">
        <ele>1108.015625</ele>
        <time>2019-08-21T13:40:32Z</time>
      </trkpt>
      <trkpt lat="59.291373984888196" lon="8.204356022179127">
        <ele>1108.015625</ele>
        <time>2019-08-21T13:40:33Z</time>
      </trkpt>
      <trkpt lat="59.291373984888196" lon="8.204356022179127">
        <ele>1108.015625</ele>
        <time>2019-08-21T13:40:34Z</time>
      </trkpt>
      <trkpt lat="59.291373984888196" lon="8.204357028007507">
        <ele>1108.0078125</ele>
        <time>2019-08-21T13:40:35Z</time>
      </trkpt>
      <trkpt lat="59.291373984888196" lon="8.204357028007507">
        <ele>1108.0078125</ele>
        <time>2019-08-21T13:40:36Z</time>
      </trkpt>
      <trkpt lat="59.291373984888196" lon="8.204357028007507">
        <ele>1108.0078125</ele>
        <time>2019-08-21T13:40:37Z</time>
      </trkpt>
      <trkpt lat="59.291373984888196" lon="8.204357028007507">
        <ele>1108.0078125</ele>
        <time>2019-08-21T13:40:38Z</time>
      </trkpt>
      <trkpt lat="59.291373984888196" lon="8.204357028007507">
        <ele>1108.0078125</ele>
        <time>2019-08-21T13:40:39Z</time>
      </trkpt>
      <trkpt lat="59.291373984888196" lon="8.204357028007507">
        <ele>1108.0078125</ele>
        <time>2019-08-21T13:40:40Z</time>
      </trkpt>
      <trkpt lat="59.291373984888196" lon="8.204357028007507">
        <ele>1108.0078125</ele>
        <time>2019-08-21T13:40:41Z</time>
      </trkpt>
      <trkpt lat="59.291373984888196" lon="8.204357028007507">
        <ele>1108.0078125</ele>
        <time>2019-08-21T13:40:42Z</time>
      </trkpt>
      <trkpt lat="59.291373984888196" lon="8.204357028007507">
        <ele>1108.0078125</ele>
        <time>2019-08-21T13:40:43Z</time>
      </trkpt>
      <trkpt lat="59.291373984888196" lon="8.204357028007507">
        <ele>1108.0078125</ele>
        <time>2019-08-21T13:40:44Z</time>
      </trkpt>
      <trkpt lat="59.291373984888196" lon="8.204357028007507">
        <ele>1108.0078125</ele>
        <time>2019-08-21T13:40:45Z</time>
      </trkpt>
      <trkpt lat="59.291373984888196" lon="8.204357028007507">
        <ele>1108.0078125</ele>
        <time>2019-08-21T13:40:46Z</time>
      </trkpt>
      <trkpt lat="59.291373984888196" lon="8.204357028007507">
        <ele>1108.0078125</ele>
        <time>2019-08-21T13:40:47Z</time>
      </trkpt>
      <trkpt lat="59.291373984888196" lon="8.204357028007507">
        <ele>1108.0078125</ele>
        <time>2019-08-21T13:40:48Z</time>
      </trkpt>
      <trkpt lat="59.291373984888196" lon="8.204357028007507">
        <ele>1108.0078125</ele>
        <time>2019-08-21T13:40:49Z</time>
      </trkpt>
      <trkpt lat="59.291373984888196" lon="8.204357028007507">
        <ele>1108.0078125</ele>
        <time>2019-08-21T13:40:50Z</time>
      </trkpt>
      <trkpt lat="59.291373984888196" lon="8.204357028007507">
        <ele>1108.0078125</ele>
        <time>2019-08-21T13:40:51Z</time>
      </trkpt>
      <trkpt lat="59.291373984888196" lon="8.204357028007507">
        <ele>1108.0078125</ele>
        <time>2019-08-21T13:40:52Z</time>
      </trkpt>
      <trkpt lat="59.291373984888196" lon="8.204357028007507">
        <ele>1108.0078125</ele>
        <time>2019-08-21T13:40:53Z</time>
      </trkpt>
      <trkpt lat="59.291373984888196" lon="8.204357028007507">
        <ele>1108.0078125</ele>
        <time>2019-08-21T13:40:54Z</time>
      </trkpt>
      <trkpt lat="59.291373984888196" lon="8.204357028007507">
        <ele>1108.0078125</ele>
        <time>2019-08-21T13:40:55Z</time>
      </trkpt>
      <trkpt lat="59.291373984888196" lon="8.204357028007507">
        <ele>1108.0078125</ele>
        <time>2019-08-21T13:40:56Z</time>
      </trkpt>
      <trkpt lat="59.291373984888196" lon="8.204357028007507">
        <ele>1108.0078125</ele>
        <time>2019-08-21T13:40:57Z</time>
      </trkpt>
      <trkpt lat="59.291373984888196" lon="8.204357028007507">
        <ele>1108.0078125</ele>
        <time>2019-08-21T13:40:58Z</time>
      </trkpt>
      <trkpt lat="59.291373984888196" lon="8.204357028007507">
        <ele>1108.0078125</ele>
        <time>2019-08-21T13:40:59Z</time>
      </trkpt>
      <trkpt lat="59.291373984888196" lon="8.204357028007507">
        <ele>1108.0078125</ele>
        <time>2019-08-21T13:41:00Z</time>
      </trkpt>
      <trkpt lat="59.291373984888196" lon="8.204357028007507">
        <ele>1108.0078125</ele>
        <time>2019-08-21T13:41:01Z</time>
      </trkpt>
      <trkpt lat="59.291373984888196" lon="8.204357028007507">
        <ele>1108.0078125</ele>
        <time>2019-08-21T13:41:02Z</time>
      </trkpt>
      <trkpt lat="59.291373984888196" lon="8.204357028007507">
        <ele>1108.0078125</ele>
        <time>2019-08-21T13:41:03Z</time>
      </trkpt>
      <trkpt lat="59.291373984888196" lon="8.204357028007507">
        <ele>1108.0078125</ele>
        <time>2019-08-21T13:41:04Z</time>
      </trkpt>
      <trkpt lat="59.291373984888196" lon="8.204357028007507">
        <ele>1108.0078125</ele>
        <time>2019-08-21T13:41:05Z</time>
      </trkpt>
      <trkpt lat="59.291373984888196" lon="8.204357028007507">
        <ele>1108.0078125</ele>
        <time>2019-08-21T13:41:06Z</time>
      </trkpt>
      <trkpt lat="59.291373984888196" lon="8.204357028007507">
        <ele>1108.0078125</ele>
        <time>2019-08-21T13:41:07Z</time>
      </trkpt>
      <trkpt lat="59.291373984888196" lon="8.204357028007507">
        <ele>1108.0078125</ele>
        <time>2019-08-21T13:41:08Z</time>
      </trkpt>
      <trkpt lat="59.291373984888196" lon="8.204357028007507">
        <ele>1108.0078125</ele>
        <time>2019-08-21T13:41:09Z</time>
      </trkpt>
      <trkpt lat="59.291373984888196" lon="8.204357028007507">
        <ele>1108.0078125</ele>
        <time>2019-08-21T13:41:10Z</time>
      </trkpt>
      <trkpt lat="59.291373984888196" lon="8.204357028007507">
        <ele>1108.0078125</ele>
        <time>2019-08-21T13:41:11Z</time>
      </trkpt>
      <trkpt lat="59.291373984888196" lon="8.204357028007507">
        <ele>1108.0078125</ele>
        <time>2019-08-21T13:41:12Z</time>
      </trkpt>
      <trkpt lat="59.291373984888196" lon="8.204357028007507">
        <ele>1108.0078125</ele>
        <time>2019-08-21T13:41:13Z</time>
      </trkpt>
      <trkpt lat="59.291373984888196" lon="8.204357028007507">
        <ele>1108.0078125</ele>
        <time>2019-08-21T13:41:14Z</time>
      </trkpt>
      <trkpt lat="59.291373984888196" lon="8.204357028007507">
        <ele>1108.0078125</ele>
        <time>2019-08-21T13:41:15Z</time>
      </trkpt>
      <trkpt lat="59.291373984888196" lon="8.204357028007507">
        <ele>1108.0078125</ele>
        <time>2019-08-21T13:41:16Z</time>
      </trkpt>
      <trkpt lat="59.291373984888196" lon="8.204357028007507">
        <ele>1108.0078125</ele>
        <time>2019-08-21T13:41:17Z</time>
      </trkpt>
      <trkpt lat="59.291373984888196" lon="8.204357028007507">
        <ele>1108.0078125</ele>
        <time>2019-08-21T13:41:18Z</time>
      </trkpt>
      <trkpt lat="59.291373984888196" lon="8.204357028007507">
        <ele>1108.0078125</ele>
        <time>2019-08-21T13:41:19Z</time>
      </trkpt>
      <trkpt lat="59.291373984888196" lon="8.204357028007507">
        <ele>1108.0078125</ele>
        <time>2019-08-21T13:41:20Z</time>
      </trkpt>
      <trkpt lat="59.291373984888196" lon="8.204357028007507">
        <ele>1108.0078125</ele>
        <time>2019-08-21T13:41:21Z</time>
      </trkpt>
      <trkpt lat="59.291373984888196" lon="8.204357028007507">
        <ele>1108.0078125</ele>
        <time>2019-08-21T13:41:22Z</time>
      </trkpt>
      <trkpt lat="59.291373984888196" lon="8.204357028007507">
        <ele>1108.0078125</ele>
        <time>2019-08-21T13:41:23Z</time>
      </trkpt>
      <trkpt lat="59.291373984888196" lon="8.204357028007507">
        <ele>1108.0078125</ele>
        <time>2019-08-21T13:41:24Z</time>
      </trkpt>
      <trkpt lat="59.291373984888196" lon="8.204357028007507">
        <ele>1108.0078125</ele>
        <time>2019-08-21T13:41:25Z</time>
      </trkpt>
      <trkpt lat="59.291373984888196" lon="8.204357028007507">
        <ele>1108.0078125</ele>
        <time>2019-08-21T13:41:26Z</time>
      </trkpt>
      <trkpt lat="59.291373984888196" lon="8.204357028007507">
        <ele>1108.0078125</ele>
        <time>2019-08-21T13:41:27Z</time>
      </trkpt>
      <trkpt lat="59.291373984888196" lon="8.204357028007507">
        <ele>1108.0078125</ele>
        <time>2019-08-21T13:41:28Z</time>
      </trkpt>
      <trkpt lat="59.291373984888196" lon="8.204357028007507">
        <ele>1108.0078125</ele>
        <time>2019-08-21T13:41:29Z</time>
      </trkpt>
      <trkpt lat="59.291373984888196" lon="8.204357028007507">
        <ele>1108.0078125</ele>
        <time>2019-08-21T13:41:30Z</time>
      </trkpt>
      <trkpt lat="59.291373984888196" lon="8.204357028007507">
        <ele>1108.0078125</ele>
        <time>2019-08-21T13:41:31Z</time>
      </trkpt>
      <trkpt lat="59.291373984888196" lon="8.204357028007507">
        <ele>1108.0078125</ele>
        <time>2019-08-21T13:41:32Z</time>
      </trkpt>
      <trkpt lat="59.291373984888196" lon="8.204357028007507">
        <ele>1108.0078125</ele>
        <time>2019-08-21T13:41:33Z</time>
      </trkpt>
      <trkpt lat="59.291373984888196" lon="8.204357028007507">
        <ele>1108.0078125</ele>
        <time>2019-08-21T13:41:34Z</time>
      </trkpt>
      <trkpt lat="59.291373984888196" lon="8.204357028007507">
        <ele>1108.0078125</ele>
        <time>2019-08-21T13:41:35Z</time>
      </trkpt>
      <trkpt lat="59.291373984888196" lon="8.204357028007507">
        <ele>1108.0078125</ele>
        <time>2019-08-21T13:41:36Z</time>
      </trkpt>
      <trkpt lat="59.291373984888196" lon="8.204357028007507">
        <ele>1108.0078125</ele>
        <time>2019-08-21T13:41:37Z</time>
      </trkpt>
      <trkpt lat="59.291373984888196" lon="8.204357028007507">
        <ele>1108.0078125</ele>
        <time>2019-08-21T13:41:38Z</time>
      </trkpt>
      <trkpt lat="59.291373984888196" lon="8.204357028007507">
        <ele>1108.0078125</ele>
        <time>2019-08-21T13:41:39Z</time>
      </trkpt>
      <trkpt lat="59.291373984888196" lon="8.204357028007507">
        <ele>1108.0078125</ele>
        <time>2019-08-21T13:41:40Z</time>
      </trkpt>
      <trkpt lat="59.291373984888196" lon="8.204357028007507">
        <ele>1108.0078125</ele>
        <time>2019-08-21T13:41:41Z</time>
      </trkpt>
      <trkpt lat="59.291373984888196" lon="8.204357028007507">
        <ele>1108.0078125</ele>
        <time>2019-08-21T13:41:42Z</time>
      </trkpt>
      <trkpt lat="59.291373984888196" lon="8.204357028007507">
        <ele>1108.0078125</ele>
        <time>2019-08-21T13:41:43Z</time>
      </trkpt>
      <trkpt lat="59.291373984888196" lon="8.204357028007507">
        <ele>1108.0078125</ele>
        <time>2019-08-21T13:41:44Z</time>
      </trkpt>
      <trkpt lat="59.291373984888196" lon="8.204357028007507">
        <ele>1108.0078125</ele>
        <time>2019-08-21T13:41:45Z</time>
      </trkpt>
      <trkpt lat="59.291373984888196" lon="8.204357028007507">
        <ele>1108.0078125</ele>
        <time>2019-08-21T13:41:46Z</time>
      </trkpt>
      <trkpt lat="59.291373984888196" lon="8.204357028007507">
        <ele>1108.0078125</ele>
        <time>2019-08-21T13:41:47Z</time>
      </trkpt>
      <trkpt lat="59.291373984888196" lon="8.204357028007507">
        <ele>1108.0078125</ele>
        <time>2019-08-21T13:41:48Z</time>
      </trkpt>
      <trkpt lat="59.291373984888196" lon="8.204357028007507">
        <ele>1108.0078125</ele>
        <time>2019-08-21T13:41:49Z</time>
      </trkpt>
      <trkpt lat="59.291373984888196" lon="8.204357028007507">
        <ele>1108.0078125</ele>
        <time>2019-08-21T13:41:50Z</time>
      </trkpt>
      <trkpt lat="59.291373984888196" lon="8.204357028007507">
        <ele>1108.0078125</ele>
        <time>2019-08-21T13:41:51Z</time>
      </trkpt>
      <trkpt lat="59.291373984888196" lon="8.204357028007507">
        <ele>1108.0078125</ele>
        <time>2019-08-21T13:41:52Z</time>
      </trkpt>
      <trkpt lat="59.291373984888196" lon="8.204357028007507">
        <ele>1108.0078125</ele>
        <time>2019-08-21T13:41:53Z</time>
      </trkpt>
      <trkpt lat="59.291373984888196" lon="8.204357028007507">
        <ele>1108.0078125</ele>
        <time>2019-08-21T13:41:54Z</time>
      </trkpt>
      <trkpt lat="59.291373984888196" lon="8.204357028007507">
        <ele>1108.0078125</ele>
        <time>2019-08-21T13:41:55Z</time>
      </trkpt>
      <trkpt lat="59.291373984888196" lon="8.204357028007507">
        <ele>1108.0078125</ele>
        <time>2019-08-21T13:41:56Z</time>
      </trkpt>
      <trkpt lat="59.291373984888196" lon="8.204357028007507">
        <ele>1108.0078125</ele>
        <time>2019-08-21T13:41:57Z</time>
      </trkpt>
      <trkpt lat="59.291373984888196" lon="8.204357028007507">
        <ele>1108.0078125</ele>
        <time>2019-08-21T13:41:58Z</time>
      </trkpt>
      <trkpt lat="59.291373984888196" lon="8.204357028007507">
        <ele>1108.0078125</ele>
        <time>2019-08-21T13:41:59Z</time>
      </trkpt>
      <trkpt lat="59.291373984888196" lon="8.204357028007507">
        <ele>1108.0078125</ele>
        <time>2019-08-21T13:42:00Z</time>
      </trkpt>
      <trkpt lat="59.291373984888196" lon="8.204357028007507">
        <ele>1108.0078125</ele>
        <time>2019-08-21T13:42:01Z</time>
      </trkpt>
      <trkpt lat="59.291373984888196" lon="8.204357028007507">
        <ele>1108.0078125</ele>
        <time>2019-08-21T13:42:02Z</time>
      </trkpt>
      <trkpt lat="59.291373984888196" lon="8.204357028007507">
        <ele>1108.0078125</ele>
        <time>2019-08-21T13:42:03Z</time>
      </trkpt>
      <trkpt lat="59.291373984888196" lon="8.204357028007507">
        <ele>1108.0078125</ele>
        <time>2019-08-21T13:42:04Z</time>
      </trkpt>
      <trkpt lat="59.291373984888196" lon="8.204357028007507">
        <ele>1108.0078125</ele>
        <time>2019-08-21T13:42:05Z</time>
      </trkpt>
      <trkpt lat="59.291373984888196" lon="8.204357028007507">
        <ele>1108.0078125</ele>
        <time>2019-08-21T13:42:06Z</time>
      </trkpt>
      <trkpt lat="59.291373984888196" lon="8.204357028007507">
        <ele>1108.0078125</ele>
        <time>2019-08-21T13:42:07Z</time>
      </trkpt>
      <trkpt lat="59.291373984888196" lon="8.204357028007507">
        <ele>1108.0078125</ele>
        <time>2019-08-21T13:42:08Z</time>
      </trkpt>
      <trkpt lat="59.291373984888196" lon="8.204357028007507">
        <ele>1108.0078125</ele>
        <time>2019-08-21T13:42:09Z</time>
      </trkpt>
      <trkpt lat="59.291373984888196" lon="8.204357028007507">
        <ele>1108.0078125</ele>
        <time>2019-08-21T13:42:10Z</time>
      </trkpt>
      <trkpt lat="59.291373984888196" lon="8.204357028007507">
        <ele>1108.0078125</ele>
        <time>2019-08-21T13:42:11Z</time>
      </trkpt>
      <trkpt lat="59.291373984888196" lon="8.204357028007507">
        <ele>1108.0078125</ele>
        <time>2019-08-21T13:42:12Z</time>
      </trkpt>
      <trkpt lat="59.291373984888196" lon="8.204357028007507">
        <ele>1108.0078125</ele>
        <time>2019-08-21T13:42:13Z</time>
      </trkpt>
      <trkpt lat="59.291373984888196" lon="8.204357028007507">
        <ele>1108.0078125</ele>
        <time>2019-08-21T13:42:14Z</time>
      </trkpt>
      <trkpt lat="59.291373984888196" lon="8.204357028007507">
        <ele>1108.0078125</ele>
        <time>2019-08-21T13:42:15Z</time>
      </trkpt>
      <trkpt lat="59.291373984888196" lon="8.204357028007507">
        <ele>1108.0078125</ele>
        <time>2019-08-21T13:42:16Z</time>
      </trkpt>
      <trkpt lat="59.291373984888196" lon="8.204357028007507">
        <ele>1108.0078125</ele>
        <time>2019-08-21T13:42:17Z</time>
      </trkpt>
      <trkpt lat="59.291373984888196" lon="8.204357028007507">
        <ele>1108.0078125</ele>
        <time>2019-08-21T13:42:18Z</time>
      </trkpt>
      <trkpt lat="59.291373984888196" lon="8.204357028007507">
        <ele>1108.0078125</ele>
        <time>2019-08-21T13:42:19Z</time>
      </trkpt>
      <trkpt lat="59.291373984888196" lon="8.204357028007507">
        <ele>1108.0078125</ele>
        <time>2019-08-21T13:42:20Z</time>
      </trkpt>
      <trkpt lat="59.291373984888196" lon="8.204357028007507">
        <ele>1108.0078125</ele>
        <time>2019-08-21T13:42:21Z</time>
      </trkpt>
      <trkpt lat="59.291373984888196" lon="8.204357028007507">
        <ele>1108.0078125</ele>
        <time>2019-08-21T13:42:22Z</time>
      </trkpt>
      <trkpt lat="59.291373984888196" lon="8.204356022179127">
        <ele>1108.015625</ele>
        <time>2019-08-21T13:42:23Z</time>
      </trkpt>
      <trkpt lat="59.291373984888196" lon="8.204356022179127">
        <ele>1108.015625</ele>
        <time>2019-08-21T13:42:24Z</time>
      </trkpt>
      <trkpt lat="59.291373984888196" lon="8.204356022179127">
        <ele>1108.015625</ele>
        <time>2019-08-21T13:42:25Z</time>
      </trkpt>
      <trkpt lat="59.291373984888196" lon="8.204356022179127">
        <ele>1108.015625</ele>
        <time>2019-08-21T13:42:26Z</time>
      </trkpt>
      <trkpt lat="59.291373984888196" lon="8.204356022179127">
        <ele>1108.015625</ele>
        <time>2019-08-21T13:42:27Z</time>
      </trkpt>
      <trkpt lat="59.291373984888196" lon="8.204356022179127">
        <ele>1108.015625</ele>
        <time>2019-08-21T13:42:28Z</time>
      </trkpt>
      <trkpt lat="59.291373984888196" lon="8.204356022179127">
        <ele>1108.015625</ele>
        <time>2019-08-21T13:42:29Z</time>
      </trkpt>
      <trkpt lat="59.291373984888196" lon="8.204356022179127">
        <ele>1108.015625</ele>
        <time>2019-08-21T13:42:30Z</time>
      </trkpt>
      <trkpt lat="59.291373984888196" lon="8.204356022179127">
        <ele>1108.015625</ele>
        <time>2019-08-21T13:42:31Z</time>
      </trkpt>
      <trkpt lat="59.291373984888196" lon="8.204356022179127">
        <ele>1108.015625</ele>
        <time>2019-08-21T13:42:32Z</time>
      </trkpt>
      <trkpt lat="59.291373984888196" lon="8.204356022179127">
        <ele>1108.015625</ele>
        <time>2019-08-21T13:42:33Z</time>
      </trkpt>
      <trkpt lat="59.291373984888196" lon="8.204356022179127">
        <ele>1108.015625</ele>
        <time>2019-08-21T13:42:34Z</time>
      </trkpt>
      <trkpt lat="59.291373984888196" lon="8.204356022179127">
        <ele>1108.015625</ele>
        <time>2019-08-21T13:42:35Z</time>
      </trkpt>
      <trkpt lat="59.291373984888196" lon="8.204356022179127">
        <ele>1108.015625</ele>
        <time>2019-08-21T13:42:36Z</time>
      </trkpt>
      <trkpt lat="59.291373984888196" lon="8.204356022179127">
        <ele>1108.015625</ele>
        <time>2019-08-21T13:42:37Z</time>
      </trkpt>
      <trkpt lat="59.291373984888196" lon="8.204356022179127">
        <ele>1108.015625</ele>
        <time>2019-08-21T13:42:38Z</time>
      </trkpt>
      <trkpt lat="59.291373984888196" lon="8.204356022179127">
        <ele>1108.015625</ele>
        <time>2019-08-21T13:42:39Z</time>
      </trkpt>
      <trkpt lat="59.291373984888196" lon="8.204356022179127">
        <ele>1108.015625</ele>
        <time>2019-08-21T13:42:40Z</time>
      </trkpt>
      <trkpt lat="59.291373984888196" lon="8.204356022179127">
        <ele>1108.015625</ele>
        <time>2019-08-21T13:42:41Z</time>
      </trkpt>
      <trkpt lat="59.291373984888196" lon="8.204356022179127">
        <ele>1108.015625</ele>
        <time>2019-08-21T13:42:42Z</time>
      </trkpt>
      <trkpt lat="59.291373984888196" lon="8.204356022179127">
        <ele>1108.015625</ele>
        <time>2019-08-21T13:42:43Z</time>
      </trkpt>
      <trkpt lat="59.291373984888196" lon="8.204356022179127">
        <ele>1108.015625</ele>
        <time>2019-08-21T13:42:44Z</time>
      </trkpt>
      <trkpt lat="59.291373984888196" lon="8.204356022179127">
        <ele>1108.015625</ele>
        <time>2019-08-21T13:42:45Z</time>
      </trkpt>
      <trkpt lat="59.291373984888196" lon="8.204356022179127">
        <ele>1108.015625</ele>
        <time>2019-08-21T13:42:46Z</time>
      </trkpt>
      <trkpt lat="59.291372979059815" lon="8.204355016350746">
        <ele>1108.05859375</ele>
        <time>2019-08-21T13:42:47Z</time>
      </trkpt>
      <trkpt lat="59.291372979059815" lon="8.204356022179127">
        <ele>1108.05078125</ele>
        <time>2019-08-21T13:42:48Z</time>
      </trkpt>
      <trkpt lat="59.291372979059815" lon="8.204356022179127">
        <ele>1108.05078125</ele>
        <time>2019-08-21T13:42:49Z</time>
      </trkpt>
      <trkpt lat="59.291372979059815" lon="8.204356022179127">
        <ele>1108.05078125</ele>
        <time>2019-08-21T13:42:50Z</time>
      </trkpt>
      <trkpt lat="59.291372979059815" lon="8.204356022179127">
        <ele>1108.05078125</ele>
        <time>2019-08-21T13:42:51Z</time>
      </trkpt>
      <trkpt lat="59.291372979059815" lon="8.204356022179127">
        <ele>1108.05078125</ele>
        <time>2019-08-21T13:42:52Z</time>
      </trkpt>
      <trkpt lat="59.291372979059815" lon="8.204356022179127">
        <ele>1108.05078125</ele>
        <time>2019-08-21T13:42:53Z</time>
      </trkpt>
      <trkpt lat="59.291372979059815" lon="8.204356022179127">
        <ele>1108.05078125</ele>
        <time>2019-08-21T13:42:54Z</time>
      </trkpt>
      <trkpt lat="59.291372979059815" lon="8.204356022179127">
        <ele>1108.05078125</ele>
        <time>2019-08-21T13:42:55Z</time>
      </trkpt>
      <trkpt lat="59.291372979059815" lon="8.204356022179127">
        <ele>1108.05078125</ele>
        <time>2019-08-21T13:42:56Z</time>
      </trkpt>
      <trkpt lat="59.291372979059815" lon="8.204356022179127">
        <ele>1108.05078125</ele>
        <time>2019-08-21T13:42:57Z</time>
      </trkpt>
      <trkpt lat="59.291372979059815" lon="8.204356022179127">
        <ele>1108.05078125</ele>
        <time>2019-08-21T13:42:58Z</time>
      </trkpt>
      <trkpt lat="59.291372979059815" lon="8.204356022179127">
        <ele>1108.05078125</ele>
        <time>2019-08-21T13:42:59Z</time>
      </trkpt>
      <trkpt lat="59.291372979059815" lon="8.204356022179127">
        <ele>1108.05078125</ele>
        <time>2019-08-21T13:43:00Z</time>
      </trkpt>
      <trkpt lat="59.291372979059815" lon="8.204356022179127">
        <ele>1108.05078125</ele>
        <time>2019-08-21T13:43:01Z</time>
      </trkpt>
      <trkpt lat="59.291372979059815" lon="8.204356022179127">
        <ele>1108.05078125</ele>
        <time>2019-08-21T13:43:02Z</time>
      </trkpt>
      <trkpt lat="59.291372979059815" lon="8.204356022179127">
        <ele>1108.05078125</ele>
        <time>2019-08-21T13:43:03Z</time>
      </trkpt>
      <trkpt lat="59.291372979059815" lon="8.204356022179127">
        <ele>1108.05078125</ele>
        <time>2019-08-21T13:43:04Z</time>
      </trkpt>
      <trkpt lat="59.291372979059815" lon="8.204355016350746">
        <ele>1108.05859375</ele>
        <time>2019-08-21T13:43:05Z</time>
      </trkpt>
      <trkpt lat="59.291372979059815" lon="8.204356022179127">
        <ele>1108.05078125</ele>
        <time>2019-08-21T13:43:06Z</time>
      </trkpt>
      <trkpt lat="59.291372979059815" lon="8.204356022179127">
        <ele>1108.05078125</ele>
        <time>2019-08-21T13:43:07Z</time>
      </trkpt>
      <trkpt lat="59.291372979059815" lon="8.204356022179127">
        <ele>1108.05078125</ele>
        <time>2019-08-21T13:43:08Z</time>
      </trkpt>
      <trkpt lat="59.291372979059815" lon="8.204355016350746">
        <ele>1108.05859375</ele>
        <time>2019-08-21T13:43:09Z</time>
      </trkpt>
      <trkpt lat="59.291372979059815" lon="8.204356022179127">
        <ele>1108.05078125</ele>
        <time>2019-08-21T13:43:10Z</time>
      </trkpt>
      <trkpt lat="59.291372979059815" lon="8.204356022179127">
        <ele>1108.05078125</ele>
        <time>2019-08-21T13:43:11Z</time>
      </trkpt>
      <trkpt lat="59.291371973231435" lon="8.204358033835888">
        <ele>1108.0703125</ele>
        <time>2019-08-21T13:43:12Z</time>
      </trkpt>
      <trkpt lat="59.291366022080183" lon="8.204413019120693">
        <ele>1107.85546875</ele>
        <time>2019-08-21T13:43:14Z</time>
      </trkpt>
      <trkpt lat="59.2913599871099" lon="8.204433973878622">
        <ele>1107.90625</ele>
        <time>2019-08-21T13:43:15Z</time>
      </trkpt>
      <trkpt lat="59.291354035958648" lon="8.204458029940724">
        <ele>1107.90234375</ele>
        <time>2019-08-21T13:43:16Z</time>
      </trkpt>
      <trkpt lat="59.291349006816745" lon="8.204487031325698">
        <ele>1107.79296875</ele>
        <time>2019-08-21T13:43:17Z</time>
      </trkpt>
      <trkpt lat="59.2913409601897" lon="8.204517038539052">
        <ele>1107.77734375</ele>
        <time>2019-08-21T13:43:18Z</time>
      </trkpt>
      <trkpt lat="59.291336014866829" lon="8.204546961933374">
        <ele>1107.65625</ele>
        <time>2019-08-21T13:43:19Z</time>
      </trkpt>
      <trkpt lat="59.291339032351971" lon="8.204574035480619">
        <ele>1107.28515625</ele>
        <time>2019-08-21T13:43:20Z</time>
      </trkpt>
      <trkpt lat="59.291344983503222" lon="8.204603036865592">
        <ele>1106.7890625</ele>
        <time>2019-08-21T13:43:21Z</time>
      </trkpt>
      <trkpt lat="59.291351018473506" lon="8.204648969694972">
        <ele>1106.12109375</ele>
        <time>2019-08-21T13:43:22Z</time>
      </trkpt>
      <trkpt lat="59.291356969624758" lon="8.204692974686623">
        <ele>1105.48046875</ele>
        <time>2019-08-21T13:43:23Z</time>
      </trkpt>
      <trkpt lat="59.291361998766661" lon="8.204721976071596">
        <ele>1105.015625</ele>
        <time>2019-08-21T13:43:24Z</time>
      </trkpt>
      <trkpt lat="59.291364010423422" lon="8.204747959971428">
        <ele>1104.80078125</ele>
        <time>2019-08-21T13:43:25Z</time>
      </trkpt>
      <trkpt lat="59.291370967403054" lon="8.204776039347053">
        <ele>1104.40234375</ele>
        <time>2019-08-21T13:43:26Z</time>
      </trkpt>
      <trkpt lat="59.291373984888196" lon="8.204818032681942">
        <ele>1104.0625</ele>
        <time>2019-08-21T13:43:27Z</time>
      </trkpt>
      <trkpt lat="59.291372979059815" lon="8.204854996874929">
        <ele>1103.8984375</ele>
        <time>2019-08-21T13:43:28Z</time>
      </trkpt>
      <trkpt lat="59.291373984888196" lon="8.204878969117999">
        <ele>1103.73046875</ele>
        <time>2019-08-21T13:43:29Z</time>
      </trkpt>
      <trkpt lat="59.291377002373338" lon="8.204896990209818">
        <ele>1103.546875</ele>
        <time>2019-08-21T13:43:30Z</time>
      </trkpt>
      <trkpt lat="59.291371973231435" lon="8.204908976331353">
        <ele>1103.640625</ele>
        <time>2019-08-21T13:43:31Z</time>
      </trkpt>
      <trkpt lat="59.291368033736944" lon="8.204914005473256">
        <ele>1103.76953125</ele>
        <time>2019-08-21T13:43:32Z</time>
      </trkpt>
      <trkpt lat="59.2913599871099" lon="8.204919034615159">
        <ele>1104.0546875</ele>
        <time>2019-08-21T13:43:33Z</time>
      </trkpt>
      <trkpt lat="59.291346995159984" lon="8.20492397993803">
        <ele>1104.5390625</ele>
        <time>2019-08-21T13:43:34Z</time>
      </trkpt>
      <trkpt lat="59.291346995159984" lon="8.204973014071584">
        <ele>1104.29296875</ele>
        <time>2019-08-21T13:43:36Z</time>
      </trkpt>
      <trkpt lat="59.291345989331603" lon="8.205007966607809">
        <ele>1104.1328125</ele>
        <time>2019-08-21T13:43:37Z</time>
      </trkpt>
      <trkpt lat="59.291342971846461" lon="8.205033028498292">
        <ele>1104.03515625</ele>
        <time>2019-08-21T13:43:38Z</time>
      </trkpt>
      <trkpt lat="59.291342971846461" lon="8.205041997134686">
        <ele>1103.953125</ele>
        <time>2019-08-21T13:43:39Z</time>
      </trkpt>
      <trkpt lat="59.291345989331603" lon="8.205060018226504">
        <ele>1103.6640625</ele>
        <time>2019-08-21T13:43:40Z</time>
      </trkpt>
      <trkpt lat="59.291341966018081" lon="8.205106034874916">
        <ele>1103.4296875</ele>
        <time>2019-08-21T13:43:41Z</time>
      </trkpt>
      <trkpt lat="59.29133802652359" lon="8.205148028209806">
        <ele>1103.234375</ele>
        <time>2019-08-21T13:43:42Z</time>
      </trkpt>
      <trkpt lat="59.291330985724926" lon="8.20517803542316">
        <ele>1103.30078125</ele>
        <time>2019-08-21T13:43:43Z</time>
      </trkpt>
      <trkpt lat="59.291322017088532" lon="8.205197984352708">
        <ele>1103.55078125</ele>
        <time>2019-08-21T13:43:44Z</time>
      </trkpt>
      <trkpt lat="59.291314976289868" lon="8.205214999616146">
        <ele>1103.7421875</ele>
        <time>2019-08-21T13:43:45Z</time>
      </trkpt>
      <trkpt lat="59.291312964633107" lon="8.205225979909301">
        <ele>1103.75</ele>
        <time>2019-08-21T13:43:46Z</time>
      </trkpt>
      <trkpt lat="59.291309025138617" lon="8.205238971859217">
        <ele>1103.83984375</ele>
        <time>2019-08-21T13:43:47Z</time>
      </trkpt>
      <trkpt lat="59.291299972683191" lon="8.205251041799784">
        <ele>1104.18359375</ele>
        <time>2019-08-21T13:43:48Z</time>
      </trkpt>
      <trkpt lat="59.291292009875178" lon="8.205269984900951">
        <ele>1104.43359375</ele>
        <time>2019-08-21T13:43:49Z</time>
      </trkpt>
      <trkpt lat="59.291282035410404" lon="8.205293035134673">
        <ele>1104.79296875</ele>
        <time>2019-08-21T13:43:50Z</time>
      </trkpt>
      <trkpt lat="59.29127499461174" lon="8.205322036519647">
        <ele>1105.0078125</ele>
        <time>2019-08-21T13:43:51Z</time>
      </trkpt>
      <trkpt lat="59.291255967691541" lon="8.205348020419478">
        <ele>1105.8359375</ele>
        <time>2019-08-21T13:43:52Z</time>
      </trkpt>
      <trkpt lat="59.291239958256483" lon="8.205368975177407">
        <ele>1106.54296875</ele>
        <time>2019-08-21T13:43:53Z</time>
      </trkpt>
      <trkpt lat="59.291226966306567" lon="8.205380039289594">
        <ele>1107.14453125</ele>
        <time>2019-08-21T13:43:54Z</time>
      </trkpt>
      <trkpt lat="59.291226966306567" lon="8.205384984612465">
        <ele>1107.125</ele>
        <time>2019-08-21T13:43:55Z</time>
      </trkpt>
      <trkpt lat="59.291234007105231" lon="8.20543603040278">
        <ele>1106.546875</ele>
        <time>2019-08-21T13:43:57Z</time>
      </trkpt>
      <trkpt lat="59.291235012933612" lon="8.20547902956605">
        <ele>1106.3046875</ele>
        <time>2019-08-21T13:43:58Z</time>
      </trkpt>
      <trkpt lat="59.291228977963328" lon="8.205505013465881">
        <ele>1106.5</ele>
        <time>2019-08-21T13:43:59Z</time>
      </trkpt>
      <trkpt lat="59.291233001276851" lon="8.205532003194094">
        <ele>1106.17578125</ele>
        <time>2019-08-21T13:44:00Z</time>
      </trkpt>
      <trkpt lat="59.291233001276851" lon="8.20556603372097">
        <ele>1106.0234375</ele>
        <time>2019-08-21T13:44:01Z</time>
      </trkpt>
      <trkpt lat="59.291236018761992" lon="8.205591011792421">
        <ele>1105.74609375</ele>
        <time>2019-08-21T13:44:02Z</time>
      </trkpt>
      <trkpt lat="59.291239036247134" lon="8.205602997913957">
        <ele>1105.53125</ele>
        <time>2019-08-21T13:44:03Z</time>
      </trkpt>
      <trkpt lat="59.291234007105231" lon="8.205638034269214">
        <ele>1105.61328125</ele>
        <time>2019-08-21T13:44:05Z</time>
      </trkpt>
      <trkpt lat="59.29123098962009" lon="8.205657983198762">
        <ele>1105.6640625</ele>
        <time>2019-08-21T13:44:06Z</time>
      </trkpt>
      <trkpt lat="59.291225960478187" lon="8.205676004290581">
        <ele>1105.8203125</ele>
        <time>2019-08-21T13:44:07Z</time>
      </trkpt>
      <trkpt lat="59.291220009326935" lon="8.205692013725638">
        <ele>1106.03125</ele>
        <time>2019-08-21T13:44:08Z</time>
      </trkpt>
      <trkpt lat="59.29120902903378" lon="8.205709028989077">
        <ele>1106.47265625</ele>
        <time>2019-08-21T13:44:09Z</time>
      </trkpt>
      <trkpt lat="59.291205005720258" lon="8.205721015110612">
        <ele>1106.6015625</ele>
        <time>2019-08-21T13:44:10Z</time>
      </trkpt>
      <trkpt lat="59.291202994063497" lon="8.20571799762547">
        <ele>1106.71484375</ele>
        <time>2019-08-21T13:44:11Z</time>
      </trkpt>
      <trkpt lat="59.291201988235116" lon="8.205713974311948">
        <ele>1106.7890625</ele>
        <time>2019-08-21T13:44:12Z</time>
      </trkpt>
      <trkpt lat="59.291199976578355" lon="8.205713974311948">
        <ele>1106.88671875</ele>
        <time>2019-08-21T13:44:13Z</time>
      </trkpt>
      <trkpt lat="59.291190002113581" lon="8.20571799762547">
        <ele>1107.34375</ele>
        <time>2019-08-21T13:44:14Z</time>
      </trkpt>
      <trkpt lat="59.291184972971678" lon="8.205724032595754">
        <ele>1107.5546875</ele>
        <time>2019-08-21T13:44:15Z</time>
      </trkpt>
      <trkpt lat="59.291180027648807" lon="8.205728977918625">
        <ele>1107.76171875</ele>
        <time>2019-08-21T13:44:16Z</time>
      </trkpt>
      <trkpt lat="59.291173992678523" lon="8.205743981525302">
        <ele>1107.9609375</ele>
        <time>2019-08-21T13:44:17Z</time>
      </trkpt>
      <trkpt lat="59.29116602987051" lon="8.205762002617121">
        <ele>1108.2265625</ele>
        <time>2019-08-21T13:44:18Z</time>
      </trkpt>
      <trkpt lat="59.291153037920594" lon="8.205768037587404">
        <ele>1108.8046875</ele>
        <time>2019-08-21T13:44:19Z</time>
      </trkpt>
      <trkpt lat="59.29114599712193" lon="8.205773988738656">
        <ele>1109.1015625</ele>
        <time>2019-08-21T13:44:20Z</time>
      </trkpt>
      <trkpt lat="59.291139962151647" lon="8.20578002370894">
        <ele>1109.34375</ele>
        <time>2019-08-21T13:44:21Z</time>
      </trkpt>
      <trkpt lat="59.291131999343634" lon="8.205785974860191">
        <ele>1109.6796875</ele>
        <time>2019-08-21T13:44:22Z</time>
      </trkpt>
      <trkpt lat="59.291113978251815" lon="8.205815982073546">
        <ele>1110.3046875</ele>
        <time>2019-08-21T13:44:24Z</time>
      </trkpt>
      <trkpt lat="59.29110199213028" lon="8.205825034528971">
        <ele>1110.79296875</ele>
        <time>2019-08-21T13:44:25Z</time>
      </trkpt>
      <trkpt lat="59.291090006008744" lon="8.205827968195081">
        <ele>1111.40625</ele>
        <time>2019-08-21T13:44:26Z</time>
      </trkpt>
      <trkpt lat="59.291089000180364" lon="8.205840038135648">
        <ele>1111.375</ele>
        <time>2019-08-21T13:44:27Z</time>
      </trkpt>
      <trkpt lat="59.29108296521008" lon="8.205852024257183">
        <ele>1111.64453125</ele>
        <time>2019-08-21T13:44:28Z</time>
      </trkpt>
      <trkpt lat="59.291078019887209" lon="8.205868033692241">
        <ele>1111.81640625</ele>
        <time>2019-08-21T13:44:29Z</time>
      </trkpt>
      <trkpt lat="59.291075002402067" lon="8.205881025642157">
        <ele>1111.89453125</ele>
        <time>2019-08-21T13:44:30Z</time>
      </trkpt>
      <trkpt lat="59.291075002402067" lon="8.205894017592073">
        <ele>1111.80078125</ele>
        <time>2019-08-21T13:44:31Z</time>
      </trkpt>
      <trkpt lat="59.291071984916925" lon="8.205907009541988">
        <ele>1111.875</ele>
        <time>2019-08-21T13:44:32Z</time>
      </trkpt>
      <trkpt lat="59.291067961603403" lon="8.205921007320285">
        <ele>1112</ele>
        <time>2019-08-21T13:44:33Z</time>
      </trkpt>
      <trkpt lat="59.291049018502235" lon="8.205920001491904">
        <ele>1113.0625</ele>
        <time>2019-08-21T13:44:35Z</time>
      </trkpt>
      <trkpt lat="59.291044995188713" lon="8.205923018977046">
        <ele>1113.265625</ele>
        <time>2019-08-21T13:44:36Z</time>
      </trkpt>
      <trkpt lat="59.29103996604681" lon="8.205923018977046">
        <ele>1113.54296875</ele>
        <time>2019-08-21T13:44:37Z</time>
      </trkpt>
      <trkpt lat="59.291033009067178" lon="8.205929975956678">
        <ele>1113.875</ele>
        <time>2019-08-21T13:44:38Z</time>
      </trkpt>
      <trkpt lat="59.291024962440133" lon="8.20593198761344">
        <ele>1114.3046875</ele>
        <time>2019-08-21T13:44:39Z</time>
      </trkpt>
      <trkpt lat="59.291018005460501" lon="8.205936010926962">
        <ele>1114.65234375</ele>
        <time>2019-08-21T13:44:40Z</time>
      </trkpt>
      <trkpt lat="59.291014987975359" lon="8.205941962078214">
        <ele>1114.76953125</ele>
        <time>2019-08-21T13:44:41Z</time>
      </trkpt>
      <trkpt lat="59.291008030995727" lon="8.205947997048497">
        <ele>1115.09765625</ele>
        <time>2019-08-21T13:44:42Z</time>
      </trkpt>
      <trkpt lat="59.291003001853824" lon="8.20595595985651">
        <ele>1115.30078125</ele>
        <time>2019-08-21T13:44:43Z</time>
      </trkpt>
      <trkpt lat="59.29099596105516" lon="8.205957971513271">
        <ele>1115.66796875</ele>
        <time>2019-08-21T13:44:44Z</time>
      </trkpt>
      <trkpt lat="59.290992021560669" lon="8.205958977341652">
        <ele>1115.875</ele>
        <time>2019-08-21T13:44:45Z</time>
      </trkpt>
      <trkpt lat="59.290983974933624" lon="8.205964006483555">
        <ele>1116.265625</ele>
        <time>2019-08-21T13:44:46Z</time>
      </trkpt>
      <trkpt lat="59.290966037660837" lon="8.205963000655174">
        <ele>1117.25390625</ele>
        <time>2019-08-21T13:44:48Z</time>
      </trkpt>
      <trkpt lat="59.290955979377031" lon="8.205955037847161">
        <ele>1117.88671875</ele>
        <time>2019-08-21T13:44:49Z</time>
      </trkpt>
      <trkpt lat="59.290944999083877" lon="8.205951014533639">
        <ele>1118.53125</ele>
        <time>2019-08-21T13:44:50Z</time>
      </trkpt>
      <trkpt lat="59.290934018790722" lon="8.205945985391736">
        <ele>1119.19140625</ele>
        <time>2019-08-21T13:44:51Z</time>
      </trkpt>
      <trkpt lat="59.29093100130558" lon="8.205941962078214">
        <ele>1119.40234375</ele>
        <time>2019-08-21T13:44:52Z</time>
      </trkpt>
      <trkpt lat="59.290924966335297" lon="8.205942967906594">
        <ele>1119.72265625</ele>
        <time>2019-08-21T13:44:53Z</time>
      </trkpt>
      <trkpt lat="59.290920021012425" lon="8.205950008705258">
        <ele>1119.91796875</ele>
        <time>2019-08-21T13:44:54Z</time>
      </trkpt>
      <trkpt lat="59.29090996272862" lon="8.205970041453838">
        <ele>1120.234375</ele>
        <time>2019-08-21T13:44:55Z</time>
      </trkpt>
      <trkpt lat="59.290900994092226" lon="8.205989990383387">
        <ele>1120.48046875</ele>
        <time>2019-08-21T13:44:56Z</time>
      </trkpt>
      <trkpt lat="59.290892025455832" lon="8.206004993990064">
        <ele>1120.78125</ele>
        <time>2019-08-21T13:44:57Z</time>
      </trkpt>
      <trkpt lat="59.290880039334297" lon="8.206021003425121">
        <ele>1121.22265625</ele>
        <time>2019-08-21T13:44:58Z</time>
      </trkpt>
      <trkpt lat="59.29086696356535" lon="8.206033995375037">
        <ele>1121.74609375</ele>
        <time>2019-08-21T13:44:59Z</time>
      </trkpt>
      <trkpt lat="59.290853971615434" lon="8.20603902451694">
        <ele>1122.36328125</ele>
        <time>2019-08-21T13:45:00Z</time>
      </trkpt>
      <trkpt lat="59.290838968008757" lon="8.206048998981714">
        <ele>1123.01171875</ele>
        <time>2019-08-21T13:45:01Z</time>
      </trkpt>
      <trkpt lat="59.290822958573699" lon="8.206055033951998">
        <ele>1123.765625</ele>
        <time>2019-08-21T13:45:02Z</time>
      </trkpt>
      <trkpt lat="59.290809966623783" lon="8.206064002588391">
        <ele>1123.92578125</ele>
        <time>2019-08-21T13:45:03Z</time>
      </trkpt>
      <trkpt lat="59.290795968845487" lon="8.206078000366688">
        <ele>1123.86328125</ele>
        <time>2019-08-21T13:45:04Z</time>
      </trkpt>
      <trkpt lat="59.290788006037474" lon="8.206086969003081">
        <ele>1123.8125</ele>
        <time>2019-08-21T13:45:05Z</time>
      </trkpt>
      <trkpt lat="59.290788006037474" lon="8.206090992316604">
        <ele>1123.7578125</ele>
        <time>2019-08-21T13:45:06Z</time>
      </trkpt>
      <trkpt lat="59.290783982723951" lon="8.206098033115268">
        <ele>1123.69921875</ele>
        <time>2019-08-21T13:45:07Z</time>
      </trkpt>
      <trkpt lat="59.290774008259177" lon="8.206132985651493">
        <ele>1123.296875</ele>
        <time>2019-08-21T13:45:09Z</time>
      </trkpt>
      <trkpt lat="59.290766967460513" lon="8.206161987036467">
        <ele>1122.953125</ele>
        <time>2019-08-21T13:45:10Z</time>
      </trkpt>
      <trkpt lat="59.290762022137642" lon="8.206197023391724">
        <ele>1122.5078125</ele>
        <time>2019-08-21T13:45:11Z</time>
      </trkpt>
      <trkpt lat="59.290741989389062" lon="8.206247985363007">
        <ele>1122.03515625</ele>
        <time>2019-08-21T13:45:13Z</time>
      </trkpt>
      <trkpt lat="59.290730003267527" lon="8.206268018111587">
        <ele>1121.91015625</ele>
        <time>2019-08-21T13:45:14Z</time>
      </trkpt>
      <trkpt lat="59.290723968297243" lon="8.206299031153321">
        <ele>1121.5703125</ele>
        <time>2019-08-21T13:45:15Z</time>
      </trkpt>
      <trkpt lat="59.290708964690566" lon="8.206331972032785">
        <ele>1121.33984375</ele>
        <time>2019-08-21T13:45:16Z</time>
      </trkpt>
      <trkpt lat="59.290698990225792" lon="8.206371031701565">
        <ele>1120.9765625</ele>
        <time>2019-08-21T13:45:17Z</time>
      </trkpt>
      <trkpt lat="59.290691027417779" lon="8.206414030864835">
        <ele>1120.625</ele>
        <time>2019-08-21T13:45:18Z</time>
      </trkpt>
      <trkpt lat="59.290679041296244" lon="8.20644898340106">
        <ele>1120.4921875</ele>
        <time>2019-08-21T13:45:19Z</time>
      </trkpt>
      <trkpt lat="59.290667977184057" lon="8.206474967300892">
        <ele>1120.4453125</ele>
        <time>2019-08-21T13:45:20Z</time>
      </trkpt>
      <trkpt lat="59.29065297357738" lon="8.206487959250808">
        <ele>1120.6015625</ele>
        <time>2019-08-21T13:45:21Z</time>
      </trkpt>
      <trkpt lat="59.290637969970703" lon="8.20651100948453">
        <ele>1120.6875</ele>
        <time>2019-08-21T13:45:22Z</time>
      </trkpt>
      <trkpt lat="59.290621960535645" lon="8.206531964242458">
        <ele>1120.82421875</ele>
        <time>2019-08-21T13:45:23Z</time>
      </trkpt>
      <trkpt lat="59.290611986070871" lon="8.206545962020755">
        <ele>1120.9140625</ele>
        <time>2019-08-21T13:45:24Z</time>
      </trkpt>
      <trkpt lat="59.290602011606097" lon="8.206545040011406">
        <ele>1121.1171875</ele>
        <time>2019-08-21T13:45:25Z</time>
      </trkpt>
      <trkpt lat="59.290591031312943" lon="8.206541016697884">
        <ele>1121.359375</ele>
        <time>2019-08-21T13:45:26Z</time>
      </trkpt>
      <trkpt lat="59.290578961372375" lon="8.2065349817276">
        <ele>1121.63671875</ele>
        <time>2019-08-21T13:45:27Z</time>
      </trkpt>
      <trkpt lat="59.29056596942246" lon="8.206525007262826">
        <ele>1121.94921875</ele>
        <time>2019-08-21T13:45:28Z</time>
      </trkpt>
      <trkpt lat="59.290535962209105" lon="8.206516960635781">
        <ele>1122.43359375</ele>
        <time>2019-08-21T13:45:30Z</time>
      </trkpt>
      <trkpt lat="59.290524981915951" lon="8.206516960635781">
        <ele>1122.3671875</ele>
        <time>2019-08-21T13:45:31Z</time>
      </trkpt>
      <trkpt lat="59.290514001622796" lon="8.206517966464162">
        <ele>1122.30078125</ele>
        <time>2019-08-21T13:45:32Z</time>
      </trkpt>
      <trkpt lat="59.290495980530977" lon="8.206541016697884">
        <ele>1122.1015625</ele>
        <time>2019-08-21T13:45:34Z</time>
      </trkpt>
      <trkpt lat="59.290489023551345" lon="8.206557026132941">
        <ele>1122.0078125</ele>
        <time>2019-08-21T13:45:35Z</time>
      </trkpt>
      <trkpt lat="59.2904809769243" lon="8.206573035567999">
        <ele>1121.9140625</ele>
        <time>2019-08-21T13:45:36Z</time>
      </trkpt>
      <trkpt lat="59.290473014116287" lon="8.206586027517915">
        <ele>1121.8359375</ele>
        <time>2019-08-21T13:45:37Z</time>
      </trkpt>
      <trkpt lat="59.290463961660862" lon="8.206594996154308">
        <ele>1121.77734375</ele>
        <time>2019-08-21T13:45:38Z</time>
      </trkpt>
      <trkpt lat="59.290452981367707" lon="8.206602036952972">
        <ele>1121.71875</ele>
        <time>2019-08-21T13:45:39Z</time>
      </trkpt>
      <trkpt lat="59.290442001074553" lon="8.206614023074508">
        <ele>1121.66015625</ele>
        <time>2019-08-21T13:45:40Z</time>
      </trkpt>
      <trkpt lat="59.290430014953017" lon="8.206627015024424">
        <ele>1121.6015625</ele>
        <time>2019-08-21T13:45:41Z</time>
      </trkpt>
      <trkpt lat="59.290419034659863" lon="8.20664000697434">
        <ele>1121.5546875</ele>
        <time>2019-08-21T13:45:42Z</time>
      </trkpt>
      <trkpt lat="59.290407970547676" lon="8.206655010581017">
        <ele>1121.51171875</ele>
        <time>2019-08-21T13:45:43Z</time>
      </trkpt>
      <trkpt lat="59.290395984426141" lon="8.206664985045791">
        <ele>1121.484375</ele>
        <time>2019-08-21T13:45:44Z</time>
      </trkpt>
      <trkpt lat="59.290385004132986" lon="8.206673031672835">
        <ele>1121.48828125</ele>
        <time>2019-08-21T13:45:45Z</time>
      </trkpt>
      <trkpt lat="59.290373018011451" lon="8.206680994480848">
        <ele>1121.50390625</ele>
        <time>2019-08-21T13:45:46Z</time>
      </trkpt>
      <trkpt lat="59.290362959727645" lon="8.206691974774003">
        <ele>1121.52734375</ele>
        <time>2019-08-21T13:45:47Z</time>
      </trkpt>
      <trkpt lat="59.29035197943449" lon="8.206701027229428">
        <ele>1121.5546875</ele>
        <time>2019-08-21T13:45:48Z</time>
      </trkpt>
      <trkpt lat="59.290340999141335" lon="8.206704966723919">
        <ele>1121.56640625</ele>
        <time>2019-08-21T13:45:49Z</time>
      </trkpt>
      <trkpt lat="59.2903290130198" lon="8.206709995865822">
        <ele>1121.58203125</ele>
        <time>2019-08-21T13:45:50Z</time>
      </trkpt>
      <trkpt lat="59.290318032726645" lon="8.206717036664486">
        <ele>1121.61328125</ele>
        <time>2019-08-21T13:45:51Z</time>
      </trkpt>
      <trkpt lat="59.290311997756362" lon="8.206729022786021">
        <ele>1121.6640625</ele>
        <time>2019-08-21T13:45:52Z</time>
      </trkpt>
      <trkpt lat="59.290303029119968" lon="8.206732040271163">
        <ele>1121.68359375</ele>
        <time>2019-08-21T13:45:53Z</time>
      </trkpt>
      <trkpt lat="59.290295988321304" lon="8.206744026392698">
        <ele>1121.7421875</ele>
        <time>2019-08-21T13:45:54Z</time>
      </trkpt>
      <trkpt lat="59.290289031341672" lon="8.206756012514234">
        <ele>1121.8046875</ele>
        <time>2019-08-21T13:45:55Z</time>
      </trkpt>
      <trkpt lat="59.290282996371388" lon="8.206773027777672">
        <ele>1121.8984375</ele>
        <time>2019-08-21T13:45:56Z</time>
      </trkpt>
      <trkpt lat="59.290272016078234" lon="8.20679197087884">
        <ele>1122.01171875</ele>
        <time>2019-08-21T13:45:57Z</time>
      </trkpt>
      <trkpt lat="59.290252989158034" lon="8.206803034991026">
        <ele>1122.10546875</ele>
        <time>2019-08-21T13:45:58Z</time>
      </trkpt>
      <trkpt lat="59.290237985551357" lon="8.206818038597703">
        <ele>1122.21484375</ele>
        <time>2019-08-21T13:45:59Z</time>
      </trkpt>
      <trkpt lat="59.290229016914964" lon="8.206824995577335">
        <ele>1122.26953125</ele>
        <time>2019-08-21T13:46:00Z</time>
      </trkpt>
      <trkpt lat="59.290217030793428" lon="8.206836981698871">
        <ele>1122.359375</ele>
        <time>2019-08-21T13:46:01Z</time>
      </trkpt>
      <trkpt lat="59.290206972509623" lon="8.206853996962309">
        <ele>1122.47265625</ele>
        <time>2019-08-21T13:46:02Z</time>
      </trkpt>
      <trkpt lat="59.29019900970161" lon="8.206869000568986">
        <ele>1122.57421875</ele>
        <time>2019-08-21T13:46:03Z</time>
      </trkpt>
      <trkpt lat="59.290190963074565" lon="8.206863971427083">
        <ele>1122.5625</ele>
        <time>2019-08-21T13:46:04Z</time>
      </trkpt>
      <trkpt lat="59.290186017751694" lon="8.206881992518902">
        <ele>1122.67578125</ele>
        <time>2019-08-21T13:46:05Z</time>
      </trkpt>
      <trkpt lat="59.29017897695303" lon="8.206904958933592">
        <ele>1122.8203125</ele>
        <time>2019-08-21T13:46:06Z</time>
      </trkpt>
      <trkpt lat="59.290172019973397" lon="8.206923985853791">
        <ele>1122.94921875</ele>
        <time>2019-08-21T13:46:07Z</time>
      </trkpt>
      <trkpt lat="59.290164979174733" lon="8.206936977803707">
        <ele>1123.0390625</ele>
        <time>2019-08-21T13:46:08Z</time>
      </trkpt>
      <trkpt lat="59.290145030245185" lon="8.206951981410384">
        <ele>1123.17578125</ele>
        <time>2019-08-21T13:46:10Z</time>
      </trkpt>
      <trkpt lat="59.290132038295269" lon="8.206956004723907">
        <ele>1123.234375</ele>
        <time>2019-08-21T13:46:11Z</time>
      </trkpt>
      <trkpt lat="59.290119968354702" lon="8.2069649733603">
        <ele>1123.33203125</ele>
        <time>2019-08-21T13:46:12Z</time>
      </trkpt>
      <trkpt lat="59.290108988061547" lon="8.206977965310216">
        <ele>1123.46484375</ele>
        <time>2019-08-21T13:46:13Z</time>
      </trkpt>
      <trkpt lat="59.290100019425154" lon="8.206991963088512">
        <ele>1123.60546875</ele>
        <time>2019-08-21T13:46:14Z</time>
      </trkpt>
      <trkpt lat="59.290091972798109" lon="8.20700696669519">
        <ele>1123.76171875</ele>
        <time>2019-08-21T13:46:15Z</time>
      </trkpt>
      <trkpt lat="59.290085015818477" lon="8.207024987787008">
        <ele>1123.94921875</ele>
        <time>2019-08-21T13:46:16Z</time>
      </trkpt>
      <trkpt lat="59.290075041353703" lon="8.207045020535588">
        <ele>1124.17578125</ele>
        <time>2019-08-21T13:46:17Z</time>
      </trkpt>
      <trkpt lat="59.290068000555038" lon="8.207066981121898">
        <ele>1124.41796875</ele>
        <time>2019-08-21T13:46:18Z</time>
      </trkpt>
      <trkpt lat="59.290068000555038" lon="8.207077961415052">
        <ele>1124.51953125</ele>
        <time>2019-08-21T13:46:19Z</time>
      </trkpt>
      <trkpt lat="59.290060037747025" lon="8.20709397085011">
        <ele>1124.7265625</ele>
        <time>2019-08-21T13:46:20Z</time>
      </trkpt>
      <trkpt lat="59.290046961978078" lon="8.207117021083832">
        <ele>1125.0546875</ele>
        <time>2019-08-21T13:46:21Z</time>
      </trkpt>
      <trkpt lat="59.290037993341684" lon="8.207121966406703">
        <ele>1125.1796875</ele>
        <time>2019-08-21T13:46:22Z</time>
      </trkpt>
      <trkpt lat="59.290004968643188" lon="8.207148034125567">
        <ele>1125.7578125</ele>
        <time>2019-08-21T13:46:24Z</time>
      </trkpt>
      <trkpt lat="59.289988959208131" lon="8.207162031903863">
        <ele>1126.078125</ele>
        <time>2019-08-21T13:46:25Z</time>
      </trkpt>
      <trkpt lat="59.289978984743357" lon="8.20717996917665">
        <ele>1126.37109375</ele>
        <time>2019-08-21T13:46:26Z</time>
      </trkpt>
      <trkpt lat="59.28996398113668" lon="8.207203019410372">
        <ele>1126.765625</ele>
        <time>2019-08-21T13:46:27Z</time>
      </trkpt>
      <trkpt lat="59.289954006671906" lon="8.207226991653442">
        <ele>1127.14453125</ele>
        <time>2019-08-21T13:46:28Z</time>
      </trkpt>
      <trkpt lat="59.289945960044861" lon="8.207245012745261">
        <ele>1127.44921875</ele>
        <time>2019-08-21T13:46:29Z</time>
      </trkpt>
      <trkpt lat="59.289935985580087" lon="8.20726496167481">
        <ele>1127.796875</ele>
        <time>2019-08-21T13:46:30Z</time>
      </trkpt>
      <trkpt lat="59.289928022772074" lon="8.207281976938248">
        <ele>1128.09375</ele>
        <time>2019-08-21T13:46:31Z</time>
      </trkpt>
      <trkpt lat="59.289918970316648" lon="8.207303015515208">
        <ele>1128.45703125</ele>
        <time>2019-08-21T13:46:32Z</time>
      </trkpt>
      <trkpt lat="59.289902960881591" lon="8.207322964444757">
        <ele>1128.8671875</ele>
        <time>2019-08-21T13:46:33Z</time>
      </trkpt>
      <trkpt lat="59.289889968931675" lon="8.207341991364956">
        <ele>1129.2421875</ele>
        <time>2019-08-21T13:46:34Z</time>
      </trkpt>
      <trkpt lat="59.289882006123662" lon="8.207363029941917">
        <ele>1129.60546875</ele>
        <time>2019-08-21T13:46:35Z</time>
      </trkpt>
      <trkpt lat="59.289870020002127" lon="8.207400999963284">
        <ele>1130.24609375</ele>
        <time>2019-08-21T13:46:36Z</time>
      </trkpt>
      <trkpt lat="59.289861973375082" lon="8.207439975813031">
        <ele>1130.87109375</ele>
        <time>2019-08-21T13:46:37Z</time>
      </trkpt>
      <trkpt lat="59.289860967546701" lon="8.207465037703514">
        <ele>1131.234375</ele>
        <time>2019-08-21T13:46:38Z</time>
      </trkpt>
      <trkpt lat="59.28985602222383" lon="8.207495966926217">
        <ele>1131.72265625</ele>
        <time>2019-08-21T13:46:39Z</time>
      </trkpt>
      <trkpt lat="59.289848981425166" lon="8.207517005503178">
        <ele>1132.08203125</ele>
        <time>2019-08-21T13:46:40Z</time>
      </trkpt>
      <trkpt lat="59.289838001132011" lon="8.20752396248281">
        <ele>1132.2890625</ele>
        <time>2019-08-21T13:46:41Z</time>
      </trkpt>
      <trkpt lat="59.289806988090277" lon="8.207551036030054">
        <ele>1132.98828125</ele>
        <time>2019-08-21T13:46:43Z</time>
      </trkpt>
      <trkpt lat="59.289796007797122" lon="8.207566039636731">
        <ele>1133.3203125</ele>
        <time>2019-08-21T13:46:44Z</time>
      </trkpt>
      <trkpt lat="59.289786033332348" lon="8.207585988566279">
        <ele>1133.71484375</ele>
        <time>2019-08-21T13:46:45Z</time>
      </trkpt>
      <trkpt lat="59.289773041382432" lon="8.20760702714324">
        <ele>1134.1640625</ele>
        <time>2019-08-21T13:46:46Z</time>
      </trkpt>
      <trkpt lat="59.289757031947374" lon="8.207623958587647">
        <ele>1134.59375</ele>
        <time>2019-08-21T13:46:47Z</time>
      </trkpt>
      <trkpt lat="59.28974898532033" lon="8.207626976072788">
        <ele>1134.73046875</ele>
        <time>2019-08-21T13:46:48Z</time>
      </trkpt>
      <trkpt lat="59.289733981713653" lon="8.207668969407678">
        <ele>1135.53125</ele>
        <time>2019-08-21T13:46:50Z</time>
      </trkpt>
      <trkpt lat="59.28972601890564" lon="8.207687996327877">
        <ele>1135.9140625</ele>
        <time>2019-08-21T13:46:51Z</time>
      </trkpt>
      <trkpt lat="59.289721995592117" lon="8.207711968570948">
        <ele>1136.328125</ele>
        <time>2019-08-21T13:46:52Z</time>
      </trkpt>
      <trkpt lat="59.28970699198544" lon="8.207740969955921">
        <ele>1136.953125</ele>
        <time>2019-08-21T13:46:53Z</time>
      </trkpt>
      <trkpt lat="59.289701040834188" lon="8.207769971340895">
        <ele>1137.4453125</ele>
        <time>2019-08-21T13:46:54Z</time>
      </trkpt>
      <trkpt lat="59.289701040834188" lon="8.207793021574616">
        <ele>1137.69140625</ele>
        <time>2019-08-21T13:46:55Z</time>
      </trkpt>
      <trkpt lat="59.289696011692286" lon="8.207809031009674">
        <ele>1137.87109375</ele>
        <time>2019-08-21T13:46:56Z</time>
      </trkpt>
      <trkpt lat="59.289688970893621" lon="8.207824034616351">
        <ele>1138.0546875</ele>
        <time>2019-08-21T13:46:57Z</time>
      </trkpt>
      <trkpt lat="59.289681008085608" lon="8.207837026566267">
        <ele>1138.2265625</ele>
        <time>2019-08-21T13:46:58Z</time>
      </trkpt>
      <trkpt lat="59.289677990600467" lon="8.207853036001325">
        <ele>1138.38671875</ele>
        <time>2019-08-21T13:46:59Z</time>
      </trkpt>
      <trkpt lat="59.289672961458564" lon="8.207869967445731">
        <ele>1138.5703125</ele>
        <time>2019-08-21T13:47:00Z</time>
      </trkpt>
      <trkpt lat="59.289667010307312" lon="8.207885976880789">
        <ele>1138.75</ele>
        <time>2019-08-21T13:47:01Z</time>
      </trkpt>
      <trkpt lat="59.28966298699379" lon="8.207901986315846">
        <ele>1138.91796875</ele>
        <time>2019-08-21T13:47:02Z</time>
      </trkpt>
      <trkpt lat="59.289658041670918" lon="8.207916989922524">
        <ele>1139.08203125</ele>
        <time>2019-08-21T13:47:03Z</time>
      </trkpt>
      <trkpt lat="59.289645971730351" lon="8.207949008792639">
        <ele>1139.44140625</ele>
        <time>2019-08-21T13:47:05Z</time>
      </trkpt>
      <trkpt lat="59.289643038064241" lon="8.207963006570935">
        <ele>1139.58203125</ele>
        <time>2019-08-21T13:47:06Z</time>
      </trkpt>
      <trkpt lat="59.289639014750719" lon="8.207975998520851">
        <ele>1139.71875</ele>
        <time>2019-08-21T13:47:07Z</time>
      </trkpt>
      <trkpt lat="59.289634991437197" lon="8.207985972985625">
        <ele>1139.83203125</ele>
        <time>2019-08-21T13:47:08Z</time>
      </trkpt>
      <trkpt lat="59.289630968123674" lon="8.207998964935541">
        <ele>1139.96875</ele>
        <time>2019-08-21T13:47:09Z</time>
      </trkpt>
      <trkpt lat="59.289627028629184" lon="8.208010029047728">
        <ele>1140.08984375</ele>
        <time>2019-08-21T13:47:10Z</time>
      </trkpt>
      <trkpt lat="59.289623005315661" lon="8.208017991855741">
        <ele>1140.18359375</ele>
        <time>2019-08-21T13:47:11Z</time>
      </trkpt>
      <trkpt lat="59.289616970345378" lon="8.208024026826024">
        <ele>1140.27734375</ele>
        <time>2019-08-21T13:47:12Z</time>
      </trkpt>
      <trkpt lat="59.289614036679268" lon="8.208024026826024">
        <ele>1140.296875</ele>
        <time>2019-08-21T13:47:13Z</time>
      </trkpt>
      <trkpt lat="59.289611019194126" lon="8.208022015169263">
        <ele>1140.30078125</ele>
        <time>2019-08-21T13:47:14Z</time>
      </trkpt>
      <trkpt lat="59.289609007537365" lon="8.208018997684121">
        <ele>1140.2890625</ele>
        <time>2019-08-21T13:47:15Z</time>
      </trkpt>
      <trkpt lat="59.289609007537365" lon="8.20801698602736">
        <ele>1140.26953125</ele>
        <time>2019-08-21T13:47:16Z</time>
      </trkpt>
      <trkpt lat="59.289611019194126" lon="8.208017991855741">
        <ele>1140.265625</ele>
        <time>2019-08-21T13:47:17Z</time>
      </trkpt>
      <trkpt lat="59.289611019194126" lon="8.208017991855741">
        <ele>1140.265625</ele>
        <time>2019-08-21T13:47:18Z</time>
      </trkpt>
      <trkpt lat="59.289608001708984" lon="8.208051016554236">
        <ele>1140.5625</ele>
        <time>2019-08-21T13:47:20Z</time>
      </trkpt>
      <trkpt lat="59.289601966738701" lon="8.208069959655404">
        <ele>1140.7109375</ele>
        <time>2019-08-21T13:47:21Z</time>
      </trkpt>
      <trkpt lat="59.289594003930688" lon="8.208083035424352">
        <ele>1140.828125</ele>
        <time>2019-08-21T13:47:22Z</time>
      </trkpt>
      <trkpt lat="59.289586963132024" lon="8.208098961040378">
        <ele>1140.953125</ele>
        <time>2019-08-21T13:47:23Z</time>
      </trkpt>
      <trkpt lat="59.289585035294294" lon="8.208110025152564">
        <ele>1141.01953125</ele>
        <time>2019-08-21T13:47:24Z</time>
      </trkpt>
      <trkpt lat="59.289581011980772" lon="8.208130979910493">
        <ele>1141.15234375</ele>
        <time>2019-08-21T13:47:25Z</time>
      </trkpt>
      <trkpt lat="59.289575982838869" lon="8.208154030144215">
        <ele>1141.296875</ele>
        <time>2019-08-21T13:47:26Z</time>
      </trkpt>
      <trkpt lat="59.289570031687617" lon="8.208178002387285">
        <ele>1141.453125</ele>
        <time>2019-08-21T13:47:27Z</time>
      </trkpt>
      <trkpt lat="59.289562990888953" lon="8.208199962973595">
        <ele>1141.60546875</ele>
        <time>2019-08-21T13:47:28Z</time>
      </trkpt>
      <trkpt lat="59.289558967575431" lon="8.208221001550555">
        <ele>1141.73046875</ele>
        <time>2019-08-21T13:47:29Z</time>
      </trkpt>
      <trkpt lat="59.289556033909321" lon="8.208239022642374">
        <ele>1141.8359375</ele>
        <time>2019-08-21T13:47:30Z</time>
      </trkpt>
      <trkpt lat="59.289552010595798" lon="8.208255032077432">
        <ele>1141.9375</ele>
        <time>2019-08-21T13:47:31Z</time>
      </trkpt>
      <trkpt lat="59.289545975625515" lon="8.208272969350219">
        <ele>1142.0625</ele>
        <time>2019-08-21T13:47:32Z</time>
      </trkpt>
      <trkpt lat="59.289539018645883" lon="8.208288978785276">
        <ele>1142.1796875</ele>
        <time>2019-08-21T13:47:33Z</time>
      </trkpt>
      <trkpt lat="59.28953398950398" lon="8.208305994048715">
        <ele>1142.2890625</ele>
        <time>2019-08-21T13:47:34Z</time>
      </trkpt>
      <trkpt lat="59.289531977847219" lon="8.208323009312153">
        <ele>1142.3828125</ele>
        <time>2019-08-21T13:47:35Z</time>
      </trkpt>
      <trkpt lat="59.289528960362077" lon="8.208337007090449">
        <ele>1142.45703125</ele>
        <time>2019-08-21T13:47:36Z</time>
      </trkpt>
      <trkpt lat="59.289527032524347" lon="8.208351004868746">
        <ele>1142.515625</ele>
        <time>2019-08-21T13:47:37Z</time>
      </trkpt>
      <trkpt lat="59.289525020867586" lon="8.208368020132184">
        <ele>1142.58203125</ele>
        <time>2019-08-21T13:47:38Z</time>
      </trkpt>
      <trkpt lat="59.289520997554064" lon="8.208380006253719">
        <ele>1142.64453125</ele>
        <time>2019-08-21T13:47:39Z</time>
      </trkpt>
      <trkpt lat="59.289519991725683" lon="8.208385035395622">
        <ele>1142.6640625</ele>
        <time>2019-08-21T13:47:40Z</time>
      </trkpt>
      <trkpt lat="59.289519991725683" lon="8.208385035395622">
        <ele>1142.6640625</ele>
        <time>2019-08-21T13:47:41Z</time>
      </trkpt>
      <trkpt lat="59.289518985897303" lon="8.208385035395622">
        <ele>1142.671875</ele>
        <time>2019-08-21T13:47:42Z</time>
      </trkpt>
      <trkpt lat="59.289518985897303" lon="8.208386041224003">
        <ele>1142.67578125</ele>
        <time>2019-08-21T13:47:43Z</time>
      </trkpt>
      <trkpt lat="59.289518985897303" lon="8.208386041224003">
        <ele>1142.67578125</ele>
        <time>2019-08-21T13:47:44Z</time>
      </trkpt>
      <trkpt lat="59.289518985897303" lon="8.208386041224003">
        <ele>1142.67578125</ele>
        <time>2019-08-21T13:47:45Z</time>
      </trkpt>
      <trkpt lat="59.289519991725683" lon="8.208387969061732">
        <ele>1142.67578125</ele>
        <time>2019-08-21T13:47:46Z</time>
      </trkpt>
      <trkpt lat="59.289517980068922" lon="8.208405990153551">
        <ele>1142.74609375</ele>
        <time>2019-08-21T13:47:47Z</time>
      </trkpt>
      <trkpt lat="59.289506999775767" lon="8.208442032337189">
        <ele>1142.92578125</ele>
        <time>2019-08-21T13:47:49Z</time>
      </trkpt>
      <trkpt lat="59.289497025310993" lon="8.208455024287105">
        <ele>1143.0234375</ele>
        <time>2019-08-21T13:47:50Z</time>
      </trkpt>
      <trkpt lat="59.289488978683949" lon="8.208464998751879">
        <ele>1143.09765625</ele>
        <time>2019-08-21T13:47:51Z</time>
      </trkpt>
      <trkpt lat="59.289482021704316" lon="8.208475979045034">
        <ele>1143.171875</ele>
        <time>2019-08-21T13:47:52Z</time>
      </trkpt>
      <trkpt lat="59.289477998390794" lon="8.208488970994949">
        <ele>1143.23828125</ele>
        <time>2019-08-21T13:47:53Z</time>
      </trkpt>
      <trkpt lat="59.289472969248891" lon="8.208500035107136">
        <ele>1143.30078125</ele>
        <time>2019-08-21T13:47:54Z</time>
      </trkpt>
      <trkpt lat="59.289466012269258" lon="8.208511015400291">
        <ele>1143.375</ele>
        <time>2019-08-21T13:47:55Z</time>
      </trkpt>
      <trkpt lat="59.289462994784117" lon="8.208519984036684">
        <ele>1143.421875</ele>
        <time>2019-08-21T13:47:56Z</time>
      </trkpt>
      <trkpt lat="59.289459977298975" lon="8.208529958501458">
        <ele>1143.47265625</ele>
        <time>2019-08-21T13:47:57Z</time>
      </trkpt>
      <trkpt lat="59.289456037804484" lon="8.208542028442025">
        <ele>1143.53515625</ele>
        <time>2019-08-21T13:47:58Z</time>
      </trkpt>
      <trkpt lat="59.289443967863917" lon="8.20857304148376">
        <ele>1143.703125</ele>
        <time>2019-08-21T13:48:00Z</time>
      </trkpt>
      <trkpt lat="59.289441034197807" lon="8.208585027605295">
        <ele>1143.7578125</ele>
        <time>2019-08-21T13:48:01Z</time>
      </trkpt>
      <trkpt lat="59.289437010884285" lon="8.208589972928166">
        <ele>1143.796875</ele>
        <time>2019-08-21T13:48:02Z</time>
      </trkpt>
      <trkpt lat="59.289438016712666" lon="8.208591984584928">
        <ele>1143.796875</ele>
        <time>2019-08-21T13:48:03Z</time>
      </trkpt>
      <trkpt lat="59.289437010884285" lon="8.208593996241689">
        <ele>1143.80859375</ele>
        <time>2019-08-21T13:48:04Z</time>
      </trkpt>
      <trkpt lat="59.289437010884285" lon="8.208600031211972">
        <ele>1143.828125</ele>
        <time>2019-08-21T13:48:05Z</time>
      </trkpt>
      <trkpt lat="59.289438016712666" lon="8.208603970706463">
        <ele>1143.8359375</ele>
        <time>2019-08-21T13:48:06Z</time>
      </trkpt>
      <trkpt lat="59.289439022541046" lon="8.208606988191605">
        <ele>1143.83984375</ele>
        <time>2019-08-21T13:48:07Z</time>
      </trkpt>
      <trkpt lat="59.289440028369427" lon="8.208610005676746">
        <ele>1143.84765625</ele>
        <time>2019-08-21T13:48:08Z</time>
      </trkpt>
      <trkpt lat="59.289440028369427" lon="8.208610005676746">
        <ele>1143.84765625</ele>
        <time>2019-08-21T13:48:09Z</time>
      </trkpt>
      <trkpt lat="59.289440028369427" lon="8.208610005676746">
        <ele>1143.84765625</ele>
        <time>2019-08-21T13:48:10Z</time>
      </trkpt>
      <trkpt lat="59.289440028369427" lon="8.208610005676746">
        <ele>1143.84765625</ele>
        <time>2019-08-21T13:48:11Z</time>
      </trkpt>
      <trkpt lat="59.289440028369427" lon="8.208610005676746">
        <ele>1143.84765625</ele>
        <time>2019-08-21T13:48:12Z</time>
      </trkpt>
      <trkpt lat="59.289440028369427" lon="8.208610005676746">
        <ele>1143.84765625</ele>
        <time>2019-08-21T13:48:13Z</time>
      </trkpt>
      <trkpt lat="59.289440028369427" lon="8.208610005676746">
        <ele>1143.84765625</ele>
        <time>2019-08-21T13:48:14Z</time>
      </trkpt>
      <trkpt lat="59.289441034197807" lon="8.208610005676746">
        <ele>1143.83984375</ele>
        <time>2019-08-21T13:48:15Z</time>
      </trkpt>
      <trkpt lat="59.289441034197807" lon="8.208610005676746">
        <ele>1143.83984375</ele>
        <time>2019-08-21T13:48:16Z</time>
      </trkpt>
      <trkpt lat="59.289441034197807" lon="8.208610005676746">
        <ele>1143.83984375</ele>
        <time>2019-08-21T13:48:17Z</time>
      </trkpt>
      <trkpt lat="59.289441034197807" lon="8.208610005676746">
        <ele>1143.83984375</ele>
        <time>2019-08-21T13:48:18Z</time>
      </trkpt>
      <trkpt lat="59.289441034197807" lon="8.208610005676746">
        <ele>1143.83984375</ele>
        <time>2019-08-21T13:48:19Z</time>
      </trkpt>
      <trkpt lat="59.289441034197807" lon="8.208610005676746">
        <ele>1143.83984375</ele>
        <time>2019-08-21T13:48:20Z</time>
      </trkpt>
      <trkpt lat="59.289441034197807" lon="8.208610005676746">
        <ele>1143.83984375</ele>
        <time>2019-08-21T13:48:21Z</time>
      </trkpt>
      <trkpt lat="59.289441034197807" lon="8.208610005676746">
        <ele>1143.83984375</ele>
        <time>2019-08-21T13:48:22Z</time>
      </trkpt>
      <trkpt lat="59.289441034197807" lon="8.208610005676746">
        <ele>1143.83984375</ele>
        <time>2019-08-21T13:48:23Z</time>
      </trkpt>
      <trkpt lat="59.289441034197807" lon="8.208610005676746">
        <ele>1143.83984375</ele>
        <time>2019-08-21T13:48:24Z</time>
      </trkpt>
      <trkpt lat="59.289441034197807" lon="8.208610005676746">
        <ele>1143.83984375</ele>
        <time>2019-08-21T13:48:25Z</time>
      </trkpt>
      <trkpt lat="59.289441034197807" lon="8.208610005676746">
        <ele>1143.83984375</ele>
        <time>2019-08-21T13:48:26Z</time>
      </trkpt>
      <trkpt lat="59.289441034197807" lon="8.208610005676746">
        <ele>1143.83984375</ele>
        <time>2019-08-21T13:48:27Z</time>
      </trkpt>
      <trkpt lat="59.289441034197807" lon="8.208610005676746">
        <ele>1143.83984375</ele>
        <time>2019-08-21T13:48:28Z</time>
      </trkpt>
      <trkpt lat="59.289441034197807" lon="8.208611011505127">
        <ele>1143.84375</ele>
        <time>2019-08-21T13:48:29Z</time>
      </trkpt>
      <trkpt lat="59.289441034197807" lon="8.208610005676746">
        <ele>1143.83984375</ele>
        <time>2019-08-21T13:48:30Z</time>
      </trkpt>
      <trkpt lat="59.289441034197807" lon="8.208610005676746">
        <ele>1143.83984375</ele>
        <time>2019-08-21T13:48:31Z</time>
      </trkpt>
      <trkpt lat="59.289441034197807" lon="8.208611011505127">
        <ele>1143.84375</ele>
        <time>2019-08-21T13:48:32Z</time>
      </trkpt>
      <trkpt lat="59.289441034197807" lon="8.208611011505127">
        <ele>1143.84375</ele>
        <time>2019-08-21T13:48:33Z</time>
      </trkpt>
      <trkpt lat="59.289441034197807" lon="8.208611011505127">
        <ele>1143.84375</ele>
        <time>2019-08-21T13:48:34Z</time>
      </trkpt>
      <trkpt lat="59.289441034197807" lon="8.208611011505127">
        <ele>1143.84375</ele>
        <time>2019-08-21T13:48:35Z</time>
      </trkpt>
      <trkpt lat="59.289441034197807" lon="8.208611011505127">
        <ele>1143.84375</ele>
        <time>2019-08-21T13:48:36Z</time>
      </trkpt>
      <trkpt lat="59.289441034197807" lon="8.208611011505127">
        <ele>1143.84375</ele>
        <time>2019-08-21T13:48:37Z</time>
      </trkpt>
      <trkpt lat="59.289441034197807" lon="8.208611011505127">
        <ele>1143.84375</ele>
        <time>2019-08-21T13:48:38Z</time>
      </trkpt>
      <trkpt lat="59.289441034197807" lon="8.208611011505127">
        <ele>1143.84375</ele>
        <time>2019-08-21T13:48:39Z</time>
      </trkpt>
      <trkpt lat="59.289441034197807" lon="8.208611011505127">
        <ele>1143.84375</ele>
        <time>2019-08-21T13:48:40Z</time>
      </trkpt>
      <trkpt lat="59.289441034197807" lon="8.208611011505127">
        <ele>1143.84375</ele>
        <time>2019-08-21T13:48:41Z</time>
      </trkpt>
      <trkpt lat="59.289441034197807" lon="8.208611011505127">
        <ele>1143.84375</ele>
        <time>2019-08-21T13:48:42Z</time>
      </trkpt>
      <trkpt lat="59.289441034197807" lon="8.208611011505127">
        <ele>1143.84375</ele>
        <time>2019-08-21T13:48:43Z</time>
      </trkpt>
      <trkpt lat="59.289441034197807" lon="8.208611011505127">
        <ele>1143.84375</ele>
        <time>2019-08-21T13:48:44Z</time>
      </trkpt>
      <trkpt lat="59.289441034197807" lon="8.208611011505127">
        <ele>1143.84375</ele>
        <time>2019-08-21T13:48:45Z</time>
      </trkpt>
      <trkpt lat="59.289441034197807" lon="8.208611011505127">
        <ele>1143.84375</ele>
        <time>2019-08-21T13:48:46Z</time>
      </trkpt>
      <trkpt lat="59.289441034197807" lon="8.208611011505127">
        <ele>1143.84375</ele>
        <time>2019-08-21T13:48:47Z</time>
      </trkpt>
      <trkpt lat="59.289441034197807" lon="8.208611011505127">
        <ele>1143.84375</ele>
        <time>2019-08-21T13:48:48Z</time>
      </trkpt>
      <trkpt lat="59.289441034197807" lon="8.208611011505127">
        <ele>1143.84375</ele>
        <time>2019-08-21T13:48:49Z</time>
      </trkpt>
      <trkpt lat="59.289441034197807" lon="8.208611011505127">
        <ele>1143.84375</ele>
        <time>2019-08-21T13:48:50Z</time>
      </trkpt>
      <trkpt lat="59.289441034197807" lon="8.208611011505127">
        <ele>1143.84375</ele>
        <time>2019-08-21T13:48:51Z</time>
      </trkpt>
      <trkpt lat="59.289441034197807" lon="8.208611011505127">
        <ele>1143.84375</ele>
        <time>2019-08-21T13:48:52Z</time>
      </trkpt>
      <trkpt lat="59.289441034197807" lon="8.208611011505127">
        <ele>1143.84375</ele>
        <time>2019-08-21T13:48:53Z</time>
      </trkpt>
      <trkpt lat="59.289441034197807" lon="8.208611011505127">
        <ele>1143.84375</ele>
        <time>2019-08-21T13:48:54Z</time>
      </trkpt>
      <trkpt lat="59.289441034197807" lon="8.208610005676746">
        <ele>1143.83984375</ele>
        <time>2019-08-21T13:48:55Z</time>
      </trkpt>
      <trkpt lat="59.289441034197807" lon="8.208610005676746">
        <ele>1143.83984375</ele>
        <time>2019-08-21T13:48:56Z</time>
      </trkpt>
      <trkpt lat="59.289441034197807" lon="8.208610005676746">
        <ele>1143.83984375</ele>
        <time>2019-08-21T13:48:57Z</time>
      </trkpt>
      <trkpt lat="59.289441034197807" lon="8.208610005676746">
        <ele>1143.83984375</ele>
        <time>2019-08-21T13:48:58Z</time>
      </trkpt>
      <trkpt lat="59.289441034197807" lon="8.208610005676746">
        <ele>1143.83984375</ele>
        <time>2019-08-21T13:48:59Z</time>
      </trkpt>
      <trkpt lat="59.289441034197807" lon="8.208610005676746">
        <ele>1143.83984375</ele>
        <time>2019-08-21T13:49:00Z</time>
      </trkpt>
      <trkpt lat="59.289441034197807" lon="8.208610005676746">
        <ele>1143.83984375</ele>
        <time>2019-08-21T13:49:01Z</time>
      </trkpt>
      <trkpt lat="59.289441034197807" lon="8.208610005676746">
        <ele>1143.83984375</ele>
        <time>2019-08-21T13:49:02Z</time>
      </trkpt>
      <trkpt lat="59.289441034197807" lon="8.208610005676746">
        <ele>1143.83984375</ele>
        <time>2019-08-21T13:49:03Z</time>
      </trkpt>
      <trkpt lat="59.289441034197807" lon="8.208610005676746">
        <ele>1143.83984375</ele>
        <time>2019-08-21T13:49:04Z</time>
      </trkpt>
      <trkpt lat="59.289441034197807" lon="8.208610005676746">
        <ele>1143.83984375</ele>
        <time>2019-08-21T13:49:05Z</time>
      </trkpt>
      <trkpt lat="59.289441034197807" lon="8.208610005676746">
        <ele>1143.83984375</ele>
        <time>2019-08-21T13:49:06Z</time>
      </trkpt>
      <trkpt lat="59.289441034197807" lon="8.208610005676746">
        <ele>1143.83984375</ele>
        <time>2019-08-21T13:49:07Z</time>
      </trkpt>
      <trkpt lat="59.289441034197807" lon="8.208610005676746">
        <ele>1143.83984375</ele>
        <time>2019-08-21T13:49:08Z</time>
      </trkpt>
      <trkpt lat="59.289441034197807" lon="8.208610005676746">
        <ele>1143.83984375</ele>
        <time>2019-08-21T13:49:09Z</time>
      </trkpt>
      <trkpt lat="59.289441034197807" lon="8.208610005676746">
        <ele>1143.83984375</ele>
        <time>2019-08-21T13:49:10Z</time>
      </trkpt>
      <trkpt lat="59.289441034197807" lon="8.208610005676746">
        <ele>1143.83984375</ele>
        <time>2019-08-21T13:49:11Z</time>
      </trkpt>
      <trkpt lat="59.289441034197807" lon="8.208610005676746">
        <ele>1143.83984375</ele>
        <time>2019-08-21T13:49:12Z</time>
      </trkpt>
      <trkpt lat="59.289441034197807" lon="8.208610005676746">
        <ele>1143.83984375</ele>
        <time>2019-08-21T13:49:13Z</time>
      </trkpt>
      <trkpt lat="59.289441034197807" lon="8.208610005676746">
        <ele>1143.83984375</ele>
        <time>2019-08-21T13:49:14Z</time>
      </trkpt>
      <trkpt lat="59.289441034197807" lon="8.208610005676746">
        <ele>1143.83984375</ele>
        <time>2019-08-21T13:49:15Z</time>
      </trkpt>
      <trkpt lat="59.289441034197807" lon="8.208610005676746">
        <ele>1143.83984375</ele>
        <time>2019-08-21T13:49:16Z</time>
      </trkpt>
      <trkpt lat="59.289441034197807" lon="8.208610005676746">
        <ele>1143.83984375</ele>
        <time>2019-08-21T13:49:17Z</time>
      </trkpt>
      <trkpt lat="59.289441034197807" lon="8.208610005676746">
        <ele>1143.83984375</ele>
        <time>2019-08-21T13:49:18Z</time>
      </trkpt>
      <trkpt lat="59.289441034197807" lon="8.208610005676746">
        <ele>1143.83984375</ele>
        <time>2019-08-21T13:49:19Z</time>
      </trkpt>
      <trkpt lat="59.289441034197807" lon="8.208610005676746">
        <ele>1143.83984375</ele>
        <time>2019-08-21T13:49:20Z</time>
      </trkpt>
      <trkpt lat="59.289441034197807" lon="8.208610005676746">
        <ele>1143.83984375</ele>
        <time>2019-08-21T13:49:21Z</time>
      </trkpt>
      <trkpt lat="59.289441034197807" lon="8.208610005676746">
        <ele>1143.83984375</ele>
        <time>2019-08-21T13:49:22Z</time>
      </trkpt>
      <trkpt lat="59.289441034197807" lon="8.208610005676746">
        <ele>1143.83984375</ele>
        <time>2019-08-21T13:49:23Z</time>
      </trkpt>
      <trkpt lat="59.289441034197807" lon="8.208610005676746">
        <ele>1143.83984375</ele>
        <time>2019-08-21T13:49:24Z</time>
      </trkpt>
      <trkpt lat="59.289441034197807" lon="8.208610005676746">
        <ele>1143.83984375</ele>
        <time>2019-08-21T13:49:25Z</time>
      </trkpt>
      <trkpt lat="59.289441034197807" lon="8.208610005676746">
        <ele>1143.83984375</ele>
        <time>2019-08-21T13:49:26Z</time>
      </trkpt>
      <trkpt lat="59.289441034197807" lon="8.208611011505127">
        <ele>1143.84375</ele>
        <time>2019-08-21T13:49:27Z</time>
      </trkpt>
      <trkpt lat="59.289441034197807" lon="8.208611011505127">
        <ele>1143.84375</ele>
        <time>2019-08-21T13:49:28Z</time>
      </trkpt>
      <trkpt lat="59.289441034197807" lon="8.208611011505127">
        <ele>1143.84375</ele>
        <time>2019-08-21T13:49:29Z</time>
      </trkpt>
      <trkpt lat="59.289441034197807" lon="8.208611011505127">
        <ele>1143.84375</ele>
        <time>2019-08-21T13:49:30Z</time>
      </trkpt>
      <trkpt lat="59.289441034197807" lon="8.208611011505127">
        <ele>1143.84375</ele>
        <time>2019-08-21T13:49:31Z</time>
      </trkpt>
      <trkpt lat="59.289441034197807" lon="8.208611011505127">
        <ele>1143.84375</ele>
        <time>2019-08-21T13:49:32Z</time>
      </trkpt>
      <trkpt lat="59.289441034197807" lon="8.208611011505127">
        <ele>1143.84375</ele>
        <time>2019-08-21T13:49:33Z</time>
      </trkpt>
      <trkpt lat="59.289441034197807" lon="8.208611011505127">
        <ele>1143.84375</ele>
        <time>2019-08-21T13:49:34Z</time>
      </trkpt>
      <trkpt lat="59.289441034197807" lon="8.208610005676746">
        <ele>1143.83984375</ele>
        <time>2019-08-21T13:49:35Z</time>
      </trkpt>
      <trkpt lat="59.289441034197807" lon="8.208610005676746">
        <ele>1143.83984375</ele>
        <time>2019-08-21T13:49:36Z</time>
      </trkpt>
      <trkpt lat="59.289441034197807" lon="8.208610005676746">
        <ele>1143.83984375</ele>
        <time>2019-08-21T13:49:37Z</time>
      </trkpt>
      <trkpt lat="59.289441034197807" lon="8.208610005676746">
        <ele>1143.83984375</ele>
        <time>2019-08-21T13:49:38Z</time>
      </trkpt>
      <trkpt lat="59.289441034197807" lon="8.208610005676746">
        <ele>1143.83984375</ele>
        <time>2019-08-21T13:49:39Z</time>
      </trkpt>
      <trkpt lat="59.289441034197807" lon="8.208610005676746">
        <ele>1143.83984375</ele>
        <time>2019-08-21T13:49:40Z</time>
      </trkpt>
      <trkpt lat="59.289441034197807" lon="8.208611011505127">
        <ele>1143.84375</ele>
        <time>2019-08-21T13:49:41Z</time>
      </trkpt>
      <trkpt lat="59.289437010884285" lon="8.208628026768565">
        <ele>1143.921875</ele>
        <time>2019-08-21T13:49:42Z</time>
      </trkpt>
      <trkpt lat="59.289416978135705" lon="8.208679994568229">
        <ele>1144.1640625</ele>
        <time>2019-08-21T13:49:44Z</time>
      </trkpt>
      <trkpt lat="59.289399040862918" lon="8.208718970417976">
        <ele>1144.33203125</ele>
        <time>2019-08-21T13:49:45Z</time>
      </trkpt>
      <trkpt lat="59.289380013942719" lon="8.208764987066388">
        <ele>1144.51171875</ele>
        <time>2019-08-21T13:49:46Z</time>
      </trkpt>
      <trkpt lat="59.289368027821183" lon="8.2088110037148">
        <ele>1144.6640625</ele>
        <time>2019-08-21T13:49:47Z</time>
      </trkpt>
      <trkpt lat="59.289365010336041" lon="8.208851991221309">
        <ele>1144.78125</ele>
        <time>2019-08-21T13:49:48Z</time>
      </trkpt>
      <trkpt lat="59.289366016164422" lon="8.20889700204134">
        <ele>1144.92578125</ele>
        <time>2019-08-21T13:49:49Z</time>
      </trkpt>
      <trkpt lat="59.289364004507661" lon="8.208928015083075">
        <ele>1145.0703125</ele>
        <time>2019-08-21T13:49:50Z</time>
      </trkpt>
      <trkpt lat="59.289358975365758" lon="8.208966990932822">
        <ele>1145.26171875</ele>
        <time>2019-08-21T13:49:51Z</time>
      </trkpt>
      <trkpt lat="59.2893619928509" lon="8.20900403894484">
        <ele>1145.4296875</ele>
        <time>2019-08-21T13:49:52Z</time>
      </trkpt>
      <trkpt lat="59.2893619928509" lon="8.209038991481066">
        <ele>1145.58984375</ele>
        <time>2019-08-21T13:49:53Z</time>
      </trkpt>
      <trkpt lat="59.289367021992803" lon="8.209137981757522">
        <ele>1146.01953125</ele>
        <time>2019-08-21T13:49:55Z</time>
      </trkpt>
      <trkpt lat="59.289355035871267" lon="8.209165977314115">
        <ele>1146.2265625</ele>
        <time>2019-08-21T13:49:56Z</time>
      </trkpt>
      <trkpt lat="59.289337014779449" lon="8.209185004234314">
        <ele>1146.4375</ele>
        <time>2019-08-21T13:49:57Z</time>
      </trkpt>
      <trkpt lat="59.28931999951601" lon="8.209210988134146">
        <ele>1146.6875</ele>
        <time>2019-08-21T13:49:58Z</time>
      </trkpt>
      <trkpt lat="59.289312958717346" lon="8.209245018661022">
        <ele>1146.9140625</ele>
        <time>2019-08-21T13:49:59Z</time>
      </trkpt>
      <trkpt lat="59.28929996676743" lon="8.209272008389235">
        <ele>1147.16015625</ele>
        <time>2019-08-21T13:50:00Z</time>
      </trkpt>
      <trkpt lat="59.289255039766431" lon="8.20926203392446">
        <ele>1147.47265625</ele>
        <time>2019-08-21T13:50:02Z</time>
      </trkpt>
      <trkpt lat="59.289228972047567" lon="8.209269996732473">
        <ele>1147.734375</ele>
        <time>2019-08-21T13:50:03Z</time>
      </trkpt>
      <trkpt lat="59.289204999804497" lon="8.209288017824292">
        <ele>1148.0546875</ele>
        <time>2019-08-21T13:50:04Z</time>
      </trkpt>
      <trkpt lat="59.28918999619782" lon="8.20930796675384">
        <ele>1148.32421875</ele>
        <time>2019-08-21T13:50:05Z</time>
      </trkpt>
      <trkpt lat="59.289179015904665" lon="8.209345014765859">
        <ele>1148.69140625</ele>
        <time>2019-08-21T13:50:06Z</time>
      </trkpt>
      <trkpt lat="59.28917096927762" lon="8.209388013929129">
        <ele>1149.0859375</ele>
        <time>2019-08-21T13:50:07Z</time>
      </trkpt>
      <trkpt lat="59.289165018126369" lon="8.209432018920779">
        <ele>1149.4765625</ele>
        <time>2019-08-21T13:50:08Z</time>
      </trkpt>
      <trkpt lat="59.289159988984466" lon="8.209473006427288">
        <ele>1149.7421875</ele>
        <time>2019-08-21T13:50:09Z</time>
      </trkpt>
      <trkpt lat="59.289155965670943" lon="8.209511982277036">
        <ele>1149.95703125</ele>
        <time>2019-08-21T13:50:10Z</time>
      </trkpt>
      <trkpt lat="59.289152026176453" lon="8.209560010582209">
        <ele>1150.20703125</ele>
        <time>2019-08-21T13:50:11Z</time>
      </trkpt>
      <trkpt lat="59.289149008691311" lon="8.209598986431956">
        <ele>1150.39453125</ele>
        <time>2019-08-21T13:50:12Z</time>
      </trkpt>
      <trkpt lat="59.289151020348072" lon="8.209636034443975">
        <ele>1150.546875</ele>
        <time>2019-08-21T13:50:13Z</time>
      </trkpt>
      <trkpt lat="59.289151020348072" lon="8.209680039435625">
        <ele>1150.73828125</ele>
        <time>2019-08-21T13:50:14Z</time>
      </trkpt>
      <trkpt lat="59.289152026176453" lon="8.209724966436625">
        <ele>1150.92578125</ele>
        <time>2019-08-21T13:50:15Z</time>
      </trkpt>
      <trkpt lat="59.289145991206169" lon="8.209774000570178">
        <ele>1151.12109375</ele>
        <time>2019-08-21T13:50:16Z</time>
      </trkpt>
      <trkpt lat="59.289140962064266" lon="8.209815993905067">
        <ele>1151.2890625</ele>
        <time>2019-08-21T13:50:17Z</time>
      </trkpt>
      <trkpt lat="59.289131993427873" lon="8.209852036088705">
        <ele>1151.46484375</ele>
        <time>2019-08-21T13:50:18Z</time>
      </trkpt>
      <trkpt lat="59.289117995649576" lon="8.209881959483028">
        <ele>1151.65234375</ele>
        <time>2019-08-21T13:50:19Z</time>
      </trkpt>
      <trkpt lat="59.28910399787128" lon="8.209901992231607">
        <ele>1151.80859375</ele>
        <time>2019-08-21T13:50:20Z</time>
      </trkpt>
      <trkpt lat="59.289091005921364" lon="8.209923030808568">
        <ele>1151.9609375</ele>
        <time>2019-08-21T13:50:21Z</time>
      </trkpt>
      <trkpt lat="59.289077008143067" lon="8.209942979738116">
        <ele>1152.12109375</ele>
        <time>2019-08-21T13:50:22Z</time>
      </trkpt>
      <trkpt lat="59.289059992879629" lon="8.209953960031271">
        <ele>1152.26953125</ele>
        <time>2019-08-21T13:50:23Z</time>
      </trkpt>
      <trkpt lat="59.289033003151417" lon="8.209987990558147">
        <ele>1152.57421875</ele>
        <time>2019-08-21T13:50:24Z</time>
      </trkpt>
      <trkpt lat="59.289015987887979" lon="8.210029983893037">
        <ele>1152.8984375</ele>
        <time>2019-08-21T13:50:25Z</time>
      </trkpt>
      <trkpt lat="59.289002995938063" lon="8.210069965571165">
        <ele>1153.2109375</ele>
        <time>2019-08-21T13:50:26Z</time>
      </trkpt>
      <trkpt lat="59.288991009816527" lon="8.210107013583183">
        <ele>1153.5078125</ele>
        <time>2019-08-21T13:50:27Z</time>
      </trkpt>
      <trkpt lat="59.288982041180134" lon="8.210131991654635">
        <ele>1153.71875</ele>
        <time>2019-08-21T13:50:28Z</time>
      </trkpt>
      <trkpt lat="59.288972988724709" lon="8.210173984989524">
        <ele>1154.03125</ele>
        <time>2019-08-21T13:50:29Z</time>
      </trkpt>
      <trkpt lat="59.288959996774793" lon="8.210213966667652">
        <ele>1154.37109375</ele>
        <time>2019-08-21T13:50:30Z</time>
      </trkpt>
      <trkpt lat="59.288950022310019" lon="8.210241040214896">
        <ele>1154.6171875</ele>
        <time>2019-08-21T13:50:31Z</time>
      </trkpt>
      <trkpt lat="59.288937030360103" lon="8.210274986922741">
        <ele>1154.9375</ele>
        <time>2019-08-21T13:50:32Z</time>
      </trkpt>
      <trkpt lat="59.288928983733058" lon="8.210307005792856">
        <ele>1155.16796875</ele>
        <time>2019-08-21T13:50:33Z</time>
      </trkpt>
      <trkpt lat="59.288926972076297" lon="8.21033701300621">
        <ele>1155.33984375</ele>
        <time>2019-08-21T13:50:34Z</time>
      </trkpt>
      <trkpt lat="59.288929989561439" lon="8.210374983027577">
        <ele>1155.50390625</ele>
        <time>2019-08-21T13:50:35Z</time>
      </trkpt>
      <trkpt lat="59.288934012874961" lon="8.210408007726073">
        <ele>1155.6328125</ele>
        <time>2019-08-21T13:50:36Z</time>
      </trkpt>
      <trkpt lat="59.288935018703341" lon="8.210482019931078">
        <ele>1155.9921875</ele>
        <time>2019-08-21T13:50:38Z</time>
      </trkpt>
      <trkpt lat="59.28893300704658" lon="8.210513032972813">
        <ele>1156.171875</ele>
        <time>2019-08-21T13:50:39Z</time>
      </trkpt>
      <trkpt lat="59.288925966247916" lon="8.210544968023896">
        <ele>1156.41015625</ele>
        <time>2019-08-21T13:50:40Z</time>
      </trkpt>
      <trkpt lat="59.288915991783142" lon="8.21057204157114">
        <ele>1156.6015625</ele>
        <time>2019-08-21T13:50:41Z</time>
      </trkpt>
      <trkpt lat="59.288906017318368" lon="8.210599031299353">
        <ele>1156.7734375</ele>
        <time>2019-08-21T13:50:42Z</time>
      </trkpt>
      <trkpt lat="59.288895037025213" lon="8.210642030462623">
        <ele>1156.9921875</ele>
        <time>2019-08-21T13:50:43Z</time>
      </trkpt>
      <trkpt lat="59.288883972913027" lon="8.210672037675977">
        <ele>1157.17578125</ele>
        <time>2019-08-21T13:50:44Z</time>
      </trkpt>
      <trkpt lat="59.288882967084646" lon="8.210704978555441">
        <ele>1157.2578125</ele>
        <time>2019-08-21T13:50:45Z</time>
      </trkpt>
      <trkpt lat="59.288879027590156" lon="8.21074403822422">
        <ele>1157.38671875</ele>
        <time>2019-08-21T13:50:46Z</time>
      </trkpt>
      <trkpt lat="59.288872992619872" lon="8.210771027952433">
        <ele>1157.5</ele>
        <time>2019-08-21T13:50:47Z</time>
      </trkpt>
      <trkpt lat="59.28886704146862" lon="8.2108089979738">
        <ele>1157.62890625</ele>
        <time>2019-08-21T13:50:48Z</time>
      </trkpt>
      <trkpt lat="59.288865029811859" lon="8.210839005187154">
        <ele>1157.73046875</ele>
        <time>2019-08-21T13:50:49Z</time>
      </trkpt>
      <trkpt lat="59.28886603564024" lon="8.21087596938014">
        <ele>1157.8828125</ele>
        <time>2019-08-21T13:50:50Z</time>
      </trkpt>
      <trkpt lat="59.288863018155098" lon="8.210912011563778">
        <ele>1158.0625</ele>
        <time>2019-08-21T13:50:51Z</time>
      </trkpt>
      <trkpt lat="59.288854971528053" lon="8.21093900129199">
        <ele>1158.234375</ele>
        <time>2019-08-21T13:50:52Z</time>
      </trkpt>
      <trkpt lat="59.288851032033563" lon="8.210974959656596">
        <ele>1158.41796875</ele>
        <time>2019-08-21T13:50:53Z</time>
      </trkpt>
      <trkpt lat="59.288840973749757" lon="8.21100203320384">
        <ele>1158.60546875</ele>
        <time>2019-08-21T13:50:54Z</time>
      </trkpt>
      <trkpt lat="59.288840973749757" lon="8.21102399379015">
        <ele>1158.69921875</ele>
        <time>2019-08-21T13:50:55Z</time>
      </trkpt>
      <trkpt lat="59.288835022598505" lon="8.211059030145407">
        <ele>1158.88671875</ele>
        <time>2019-08-21T13:50:56Z</time>
      </trkpt>
      <trkpt lat="59.28882597014308" lon="8.21108803153038">
        <ele>1159.0703125</ele>
        <time>2019-08-21T13:50:57Z</time>
      </trkpt>
      <trkpt lat="59.288824964314699" lon="8.211116027086973">
        <ele>1159.1796875</ele>
        <time>2019-08-21T13:50:58Z</time>
      </trkpt>
      <trkpt lat="59.288817001506686" lon="8.211147040128708">
        <ele>1159.30859375</ele>
        <time>2019-08-21T13:50:59Z</time>
      </trkpt>
      <trkpt lat="59.288813984021544" lon="8.21117696352303">
        <ele>1159.40234375</ele>
        <time>2019-08-21T13:51:00Z</time>
      </trkpt>
      <trkpt lat="59.288814989849925" lon="8.211203031241894">
        <ele>1159.4609375</ele>
        <time>2019-08-21T13:51:01Z</time>
      </trkpt>
      <trkpt lat="59.288810966536403" lon="8.211246030405164">
        <ele>1159.59375</ele>
        <time>2019-08-21T13:51:02Z</time>
      </trkpt>
      <trkpt lat="59.288801997900009" lon="8.211285006254911">
        <ele>1159.75390625</ele>
        <time>2019-08-21T13:51:03Z</time>
      </trkpt>
      <trkpt lat="59.288793029263616" lon="8.21130596101284">
        <ele>1159.87109375</ele>
        <time>2019-08-21T13:51:04Z</time>
      </trkpt>
      <trkpt lat="59.288784982636571" lon="8.211323982104659">
        <ele>1159.9765625</ele>
        <time>2019-08-21T13:51:05Z</time>
      </trkpt>
      <trkpt lat="59.288771990686655" lon="8.211347032338381">
        <ele>1160.1328125</ele>
        <time>2019-08-21T13:51:06Z</time>
      </trkpt>
      <trkpt lat="59.288757992908359" lon="8.211364969611168">
        <ele>1160.28515625</ele>
        <time>2019-08-21T13:51:07Z</time>
      </trkpt>
      <trkpt lat="59.288743995130062" lon="8.211375027894974">
        <ele>1160.421875</ele>
        <time>2019-08-21T13:51:08Z</time>
      </trkpt>
      <trkpt lat="59.288724968209863" lon="8.211395982652903">
        <ele>1160.62890625</ele>
        <time>2019-08-21T13:51:09Z</time>
      </trkpt>
      <trkpt lat="59.288700995966792" lon="8.211420960724354">
        <ele>1160.90625</ele>
        <time>2019-08-21T13:51:10Z</time>
      </trkpt>
      <trkpt lat="59.288684986531734" lon="8.21143202483654">
        <ele>1161.07421875</ele>
        <time>2019-08-21T13:51:11Z</time>
      </trkpt>
      <trkpt lat="59.288670988753438" lon="8.211459014564753">
        <ele>1161.2890625</ele>
        <time>2019-08-21T13:51:12Z</time>
      </trkpt>
      <trkpt lat="59.288659002631903" lon="8.2114979904145">
        <ele>1161.54296875</ele>
        <time>2019-08-21T13:51:13Z</time>
      </trkpt>
      <trkpt lat="59.288648022338748" lon="8.211530009284616">
        <ele>1161.76171875</ele>
        <time>2019-08-21T13:51:14Z</time>
      </trkpt>
      <trkpt lat="59.28863201290369" lon="8.211559010669589">
        <ele>1162.0234375</ele>
        <time>2019-08-21T13:51:15Z</time>
      </trkpt>
      <trkpt lat="59.288617009297013" lon="8.211580971255899">
        <ele>1162.25390625</ele>
        <time>2019-08-21T13:51:16Z</time>
      </trkpt>
      <trkpt lat="59.288603011518717" lon="8.211593963205814">
        <ele>1162.4375</ele>
        <time>2019-08-21T13:51:17Z</time>
      </trkpt>
      <trkpt lat="59.288585996255279" lon="8.211611984297633">
        <ele>1162.63671875</ele>
        <time>2019-08-21T13:51:18Z</time>
      </trkpt>
      <trkpt lat="59.288574010133743" lon="8.21162698790431">
        <ele>1162.77734375</ele>
        <time>2019-08-21T13:51:19Z</time>
      </trkpt>
      <trkpt lat="59.288560012355447" lon="8.211635034531355">
        <ele>1162.90234375</ele>
        <time>2019-08-21T13:51:20Z</time>
      </trkpt>
      <trkpt lat="59.288542997092009" lon="8.211650960147381">
        <ele>1163.08984375</ele>
        <time>2019-08-21T13:51:21Z</time>
      </trkpt>
      <trkpt lat="59.28852598182857" lon="8.211665963754058">
        <ele>1163.29296875</ele>
        <time>2019-08-21T13:51:22Z</time>
      </trkpt>
      <trkpt lat="59.288508966565132" lon="8.211685996502638">
        <ele>1163.625</ele>
        <time>2019-08-21T13:51:23Z</time>
      </trkpt>
      <trkpt lat="59.288492035120726" lon="8.211710974574089">
        <ele>1164.01953125</ele>
        <time>2019-08-21T13:51:24Z</time>
      </trkpt>
      <trkpt lat="59.288483988493681" lon="8.21173201315105">
        <ele>1164.3125</ele>
        <time>2019-08-21T13:51:25Z</time>
      </trkpt>
      <trkpt lat="59.288478959351778" lon="8.211750034242868">
        <ele>1164.5546875</ele>
        <time>2019-08-21T13:51:26Z</time>
      </trkpt>
      <trkpt lat="59.288472002372146" lon="8.211777023971081">
        <ele>1164.9140625</ele>
        <time>2019-08-21T13:51:27Z</time>
      </trkpt>
      <trkpt lat="59.288468984887004" lon="8.211810970678926">
        <ele>1165.32421875</ele>
        <time>2019-08-21T13:51:28Z</time>
      </trkpt>
      <trkpt lat="59.288464039564133" lon="8.211839972063899">
        <ele>1165.69921875</ele>
        <time>2019-08-21T13:51:29Z</time>
      </trkpt>
      <trkpt lat="59.288453981280327" lon="8.211854975670576">
        <ele>1165.9609375</ele>
        <time>2019-08-21T13:51:30Z</time>
      </trkpt>
      <trkpt lat="59.288446018472314" lon="8.211878025904298">
        <ele>1166.30078125</ele>
        <time>2019-08-21T13:51:31Z</time>
      </trkpt>
      <trkpt lat="59.288435960188508" lon="8.211903003975749">
        <ele>1166.6875</ele>
        <time>2019-08-21T13:51:32Z</time>
      </trkpt>
      <trkpt lat="59.288432020694017" lon="8.211925970390439">
        <ele>1167</ele>
        <time>2019-08-21T13:51:33Z</time>
      </trkpt>
      <trkpt lat="59.288424979895353" lon="8.2119470089674">
        <ele>1167.3046875</ele>
        <time>2019-08-21T13:51:34Z</time>
      </trkpt>
      <trkpt lat="59.28841701708734" lon="8.211973998695612">
        <ele>1167.6484375</ele>
        <time>2019-08-21T13:51:35Z</time>
      </trkpt>
      <trkpt lat="59.288404025137424" lon="8.211995959281921">
        <ele>1168</ele>
        <time>2019-08-21T13:51:36Z</time>
      </trkpt>
      <trkpt lat="59.288393966853619" lon="8.21201004087925">
        <ele>1168.25</ele>
        <time>2019-08-21T13:51:37Z</time>
      </trkpt>
      <trkpt lat="59.288382986560464" lon="8.212027978152037">
        <ele>1168.55078125</ele>
        <time>2019-08-21T13:51:38Z</time>
      </trkpt>
      <trkpt lat="59.288375023752451" lon="8.212059997022152">
        <ele>1168.96875</ele>
        <time>2019-08-21T13:51:39Z</time>
      </trkpt>
      <trkpt lat="59.288372006267309" lon="8.212087992578745">
        <ele>1169.29296875</ele>
        <time>2019-08-21T13:51:40Z</time>
      </trkpt>
      <trkpt lat="59.288368988782167" lon="8.212108025327325">
        <ele>1169.53515625</ele>
        <time>2019-08-21T13:51:41Z</time>
      </trkpt>
      <trkpt lat="59.288364965468645" lon="8.212129985913634">
        <ele>1169.8125</ele>
        <time>2019-08-21T13:51:42Z</time>
      </trkpt>
      <trkpt lat="59.28835398517549" lon="8.212144989520311">
        <ele>1170.10546875</ele>
        <time>2019-08-21T13:51:43Z</time>
      </trkpt>
      <trkpt lat="59.288350967690349" lon="8.212145995348692">
        <ele>1170.15234375</ele>
        <time>2019-08-21T13:51:44Z</time>
      </trkpt>
      <trkpt lat="59.28835297934711" lon="8.212160998955369">
        <ele>1170.2890625</ele>
        <time>2019-08-21T13:51:45Z</time>
      </trkpt>
      <trkpt lat="59.28835297934711" lon="8.212200980633497">
        <ele>1170.7109375</ele>
        <time>2019-08-21T13:51:46Z</time>
      </trkpt>
      <trkpt lat="59.288350967690349" lon="8.212245991453528">
        <ele>1171.18359375</ele>
        <time>2019-08-21T13:51:47Z</time>
      </trkpt>
      <trkpt lat="59.288350967690349" lon="8.212265018373728">
        <ele>1171.3671875</ele>
        <time>2019-08-21T13:51:48Z</time>
      </trkpt>
      <trkpt lat="59.28835398517549" lon="8.212285973131657">
        <ele>1171.5234375</ele>
        <time>2019-08-21T13:51:49Z</time>
      </trkpt>
      <trkpt lat="59.288341999053955" lon="8.212316986173391">
        <ele>1171.98828125</ele>
        <time>2019-08-21T13:51:50Z</time>
      </trkpt>
      <trkpt lat="59.288335964083672" lon="8.212347999215126">
        <ele>1172.375</ele>
        <time>2019-08-21T13:51:51Z</time>
      </trkpt>
      <trkpt lat="59.288336969912052" lon="8.212383035570383">
        <ele>1172.69921875</ele>
        <time>2019-08-21T13:51:52Z</time>
      </trkpt>
      <trkpt lat="59.288335964083672" lon="8.21242100559175">
        <ele>1173.08203125</ele>
        <time>2019-08-21T13:51:53Z</time>
      </trkpt>
      <trkpt lat="59.288339987397194" lon="8.212445983663201">
        <ele>1173.26171875</ele>
        <time>2019-08-21T13:51:54Z</time>
      </trkpt>
      <trkpt lat="59.288338981568813" lon="8.212480014190078">
        <ele>1173.60546875</ele>
        <time>2019-08-21T13:51:55Z</time>
      </trkpt>
      <trkpt lat="59.288334036245942" lon="8.212511027231813">
        <ele>1173.95703125</ele>
        <time>2019-08-21T13:51:56Z</time>
      </trkpt>
      <trkpt lat="59.288329007104039" lon="8.21252603083849">
        <ele>1174.15625</ele>
        <time>2019-08-21T13:51:57Z</time>
      </trkpt>
      <trkpt lat="59.288321966305375" lon="8.212553020566702">
        <ele>1174.48046875</ele>
        <time>2019-08-21T13:51:58Z</time>
      </trkpt>
      <trkpt lat="59.288315009325743" lon="8.21257296949625">
        <ele>1174.69140625</ele>
        <time>2019-08-21T13:51:59Z</time>
      </trkpt>
      <trkpt lat="59.288311991840601" lon="8.212583027780056">
        <ele>1174.7890625</ele>
        <time>2019-08-21T13:52:00Z</time>
      </trkpt>
      <trkpt lat="59.288312997668982" lon="8.212609011679888">
        <ele>1174.984375</ele>
        <time>2019-08-21T13:52:01Z</time>
      </trkpt>
      <trkpt lat="59.288311991840601" lon="8.212644970044494">
        <ele>1175.26953125</ele>
        <time>2019-08-21T13:52:02Z</time>
      </trkpt>
      <trkpt lat="59.288304029032588" lon="8.212669026106596">
        <ele>1175.51171875</ele>
        <time>2019-08-21T13:52:03Z</time>
      </trkpt>
      <trkpt lat="59.288296988233924" lon="8.21269802749157">
        <ele>1175.78515625</ele>
        <time>2019-08-21T13:52:04Z</time>
      </trkpt>
      <trkpt lat="59.288286007940769" lon="8.212729962542653">
        <ele>1176.1171875</ele>
        <time>2019-08-21T13:52:05Z</time>
      </trkpt>
      <trkpt lat="59.288279972970486" lon="8.212749995291233">
        <ele>1176.32421875</ele>
        <time>2019-08-21T13:52:06Z</time>
      </trkpt>
      <trkpt lat="59.288275027647614" lon="8.212774973362684">
        <ele>1176.55859375</ele>
        <time>2019-08-21T13:52:07Z</time>
      </trkpt>
      <trkpt lat="59.288271004334092" lon="8.212804980576038">
        <ele>1176.765625</ele>
        <time>2019-08-21T13:52:08Z</time>
      </trkpt>
      <trkpt lat="59.288268992677331" lon="8.21282803080976">
        <ele>1176.91796875</ele>
        <time>2019-08-21T13:52:09Z</time>
      </trkpt>
      <trkpt lat="59.28826798684895" lon="8.21284999139607">
        <ele>1177.0546875</ele>
        <time>2019-08-21T13:52:10Z</time>
      </trkpt>
      <trkpt lat="59.28826698102057" lon="8.21287396363914">
        <ele>1177.20703125</ele>
        <time>2019-08-21T13:52:11Z</time>
      </trkpt>
      <trkpt lat="59.288263963535428" lon="8.21289299055934">
        <ele>1177.34375</ele>
        <time>2019-08-21T13:52:12Z</time>
      </trkpt>
      <trkpt lat="59.288260024040937" lon="8.212911011651158">
        <ele>1177.48828125</ele>
        <time>2019-08-21T13:52:13Z</time>
      </trkpt>
      <trkpt lat="59.288259018212557" lon="8.212928026914597">
        <ele>1177.59765625</ele>
        <time>2019-08-21T13:52:14Z</time>
      </trkpt>
      <trkpt lat="59.288260024040937" lon="8.212948981672525">
        <ele>1177.71484375</ele>
        <time>2019-08-21T13:52:15Z</time>
      </trkpt>
      <trkpt lat="59.288260024040937" lon="8.212971026077867">
        <ele>1177.84375</ele>
        <time>2019-08-21T13:52:16Z</time>
      </trkpt>
      <trkpt lat="59.288256000727415" lon="8.212990975007415">
        <ele>1178</ele>
        <time>2019-08-21T13:52:17Z</time>
      </trkpt>
      <trkpt lat="59.288249965757132" lon="8.213012013584375">
        <ele>1178.18359375</ele>
        <time>2019-08-21T13:52:18Z</time>
      </trkpt>
      <trkpt lat="59.28824502043426" lon="8.213032968342304">
        <ele>1178.359375</ele>
        <time>2019-08-21T13:52:19Z</time>
      </trkpt>
      <trkpt lat="59.288240997120738" lon="8.213055012747645">
        <ele>1178.53515625</ele>
        <time>2019-08-21T13:52:20Z</time>
      </trkpt>
      <trkpt lat="59.288240997120738" lon="8.213076973333955">
        <ele>1178.6640625</ele>
        <time>2019-08-21T13:52:21Z</time>
      </trkpt>
      <trkpt lat="59.288248959928751" lon="8.213102035224438">
        <ele>1178.73828125</ele>
        <time>2019-08-21T13:52:22Z</time>
      </trkpt>
      <trkpt lat="59.288256000727415" lon="8.213126007467508">
        <ele>1178.81640625</ele>
        <time>2019-08-21T13:52:23Z</time>
      </trkpt>
      <trkpt lat="59.288260024040937" lon="8.21315199136734">
        <ele>1178.9375</ele>
        <time>2019-08-21T13:52:24Z</time>
      </trkpt>
      <trkpt lat="59.288263963535428" lon="8.21317202411592">
        <ele>1179.02734375</ele>
        <time>2019-08-21T13:52:25Z</time>
      </trkpt>
      <trkpt lat="59.288264969363809" lon="8.213192978873849">
        <ele>1179.14453125</ele>
        <time>2019-08-21T13:52:26Z</time>
      </trkpt>
      <trkpt lat="59.288265975192189" lon="8.21321502327919">
        <ele>1179.2734375</ele>
        <time>2019-08-21T13:52:27Z</time>
      </trkpt>
      <trkpt lat="59.288264969363809" lon="8.213235978037119">
        <ele>1179.41015625</ele>
        <time>2019-08-21T13:52:28Z</time>
      </trkpt>
      <trkpt lat="59.288263963535428" lon="8.213253999128938">
        <ele>1179.52734375</ele>
        <time>2019-08-21T13:52:29Z</time>
      </trkpt>
      <trkpt lat="59.288263963535428" lon="8.213275037705898">
        <ele>1179.65625</ele>
        <time>2019-08-21T13:52:30Z</time>
      </trkpt>
      <trkpt lat="59.288260024040937" lon="8.21330001577735">
        <ele>1179.84375</ele>
        <time>2019-08-21T13:52:31Z</time>
      </trkpt>
      <trkpt lat="59.288248959928751" lon="8.213319964706898">
        <ele>1180.05078125</ele>
        <time>2019-08-21T13:52:32Z</time>
      </trkpt>
      <trkpt lat="59.28824401460588" lon="8.213334968313575">
        <ele>1180.16796875</ele>
        <time>2019-08-21T13:52:33Z</time>
      </trkpt>
      <trkpt lat="59.288240997120738" lon="8.213348966091871">
        <ele>1180.25</ele>
        <time>2019-08-21T13:52:34Z</time>
      </trkpt>
      <trkpt lat="59.288240997120738" lon="8.213362041860819">
        <ele>1180.3046875</ele>
        <time>2019-08-21T13:52:35Z</time>
      </trkpt>
      <trkpt lat="59.288239991292357" lon="8.213378973305225">
        <ele>1180.3828125</ele>
        <time>2019-08-21T13:52:36Z</time>
      </trkpt>
      <trkpt lat="59.288239991292357" lon="8.213395988568664">
        <ele>1180.45703125</ele>
        <time>2019-08-21T13:52:37Z</time>
      </trkpt>
      <trkpt lat="59.288242002949119" lon="8.213414009660482">
        <ele>1180.51953125</ele>
        <time>2019-08-21T13:52:38Z</time>
      </trkpt>
      <trkpt lat="59.288240997120738" lon="8.213432030752301">
        <ele>1180.6015625</ele>
        <time>2019-08-21T13:52:39Z</time>
      </trkpt>
      <trkpt lat="59.288240997120738" lon="8.213447034358978">
        <ele>1180.6640625</ele>
        <time>2019-08-21T13:52:40Z</time>
      </trkpt>
      <trkpt lat="59.288240997120738" lon="8.213458014652133">
        <ele>1180.7109375</ele>
        <time>2019-08-21T13:52:41Z</time>
      </trkpt>
      <trkpt lat="59.288243008777499" lon="8.213471006602049">
        <ele>1180.75390625</ele>
        <time>2019-08-21T13:52:42Z</time>
      </trkpt>
      <trkpt lat="59.288248037919402" lon="8.213487016037107">
        <ele>1180.796875</ele>
        <time>2019-08-21T13:52:43Z</time>
      </trkpt>
      <trkpt lat="59.288252983242273" lon="8.213503025472164">
        <ele>1180.84375</ele>
        <time>2019-08-21T13:52:44Z</time>
      </trkpt>
      <trkpt lat="59.288258012384176" lon="8.213521968573332">
        <ele>1180.90234375</ele>
        <time>2019-08-21T13:52:45Z</time>
      </trkpt>
      <trkpt lat="59.288260024040937" lon="8.213540995493531">
        <ele>1180.98046875</ele>
        <time>2019-08-21T13:52:46Z</time>
      </trkpt>
      <trkpt lat="59.288262035697699" lon="8.21355901658535">
        <ele>1181.0546875</ele>
        <time>2019-08-21T13:52:47Z</time>
      </trkpt>
      <trkpt lat="59.288265975192189" lon="8.213577037677169">
        <ele>1181.12109375</ele>
        <time>2019-08-21T13:52:48Z</time>
      </trkpt>
      <trkpt lat="59.288269998505712" lon="8.213595980778337">
        <ele>1181.1953125</ele>
        <time>2019-08-21T13:52:49Z</time>
      </trkpt>
      <trkpt lat="59.288276033475995" lon="8.213614001870155">
        <ele>1181.23828125</ele>
        <time>2019-08-21T13:52:50Z</time>
      </trkpt>
      <trkpt lat="59.288281984627247" lon="8.213635040447116">
        <ele>1181.25</ele>
        <time>2019-08-21T13:52:51Z</time>
      </trkpt>
      <trkpt lat="59.288281984627247" lon="8.213654989376664">
        <ele>1181.28125</ele>
        <time>2019-08-21T13:52:52Z</time>
      </trkpt>
      <trkpt lat="59.288282990455627" lon="8.213677033782005">
        <ele>1181.30859375</ele>
        <time>2019-08-21T13:52:53Z</time>
      </trkpt>
      <trkpt lat="59.288283996284008" lon="8.213698994368315">
        <ele>1181.33984375</ele>
        <time>2019-08-21T13:52:54Z</time>
      </trkpt>
      <trkpt lat="59.288282990455627" lon="8.213720032945275">
        <ele>1181.375</ele>
        <time>2019-08-21T13:52:55Z</time>
      </trkpt>
      <trkpt lat="59.288280978798866" lon="8.213739981874824">
        <ele>1181.41796875</ele>
        <time>2019-08-21T13:52:56Z</time>
      </trkpt>
      <trkpt lat="59.288277961313725" lon="8.213758002966642">
        <ele>1181.4609375</ele>
        <time>2019-08-21T13:52:57Z</time>
      </trkpt>
      <trkpt lat="59.288274021819234" lon="8.213775018230081">
        <ele>1181.5078125</ele>
        <time>2019-08-21T13:52:58Z</time>
      </trkpt>
      <trkpt lat="59.28826798684895" lon="8.213789016008377">
        <ele>1181.56640625</ele>
        <time>2019-08-21T13:52:59Z</time>
      </trkpt>
      <trkpt lat="59.288263041526079" lon="8.213807037100196">
        <ele>1181.625</ele>
        <time>2019-08-21T13:53:00Z</time>
      </trkpt>
      <trkpt lat="59.288260024040937" lon="8.213823968544602">
        <ele>1181.671875</ele>
        <time>2019-08-21T13:53:01Z</time>
      </trkpt>
      <trkpt lat="59.288253989070654" lon="8.213841989636421">
        <ele>1181.7421875</ele>
        <time>2019-08-21T13:53:02Z</time>
      </trkpt>
      <trkpt lat="59.288252983242273" lon="8.213863028213382">
        <ele>1181.7890625</ele>
        <time>2019-08-21T13:53:03Z</time>
      </trkpt>
      <trkpt lat="59.288251977413893" lon="8.213880965486169">
        <ele>1181.828125</ele>
        <time>2019-08-21T13:53:04Z</time>
      </trkpt>
      <trkpt lat="59.288251977413893" lon="8.213897980749607">
        <ele>1181.8671875</ele>
        <time>2019-08-21T13:53:05Z</time>
      </trkpt>
      <trkpt lat="59.288248959928751" lon="8.213917007669807">
        <ele>1181.9375</ele>
        <time>2019-08-21T13:53:06Z</time>
      </trkpt>
      <trkpt lat="59.28824401460588" lon="8.213937040418387">
        <ele>1182.0234375</ele>
        <time>2019-08-21T13:53:07Z</time>
      </trkpt>
      <trkpt lat="59.288238985463977" lon="8.213955983519554">
        <ele>1182.11328125</ele>
        <time>2019-08-21T13:53:08Z</time>
      </trkpt>
      <trkpt lat="59.288233034312725" lon="8.213976016268134">
        <ele>1182.21875</ele>
        <time>2019-08-21T13:53:09Z</time>
      </trkpt>
      <trkpt lat="59.28822498768568" lon="8.213995965197682">
        <ele>1182.34375</ele>
        <time>2019-08-21T13:53:10Z</time>
      </trkpt>
      <trkpt lat="59.288218030706048" lon="8.214015997946262">
        <ele>1182.46875</ele>
        <time>2019-08-21T13:53:11Z</time>
      </trkpt>
      <trkpt lat="59.288214007392526" lon="8.214036030694842">
        <ele>1182.5703125</ele>
        <time>2019-08-21T13:53:12Z</time>
      </trkpt>
      <trkpt lat="59.288206966593862" lon="8.214055979624391">
        <ele>1182.703125</ele>
        <time>2019-08-21T13:53:13Z</time>
      </trkpt>
      <trkpt lat="59.28820202127099" lon="8.214076012372971">
        <ele>1182.82421875</ele>
        <time>2019-08-21T13:53:14Z</time>
      </trkpt>
      <trkpt lat="59.288195986300707" lon="8.214092021808028">
        <ele>1182.94140625</ele>
        <time>2019-08-21T13:53:15Z</time>
      </trkpt>
      <trkpt lat="59.288190035149455" lon="8.214107025414705">
        <ele>1183.0625</ele>
        <time>2019-08-21T13:53:16Z</time>
      </trkpt>
      <trkpt lat="59.288186011835933" lon="8.214122029021382">
        <ele>1183.16015625</ele>
        <time>2019-08-21T13:53:17Z</time>
      </trkpt>
      <trkpt lat="59.28818198852241" lon="8.214138960465789">
        <ele>1183.2734375</ele>
        <time>2019-08-21T13:53:18Z</time>
      </trkpt>
      <trkpt lat="59.288176037371159" lon="8.214155975729227">
        <ele>1183.41015625</ele>
        <time>2019-08-21T13:53:19Z</time>
      </trkpt>
      <trkpt lat="59.288171008229256" lon="8.214173996821046">
        <ele>1183.54296875</ele>
        <time>2019-08-21T13:53:20Z</time>
      </trkpt>
      <trkpt lat="59.288167990744114" lon="8.214190006256104">
        <ele>1183.64453125</ele>
        <time>2019-08-21T13:53:21Z</time>
      </trkpt>
      <trkpt lat="59.288163967430592" lon="8.214206015691161">
        <ele>1183.76171875</ele>
        <time>2019-08-21T13:53:22Z</time>
      </trkpt>
      <trkpt lat="59.288163967430592" lon="8.214222025126219">
        <ele>1183.828125</ele>
        <time>2019-08-21T13:53:23Z</time>
      </trkpt>
      <trkpt lat="59.288163967430592" lon="8.214236022904515">
        <ele>1183.890625</ele>
        <time>2019-08-21T13:53:24Z</time>
      </trkpt>
      <trkpt lat="59.288165979087353" lon="8.214256977662444">
        <ele>1183.94921875</ele>
        <time>2019-08-21T13:53:25Z</time>
      </trkpt>
      <trkpt lat="59.288170002400875" lon="8.214280027896166">
        <ele>1183.98828125</ele>
        <time>2019-08-21T13:53:26Z</time>
      </trkpt>
      <trkpt lat="59.288172014057636" lon="8.214301988482475">
        <ele>1184.046875</ele>
        <time>2019-08-21T13:53:27Z</time>
      </trkpt>
      <trkpt lat="59.288172014057636" lon="8.214324032887816">
        <ele>1184.13671875</ele>
        <time>2019-08-21T13:53:28Z</time>
      </trkpt>
      <trkpt lat="59.288173019886017" lon="8.214345993474126">
        <ele>1184.20703125</ele>
        <time>2019-08-21T13:53:29Z</time>
      </trkpt>
      <trkpt lat="59.288164973258972" lon="8.214360997080803">
        <ele>1184.3984375</ele>
        <time>2019-08-21T13:53:30Z</time>
      </trkpt>
      <trkpt lat="59.28815801627934" lon="8.214371977373958">
        <ele>1184.5546875</ele>
        <time>2019-08-21T13:53:31Z</time>
      </trkpt>
      <trkpt lat="59.288153992965817" lon="8.214383963495493">
        <ele>1184.671875</ele>
        <time>2019-08-21T13:53:32Z</time>
      </trkpt>
      <trkpt lat="59.288152987137437" lon="8.214397961273789">
        <ele>1184.75</ele>
        <time>2019-08-21T13:53:33Z</time>
      </trkpt>
      <trkpt lat="59.288152987137437" lon="8.214413970708847">
        <ele>1184.8203125</ele>
        <time>2019-08-21T13:53:34Z</time>
      </trkpt>
      <trkpt lat="59.288154998794198" lon="8.214432997629046">
        <ele>1184.87109375</ele>
        <time>2019-08-21T13:53:35Z</time>
      </trkpt>
      <trkpt lat="59.288152987137437" lon="8.214444983750582">
        <ele>1184.96484375</ele>
        <time>2019-08-21T13:53:36Z</time>
      </trkpt>
      <trkpt lat="59.288150975480676" lon="8.214464010670781">
        <ele>1185.1015625</ele>
        <time>2019-08-21T13:53:37Z</time>
      </trkpt>
      <trkpt lat="59.288133960217237" lon="8.214497035369277">
        <ele>1185.5859375</ele>
        <time>2019-08-21T13:53:39Z</time>
      </trkpt>
      <trkpt lat="59.288132032379508" lon="8.214501980692148">
        <ele>1185.6484375</ele>
        <time>2019-08-21T13:53:40Z</time>
      </trkpt>
      <trkpt lat="59.288132032379508" lon="8.214506004005671">
        <ele>1185.671875</ele>
        <time>2019-08-21T13:53:41Z</time>
      </trkpt>
      <trkpt lat="59.288130020722747" lon="8.214509021490812">
        <ele>1185.7265625</ele>
        <time>2019-08-21T13:53:42Z</time>
      </trkpt>
      <trkpt lat="59.288129014894366" lon="8.214511033147574">
        <ele>1185.75390625</ele>
        <time>2019-08-21T13:53:43Z</time>
      </trkpt>
      <trkpt lat="59.288128009065986" lon="8.214511033147574">
        <ele>1185.7734375</ele>
        <time>2019-08-21T13:53:44Z</time>
      </trkpt>
      <trkpt lat="59.288129014894366" lon="8.214511033147574">
        <ele>1185.75390625</ele>
        <time>2019-08-21T13:53:45Z</time>
      </trkpt>
      <trkpt lat="59.288129014894366" lon="8.214511033147574">
        <ele>1185.75390625</ele>
        <time>2019-08-21T13:53:46Z</time>
      </trkpt>
      <trkpt lat="59.288129014894366" lon="8.214511033147574">
        <ele>1185.75390625</ele>
        <time>2019-08-21T13:53:47Z</time>
      </trkpt>
      <trkpt lat="59.288129014894366" lon="8.214511033147574">
        <ele>1185.75390625</ele>
        <time>2019-08-21T13:53:48Z</time>
      </trkpt>
      <trkpt lat="59.288129014894366" lon="8.214511033147574">
        <ele>1185.75390625</ele>
        <time>2019-08-21T13:53:49Z</time>
      </trkpt>
      <trkpt lat="59.288130020722747" lon="8.214512038975954">
        <ele>1185.7421875</ele>
        <time>2019-08-21T13:53:50Z</time>
      </trkpt>
      <trkpt lat="59.288130020722747" lon="8.214515978470445">
        <ele>1185.76171875</ele>
        <time>2019-08-21T13:53:51Z</time>
      </trkpt>
      <trkpt lat="59.288131026551127" lon="8.214520001783967">
        <ele>1185.765625</ele>
        <time>2019-08-21T13:53:52Z</time>
      </trkpt>
      <trkpt lat="59.288131026551127" lon="8.214518995955586">
        <ele>1185.76171875</ele>
        <time>2019-08-21T13:53:53Z</time>
      </trkpt>
      <trkpt lat="59.288131026551127" lon="8.214520001783967">
        <ele>1185.765625</ele>
        <time>2019-08-21T13:53:54Z</time>
      </trkpt>
      <trkpt lat="59.288131026551127" lon="8.214521007612348">
        <ele>1185.7734375</ele>
        <time>2019-08-21T13:53:55Z</time>
      </trkpt>
      <trkpt lat="59.288131026551127" lon="8.214521007612348">
        <ele>1185.7734375</ele>
        <time>2019-08-21T13:53:56Z</time>
      </trkpt>
      <trkpt lat="59.288131026551127" lon="8.214521007612348">
        <ele>1185.7734375</ele>
        <time>2019-08-21T13:53:57Z</time>
      </trkpt>
      <trkpt lat="59.288131026551127" lon="8.214522013440728">
        <ele>1185.77734375</ele>
        <time>2019-08-21T13:53:58Z</time>
      </trkpt>
      <trkpt lat="59.288131026551127" lon="8.214521007612348">
        <ele>1185.7734375</ele>
        <time>2019-08-21T13:53:59Z</time>
      </trkpt>
      <trkpt lat="59.288130020722747" lon="8.214521007612348">
        <ele>1185.79296875</ele>
        <time>2019-08-21T13:54:00Z</time>
      </trkpt>
      <trkpt lat="59.288130020722747" lon="8.214521007612348">
        <ele>1185.79296875</ele>
        <time>2019-08-21T13:54:01Z</time>
      </trkpt>
      <trkpt lat="59.288130020722747" lon="8.214521007612348">
        <ele>1185.79296875</ele>
        <time>2019-08-21T13:54:02Z</time>
      </trkpt>
      <trkpt lat="59.288130020722747" lon="8.214521007612348">
        <ele>1185.79296875</ele>
        <time>2019-08-21T13:54:03Z</time>
      </trkpt>
      <trkpt lat="59.288130020722747" lon="8.214521007612348">
        <ele>1185.79296875</ele>
        <time>2019-08-21T13:54:04Z</time>
      </trkpt>
      <trkpt lat="59.288130020722747" lon="8.214521007612348">
        <ele>1185.79296875</ele>
        <time>2019-08-21T13:54:05Z</time>
      </trkpt>
      <trkpt lat="59.288130020722747" lon="8.214521007612348">
        <ele>1185.79296875</ele>
        <time>2019-08-21T13:54:06Z</time>
      </trkpt>
      <trkpt lat="59.288130020722747" lon="8.214521007612348">
        <ele>1185.79296875</ele>
        <time>2019-08-21T13:54:07Z</time>
      </trkpt>
      <trkpt lat="59.288130020722747" lon="8.214521007612348">
        <ele>1185.79296875</ele>
        <time>2019-08-21T13:54:08Z</time>
      </trkpt>
      <trkpt lat="59.288130020722747" lon="8.214521007612348">
        <ele>1185.79296875</ele>
        <time>2019-08-21T13:54:09Z</time>
      </trkpt>
      <trkpt lat="59.288130020722747" lon="8.214535005390644">
        <ele>1185.87109375</ele>
        <time>2019-08-21T13:54:10Z</time>
      </trkpt>
      <trkpt lat="59.288127003237605" lon="8.214553026482463">
        <ele>1186.02734375</ele>
        <time>2019-08-21T13:54:11Z</time>
      </trkpt>
      <trkpt lat="59.288121974095702" lon="8.214570041745901">
        <ele>1186.21875</ele>
        <time>2019-08-21T13:54:12Z</time>
      </trkpt>
      <trkpt lat="59.288117028772831" lon="8.214584961533546">
        <ele>1186.3984375</ele>
        <time>2019-08-21T13:54:13Z</time>
      </trkpt>
      <trkpt lat="59.288114011287689" lon="8.214598037302494">
        <ele>1186.53125</ele>
        <time>2019-08-21T13:54:14Z</time>
      </trkpt>
      <trkpt lat="59.288114011287689" lon="8.214602982625365">
        <ele>1186.55859375</ele>
        <time>2019-08-21T13:54:15Z</time>
      </trkpt>
      <trkpt lat="59.288113005459309" lon="8.214606000110507">
        <ele>1186.59765625</ele>
        <time>2019-08-21T13:54:16Z</time>
      </trkpt>
      <trkpt lat="59.288113005459309" lon="8.214609017595649">
        <ele>1186.61328125</ele>
        <time>2019-08-21T13:54:17Z</time>
      </trkpt>
      <trkpt lat="59.288113005459309" lon="8.214612035080791">
        <ele>1186.6328125</ele>
        <time>2019-08-21T13:54:18Z</time>
      </trkpt>
      <trkpt lat="59.288111999630928" lon="8.214612035080791">
        <ele>1186.65234375</ele>
        <time>2019-08-21T13:54:19Z</time>
      </trkpt>
      <trkpt lat="59.288111999630928" lon="8.214612035080791">
        <ele>1186.65234375</ele>
        <time>2019-08-21T13:54:20Z</time>
      </trkpt>
      <trkpt lat="59.288114011287689" lon="8.214614968746901">
        <ele>1186.62890625</ele>
        <time>2019-08-21T13:54:21Z</time>
      </trkpt>
      <trkpt lat="59.28811501711607" lon="8.214623015373945">
        <ele>1186.65625</ele>
        <time>2019-08-21T13:54:22Z</time>
      </trkpt>
      <trkpt lat="59.288117028772831" lon="8.214637013152242">
        <ele>1186.6953125</ele>
        <time>2019-08-21T13:54:23Z</time>
      </trkpt>
      <trkpt lat="59.28811501711607" lon="8.214648999273777">
        <ele>1186.8046875</ele>
        <time>2019-08-21T13:54:24Z</time>
      </trkpt>
      <trkpt lat="59.288114011287689" lon="8.214658973738551">
        <ele>1186.8828125</ele>
        <time>2019-08-21T13:54:25Z</time>
      </trkpt>
      <trkpt lat="59.288114011287689" lon="8.214668026193976">
        <ele>1186.93359375</ele>
        <time>2019-08-21T13:54:26Z</time>
      </trkpt>
      <trkpt lat="59.28811602294445" lon="8.21467699483037">
        <ele>1186.9453125</ele>
        <time>2019-08-21T13:54:27Z</time>
      </trkpt>
      <trkpt lat="59.288127003237605" lon="8.214705996215344">
        <ele>1186.8828125</ele>
        <time>2019-08-21T13:54:29Z</time>
      </trkpt>
      <trkpt lat="59.288123985752463" lon="8.214717982336879">
        <ele>1187.0078125</ele>
        <time>2019-08-21T13:54:30Z</time>
      </trkpt>
      <trkpt lat="59.288122979924083" lon="8.214724017307162">
        <ele>1187.02734375</ele>
        <time>2019-08-21T13:54:31Z</time>
      </trkpt>
      <trkpt lat="59.288121974095702" lon="8.214727034792304">
        <ele>1187.046875</ele>
        <time>2019-08-21T13:54:32Z</time>
      </trkpt>
      <trkpt lat="59.288121974095702" lon="8.214731980115175">
        <ele>1187.046875</ele>
        <time>2019-08-21T13:54:33Z</time>
      </trkpt>
      <trkpt lat="59.288114011287689" lon="8.214759975671768">
        <ele>1187.21484375</ele>
        <time>2019-08-21T13:54:35Z</time>
      </trkpt>
      <trkpt lat="59.288113005459309" lon="8.214776990935206">
        <ele>1187.234375</ele>
        <time>2019-08-21T13:54:36Z</time>
      </trkpt>
      <trkpt lat="59.288114011287689" lon="8.214794006198645">
        <ele>1187.21484375</ele>
        <time>2019-08-21T13:54:37Z</time>
      </trkpt>
      <trkpt lat="59.288113005459309" lon="8.214810015633702">
        <ele>1187.234375</ele>
        <time>2019-08-21T13:54:38Z</time>
      </trkpt>
      <trkpt lat="59.288110993802547" lon="8.214823007583618">
        <ele>1187.28125</ele>
        <time>2019-08-21T13:54:39Z</time>
      </trkpt>
      <trkpt lat="59.288106970489025" lon="8.214830970391631">
        <ele>1187.37109375</ele>
        <time>2019-08-21T13:54:40Z</time>
      </trkpt>
      <trkpt lat="59.288103030994534" lon="8.214835999533534">
        <ele>1187.4609375</ele>
        <time>2019-08-21T13:54:41Z</time>
      </trkpt>
      <trkpt lat="59.288102025166154" lon="8.214839017018676">
        <ele>1187.484375</ele>
        <time>2019-08-21T13:54:42Z</time>
      </trkpt>
      <trkpt lat="59.288102025166154" lon="8.214839017018676">
        <ele>1187.484375</ele>
        <time>2019-08-21T13:54:43Z</time>
      </trkpt>
      <trkpt lat="59.288103030994534" lon="8.214839017018676">
        <ele>1187.46484375</ele>
        <time>2019-08-21T13:54:44Z</time>
      </trkpt>
      <trkpt lat="59.288102025166154" lon="8.214841028675437">
        <ele>1187.484375</ele>
        <time>2019-08-21T13:54:45Z</time>
      </trkpt>
      <trkpt lat="59.288103030994534" lon="8.214841028675437">
        <ele>1187.46484375</ele>
        <time>2019-08-21T13:54:46Z</time>
      </trkpt>
      <trkpt lat="59.288103030994534" lon="8.214842034503818">
        <ele>1187.46484375</ele>
        <time>2019-08-21T13:54:47Z</time>
      </trkpt>
      <trkpt lat="59.288102025166154" lon="8.214843962341547">
        <ele>1187.48828125</ele>
        <time>2019-08-21T13:54:48Z</time>
      </trkpt>
      <trkpt lat="59.28809498436749" lon="8.214841028675437">
        <ele>1187.6484375</ele>
        <time>2019-08-21T13:54:49Z</time>
      </trkpt>
      <trkpt lat="59.288092972710729" lon="8.214839017018676">
        <ele>1187.69140625</ele>
        <time>2019-08-21T13:54:50Z</time>
      </trkpt>
      <trkpt lat="59.288090961053967" lon="8.214838011190295">
        <ele>1187.73828125</ele>
        <time>2019-08-21T13:54:51Z</time>
      </trkpt>
      <trkpt lat="59.288090039044619" lon="8.214839017018676">
        <ele>1187.7578125</ele>
        <time>2019-08-21T13:54:52Z</time>
      </trkpt>
      <trkpt lat="59.288090039044619" lon="8.214839017018676">
        <ele>1187.7578125</ele>
        <time>2019-08-21T13:54:53Z</time>
      </trkpt>
      <trkpt lat="59.288090961053967" lon="8.214839017018676">
        <ele>1187.73828125</ele>
        <time>2019-08-21T13:54:54Z</time>
      </trkpt>
      <trkpt lat="59.288090039044619" lon="8.214839017018676">
        <ele>1187.7578125</ele>
        <time>2019-08-21T13:54:55Z</time>
      </trkpt>
      <trkpt lat="59.288090039044619" lon="8.214840022847056">
        <ele>1187.7578125</ele>
        <time>2019-08-21T13:54:56Z</time>
      </trkpt>
      <trkpt lat="59.288090039044619" lon="8.214840022847056">
        <ele>1187.7578125</ele>
        <time>2019-08-21T13:54:57Z</time>
      </trkpt>
      <trkpt lat="59.288090039044619" lon="8.214840022847056">
        <ele>1187.7578125</ele>
        <time>2019-08-21T13:54:58Z</time>
      </trkpt>
      <trkpt lat="59.288090039044619" lon="8.214840022847056">
        <ele>1187.7578125</ele>
        <time>2019-08-21T13:54:59Z</time>
      </trkpt>
      <trkpt lat="59.288090961053967" lon="8.214839017018676">
        <ele>1187.73828125</ele>
        <time>2019-08-21T13:55:00Z</time>
      </trkpt>
      <trkpt lat="59.288090961053967" lon="8.214839017018676">
        <ele>1187.73828125</ele>
        <time>2019-08-21T13:55:01Z</time>
      </trkpt>
      <trkpt lat="59.288090961053967" lon="8.214839017018676">
        <ele>1187.73828125</ele>
        <time>2019-08-21T13:55:02Z</time>
      </trkpt>
      <trkpt lat="59.288090961053967" lon="8.214839017018676">
        <ele>1187.73828125</ele>
        <time>2019-08-21T13:55:03Z</time>
      </trkpt>
      <trkpt lat="59.288090961053967" lon="8.214839017018676">
        <ele>1187.73828125</ele>
        <time>2019-08-21T13:55:04Z</time>
      </trkpt>
      <trkpt lat="59.288090961053967" lon="8.214839017018676">
        <ele>1187.73828125</ele>
        <time>2019-08-21T13:55:05Z</time>
      </trkpt>
      <trkpt lat="59.288090961053967" lon="8.214839017018676">
        <ele>1187.73828125</ele>
        <time>2019-08-21T13:55:06Z</time>
      </trkpt>
      <trkpt lat="59.288090961053967" lon="8.214839017018676">
        <ele>1187.73828125</ele>
        <time>2019-08-21T13:55:07Z</time>
      </trkpt>
      <trkpt lat="59.288090961053967" lon="8.214839017018676">
        <ele>1187.73828125</ele>
        <time>2019-08-21T13:55:08Z</time>
      </trkpt>
      <trkpt lat="59.288090961053967" lon="8.214839017018676">
        <ele>1187.73828125</ele>
        <time>2019-08-21T13:55:09Z</time>
      </trkpt>
      <trkpt lat="59.288090961053967" lon="8.214839017018676">
        <ele>1187.73828125</ele>
        <time>2019-08-21T13:55:10Z</time>
      </trkpt>
      <trkpt lat="59.288090961053967" lon="8.214839017018676">
        <ele>1187.73828125</ele>
        <time>2019-08-21T13:55:11Z</time>
      </trkpt>
      <trkpt lat="59.288090961053967" lon="8.214839017018676">
        <ele>1187.73828125</ele>
        <time>2019-08-21T13:55:12Z</time>
      </trkpt>
      <trkpt lat="59.288090961053967" lon="8.214839017018676">
        <ele>1187.73828125</ele>
        <time>2019-08-21T13:55:13Z</time>
      </trkpt>
      <trkpt lat="59.288090961053967" lon="8.214839017018676">
        <ele>1187.73828125</ele>
        <time>2019-08-21T13:55:14Z</time>
      </trkpt>
      <trkpt lat="59.288090961053967" lon="8.214839017018676">
        <ele>1187.73828125</ele>
        <time>2019-08-21T13:55:15Z</time>
      </trkpt>
      <trkpt lat="59.288090961053967" lon="8.214839017018676">
        <ele>1187.73828125</ele>
        <time>2019-08-21T13:55:16Z</time>
      </trkpt>
      <trkpt lat="59.288090961053967" lon="8.214839017018676">
        <ele>1187.73828125</ele>
        <time>2019-08-21T13:55:17Z</time>
      </trkpt>
      <trkpt lat="59.288090961053967" lon="8.214839017018676">
        <ele>1187.73828125</ele>
        <time>2019-08-21T13:55:18Z</time>
      </trkpt>
      <trkpt lat="59.288090961053967" lon="8.214839017018676">
        <ele>1187.73828125</ele>
        <time>2019-08-21T13:55:19Z</time>
      </trkpt>
      <trkpt lat="59.288090961053967" lon="8.214839017018676">
        <ele>1187.73828125</ele>
        <time>2019-08-21T13:55:20Z</time>
      </trkpt>
      <trkpt lat="59.288090961053967" lon="8.214840022847056">
        <ele>1187.73828125</ele>
        <time>2019-08-21T13:55:21Z</time>
      </trkpt>
      <trkpt lat="59.288090961053967" lon="8.214840022847056">
        <ele>1187.73828125</ele>
        <time>2019-08-21T13:55:22Z</time>
      </trkpt>
      <trkpt lat="59.288090961053967" lon="8.214840022847056">
        <ele>1187.73828125</ele>
        <time>2019-08-21T13:55:23Z</time>
      </trkpt>
      <trkpt lat="59.288090961053967" lon="8.214839017018676">
        <ele>1187.73828125</ele>
        <time>2019-08-21T13:55:24Z</time>
      </trkpt>
      <trkpt lat="59.288091966882348" lon="8.214838011190295">
        <ele>1187.71484375</ele>
        <time>2019-08-21T13:55:25Z</time>
      </trkpt>
      <trkpt lat="59.288091966882348" lon="8.214838011190295">
        <ele>1187.71484375</ele>
        <time>2019-08-21T13:55:26Z</time>
      </trkpt>
      <trkpt lat="59.288091966882348" lon="8.214838011190295">
        <ele>1187.71484375</ele>
        <time>2019-08-21T13:55:27Z</time>
      </trkpt>
      <trkpt lat="59.288091966882348" lon="8.214838011190295">
        <ele>1187.71484375</ele>
        <time>2019-08-21T13:55:28Z</time>
      </trkpt>
      <trkpt lat="59.288091966882348" lon="8.214838011190295">
        <ele>1187.71484375</ele>
        <time>2019-08-21T13:55:29Z</time>
      </trkpt>
      <trkpt lat="59.288091966882348" lon="8.214838011190295">
        <ele>1187.71484375</ele>
        <time>2019-08-21T13:55:30Z</time>
      </trkpt>
      <trkpt lat="59.288091966882348" lon="8.214838011190295">
        <ele>1187.71484375</ele>
        <time>2019-08-21T13:55:31Z</time>
      </trkpt>
      <trkpt lat="59.288091966882348" lon="8.214838011190295">
        <ele>1187.71484375</ele>
        <time>2019-08-21T13:55:32Z</time>
      </trkpt>
      <trkpt lat="59.288091966882348" lon="8.214838011190295">
        <ele>1187.71484375</ele>
        <time>2019-08-21T13:55:33Z</time>
      </trkpt>
      <trkpt lat="59.288091966882348" lon="8.214838011190295">
        <ele>1187.71484375</ele>
        <time>2019-08-21T13:55:34Z</time>
      </trkpt>
      <trkpt lat="59.288091966882348" lon="8.214838011190295">
        <ele>1187.71484375</ele>
        <time>2019-08-21T13:55:35Z</time>
      </trkpt>
      <trkpt lat="59.288091966882348" lon="8.214838011190295">
        <ele>1187.71484375</ele>
        <time>2019-08-21T13:55:36Z</time>
      </trkpt>
      <trkpt lat="59.288091966882348" lon="8.214838011190295">
        <ele>1187.71484375</ele>
        <time>2019-08-21T13:55:37Z</time>
      </trkpt>
      <trkpt lat="59.288091966882348" lon="8.214838011190295">
        <ele>1187.71484375</ele>
        <time>2019-08-21T13:55:38Z</time>
      </trkpt>
      <trkpt lat="59.288091966882348" lon="8.214838011190295">
        <ele>1187.71484375</ele>
        <time>2019-08-21T13:55:39Z</time>
      </trkpt>
      <trkpt lat="59.288091966882348" lon="8.214838011190295">
        <ele>1187.71484375</ele>
        <time>2019-08-21T13:55:40Z</time>
      </trkpt>
      <trkpt lat="59.288091966882348" lon="8.214838011190295">
        <ele>1187.71484375</ele>
        <time>2019-08-21T13:55:41Z</time>
      </trkpt>
      <trkpt lat="59.288091966882348" lon="8.214838011190295">
        <ele>1187.71484375</ele>
        <time>2019-08-21T13:55:42Z</time>
      </trkpt>
      <trkpt lat="59.288091966882348" lon="8.214838011190295">
        <ele>1187.71484375</ele>
        <time>2019-08-21T13:55:43Z</time>
      </trkpt>
      <trkpt lat="59.288091966882348" lon="8.214838011190295">
        <ele>1187.71484375</ele>
        <time>2019-08-21T13:55:44Z</time>
      </trkpt>
      <trkpt lat="59.288091966882348" lon="8.214838011190295">
        <ele>1187.71484375</ele>
        <time>2019-08-21T13:55:45Z</time>
      </trkpt>
      <trkpt lat="59.288091966882348" lon="8.214838011190295">
        <ele>1187.71484375</ele>
        <time>2019-08-21T13:55:46Z</time>
      </trkpt>
      <trkpt lat="59.288091966882348" lon="8.214838011190295">
        <ele>1187.71484375</ele>
        <time>2019-08-21T13:55:47Z</time>
      </trkpt>
      <trkpt lat="59.288091966882348" lon="8.214838011190295">
        <ele>1187.71484375</ele>
        <time>2019-08-21T13:55:48Z</time>
      </trkpt>
      <trkpt lat="59.288091966882348" lon="8.214838011190295">
        <ele>1187.71484375</ele>
        <time>2019-08-21T13:55:49Z</time>
      </trkpt>
      <trkpt lat="59.288091966882348" lon="8.214838011190295">
        <ele>1187.71484375</ele>
        <time>2019-08-21T13:55:50Z</time>
      </trkpt>
      <trkpt lat="59.288091966882348" lon="8.214838011190295">
        <ele>1187.71484375</ele>
        <time>2019-08-21T13:55:51Z</time>
      </trkpt>
      <trkpt lat="59.288091966882348" lon="8.214838011190295">
        <ele>1187.71484375</ele>
        <time>2019-08-21T13:55:52Z</time>
      </trkpt>
      <trkpt lat="59.288091966882348" lon="8.214838011190295">
        <ele>1187.71484375</ele>
        <time>2019-08-21T13:55:53Z</time>
      </trkpt>
      <trkpt lat="59.288091966882348" lon="8.214838011190295">
        <ele>1187.71484375</ele>
        <time>2019-08-21T13:55:54Z</time>
      </trkpt>
      <trkpt lat="59.288091966882348" lon="8.214838011190295">
        <ele>1187.71484375</ele>
        <time>2019-08-21T13:55:55Z</time>
      </trkpt>
      <trkpt lat="59.288091966882348" lon="8.214838011190295">
        <ele>1187.71484375</ele>
        <time>2019-08-21T13:55:56Z</time>
      </trkpt>
      <trkpt lat="59.288091966882348" lon="8.214838011190295">
        <ele>1187.71484375</ele>
        <time>2019-08-21T13:55:57Z</time>
      </trkpt>
      <trkpt lat="59.288091966882348" lon="8.214838011190295">
        <ele>1187.71484375</ele>
        <time>2019-08-21T13:55:58Z</time>
      </trkpt>
      <trkpt lat="59.288091966882348" lon="8.214838011190295">
        <ele>1187.71484375</ele>
        <time>2019-08-21T13:55:59Z</time>
      </trkpt>
      <trkpt lat="59.288091966882348" lon="8.214838011190295">
        <ele>1187.71484375</ele>
        <time>2019-08-21T13:56:00Z</time>
      </trkpt>
      <trkpt lat="59.288091966882348" lon="8.214839017018676">
        <ele>1187.71484375</ele>
        <time>2019-08-21T13:56:01Z</time>
      </trkpt>
      <trkpt lat="59.288091966882348" lon="8.214839017018676">
        <ele>1187.71484375</ele>
        <time>2019-08-21T13:56:02Z</time>
      </trkpt>
      <trkpt lat="59.288091966882348" lon="8.214839017018676">
        <ele>1187.71484375</ele>
        <time>2019-08-21T13:56:03Z</time>
      </trkpt>
      <trkpt lat="59.288091966882348" lon="8.214839017018676">
        <ele>1187.71484375</ele>
        <time>2019-08-21T13:56:04Z</time>
      </trkpt>
      <trkpt lat="59.288091966882348" lon="8.214839017018676">
        <ele>1187.71484375</ele>
        <time>2019-08-21T13:56:05Z</time>
      </trkpt>
      <trkpt lat="59.288091966882348" lon="8.214839017018676">
        <ele>1187.71484375</ele>
        <time>2019-08-21T13:56:06Z</time>
      </trkpt>
      <trkpt lat="59.288091966882348" lon="8.214839017018676">
        <ele>1187.71484375</ele>
        <time>2019-08-21T13:56:07Z</time>
      </trkpt>
      <trkpt lat="59.288091966882348" lon="8.214839017018676">
        <ele>1187.71484375</ele>
        <time>2019-08-21T13:56:08Z</time>
      </trkpt>
      <trkpt lat="59.288091966882348" lon="8.214839017018676">
        <ele>1187.71484375</ele>
        <time>2019-08-21T13:56:09Z</time>
      </trkpt>
      <trkpt lat="59.288091966882348" lon="8.214839017018676">
        <ele>1187.71484375</ele>
        <time>2019-08-21T13:56:10Z</time>
      </trkpt>
      <trkpt lat="59.288091966882348" lon="8.214839017018676">
        <ele>1187.71484375</ele>
        <time>2019-08-21T13:56:11Z</time>
      </trkpt>
      <trkpt lat="59.288091966882348" lon="8.214839017018676">
        <ele>1187.71484375</ele>
        <time>2019-08-21T13:56:12Z</time>
      </trkpt>
      <trkpt lat="59.288091966882348" lon="8.214839017018676">
        <ele>1187.71484375</ele>
        <time>2019-08-21T13:56:13Z</time>
      </trkpt>
      <trkpt lat="59.288091966882348" lon="8.214839017018676">
        <ele>1187.71484375</ele>
        <time>2019-08-21T13:56:14Z</time>
      </trkpt>
      <trkpt lat="59.288091966882348" lon="8.214839017018676">
        <ele>1187.71484375</ele>
        <time>2019-08-21T13:56:15Z</time>
      </trkpt>
      <trkpt lat="59.288091966882348" lon="8.214839017018676">
        <ele>1187.71484375</ele>
        <time>2019-08-21T13:56:16Z</time>
      </trkpt>
      <trkpt lat="59.288091966882348" lon="8.214839017018676">
        <ele>1187.71484375</ele>
        <time>2019-08-21T13:56:17Z</time>
      </trkpt>
      <trkpt lat="59.288091966882348" lon="8.214839017018676">
        <ele>1187.71484375</ele>
        <time>2019-08-21T13:56:18Z</time>
      </trkpt>
      <trkpt lat="59.288091966882348" lon="8.214839017018676">
        <ele>1187.71484375</ele>
        <time>2019-08-21T13:56:19Z</time>
      </trkpt>
      <trkpt lat="59.288091966882348" lon="8.214839017018676">
        <ele>1187.71484375</ele>
        <time>2019-08-21T13:56:20Z</time>
      </trkpt>
      <trkpt lat="59.288091966882348" lon="8.214839017018676">
        <ele>1187.71484375</ele>
        <time>2019-08-21T13:56:21Z</time>
      </trkpt>
      <trkpt lat="59.288091966882348" lon="8.214839017018676">
        <ele>1187.71484375</ele>
        <time>2019-08-21T13:56:22Z</time>
      </trkpt>
      <trkpt lat="59.288091966882348" lon="8.214839017018676">
        <ele>1187.71484375</ele>
        <time>2019-08-21T13:56:23Z</time>
      </trkpt>
      <trkpt lat="59.288091966882348" lon="8.214839017018676">
        <ele>1187.71484375</ele>
        <time>2019-08-21T13:56:24Z</time>
      </trkpt>
      <trkpt lat="59.288091966882348" lon="8.214839017018676">
        <ele>1187.71484375</ele>
        <time>2019-08-21T13:56:25Z</time>
      </trkpt>
      <trkpt lat="59.288091966882348" lon="8.214839017018676">
        <ele>1187.71484375</ele>
        <time>2019-08-21T13:56:26Z</time>
      </trkpt>
      <trkpt lat="59.288091966882348" lon="8.214839017018676">
        <ele>1187.71484375</ele>
        <time>2019-08-21T13:56:27Z</time>
      </trkpt>
      <trkpt lat="59.288091966882348" lon="8.214839017018676">
        <ele>1187.71484375</ele>
        <time>2019-08-21T13:56:28Z</time>
      </trkpt>
      <trkpt lat="59.288091966882348" lon="8.214839017018676">
        <ele>1187.71484375</ele>
        <time>2019-08-21T13:56:29Z</time>
      </trkpt>
      <trkpt lat="59.288091966882348" lon="8.214839017018676">
        <ele>1187.71484375</ele>
        <time>2019-08-21T13:56:30Z</time>
      </trkpt>
      <trkpt lat="59.288091966882348" lon="8.214839017018676">
        <ele>1187.71484375</ele>
        <time>2019-08-21T13:56:31Z</time>
      </trkpt>
      <trkpt lat="59.288091966882348" lon="8.214839017018676">
        <ele>1187.71484375</ele>
        <time>2019-08-21T13:56:32Z</time>
      </trkpt>
      <trkpt lat="59.288091966882348" lon="8.214839017018676">
        <ele>1187.71484375</ele>
        <time>2019-08-21T13:56:33Z</time>
      </trkpt>
      <trkpt lat="59.288091966882348" lon="8.214840022847056">
        <ele>1187.71484375</ele>
        <time>2019-08-21T13:56:34Z</time>
      </trkpt>
      <trkpt lat="59.288091966882348" lon="8.214840022847056">
        <ele>1187.71484375</ele>
        <time>2019-08-21T13:56:35Z</time>
      </trkpt>
      <trkpt lat="59.288091966882348" lon="8.214840022847056">
        <ele>1187.71484375</ele>
        <time>2019-08-21T13:56:36Z</time>
      </trkpt>
      <trkpt lat="59.288091966882348" lon="8.214840022847056">
        <ele>1187.71484375</ele>
        <time>2019-08-21T13:56:37Z</time>
      </trkpt>
      <trkpt lat="59.288091966882348" lon="8.214840022847056">
        <ele>1187.71484375</ele>
        <time>2019-08-21T13:56:38Z</time>
      </trkpt>
      <trkpt lat="59.288091966882348" lon="8.214840022847056">
        <ele>1187.71484375</ele>
        <time>2019-08-21T13:56:39Z</time>
      </trkpt>
      <trkpt lat="59.288091966882348" lon="8.214840022847056">
        <ele>1187.71484375</ele>
        <time>2019-08-21T13:56:40Z</time>
      </trkpt>
      <trkpt lat="59.288091966882348" lon="8.214840022847056">
        <ele>1187.71484375</ele>
        <time>2019-08-21T13:56:41Z</time>
      </trkpt>
      <trkpt lat="59.288091966882348" lon="8.214840022847056">
        <ele>1187.71484375</ele>
        <time>2019-08-21T13:56:42Z</time>
      </trkpt>
      <trkpt lat="59.288091966882348" lon="8.214840022847056">
        <ele>1187.71484375</ele>
        <time>2019-08-21T13:56:43Z</time>
      </trkpt>
      <trkpt lat="59.288091966882348" lon="8.214840022847056">
        <ele>1187.71484375</ele>
        <time>2019-08-21T13:56:44Z</time>
      </trkpt>
      <trkpt lat="59.288091966882348" lon="8.214840022847056">
        <ele>1187.71484375</ele>
        <time>2019-08-21T13:56:45Z</time>
      </trkpt>
      <trkpt lat="59.288091966882348" lon="8.214840022847056">
        <ele>1187.71484375</ele>
        <time>2019-08-21T13:56:46Z</time>
      </trkpt>
      <trkpt lat="59.288091966882348" lon="8.214840022847056">
        <ele>1187.71484375</ele>
        <time>2019-08-21T13:56:47Z</time>
      </trkpt>
      <trkpt lat="59.288091966882348" lon="8.214840022847056">
        <ele>1187.71484375</ele>
        <time>2019-08-21T13:56:48Z</time>
      </trkpt>
      <trkpt lat="59.288091966882348" lon="8.214840022847056">
        <ele>1187.71484375</ele>
        <time>2019-08-21T13:56:49Z</time>
      </trkpt>
      <trkpt lat="59.288091966882348" lon="8.214840022847056">
        <ele>1187.71484375</ele>
        <time>2019-08-21T13:56:50Z</time>
      </trkpt>
      <trkpt lat="59.288091966882348" lon="8.214840022847056">
        <ele>1187.71484375</ele>
        <time>2019-08-21T13:56:51Z</time>
      </trkpt>
      <trkpt lat="59.288091966882348" lon="8.214840022847056">
        <ele>1187.71484375</ele>
        <time>2019-08-21T13:56:52Z</time>
      </trkpt>
      <trkpt lat="59.288091966882348" lon="8.214840022847056">
        <ele>1187.71484375</ele>
        <time>2019-08-21T13:56:53Z</time>
      </trkpt>
      <trkpt lat="59.288091966882348" lon="8.214840022847056">
        <ele>1187.71484375</ele>
        <time>2019-08-21T13:56:54Z</time>
      </trkpt>
      <trkpt lat="59.288091966882348" lon="8.214840022847056">
        <ele>1187.71484375</ele>
        <time>2019-08-21T13:56:55Z</time>
      </trkpt>
      <trkpt lat="59.288091966882348" lon="8.214840022847056">
        <ele>1187.71484375</ele>
        <time>2019-08-21T13:56:56Z</time>
      </trkpt>
      <trkpt lat="59.288091966882348" lon="8.214840022847056">
        <ele>1187.71484375</ele>
        <time>2019-08-21T13:56:57Z</time>
      </trkpt>
      <trkpt lat="59.288091966882348" lon="8.214840022847056">
        <ele>1187.71484375</ele>
        <time>2019-08-21T13:56:58Z</time>
      </trkpt>
      <trkpt lat="59.288091966882348" lon="8.214840022847056">
        <ele>1187.71484375</ele>
        <time>2019-08-21T13:56:59Z</time>
      </trkpt>
      <trkpt lat="59.288091966882348" lon="8.214840022847056">
        <ele>1187.71484375</ele>
        <time>2019-08-21T13:57:00Z</time>
      </trkpt>
      <trkpt lat="59.288091966882348" lon="8.214840022847056">
        <ele>1187.71484375</ele>
        <time>2019-08-21T13:57:01Z</time>
      </trkpt>
      <trkpt lat="59.288091966882348" lon="8.214840022847056">
        <ele>1187.71484375</ele>
        <time>2019-08-21T13:57:02Z</time>
      </trkpt>
      <trkpt lat="59.288091966882348" lon="8.214840022847056">
        <ele>1187.71484375</ele>
        <time>2019-08-21T13:57:03Z</time>
      </trkpt>
      <trkpt lat="59.288091966882348" lon="8.214840022847056">
        <ele>1187.71484375</ele>
        <time>2019-08-21T13:57:04Z</time>
      </trkpt>
      <trkpt lat="59.288091966882348" lon="8.214840022847056">
        <ele>1187.71484375</ele>
        <time>2019-08-21T13:57:05Z</time>
      </trkpt>
      <trkpt lat="59.288091966882348" lon="8.214840022847056">
        <ele>1187.71484375</ele>
        <time>2019-08-21T13:57:06Z</time>
      </trkpt>
      <trkpt lat="59.288091966882348" lon="8.214840022847056">
        <ele>1187.71484375</ele>
        <time>2019-08-21T13:57:07Z</time>
      </trkpt>
      <trkpt lat="59.288091966882348" lon="8.214840022847056">
        <ele>1187.71484375</ele>
        <time>2019-08-21T13:57:08Z</time>
      </trkpt>
      <trkpt lat="59.288091966882348" lon="8.214840022847056">
        <ele>1187.71484375</ele>
        <time>2019-08-21T13:57:09Z</time>
      </trkpt>
      <trkpt lat="59.288091966882348" lon="8.214840022847056">
        <ele>1187.71484375</ele>
        <time>2019-08-21T13:57:10Z</time>
      </trkpt>
      <trkpt lat="59.288091966882348" lon="8.214840022847056">
        <ele>1187.71484375</ele>
        <time>2019-08-21T13:57:11Z</time>
      </trkpt>
      <trkpt lat="59.288091966882348" lon="8.214840022847056">
        <ele>1187.71484375</ele>
        <time>2019-08-21T13:57:12Z</time>
      </trkpt>
      <trkpt lat="59.288091966882348" lon="8.214840022847056">
        <ele>1187.71484375</ele>
        <time>2019-08-21T13:57:13Z</time>
      </trkpt>
      <trkpt lat="59.288091966882348" lon="8.214840022847056">
        <ele>1187.71484375</ele>
        <time>2019-08-21T13:57:14Z</time>
      </trkpt>
      <trkpt lat="59.288091966882348" lon="8.214841028675437">
        <ele>1187.71484375</ele>
        <time>2019-08-21T13:57:15Z</time>
      </trkpt>
      <trkpt lat="59.288091966882348" lon="8.214841028675437">
        <ele>1187.71484375</ele>
        <time>2019-08-21T13:57:16Z</time>
      </trkpt>
      <trkpt lat="59.288091966882348" lon="8.214841028675437">
        <ele>1187.71484375</ele>
        <time>2019-08-21T13:57:17Z</time>
      </trkpt>
      <trkpt lat="59.288091966882348" lon="8.214841028675437">
        <ele>1187.71484375</ele>
        <time>2019-08-21T13:57:18Z</time>
      </trkpt>
      <trkpt lat="59.288091966882348" lon="8.214841028675437">
        <ele>1187.71484375</ele>
        <time>2019-08-21T13:57:19Z</time>
      </trkpt>
      <trkpt lat="59.288091966882348" lon="8.214841028675437">
        <ele>1187.71484375</ele>
        <time>2019-08-21T13:57:20Z</time>
      </trkpt>
      <trkpt lat="59.288091966882348" lon="8.214841028675437">
        <ele>1187.71484375</ele>
        <time>2019-08-21T13:57:21Z</time>
      </trkpt>
      <trkpt lat="59.288091966882348" lon="8.214841028675437">
        <ele>1187.71484375</ele>
        <time>2019-08-21T13:57:22Z</time>
      </trkpt>
      <trkpt lat="59.288091966882348" lon="8.214841028675437">
        <ele>1187.71484375</ele>
        <time>2019-08-21T13:57:23Z</time>
      </trkpt>
      <trkpt lat="59.288091966882348" lon="8.214841028675437">
        <ele>1187.71484375</ele>
        <time>2019-08-21T13:57:24Z</time>
      </trkpt>
      <trkpt lat="59.288091966882348" lon="8.214841028675437">
        <ele>1187.71484375</ele>
        <time>2019-08-21T13:57:25Z</time>
      </trkpt>
      <trkpt lat="59.288091966882348" lon="8.214841028675437">
        <ele>1187.71484375</ele>
        <time>2019-08-21T13:57:26Z</time>
      </trkpt>
      <trkpt lat="59.288091966882348" lon="8.214841028675437">
        <ele>1187.71484375</ele>
        <time>2019-08-21T13:57:27Z</time>
      </trkpt>
      <trkpt lat="59.288091966882348" lon="8.214841028675437">
        <ele>1187.71484375</ele>
        <time>2019-08-21T13:57:28Z</time>
      </trkpt>
      <trkpt lat="59.288091966882348" lon="8.214841028675437">
        <ele>1187.71484375</ele>
        <time>2019-08-21T13:57:29Z</time>
      </trkpt>
      <trkpt lat="59.288091966882348" lon="8.214841028675437">
        <ele>1187.71484375</ele>
        <time>2019-08-21T13:57:30Z</time>
      </trkpt>
      <trkpt lat="59.288091966882348" lon="8.214841028675437">
        <ele>1187.71484375</ele>
        <time>2019-08-21T13:57:31Z</time>
      </trkpt>
      <trkpt lat="59.288091966882348" lon="8.214841028675437">
        <ele>1187.71484375</ele>
        <time>2019-08-21T13:57:32Z</time>
      </trkpt>
      <trkpt lat="59.288091966882348" lon="8.214841028675437">
        <ele>1187.71484375</ele>
        <time>2019-08-21T13:57:33Z</time>
      </trkpt>
      <trkpt lat="59.288091966882348" lon="8.214841028675437">
        <ele>1187.71484375</ele>
        <time>2019-08-21T13:57:34Z</time>
      </trkpt>
      <trkpt lat="59.288091966882348" lon="8.214841028675437">
        <ele>1187.71484375</ele>
        <time>2019-08-21T13:57:35Z</time>
      </trkpt>
      <trkpt lat="59.288091966882348" lon="8.214841028675437">
        <ele>1187.71484375</ele>
        <time>2019-08-21T13:57:36Z</time>
      </trkpt>
      <trkpt lat="59.288091966882348" lon="8.214841028675437">
        <ele>1187.71484375</ele>
        <time>2019-08-21T13:57:37Z</time>
      </trkpt>
      <trkpt lat="59.288091966882348" lon="8.214841028675437">
        <ele>1187.71484375</ele>
        <time>2019-08-21T13:57:38Z</time>
      </trkpt>
      <trkpt lat="59.288091966882348" lon="8.214841028675437">
        <ele>1187.71484375</ele>
        <time>2019-08-21T13:57:39Z</time>
      </trkpt>
      <trkpt lat="59.288091966882348" lon="8.214841028675437">
        <ele>1187.71484375</ele>
        <time>2019-08-21T13:57:40Z</time>
      </trkpt>
      <trkpt lat="59.288091966882348" lon="8.214841028675437">
        <ele>1187.71484375</ele>
        <time>2019-08-21T13:57:41Z</time>
      </trkpt>
      <trkpt lat="59.288091966882348" lon="8.214841028675437">
        <ele>1187.71484375</ele>
        <time>2019-08-21T13:57:42Z</time>
      </trkpt>
      <trkpt lat="59.288091966882348" lon="8.214841028675437">
        <ele>1187.71484375</ele>
        <time>2019-08-21T13:57:43Z</time>
      </trkpt>
      <trkpt lat="59.288091966882348" lon="8.214841028675437">
        <ele>1187.71484375</ele>
        <time>2019-08-21T13:57:44Z</time>
      </trkpt>
      <trkpt lat="59.288091966882348" lon="8.214841028675437">
        <ele>1187.71484375</ele>
        <time>2019-08-21T13:57:45Z</time>
      </trkpt>
      <trkpt lat="59.288091966882348" lon="8.214841028675437">
        <ele>1187.71484375</ele>
        <time>2019-08-21T13:57:46Z</time>
      </trkpt>
      <trkpt lat="59.288091966882348" lon="8.214841028675437">
        <ele>1187.71484375</ele>
        <time>2019-08-21T13:57:47Z</time>
      </trkpt>
      <trkpt lat="59.288091966882348" lon="8.214841028675437">
        <ele>1187.71484375</ele>
        <time>2019-08-21T13:57:48Z</time>
      </trkpt>
      <trkpt lat="59.288091966882348" lon="8.214841028675437">
        <ele>1187.71484375</ele>
        <time>2019-08-21T13:57:49Z</time>
      </trkpt>
      <trkpt lat="59.288091966882348" lon="8.214841028675437">
        <ele>1187.71484375</ele>
        <time>2019-08-21T13:57:50Z</time>
      </trkpt>
      <trkpt lat="59.288091966882348" lon="8.214841028675437">
        <ele>1187.71484375</ele>
        <time>2019-08-21T13:57:51Z</time>
      </trkpt>
      <trkpt lat="59.288091966882348" lon="8.214841028675437">
        <ele>1187.71484375</ele>
        <time>2019-08-21T13:57:52Z</time>
      </trkpt>
      <trkpt lat="59.288091966882348" lon="8.214841028675437">
        <ele>1187.71484375</ele>
        <time>2019-08-21T13:57:53Z</time>
      </trkpt>
      <trkpt lat="59.288091966882348" lon="8.214841028675437">
        <ele>1187.71484375</ele>
        <time>2019-08-21T13:57:54Z</time>
      </trkpt>
      <trkpt lat="59.288091966882348" lon="8.214841028675437">
        <ele>1187.71484375</ele>
        <time>2019-08-21T13:57:55Z</time>
      </trkpt>
      <trkpt lat="59.288091966882348" lon="8.214841028675437">
        <ele>1187.71484375</ele>
        <time>2019-08-21T13:57:56Z</time>
      </trkpt>
      <trkpt lat="59.288091966882348" lon="8.214841028675437">
        <ele>1187.71484375</ele>
        <time>2019-08-21T13:57:57Z</time>
      </trkpt>
      <trkpt lat="59.288091966882348" lon="8.214841028675437">
        <ele>1187.71484375</ele>
        <time>2019-08-21T13:57:58Z</time>
      </trkpt>
      <trkpt lat="59.288091966882348" lon="8.214841028675437">
        <ele>1187.71484375</ele>
        <time>2019-08-21T13:57:59Z</time>
      </trkpt>
      <trkpt lat="59.288091966882348" lon="8.214841028675437">
        <ele>1187.71484375</ele>
        <time>2019-08-21T13:58:00Z</time>
      </trkpt>
      <trkpt lat="59.288091966882348" lon="8.214841028675437">
        <ele>1187.71484375</ele>
        <time>2019-08-21T13:58:01Z</time>
      </trkpt>
      <trkpt lat="59.288091966882348" lon="8.214841028675437">
        <ele>1187.71484375</ele>
        <time>2019-08-21T13:58:02Z</time>
      </trkpt>
      <trkpt lat="59.288091966882348" lon="8.214841028675437">
        <ele>1187.71484375</ele>
        <time>2019-08-21T13:58:03Z</time>
      </trkpt>
      <trkpt lat="59.288091966882348" lon="8.214841028675437">
        <ele>1187.71484375</ele>
        <time>2019-08-21T13:58:04Z</time>
      </trkpt>
      <trkpt lat="59.288091966882348" lon="8.214841028675437">
        <ele>1187.71484375</ele>
        <time>2019-08-21T13:58:05Z</time>
      </trkpt>
      <trkpt lat="59.288091966882348" lon="8.214842034503818">
        <ele>1187.71484375</ele>
        <time>2019-08-21T13:58:06Z</time>
      </trkpt>
      <trkpt lat="59.288091966882348" lon="8.214842034503818">
        <ele>1187.71484375</ele>
        <time>2019-08-21T13:58:07Z</time>
      </trkpt>
      <trkpt lat="59.288091966882348" lon="8.214842034503818">
        <ele>1187.71484375</ele>
        <time>2019-08-21T13:58:08Z</time>
      </trkpt>
      <trkpt lat="59.288091966882348" lon="8.214842034503818">
        <ele>1187.71484375</ele>
        <time>2019-08-21T13:58:09Z</time>
      </trkpt>
      <trkpt lat="59.288091966882348" lon="8.214842034503818">
        <ele>1187.71484375</ele>
        <time>2019-08-21T13:58:10Z</time>
      </trkpt>
      <trkpt lat="59.288091966882348" lon="8.214842034503818">
        <ele>1187.71484375</ele>
        <time>2019-08-21T13:58:11Z</time>
      </trkpt>
      <trkpt lat="59.288091966882348" lon="8.214842034503818">
        <ele>1187.71484375</ele>
        <time>2019-08-21T13:58:12Z</time>
      </trkpt>
      <trkpt lat="59.288091966882348" lon="8.214842034503818">
        <ele>1187.71484375</ele>
        <time>2019-08-21T13:58:13Z</time>
      </trkpt>
      <trkpt lat="59.288091966882348" lon="8.214842034503818">
        <ele>1187.71484375</ele>
        <time>2019-08-21T13:58:14Z</time>
      </trkpt>
      <trkpt lat="59.288091966882348" lon="8.214842034503818">
        <ele>1187.71484375</ele>
        <time>2019-08-21T13:58:15Z</time>
      </trkpt>
      <trkpt lat="59.288091966882348" lon="8.214842034503818">
        <ele>1187.71484375</ele>
        <time>2019-08-21T13:58:16Z</time>
      </trkpt>
      <trkpt lat="59.288091966882348" lon="8.214842034503818">
        <ele>1187.71484375</ele>
        <time>2019-08-21T13:58:17Z</time>
      </trkpt>
      <trkpt lat="59.288091966882348" lon="8.214842034503818">
        <ele>1187.71484375</ele>
        <time>2019-08-21T13:58:18Z</time>
      </trkpt>
      <trkpt lat="59.288091966882348" lon="8.214842034503818">
        <ele>1187.71484375</ele>
        <time>2019-08-21T13:58:19Z</time>
      </trkpt>
      <trkpt lat="59.288091966882348" lon="8.214842034503818">
        <ele>1187.71484375</ele>
        <time>2019-08-21T13:58:20Z</time>
      </trkpt>
      <trkpt lat="59.288091966882348" lon="8.214842034503818">
        <ele>1187.71484375</ele>
        <time>2019-08-21T13:58:21Z</time>
      </trkpt>
      <trkpt lat="59.288091966882348" lon="8.214842034503818">
        <ele>1187.71484375</ele>
        <time>2019-08-21T13:58:22Z</time>
      </trkpt>
      <trkpt lat="59.288091966882348" lon="8.214842034503818">
        <ele>1187.71484375</ele>
        <time>2019-08-21T13:58:23Z</time>
      </trkpt>
      <trkpt lat="59.288091966882348" lon="8.214843040332198">
        <ele>1187.71484375</ele>
        <time>2019-08-21T13:58:24Z</time>
      </trkpt>
      <trkpt lat="59.288091966882348" lon="8.214843040332198">
        <ele>1187.71484375</ele>
        <time>2019-08-21T13:58:25Z</time>
      </trkpt>
      <trkpt lat="59.288090961053967" lon="8.214843040332198">
        <ele>1187.73828125</ele>
        <time>2019-08-21T13:58:26Z</time>
      </trkpt>
      <trkpt lat="59.288090961053967" lon="8.214843040332198">
        <ele>1187.73828125</ele>
        <time>2019-08-21T13:58:27Z</time>
      </trkpt>
      <trkpt lat="59.288090961053967" lon="8.214843040332198">
        <ele>1187.73828125</ele>
        <time>2019-08-21T13:58:28Z</time>
      </trkpt>
      <trkpt lat="59.288090961053967" lon="8.214843040332198">
        <ele>1187.73828125</ele>
        <time>2019-08-21T13:58:29Z</time>
      </trkpt>
      <trkpt lat="59.288090961053967" lon="8.214843040332198">
        <ele>1187.73828125</ele>
        <time>2019-08-21T13:58:30Z</time>
      </trkpt>
      <trkpt lat="59.288090961053967" lon="8.214843040332198">
        <ele>1187.73828125</ele>
        <time>2019-08-21T13:58:31Z</time>
      </trkpt>
      <trkpt lat="59.288090961053967" lon="8.214843040332198">
        <ele>1187.73828125</ele>
        <time>2019-08-21T13:58:32Z</time>
      </trkpt>
      <trkpt lat="59.288090961053967" lon="8.214843040332198">
        <ele>1187.73828125</ele>
        <time>2019-08-21T13:58:33Z</time>
      </trkpt>
      <trkpt lat="59.288090961053967" lon="8.214843040332198">
        <ele>1187.73828125</ele>
        <time>2019-08-21T13:58:34Z</time>
      </trkpt>
      <trkpt lat="59.288090961053967" lon="8.214843040332198">
        <ele>1187.73828125</ele>
        <time>2019-08-21T13:58:35Z</time>
      </trkpt>
      <trkpt lat="59.288090961053967" lon="8.214843040332198">
        <ele>1187.73828125</ele>
        <time>2019-08-21T13:58:36Z</time>
      </trkpt>
      <trkpt lat="59.288090961053967" lon="8.214843040332198">
        <ele>1187.73828125</ele>
        <time>2019-08-21T13:58:37Z</time>
      </trkpt>
      <trkpt lat="59.288090961053967" lon="8.214843040332198">
        <ele>1187.73828125</ele>
        <time>2019-08-21T13:58:38Z</time>
      </trkpt>
      <trkpt lat="59.288090961053967" lon="8.214843040332198">
        <ele>1187.73828125</ele>
        <time>2019-08-21T13:58:39Z</time>
      </trkpt>
      <trkpt lat="59.288090961053967" lon="8.214843040332198">
        <ele>1187.73828125</ele>
        <time>2019-08-21T13:58:40Z</time>
      </trkpt>
      <trkpt lat="59.288090961053967" lon="8.214843040332198">
        <ele>1187.73828125</ele>
        <time>2019-08-21T13:58:41Z</time>
      </trkpt>
      <trkpt lat="59.288090961053967" lon="8.214843040332198">
        <ele>1187.73828125</ele>
        <time>2019-08-21T13:58:42Z</time>
      </trkpt>
      <trkpt lat="59.288090961053967" lon="8.214843040332198">
        <ele>1187.73828125</ele>
        <time>2019-08-21T13:58:43Z</time>
      </trkpt>
      <trkpt lat="59.288090961053967" lon="8.214843040332198">
        <ele>1187.73828125</ele>
        <time>2019-08-21T13:58:44Z</time>
      </trkpt>
      <trkpt lat="59.288090961053967" lon="8.214843040332198">
        <ele>1187.73828125</ele>
        <time>2019-08-21T13:58:45Z</time>
      </trkpt>
      <trkpt lat="59.288090961053967" lon="8.214843040332198">
        <ele>1187.73828125</ele>
        <time>2019-08-21T13:58:46Z</time>
      </trkpt>
      <trkpt lat="59.288090961053967" lon="8.214843962341547">
        <ele>1187.73828125</ele>
        <time>2019-08-21T13:58:47Z</time>
      </trkpt>
      <trkpt lat="59.288090961053967" lon="8.214843962341547">
        <ele>1187.73828125</ele>
        <time>2019-08-21T13:58:48Z</time>
      </trkpt>
      <trkpt lat="59.288090961053967" lon="8.214843962341547">
        <ele>1187.73828125</ele>
        <time>2019-08-21T13:58:49Z</time>
      </trkpt>
      <trkpt lat="59.288090961053967" lon="8.214843962341547">
        <ele>1187.73828125</ele>
        <time>2019-08-21T13:58:50Z</time>
      </trkpt>
      <trkpt lat="59.288090961053967" lon="8.214843962341547">
        <ele>1187.73828125</ele>
        <time>2019-08-21T13:58:51Z</time>
      </trkpt>
      <trkpt lat="59.288090961053967" lon="8.214843962341547">
        <ele>1187.73828125</ele>
        <time>2019-08-21T13:58:52Z</time>
      </trkpt>
      <trkpt lat="59.288090961053967" lon="8.214843962341547">
        <ele>1187.73828125</ele>
        <time>2019-08-21T13:58:53Z</time>
      </trkpt>
      <trkpt lat="59.288090961053967" lon="8.214843962341547">
        <ele>1187.73828125</ele>
        <time>2019-08-21T13:58:54Z</time>
      </trkpt>
      <trkpt lat="59.288090961053967" lon="8.214843962341547">
        <ele>1187.73828125</ele>
        <time>2019-08-21T13:58:55Z</time>
      </trkpt>
      <trkpt lat="59.288090961053967" lon="8.214843962341547">
        <ele>1187.73828125</ele>
        <time>2019-08-21T13:58:56Z</time>
      </trkpt>
      <trkpt lat="59.288090961053967" lon="8.214843962341547">
        <ele>1187.73828125</ele>
        <time>2019-08-21T13:58:57Z</time>
      </trkpt>
      <trkpt lat="59.288090961053967" lon="8.214843962341547">
        <ele>1187.73828125</ele>
        <time>2019-08-21T13:58:58Z</time>
      </trkpt>
      <trkpt lat="59.288090961053967" lon="8.214843962341547">
        <ele>1187.73828125</ele>
        <time>2019-08-21T13:58:59Z</time>
      </trkpt>
      <trkpt lat="59.288090961053967" lon="8.214843962341547">
        <ele>1187.73828125</ele>
        <time>2019-08-21T13:59:00Z</time>
      </trkpt>
      <trkpt lat="59.288090961053967" lon="8.214843962341547">
        <ele>1187.73828125</ele>
        <time>2019-08-21T13:59:01Z</time>
      </trkpt>
      <trkpt lat="59.288090961053967" lon="8.214843962341547">
        <ele>1187.73828125</ele>
        <time>2019-08-21T13:59:02Z</time>
      </trkpt>
      <trkpt lat="59.288090961053967" lon="8.214843962341547">
        <ele>1187.73828125</ele>
        <time>2019-08-21T13:59:03Z</time>
      </trkpt>
      <trkpt lat="59.288090961053967" lon="8.214843962341547">
        <ele>1187.73828125</ele>
        <time>2019-08-21T13:59:04Z</time>
      </trkpt>
      <trkpt lat="59.288090961053967" lon="8.214843962341547">
        <ele>1187.73828125</ele>
        <time>2019-08-21T13:59:05Z</time>
      </trkpt>
      <trkpt lat="59.288090961053967" lon="8.214843962341547">
        <ele>1187.73828125</ele>
        <time>2019-08-21T13:59:06Z</time>
      </trkpt>
      <trkpt lat="59.288090961053967" lon="8.214843962341547">
        <ele>1187.73828125</ele>
        <time>2019-08-21T13:59:07Z</time>
      </trkpt>
      <trkpt lat="59.288090961053967" lon="8.214843962341547">
        <ele>1187.73828125</ele>
        <time>2019-08-21T13:59:08Z</time>
      </trkpt>
      <trkpt lat="59.288090961053967" lon="8.214843962341547">
        <ele>1187.73828125</ele>
        <time>2019-08-21T13:59:09Z</time>
      </trkpt>
      <trkpt lat="59.288090961053967" lon="8.214843962341547">
        <ele>1187.73828125</ele>
        <time>2019-08-21T13:59:10Z</time>
      </trkpt>
      <trkpt lat="59.288090961053967" lon="8.214843962341547">
        <ele>1187.73828125</ele>
        <time>2019-08-21T13:59:11Z</time>
      </trkpt>
      <trkpt lat="59.288090961053967" lon="8.214844968169928">
        <ele>1187.73828125</ele>
        <time>2019-08-21T13:59:12Z</time>
      </trkpt>
      <trkpt lat="59.288090039044619" lon="8.214844968169928">
        <ele>1187.76171875</ele>
        <time>2019-08-21T13:59:13Z</time>
      </trkpt>
      <trkpt lat="59.288090039044619" lon="8.214844968169928">
        <ele>1187.76171875</ele>
        <time>2019-08-21T13:59:14Z</time>
      </trkpt>
      <trkpt lat="59.288090961053967" lon="8.214843962341547">
        <ele>1187.73828125</ele>
        <time>2019-08-21T13:59:15Z</time>
      </trkpt>
      <trkpt lat="59.288090961053967" lon="8.214844968169928">
        <ele>1187.73828125</ele>
        <time>2019-08-21T13:59:16Z</time>
      </trkpt>
      <trkpt lat="59.288090039044619" lon="8.214844968169928">
        <ele>1187.76171875</ele>
        <time>2019-08-21T13:59:17Z</time>
      </trkpt>
      <trkpt lat="59.288090039044619" lon="8.214844968169928">
        <ele>1187.76171875</ele>
        <time>2019-08-21T13:59:18Z</time>
      </trkpt>
      <trkpt lat="59.288090039044619" lon="8.214844968169928">
        <ele>1187.76171875</ele>
        <time>2019-08-21T13:59:19Z</time>
      </trkpt>
      <trkpt lat="59.288090039044619" lon="8.214844968169928">
        <ele>1187.76171875</ele>
        <time>2019-08-21T13:59:20Z</time>
      </trkpt>
      <trkpt lat="59.288090039044619" lon="8.214844968169928">
        <ele>1187.76171875</ele>
        <time>2019-08-21T13:59:21Z</time>
      </trkpt>
      <trkpt lat="59.288090039044619" lon="8.214844968169928">
        <ele>1187.76171875</ele>
        <time>2019-08-21T13:59:22Z</time>
      </trkpt>
      <trkpt lat="59.288090039044619" lon="8.214844968169928">
        <ele>1187.76171875</ele>
        <time>2019-08-21T13:59:23Z</time>
      </trkpt>
      <trkpt lat="59.288090039044619" lon="8.214844968169928">
        <ele>1187.76171875</ele>
        <time>2019-08-21T13:59:24Z</time>
      </trkpt>
      <trkpt lat="59.288090039044619" lon="8.214844968169928">
        <ele>1187.76171875</ele>
        <time>2019-08-21T13:59:25Z</time>
      </trkpt>
      <trkpt lat="59.288090039044619" lon="8.214844968169928">
        <ele>1187.76171875</ele>
        <time>2019-08-21T13:59:26Z</time>
      </trkpt>
      <trkpt lat="59.288090039044619" lon="8.214844968169928">
        <ele>1187.76171875</ele>
        <time>2019-08-21T13:59:27Z</time>
      </trkpt>
      <trkpt lat="59.288090039044619" lon="8.214844968169928">
        <ele>1187.76171875</ele>
        <time>2019-08-21T13:59:28Z</time>
      </trkpt>
      <trkpt lat="59.288090039044619" lon="8.214844968169928">
        <ele>1187.76171875</ele>
        <time>2019-08-21T13:59:29Z</time>
      </trkpt>
      <trkpt lat="59.288090039044619" lon="8.214844968169928">
        <ele>1187.76171875</ele>
        <time>2019-08-21T13:59:30Z</time>
      </trkpt>
      <trkpt lat="59.288090039044619" lon="8.214844968169928">
        <ele>1187.76171875</ele>
        <time>2019-08-21T13:59:31Z</time>
      </trkpt>
      <trkpt lat="59.288090039044619" lon="8.214844968169928">
        <ele>1187.76171875</ele>
        <time>2019-08-21T13:59:32Z</time>
      </trkpt>
      <trkpt lat="59.288090039044619" lon="8.214844968169928">
        <ele>1187.76171875</ele>
        <time>2019-08-21T13:59:33Z</time>
      </trkpt>
      <trkpt lat="59.288090039044619" lon="8.214844968169928">
        <ele>1187.76171875</ele>
        <time>2019-08-21T13:59:34Z</time>
      </trkpt>
      <trkpt lat="59.288090039044619" lon="8.214844968169928">
        <ele>1187.76171875</ele>
        <time>2019-08-21T13:59:35Z</time>
      </trkpt>
      <trkpt lat="59.288090039044619" lon="8.214844968169928">
        <ele>1187.76171875</ele>
        <time>2019-08-21T13:59:36Z</time>
      </trkpt>
      <trkpt lat="59.288090039044619" lon="8.214844968169928">
        <ele>1187.76171875</ele>
        <time>2019-08-21T13:59:37Z</time>
      </trkpt>
      <trkpt lat="59.288090039044619" lon="8.214844968169928">
        <ele>1187.76171875</ele>
        <time>2019-08-21T13:59:38Z</time>
      </trkpt>
      <trkpt lat="59.288090039044619" lon="8.214844968169928">
        <ele>1187.76171875</ele>
        <time>2019-08-21T13:59:39Z</time>
      </trkpt>
      <trkpt lat="59.288090039044619" lon="8.214844968169928">
        <ele>1187.76171875</ele>
        <time>2019-08-21T13:59:40Z</time>
      </trkpt>
      <trkpt lat="59.288090039044619" lon="8.214844968169928">
        <ele>1187.76171875</ele>
        <time>2019-08-21T13:59:41Z</time>
      </trkpt>
      <trkpt lat="59.288090039044619" lon="8.214844968169928">
        <ele>1187.76171875</ele>
        <time>2019-08-21T13:59:42Z</time>
      </trkpt>
      <trkpt lat="59.288090039044619" lon="8.214844968169928">
        <ele>1187.76171875</ele>
        <time>2019-08-21T13:59:43Z</time>
      </trkpt>
      <trkpt lat="59.288090039044619" lon="8.214844968169928">
        <ele>1187.76171875</ele>
        <time>2019-08-21T13:59:44Z</time>
      </trkpt>
      <trkpt lat="59.288090039044619" lon="8.214844968169928">
        <ele>1187.76171875</ele>
        <time>2019-08-21T13:59:45Z</time>
      </trkpt>
      <trkpt lat="59.288090039044619" lon="8.214844968169928">
        <ele>1187.76171875</ele>
        <time>2019-08-21T13:59:46Z</time>
      </trkpt>
      <trkpt lat="59.288090039044619" lon="8.214844968169928">
        <ele>1187.76171875</ele>
        <time>2019-08-21T13:59:47Z</time>
      </trkpt>
      <trkpt lat="59.288090039044619" lon="8.214844968169928">
        <ele>1187.76171875</ele>
        <time>2019-08-21T13:59:48Z</time>
      </trkpt>
      <trkpt lat="59.288090039044619" lon="8.214844968169928">
        <ele>1187.76171875</ele>
        <time>2019-08-21T13:59:49Z</time>
      </trkpt>
      <trkpt lat="59.288090039044619" lon="8.214844968169928">
        <ele>1187.76171875</ele>
        <time>2019-08-21T13:59:50Z</time>
      </trkpt>
      <trkpt lat="59.288090039044619" lon="8.214844968169928">
        <ele>1187.76171875</ele>
        <time>2019-08-21T13:59:51Z</time>
      </trkpt>
      <trkpt lat="59.288090039044619" lon="8.214844968169928">
        <ele>1187.76171875</ele>
        <time>2019-08-21T13:59:52Z</time>
      </trkpt>
      <trkpt lat="59.288090039044619" lon="8.214844968169928">
        <ele>1187.76171875</ele>
        <time>2019-08-21T13:59:53Z</time>
      </trkpt>
      <trkpt lat="59.288090039044619" lon="8.214845973998308">
        <ele>1187.76171875</ele>
        <time>2019-08-21T13:59:54Z</time>
      </trkpt>
      <trkpt lat="59.288090039044619" lon="8.214845973998308">
        <ele>1187.76171875</ele>
        <time>2019-08-21T13:59:55Z</time>
      </trkpt>
      <trkpt lat="59.288090039044619" lon="8.214845973998308">
        <ele>1187.76171875</ele>
        <time>2019-08-21T13:59:56Z</time>
      </trkpt>
      <trkpt lat="59.288090039044619" lon="8.214845973998308">
        <ele>1187.76171875</ele>
        <time>2019-08-21T13:59:57Z</time>
      </trkpt>
      <trkpt lat="59.288090039044619" lon="8.214845973998308">
        <ele>1187.76171875</ele>
        <time>2019-08-21T13:59:58Z</time>
      </trkpt>
      <trkpt lat="59.288090039044619" lon="8.214845973998308">
        <ele>1187.76171875</ele>
        <time>2019-08-21T13:59:59Z</time>
      </trkpt>
      <trkpt lat="59.288090039044619" lon="8.214845973998308">
        <ele>1187.76171875</ele>
        <time>2019-08-21T14:00:00Z</time>
      </trkpt>
      <trkpt lat="59.288090039044619" lon="8.214845973998308">
        <ele>1187.76171875</ele>
        <time>2019-08-21T14:00:01Z</time>
      </trkpt>
      <trkpt lat="59.288090039044619" lon="8.214845973998308">
        <ele>1187.76171875</ele>
        <time>2019-08-21T14:00:02Z</time>
      </trkpt>
      <trkpt lat="59.288090039044619" lon="8.214845973998308">
        <ele>1187.76171875</ele>
        <time>2019-08-21T14:00:03Z</time>
      </trkpt>
      <trkpt lat="59.288090039044619" lon="8.214845973998308">
        <ele>1187.76171875</ele>
        <time>2019-08-21T14:00:04Z</time>
      </trkpt>
      <trkpt lat="59.288090039044619" lon="8.214845973998308">
        <ele>1187.76171875</ele>
        <time>2019-08-21T14:00:05Z</time>
      </trkpt>
      <trkpt lat="59.288090039044619" lon="8.214845973998308">
        <ele>1187.76171875</ele>
        <time>2019-08-21T14:00:06Z</time>
      </trkpt>
      <trkpt lat="59.288090039044619" lon="8.214845973998308">
        <ele>1187.76171875</ele>
        <time>2019-08-21T14:00:07Z</time>
      </trkpt>
      <trkpt lat="59.288090039044619" lon="8.214845973998308">
        <ele>1187.76171875</ele>
        <time>2019-08-21T14:00:08Z</time>
      </trkpt>
      <trkpt lat="59.288090039044619" lon="8.214845973998308">
        <ele>1187.76171875</ele>
        <time>2019-08-21T14:00:09Z</time>
      </trkpt>
      <trkpt lat="59.288090039044619" lon="8.214845973998308">
        <ele>1187.76171875</ele>
        <time>2019-08-21T14:00:10Z</time>
      </trkpt>
      <trkpt lat="59.288090039044619" lon="8.214845973998308">
        <ele>1187.76171875</ele>
        <time>2019-08-21T14:00:11Z</time>
      </trkpt>
      <trkpt lat="59.288090039044619" lon="8.214845973998308">
        <ele>1187.76171875</ele>
        <time>2019-08-21T14:00:12Z</time>
      </trkpt>
      <trkpt lat="59.288090039044619" lon="8.214845973998308">
        <ele>1187.76171875</ele>
        <time>2019-08-21T14:00:13Z</time>
      </trkpt>
      <trkpt lat="59.288090039044619" lon="8.214845973998308">
        <ele>1187.76171875</ele>
        <time>2019-08-21T14:00:14Z</time>
      </trkpt>
      <trkpt lat="59.288090039044619" lon="8.214845973998308">
        <ele>1187.76171875</ele>
        <time>2019-08-21T14:00:15Z</time>
      </trkpt>
      <trkpt lat="59.288090039044619" lon="8.214845973998308">
        <ele>1187.76171875</ele>
        <time>2019-08-21T14:00:16Z</time>
      </trkpt>
      <trkpt lat="59.288090039044619" lon="8.214845973998308">
        <ele>1187.76171875</ele>
        <time>2019-08-21T14:00:17Z</time>
      </trkpt>
      <trkpt lat="59.288090039044619" lon="8.214845973998308">
        <ele>1187.76171875</ele>
        <time>2019-08-21T14:00:18Z</time>
      </trkpt>
      <trkpt lat="59.288089033216238" lon="8.214845973998308">
        <ele>1187.78515625</ele>
        <time>2019-08-21T14:00:19Z</time>
      </trkpt>
      <trkpt lat="59.288089033216238" lon="8.214845973998308">
        <ele>1187.78515625</ele>
        <time>2019-08-21T14:00:20Z</time>
      </trkpt>
      <trkpt lat="59.288089033216238" lon="8.214845973998308">
        <ele>1187.78515625</ele>
        <time>2019-08-21T14:00:21Z</time>
      </trkpt>
      <trkpt lat="59.288089033216238" lon="8.214845973998308">
        <ele>1187.78515625</ele>
        <time>2019-08-21T14:00:22Z</time>
      </trkpt>
      <trkpt lat="59.288089033216238" lon="8.214845973998308">
        <ele>1187.78515625</ele>
        <time>2019-08-21T14:00:23Z</time>
      </trkpt>
      <trkpt lat="59.288089033216238" lon="8.214845973998308">
        <ele>1187.78515625</ele>
        <time>2019-08-21T14:00:24Z</time>
      </trkpt>
      <trkpt lat="59.288089033216238" lon="8.214845973998308">
        <ele>1187.78515625</ele>
        <time>2019-08-21T14:00:25Z</time>
      </trkpt>
      <trkpt lat="59.288089033216238" lon="8.214845973998308">
        <ele>1187.78515625</ele>
        <time>2019-08-21T14:00:26Z</time>
      </trkpt>
      <trkpt lat="59.288089033216238" lon="8.214845973998308">
        <ele>1187.78515625</ele>
        <time>2019-08-21T14:00:27Z</time>
      </trkpt>
      <trkpt lat="59.288089033216238" lon="8.214845973998308">
        <ele>1187.78515625</ele>
        <time>2019-08-21T14:00:28Z</time>
      </trkpt>
      <trkpt lat="59.288089033216238" lon="8.214845973998308">
        <ele>1187.78515625</ele>
        <time>2019-08-21T14:00:29Z</time>
      </trkpt>
      <trkpt lat="59.288089033216238" lon="8.214845973998308">
        <ele>1187.78515625</ele>
        <time>2019-08-21T14:00:30Z</time>
      </trkpt>
      <trkpt lat="59.288089033216238" lon="8.214845973998308">
        <ele>1187.78515625</ele>
        <time>2019-08-21T14:00:31Z</time>
      </trkpt>
      <trkpt lat="59.288089033216238" lon="8.214845973998308">
        <ele>1187.78515625</ele>
        <time>2019-08-21T14:00:32Z</time>
      </trkpt>
      <trkpt lat="59.288089033216238" lon="8.214845973998308">
        <ele>1187.78515625</ele>
        <time>2019-08-21T14:00:33Z</time>
      </trkpt>
      <trkpt lat="59.288089033216238" lon="8.214845973998308">
        <ele>1187.78515625</ele>
        <time>2019-08-21T14:00:34Z</time>
      </trkpt>
      <trkpt lat="59.288089033216238" lon="8.214845973998308">
        <ele>1187.78515625</ele>
        <time>2019-08-21T14:00:35Z</time>
      </trkpt>
      <trkpt lat="59.288089033216238" lon="8.214845973998308">
        <ele>1187.78515625</ele>
        <time>2019-08-21T14:00:36Z</time>
      </trkpt>
      <trkpt lat="59.288088027387857" lon="8.214844968169928">
        <ele>1187.80859375</ele>
        <time>2019-08-21T14:00:37Z</time>
      </trkpt>
      <trkpt lat="59.288087021559477" lon="8.214845973998308">
        <ele>1187.83203125</ele>
        <time>2019-08-21T14:00:38Z</time>
      </trkpt>
      <trkpt lat="59.288086015731096" lon="8.214845973998308">
        <ele>1187.85546875</ele>
        <time>2019-08-21T14:00:39Z</time>
      </trkpt>
      <trkpt lat="59.288085009902716" lon="8.214846979826689">
        <ele>1187.87890625</ele>
        <time>2019-08-21T14:00:40Z</time>
      </trkpt>
      <trkpt lat="59.288084004074335" lon="8.214846979826689">
        <ele>1187.8984375</ele>
        <time>2019-08-21T14:00:41Z</time>
      </trkpt>
      <trkpt lat="59.288084004074335" lon="8.214846979826689">
        <ele>1187.8984375</ele>
        <time>2019-08-21T14:00:42Z</time>
      </trkpt>
      <trkpt lat="59.288082998245955" lon="8.214847985655069">
        <ele>1187.92578125</ele>
        <time>2019-08-21T14:00:43Z</time>
      </trkpt>
      <trkpt lat="59.288082998245955" lon="8.214847985655069">
        <ele>1187.92578125</ele>
        <time>2019-08-21T14:00:44Z</time>
      </trkpt>
      <trkpt lat="59.288082998245955" lon="8.214847985655069">
        <ele>1187.92578125</ele>
        <time>2019-08-21T14:00:45Z</time>
      </trkpt>
      <trkpt lat="59.288082998245955" lon="8.214847985655069">
        <ele>1187.92578125</ele>
        <time>2019-08-21T14:00:46Z</time>
      </trkpt>
      <trkpt lat="59.288082998245955" lon="8.214847985655069">
        <ele>1187.92578125</ele>
        <time>2019-08-21T14:00:47Z</time>
      </trkpt>
      <trkpt lat="59.288082998245955" lon="8.214847985655069">
        <ele>1187.92578125</ele>
        <time>2019-08-21T14:00:48Z</time>
      </trkpt>
      <trkpt lat="59.288082998245955" lon="8.214846979826689">
        <ele>1187.921875</ele>
        <time>2019-08-21T14:00:49Z</time>
      </trkpt>
      <trkpt lat="59.288082998245955" lon="8.214846979826689">
        <ele>1187.921875</ele>
        <time>2019-08-21T14:00:50Z</time>
      </trkpt>
      <trkpt lat="59.288082998245955" lon="8.214847985655069">
        <ele>1187.92578125</ele>
        <time>2019-08-21T14:00:51Z</time>
      </trkpt>
      <trkpt lat="59.288082998245955" lon="8.214846979826689">
        <ele>1187.921875</ele>
        <time>2019-08-21T14:00:52Z</time>
      </trkpt>
      <trkpt lat="59.288082998245955" lon="8.214846979826689">
        <ele>1187.921875</ele>
        <time>2019-08-21T14:00:53Z</time>
      </trkpt>
      <trkpt lat="59.288082998245955" lon="8.214846979826689">
        <ele>1187.921875</ele>
        <time>2019-08-21T14:00:54Z</time>
      </trkpt>
      <trkpt lat="59.288082998245955" lon="8.214846979826689">
        <ele>1187.921875</ele>
        <time>2019-08-21T14:00:55Z</time>
      </trkpt>
      <trkpt lat="59.288082998245955" lon="8.21484899148345">
        <ele>1187.92578125</ele>
        <time>2019-08-21T14:00:56Z</time>
      </trkpt>
      <trkpt lat="59.288082998245955" lon="8.21484899148345">
        <ele>1187.92578125</ele>
        <time>2019-08-21T14:00:57Z</time>
      </trkpt>
      <trkpt lat="59.288082998245955" lon="8.21484899148345">
        <ele>1187.92578125</ele>
        <time>2019-08-21T14:00:58Z</time>
      </trkpt>
      <trkpt lat="59.288081992417574" lon="8.21484899148345">
        <ele>1187.94921875</ele>
        <time>2019-08-21T14:00:59Z</time>
      </trkpt>
      <trkpt lat="59.288081992417574" lon="8.21484899148345">
        <ele>1187.94921875</ele>
        <time>2019-08-21T14:01:00Z</time>
      </trkpt>
      <trkpt lat="59.288081992417574" lon="8.21484899148345">
        <ele>1187.94921875</ele>
        <time>2019-08-21T14:01:01Z</time>
      </trkpt>
      <trkpt lat="59.288081992417574" lon="8.21484899148345">
        <ele>1187.94921875</ele>
        <time>2019-08-21T14:01:02Z</time>
      </trkpt>
      <trkpt lat="59.288081992417574" lon="8.21484899148345">
        <ele>1187.94921875</ele>
        <time>2019-08-21T14:01:03Z</time>
      </trkpt>
      <trkpt lat="59.288081992417574" lon="8.21484899148345">
        <ele>1187.94921875</ele>
        <time>2019-08-21T14:01:04Z</time>
      </trkpt>
      <trkpt lat="59.288081992417574" lon="8.214849997311831">
        <ele>1187.94921875</ele>
        <time>2019-08-21T14:01:05Z</time>
      </trkpt>
      <trkpt lat="59.288081992417574" lon="8.214849997311831">
        <ele>1187.94921875</ele>
        <time>2019-08-21T14:01:06Z</time>
      </trkpt>
      <trkpt lat="59.288081992417574" lon="8.214849997311831">
        <ele>1187.94921875</ele>
        <time>2019-08-21T14:01:07Z</time>
      </trkpt>
      <trkpt lat="59.288081992417574" lon="8.214849997311831">
        <ele>1187.94921875</ele>
        <time>2019-08-21T14:01:08Z</time>
      </trkpt>
      <trkpt lat="59.288081992417574" lon="8.214849997311831">
        <ele>1187.94921875</ele>
        <time>2019-08-21T14:01:09Z</time>
      </trkpt>
      <trkpt lat="59.288081992417574" lon="8.214849997311831">
        <ele>1187.94921875</ele>
        <time>2019-08-21T14:01:10Z</time>
      </trkpt>
      <trkpt lat="59.288081992417574" lon="8.214849997311831">
        <ele>1187.94921875</ele>
        <time>2019-08-21T14:01:11Z</time>
      </trkpt>
      <trkpt lat="59.288081992417574" lon="8.214849997311831">
        <ele>1187.94921875</ele>
        <time>2019-08-21T14:01:12Z</time>
      </trkpt>
      <trkpt lat="59.288081992417574" lon="8.214849997311831">
        <ele>1187.94921875</ele>
        <time>2019-08-21T14:01:13Z</time>
      </trkpt>
      <trkpt lat="59.288081992417574" lon="8.214849997311831">
        <ele>1187.94921875</ele>
        <time>2019-08-21T14:01:14Z</time>
      </trkpt>
      <trkpt lat="59.288081992417574" lon="8.214849997311831">
        <ele>1187.94921875</ele>
        <time>2019-08-21T14:01:15Z</time>
      </trkpt>
      <trkpt lat="59.288079980760813" lon="8.214852008968592">
        <ele>1187.99609375</ele>
        <time>2019-08-21T14:01:16Z</time>
      </trkpt>
      <trkpt lat="59.288078974932432" lon="8.214855026453733">
        <ele>1188.01953125</ele>
        <time>2019-08-21T14:01:17Z</time>
      </trkpt>
      <trkpt lat="59.288077969104052" lon="8.214857960119844">
        <ele>1188.04296875</ele>
        <time>2019-08-21T14:01:18Z</time>
      </trkpt>
      <trkpt lat="59.288076963275671" lon="8.214859971776605">
        <ele>1188.0703125</ele>
        <time>2019-08-21T14:01:19Z</time>
      </trkpt>
      <trkpt lat="59.288076963275671" lon="8.214859971776605">
        <ele>1188.0703125</ele>
        <time>2019-08-21T14:01:20Z</time>
      </trkpt>
      <trkpt lat="59.288076963275671" lon="8.214859971776605">
        <ele>1188.0703125</ele>
        <time>2019-08-21T14:01:21Z</time>
      </trkpt>
      <trkpt lat="59.288076963275671" lon="8.214859971776605">
        <ele>1188.0703125</ele>
        <time>2019-08-21T14:01:22Z</time>
      </trkpt>
      <trkpt lat="59.288076963275671" lon="8.214859971776605">
        <ele>1188.0703125</ele>
        <time>2019-08-21T14:01:23Z</time>
      </trkpt>
      <trkpt lat="59.288076963275671" lon="8.214859971776605">
        <ele>1188.0703125</ele>
        <time>2019-08-21T14:01:24Z</time>
      </trkpt>
      <trkpt lat="59.288076963275671" lon="8.214859971776605">
        <ele>1188.0703125</ele>
        <time>2019-08-21T14:01:25Z</time>
      </trkpt>
      <trkpt lat="59.288076963275671" lon="8.214859971776605">
        <ele>1188.0703125</ele>
        <time>2019-08-21T14:01:26Z</time>
      </trkpt>
      <trkpt lat="59.288076963275671" lon="8.214859971776605">
        <ele>1188.0703125</ele>
        <time>2019-08-21T14:01:27Z</time>
      </trkpt>
      <trkpt lat="59.288076963275671" lon="8.214859971776605">
        <ele>1188.0703125</ele>
        <time>2019-08-21T14:01:28Z</time>
      </trkpt>
      <trkpt lat="59.288076963275671" lon="8.214859971776605">
        <ele>1188.0703125</ele>
        <time>2019-08-21T14:01:29Z</time>
      </trkpt>
      <trkpt lat="59.288076963275671" lon="8.214859971776605">
        <ele>1188.0703125</ele>
        <time>2019-08-21T14:01:30Z</time>
      </trkpt>
      <trkpt lat="59.288076963275671" lon="8.214859971776605">
        <ele>1188.0703125</ele>
        <time>2019-08-21T14:01:31Z</time>
      </trkpt>
      <trkpt lat="59.288076963275671" lon="8.214859971776605">
        <ele>1188.0703125</ele>
        <time>2019-08-21T14:01:32Z</time>
      </trkpt>
      <trkpt lat="59.288076963275671" lon="8.214860977604985">
        <ele>1188.0703125</ele>
        <time>2019-08-21T14:01:33Z</time>
      </trkpt>
      <trkpt lat="59.288076963275671" lon="8.214860977604985">
        <ele>1188.0703125</ele>
        <time>2019-08-21T14:01:34Z</time>
      </trkpt>
      <trkpt lat="59.288076963275671" lon="8.214860977604985">
        <ele>1188.0703125</ele>
        <time>2019-08-21T14:01:35Z</time>
      </trkpt>
      <trkpt lat="59.288076963275671" lon="8.214860977604985">
        <ele>1188.0703125</ele>
        <time>2019-08-21T14:01:36Z</time>
      </trkpt>
      <trkpt lat="59.288076963275671" lon="8.214860977604985">
        <ele>1188.0703125</ele>
        <time>2019-08-21T14:01:37Z</time>
      </trkpt>
      <trkpt lat="59.288076963275671" lon="8.214860977604985">
        <ele>1188.0703125</ele>
        <time>2019-08-21T14:01:38Z</time>
      </trkpt>
      <trkpt lat="59.288076963275671" lon="8.214860977604985">
        <ele>1188.0703125</ele>
        <time>2019-08-21T14:01:39Z</time>
      </trkpt>
      <trkpt lat="59.288076963275671" lon="8.214860977604985">
        <ele>1188.0703125</ele>
        <time>2019-08-21T14:01:40Z</time>
      </trkpt>
      <trkpt lat="59.288076963275671" lon="8.214860977604985">
        <ele>1188.0703125</ele>
        <time>2019-08-21T14:01:41Z</time>
      </trkpt>
      <trkpt lat="59.288076963275671" lon="8.214860977604985">
        <ele>1188.0703125</ele>
        <time>2019-08-21T14:01:42Z</time>
      </trkpt>
      <trkpt lat="59.288076963275671" lon="8.214860977604985">
        <ele>1188.0703125</ele>
        <time>2019-08-21T14:01:43Z</time>
      </trkpt>
      <trkpt lat="59.288076963275671" lon="8.214860977604985">
        <ele>1188.0703125</ele>
        <time>2019-08-21T14:01:44Z</time>
      </trkpt>
      <trkpt lat="59.288076963275671" lon="8.214860977604985">
        <ele>1188.0703125</ele>
        <time>2019-08-21T14:01:45Z</time>
      </trkpt>
      <trkpt lat="59.288076963275671" lon="8.214860977604985">
        <ele>1188.0703125</ele>
        <time>2019-08-21T14:01:46Z</time>
      </trkpt>
      <trkpt lat="59.288076963275671" lon="8.214859971776605">
        <ele>1188.0703125</ele>
        <time>2019-08-21T14:01:47Z</time>
      </trkpt>
      <trkpt lat="59.288076963275671" lon="8.214859971776605">
        <ele>1188.0703125</ele>
        <time>2019-08-21T14:01:48Z</time>
      </trkpt>
      <trkpt lat="59.288076963275671" lon="8.214859971776605">
        <ele>1188.0703125</ele>
        <time>2019-08-21T14:01:49Z</time>
      </trkpt>
      <trkpt lat="59.288076963275671" lon="8.214859971776605">
        <ele>1188.0703125</ele>
        <time>2019-08-21T14:01:50Z</time>
      </trkpt>
      <trkpt lat="59.288076963275671" lon="8.214859971776605">
        <ele>1188.0703125</ele>
        <time>2019-08-21T14:01:51Z</time>
      </trkpt>
      <trkpt lat="59.288076963275671" lon="8.214859971776605">
        <ele>1188.0703125</ele>
        <time>2019-08-21T14:01:52Z</time>
      </trkpt>
      <trkpt lat="59.288076963275671" lon="8.214859971776605">
        <ele>1188.0703125</ele>
        <time>2019-08-21T14:01:53Z</time>
      </trkpt>
      <trkpt lat="59.288076963275671" lon="8.214859971776605">
        <ele>1188.0703125</ele>
        <time>2019-08-21T14:01:54Z</time>
      </trkpt>
      <trkpt lat="59.288076963275671" lon="8.214859971776605">
        <ele>1188.0703125</ele>
        <time>2019-08-21T14:01:55Z</time>
      </trkpt>
      <trkpt lat="59.288076963275671" lon="8.214859971776605">
        <ele>1188.0703125</ele>
        <time>2019-08-21T14:01:56Z</time>
      </trkpt>
      <trkpt lat="59.288076041266322" lon="8.214859971776605">
        <ele>1188.08984375</ele>
        <time>2019-08-21T14:01:57Z</time>
      </trkpt>
      <trkpt lat="59.288076041266322" lon="8.214858965948224">
        <ele>1188.08984375</ele>
        <time>2019-08-21T14:01:58Z</time>
      </trkpt>
      <trkpt lat="59.288076041266322" lon="8.214858965948224">
        <ele>1188.08984375</ele>
        <time>2019-08-21T14:01:59Z</time>
      </trkpt>
      <trkpt lat="59.288076041266322" lon="8.214858965948224">
        <ele>1188.08984375</ele>
        <time>2019-08-21T14:02:00Z</time>
      </trkpt>
      <trkpt lat="59.288076041266322" lon="8.214858965948224">
        <ele>1188.08984375</ele>
        <time>2019-08-21T14:02:01Z</time>
      </trkpt>
      <trkpt lat="59.288076963275671" lon="8.214860977604985">
        <ele>1188.0703125</ele>
        <time>2019-08-21T14:02:02Z</time>
      </trkpt>
      <trkpt lat="59.288078974932432" lon="8.214859971776605">
        <ele>1188.0234375</ele>
        <time>2019-08-21T14:02:03Z</time>
      </trkpt>
      <trkpt lat="59.288078974932432" lon="8.214860977604985">
        <ele>1188.0234375</ele>
        <time>2019-08-21T14:02:04Z</time>
      </trkpt>
      <trkpt lat="59.288077969104052" lon="8.214860977604985">
        <ele>1188.046875</ele>
        <time>2019-08-21T14:02:05Z</time>
      </trkpt>
      <trkpt lat="59.288077969104052" lon="8.214861983433366">
        <ele>1188.046875</ele>
        <time>2019-08-21T14:02:06Z</time>
      </trkpt>
      <trkpt lat="59.288076963275671" lon="8.214863995090127">
        <ele>1188.0703125</ele>
        <time>2019-08-21T14:02:07Z</time>
      </trkpt>
      <trkpt lat="59.288076041266322" lon="8.214862989261746">
        <ele>1188.09375</ele>
        <time>2019-08-21T14:02:08Z</time>
      </trkpt>
      <trkpt lat="59.288076963275671" lon="8.214861983433366">
        <ele>1188.0703125</ele>
        <time>2019-08-21T14:02:09Z</time>
      </trkpt>
      <trkpt lat="59.288076041266322" lon="8.214862989261746">
        <ele>1188.09375</ele>
        <time>2019-08-21T14:02:10Z</time>
      </trkpt>
      <trkpt lat="59.288076041266322" lon="8.214862989261746">
        <ele>1188.09375</ele>
        <time>2019-08-21T14:02:11Z</time>
      </trkpt>
      <trkpt lat="59.288076041266322" lon="8.214862989261746">
        <ele>1188.09375</ele>
        <time>2019-08-21T14:02:12Z</time>
      </trkpt>
      <trkpt lat="59.288076041266322" lon="8.214862989261746">
        <ele>1188.09375</ele>
        <time>2019-08-21T14:02:13Z</time>
      </trkpt>
      <trkpt lat="59.288076041266322" lon="8.214862989261746">
        <ele>1188.09375</ele>
        <time>2019-08-21T14:02:14Z</time>
      </trkpt>
      <trkpt lat="59.288076041266322" lon="8.214862989261746">
        <ele>1188.09375</ele>
        <time>2019-08-21T14:02:15Z</time>
      </trkpt>
      <trkpt lat="59.288076041266322" lon="8.214862989261746">
        <ele>1188.09375</ele>
        <time>2019-08-21T14:02:16Z</time>
      </trkpt>
      <trkpt lat="59.288076041266322" lon="8.214862989261746">
        <ele>1188.09375</ele>
        <time>2019-08-21T14:02:17Z</time>
      </trkpt>
      <trkpt lat="59.288076041266322" lon="8.214862989261746">
        <ele>1188.09375</ele>
        <time>2019-08-21T14:02:18Z</time>
      </trkpt>
      <trkpt lat="59.288076041266322" lon="8.214862989261746">
        <ele>1188.09375</ele>
        <time>2019-08-21T14:02:19Z</time>
      </trkpt>
      <trkpt lat="59.288076041266322" lon="8.214862989261746">
        <ele>1188.09375</ele>
        <time>2019-08-21T14:02:20Z</time>
      </trkpt>
      <trkpt lat="59.288076041266322" lon="8.214862989261746">
        <ele>1188.09375</ele>
        <time>2019-08-21T14:02:21Z</time>
      </trkpt>
      <trkpt lat="59.288076041266322" lon="8.214862989261746">
        <ele>1188.09375</ele>
        <time>2019-08-21T14:02:22Z</time>
      </trkpt>
      <trkpt lat="59.288076041266322" lon="8.214862989261746">
        <ele>1188.09375</ele>
        <time>2019-08-21T14:02:23Z</time>
      </trkpt>
      <trkpt lat="59.288076041266322" lon="8.214862989261746">
        <ele>1188.09375</ele>
        <time>2019-08-21T14:02:24Z</time>
      </trkpt>
      <trkpt lat="59.288076041266322" lon="8.214862989261746">
        <ele>1188.09375</ele>
        <time>2019-08-21T14:02:25Z</time>
      </trkpt>
      <trkpt lat="59.288076041266322" lon="8.214862989261746">
        <ele>1188.09375</ele>
        <time>2019-08-21T14:02:26Z</time>
      </trkpt>
      <trkpt lat="59.288076041266322" lon="8.214862989261746">
        <ele>1188.09375</ele>
        <time>2019-08-21T14:02:27Z</time>
      </trkpt>
      <trkpt lat="59.288076041266322" lon="8.214862989261746">
        <ele>1188.09375</ele>
        <time>2019-08-21T14:02:28Z</time>
      </trkpt>
      <trkpt lat="59.288076041266322" lon="8.214862989261746">
        <ele>1188.09375</ele>
        <time>2019-08-21T14:02:29Z</time>
      </trkpt>
      <trkpt lat="59.288076041266322" lon="8.214862989261746">
        <ele>1188.09375</ele>
        <time>2019-08-21T14:02:30Z</time>
      </trkpt>
      <trkpt lat="59.288076041266322" lon="8.214862989261746">
        <ele>1188.09375</ele>
        <time>2019-08-21T14:02:31Z</time>
      </trkpt>
      <trkpt lat="59.288076041266322" lon="8.214862989261746">
        <ele>1188.09375</ele>
        <time>2019-08-21T14:02:32Z</time>
      </trkpt>
      <trkpt lat="59.288076041266322" lon="8.214862989261746">
        <ele>1188.09375</ele>
        <time>2019-08-21T14:02:33Z</time>
      </trkpt>
      <trkpt lat="59.288076041266322" lon="8.214862989261746">
        <ele>1188.09375</ele>
        <time>2019-08-21T14:02:34Z</time>
      </trkpt>
      <trkpt lat="59.288076041266322" lon="8.214862989261746">
        <ele>1188.09375</ele>
        <time>2019-08-21T14:02:35Z</time>
      </trkpt>
      <trkpt lat="59.288076041266322" lon="8.214862989261746">
        <ele>1188.09375</ele>
        <time>2019-08-21T14:02:36Z</time>
      </trkpt>
      <trkpt lat="59.288076041266322" lon="8.214862989261746">
        <ele>1188.09375</ele>
        <time>2019-08-21T14:02:37Z</time>
      </trkpt>
      <trkpt lat="59.288076041266322" lon="8.214862989261746">
        <ele>1188.09375</ele>
        <time>2019-08-21T14:02:38Z</time>
      </trkpt>
      <trkpt lat="59.288076041266322" lon="8.214862989261746">
        <ele>1188.09375</ele>
        <time>2019-08-21T14:02:39Z</time>
      </trkpt>
      <trkpt lat="59.288076041266322" lon="8.214862989261746">
        <ele>1188.09375</ele>
        <time>2019-08-21T14:02:40Z</time>
      </trkpt>
      <trkpt lat="59.288076041266322" lon="8.214862989261746">
        <ele>1188.09375</ele>
        <time>2019-08-21T14:02:41Z</time>
      </trkpt>
      <trkpt lat="59.288076041266322" lon="8.214862989261746">
        <ele>1188.09375</ele>
        <time>2019-08-21T14:02:42Z</time>
      </trkpt>
      <trkpt lat="59.288076041266322" lon="8.214862989261746">
        <ele>1188.09375</ele>
        <time>2019-08-21T14:02:43Z</time>
      </trkpt>
      <trkpt lat="59.288076041266322" lon="8.214862989261746">
        <ele>1188.09375</ele>
        <time>2019-08-21T14:02:44Z</time>
      </trkpt>
      <trkpt lat="59.288076041266322" lon="8.214862989261746">
        <ele>1188.09375</ele>
        <time>2019-08-21T14:02:45Z</time>
      </trkpt>
      <trkpt lat="59.288076041266322" lon="8.214862989261746">
        <ele>1188.09375</ele>
        <time>2019-08-21T14:02:46Z</time>
      </trkpt>
      <trkpt lat="59.288076041266322" lon="8.214862989261746">
        <ele>1188.09375</ele>
        <time>2019-08-21T14:02:47Z</time>
      </trkpt>
      <trkpt lat="59.288076041266322" lon="8.214862989261746">
        <ele>1188.09375</ele>
        <time>2019-08-21T14:02:48Z</time>
      </trkpt>
      <trkpt lat="59.288076041266322" lon="8.214862989261746">
        <ele>1188.09375</ele>
        <time>2019-08-21T14:02:49Z</time>
      </trkpt>
      <trkpt lat="59.288076041266322" lon="8.214863995090127">
        <ele>1188.09375</ele>
        <time>2019-08-21T14:02:50Z</time>
      </trkpt>
      <trkpt lat="59.288076041266322" lon="8.214863995090127">
        <ele>1188.09375</ele>
        <time>2019-08-21T14:02:51Z</time>
      </trkpt>
      <trkpt lat="59.288076041266322" lon="8.214863995090127">
        <ele>1188.09375</ele>
        <time>2019-08-21T14:02:52Z</time>
      </trkpt>
      <trkpt lat="59.288076041266322" lon="8.214863995090127">
        <ele>1188.09375</ele>
        <time>2019-08-21T14:02:53Z</time>
      </trkpt>
      <trkpt lat="59.288075035437942" lon="8.214863995090127">
        <ele>1188.1171875</ele>
        <time>2019-08-21T14:02:54Z</time>
      </trkpt>
      <trkpt lat="59.288075035437942" lon="8.214863995090127">
        <ele>1188.1171875</ele>
        <time>2019-08-21T14:02:55Z</time>
      </trkpt>
      <trkpt lat="59.288075035437942" lon="8.214863995090127">
        <ele>1188.1171875</ele>
        <time>2019-08-21T14:02:56Z</time>
      </trkpt>
      <trkpt lat="59.288075035437942" lon="8.214862989261746">
        <ele>1188.1171875</ele>
        <time>2019-08-21T14:02:57Z</time>
      </trkpt>
      <trkpt lat="59.288075035437942" lon="8.214862989261746">
        <ele>1188.1171875</ele>
        <time>2019-08-21T14:02:58Z</time>
      </trkpt>
      <trkpt lat="59.288075035437942" lon="8.214863995090127">
        <ele>1188.1171875</ele>
        <time>2019-08-21T14:02:59Z</time>
      </trkpt>
      <trkpt lat="59.288075035437942" lon="8.214863995090127">
        <ele>1188.1171875</ele>
        <time>2019-08-21T14:03:00Z</time>
      </trkpt>
      <trkpt lat="59.288075035437942" lon="8.214863995090127">
        <ele>1188.1171875</ele>
        <time>2019-08-21T14:03:01Z</time>
      </trkpt>
      <trkpt lat="59.288075035437942" lon="8.214863995090127">
        <ele>1188.1171875</ele>
        <time>2019-08-21T14:03:02Z</time>
      </trkpt>
      <trkpt lat="59.288075035437942" lon="8.214863995090127">
        <ele>1188.1171875</ele>
        <time>2019-08-21T14:03:03Z</time>
      </trkpt>
      <trkpt lat="59.288075035437942" lon="8.214863995090127">
        <ele>1188.1171875</ele>
        <time>2019-08-21T14:03:04Z</time>
      </trkpt>
      <trkpt lat="59.288075035437942" lon="8.214863995090127">
        <ele>1188.1171875</ele>
        <time>2019-08-21T14:03:05Z</time>
      </trkpt>
      <trkpt lat="59.288075035437942" lon="8.214863995090127">
        <ele>1188.1171875</ele>
        <time>2019-08-21T14:03:06Z</time>
      </trkpt>
      <trkpt lat="59.288075035437942" lon="8.214863995090127">
        <ele>1188.1171875</ele>
        <time>2019-08-21T14:03:07Z</time>
      </trkpt>
      <trkpt lat="59.288075035437942" lon="8.214863995090127">
        <ele>1188.1171875</ele>
        <time>2019-08-21T14:03:08Z</time>
      </trkpt>
      <trkpt lat="59.288075035437942" lon="8.214863995090127">
        <ele>1188.1171875</ele>
        <time>2019-08-21T14:03:09Z</time>
      </trkpt>
      <trkpt lat="59.288075035437942" lon="8.214863995090127">
        <ele>1188.1171875</ele>
        <time>2019-08-21T14:03:10Z</time>
      </trkpt>
      <trkpt lat="59.288075035437942" lon="8.214863995090127">
        <ele>1188.1171875</ele>
        <time>2019-08-21T14:03:11Z</time>
      </trkpt>
      <trkpt lat="59.288075035437942" lon="8.214863995090127">
        <ele>1188.1171875</ele>
        <time>2019-08-21T14:03:12Z</time>
      </trkpt>
      <trkpt lat="59.288075035437942" lon="8.214863995090127">
        <ele>1188.1171875</ele>
        <time>2019-08-21T14:03:13Z</time>
      </trkpt>
      <trkpt lat="59.288075035437942" lon="8.214863995090127">
        <ele>1188.1171875</ele>
        <time>2019-08-21T14:03:14Z</time>
      </trkpt>
      <trkpt lat="59.288075035437942" lon="8.214863995090127">
        <ele>1188.1171875</ele>
        <time>2019-08-21T14:03:15Z</time>
      </trkpt>
      <trkpt lat="59.288075035437942" lon="8.214863995090127">
        <ele>1188.1171875</ele>
        <time>2019-08-21T14:03:16Z</time>
      </trkpt>
      <trkpt lat="59.288075035437942" lon="8.214863995090127">
        <ele>1188.1171875</ele>
        <time>2019-08-21T14:03:17Z</time>
      </trkpt>
      <trkpt lat="59.288075035437942" lon="8.214863995090127">
        <ele>1188.1171875</ele>
        <time>2019-08-21T14:03:18Z</time>
      </trkpt>
      <trkpt lat="59.288075035437942" lon="8.214863995090127">
        <ele>1188.1171875</ele>
        <time>2019-08-21T14:03:19Z</time>
      </trkpt>
      <trkpt lat="59.288075035437942" lon="8.214863995090127">
        <ele>1188.1171875</ele>
        <time>2019-08-21T14:03:20Z</time>
      </trkpt>
      <trkpt lat="59.288075035437942" lon="8.214863995090127">
        <ele>1188.1171875</ele>
        <time>2019-08-21T14:03:21Z</time>
      </trkpt>
      <trkpt lat="59.288075035437942" lon="8.214863995090127">
        <ele>1188.1171875</ele>
        <time>2019-08-21T14:03:22Z</time>
      </trkpt>
      <trkpt lat="59.288075035437942" lon="8.214863995090127">
        <ele>1188.1171875</ele>
        <time>2019-08-21T14:03:23Z</time>
      </trkpt>
      <trkpt lat="59.288075035437942" lon="8.214863995090127">
        <ele>1188.1171875</ele>
        <time>2019-08-21T14:03:24Z</time>
      </trkpt>
      <trkpt lat="59.288075035437942" lon="8.214863995090127">
        <ele>1188.1171875</ele>
        <time>2019-08-21T14:03:25Z</time>
      </trkpt>
      <trkpt lat="59.288075035437942" lon="8.214863995090127">
        <ele>1188.1171875</ele>
        <time>2019-08-21T14:03:26Z</time>
      </trkpt>
      <trkpt lat="59.288075035437942" lon="8.214863995090127">
        <ele>1188.1171875</ele>
        <time>2019-08-21T14:03:27Z</time>
      </trkpt>
      <trkpt lat="59.288075035437942" lon="8.214863995090127">
        <ele>1188.1171875</ele>
        <time>2019-08-21T14:03:28Z</time>
      </trkpt>
      <trkpt lat="59.288075035437942" lon="8.214863995090127">
        <ele>1188.1171875</ele>
        <time>2019-08-21T14:03:29Z</time>
      </trkpt>
      <trkpt lat="59.288075035437942" lon="8.214863995090127">
        <ele>1188.1171875</ele>
        <time>2019-08-21T14:03:30Z</time>
      </trkpt>
      <trkpt lat="59.288075035437942" lon="8.214863995090127">
        <ele>1188.1171875</ele>
        <time>2019-08-21T14:03:31Z</time>
      </trkpt>
      <trkpt lat="59.288075035437942" lon="8.214863995090127">
        <ele>1188.1171875</ele>
        <time>2019-08-21T14:03:32Z</time>
      </trkpt>
      <trkpt lat="59.288075035437942" lon="8.214863995090127">
        <ele>1188.1171875</ele>
        <time>2019-08-21T14:03:33Z</time>
      </trkpt>
      <trkpt lat="59.288075035437942" lon="8.214863995090127">
        <ele>1188.1171875</ele>
        <time>2019-08-21T14:03:34Z</time>
      </trkpt>
      <trkpt lat="59.288075035437942" lon="8.214863995090127">
        <ele>1188.1171875</ele>
        <time>2019-08-21T14:03:35Z</time>
      </trkpt>
      <trkpt lat="59.288075035437942" lon="8.214863995090127">
        <ele>1188.1171875</ele>
        <time>2019-08-21T14:03:36Z</time>
      </trkpt>
      <trkpt lat="59.288075035437942" lon="8.214863995090127">
        <ele>1188.1171875</ele>
        <time>2019-08-21T14:03:37Z</time>
      </trkpt>
      <trkpt lat="59.288075035437942" lon="8.214863995090127">
        <ele>1188.1171875</ele>
        <time>2019-08-21T14:03:38Z</time>
      </trkpt>
      <trkpt lat="59.288075035437942" lon="8.214863995090127">
        <ele>1188.1171875</ele>
        <time>2019-08-21T14:03:39Z</time>
      </trkpt>
      <trkpt lat="59.288075035437942" lon="8.214863995090127">
        <ele>1188.1171875</ele>
        <time>2019-08-21T14:03:40Z</time>
      </trkpt>
      <trkpt lat="59.288075035437942" lon="8.214863995090127">
        <ele>1188.1171875</ele>
        <time>2019-08-21T14:03:41Z</time>
      </trkpt>
      <trkpt lat="59.288075035437942" lon="8.214863995090127">
        <ele>1188.1171875</ele>
        <time>2019-08-21T14:03:42Z</time>
      </trkpt>
      <trkpt lat="59.288075035437942" lon="8.214863995090127">
        <ele>1188.1171875</ele>
        <time>2019-08-21T14:03:43Z</time>
      </trkpt>
      <trkpt lat="59.288075035437942" lon="8.214863995090127">
        <ele>1188.1171875</ele>
        <time>2019-08-21T14:03:44Z</time>
      </trkpt>
      <trkpt lat="59.288075035437942" lon="8.214863995090127">
        <ele>1188.1171875</ele>
        <time>2019-08-21T14:03:45Z</time>
      </trkpt>
      <trkpt lat="59.288075035437942" lon="8.214863995090127">
        <ele>1188.1171875</ele>
        <time>2019-08-21T14:03:46Z</time>
      </trkpt>
      <trkpt lat="59.288075035437942" lon="8.214863995090127">
        <ele>1188.1171875</ele>
        <time>2019-08-21T14:03:47Z</time>
      </trkpt>
      <trkpt lat="59.288075035437942" lon="8.214863995090127">
        <ele>1188.1171875</ele>
        <time>2019-08-21T14:03:48Z</time>
      </trkpt>
      <trkpt lat="59.288075035437942" lon="8.214863995090127">
        <ele>1188.1171875</ele>
        <time>2019-08-21T14:03:49Z</time>
      </trkpt>
      <trkpt lat="59.288075035437942" lon="8.214863995090127">
        <ele>1188.1171875</ele>
        <time>2019-08-21T14:03:50Z</time>
      </trkpt>
      <trkpt lat="59.288075035437942" lon="8.214863995090127">
        <ele>1188.1171875</ele>
        <time>2019-08-21T14:03:51Z</time>
      </trkpt>
      <trkpt lat="59.288075035437942" lon="8.214863995090127">
        <ele>1188.1171875</ele>
        <time>2019-08-21T14:03:52Z</time>
      </trkpt>
      <trkpt lat="59.288075035437942" lon="8.214863995090127">
        <ele>1188.1171875</ele>
        <time>2019-08-21T14:03:53Z</time>
      </trkpt>
      <trkpt lat="59.288075035437942" lon="8.214863995090127">
        <ele>1188.1171875</ele>
        <time>2019-08-21T14:03:54Z</time>
      </trkpt>
      <trkpt lat="59.288075035437942" lon="8.214863995090127">
        <ele>1188.1171875</ele>
        <time>2019-08-21T14:03:55Z</time>
      </trkpt>
      <trkpt lat="59.288075035437942" lon="8.214863995090127">
        <ele>1188.1171875</ele>
        <time>2019-08-21T14:03:56Z</time>
      </trkpt>
      <trkpt lat="59.288075035437942" lon="8.214863995090127">
        <ele>1188.1171875</ele>
        <time>2019-08-21T14:03:57Z</time>
      </trkpt>
      <trkpt lat="59.288075035437942" lon="8.214863995090127">
        <ele>1188.1171875</ele>
        <time>2019-08-21T14:03:58Z</time>
      </trkpt>
      <trkpt lat="59.288075035437942" lon="8.214863995090127">
        <ele>1188.1171875</ele>
        <time>2019-08-21T14:03:59Z</time>
      </trkpt>
      <trkpt lat="59.288075035437942" lon="8.214863995090127">
        <ele>1188.1171875</ele>
        <time>2019-08-21T14:04:00Z</time>
      </trkpt>
      <trkpt lat="59.288075035437942" lon="8.214863995090127">
        <ele>1188.1171875</ele>
        <time>2019-08-21T14:04:01Z</time>
      </trkpt>
      <trkpt lat="59.288075035437942" lon="8.214863995090127">
        <ele>1188.1171875</ele>
        <time>2019-08-21T14:04:02Z</time>
      </trkpt>
      <trkpt lat="59.288075035437942" lon="8.214863995090127">
        <ele>1188.1171875</ele>
        <time>2019-08-21T14:04:03Z</time>
      </trkpt>
      <trkpt lat="59.288075035437942" lon="8.214863995090127">
        <ele>1188.1171875</ele>
        <time>2019-08-21T14:04:04Z</time>
      </trkpt>
      <trkpt lat="59.288076041266322" lon="8.214859971776605">
        <ele>1188.08984375</ele>
        <time>2019-08-21T14:04:05Z</time>
      </trkpt>
      <trkpt lat="59.288075035437942" lon="8.214857038110495">
        <ele>1188.11328125</ele>
        <time>2019-08-21T14:04:06Z</time>
      </trkpt>
      <trkpt lat="59.288075035437942" lon="8.214855026453733">
        <ele>1188.109375</ele>
        <time>2019-08-21T14:04:07Z</time>
      </trkpt>
      <trkpt lat="59.288076963275671" lon="8.214856032282114">
        <ele>1188.06640625</ele>
        <time>2019-08-21T14:04:08Z</time>
      </trkpt>
      <trkpt lat="59.288076963275671" lon="8.214856032282114">
        <ele>1188.06640625</ele>
        <time>2019-08-21T14:04:09Z</time>
      </trkpt>
      <trkpt lat="59.288074029609561" lon="8.214856032282114">
        <ele>1188.1328125</ele>
        <time>2019-08-21T14:04:10Z</time>
      </trkpt>
      <trkpt lat="59.288075035437942" lon="8.214855026453733">
        <ele>1188.109375</ele>
        <time>2019-08-21T14:04:11Z</time>
      </trkpt>
      <trkpt lat="59.288075035437942" lon="8.214854020625353">
        <ele>1188.109375</ele>
        <time>2019-08-21T14:04:12Z</time>
      </trkpt>
      <trkpt lat="59.288076041266322" lon="8.214854020625353">
        <ele>1188.0859375</ele>
        <time>2019-08-21T14:04:13Z</time>
      </trkpt>
      <trkpt lat="59.288075035437942" lon="8.214854020625353">
        <ele>1188.109375</ele>
        <time>2019-08-21T14:04:14Z</time>
      </trkpt>
      <trkpt lat="59.288075035437942" lon="8.214851003140211">
        <ele>1188.109375</ele>
        <time>2019-08-21T14:04:15Z</time>
      </trkpt>
      <trkpt lat="59.288071012124419" lon="8.214859971776605">
        <ele>1188.20703125</ele>
        <time>2019-08-21T14:04:16Z</time>
      </trkpt>
      <trkpt lat="59.288069000467658" lon="8.214863995090127">
        <ele>1188.2578125</ele>
        <time>2019-08-21T14:04:17Z</time>
      </trkpt>
      <trkpt lat="59.288069000467658" lon="8.214863995090127">
        <ele>1188.2578125</ele>
        <time>2019-08-21T14:04:18Z</time>
      </trkpt>
      <trkpt lat="59.288069000467658" lon="8.214863995090127">
        <ele>1188.2578125</ele>
        <time>2019-08-21T14:04:19Z</time>
      </trkpt>
      <trkpt lat="59.288067994639277" lon="8.214862989261746">
        <ele>1188.27734375</ele>
        <time>2019-08-21T14:04:20Z</time>
      </trkpt>
      <trkpt lat="59.288067994639277" lon="8.214861983433366">
        <ele>1188.27734375</ele>
        <time>2019-08-21T14:04:21Z</time>
      </trkpt>
      <trkpt lat="59.288066988810897" lon="8.214860977604985">
        <ele>1188.30078125</ele>
        <time>2019-08-21T14:04:22Z</time>
      </trkpt>
      <trkpt lat="59.288066988810897" lon="8.214858965948224">
        <ele>1188.30078125</ele>
        <time>2019-08-21T14:04:23Z</time>
      </trkpt>
      <trkpt lat="59.288065982982516" lon="8.214857038110495">
        <ele>1188.3203125</ele>
        <time>2019-08-21T14:04:24Z</time>
      </trkpt>
      <trkpt lat="59.288066988810897" lon="8.214855026453733">
        <ele>1188.296875</ele>
        <time>2019-08-21T14:04:25Z</time>
      </trkpt>
      <trkpt lat="59.288066988810897" lon="8.214851003140211">
        <ele>1188.29296875</ele>
        <time>2019-08-21T14:04:26Z</time>
      </trkpt>
      <trkpt lat="59.288067994639277" lon="8.21484899148345">
        <ele>1188.26953125</ele>
        <time>2019-08-21T14:04:27Z</time>
      </trkpt>
      <trkpt lat="59.288067994639277" lon="8.214846979826689">
        <ele>1188.265625</ele>
        <time>2019-08-21T14:04:28Z</time>
      </trkpt>
      <trkpt lat="59.288067994639277" lon="8.214843962341547">
        <ele>1188.265625</ele>
        <time>2019-08-21T14:04:29Z</time>
      </trkpt>
      <trkpt lat="59.288067994639277" lon="8.214841028675437">
        <ele>1188.26171875</ele>
        <time>2019-08-21T14:04:30Z</time>
      </trkpt>
      <trkpt lat="59.288066988810897" lon="8.214837005361915">
        <ele>1188.28515625</ele>
        <time>2019-08-21T14:04:31Z</time>
      </trkpt>
      <trkpt lat="59.288065982982516" lon="8.214833987876773">
        <ele>1188.3046875</ele>
        <time>2019-08-21T14:04:32Z</time>
      </trkpt>
      <trkpt lat="59.288065982982516" lon="8.214831976220012">
        <ele>1188.30078125</ele>
        <time>2019-08-21T14:04:33Z</time>
      </trkpt>
      <trkpt lat="59.288065982982516" lon="8.214829964563251">
        <ele>1188.30078125</ele>
        <time>2019-08-21T14:04:34Z</time>
      </trkpt>
      <trkpt lat="59.288064977154136" lon="8.21482895873487">
        <ele>1188.32421875</ele>
        <time>2019-08-21T14:04:35Z</time>
      </trkpt>
      <trkpt lat="59.288064977154136" lon="8.214828036725521">
        <ele>1188.3203125</ele>
        <time>2019-08-21T14:04:36Z</time>
      </trkpt>
      <trkpt lat="59.288065982982516" lon="8.214828036725521">
        <ele>1188.30078125</ele>
        <time>2019-08-21T14:04:37Z</time>
      </trkpt>
      <trkpt lat="59.288064977154136" lon="8.214827030897141">
        <ele>1188.3203125</ele>
        <time>2019-08-21T14:04:38Z</time>
      </trkpt>
      <trkpt lat="59.288065982982516" lon="8.21482602506876">
        <ele>1188.296875</ele>
        <time>2019-08-21T14:04:39Z</time>
      </trkpt>
      <trkpt lat="59.288064977154136" lon="8.214825019240379">
        <ele>1188.3203125</ele>
        <time>2019-08-21T14:04:40Z</time>
      </trkpt>
      <trkpt lat="59.288064977154136" lon="8.214824013411999">
        <ele>1188.3203125</ele>
        <time>2019-08-21T14:04:41Z</time>
      </trkpt>
      <trkpt lat="59.288065982982516" lon="8.214820995926857">
        <ele>1188.29296875</ele>
        <time>2019-08-21T14:04:42Z</time>
      </trkpt>
      <trkpt lat="59.288066988810897" lon="8.214815966784954">
        <ele>1188.26953125</ele>
        <time>2019-08-21T14:04:43Z</time>
      </trkpt>
      <trkpt lat="59.288067994639277" lon="8.214812027290463">
        <ele>1188.2421875</ele>
        <time>2019-08-21T14:04:44Z</time>
      </trkpt>
      <trkpt lat="59.288066988810897" lon="8.214808003976941">
        <ele>1188.26171875</ele>
        <time>2019-08-21T14:04:45Z</time>
      </trkpt>
      <trkpt lat="59.288066988810897" lon="8.214804986491799">
        <ele>1188.26171875</ele>
        <time>2019-08-21T14:04:46Z</time>
      </trkpt>
      <trkpt lat="59.288065982982516" lon="8.214802974835038">
        <ele>1188.28125</ele>
        <time>2019-08-21T14:04:47Z</time>
      </trkpt>
      <trkpt lat="59.288063971325755" lon="8.214800041168928">
        <ele>1188.32421875</ele>
        <time>2019-08-21T14:04:48Z</time>
      </trkpt>
      <trkpt lat="59.288062965497375" lon="8.214799035340548">
        <ele>1188.34375</ele>
        <time>2019-08-21T14:04:49Z</time>
      </trkpt>
      <trkpt lat="59.288062965497375" lon="8.214797023683786">
        <ele>1188.34375</ele>
        <time>2019-08-21T14:04:50Z</time>
      </trkpt>
      <trkpt lat="59.288061959668994" lon="8.214793000370264">
        <ele>1188.36328125</ele>
        <time>2019-08-21T14:04:51Z</time>
      </trkpt>
      <trkpt lat="59.288060031831264" lon="8.214788977056742">
        <ele>1188.40234375</ele>
        <time>2019-08-21T14:04:52Z</time>
      </trkpt>
      <trkpt lat="59.288061959668994" lon="8.214788977056742">
        <ele>1188.359375</ele>
        <time>2019-08-21T14:04:53Z</time>
      </trkpt>
      <trkpt lat="59.288061037659645" lon="8.214787971228361">
        <ele>1188.37890625</ele>
        <time>2019-08-21T14:04:54Z</time>
      </trkpt>
      <trkpt lat="59.288064977154136" lon="8.214787971228361">
        <ele>1188.29296875</ele>
        <time>2019-08-21T14:04:55Z</time>
      </trkpt>
      <trkpt lat="59.288067994639277" lon="8.214791994541884">
        <ele>1188.23046875</ele>
        <time>2019-08-21T14:04:56Z</time>
      </trkpt>
      <trkpt lat="59.2880720179528" lon="8.214793000370264">
        <ele>1188.140625</ele>
        <time>2019-08-21T14:04:57Z</time>
      </trkpt>
      <trkpt lat="59.28807302378118" lon="8.214791994541884">
        <ele>1188.1171875</ele>
        <time>2019-08-21T14:04:58Z</time>
      </trkpt>
      <trkpt lat="59.288074029609561" lon="8.214790988713503">
        <ele>1188.09375</ele>
        <time>2019-08-21T14:04:59Z</time>
      </trkpt>
      <trkpt lat="59.288075035437942" lon="8.214788977056742">
        <ele>1188.0703125</ele>
        <time>2019-08-21T14:05:00Z</time>
      </trkpt>
      <trkpt lat="59.288076041266322" lon="8.214786965399981">
        <ele>1188.046875</ele>
        <time>2019-08-21T14:05:01Z</time>
      </trkpt>
      <trkpt lat="59.288076041266322" lon="8.214786965399981">
        <ele>1188.046875</ele>
        <time>2019-08-21T14:05:02Z</time>
      </trkpt>
      <trkpt lat="59.288076963275671" lon="8.2147859595716">
        <ele>1188.02734375</ele>
        <time>2019-08-21T14:05:03Z</time>
      </trkpt>
      <trkpt lat="59.288077969104052" lon="8.214784031733871">
        <ele>1188.00390625</ele>
        <time>2019-08-21T14:05:04Z</time>
      </trkpt>
      <trkpt lat="59.288077969104052" lon="8.214780008420348">
        <ele>1188.00390625</ele>
        <time>2019-08-21T14:05:05Z</time>
      </trkpt>
      <trkpt lat="59.288077969104052" lon="8.214774979278445">
        <ele>1188</ele>
        <time>2019-08-21T14:05:06Z</time>
      </trkpt>
      <trkpt lat="59.288077969104052" lon="8.214770033955574">
        <ele>1187.99609375</ele>
        <time>2019-08-21T14:05:07Z</time>
      </trkpt>
      <trkpt lat="59.288078974932432" lon="8.214766010642052">
        <ele>1187.97265625</ele>
        <time>2019-08-21T14:05:08Z</time>
      </trkpt>
      <trkpt lat="59.288078974932432" lon="8.21476299315691">
        <ele>1187.97265625</ele>
        <time>2019-08-21T14:05:09Z</time>
      </trkpt>
      <trkpt lat="59.288078974932432" lon="8.214761987328529">
        <ele>1187.97265625</ele>
        <time>2019-08-21T14:05:10Z</time>
      </trkpt>
      <trkpt lat="59.288078974932432" lon="8.214759975671768">
        <ele>1187.96875</ele>
        <time>2019-08-21T14:05:11Z</time>
      </trkpt>
      <trkpt lat="59.288080986589193" lon="8.214757964015007">
        <ele>1187.92578125</ele>
        <time>2019-08-21T14:05:12Z</time>
      </trkpt>
      <trkpt lat="59.288081992417574" lon="8.214756036177278">
        <ele>1187.90234375</ele>
        <time>2019-08-21T14:05:13Z</time>
      </trkpt>
      <trkpt lat="59.288084004074335" lon="8.214753018692136">
        <ele>1187.859375</ele>
        <time>2019-08-21T14:05:14Z</time>
      </trkpt>
      <trkpt lat="59.288085009902716" lon="8.214750001206994">
        <ele>1187.8359375</ele>
        <time>2019-08-21T14:05:15Z</time>
      </trkpt>
      <trkpt lat="59.288086015731096" lon="8.214747989550233">
        <ele>1187.8125</ele>
        <time>2019-08-21T14:05:16Z</time>
      </trkpt>
      <trkpt lat="59.288087021559477" lon="8.214747989550233">
        <ele>1187.79296875</ele>
        <time>2019-08-21T14:05:17Z</time>
      </trkpt>
      <trkpt lat="59.288087021559477" lon="8.214745977893472">
        <ele>1187.7890625</ele>
        <time>2019-08-21T14:05:18Z</time>
      </trkpt>
      <trkpt lat="59.288087021559477" lon="8.214744972065091">
        <ele>1187.7890625</ele>
        <time>2019-08-21T14:05:19Z</time>
      </trkpt>
      <trkpt lat="59.288087021559477" lon="8.214743966236711">
        <ele>1187.7890625</ele>
        <time>2019-08-21T14:05:20Z</time>
      </trkpt>
      <trkpt lat="59.288087021559477" lon="8.214743966236711">
        <ele>1187.7890625</ele>
        <time>2019-08-21T14:05:21Z</time>
      </trkpt>
      <trkpt lat="59.288087021559477" lon="8.214744972065091">
        <ele>1187.7890625</ele>
        <time>2019-08-21T14:05:22Z</time>
      </trkpt>
      <trkpt lat="59.288086015731096" lon="8.214745977893472">
        <ele>1187.8125</ele>
        <time>2019-08-21T14:05:23Z</time>
      </trkpt>
      <trkpt lat="59.288086015731096" lon="8.214747989550233">
        <ele>1187.8125</ele>
        <time>2019-08-21T14:05:24Z</time>
      </trkpt>
      <trkpt lat="59.288086015731096" lon="8.214747989550233">
        <ele>1187.8125</ele>
        <time>2019-08-21T14:05:25Z</time>
      </trkpt>
      <trkpt lat="59.288086015731096" lon="8.214748995378614">
        <ele>1187.8125</ele>
        <time>2019-08-21T14:05:26Z</time>
      </trkpt>
      <trkpt lat="59.288086015731096" lon="8.214748995378614">
        <ele>1187.8125</ele>
        <time>2019-08-21T14:05:27Z</time>
      </trkpt>
      <trkpt lat="59.288086015731096" lon="8.214748995378614">
        <ele>1187.8125</ele>
        <time>2019-08-21T14:05:28Z</time>
      </trkpt>
      <trkpt lat="59.288086015731096" lon="8.214748995378614">
        <ele>1187.8125</ele>
        <time>2019-08-21T14:05:29Z</time>
      </trkpt>
      <trkpt lat="59.288086015731096" lon="8.214748995378614">
        <ele>1187.8125</ele>
        <time>2019-08-21T14:05:30Z</time>
      </trkpt>
      <trkpt lat="59.288086015731096" lon="8.214748995378614">
        <ele>1187.8125</ele>
        <time>2019-08-21T14:05:31Z</time>
      </trkpt>
      <trkpt lat="59.288086015731096" lon="8.214750001206994">
        <ele>1187.8125</ele>
        <time>2019-08-21T14:05:32Z</time>
      </trkpt>
      <trkpt lat="59.288086015731096" lon="8.214747989550233">
        <ele>1187.8125</ele>
        <time>2019-08-21T14:05:33Z</time>
      </trkpt>
      <trkpt lat="59.288087021559477" lon="8.214745977893472">
        <ele>1187.7890625</ele>
        <time>2019-08-21T14:05:34Z</time>
      </trkpt>
      <trkpt lat="59.288088027387857" lon="8.214746983721852">
        <ele>1187.76953125</ele>
        <time>2019-08-21T14:05:35Z</time>
      </trkpt>
      <trkpt lat="59.288089033216238" lon="8.214746983721852">
        <ele>1187.75</ele>
        <time>2019-08-21T14:05:36Z</time>
      </trkpt>
      <trkpt lat="59.288089033216238" lon="8.214745977893472">
        <ele>1187.74609375</ele>
        <time>2019-08-21T14:05:37Z</time>
      </trkpt>
      <trkpt lat="59.288089033216238" lon="8.214748995378614">
        <ele>1187.75</ele>
        <time>2019-08-21T14:05:38Z</time>
      </trkpt>
      <trkpt lat="59.288088027387857" lon="8.214746983721852">
        <ele>1187.76953125</ele>
        <time>2019-08-21T14:05:39Z</time>
      </trkpt>
      <trkpt lat="59.288090039044619" lon="8.214744972065091">
        <ele>1187.7265625</ele>
        <time>2019-08-21T14:05:40Z</time>
      </trkpt>
      <trkpt lat="59.288091966882348" lon="8.21474296040833">
        <ele>1187.68359375</ele>
        <time>2019-08-21T14:05:41Z</time>
      </trkpt>
      <trkpt lat="59.288092972710729" lon="8.214747989550233">
        <ele>1187.6640625</ele>
        <time>2019-08-21T14:05:42Z</time>
      </trkpt>
      <trkpt lat="59.288092972710729" lon="8.214756958186626">
        <ele>1187.66796875</ele>
        <time>2019-08-21T14:05:43Z</time>
      </trkpt>
      <trkpt lat="59.288093978539109" lon="8.214765004813671">
        <ele>1187.6484375</ele>
        <time>2019-08-21T14:05:44Z</time>
      </trkpt>
      <trkpt lat="59.288092972710729" lon="8.214775985106826">
        <ele>1187.671875</ele>
        <time>2019-08-21T14:05:45Z</time>
      </trkpt>
      <trkpt lat="59.288090961053967" lon="8.214774979278445">
        <ele>1187.71484375</ele>
        <time>2019-08-21T14:05:46Z</time>
      </trkpt>
      <trkpt lat="59.288089033216238" lon="8.214777996763587">
        <ele>1187.7578125</ele>
        <time>2019-08-21T14:05:47Z</time>
      </trkpt>
      <trkpt lat="59.288087021559477" lon="8.214784031733871">
        <ele>1187.8046875</ele>
        <time>2019-08-21T14:05:48Z</time>
      </trkpt>
      <trkpt lat="59.288086015731096" lon="8.214786965399981">
        <ele>1187.828125</ele>
        <time>2019-08-21T14:05:49Z</time>
      </trkpt>
      <trkpt lat="59.288086015731096" lon="8.214785037562251">
        <ele>1187.828125</ele>
        <time>2019-08-21T14:05:50Z</time>
      </trkpt>
      <trkpt lat="59.288086015731096" lon="8.2147859595716">
        <ele>1187.828125</ele>
        <time>2019-08-21T14:05:51Z</time>
      </trkpt>
      <trkpt lat="59.288085009902716" lon="8.2147859595716">
        <ele>1187.8515625</ele>
        <time>2019-08-21T14:05:52Z</time>
      </trkpt>
      <trkpt lat="59.288085009902716" lon="8.214786965399981">
        <ele>1187.8515625</ele>
        <time>2019-08-21T14:05:53Z</time>
      </trkpt>
      <trkpt lat="59.288085009902716" lon="8.214786965399981">
        <ele>1187.8515625</ele>
        <time>2019-08-21T14:05:54Z</time>
      </trkpt>
      <trkpt lat="59.288085009902716" lon="8.214786965399981">
        <ele>1187.8515625</ele>
        <time>2019-08-21T14:05:55Z</time>
      </trkpt>
      <trkpt lat="59.288085009902716" lon="8.214786965399981">
        <ele>1187.8515625</ele>
        <time>2019-08-21T14:05:56Z</time>
      </trkpt>
      <trkpt lat="59.288085009902716" lon="8.214785037562251">
        <ele>1187.8515625</ele>
        <time>2019-08-21T14:05:57Z</time>
      </trkpt>
      <trkpt lat="59.288085009902716" lon="8.2147859595716">
        <ele>1187.8515625</ele>
        <time>2019-08-21T14:05:58Z</time>
      </trkpt>
      <trkpt lat="59.288085009902716" lon="8.214785037562251">
        <ele>1187.8515625</ele>
        <time>2019-08-21T14:05:59Z</time>
      </trkpt>
      <trkpt lat="59.288085009902716" lon="8.214784031733871">
        <ele>1187.8515625</ele>
        <time>2019-08-21T14:06:00Z</time>
      </trkpt>
      <trkpt lat="59.288085009902716" lon="8.214782020077109">
        <ele>1187.84765625</ele>
        <time>2019-08-21T14:06:01Z</time>
      </trkpt>
      <trkpt lat="59.288086015731096" lon="8.214784031733871">
        <ele>1187.828125</ele>
        <time>2019-08-21T14:06:02Z</time>
      </trkpt>
      <trkpt lat="59.288086015731096" lon="8.21478302590549">
        <ele>1187.828125</ele>
        <time>2019-08-21T14:06:03Z</time>
      </trkpt>
      <trkpt lat="59.288086015731096" lon="8.21478302590549">
        <ele>1187.828125</ele>
        <time>2019-08-21T14:06:04Z</time>
      </trkpt>
      <trkpt lat="59.288086015731096" lon="8.21478302590549">
        <ele>1187.828125</ele>
        <time>2019-08-21T14:06:05Z</time>
      </trkpt>
      <trkpt lat="59.288086015731096" lon="8.21478302590549">
        <ele>1187.828125</ele>
        <time>2019-08-21T14:06:06Z</time>
      </trkpt>
      <trkpt lat="59.288086015731096" lon="8.21478302590549">
        <ele>1187.828125</ele>
        <time>2019-08-21T14:06:07Z</time>
      </trkpt>
      <trkpt lat="59.288086015731096" lon="8.21478302590549">
        <ele>1187.828125</ele>
        <time>2019-08-21T14:06:08Z</time>
      </trkpt>
      <trkpt lat="59.288085009902716" lon="8.21478302590549">
        <ele>1187.84765625</ele>
        <time>2019-08-21T14:06:09Z</time>
      </trkpt>
      <trkpt lat="59.288085009902716" lon="8.21478302590549">
        <ele>1187.84765625</ele>
        <time>2019-08-21T14:06:10Z</time>
      </trkpt>
      <trkpt lat="59.288085009902716" lon="8.21478302590549">
        <ele>1187.84765625</ele>
        <time>2019-08-21T14:06:11Z</time>
      </trkpt>
      <trkpt lat="59.288085009902716" lon="8.21478302590549">
        <ele>1187.84765625</ele>
        <time>2019-08-21T14:06:12Z</time>
      </trkpt>
      <trkpt lat="59.288086015731096" lon="8.21478302590549">
        <ele>1187.828125</ele>
        <time>2019-08-21T14:06:13Z</time>
      </trkpt>
      <trkpt lat="59.288089033216238" lon="8.214777996763587">
        <ele>1187.7578125</ele>
        <time>2019-08-21T14:06:14Z</time>
      </trkpt>
      <trkpt lat="59.288086015731096" lon="8.214784031733871">
        <ele>1187.828125</ele>
        <time>2019-08-21T14:06:15Z</time>
      </trkpt>
      <trkpt lat="59.288088027387857" lon="8.2147859595716">
        <ele>1187.78515625</ele>
        <time>2019-08-21T14:06:16Z</time>
      </trkpt>
      <trkpt lat="59.288089033216238" lon="8.214788977056742">
        <ele>1187.76171875</ele>
        <time>2019-08-21T14:06:17Z</time>
      </trkpt>
      <trkpt lat="59.288087021559477" lon="8.214791994541884">
        <ele>1187.80859375</ele>
        <time>2019-08-21T14:06:18Z</time>
      </trkpt>
      <trkpt lat="59.288085009902716" lon="8.214790988713503">
        <ele>1187.8515625</ele>
        <time>2019-08-21T14:06:19Z</time>
      </trkpt>
      <trkpt lat="59.288086015731096" lon="8.214788977056742">
        <ele>1187.83203125</ele>
        <time>2019-08-21T14:06:20Z</time>
      </trkpt>
      <trkpt lat="59.288086015731096" lon="8.214788977056742">
        <ele>1187.83203125</ele>
        <time>2019-08-21T14:06:21Z</time>
      </trkpt>
      <trkpt lat="59.288086015731096" lon="8.214787971228361">
        <ele>1187.828125</ele>
        <time>2019-08-21T14:06:22Z</time>
      </trkpt>
      <trkpt lat="59.288085009902716" lon="8.214788977056742">
        <ele>1187.8515625</ele>
        <time>2019-08-21T14:06:23Z</time>
      </trkpt>
      <trkpt lat="59.288086015731096" lon="8.214787971228361">
        <ele>1187.828125</ele>
        <time>2019-08-21T14:06:24Z</time>
      </trkpt>
      <trkpt lat="59.288086015731096" lon="8.214787971228361">
        <ele>1187.828125</ele>
        <time>2019-08-21T14:06:25Z</time>
      </trkpt>
      <trkpt lat="59.288086015731096" lon="8.214786965399981">
        <ele>1187.828125</ele>
        <time>2019-08-21T14:06:26Z</time>
      </trkpt>
      <trkpt lat="59.288084004074335" lon="8.2147859595716">
        <ele>1187.87109375</ele>
        <time>2019-08-21T14:06:27Z</time>
      </trkpt>
      <trkpt lat="59.288087021559477" lon="8.2147859595716">
        <ele>1187.80859375</ele>
        <time>2019-08-21T14:06:28Z</time>
      </trkpt>
      <trkpt lat="59.288087021559477" lon="8.214786965399981">
        <ele>1187.80859375</ele>
        <time>2019-08-21T14:06:29Z</time>
      </trkpt>
      <trkpt lat="59.288086015731096" lon="8.214786965399981">
        <ele>1187.828125</ele>
        <time>2019-08-21T14:06:30Z</time>
      </trkpt>
      <trkpt lat="59.288086015731096" lon="8.214786965399981">
        <ele>1187.828125</ele>
        <time>2019-08-21T14:06:31Z</time>
      </trkpt>
      <trkpt lat="59.288085009902716" lon="8.214789982885122">
        <ele>1187.8515625</ele>
        <time>2019-08-21T14:06:32Z</time>
      </trkpt>
      <trkpt lat="59.288085009902716" lon="8.214794006198645">
        <ele>1187.85546875</ele>
        <time>2019-08-21T14:06:33Z</time>
      </trkpt>
      <trkpt lat="59.288084004074335" lon="8.214787971228361">
        <ele>1187.875</ele>
        <time>2019-08-21T14:06:34Z</time>
      </trkpt>
      <trkpt lat="59.288082998245955" lon="8.214789982885122">
        <ele>1187.8984375</ele>
        <time>2019-08-21T14:06:35Z</time>
      </trkpt>
      <trkpt lat="59.288084004074335" lon="8.214804986491799">
        <ele>1187.8828125</ele>
        <time>2019-08-21T14:06:36Z</time>
      </trkpt>
      <trkpt lat="59.288084004074335" lon="8.214811021462083">
        <ele>1187.8828125</ele>
        <time>2019-08-21T14:06:37Z</time>
      </trkpt>
      <trkpt lat="59.288080986589193" lon="8.214798029512167">
        <ele>1187.9453125</ele>
        <time>2019-08-21T14:06:38Z</time>
      </trkpt>
      <trkpt lat="59.288077969104052" lon="8.214799035340548">
        <ele>1188.01171875</ele>
        <time>2019-08-21T14:06:39Z</time>
      </trkpt>
      <trkpt lat="59.288078974932432" lon="8.214800963178277">
        <ele>1187.9921875</ele>
        <time>2019-08-21T14:06:40Z</time>
      </trkpt>
      <trkpt lat="59.288078974932432" lon="8.214801969006658">
        <ele>1187.9921875</ele>
        <time>2019-08-21T14:06:41Z</time>
      </trkpt>
      <trkpt lat="59.288078974932432" lon="8.214803980663419">
        <ele>1187.9921875</ele>
        <time>2019-08-21T14:06:42Z</time>
      </trkpt>
      <trkpt lat="59.288078974932432" lon="8.21480599232018">
        <ele>1187.9921875</ele>
        <time>2019-08-21T14:06:43Z</time>
      </trkpt>
      <trkpt lat="59.288078974932432" lon="8.214808003976941">
        <ele>1187.99609375</ele>
        <time>2019-08-21T14:06:44Z</time>
      </trkpt>
      <trkpt lat="59.288076963275671" lon="8.214809009805322">
        <ele>1188.0390625</ele>
        <time>2019-08-21T14:06:45Z</time>
      </trkpt>
      <trkpt lat="59.288076041266322" lon="8.214810015633702">
        <ele>1188.0625</ele>
        <time>2019-08-21T14:06:46Z</time>
      </trkpt>
      <trkpt lat="59.288075035437942" lon="8.214811021462083">
        <ele>1188.0859375</ele>
        <time>2019-08-21T14:06:47Z</time>
      </trkpt>
      <trkpt lat="59.288077969104052" lon="8.214808003976941">
        <ele>1188.015625</ele>
        <time>2019-08-21T14:06:48Z</time>
      </trkpt>
      <trkpt lat="59.288077969104052" lon="8.214808003976941">
        <ele>1188.015625</ele>
        <time>2019-08-21T14:06:49Z</time>
      </trkpt>
      <trkpt lat="59.288077969104052" lon="8.214802974835038">
        <ele>1188.015625</ele>
        <time>2019-08-21T14:06:50Z</time>
      </trkpt>
      <trkpt lat="59.288077969104052" lon="8.214800963178277">
        <ele>1188.01171875</ele>
        <time>2019-08-21T14:06:51Z</time>
      </trkpt>
      <trkpt lat="59.288079980760813" lon="8.214800963178277">
        <ele>1187.96875</ele>
        <time>2019-08-21T14:06:52Z</time>
      </trkpt>
      <trkpt lat="59.288079980760813" lon="8.214801969006658">
        <ele>1187.96875</ele>
        <time>2019-08-21T14:06:53Z</time>
      </trkpt>
      <trkpt lat="59.288078974932432" lon="8.214803980663419">
        <ele>1187.9921875</ele>
        <time>2019-08-21T14:06:54Z</time>
      </trkpt>
      <trkpt lat="59.288077969104052" lon="8.214803980663419">
        <ele>1188.015625</ele>
        <time>2019-08-21T14:06:55Z</time>
      </trkpt>
      <trkpt lat="59.288076963275671" lon="8.214803980663419">
        <ele>1188.0390625</ele>
        <time>2019-08-21T14:06:56Z</time>
      </trkpt>
      <trkpt lat="59.288076041266322" lon="8.214802974835038">
        <ele>1188.05859375</ele>
        <time>2019-08-21T14:06:57Z</time>
      </trkpt>
      <trkpt lat="59.288076963275671" lon="8.214800041168928">
        <ele>1188.03515625</ele>
        <time>2019-08-21T14:06:58Z</time>
      </trkpt>
      <trkpt lat="59.288076963275671" lon="8.214795012027025">
        <ele>1188.03125</ele>
        <time>2019-08-21T14:06:59Z</time>
      </trkpt>
      <trkpt lat="59.288076963275671" lon="8.214789982885122">
        <ele>1188.03125</ele>
        <time>2019-08-21T14:07:00Z</time>
      </trkpt>
      <trkpt lat="59.288076041266322" lon="8.2147859595716">
        <ele>1188.046875</ele>
        <time>2019-08-21T14:07:01Z</time>
      </trkpt>
      <trkpt lat="59.288076041266322" lon="8.214785037562251">
        <ele>1188.046875</ele>
        <time>2019-08-21T14:07:02Z</time>
      </trkpt>
      <trkpt lat="59.288076041266322" lon="8.21478302590549">
        <ele>1188.046875</ele>
        <time>2019-08-21T14:07:03Z</time>
      </trkpt>
      <trkpt lat="59.288075035437942" lon="8.214782020077109">
        <ele>1188.06640625</ele>
        <time>2019-08-21T14:07:04Z</time>
      </trkpt>
      <trkpt lat="59.288075035437942" lon="8.214780008420348">
        <ele>1188.06640625</ele>
        <time>2019-08-21T14:07:05Z</time>
      </trkpt>
      <trkpt lat="59.288075035437942" lon="8.214779002591968">
        <ele>1188.06640625</ele>
        <time>2019-08-21T14:07:06Z</time>
      </trkpt>
      <trkpt lat="59.288075035437942" lon="8.214777996763587">
        <ele>1188.06640625</ele>
        <time>2019-08-21T14:07:07Z</time>
      </trkpt>
      <trkpt lat="59.288075035437942" lon="8.214775985106826">
        <ele>1188.0625</ele>
        <time>2019-08-21T14:07:08Z</time>
      </trkpt>
      <trkpt lat="59.288075035437942" lon="8.214775985106826">
        <ele>1188.0625</ele>
        <time>2019-08-21T14:07:09Z</time>
      </trkpt>
      <trkpt lat="59.288076041266322" lon="8.214775985106826">
        <ele>1188.04296875</ele>
        <time>2019-08-21T14:07:10Z</time>
      </trkpt>
      <trkpt lat="59.288076041266322" lon="8.214776990935206">
        <ele>1188.04296875</ele>
        <time>2019-08-21T14:07:11Z</time>
      </trkpt>
      <trkpt lat="59.288076963275671" lon="8.214777996763587">
        <ele>1188.0234375</ele>
        <time>2019-08-21T14:07:12Z</time>
      </trkpt>
      <trkpt lat="59.288076963275671" lon="8.214779002591968">
        <ele>1188.0234375</ele>
        <time>2019-08-21T14:07:13Z</time>
      </trkpt>
      <trkpt lat="59.288076963275671" lon="8.214781014248729">
        <ele>1188.0234375</ele>
        <time>2019-08-21T14:07:14Z</time>
      </trkpt>
      <trkpt lat="59.288076041266322" lon="8.214781014248729">
        <ele>1188.046875</ele>
        <time>2019-08-21T14:07:15Z</time>
      </trkpt>
      <trkpt lat="59.288076041266322" lon="8.214782020077109">
        <ele>1188.046875</ele>
        <time>2019-08-21T14:07:16Z</time>
      </trkpt>
      <trkpt lat="59.288076041266322" lon="8.214782020077109">
        <ele>1188.046875</ele>
        <time>2019-08-21T14:07:17Z</time>
      </trkpt>
      <trkpt lat="59.288076041266322" lon="8.214781014248729">
        <ele>1188.046875</ele>
        <time>2019-08-21T14:07:18Z</time>
      </trkpt>
      <trkpt lat="59.288076041266322" lon="8.214782020077109">
        <ele>1188.046875</ele>
        <time>2019-08-21T14:07:19Z</time>
      </trkpt>
      <trkpt lat="59.288076041266322" lon="8.214781014248729">
        <ele>1188.046875</ele>
        <time>2019-08-21T14:07:20Z</time>
      </trkpt>
      <trkpt lat="59.288076041266322" lon="8.214782020077109">
        <ele>1188.046875</ele>
        <time>2019-08-21T14:07:21Z</time>
      </trkpt>
      <trkpt lat="59.288076041266322" lon="8.214782020077109">
        <ele>1188.046875</ele>
        <time>2019-08-21T14:07:22Z</time>
      </trkpt>
      <trkpt lat="59.288076041266322" lon="8.214782020077109">
        <ele>1188.046875</ele>
        <time>2019-08-21T14:07:23Z</time>
      </trkpt>
      <trkpt lat="59.288076041266322" lon="8.214782020077109">
        <ele>1188.046875</ele>
        <time>2019-08-21T14:07:24Z</time>
      </trkpt>
      <trkpt lat="59.288076041266322" lon="8.214782020077109">
        <ele>1188.046875</ele>
        <time>2019-08-21T14:07:25Z</time>
      </trkpt>
      <trkpt lat="59.288076041266322" lon="8.214782020077109">
        <ele>1188.046875</ele>
        <time>2019-08-21T14:07:26Z</time>
      </trkpt>
      <trkpt lat="59.288076041266322" lon="8.214782020077109">
        <ele>1188.046875</ele>
        <time>2019-08-21T14:07:27Z</time>
      </trkpt>
      <trkpt lat="59.288076041266322" lon="8.214781014248729">
        <ele>1188.046875</ele>
        <time>2019-08-21T14:07:28Z</time>
      </trkpt>
      <trkpt lat="59.288076041266322" lon="8.214782020077109">
        <ele>1188.046875</ele>
        <time>2019-08-21T14:07:29Z</time>
      </trkpt>
      <trkpt lat="59.288076041266322" lon="8.214782020077109">
        <ele>1188.046875</ele>
        <time>2019-08-21T14:07:30Z</time>
      </trkpt>
      <trkpt lat="59.288076041266322" lon="8.214782020077109">
        <ele>1188.046875</ele>
        <time>2019-08-21T14:07:31Z</time>
      </trkpt>
      <trkpt lat="59.288076041266322" lon="8.214782020077109">
        <ele>1188.046875</ele>
        <time>2019-08-21T14:07:32Z</time>
      </trkpt>
      <trkpt lat="59.288076041266322" lon="8.214782020077109">
        <ele>1188.046875</ele>
        <time>2019-08-21T14:07:33Z</time>
      </trkpt>
      <trkpt lat="59.288076041266322" lon="8.214782020077109">
        <ele>1188.046875</ele>
        <time>2019-08-21T14:07:34Z</time>
      </trkpt>
      <trkpt lat="59.288076041266322" lon="8.214782020077109">
        <ele>1188.046875</ele>
        <time>2019-08-21T14:07:35Z</time>
      </trkpt>
      <trkpt lat="59.288076041266322" lon="8.214782020077109">
        <ele>1188.046875</ele>
        <time>2019-08-21T14:07:36Z</time>
      </trkpt>
      <trkpt lat="59.288076041266322" lon="8.214782020077109">
        <ele>1188.046875</ele>
        <time>2019-08-21T14:07:37Z</time>
      </trkpt>
      <trkpt lat="59.288076041266322" lon="8.214782020077109">
        <ele>1188.046875</ele>
        <time>2019-08-21T14:07:38Z</time>
      </trkpt>
      <trkpt lat="59.288076041266322" lon="8.214782020077109">
        <ele>1188.046875</ele>
        <time>2019-08-21T14:07:39Z</time>
      </trkpt>
      <trkpt lat="59.288076041266322" lon="8.214782020077109">
        <ele>1188.046875</ele>
        <time>2019-08-21T14:07:40Z</time>
      </trkpt>
      <trkpt lat="59.288076041266322" lon="8.214782020077109">
        <ele>1188.046875</ele>
        <time>2019-08-21T14:07:41Z</time>
      </trkpt>
      <trkpt lat="59.288076041266322" lon="8.214782020077109">
        <ele>1188.046875</ele>
        <time>2019-08-21T14:07:42Z</time>
      </trkpt>
      <trkpt lat="59.288076041266322" lon="8.214782020077109">
        <ele>1188.046875</ele>
        <time>2019-08-21T14:07:43Z</time>
      </trkpt>
      <trkpt lat="59.288076041266322" lon="8.21478302590549">
        <ele>1188.046875</ele>
        <time>2019-08-21T14:07:44Z</time>
      </trkpt>
      <trkpt lat="59.288076041266322" lon="8.21478302590549">
        <ele>1188.046875</ele>
        <time>2019-08-21T14:07:45Z</time>
      </trkpt>
      <trkpt lat="59.288075035437942" lon="8.21478302590549">
        <ele>1188.06640625</ele>
        <time>2019-08-21T14:07:46Z</time>
      </trkpt>
      <trkpt lat="59.288075035437942" lon="8.21478302590549">
        <ele>1188.06640625</ele>
        <time>2019-08-21T14:07:47Z</time>
      </trkpt>
      <trkpt lat="59.288075035437942" lon="8.21478302590549">
        <ele>1188.06640625</ele>
        <time>2019-08-21T14:07:48Z</time>
      </trkpt>
      <trkpt lat="59.288075035437942" lon="8.21478302590549">
        <ele>1188.06640625</ele>
        <time>2019-08-21T14:07:49Z</time>
      </trkpt>
      <trkpt lat="59.288075035437942" lon="8.21478302590549">
        <ele>1188.06640625</ele>
        <time>2019-08-21T14:07:50Z</time>
      </trkpt>
      <trkpt lat="59.288075035437942" lon="8.21478302590549">
        <ele>1188.06640625</ele>
        <time>2019-08-21T14:07:51Z</time>
      </trkpt>
      <trkpt lat="59.288075035437942" lon="8.21478302590549">
        <ele>1188.06640625</ele>
        <time>2019-08-21T14:07:52Z</time>
      </trkpt>
      <trkpt lat="59.288075035437942" lon="8.214784031733871">
        <ele>1188.0703125</ele>
        <time>2019-08-21T14:07:53Z</time>
      </trkpt>
      <trkpt lat="59.288075035437942" lon="8.214784031733871">
        <ele>1188.0703125</ele>
        <time>2019-08-21T14:07:54Z</time>
      </trkpt>
      <trkpt lat="59.288075035437942" lon="8.214784031733871">
        <ele>1188.0703125</ele>
        <time>2019-08-21T14:07:55Z</time>
      </trkpt>
      <trkpt lat="59.288075035437942" lon="8.214784031733871">
        <ele>1188.0703125</ele>
        <time>2019-08-21T14:07:56Z</time>
      </trkpt>
      <trkpt lat="59.288075035437942" lon="8.214784031733871">
        <ele>1188.0703125</ele>
        <time>2019-08-21T14:07:57Z</time>
      </trkpt>
      <trkpt lat="59.288075035437942" lon="8.214785037562251">
        <ele>1188.0703125</ele>
        <time>2019-08-21T14:07:58Z</time>
      </trkpt>
      <trkpt lat="59.288075035437942" lon="8.214785037562251">
        <ele>1188.0703125</ele>
        <time>2019-08-21T14:07:59Z</time>
      </trkpt>
      <trkpt lat="59.288075035437942" lon="8.214785037562251">
        <ele>1188.0703125</ele>
        <time>2019-08-21T14:08:00Z</time>
      </trkpt>
      <trkpt lat="59.288075035437942" lon="8.214785037562251">
        <ele>1188.0703125</ele>
        <time>2019-08-21T14:08:01Z</time>
      </trkpt>
      <trkpt lat="59.288074029609561" lon="8.214786965399981">
        <ele>1188.09375</ele>
        <time>2019-08-21T14:08:02Z</time>
      </trkpt>
      <trkpt lat="59.288071012124419" lon="8.214777996763587">
        <ele>1188.15234375</ele>
        <time>2019-08-21T14:08:03Z</time>
      </trkpt>
      <trkpt lat="59.288067994639277" lon="8.214767016470432">
        <ele>1188.2109375</ele>
        <time>2019-08-21T14:08:04Z</time>
      </trkpt>
      <trkpt lat="59.288067994639277" lon="8.214760981500149">
        <ele>1188.20703125</ele>
        <time>2019-08-21T14:08:05Z</time>
      </trkpt>
      <trkpt lat="59.288069000467658" lon="8.214756036177278">
        <ele>1188.18359375</ele>
        <time>2019-08-21T14:08:06Z</time>
      </trkpt>
      <trkpt lat="59.288069000467658" lon="8.214752012863755">
        <ele>1188.1796875</ele>
        <time>2019-08-21T14:08:07Z</time>
      </trkpt>
      <trkpt lat="59.288071012124419" lon="8.214751007035375">
        <ele>1188.13671875</ele>
        <time>2019-08-21T14:08:08Z</time>
      </trkpt>
      <trkpt lat="59.288071012124419" lon="8.214751007035375">
        <ele>1188.13671875</ele>
        <time>2019-08-21T14:08:09Z</time>
      </trkpt>
      <trkpt lat="59.28807302378118" lon="8.214750001206994">
        <ele>1188.08984375</ele>
        <time>2019-08-21T14:08:10Z</time>
      </trkpt>
      <trkpt lat="59.288075035437942" lon="8.214753018692136">
        <ele>1188.05078125</ele>
        <time>2019-08-21T14:08:11Z</time>
      </trkpt>
      <trkpt lat="59.288075035437942" lon="8.214753018692136">
        <ele>1188.05078125</ele>
        <time>2019-08-21T14:08:12Z</time>
      </trkpt>
      <trkpt lat="59.288076041266322" lon="8.214753018692136">
        <ele>1188.02734375</ele>
        <time>2019-08-21T14:08:13Z</time>
      </trkpt>
      <trkpt lat="59.288076041266322" lon="8.214754024520516">
        <ele>1188.03125</ele>
        <time>2019-08-21T14:08:14Z</time>
      </trkpt>
      <trkpt lat="59.288076963275671" lon="8.214751007035375">
        <ele>1188.0078125</ele>
        <time>2019-08-21T14:08:15Z</time>
      </trkpt>
      <trkpt lat="59.288077969104052" lon="8.214746983721852">
        <ele>1187.984375</ele>
        <time>2019-08-21T14:08:16Z</time>
      </trkpt>
      <trkpt lat="59.288078974932432" lon="8.214743966236711">
        <ele>1187.9609375</ele>
        <time>2019-08-21T14:08:17Z</time>
      </trkpt>
      <trkpt lat="59.288079980760813" lon="8.21474002674222">
        <ele>1187.9375</ele>
        <time>2019-08-21T14:08:18Z</time>
      </trkpt>
      <trkpt lat="59.288080986589193" lon="8.214737009257078">
        <ele>1187.9140625</ele>
        <time>2019-08-21T14:08:19Z</time>
      </trkpt>
      <trkpt lat="59.288081992417574" lon="8.214736003428698">
        <ele>1187.89453125</ele>
        <time>2019-08-21T14:08:20Z</time>
      </trkpt>
      <trkpt lat="59.288082998245955" lon="8.214737009257078">
        <ele>1187.87109375</ele>
        <time>2019-08-21T14:08:21Z</time>
      </trkpt>
      <trkpt lat="59.288084004074335" lon="8.214737009257078">
        <ele>1187.8515625</ele>
        <time>2019-08-21T14:08:22Z</time>
      </trkpt>
      <trkpt lat="59.288085009902716" lon="8.214739020913839">
        <ele>1187.83203125</ele>
        <time>2019-08-21T14:08:23Z</time>
      </trkpt>
      <trkpt lat="59.288085009902716" lon="8.21474296040833">
        <ele>1187.83203125</ele>
        <time>2019-08-21T14:08:24Z</time>
      </trkpt>
      <trkpt lat="59.288078974932432" lon="8.214768022298813">
        <ele>1187.97265625</ele>
        <time>2019-08-21T14:08:25Z</time>
      </trkpt>
      <trkpt lat="59.288076041266322" lon="8.21478302590549">
        <ele>1188.046875</ele>
        <time>2019-08-21T14:08:26Z</time>
      </trkpt>
      <trkpt lat="59.288087021559477" lon="8.214804986491799">
        <ele>1187.8125</ele>
        <time>2019-08-21T14:08:27Z</time>
      </trkpt>
      <trkpt lat="59.288087021559477" lon="8.214820995926857">
        <ele>1187.8203125</ele>
        <time>2019-08-21T14:08:28Z</time>
      </trkpt>
      <trkpt lat="59.288087021559477" lon="8.214835999533534">
        <ele>1187.828125</ele>
        <time>2019-08-21T14:08:29Z</time>
      </trkpt>
      <trkpt lat="59.288086015731096" lon="8.21484899148345">
        <ele>1187.85546875</ele>
        <time>2019-08-21T14:08:30Z</time>
      </trkpt>
      <trkpt lat="59.288086015731096" lon="8.214866006746888">
        <ele>1187.86328125</ele>
        <time>2019-08-21T14:08:31Z</time>
      </trkpt>
      <trkpt lat="59.288085009902716" lon="8.214886039495468">
        <ele>1187.89453125</ele>
        <time>2019-08-21T14:08:32Z</time>
      </trkpt>
      <trkpt lat="59.288085009902716" lon="8.214904982596636">
        <ele>1187.90234375</ele>
        <time>2019-08-21T14:08:33Z</time>
      </trkpt>
      <trkpt lat="59.288080986589193" lon="8.214918980374932">
        <ele>1188.00390625</ele>
        <time>2019-08-21T14:08:34Z</time>
      </trkpt>
      <trkpt lat="59.288078974932432" lon="8.214929960668087">
        <ele>1188.05859375</ele>
        <time>2019-08-21T14:08:35Z</time>
      </trkpt>
      <trkpt lat="59.288077969104052" lon="8.214932978153229">
        <ele>1188.0859375</ele>
        <time>2019-08-21T14:08:36Z</time>
      </trkpt>
      <trkpt lat="59.288076963275671" lon="8.214933983981609">
        <ele>1188.109375</ele>
        <time>2019-08-21T14:08:37Z</time>
      </trkpt>
      <trkpt lat="59.288076963275671" lon="8.214937001466751">
        <ele>1188.11328125</ele>
        <time>2019-08-21T14:08:38Z</time>
      </trkpt>
      <trkpt lat="59.288076963275671" lon="8.214941024780273">
        <ele>1188.11328125</ele>
        <time>2019-08-21T14:08:39Z</time>
      </trkpt>
      <trkpt lat="59.288077969104052" lon="8.214940018951893">
        <ele>1188.08984375</ele>
        <time>2019-08-21T14:08:40Z</time>
      </trkpt>
      <trkpt lat="59.288076963275671" lon="8.214942030608654">
        <ele>1188.11328125</ele>
        <time>2019-08-21T14:08:41Z</time>
      </trkpt>
      <trkpt lat="59.288076041266322" lon="8.214942030608654">
        <ele>1188.13671875</ele>
        <time>2019-08-21T14:08:42Z</time>
      </trkpt>
      <trkpt lat="59.28807302378118" lon="8.214940018951893">
        <ele>1188.2109375</ele>
        <time>2019-08-21T14:08:43Z</time>
      </trkpt>
      <trkpt lat="59.288069000467658" lon="8.214935995638371">
        <ele>1188.3046875</ele>
        <time>2019-08-21T14:08:44Z</time>
      </trkpt>
      <trkpt lat="59.288063971325755" lon="8.214929960668087">
        <ele>1188.421875</ele>
        <time>2019-08-21T14:08:45Z</time>
      </trkpt>
      <trkpt lat="59.288060031831264" lon="8.214925015345216">
        <ele>1188.515625</ele>
        <time>2019-08-21T14:08:46Z</time>
      </trkpt>
      <trkpt lat="59.288057014346123" lon="8.214923003688455">
        <ele>1188.5859375</ele>
        <time>2019-08-21T14:08:47Z</time>
      </trkpt>
      <trkpt lat="59.288056008517742" lon="8.214920992031694">
        <ele>1188.609375</ele>
        <time>2019-08-21T14:08:48Z</time>
      </trkpt>
      <trkpt lat="59.288055002689362" lon="8.214918980374932">
        <ele>1188.62890625</ele>
        <time>2019-08-21T14:08:49Z</time>
      </trkpt>
      <trkpt lat="59.288050979375839" lon="8.214917974546552">
        <ele>1188.7265625</ele>
        <time>2019-08-21T14:08:50Z</time>
      </trkpt>
      <trkpt lat="59.28803295828402" lon="8.214910011738539">
        <ele>1188.86328125</ele>
        <time>2019-08-21T14:08:52Z</time>
      </trkpt>
      <trkpt lat="59.288024995476007" lon="8.214908000081778">
        <ele>1188.82421875</ele>
        <time>2019-08-21T14:08:53Z</time>
      </trkpt>
      <trkpt lat="59.288017032667994" lon="8.214900959283114">
        <ele>1188.77734375</ele>
        <time>2019-08-21T14:08:54Z</time>
      </trkpt>
      <trkpt lat="59.28800999186933" lon="8.214899031445384">
        <ele>1188.7421875</ele>
        <time>2019-08-21T14:08:55Z</time>
      </trkpt>
      <trkpt lat="59.288007980212569" lon="8.214900037273765">
        <ele>1188.734375</ele>
        <time>2019-08-21T14:08:56Z</time>
      </trkpt>
      <trkpt lat="59.288006974384189" lon="8.214899031445384">
        <ele>1188.7265625</ele>
        <time>2019-08-21T14:08:57Z</time>
      </trkpt>
      <trkpt lat="59.288006974384189" lon="8.214898025617003">
        <ele>1188.7265625</ele>
        <time>2019-08-21T14:08:58Z</time>
      </trkpt>
      <trkpt lat="59.288005968555808" lon="8.214897019788623">
        <ele>1188.71875</ele>
        <time>2019-08-21T14:08:59Z</time>
      </trkpt>
      <trkpt lat="59.288005968555808" lon="8.214897019788623">
        <ele>1188.71875</ele>
        <time>2019-08-21T14:09:00Z</time>
      </trkpt>
      <trkpt lat="59.288005968555808" lon="8.214897019788623">
        <ele>1188.71875</ele>
        <time>2019-08-21T14:09:01Z</time>
      </trkpt>
      <trkpt lat="59.288005968555808" lon="8.214897019788623">
        <ele>1188.71875</ele>
        <time>2019-08-21T14:09:02Z</time>
      </trkpt>
      <trkpt lat="59.288005968555808" lon="8.214897019788623">
        <ele>1188.71875</ele>
        <time>2019-08-21T14:09:03Z</time>
      </trkpt>
      <trkpt lat="59.288005968555808" lon="8.214897019788623">
        <ele>1188.71875</ele>
        <time>2019-08-21T14:09:04Z</time>
      </trkpt>
      <trkpt lat="59.288005968555808" lon="8.214897019788623">
        <ele>1188.71875</ele>
        <time>2019-08-21T14:09:05Z</time>
      </trkpt>
      <trkpt lat="59.288005968555808" lon="8.214897019788623">
        <ele>1188.71875</ele>
        <time>2019-08-21T14:09:06Z</time>
      </trkpt>
      <trkpt lat="59.288005968555808" lon="8.214897019788623">
        <ele>1188.71875</ele>
        <time>2019-08-21T14:09:07Z</time>
      </trkpt>
      <trkpt lat="59.288005968555808" lon="8.214897019788623">
        <ele>1188.71875</ele>
        <time>2019-08-21T14:09:08Z</time>
      </trkpt>
      <trkpt lat="59.288005968555808" lon="8.214897019788623">
        <ele>1188.71875</ele>
        <time>2019-08-21T14:09:09Z</time>
      </trkpt>
      <trkpt lat="59.288005968555808" lon="8.214897019788623">
        <ele>1188.71875</ele>
        <time>2019-08-21T14:09:10Z</time>
      </trkpt>
      <trkpt lat="59.288005968555808" lon="8.214897019788623">
        <ele>1188.71875</ele>
        <time>2019-08-21T14:09:11Z</time>
      </trkpt>
      <trkpt lat="59.288005968555808" lon="8.214897019788623">
        <ele>1188.71875</ele>
        <time>2019-08-21T14:09:12Z</time>
      </trkpt>
      <trkpt lat="59.288005968555808" lon="8.214897019788623">
        <ele>1188.71875</ele>
        <time>2019-08-21T14:09:13Z</time>
      </trkpt>
      <trkpt lat="59.288005968555808" lon="8.214897019788623">
        <ele>1188.71875</ele>
        <time>2019-08-21T14:09:14Z</time>
      </trkpt>
      <trkpt lat="59.288005968555808" lon="8.214897019788623">
        <ele>1188.71875</ele>
        <time>2019-08-21T14:09:15Z</time>
      </trkpt>
      <trkpt lat="59.288005968555808" lon="8.214897019788623">
        <ele>1188.71875</ele>
        <time>2019-08-21T14:09:16Z</time>
      </trkpt>
      <trkpt lat="59.288004962727427" lon="8.214897019788623">
        <ele>1188.71484375</ele>
        <time>2019-08-21T14:09:17Z</time>
      </trkpt>
      <trkpt lat="59.288004962727427" lon="8.214897019788623">
        <ele>1188.71484375</ele>
        <time>2019-08-21T14:09:18Z</time>
      </trkpt>
      <trkpt lat="59.288004962727427" lon="8.214897019788623">
        <ele>1188.71484375</ele>
        <time>2019-08-21T14:09:19Z</time>
      </trkpt>
      <trkpt lat="59.288004962727427" lon="8.214897019788623">
        <ele>1188.71484375</ele>
        <time>2019-08-21T14:09:20Z</time>
      </trkpt>
      <trkpt lat="59.288004962727427" lon="8.214897019788623">
        <ele>1188.71484375</ele>
        <time>2019-08-21T14:09:21Z</time>
      </trkpt>
      <trkpt lat="59.287993982434273" lon="8.214895008131862">
        <ele>1188.66015625</ele>
        <time>2019-08-21T14:09:22Z</time>
      </trkpt>
      <trkpt lat="59.287975039333105" lon="8.214888973161578">
        <ele>1188.5625</ele>
        <time>2019-08-21T14:09:23Z</time>
      </trkpt>
      <trkpt lat="59.287950983271003" lon="8.214871035888791">
        <ele>1188.41796875</ele>
        <time>2019-08-21T14:09:24Z</time>
      </trkpt>
      <trkpt lat="59.287934973835945" lon="8.214856032282114">
        <ele>1188.3203125</ele>
        <time>2019-08-21T14:09:25Z</time>
      </trkpt>
      <trkpt lat="59.287924999371171" lon="8.214849997311831">
        <ele>1188.26171875</ele>
        <time>2019-08-21T14:09:26Z</time>
      </trkpt>
      <trkpt lat="59.287918964400887" lon="8.214840022847056">
        <ele>1188.21484375</ele>
        <time>2019-08-21T14:09:27Z</time>
      </trkpt>
      <trkpt lat="59.287906978279352" lon="8.214841028675437">
        <ele>1188.15625</ele>
        <time>2019-08-21T14:09:28Z</time>
      </trkpt>
      <trkpt lat="59.287892980501056" lon="8.214837005361915">
        <ele>1188.078125</ele>
        <time>2019-08-21T14:09:29Z</time>
      </trkpt>
      <trkpt lat="59.287884011864662" lon="8.214839017018676">
        <ele>1188.0390625</ele>
        <time>2019-08-21T14:09:30Z</time>
      </trkpt>
      <trkpt lat="59.287882000207901" lon="8.214839017018676">
        <ele>1188.02734375</ele>
        <time>2019-08-21T14:09:31Z</time>
      </trkpt>
      <trkpt lat="59.28787998855114" lon="8.214839017018676">
        <ele>1188.015625</ele>
        <time>2019-08-21T14:09:32Z</time>
      </trkpt>
      <trkpt lat="59.287877976894379" lon="8.214840022847056">
        <ele>1188.0078125</ele>
        <time>2019-08-21T14:09:33Z</time>
      </trkpt>
      <trkpt lat="59.287875965237617" lon="8.214839017018676">
        <ele>1187.99609375</ele>
        <time>2019-08-21T14:09:34Z</time>
      </trkpt>
      <trkpt lat="59.287874959409237" lon="8.214838011190295">
        <ele>1187.9921875</ele>
        <time>2019-08-21T14:09:35Z</time>
      </trkpt>
      <trkpt lat="59.287874959409237" lon="8.214838011190295">
        <ele>1187.9921875</ele>
        <time>2019-08-21T14:09:36Z</time>
      </trkpt>
      <trkpt lat="59.287874959409237" lon="8.214838011190295">
        <ele>1187.9921875</ele>
        <time>2019-08-21T14:09:37Z</time>
      </trkpt>
      <trkpt lat="59.287874959409237" lon="8.214838011190295">
        <ele>1187.9921875</ele>
        <time>2019-08-21T14:09:38Z</time>
      </trkpt>
      <trkpt lat="59.287874959409237" lon="8.214839017018676">
        <ele>1187.9921875</ele>
        <time>2019-08-21T14:09:39Z</time>
      </trkpt>
      <trkpt lat="59.287874959409237" lon="8.214839017018676">
        <ele>1187.9921875</ele>
        <time>2019-08-21T14:09:40Z</time>
      </trkpt>
      <trkpt lat="59.287874959409237" lon="8.214839017018676">
        <ele>1187.9921875</ele>
        <time>2019-08-21T14:09:41Z</time>
      </trkpt>
      <trkpt lat="59.287874959409237" lon="8.214839017018676">
        <ele>1187.9921875</ele>
        <time>2019-08-21T14:09:42Z</time>
      </trkpt>
      <trkpt lat="59.287874959409237" lon="8.214839017018676">
        <ele>1187.9921875</ele>
        <time>2019-08-21T14:09:43Z</time>
      </trkpt>
      <trkpt lat="59.287874959409237" lon="8.214839017018676">
        <ele>1187.9921875</ele>
        <time>2019-08-21T14:09:44Z</time>
      </trkpt>
      <trkpt lat="59.287874959409237" lon="8.214839017018676">
        <ele>1187.9921875</ele>
        <time>2019-08-21T14:09:45Z</time>
      </trkpt>
      <trkpt lat="59.287874959409237" lon="8.214839017018676">
        <ele>1187.9921875</ele>
        <time>2019-08-21T14:09:46Z</time>
      </trkpt>
      <trkpt lat="59.287874959409237" lon="8.214839017018676">
        <ele>1187.9921875</ele>
        <time>2019-08-21T14:09:47Z</time>
      </trkpt>
      <trkpt lat="59.287874959409237" lon="8.214839017018676">
        <ele>1187.9921875</ele>
        <time>2019-08-21T14:09:48Z</time>
      </trkpt>
      <trkpt lat="59.287874959409237" lon="8.214839017018676">
        <ele>1187.9921875</ele>
        <time>2019-08-21T14:09:49Z</time>
      </trkpt>
      <trkpt lat="59.287874959409237" lon="8.214839017018676">
        <ele>1187.9921875</ele>
        <time>2019-08-21T14:09:50Z</time>
      </trkpt>
      <trkpt lat="59.287874959409237" lon="8.214839017018676">
        <ele>1187.9921875</ele>
        <time>2019-08-21T14:09:51Z</time>
      </trkpt>
      <trkpt lat="59.287874959409237" lon="8.214839017018676">
        <ele>1187.9921875</ele>
        <time>2019-08-21T14:09:52Z</time>
      </trkpt>
      <trkpt lat="59.287874959409237" lon="8.214839017018676">
        <ele>1187.9921875</ele>
        <time>2019-08-21T14:09:53Z</time>
      </trkpt>
      <trkpt lat="59.287874959409237" lon="8.214839017018676">
        <ele>1187.9921875</ele>
        <time>2019-08-21T14:09:54Z</time>
      </trkpt>
      <trkpt lat="59.287874959409237" lon="8.214839017018676">
        <ele>1187.9921875</ele>
        <time>2019-08-21T14:09:55Z</time>
      </trkpt>
      <trkpt lat="59.287874959409237" lon="8.214839017018676">
        <ele>1187.9921875</ele>
        <time>2019-08-21T14:09:56Z</time>
      </trkpt>
      <trkpt lat="59.287874959409237" lon="8.214839017018676">
        <ele>1187.9921875</ele>
        <time>2019-08-21T14:09:57Z</time>
      </trkpt>
      <trkpt lat="59.287874959409237" lon="8.214839017018676">
        <ele>1187.9921875</ele>
        <time>2019-08-21T14:09:58Z</time>
      </trkpt>
      <trkpt lat="59.287874959409237" lon="8.214839017018676">
        <ele>1187.9921875</ele>
        <time>2019-08-21T14:09:59Z</time>
      </trkpt>
      <trkpt lat="59.287874959409237" lon="8.214839017018676">
        <ele>1187.9921875</ele>
        <time>2019-08-21T14:10:00Z</time>
      </trkpt>
      <trkpt lat="59.287874959409237" lon="8.214839017018676">
        <ele>1187.9921875</ele>
        <time>2019-08-21T14:10:01Z</time>
      </trkpt>
      <trkpt lat="59.287874959409237" lon="8.214838011190295">
        <ele>1187.9921875</ele>
        <time>2019-08-21T14:10:02Z</time>
      </trkpt>
      <trkpt lat="59.287874959409237" lon="8.214838011190295">
        <ele>1187.9921875</ele>
        <time>2019-08-21T14:10:03Z</time>
      </trkpt>
      <trkpt lat="59.287874959409237" lon="8.214839017018676">
        <ele>1187.9921875</ele>
        <time>2019-08-21T14:10:04Z</time>
      </trkpt>
      <trkpt lat="59.287874959409237" lon="8.214839017018676">
        <ele>1187.9921875</ele>
        <time>2019-08-21T14:10:05Z</time>
      </trkpt>
      <trkpt lat="59.287874959409237" lon="8.214839017018676">
        <ele>1187.9921875</ele>
        <time>2019-08-21T14:10:06Z</time>
      </trkpt>
      <trkpt lat="59.287874959409237" lon="8.214839017018676">
        <ele>1187.9921875</ele>
        <time>2019-08-21T14:10:07Z</time>
      </trkpt>
      <trkpt lat="59.287874959409237" lon="8.214839017018676">
        <ele>1187.9921875</ele>
        <time>2019-08-21T14:10:08Z</time>
      </trkpt>
      <trkpt lat="59.287874959409237" lon="8.214838011190295">
        <ele>1187.9921875</ele>
        <time>2019-08-21T14:10:09Z</time>
      </trkpt>
      <trkpt lat="59.287874959409237" lon="8.214838011190295">
        <ele>1187.9921875</ele>
        <time>2019-08-21T14:10:10Z</time>
      </trkpt>
      <trkpt lat="59.287874959409237" lon="8.214838011190295">
        <ele>1187.9921875</ele>
        <time>2019-08-21T14:10:11Z</time>
      </trkpt>
      <trkpt lat="59.287874959409237" lon="8.214838011190295">
        <ele>1187.9921875</ele>
        <time>2019-08-21T14:10:12Z</time>
      </trkpt>
      <trkpt lat="59.287874959409237" lon="8.214838011190295">
        <ele>1187.9921875</ele>
        <time>2019-08-21T14:10:13Z</time>
      </trkpt>
      <trkpt lat="59.287874959409237" lon="8.214838011190295">
        <ele>1187.9921875</ele>
        <time>2019-08-21T14:10:14Z</time>
      </trkpt>
      <trkpt lat="59.287874037399888" lon="8.214838011190295">
        <ele>1187.984375</ele>
        <time>2019-08-21T14:10:15Z</time>
      </trkpt>
      <trkpt lat="59.287874959409237" lon="8.214838011190295">
        <ele>1187.9921875</ele>
        <time>2019-08-21T14:10:16Z</time>
      </trkpt>
      <trkpt lat="59.287874037399888" lon="8.214838011190295">
        <ele>1187.984375</ele>
        <time>2019-08-21T14:10:17Z</time>
      </trkpt>
      <trkpt lat="59.287874959409237" lon="8.214839017018676">
        <ele>1187.9921875</ele>
        <time>2019-08-21T14:10:18Z</time>
      </trkpt>
      <trkpt lat="59.287873031571507" lon="8.214842034503818">
        <ele>1187.98828125</ele>
        <time>2019-08-21T14:10:19Z</time>
      </trkpt>
      <trkpt lat="59.287872025743127" lon="8.214841028675437">
        <ele>1187.98046875</ele>
        <time>2019-08-21T14:10:20Z</time>
      </trkpt>
      <trkpt lat="59.287872025743127" lon="8.214841028675437">
        <ele>1187.98046875</ele>
        <time>2019-08-21T14:10:21Z</time>
      </trkpt>
      <trkpt lat="59.287872025743127" lon="8.214842034503818">
        <ele>1187.984375</ele>
        <time>2019-08-21T14:10:22Z</time>
      </trkpt>
      <trkpt lat="59.287872025743127" lon="8.214842034503818">
        <ele>1187.984375</ele>
        <time>2019-08-21T14:10:23Z</time>
      </trkpt>
      <trkpt lat="59.287872025743127" lon="8.214843962341547">
        <ele>1187.98828125</ele>
        <time>2019-08-21T14:10:24Z</time>
      </trkpt>
      <trkpt lat="59.287871019914746" lon="8.214846979826689">
        <ele>1187.98828125</ele>
        <time>2019-08-21T14:10:25Z</time>
      </trkpt>
      <trkpt lat="59.287871019914746" lon="8.214849997311831">
        <ele>1187.9921875</ele>
        <time>2019-08-21T14:10:26Z</time>
      </trkpt>
      <trkpt lat="59.287871019914746" lon="8.214855026453733">
        <ele>1188</ele>
        <time>2019-08-21T14:10:27Z</time>
      </trkpt>
      <trkpt lat="59.287870014086366" lon="8.214855026453733">
        <ele>1187.99609375</ele>
        <time>2019-08-21T14:10:28Z</time>
      </trkpt>
      <trkpt lat="59.287868002429605" lon="8.214856032282114">
        <ele>1187.98828125</ele>
        <time>2019-08-21T14:10:29Z</time>
      </trkpt>
      <trkpt lat="59.287869008257985" lon="8.214855026453733">
        <ele>1187.9921875</ele>
        <time>2019-08-21T14:10:30Z</time>
      </trkpt>
      <trkpt lat="59.287869008257985" lon="8.214855026453733">
        <ele>1187.9921875</ele>
        <time>2019-08-21T14:10:31Z</time>
      </trkpt>
      <trkpt lat="59.287869008257985" lon="8.214855026453733">
        <ele>1187.9921875</ele>
        <time>2019-08-21T14:10:32Z</time>
      </trkpt>
      <trkpt lat="59.287868002429605" lon="8.214855026453733">
        <ele>1187.984375</ele>
        <time>2019-08-21T14:10:33Z</time>
      </trkpt>
      <trkpt lat="59.287868002429605" lon="8.214855026453733">
        <ele>1187.984375</ele>
        <time>2019-08-21T14:10:34Z</time>
      </trkpt>
      <trkpt lat="59.287868002429605" lon="8.214857038110495">
        <ele>1187.98828125</ele>
        <time>2019-08-21T14:10:35Z</time>
      </trkpt>
      <trkpt lat="59.287866996601224" lon="8.214857038110495">
        <ele>1187.984375</ele>
        <time>2019-08-21T14:10:36Z</time>
      </trkpt>
      <trkpt lat="59.287866996601224" lon="8.214857038110495">
        <ele>1187.984375</ele>
        <time>2019-08-21T14:10:37Z</time>
      </trkpt>
      <trkpt lat="59.287866996601224" lon="8.214857038110495">
        <ele>1187.984375</ele>
        <time>2019-08-21T14:10:38Z</time>
      </trkpt>
      <trkpt lat="59.287866996601224" lon="8.214856032282114">
        <ele>1187.984375</ele>
        <time>2019-08-21T14:10:39Z</time>
      </trkpt>
      <trkpt lat="59.287865990772843" lon="8.214857960119844">
        <ele>1187.98046875</ele>
        <time>2019-08-21T14:10:40Z</time>
      </trkpt>
      <trkpt lat="59.287859033793211" lon="8.214858965948224">
        <ele>1187.94921875</ele>
        <time>2019-08-21T14:10:41Z</time>
      </trkpt>
      <trkpt lat="59.287854004651308" lon="8.214857960119844">
        <ele>1187.921875</ele>
        <time>2019-08-21T14:10:42Z</time>
      </trkpt>
      <trkpt lat="59.287848975509405" lon="8.214859971776605">
        <ele>1187.90234375</ele>
        <time>2019-08-21T14:10:43Z</time>
      </trkpt>
      <trkpt lat="59.287842018529773" lon="8.214859971776605">
        <ele>1187.8671875</ele>
        <time>2019-08-21T14:10:44Z</time>
      </trkpt>
      <trkpt lat="59.287833971902728" lon="8.214859971776605">
        <ele>1187.828125</ele>
        <time>2019-08-21T14:10:45Z</time>
      </trkpt>
      <trkpt lat="59.287786027416587" lon="8.214861983433366">
        <ele>1187.59375</ele>
        <time>2019-08-21T14:10:47Z</time>
      </trkpt>
      <trkpt lat="59.287759959697723" lon="8.214857038110495">
        <ele>1187.41796875</ele>
        <time>2019-08-21T14:10:48Z</time>
      </trkpt>
      <trkpt lat="59.287734981626272" lon="8.214833987876773">
        <ele>1187.06640625</ele>
        <time>2019-08-21T14:10:49Z</time>
      </trkpt>
      <trkpt lat="59.287706986069679" lon="8.214818984270096">
        <ele>1186.6953125</ele>
        <time>2019-08-21T14:10:50Z</time>
      </trkpt>
      <trkpt lat="59.287681002169847" lon="8.214802974835038">
        <ele>1186.34375</ele>
        <time>2019-08-21T14:10:51Z</time>
      </trkpt>
      <trkpt lat="59.287655018270016" lon="8.214797023683786">
        <ele>1186.01953125</ele>
        <time>2019-08-21T14:10:52Z</time>
      </trkpt>
      <trkpt lat="59.287631968036294" lon="8.214796017855406">
        <ele>1185.73828125</ele>
        <time>2019-08-21T14:10:53Z</time>
      </trkpt>
      <trkpt lat="59.287615958601236" lon="8.214812027290463">
        <ele>1185.578125</ele>
        <time>2019-08-21T14:10:54Z</time>
      </trkpt>
      <trkpt lat="59.287606989964843" lon="8.214844968169928">
        <ele>1185.54296875</ele>
        <time>2019-08-21T14:10:55Z</time>
      </trkpt>
      <trkpt lat="59.287603972479701" lon="8.214872963726521">
        <ele>1185.56640625</ele>
        <time>2019-08-21T14:10:56Z</time>
      </trkpt>
      <trkpt lat="59.28760003298521" lon="8.214946975931525">
        <ele>1185.68359375</ele>
        <time>2019-08-21T14:10:58Z</time>
      </trkpt>
      <trkpt lat="59.287587963044643" lon="8.214970026165247">
        <ele>1185.5859375</ele>
        <time>2019-08-21T14:10:59Z</time>
      </trkpt>
      <trkpt lat="59.287575976923108" lon="8.214996010065079">
        <ele>1185.4921875</ele>
        <time>2019-08-21T14:11:00Z</time>
      </trkpt>
      <trkpt lat="59.287569019943476" lon="8.215035991743207">
        <ele>1185.27734375</ele>
        <time>2019-08-21T14:11:01Z</time>
      </trkpt>
      <trkpt lat="59.28755996748805" lon="8.215083014219999">
        <ele>1185.01171875</ele>
        <time>2019-08-21T14:11:02Z</time>
      </trkpt>
      <trkpt lat="59.287550998851657" lon="8.215130036696792">
        <ele>1184.75</ele>
        <time>2019-08-21T14:11:03Z</time>
      </trkpt>
      <trkpt lat="59.287544041872025" lon="8.215158032253385">
        <ele>1184.5703125</ele>
        <time>2019-08-21T14:11:04Z</time>
      </trkpt>
      <trkpt lat="59.287533983588219" lon="8.215177981182933">
        <ele>1184.38671875</ele>
        <time>2019-08-21T14:11:05Z</time>
      </trkpt>
      <trkpt lat="59.287517974153161" lon="8.215204970911145">
        <ele>1184.1015625</ele>
        <time>2019-08-21T14:11:06Z</time>
      </trkpt>
      <trkpt lat="59.287499031051993" lon="8.215241013094783">
        <ele>1183.75390625</ele>
        <time>2019-08-21T14:11:07Z</time>
      </trkpt>
      <trkpt lat="59.287483021616936" lon="8.215276971459389">
        <ele>1183.4296875</ele>
        <time>2019-08-21T14:11:08Z</time>
      </trkpt>
      <trkpt lat="59.287467012181878" lon="8.215322988107801">
        <ele>1182.953125</ele>
        <time>2019-08-21T14:11:09Z</time>
      </trkpt>
      <trkpt lat="59.287445973604918" lon="8.215354001149535">
        <ele>1182.4765625</ele>
        <time>2019-08-21T14:11:10Z</time>
      </trkpt>
      <trkpt lat="59.28742703050375" lon="8.215360036119819">
        <ele>1182.171875</ele>
        <time>2019-08-21T14:11:11Z</time>
      </trkpt>
      <trkpt lat="59.287403980270028" lon="8.215360036119819">
        <ele>1181.84375</ele>
        <time>2019-08-21T14:11:12Z</time>
      </trkpt>
      <trkpt lat="59.287377996370196" lon="8.215360036119819">
        <ele>1181.4765625</ele>
        <time>2019-08-21T14:11:13Z</time>
      </trkpt>
      <trkpt lat="59.287359975278378" lon="8.215369004756212">
        <ele>1181.15625</ele>
        <time>2019-08-21T14:11:14Z</time>
      </trkpt>
      <trkpt lat="59.28734396584332" lon="8.215394988656044">
        <ele>1180.73828125</ele>
        <time>2019-08-21T14:11:15Z</time>
      </trkpt>
      <trkpt lat="59.287329968065023" lon="8.215415021404624">
        <ele>1180.38671875</ele>
        <time>2019-08-21T14:11:16Z</time>
      </trkpt>
      <trkpt lat="59.287313958629966" lon="8.215417033061385">
        <ele>1180.1328125</ele>
        <time>2019-08-21T14:11:17Z</time>
      </trkpt>
      <trkpt lat="59.287290992215276" lon="8.215422984212637">
        <ele>1179.74609375</ele>
        <time>2019-08-21T14:11:18Z</time>
      </trkpt>
      <trkpt lat="59.287269031628966" lon="8.215433964505792">
        <ele>1179.328125</ele>
        <time>2019-08-21T14:11:19Z</time>
      </trkpt>
      <trkpt lat="59.287256961688399" lon="8.215453997254372">
        <ele>1178.98046875</ele>
        <time>2019-08-21T14:11:20Z</time>
      </trkpt>
      <trkpt lat="59.287242963910103" lon="8.215478975325823">
        <ele>1178.55859375</ele>
        <time>2019-08-21T14:11:21Z</time>
      </trkpt>
      <trkpt lat="59.287221003323793" lon="8.215505965054035">
        <ele>1177.98046875</ele>
        <time>2019-08-21T14:11:22Z</time>
      </trkpt>
      <trkpt lat="59.287196025252342" lon="8.215538989752531">
        <ele>1177.2265625</ele>
        <time>2019-08-21T14:11:23Z</time>
      </trkpt>
      <trkpt lat="59.28716903552413" lon="8.215560028329492">
        <ele>1176.6953125</ele>
        <time>2019-08-21T14:11:24Z</time>
      </trkpt>
      <trkpt lat="59.287145985290408" lon="8.215574026107788">
        <ele>1176.37109375</ele>
        <time>2019-08-21T14:11:25Z</time>
      </trkpt>
      <trkpt lat="59.28712603636086" lon="8.215580983087421">
        <ele>1176.05078125</ele>
        <time>2019-08-21T14:11:26Z</time>
      </trkpt>
      <trkpt lat="59.28710700944066" lon="8.215592969208956">
        <ele>1175.80078125</ele>
        <time>2019-08-21T14:11:27Z</time>
      </trkpt>
      <trkpt lat="59.287093011662364" lon="8.215619958937168">
        <ele>1175.80859375</ele>
        <time>2019-08-21T14:11:28Z</time>
      </trkpt>
      <trkpt lat="59.287074990570545" lon="8.215660024434328">
        <ele>1175.890625</ele>
        <time>2019-08-21T14:11:29Z</time>
      </trkpt>
      <trkpt lat="59.287059986963868" lon="8.215691959485412">
        <ele>1175.96875</ele>
        <time>2019-08-21T14:11:30Z</time>
      </trkpt>
      <trkpt lat="59.287041965872049" lon="8.215728001669049">
        <ele>1176.05859375</ele>
        <time>2019-08-21T14:11:31Z</time>
      </trkpt>
      <trkpt lat="59.287022016942501" lon="8.215762032195926">
        <ele>1176.12109375</ele>
        <time>2019-08-21T14:11:32Z</time>
      </trkpt>
      <trkpt lat="59.287006007507443" lon="8.215787010267377">
        <ele>1176.1640625</ele>
        <time>2019-08-21T14:11:33Z</time>
      </trkpt>
      <trkpt lat="59.286986980587244" lon="8.21581500582397">
        <ele>1176.21875</ele>
        <time>2019-08-21T14:11:34Z</time>
      </trkpt>
      <trkpt lat="59.286968037486076" lon="8.215836966410279">
        <ele>1176.1640625</ele>
        <time>2019-08-21T14:11:35Z</time>
      </trkpt>
      <trkpt lat="59.286952028051019" lon="8.21585800498724">
        <ele>1176.09375</ele>
        <time>2019-08-21T14:11:36Z</time>
      </trkpt>
      <trkpt lat="59.286933001130819" lon="8.215888012200594">
        <ele>1176.0625</ele>
        <time>2019-08-21T14:11:37Z</time>
      </trkpt>
      <trkpt lat="59.286914980039001" lon="8.215912990272045">
        <ele>1175.7890625</ele>
        <time>2019-08-21T14:11:38Z</time>
      </trkpt>
      <trkpt lat="59.286895031109452" lon="8.215938974171877">
        <ele>1175.484375</ele>
        <time>2019-08-21T14:11:39Z</time>
      </trkpt>
      <trkpt lat="59.286871980875731" lon="8.215961018577218">
        <ele>1175.0859375</ele>
        <time>2019-08-21T14:11:40Z</time>
      </trkpt>
      <trkpt lat="59.286850020289421" lon="8.215952971950173">
        <ele>1174.45703125</ele>
        <time>2019-08-21T14:11:41Z</time>
      </trkpt>
      <trkpt lat="59.286824036389589" lon="8.215938974171877">
        <ele>1173.6640625</ele>
        <time>2019-08-21T14:11:42Z</time>
      </trkpt>
      <trkpt lat="59.286796962842345" lon="8.21592497639358">
        <ele>1172.828125</ele>
        <time>2019-08-21T14:11:43Z</time>
      </trkpt>
      <trkpt lat="59.286781959235668" lon="8.215909972786903">
        <ele>1172.2890625</ele>
        <time>2019-08-21T14:11:44Z</time>
      </trkpt>
      <trkpt lat="59.286771984770894" lon="8.21590200997889">
        <ele>1171.94921875</ele>
        <time>2019-08-21T14:11:45Z</time>
      </trkpt>
      <trkpt lat="59.286765027791262" lon="8.215897986665368">
        <ele>1171.72265625</ele>
        <time>2019-08-21T14:11:46Z</time>
      </trkpt>
      <trkpt lat="59.286750024184585" lon="8.215894969180226">
        <ele>1171.296875</ele>
        <time>2019-08-21T14:11:47Z</time>
      </trkpt>
      <trkpt lat="59.286725968122482" lon="8.215887006372213">
        <ele>1170.57421875</ele>
        <time>2019-08-21T14:11:48Z</time>
      </trkpt>
      <trkpt lat="59.286708030849695" lon="8.21587803773582">
        <ele>1170</ele>
        <time>2019-08-21T14:11:49Z</time>
      </trkpt>
      <trkpt lat="59.286684980615973" lon="8.215888012200594">
        <ele>1169.5</ele>
        <time>2019-08-21T14:11:50Z</time>
      </trkpt>
      <trkpt lat="59.286667965352535" lon="8.215886000543833">
        <ele>1169.02734375</ele>
        <time>2019-08-21T14:11:51Z</time>
      </trkpt>
      <trkpt lat="59.286652039736509" lon="8.215899998322129">
        <ele>1168.7421875</ele>
        <time>2019-08-21T14:11:52Z</time>
      </trkpt>
      <trkpt lat="59.286629995331168" lon="8.215927993878722">
        <ele>1168.2890625</ele>
        <time>2019-08-21T14:11:53Z</time>
      </trkpt>
      <trkpt lat="59.286609962582588" lon="8.215956995263696">
        <ele>1167.94921875</ele>
        <time>2019-08-21T14:11:54Z</time>
      </trkpt>
      <trkpt lat="59.286594036966562" lon="8.215974010527134">
        <ele>1167.61328125</ele>
        <time>2019-08-21T14:11:55Z</time>
      </trkpt>
      <trkpt lat="59.286580961197615" lon="8.21596403606236">
        <ele>1167.01953125</ele>
        <time>2019-08-21T14:11:56Z</time>
      </trkpt>
      <trkpt lat="59.286566041409969" lon="8.215978033840656">
        <ele>1166.69140625</ele>
        <time>2019-08-21T14:11:57Z</time>
      </trkpt>
      <trkpt lat="59.286551959812641" lon="8.215998988598585">
        <ele>1166.5078125</ele>
        <time>2019-08-21T14:11:58Z</time>
      </trkpt>
      <trkpt lat="59.286538967862725" lon="8.21603000164032">
        <ele>1166.51953125</ele>
        <time>2019-08-21T14:11:59Z</time>
      </trkpt>
      <trkpt lat="59.286524970084429" lon="8.216070989146829">
        <ele>1166.671875</ele>
        <time>2019-08-21T14:12:00Z</time>
      </trkpt>
      <trkpt lat="59.286511978134513" lon="8.216108037158847">
        <ele>1166.80859375</ele>
        <time>2019-08-21T14:12:01Z</time>
      </trkpt>
      <trkpt lat="59.286497980356216" lon="8.21613997220993">
        <ele>1166.76953125</ele>
        <time>2019-08-21T14:12:02Z</time>
      </trkpt>
      <trkpt lat="59.286481970921159" lon="8.216162016615272">
        <ele>1166.56640625</ele>
        <time>2019-08-21T14:12:03Z</time>
      </trkpt>
      <trkpt lat="59.286464033648372" lon="8.216193029657006">
        <ele>1166.453125</ele>
        <time>2019-08-21T14:12:04Z</time>
      </trkpt>
      <trkpt lat="59.286444000899792" lon="8.216221025213599">
        <ele>1166.2734375</ele>
        <time>2019-08-21T14:12:05Z</time>
      </trkpt>
      <trkpt lat="59.286425979807973" lon="8.216238962486386">
        <ele>1166.03515625</ele>
        <time>2019-08-21T14:12:06Z</time>
      </trkpt>
      <trkpt lat="59.286403013393283" lon="8.216260001063347">
        <ele>1165.73046875</ele>
        <time>2019-08-21T14:12:07Z</time>
      </trkpt>
      <trkpt lat="59.286379963159561" lon="8.216281039640307">
        <ele>1165.453125</ele>
        <time>2019-08-21T14:12:08Z</time>
      </trkpt>
      <trkpt lat="59.286360014230013" lon="8.21631096303463">
        <ele>1165.4375</ele>
        <time>2019-08-21T14:12:09Z</time>
      </trkpt>
      <trkpt lat="59.286337969824672" lon="8.216341976076365">
        <ele>1165.4296875</ele>
        <time>2019-08-21T14:12:10Z</time>
      </trkpt>
      <trkpt lat="59.286319026723504" lon="8.216368965804577">
        <ele>1165.46484375</ele>
        <time>2019-08-21T14:12:11Z</time>
      </trkpt>
      <trkpt lat="59.286305028945208" lon="8.21639402769506">
        <ele>1165.56640625</ele>
        <time>2019-08-21T14:12:12Z</time>
      </trkpt>
      <trkpt lat="59.286282984539866" lon="8.216408025473356">
        <ele>1165.28125</ele>
        <time>2019-08-21T14:12:13Z</time>
      </trkpt>
      <trkpt lat="59.286260018125176" lon="8.21643702685833">
        <ele>1165.23046875</ele>
        <time>2019-08-21T14:12:14Z</time>
      </trkpt>
      <trkpt lat="59.286244008690119" lon="8.2164609991014">
        <ele>1165.265625</ele>
        <time>2019-08-21T14:12:15Z</time>
      </trkpt>
      <trkpt lat="59.286235040053725" lon="8.216468961909413">
        <ele>1165.203125</ele>
        <time>2019-08-21T14:12:16Z</time>
      </trkpt>
      <trkpt lat="59.286231016740203" lon="8.216479020193219">
        <ele>1165.28125</ele>
        <time>2019-08-21T14:12:17Z</time>
      </trkpt>
      <trkpt lat="59.286231016740203" lon="8.216473991051316">
        <ele>1165.19921875</ele>
        <time>2019-08-21T14:12:18Z</time>
      </trkpt>
      <trkpt lat="59.286230010911822" lon="8.216469967737794">
        <ele>1165.109375</ele>
        <time>2019-08-21T14:12:19Z</time>
      </trkpt>
      <trkpt lat="59.286226993426681" lon="8.216473991051316">
        <ele>1165.11328125</ele>
        <time>2019-08-21T14:12:20Z</time>
      </trkpt>
      <trkpt lat="59.2862259875983" lon="8.216472985222936">
        <ele>1165.07421875</ele>
        <time>2019-08-21T14:12:21Z</time>
      </trkpt>
      <trkpt lat="59.2862259875983" lon="8.216472985222936">
        <ele>1165.07421875</ele>
        <time>2019-08-21T14:12:22Z</time>
      </trkpt>
      <trkpt lat="59.2862259875983" lon="8.216472985222936">
        <ele>1165.07421875</ele>
        <time>2019-08-21T14:12:23Z</time>
      </trkpt>
      <trkpt lat="59.2862259875983" lon="8.216471979394555">
        <ele>1165.05859375</ele>
        <time>2019-08-21T14:12:24Z</time>
      </trkpt>
      <trkpt lat="59.2862259875983" lon="8.216471979394555">
        <ele>1165.05859375</ele>
        <time>2019-08-21T14:12:25Z</time>
      </trkpt>
      <trkpt lat="59.2862259875983" lon="8.216471979394555">
        <ele>1165.05859375</ele>
        <time>2019-08-21T14:12:26Z</time>
      </trkpt>
      <trkpt lat="59.2862259875983" lon="8.216471979394555">
        <ele>1165.05859375</ele>
        <time>2019-08-21T14:12:27Z</time>
      </trkpt>
      <trkpt lat="59.2862259875983" lon="8.216471979394555">
        <ele>1165.05859375</ele>
        <time>2019-08-21T14:12:28Z</time>
      </trkpt>
      <trkpt lat="59.2862259875983" lon="8.216471979394555">
        <ele>1165.05859375</ele>
        <time>2019-08-21T14:12:29Z</time>
      </trkpt>
      <trkpt lat="59.2862259875983" lon="8.216471979394555">
        <ele>1165.05859375</ele>
        <time>2019-08-21T14:12:30Z</time>
      </trkpt>
      <trkpt lat="59.2862259875983" lon="8.216472985222936">
        <ele>1165.07421875</ele>
        <time>2019-08-21T14:12:31Z</time>
      </trkpt>
      <trkpt lat="59.2862259875983" lon="8.216472985222936">
        <ele>1165.07421875</ele>
        <time>2019-08-21T14:12:32Z</time>
      </trkpt>
      <trkpt lat="59.286224981769919" lon="8.216476002708077">
        <ele>1165.1015625</ele>
        <time>2019-08-21T14:12:33Z</time>
      </trkpt>
      <trkpt lat="59.286224981769919" lon="8.216476002708077">
        <ele>1165.1015625</ele>
        <time>2019-08-21T14:12:34Z</time>
      </trkpt>
      <trkpt lat="59.286208972334862" lon="8.216487988829613">
        <ele>1164.9609375</ele>
        <time>2019-08-21T14:12:35Z</time>
      </trkpt>
      <trkpt lat="59.286192040890455" lon="8.216498969122767">
        <ele>1164.78515625</ele>
        <time>2019-08-21T14:12:36Z</time>
      </trkpt>
      <trkpt lat="59.286174019798636" lon="8.216521013528109">
        <ele>1164.7890625</ele>
        <time>2019-08-21T14:12:37Z</time>
      </trkpt>
      <trkpt lat="59.286154992878437" lon="8.216543979942799">
        <ele>1164.80078125</ele>
        <time>2019-08-21T14:12:38Z</time>
      </trkpt>
      <trkpt lat="59.286134960129857" lon="8.21656703017652">
        <ele>1164.80859375</ele>
        <time>2019-08-21T14:12:39Z</time>
      </trkpt>
      <trkpt lat="59.286110987886786" lon="8.216581027954817">
        <ele>1164.5859375</ele>
        <time>2019-08-21T14:12:40Z</time>
      </trkpt>
      <trkpt lat="59.286086009815335" lon="8.216599971055985">
        <ele>1164.0390625</ele>
        <time>2019-08-21T14:12:41Z</time>
      </trkpt>
      <trkpt lat="59.286068994551897" lon="8.216622015461326">
        <ele>1163.58203125</ele>
        <time>2019-08-21T14:12:42Z</time>
      </trkpt>
      <trkpt lat="59.286045022308826" lon="8.216641964390874">
        <ele>1162.7109375</ele>
        <time>2019-08-21T14:12:43Z</time>
      </trkpt>
      <trkpt lat="59.286016020923853" lon="8.216641964390874">
        <ele>1161.234375</ele>
        <time>2019-08-21T14:12:44Z</time>
      </trkpt>
      <trkpt lat="59.285993976518512" lon="8.216640036553145">
        <ele>1160.08203125</ele>
        <time>2019-08-21T14:12:45Z</time>
      </trkpt>
      <trkpt lat="59.285971010103822" lon="8.216665014624596">
        <ele>1159.24609375</ele>
        <time>2019-08-21T14:12:46Z</time>
      </trkpt>
      <trkpt lat="59.285944020375609" lon="8.216685969382525">
        <ele>1158.1171875</ele>
        <time>2019-08-21T14:12:47Z</time>
      </trkpt>
      <trkpt lat="59.285918036475778" lon="8.216698039323092">
        <ele>1156.98046875</ele>
        <time>2019-08-21T14:12:48Z</time>
      </trkpt>
      <trkpt lat="59.285893980413675" lon="8.216723017394543">
        <ele>1156.17578125</ele>
        <time>2019-08-21T14:12:49Z</time>
      </trkpt>
      <trkpt lat="59.285872019827366" lon="8.216751012951136">
        <ele>1155.59765625</ele>
        <time>2019-08-21T14:12:50Z</time>
      </trkpt>
      <trkpt lat="59.285848969593644" lon="8.216772973537445">
        <ele>1154.9375</ele>
        <time>2019-08-21T14:12:51Z</time>
      </trkpt>
      <trkpt lat="59.285828014835715" lon="8.216794012114406">
        <ele>1154.41015625</ele>
        <time>2019-08-21T14:12:52Z</time>
      </trkpt>
      <trkpt lat="59.285814017057419" lon="8.216807004064322">
        <ele>1154.10546875</ele>
        <time>2019-08-21T14:12:53Z</time>
      </trkpt>
      <trkpt lat="59.285804964601994" lon="8.216826030984521">
        <ele>1154.140625</ele>
        <time>2019-08-21T14:12:54Z</time>
      </trkpt>
      <trkpt lat="59.285792978480458" lon="8.216853020712733">
        <ele>1154.2421875</ele>
        <time>2019-08-21T14:12:55Z</time>
      </trkpt>
      <trkpt lat="59.285778980702162" lon="8.216875987127423">
        <ele>1154.19921875</ele>
        <time>2019-08-21T14:12:56Z</time>
      </trkpt>
      <trkpt lat="59.285762971267104" lon="8.216898031532764">
        <ele>1154.078125</ele>
        <time>2019-08-21T14:12:57Z</time>
      </trkpt>
      <trkpt lat="59.285745033994317" lon="8.216916974633932">
        <ele>1153.83984375</ele>
        <time>2019-08-21T14:12:58Z</time>
      </trkpt>
      <trkpt lat="59.285731036216021" lon="8.216924015432596">
        <ele>1153.49609375</ele>
        <time>2019-08-21T14:12:59Z</time>
      </trkpt>
      <trkpt lat="59.285720977932215" lon="8.216913035139442">
        <ele>1152.8984375</ele>
        <time>2019-08-21T14:13:00Z</time>
      </trkpt>
      <trkpt lat="59.285717038437724" lon="8.216905994340777">
        <ele>1152.59765625</ele>
        <time>2019-08-21T14:13:01Z</time>
      </trkpt>
      <trkpt lat="59.285716032609344" lon="8.216903982684016">
        <ele>1152.51953125</ele>
        <time>2019-08-21T14:13:02Z</time>
      </trkpt>
      <trkpt lat="59.285714020952582" lon="8.216907000169158">
        <ele>1152.51171875</ele>
        <time>2019-08-21T14:13:03Z</time>
      </trkpt>
      <trkpt lat="59.285716032609344" lon="8.216904988512397">
        <ele>1152.5390625</ele>
        <time>2019-08-21T14:13:04Z</time>
      </trkpt>
      <trkpt lat="59.285700023174286" lon="8.216902976855636">
        <ele>1151.91796875</ele>
        <time>2019-08-21T14:13:06Z</time>
      </trkpt>
      <trkpt lat="59.285690970718861" lon="8.216895014047623">
        <ele>1151.41015625</ele>
        <time>2019-08-21T14:13:07Z</time>
      </trkpt>
      <trkpt lat="59.285683007910848" lon="8.216882022097707">
        <ele>1150.82421875</ele>
        <time>2019-08-21T14:13:08Z</time>
      </trkpt>
      <trkpt lat="59.285678984597325" lon="8.216870035976172">
        <ele>1150.3984375</ele>
        <time>2019-08-21T14:13:09Z</time>
      </trkpt>
      <trkpt lat="59.285675967112184" lon="8.216871041804552">
        <ele>1150.3125</ele>
        <time>2019-08-21T14:13:10Z</time>
      </trkpt>
      <trkpt lat="59.285669010132551" lon="8.216869030147791">
        <ele>1150.01171875</ele>
        <time>2019-08-21T14:13:11Z</time>
      </trkpt>
      <trkpt lat="59.285662975162268" lon="8.216858971863985">
        <ele>1149.55078125</ele>
        <time>2019-08-21T14:13:12Z</time>
      </trkpt>
      <trkpt lat="59.285662975162268" lon="8.216857966035605">
        <ele>1149.52734375</ele>
        <time>2019-08-21T14:13:13Z</time>
      </trkpt>
      <trkpt lat="59.285662975162268" lon="8.216856960207224">
        <ele>1149.50390625</ele>
        <time>2019-08-21T14:13:14Z</time>
      </trkpt>
      <trkpt lat="59.285662975162268" lon="8.216856960207224">
        <ele>1149.50390625</ele>
        <time>2019-08-21T14:13:15Z</time>
      </trkpt>
      <trkpt lat="59.285662975162268" lon="8.216857966035605">
        <ele>1149.52734375</ele>
        <time>2019-08-21T14:13:16Z</time>
      </trkpt>
      <trkpt lat="59.285662975162268" lon="8.216856960207224">
        <ele>1149.50390625</ele>
        <time>2019-08-21T14:13:17Z</time>
      </trkpt>
      <trkpt lat="59.285663980990648" lon="8.216856038197875">
        <ele>1149.51953125</ele>
        <time>2019-08-21T14:13:18Z</time>
      </trkpt>
      <trkpt lat="59.285662975162268" lon="8.216856038197875">
        <ele>1149.48046875</ele>
        <time>2019-08-21T14:13:19Z</time>
      </trkpt>
      <trkpt lat="59.285662975162268" lon="8.216856038197875">
        <ele>1149.48046875</ele>
        <time>2019-08-21T14:13:20Z</time>
      </trkpt>
      <trkpt lat="59.285662975162268" lon="8.216856038197875">
        <ele>1149.48046875</ele>
        <time>2019-08-21T14:13:21Z</time>
      </trkpt>
      <trkpt lat="59.285663980990648" lon="8.216856038197875">
        <ele>1149.51953125</ele>
        <time>2019-08-21T14:13:22Z</time>
      </trkpt>
      <trkpt lat="59.285663980990648" lon="8.216856038197875">
        <ele>1149.51953125</ele>
        <time>2019-08-21T14:13:23Z</time>
      </trkpt>
      <trkpt lat="59.285664986819029" lon="8.216862995177507">
        <ele>1149.71875</ele>
        <time>2019-08-21T14:13:24Z</time>
      </trkpt>
      <trkpt lat="59.285659035667777" lon="8.216915968805552">
        <ele>1150.75390625</ele>
        <time>2019-08-21T14:13:26Z</time>
      </trkpt>
      <trkpt lat="59.285656018182635" lon="8.216943964362145">
        <ele>1151.31640625</ele>
        <time>2019-08-21T14:13:27Z</time>
      </trkpt>
      <trkpt lat="59.285649983212352" lon="8.216972965747118">
        <ele>1151.828125</ele>
        <time>2019-08-21T14:13:28Z</time>
      </trkpt>
      <trkpt lat="59.285645037889481" lon="8.216995010152459">
        <ele>1152.2109375</ele>
        <time>2019-08-21T14:13:29Z</time>
      </trkpt>
      <trkpt lat="59.285639002919197" lon="8.217024011537433">
        <ele>1152.73828125</ele>
        <time>2019-08-21T14:13:30Z</time>
      </trkpt>
      <trkpt lat="59.285628022626042" lon="8.2170619815588">
        <ele>1153.33984375</ele>
        <time>2019-08-21T14:13:31Z</time>
      </trkpt>
      <trkpt lat="59.285620981827378" lon="8.217086959630251">
        <ele>1153.75390625</ele>
        <time>2019-08-21T14:13:32Z</time>
      </trkpt>
      <trkpt lat="59.285616958513856" lon="8.217106992378831">
        <ele>1154.14453125</ele>
        <time>2019-08-21T14:13:33Z</time>
      </trkpt>
      <trkpt lat="59.285615030676126" lon="8.217120990157127">
        <ele>1154.4453125</ele>
        <time>2019-08-21T14:13:34Z</time>
      </trkpt>
      <trkpt lat="59.285611007362604" lon="8.217127025127411">
        <ele>1154.4765625</ele>
        <time>2019-08-21T14:13:35Z</time>
      </trkpt>
      <trkpt lat="59.285606984049082" lon="8.217131970450282">
        <ele>1154.48046875</ele>
        <time>2019-08-21T14:13:36Z</time>
      </trkpt>
      <trkpt lat="59.285590974614024" lon="8.217181004583836">
        <ele>1155.28515625</ele>
        <time>2019-08-21T14:13:38Z</time>
      </trkpt>
      <trkpt lat="59.285584017634392" lon="8.217239007353783">
        <ele>1156.54296875</ele>
        <time>2019-08-21T14:13:39Z</time>
      </trkpt>
      <trkpt lat="59.285577982664108" lon="8.217289969325066">
        <ele>1157.5703125</ele>
        <time>2019-08-21T14:13:40Z</time>
      </trkpt>
      <trkpt lat="59.285576976835728" lon="8.217321988195181">
        <ele>1158.296875</ele>
        <time>2019-08-21T14:13:41Z</time>
      </trkpt>
      <trkpt lat="59.285574965178967" lon="8.217347972095013">
        <ele>1158.85546875</ele>
        <time>2019-08-21T14:13:42Z</time>
      </trkpt>
      <trkpt lat="59.285565996542573" lon="8.21738401427865">
        <ele>1159.4765625</ele>
        <time>2019-08-21T14:13:43Z</time>
      </trkpt>
      <trkpt lat="59.285559039562941" lon="8.217411004006863">
        <ele>1159.9453125</ele>
        <time>2019-08-21T14:13:44Z</time>
      </trkpt>
      <trkpt lat="59.285544035956264" lon="8.217474035918713">
        <ele>1161.09765625</ele>
        <time>2019-08-21T14:13:46Z</time>
      </trkpt>
      <trkpt lat="59.285535989329219" lon="8.217522986233234">
        <ele>1161.890625</ele>
        <time>2019-08-21T14:13:47Z</time>
      </trkpt>
      <trkpt lat="59.285526014864445" lon="8.21757797151804">
        <ele>1162.6640625</ele>
        <time>2019-08-21T14:13:48Z</time>
      </trkpt>
      <trkpt lat="59.285516962409019" lon="8.217636980116367">
        <ele>1163.56640625</ele>
        <time>2019-08-21T14:13:49Z</time>
      </trkpt>
      <trkpt lat="59.285504976287484" lon="8.217679979279637">
        <ele>1164.10546875</ele>
        <time>2019-08-21T14:13:50Z</time>
      </trkpt>
      <trkpt lat="59.285484021529555" lon="8.217718033120036">
        <ele>1164.3671875</ele>
        <time>2019-08-21T14:13:51Z</time>
      </trkpt>
      <trkpt lat="59.285462982952595" lon="8.2177509739995">
        <ele>1164.55859375</ele>
        <time>2019-08-21T14:13:52Z</time>
      </trkpt>
      <trkpt lat="59.285441022366285" lon="8.217777963727713">
        <ele>1164.609375</ele>
        <time>2019-08-21T14:13:53Z</time>
      </trkpt>
      <trkpt lat="59.285420989617705" lon="8.217811994254589">
        <ele>1164.78125</ele>
        <time>2019-08-21T14:13:54Z</time>
      </trkpt>
      <trkpt lat="59.285400034859776" lon="8.217840995639563">
        <ele>1164.859375</ele>
        <time>2019-08-21T14:13:55Z</time>
      </trkpt>
      <trkpt lat="59.285387964919209" lon="8.217873014509678">
        <ele>1165.19140625</ele>
        <time>2019-08-21T14:13:56Z</time>
      </trkpt>
      <trkpt lat="59.285380002111197" lon="8.217911990359426">
        <ele>1165.7421875</ele>
        <time>2019-08-21T14:13:57Z</time>
      </trkpt>
      <trkpt lat="59.285358041524887" lon="8.217947026714683">
        <ele>1165.953125</ele>
        <time>2019-08-21T14:13:58Z</time>
      </trkpt>
      <trkpt lat="59.285342032089829" lon="8.217991031706333">
        <ele>1166.46484375</ele>
        <time>2019-08-21T14:13:59Z</time>
      </trkpt>
      <trkpt lat="59.285329962149262" lon="8.218032019212842">
        <ele>1167.01171875</ele>
        <time>2019-08-21T14:14:00Z</time>
      </trkpt>
      <trkpt lat="59.285314036533237" lon="8.218066971749067">
        <ele>1167.30859375</ele>
        <time>2019-08-21T14:14:01Z</time>
      </trkpt>
      <trkpt lat="59.285298027098179" lon="8.218106031417847">
        <ele>1167.60546875</ele>
        <time>2019-08-21T14:14:02Z</time>
      </trkpt>
      <trkpt lat="59.285282017663121" lon="8.218138972297311">
        <ele>1167.8125</ele>
        <time>2019-08-21T14:14:03Z</time>
      </trkpt>
      <trkpt lat="59.285266008228064" lon="8.218171996995807">
        <ele>1168.02734375</ele>
        <time>2019-08-21T14:14:04Z</time>
      </trkpt>
      <trkpt lat="59.285255027934909" lon="8.218194963410497">
        <ele>1168.171875</ele>
        <time>2019-08-21T14:14:05Z</time>
      </trkpt>
      <trkpt lat="59.285238012671471" lon="8.21822295896709">
        <ele>1168.2578125</ele>
        <time>2019-08-21T14:14:06Z</time>
      </trkpt>
      <trkpt lat="59.285218985751271" lon="8.218253972008824">
        <ele>1168.30859375</ele>
        <time>2019-08-21T14:14:07Z</time>
      </trkpt>
      <trkpt lat="59.285205993801355" lon="8.218298982828856">
        <ele>1168.64453125</ele>
        <time>2019-08-21T14:14:08Z</time>
      </trkpt>
      <trkpt lat="59.285185039043427" lon="8.21835296228528">
        <ele>1168.6640625</ele>
        <time>2019-08-21T14:14:09Z</time>
      </trkpt>
      <trkpt lat="59.285166012123227" lon="8.21839302778244">
        <ele>1168.33984375</ele>
        <time>2019-08-21T14:14:10Z</time>
      </trkpt>
      <trkpt lat="59.285143967717886" lon="8.218429991975427">
        <ele>1167.80859375</ele>
        <time>2019-08-21T14:14:11Z</time>
      </trkpt>
      <trkpt lat="59.285127036273479" lon="8.21845798753202">
        <ele>1167.3203125</ele>
        <time>2019-08-21T14:14:12Z</time>
      </trkpt>
      <trkpt lat="59.285117983818054" lon="8.218491012230516">
        <ele>1167.0390625</ele>
        <time>2019-08-21T14:14:13Z</time>
      </trkpt>
      <trkpt lat="59.285105997696519" lon="8.218533005565405">
        <ele>1166.6015625</ele>
        <time>2019-08-21T14:14:14Z</time>
      </trkpt>
      <trkpt lat="59.285090994089842" lon="8.218571981415153">
        <ele>1165.9765625</ele>
        <time>2019-08-21T14:14:15Z</time>
      </trkpt>
      <trkpt lat="59.285075990483165" lon="8.218596959486604">
        <ele>1165.30078125</ele>
        <time>2019-08-21T14:14:16Z</time>
      </trkpt>
      <trkpt lat="59.285070039331913" lon="8.218614980578423">
        <ele>1165.1328125</ele>
        <time>2019-08-21T14:14:17Z</time>
      </trkpt>
      <trkpt lat="59.285064004361629" lon="8.21863099001348">
        <ele>1165.0234375</ele>
        <time>2019-08-21T14:14:18Z</time>
      </trkpt>
      <trkpt lat="59.285055035725236" lon="8.218648005276918">
        <ele>1164.80859375</ele>
        <time>2019-08-21T14:14:19Z</time>
      </trkpt>
      <trkpt lat="59.285041037946939" lon="8.218658985570073">
        <ele>1164.34375</ele>
        <time>2019-08-21T14:14:20Z</time>
      </trkpt>
      <trkpt lat="59.285030979663134" lon="8.218670971691608">
        <ele>1164.0625</ele>
        <time>2019-08-21T14:14:21Z</time>
      </trkpt>
      <trkpt lat="59.28502201102674" lon="8.21869301609695">
        <ele>1163.9375</ele>
        <time>2019-08-21T14:14:22Z</time>
      </trkpt>
      <trkpt lat="59.285016981884837" lon="8.218712965026498">
        <ele>1163.9609375</ele>
        <time>2019-08-21T14:14:23Z</time>
      </trkpt>
      <trkpt lat="59.285013964399695" lon="8.2187370210886">
        <ele>1164.11328125</ele>
        <time>2019-08-21T14:14:24Z</time>
      </trkpt>
      <trkpt lat="59.285002984106541" lon="8.218760993331671">
        <ele>1163.9765625</ele>
        <time>2019-08-21T14:14:25Z</time>
      </trkpt>
      <trkpt lat="59.284990997985005" lon="8.218761999160051">
        <ele>1163.55078125</ele>
        <time>2019-08-21T14:14:26Z</time>
      </trkpt>
      <trkpt lat="59.284980017691851" lon="8.218751018866897">
        <ele>1163.08203125</ele>
        <time>2019-08-21T14:14:27Z</time>
      </trkpt>
      <trkpt lat="59.284966019913554" lon="8.218749007210136">
        <ele>1162.640625</ele>
        <time>2019-08-21T14:14:28Z</time>
      </trkpt>
      <trkpt lat="59.284953027963638" lon="8.218739032745361">
        <ele>1162.1328125</ele>
        <time>2019-08-21T14:14:29Z</time>
      </trkpt>
      <trkpt lat="59.284941041842103" lon="8.218725034967065">
        <ele>1161.59765625</ele>
        <time>2019-08-21T14:14:30Z</time>
      </trkpt>
      <trkpt lat="59.284920003265142" lon="8.218696033582091">
        <ele>1160.5859375</ele>
        <time>2019-08-21T14:14:32Z</time>
      </trkpt>
      <trkpt lat="59.284911034628749" lon="8.218682035803795">
        <ele>1160.125</ele>
        <time>2019-08-21T14:14:33Z</time>
      </trkpt>
      <trkpt lat="59.284900976344943" lon="8.218678012490273">
        <ele>1159.76171875</ele>
        <time>2019-08-21T14:14:34Z</time>
      </trkpt>
      <trkpt lat="59.284897036850452" lon="8.218681029975414">
        <ele>1159.68359375</ele>
        <time>2019-08-21T14:14:35Z</time>
      </trkpt>
      <trkpt lat="59.284889996051788" lon="8.218691004440188">
        <ele>1159.60546875</ele>
        <time>2019-08-21T14:14:36Z</time>
      </trkpt>
      <trkpt lat="59.284884966909885" lon="8.218691004440188">
        <ele>1159.44921875</ele>
        <time>2019-08-21T14:14:37Z</time>
      </trkpt>
      <trkpt lat="59.284881027415395" lon="8.218689998611808">
        <ele>1159.31640625</ele>
        <time>2019-08-21T14:14:38Z</time>
      </trkpt>
      <trkpt lat="59.284874992445111" lon="8.218684969469905">
        <ele>1159.0625</ele>
        <time>2019-08-21T14:14:39Z</time>
      </trkpt>
      <trkpt lat="59.284874992445111" lon="8.218683963641524">
        <ele>1159.05078125</ele>
        <time>2019-08-21T14:14:40Z</time>
      </trkpt>
      <trkpt lat="59.284879015758634" lon="8.218668038025498">
        <ele>1158.953125</ele>
        <time>2019-08-21T14:14:41Z</time>
      </trkpt>
      <trkpt lat="59.284870969131589" lon="8.218649011105299">
        <ele>1158.4375</ele>
        <time>2019-08-21T14:14:42Z</time>
      </trkpt>
      <trkpt lat="59.284862000495195" lon="8.218625960871577">
        <ele>1157.8359375</ele>
        <time>2019-08-21T14:14:43Z</time>
      </trkpt>
      <trkpt lat="59.284856971353292" lon="8.21860701777041">
        <ele>1157.40625</ele>
        <time>2019-08-21T14:14:44Z</time>
      </trkpt>
      <trkpt lat="59.284853031858802" lon="8.218598971143365">
        <ele>1157.25</ele>
        <time>2019-08-21T14:14:45Z</time>
      </trkpt>
      <trkpt lat="59.284848002716899" lon="8.21858698502183">
        <ele>1157.13671875</ele>
        <time>2019-08-21T14:14:46Z</time>
      </trkpt>
      <trkpt lat="59.28484900854528" lon="8.218581033870578">
        <ele>1157.19140625</ele>
        <time>2019-08-21T14:14:47Z</time>
      </trkpt>
      <trkpt lat="59.28485001437366" lon="8.218573993071914">
        <ele>1157.25</ele>
        <time>2019-08-21T14:14:48Z</time>
      </trkpt>
      <trkpt lat="59.284853031858802" lon="8.218558989465237">
        <ele>1157.41015625</ele>
        <time>2019-08-21T14:14:49Z</time>
      </trkpt>
      <trkpt lat="59.284854959696531" lon="8.218541974201798">
        <ele>1157.54296875</ele>
        <time>2019-08-21T14:14:50Z</time>
      </trkpt>
      <trkpt lat="59.284856971353292" lon="8.218530993908644">
        <ele>1157.65625</ele>
        <time>2019-08-21T14:14:51Z</time>
      </trkpt>
      <trkpt lat="59.284858983010054" lon="8.218520013615489">
        <ele>1157.76953125</ele>
        <time>2019-08-21T14:14:52Z</time>
      </trkpt>
      <trkpt lat="59.284857977181673" lon="8.218520013615489">
        <ele>1157.734375</ele>
        <time>2019-08-21T14:14:53Z</time>
      </trkpt>
      <trkpt lat="59.284857977181673" lon="8.218518001958728">
        <ele>1157.7421875</ele>
        <time>2019-08-21T14:14:54Z</time>
      </trkpt>
      <trkpt lat="59.284857977181673" lon="8.218514984473586">
        <ele>1157.75390625</ele>
        <time>2019-08-21T14:14:55Z</time>
      </trkpt>
      <trkpt lat="59.284857977181673" lon="8.218512972816825">
        <ele>1157.76171875</ele>
        <time>2019-08-21T14:14:56Z</time>
      </trkpt>
      <trkpt lat="59.284855965524912" lon="8.21850199252367">
        <ele>1157.73828125</ele>
        <time>2019-08-21T14:14:57Z</time>
      </trkpt>
      <trkpt lat="59.284855965524912" lon="8.218496041372418">
        <ele>1157.76171875</ele>
        <time>2019-08-21T14:14:58Z</time>
      </trkpt>
      <trkpt lat="59.284856971353292" lon="8.218490006402135">
        <ele>1157.8203125</ele>
        <time>2019-08-21T14:14:59Z</time>
      </trkpt>
      <trkpt lat="59.284856971353292" lon="8.218484977260232">
        <ele>1157.84375</ele>
        <time>2019-08-21T14:15:00Z</time>
      </trkpt>
      <trkpt lat="59.284858983010054" lon="8.218472991138697">
        <ele>1157.96484375</ele>
        <time>2019-08-21T14:15:01Z</time>
      </trkpt>
      <trkpt lat="59.284862000495195" lon="8.218455975875258">
        <ele>1158.1484375</ele>
        <time>2019-08-21T14:15:02Z</time>
      </trkpt>
      <trkpt lat="59.284866023808718" lon="8.218438038602471">
        <ele>1158.375</ele>
        <time>2019-08-21T14:15:03Z</time>
      </trkpt>
      <trkpt lat="59.284868035465479" lon="8.218423034995794">
        <ele>1158.51953125</ele>
        <time>2019-08-21T14:15:04Z</time>
      </trkpt>
      <trkpt lat="59.284868035465479" lon="8.218417000025511">
        <ele>1158.54296875</ele>
        <time>2019-08-21T14:15:05Z</time>
      </trkpt>
      <trkpt lat="59.284868035465479" lon="8.218407025560737">
        <ele>1158.58984375</ele>
        <time>2019-08-21T14:15:06Z</time>
      </trkpt>
      <trkpt lat="59.284868035465479" lon="8.218400990590453">
        <ele>1158.6171875</ele>
        <time>2019-08-21T14:15:07Z</time>
      </trkpt>
      <trkpt lat="59.284868035465479" lon="8.21839302778244">
        <ele>1158.65234375</ele>
        <time>2019-08-21T14:15:08Z</time>
      </trkpt>
      <trkpt lat="59.284867029637098" lon="8.218390010297298">
        <ele>1158.625</ele>
        <time>2019-08-21T14:15:09Z</time>
      </trkpt>
      <trkpt lat="59.284865017980337" lon="8.218382969498634">
        <ele>1158.578125</ele>
        <time>2019-08-21T14:15:10Z</time>
      </trkpt>
      <trkpt lat="59.284862000495195" lon="8.21837198920548">
        <ele>1158.50390625</ele>
        <time>2019-08-21T14:15:11Z</time>
      </trkpt>
      <trkpt lat="59.284862000495195" lon="8.218369977548719">
        <ele>1158.51171875</ele>
        <time>2019-08-21T14:15:12Z</time>
      </trkpt>
      <trkpt lat="59.284863006323576" lon="8.218366038054228">
        <ele>1158.5703125</ele>
        <time>2019-08-21T14:15:13Z</time>
      </trkpt>
      <trkpt lat="59.284862000495195" lon="8.218362014740706">
        <ele>1158.546875</ele>
        <time>2019-08-21T14:15:14Z</time>
      </trkpt>
      <trkpt lat="59.284860994666815" lon="8.218362014740706">
        <ele>1158.50390625</ele>
        <time>2019-08-21T14:15:15Z</time>
      </trkpt>
      <trkpt lat="59.284858983010054" lon="8.218361008912325">
        <ele>1158.4296875</ele>
        <time>2019-08-21T14:15:16Z</time>
      </trkpt>
      <trkpt lat="59.284857977181673" lon="8.218360003083944">
        <ele>1158.390625</ele>
        <time>2019-08-21T14:15:17Z</time>
      </trkpt>
      <trkpt lat="59.284854037687182" lon="8.218365032225847">
        <ele>1158.2109375</ele>
        <time>2019-08-21T14:15:18Z</time>
      </trkpt>
      <trkpt lat="59.28484900854528" lon="8.218367965891957">
        <ele>1158</ele>
        <time>2019-08-21T14:15:19Z</time>
      </trkpt>
      <trkpt lat="59.28484900854528" lon="8.218366960063577">
        <ele>1158.00390625</ele>
        <time>2019-08-21T14:15:20Z</time>
      </trkpt>
      <trkpt lat="59.284843979403377" lon="8.218370983377099">
        <ele>1157.78515625</ele>
        <time>2019-08-21T14:15:21Z</time>
      </trkpt>
      <trkpt lat="59.284838028252125" lon="8.218376012519002">
        <ele>1157.52734375</ele>
        <time>2019-08-21T14:15:22Z</time>
      </trkpt>
      <trkpt lat="59.2848289757967" lon="8.218377018347383">
        <ele>1157.1640625</ele>
        <time>2019-08-21T14:15:23Z</time>
      </trkpt>
      <trkpt lat="59.284821012988687" lon="8.218375006690621">
        <ele>1156.8515625</ele>
        <time>2019-08-21T14:15:24Z</time>
      </trkpt>
      <trkpt lat="59.284811038523912" lon="8.21830602362752">
        <ele>1156.45703125</ele>
        <time>2019-08-21T14:15:27Z</time>
      </trkpt>
      <trkpt lat="59.284809026867151" lon="8.218293031677604">
        <ele>1156.296875</ele>
        <time>2019-08-21T14:15:28Z</time>
      </trkpt>
      <trkpt lat="59.284808021038771" lon="8.218297977000475">
        <ele>1156.28125</ele>
        <time>2019-08-21T14:15:29Z</time>
      </trkpt>
      <trkpt lat="59.28480600938201" lon="8.218296971172094">
        <ele>1156.1953125</ele>
        <time>2019-08-21T14:15:30Z</time>
      </trkpt>
      <trkpt lat="59.284800980240107" lon="8.218290014192462">
        <ele>1155.9453125</ele>
        <time>2019-08-21T14:15:31Z</time>
      </trkpt>
      <trkpt lat="59.284773990511894" lon="8.218317003920674">
        <ele>1154.9765625</ele>
        <time>2019-08-21T14:15:33Z</time>
      </trkpt>
      <trkpt lat="59.284759992733598" lon="8.218333013355732">
        <ele>1154.4375</ele>
        <time>2019-08-21T14:15:34Z</time>
      </trkpt>
      <trkpt lat="59.28474398329854" lon="8.218343993648887">
        <ele>1153.7734375</ele>
        <time>2019-08-21T14:15:35Z</time>
      </trkpt>
      <trkpt lat="59.284734008833766" lon="8.218353968113661">
        <ele>1153.3671875</ele>
        <time>2019-08-21T14:15:36Z</time>
      </trkpt>
      <trkpt lat="59.284731997177005" lon="8.218381963670254">
        <ele>1153.296875</ele>
        <time>2019-08-21T14:15:37Z</time>
      </trkpt>
      <trkpt lat="59.28472101688385" lon="8.218407025560737">
        <ele>1152.87890625</ele>
        <time>2019-08-21T14:15:38Z</time>
      </trkpt>
      <trkpt lat="59.284714981913567" lon="8.218423034995794">
        <ele>1152.66015625</ele>
        <time>2019-08-21T14:15:39Z</time>
      </trkpt>
      <trkpt lat="59.284713976085186" lon="8.218451030552387">
        <ele>1152.65234375</ele>
        <time>2019-08-21T14:15:40Z</time>
      </trkpt>
      <trkpt lat="59.284707019105554" lon="8.218471985310316">
        <ele>1152.40234375</ele>
        <time>2019-08-21T14:15:41Z</time>
      </trkpt>
      <trkpt lat="59.28470098413527" lon="8.218490006402135">
        <ele>1152.19140625</ele>
        <time>2019-08-21T14:15:42Z</time>
      </trkpt>
      <trkpt lat="59.284693021327257" lon="8.218506015837193">
        <ele>1151.921875</ele>
        <time>2019-08-21T14:15:43Z</time>
      </trkpt>
      <trkpt lat="59.284682041034102" lon="8.218518001958728">
        <ele>1151.546875</ele>
        <time>2019-08-21T14:15:44Z</time>
      </trkpt>
      <trkpt lat="59.284672988578677" lon="8.218527976423502">
        <ele>1151.25</ele>
        <time>2019-08-21T14:15:45Z</time>
      </trkpt>
      <trkpt lat="59.284669971093535" lon="8.218534011393786">
        <ele>1151.16796875</ele>
        <time>2019-08-21T14:15:46Z</time>
      </trkpt>
      <trkpt lat="59.284667037427425" lon="8.218534011393786">
        <ele>1151.0625</ele>
        <time>2019-08-21T14:15:47Z</time>
      </trkpt>
      <trkpt lat="59.284666031599045" lon="8.218534011393786">
        <ele>1151.02734375</ele>
        <time>2019-08-21T14:15:48Z</time>
      </trkpt>
      <trkpt lat="59.284665025770664" lon="8.218534011393786">
        <ele>1150.9921875</ele>
        <time>2019-08-21T14:15:49Z</time>
      </trkpt>
      <trkpt lat="59.284665025770664" lon="8.218533005565405">
        <ele>1150.98828125</ele>
        <time>2019-08-21T14:15:50Z</time>
      </trkpt>
      <trkpt lat="59.284663014113903" lon="8.218534011393786">
        <ele>1150.91796875</ele>
        <time>2019-08-21T14:15:51Z</time>
      </trkpt>
      <trkpt lat="59.284659996628761" lon="8.218533005565405">
        <ele>1150.80859375</ele>
        <time>2019-08-21T14:15:52Z</time>
      </trkpt>
      <trkpt lat="59.284655973315239" lon="8.218538034707308">
        <ele>1150.6875</ele>
        <time>2019-08-21T14:15:53Z</time>
      </trkpt>
      <trkpt lat="59.284650022163987" lon="8.218555971980095">
        <ele>1150.57421875</ele>
        <time>2019-08-21T14:15:54Z</time>
      </trkpt>
      <trkpt lat="59.284642981365323" lon="8.218591008335352">
        <ele>1150.546875</ele>
        <time>2019-08-21T14:15:55Z</time>
      </trkpt>
      <trkpt lat="59.284639963880181" lon="8.218623027205467">
        <ele>1150.84765625</ele>
        <time>2019-08-21T14:15:56Z</time>
      </trkpt>
      <trkpt lat="59.284638036042452" lon="8.218657979741693">
        <ele>1151.36328125</ele>
        <time>2019-08-21T14:15:57Z</time>
      </trkpt>
      <trkpt lat="59.284626971930265" lon="8.218686981126666">
        <ele>1151.50390625</ele>
        <time>2019-08-21T14:15:58Z</time>
      </trkpt>
      <trkpt lat="59.284616997465491" lon="8.218697039410472">
        <ele>1151.36328125</ele>
        <time>2019-08-21T14:15:59Z</time>
      </trkpt>
      <trkpt lat="59.284604005515575" lon="8.218727968633175">
        <ele>1151.47265625</ele>
        <time>2019-08-21T14:16:00Z</time>
      </trkpt>
      <trkpt lat="59.28459201939404" lon="8.218756970018148">
        <ele>1151.58203125</ele>
        <time>2019-08-21T14:16:01Z</time>
      </trkpt>
      <trkpt lat="59.284581039100885" lon="8.218782031908631">
        <ele>1151.65625</ele>
        <time>2019-08-21T14:16:02Z</time>
      </trkpt>
      <trkpt lat="59.284567963331938" lon="8.218825031071901">
        <ele>1151.9609375</ele>
        <time>2019-08-21T14:16:03Z</time>
      </trkpt>
      <trkpt lat="59.284552959725261" lon="8.218859983608127">
        <ele>1152.078125</ele>
        <time>2019-08-21T14:16:04Z</time>
      </trkpt>
      <trkpt lat="59.284542985260487" lon="8.218895019963384">
        <ele>1152.234375</ele>
        <time>2019-08-21T14:16:05Z</time>
      </trkpt>
      <trkpt lat="59.284537034109235" lon="8.218941958621144">
        <ele>1152.4453125</ele>
        <time>2019-08-21T14:16:06Z</time>
      </trkpt>
      <trkpt lat="59.284538039937615" lon="8.218978000804782">
        <ele>1152.77734375</ele>
        <time>2019-08-21T14:16:07Z</time>
      </trkpt>
      <trkpt lat="59.284536028280854" lon="8.218997027724981">
        <ele>1152.875</ele>
        <time>2019-08-21T14:16:08Z</time>
      </trkpt>
      <trkpt lat="59.28452798165381" lon="8.219007002189755">
        <ele>1152.71484375</ele>
        <time>2019-08-21T14:16:09Z</time>
      </trkpt>
      <trkpt lat="59.284523958340287" lon="8.219012031331658">
        <ele>1152.63671875</ele>
        <time>2019-08-21T14:16:10Z</time>
      </trkpt>
      <trkpt lat="59.284523958340287" lon="8.219013037160039">
        <ele>1152.64453125</ele>
        <time>2019-08-21T14:16:11Z</time>
      </trkpt>
      <trkpt lat="59.284523958340287" lon="8.219018988311291">
        <ele>1152.6953125</ele>
        <time>2019-08-21T14:16:12Z</time>
      </trkpt>
      <trkpt lat="59.284523036330938" lon="8.219029968604446">
        <ele>1152.76171875</ele>
        <time>2019-08-21T14:16:13Z</time>
      </trkpt>
      <trkpt lat="59.284521024674177" lon="8.219057964161038">
        <ele>1152.9375</ele>
        <time>2019-08-21T14:16:14Z</time>
      </trkpt>
      <trkpt lat="59.284522030502558" lon="8.219084031879902">
        <ele>1153.1875</ele>
        <time>2019-08-21T14:16:15Z</time>
      </trkpt>
      <trkpt lat="59.284521024674177" lon="8.219095012173057">
        <ele>1153.25</ele>
        <time>2019-08-21T14:16:16Z</time>
      </trkpt>
      <trkpt lat="59.284525969997048" lon="8.219114039093256">
        <ele>1153.5546875</ele>
        <time>2019-08-21T14:16:17Z</time>
      </trkpt>
      <trkpt lat="59.284538961946964" lon="8.219156032428145">
        <ele>1154.296875</ele>
        <time>2019-08-21T14:16:19Z</time>
      </trkpt>
      <trkpt lat="59.284537034109235" lon="8.219185033813119">
        <ele>1154.18359375</ele>
        <time>2019-08-21T14:16:20Z</time>
      </trkpt>
      <trkpt lat="59.284534016624093" lon="8.219221998006105">
        <ele>1153.98828125</ele>
        <time>2019-08-21T14:16:21Z</time>
      </trkpt>
      <trkpt lat="59.28452898748219" lon="8.21925301104784">
        <ele>1153.74609375</ele>
        <time>2019-08-21T14:16:22Z</time>
      </trkpt>
      <trkpt lat="59.284504009410739" lon="8.21931503713131">
        <ele>1152.8125</ele>
        <time>2019-08-21T14:16:24Z</time>
      </trkpt>
      <trkpt lat="59.284483976662159" lon="8.219342026859522">
        <ele>1152.12109375</ele>
        <time>2019-08-21T14:16:25Z</time>
      </trkpt>
      <trkpt lat="59.284468973055482" lon="8.219376979395747">
        <ele>1151.5546875</ele>
        <time>2019-08-21T14:16:26Z</time>
      </trkpt>
      <trkpt lat="59.284460004419088" lon="8.219429031014442">
        <ele>1151.1171875</ele>
        <time>2019-08-21T14:16:27Z</time>
      </trkpt>
      <trkpt lat="59.28444298915565" lon="8.219474041834474">
        <ele>1149.58984375</ele>
        <time>2019-08-21T14:16:28Z</time>
      </trkpt>
      <trkpt lat="59.284431003034115" lon="8.219499019905925">
        <ele>1148.53515625</ele>
        <time>2019-08-21T14:16:29Z</time>
      </trkpt>
      <trkpt lat="59.284423962235451" lon="8.219518968835473">
        <ele>1147.77734375</ele>
        <time>2019-08-21T14:16:30Z</time>
      </trkpt>
      <trkpt lat="59.28441901691258" lon="8.219540007412434">
        <ele>1147.0859375</ele>
        <time>2019-08-21T14:16:31Z</time>
      </trkpt>
      <trkpt lat="59.284411976113915" lon="8.219560962170363">
        <ele>1146.359375</ele>
        <time>2019-08-21T14:16:32Z</time>
      </trkpt>
      <trkpt lat="59.284405019134283" lon="8.219585018232465">
        <ele>1145.59765625</ele>
        <time>2019-08-21T14:16:33Z</time>
      </trkpt>
      <trkpt lat="59.284398984164" lon="8.219594992697239">
        <ele>1145.20703125</ele>
        <time>2019-08-21T14:16:34Z</time>
      </trkpt>
      <trkpt lat="59.284398984164" lon="8.219598010182381">
        <ele>1145.140625</ele>
        <time>2019-08-21T14:16:35Z</time>
      </trkpt>
      <trkpt lat="59.284398984164" lon="8.219598010182381">
        <ele>1145.140625</ele>
        <time>2019-08-21T14:16:36Z</time>
      </trkpt>
      <trkpt lat="59.284398984164" lon="8.219599016010761">
        <ele>1145.1171875</ele>
        <time>2019-08-21T14:16:37Z</time>
      </trkpt>
      <trkpt lat="59.284398984164" lon="8.219599016010761">
        <ele>1145.1171875</ele>
        <time>2019-08-21T14:16:38Z</time>
      </trkpt>
      <trkpt lat="59.284398984164" lon="8.219598010182381">
        <ele>1145.140625</ele>
        <time>2019-08-21T14:16:39Z</time>
      </trkpt>
      <trkpt lat="59.284398984164" lon="8.219599016010761">
        <ele>1145.1171875</ele>
        <time>2019-08-21T14:16:40Z</time>
      </trkpt>
      <trkpt lat="59.284398984164" lon="8.219599016010761">
        <ele>1145.1171875</ele>
        <time>2019-08-21T14:16:41Z</time>
      </trkpt>
      <trkpt lat="59.284398984164" lon="8.219599016010761">
        <ele>1145.1171875</ele>
        <time>2019-08-21T14:16:42Z</time>
      </trkpt>
      <trkpt lat="59.284396972507238" lon="8.219597004354">
        <ele>1145.11328125</ele>
        <time>2019-08-21T14:16:43Z</time>
      </trkpt>
      <trkpt lat="59.284396972507238" lon="8.219594992697239">
        <ele>1145.15625</ele>
        <time>2019-08-21T14:16:44Z</time>
      </trkpt>
      <trkpt lat="59.284395966678858" lon="8.219592981040478">
        <ele>1145.17578125</ele>
        <time>2019-08-21T14:16:45Z</time>
      </trkpt>
      <trkpt lat="59.284395966678858" lon="8.219592981040478">
        <ele>1145.17578125</ele>
        <time>2019-08-21T14:16:46Z</time>
      </trkpt>
      <trkpt lat="59.284395966678858" lon="8.219592981040478">
        <ele>1145.17578125</ele>
        <time>2019-08-21T14:16:47Z</time>
      </trkpt>
      <trkpt lat="59.284395966678858" lon="8.219592981040478">
        <ele>1145.17578125</ele>
        <time>2019-08-21T14:16:48Z</time>
      </trkpt>
      <trkpt lat="59.284395966678858" lon="8.219593986868858">
        <ele>1145.15234375</ele>
        <time>2019-08-21T14:16:49Z</time>
      </trkpt>
      <trkpt lat="59.284395966678858" lon="8.219593986868858">
        <ele>1145.15234375</ele>
        <time>2019-08-21T14:16:50Z</time>
      </trkpt>
      <trkpt lat="59.284395966678858" lon="8.219593986868858">
        <ele>1145.15234375</ele>
        <time>2019-08-21T14:16:51Z</time>
      </trkpt>
      <trkpt lat="59.284395966678858" lon="8.219594992697239">
        <ele>1145.12890625</ele>
        <time>2019-08-21T14:16:52Z</time>
      </trkpt>
      <trkpt lat="59.284395966678858" lon="8.219594992697239">
        <ele>1145.12890625</ele>
        <time>2019-08-21T14:16:53Z</time>
      </trkpt>
      <trkpt lat="59.284395966678858" lon="8.219593986868858">
        <ele>1145.15234375</ele>
        <time>2019-08-21T14:16:54Z</time>
      </trkpt>
      <trkpt lat="59.284395966678858" lon="8.219593986868858">
        <ele>1145.15234375</ele>
        <time>2019-08-21T14:16:55Z</time>
      </trkpt>
      <trkpt lat="59.284395966678858" lon="8.219593986868858">
        <ele>1145.15234375</ele>
        <time>2019-08-21T14:16:56Z</time>
      </trkpt>
      <trkpt lat="59.284395966678858" lon="8.219593986868858">
        <ele>1145.15234375</ele>
        <time>2019-08-21T14:16:57Z</time>
      </trkpt>
      <trkpt lat="59.284395966678858" lon="8.219594992697239">
        <ele>1145.12890625</ele>
        <time>2019-08-21T14:16:58Z</time>
      </trkpt>
      <trkpt lat="59.284395966678858" lon="8.219594992697239">
        <ele>1145.12890625</ele>
        <time>2019-08-21T14:16:59Z</time>
      </trkpt>
      <trkpt lat="59.284395966678858" lon="8.219594992697239">
        <ele>1145.12890625</ele>
        <time>2019-08-21T14:17:00Z</time>
      </trkpt>
      <trkpt lat="59.284395966678858" lon="8.219594992697239">
        <ele>1145.12890625</ele>
        <time>2019-08-21T14:17:01Z</time>
      </trkpt>
      <trkpt lat="59.284395966678858" lon="8.219594992697239">
        <ele>1145.12890625</ele>
        <time>2019-08-21T14:17:02Z</time>
      </trkpt>
      <trkpt lat="59.284394960850477" lon="8.219597004354">
        <ele>1145.05859375</ele>
        <time>2019-08-21T14:17:03Z</time>
      </trkpt>
      <trkpt lat="59.284390015527606" lon="8.219599016010761">
        <ele>1144.890625</ele>
        <time>2019-08-21T14:17:04Z</time>
      </trkpt>
      <trkpt lat="59.284386998042464" lon="8.219601027667522">
        <ele>1144.76953125</ele>
        <time>2019-08-21T14:17:05Z</time>
      </trkpt>
      <trkpt lat="59.284385992214084" lon="8.219600021839142">
        <ele>1144.765625</ele>
        <time>2019-08-21T14:17:06Z</time>
      </trkpt>
      <trkpt lat="59.284382974728942" lon="8.219563979655504">
        <ele>1145.44140625</ele>
        <time>2019-08-21T14:17:08Z</time>
      </trkpt>
      <trkpt lat="59.284381968900561" lon="8.219555011019111">
        <ele>1145.59765625</ele>
        <time>2019-08-21T14:17:09Z</time>
      </trkpt>
      <trkpt lat="59.284379035234451" lon="8.219557022675872">
        <ele>1145.46875</ele>
        <time>2019-08-21T14:17:10Z</time>
      </trkpt>
      <trkpt lat="59.28437601774931" lon="8.219558028504252">
        <ele>1145.359375</ele>
        <time>2019-08-21T14:17:11Z</time>
      </trkpt>
      <trkpt lat="59.284375011920929" lon="8.219559034332633">
        <ele>1145.30859375</ele>
        <time>2019-08-21T14:17:12Z</time>
      </trkpt>
      <trkpt lat="59.284375011920929" lon="8.219558028504252">
        <ele>1145.328125</ele>
        <time>2019-08-21T14:17:13Z</time>
      </trkpt>
      <trkpt lat="59.284375011920929" lon="8.219558028504252">
        <ele>1145.328125</ele>
        <time>2019-08-21T14:17:14Z</time>
      </trkpt>
      <trkpt lat="59.28437601774931" lon="8.219556016847491">
        <ele>1145.3984375</ele>
        <time>2019-08-21T14:17:15Z</time>
      </trkpt>
      <trkpt lat="59.284375011920929" lon="8.219558028504252">
        <ele>1145.328125</ele>
        <time>2019-08-21T14:17:16Z</time>
      </trkpt>
      <trkpt lat="59.284375011920929" lon="8.219559034332633">
        <ele>1145.30859375</ele>
        <time>2019-08-21T14:17:17Z</time>
      </trkpt>
      <trkpt lat="59.284375011920929" lon="8.219559034332633">
        <ele>1145.30859375</ele>
        <time>2019-08-21T14:17:18Z</time>
      </trkpt>
      <trkpt lat="59.284375011920929" lon="8.219559034332633">
        <ele>1145.30859375</ele>
        <time>2019-08-21T14:17:19Z</time>
      </trkpt>
      <trkpt lat="59.284375011920929" lon="8.219558028504252">
        <ele>1145.328125</ele>
        <time>2019-08-21T14:17:20Z</time>
      </trkpt>
      <trkpt lat="59.284374006092548" lon="8.219559034332633">
        <ele>1145.27734375</ele>
        <time>2019-08-21T14:17:21Z</time>
      </trkpt>
      <trkpt lat="59.284375011920929" lon="8.219560962170363">
        <ele>1145.26953125</ele>
        <time>2019-08-21T14:17:22Z</time>
      </trkpt>
      <trkpt lat="59.28437601774931" lon="8.219569008797407">
        <ele>1145.13671875</ele>
        <time>2019-08-21T14:17:23Z</time>
      </trkpt>
      <trkpt lat="59.284370988607407" lon="8.219644026830792">
        <ele>1143.5234375</ele>
        <time>2019-08-21T14:17:25Z</time>
      </trkpt>
      <trkpt lat="59.284363025799394" lon="8.219676967710257">
        <ele>1142.73828125</ele>
        <time>2019-08-21T14:17:26Z</time>
      </trkpt>
      <trkpt lat="59.284352967515588" lon="8.219701023772359">
        <ele>1142.140625</ele>
        <time>2019-08-21T14:17:27Z</time>
      </trkpt>
      <trkpt lat="59.28433301858604" lon="8.219717033207417">
        <ele>1141.6484375</ele>
        <time>2019-08-21T14:17:28Z</time>
      </trkpt>
      <trkpt lat="59.284308962523937" lon="8.219723990187049">
        <ele>1141.33984375</ele>
        <time>2019-08-21T14:17:29Z</time>
      </trkpt>
      <trkpt lat="59.284287001937628" lon="8.219730025157332">
        <ele>1141.0625</ele>
        <time>2019-08-21T14:17:30Z</time>
      </trkpt>
      <trkpt lat="59.284265963360667" lon="8.219738993793726">
        <ele>1140.80859375</ele>
        <time>2019-08-21T14:17:31Z</time>
      </trkpt>
      <trkpt lat="59.28424802608788" lon="8.21974502876401">
        <ele>1140.59765625</ele>
        <time>2019-08-21T14:17:32Z</time>
      </trkpt>
      <trkpt lat="59.284235034137964" lon="8.219757014885545">
        <ele>1140.46484375</ele>
        <time>2019-08-21T14:17:33Z</time>
      </trkpt>
      <trkpt lat="59.284223970025778" lon="8.219776041805744">
        <ele>1140.3828125</ele>
        <time>2019-08-21T14:17:34Z</time>
      </trkpt>
      <trkpt lat="59.284212989732623" lon="8.21979096159339">
        <ele>1140.30078125</ele>
        <time>2019-08-21T14:17:35Z</time>
      </trkpt>
      <trkpt lat="59.284203015267849" lon="8.219804037362337">
        <ele>1140.23046875</ele>
        <time>2019-08-21T14:17:36Z</time>
      </trkpt>
      <trkpt lat="59.284193040803075" lon="8.219820968806744">
        <ele>1140.1796875</ele>
        <time>2019-08-21T14:17:37Z</time>
      </trkpt>
      <trkpt lat="59.284182982519269" lon="8.219828009605408">
        <ele>1140.09765625</ele>
        <time>2019-08-21T14:17:38Z</time>
      </trkpt>
      <trkpt lat="59.284182982519269" lon="8.219842007383704">
        <ele>1140.15234375</ele>
        <time>2019-08-21T14:17:39Z</time>
      </trkpt>
      <trkpt lat="59.284178037196398" lon="8.219861034303904">
        <ele>1140.17578125</ele>
        <time>2019-08-21T14:17:40Z</time>
      </trkpt>
      <trkpt lat="59.284170996397734" lon="8.2198750320822">
        <ele>1140.1640625</ele>
        <time>2019-08-21T14:17:41Z</time>
      </trkpt>
      <trkpt lat="59.28416202776134" lon="8.219889029860497">
        <ele>1140.140625</ele>
        <time>2019-08-21T14:17:42Z</time>
      </trkpt>
      <trkpt lat="59.284144006669521" lon="8.21991803124547">
        <ele>1140.15234375</ele>
        <time>2019-08-21T14:17:43Z</time>
      </trkpt>
      <trkpt lat="59.284123973920941" lon="8.219944015145302">
        <ele>1140.15625</ele>
        <time>2019-08-21T14:17:44Z</time>
      </trkpt>
      <trkpt lat="59.284103019163013" lon="8.219977039843798">
        <ele>1140.18359375</ele>
        <time>2019-08-21T14:17:45Z</time>
      </trkpt>
      <trkpt lat="59.284086003899574" lon="8.220014004036784">
        <ele>1140.20703125</ele>
        <time>2019-08-21T14:17:46Z</time>
      </trkpt>
      <trkpt lat="59.284068988636136" lon="8.220044011250138">
        <ele>1140.19140625</ele>
        <time>2019-08-21T14:17:47Z</time>
      </trkpt>
      <trkpt lat="59.284050967544317" lon="8.220073012635112">
        <ele>1140.171875</ele>
        <time>2019-08-21T14:17:48Z</time>
      </trkpt>
      <trkpt lat="59.28403303027153" lon="8.220104025676847">
        <ele>1140.1640625</ele>
        <time>2019-08-21T14:17:49Z</time>
      </trkpt>
      <trkpt lat="59.284014003351331" lon="8.220136966556311">
        <ele>1140.16015625</ele>
        <time>2019-08-21T14:17:50Z</time>
      </trkpt>
      <trkpt lat="59.283994976431131" lon="8.220158005133271">
        <ele>1140.125</ele>
        <time>2019-08-21T14:17:51Z</time>
      </trkpt>
      <trkpt lat="59.283976033329964" lon="8.220156999304891">
        <ele>1140.03125</ele>
        <time>2019-08-21T14:17:52Z</time>
      </trkpt>
      <trkpt lat="59.283950971439481" lon="8.220156999304891">
        <ele>1139.91015625</ele>
        <time>2019-08-21T14:17:53Z</time>
      </trkpt>
      <trkpt lat="59.283923981711268" lon="8.22015498764813">
        <ele>1139.7734375</ele>
        <time>2019-08-21T14:17:54Z</time>
      </trkpt>
      <trkpt lat="59.283896991983056" lon="8.220138978213072">
        <ele>1139.58984375</ele>
        <time>2019-08-21T14:17:55Z</time>
      </trkpt>
      <trkpt lat="59.283873019739985" lon="8.220123974606395">
        <ele>1139.43359375</ele>
        <time>2019-08-21T14:17:56Z</time>
      </trkpt>
      <trkpt lat="59.283845024183393" lon="8.220123974606395">
        <ele>1139.359375</ele>
        <time>2019-08-21T14:17:57Z</time>
      </trkpt>
      <trkpt lat="59.283808981999755" lon="8.220120035111904">
        <ele>1139.2421875</ele>
        <time>2019-08-21T14:17:58Z</time>
      </trkpt>
      <trkpt lat="59.283776041120291" lon="8.220104025676847">
        <ele>1139.09375</ele>
        <time>2019-08-21T14:17:59Z</time>
      </trkpt>
      <trkpt lat="59.283752990886569" lon="8.220076030120254">
        <ele>1138.921875</ele>
        <time>2019-08-21T14:18:00Z</time>
      </trkpt>
      <trkpt lat="59.28373203612864" lon="8.22004702873528">
        <ele>1138.74609375</ele>
        <time>2019-08-21T14:18:01Z</time>
      </trkpt>
      <trkpt lat="59.283715020865202" lon="8.2200460229069">
        <ele>1138.69140625</ele>
        <time>2019-08-21T14:18:02Z</time>
      </trkpt>
      <trkpt lat="59.283699011430144" lon="8.220051974058151">
        <ele>1138.6640625</ele>
        <time>2019-08-21T14:18:03Z</time>
      </trkpt>
      <trkpt lat="59.283675039187074" lon="8.220064966008067">
        <ele>1138.64453125</ele>
        <time>2019-08-21T14:18:04Z</time>
      </trkpt>
      <trkpt lat="59.283654000610113" lon="8.22006999514997">
        <ele>1138.6015625</ele>
        <time>2019-08-21T14:18:05Z</time>
      </trkpt>
      <trkpt lat="59.283636985346675" lon="8.220061026513577">
        <ele>1138.515625</ele>
        <time>2019-08-21T14:18:06Z</time>
      </trkpt>
      <trkpt lat="59.283615024760365" lon="8.220049040392041">
        <ele>1138.39453125</ele>
        <time>2019-08-21T14:18:07Z</time>
      </trkpt>
      <trkpt lat="59.283598009496927" lon="8.220037976279855">
        <ele>1138.30859375</ele>
        <time>2019-08-21T14:18:08Z</time>
      </trkpt>
      <trkpt lat="59.283589962869883" lon="8.2200269959867">
        <ele>1138.2734375</ele>
        <time>2019-08-21T14:18:09Z</time>
      </trkpt>
      <trkpt lat="59.283580994233489" lon="8.220024984329939">
        <ele>1138.27734375</ele>
        <time>2019-08-21T14:18:10Z</time>
      </trkpt>
      <trkpt lat="59.283574959263206" lon="8.220016015693545">
        <ele>1138.2421875</ele>
        <time>2019-08-21T14:18:11Z</time>
      </trkpt>
      <trkpt lat="59.283571019768715" lon="8.220028001815081">
        <ele>1138.3046875</ele>
        <time>2019-08-21T14:18:12Z</time>
      </trkpt>
      <trkpt lat="59.283571019768715" lon="8.220020039007068">
        <ele>1138.265625</ele>
        <time>2019-08-21T14:18:13Z</time>
      </trkpt>
      <trkpt lat="59.283574037253857" lon="8.220002017915249">
        <ele>1138.1796875</ele>
        <time>2019-08-21T14:18:14Z</time>
      </trkpt>
      <trkpt lat="59.283574037253857" lon="8.219991959631443">
        <ele>1138.1328125</ele>
        <time>2019-08-21T14:18:15Z</time>
      </trkpt>
      <trkpt lat="59.283573031425476" lon="8.21998299099505">
        <ele>1138.09765625</ele>
        <time>2019-08-21T14:18:16Z</time>
      </trkpt>
      <trkpt lat="59.283572025597095" lon="8.219966981559992">
        <ele>1138.0390625</ele>
        <time>2019-08-21T14:18:17Z</time>
      </trkpt>
      <trkpt lat="59.283569008111954" lon="8.219948960468173">
        <ele>1137.96875</ele>
        <time>2019-08-21T14:18:18Z</time>
      </trkpt>
      <trkpt lat="59.28355903364718" lon="8.219933034852147">
        <ele>1137.90625</ele>
        <time>2019-08-21T14:18:19Z</time>
      </trkpt>
      <trkpt lat="59.283547969534993" lon="8.21991803124547">
        <ele>1137.83984375</ele>
        <time>2019-08-21T14:18:20Z</time>
      </trkpt>
      <trkpt lat="59.2835390008986" lon="8.219908978790045">
        <ele>1137.796875</ele>
        <time>2019-08-21T14:18:21Z</time>
      </trkpt>
      <trkpt lat="59.283533971756697" lon="8.219905039295554">
        <ele>1137.7734375</ele>
        <time>2019-08-21T14:18:22Z</time>
      </trkpt>
      <trkpt lat="59.283531960099936" lon="8.219902021810412">
        <ele>1137.76171875</ele>
        <time>2019-08-21T14:18:23Z</time>
      </trkpt>
      <trkpt lat="59.283529026433825" lon="8.219899004325271">
        <ele>1137.7421875</ele>
        <time>2019-08-21T14:18:24Z</time>
      </trkpt>
      <trkpt lat="59.283523997291923" lon="8.219895986840129">
        <ele>1137.7265625</ele>
        <time>2019-08-21T14:18:25Z</time>
      </trkpt>
      <trkpt lat="59.28351603448391" lon="8.219890035688877">
        <ele>1137.69140625</ele>
        <time>2019-08-21T14:18:26Z</time>
      </trkpt>
      <trkpt lat="59.283508993685246" lon="8.219886012375355">
        <ele>1137.6640625</ele>
        <time>2019-08-21T14:18:27Z</time>
      </trkpt>
      <trkpt lat="59.283480998128653" lon="8.219887018203735">
        <ele>1137.640625</ele>
        <time>2019-08-21T14:18:29Z</time>
      </trkpt>
      <trkpt lat="59.283460965380073" lon="8.219878971576691">
        <ele>1137.5703125</ele>
        <time>2019-08-21T14:18:30Z</time>
      </trkpt>
      <trkpt lat="59.283445961773396" lon="8.219861034303904">
        <ele>1137.44140625</ele>
        <time>2019-08-21T14:18:31Z</time>
      </trkpt>
      <trkpt lat="59.283424001187086" lon="8.219836978241801">
        <ele>1137.24609375</ele>
        <time>2019-08-21T14:18:32Z</time>
      </trkpt>
      <trkpt lat="59.283402040600777" lon="8.21981200017035">
        <ele>1137.0234375</ele>
        <time>2019-08-21T14:18:33Z</time>
      </trkpt>
      <trkpt lat="59.283373961225152" lon="8.219794984906912">
        <ele>1136.8203125</ele>
        <time>2019-08-21T14:18:34Z</time>
      </trkpt>
      <trkpt lat="59.28334797732532" lon="8.21976900100708">
        <ele>1136.53125</ele>
        <time>2019-08-21T14:18:35Z</time>
      </trkpt>
      <trkpt lat="59.283322999253869" lon="8.219747040420771">
        <ele>1136.25390625</ele>
        <time>2019-08-21T14:18:36Z</time>
      </trkpt>
      <trkpt lat="59.28330397233367" lon="8.21972499601543">
        <ele>1135.93359375</ele>
        <time>2019-08-21T14:18:37Z</time>
      </trkpt>
      <trkpt lat="59.283292992040515" lon="8.219716027379036">
        <ele>1135.78515625</ele>
        <time>2019-08-21T14:18:38Z</time>
      </trkpt>
      <trkpt lat="59.283277988433838" lon="8.219707980751991">
        <ele>1135.6484375</ele>
        <time>2019-08-21T14:18:39Z</time>
      </trkpt>
      <trkpt lat="59.283254016190767" lon="8.219707980751991">
        <ele>1135.484375</ele>
        <time>2019-08-21T14:18:40Z</time>
      </trkpt>
      <trkpt lat="59.283223003149033" lon="8.219707980751991">
        <ele>1135.26953125</ele>
        <time>2019-08-21T14:18:41Z</time>
      </trkpt>
      <trkpt lat="59.28319500759244" lon="8.219707980751991">
        <ele>1135.078125</ele>
        <time>2019-08-21T14:18:42Z</time>
      </trkpt>
      <trkpt lat="59.283181009814143" lon="8.219692977145314">
        <ele>1134.86328125</ele>
        <time>2019-08-21T14:18:43Z</time>
      </trkpt>
      <trkpt lat="59.283158965408802" lon="8.219678979367018">
        <ele>1134.57421875</ele>
        <time>2019-08-21T14:18:44Z</time>
      </trkpt>
      <trkpt lat="59.283142033964396" lon="8.219655007123947">
        <ele>1134.19921875</ele>
        <time>2019-08-21T14:18:45Z</time>
      </trkpt>
      <trkpt lat="59.283124012872577" lon="8.219646960496903">
        <ele>1133.9453125</ele>
        <time>2019-08-21T14:18:46Z</time>
      </trkpt>
      <trkpt lat="59.283101968467236" lon="8.219636986032128">
        <ele>1133.61328125</ele>
        <time>2019-08-21T14:18:47Z</time>
      </trkpt>
      <trkpt lat="59.283087970688939" lon="8.219622988253832">
        <ele>1133.296875</ele>
        <time>2019-08-21T14:18:48Z</time>
      </trkpt>
      <trkpt lat="59.283073972910643" lon="8.2196160312742">
        <ele>1133.0546875</ele>
        <time>2019-08-21T14:18:49Z</time>
      </trkpt>
      <trkpt lat="59.28306701593101" lon="8.219600021839142">
        <ele>1132.765625</ele>
        <time>2019-08-21T14:18:50Z</time>
      </trkpt>
      <trkpt lat="59.283063998445868" lon="8.219580994918943">
        <ele>1132.47265625</ele>
        <time>2019-08-21T14:18:51Z</time>
      </trkpt>
      <trkpt lat="59.283057963475585" lon="8.219572026282549">
        <ele>1132.2734375</ele>
        <time>2019-08-21T14:18:52Z</time>
      </trkpt>
      <trkpt lat="59.283054023981094" lon="8.219568002969027">
        <ele>1132.1640625</ele>
        <time>2019-08-21T14:18:53Z</time>
      </trkpt>
      <trkpt lat="59.283054023981094" lon="8.219564985483885">
        <ele>1132.12109375</ele>
        <time>2019-08-21T14:18:54Z</time>
      </trkpt>
      <trkpt lat="59.283055029809475" lon="8.219564985483885">
        <ele>1132.13671875</ele>
        <time>2019-08-21T14:18:55Z</time>
      </trkpt>
      <trkpt lat="59.283055029809475" lon="8.219569008797407">
        <ele>1132.19140625</ele>
        <time>2019-08-21T14:18:56Z</time>
      </trkpt>
      <trkpt lat="59.283056035637856" lon="8.21957403793931">
        <ele>1132.2734375</ele>
        <time>2019-08-21T14:18:57Z</time>
      </trkpt>
      <trkpt lat="59.283038014546037" lon="8.219603961333633">
        <ele>1132.34765625</ele>
        <time>2019-08-21T14:18:59Z</time>
      </trkpt>
      <trkpt lat="59.283028962090611" lon="8.219622988253832">
        <ele>1132.375</ele>
        <time>2019-08-21T14:19:00Z</time>
      </trkpt>
      <trkpt lat="59.28302401676774" lon="8.219636986032128">
        <ele>1132.44140625</ele>
        <time>2019-08-21T14:19:01Z</time>
      </trkpt>
      <trkpt lat="59.283019993454218" lon="8.219649977982044">
        <ele>1132.5234375</ele>
        <time>2019-08-21T14:19:02Z</time>
      </trkpt>
      <trkpt lat="59.283013958483934" lon="8.219664981588721">
        <ele>1132.578125</ele>
        <time>2019-08-21T14:19:03Z</time>
      </trkpt>
      <trkpt lat="59.283009013161063" lon="8.219675961881876">
        <ele>1132.60546875</ele>
        <time>2019-08-21T14:19:04Z</time>
      </trkpt>
      <trkpt lat="59.28300398401916" lon="8.219685014337301">
        <ele>1132.60546875</ele>
        <time>2019-08-21T14:19:05Z</time>
      </trkpt>
      <trkpt lat="59.28298001177609" lon="8.219718961045146">
        <ele>1132.4296875</ele>
        <time>2019-08-21T14:19:07Z</time>
      </trkpt>
      <trkpt lat="59.282971965149045" lon="8.219732958823443">
        <ele>1132.2890625</ele>
        <time>2019-08-21T14:19:08Z</time>
      </trkpt>
      <trkpt lat="59.282966013997793" lon="8.219739999622107">
        <ele>1132.16796875</ele>
        <time>2019-08-21T14:19:09Z</time>
      </trkpt>
      <trkpt lat="59.282958973199129" lon="8.21974603459239">
        <ele>1132.01171875</ele>
        <time>2019-08-21T14:19:10Z</time>
      </trkpt>
      <trkpt lat="59.282956039533019" lon="8.219757014885545">
        <ele>1131.9921875</ele>
        <time>2019-08-21T14:19:11Z</time>
      </trkpt>
      <trkpt lat="59.282954027876258" lon="8.219759026542306">
        <ele>1131.94921875</ele>
        <time>2019-08-21T14:19:12Z</time>
      </trkpt>
      <trkpt lat="59.282954027876258" lon="8.219758020713925">
        <ele>1131.94140625</ele>
        <time>2019-08-21T14:19:13Z</time>
      </trkpt>
      <trkpt lat="59.282954027876258" lon="8.219751985743642">
        <ele>1131.91015625</ele>
        <time>2019-08-21T14:19:14Z</time>
      </trkpt>
      <trkpt lat="59.28295997902751" lon="8.21972499601543">
        <ele>1131.9296875</ele>
        <time>2019-08-21T14:19:16Z</time>
      </trkpt>
      <trkpt lat="59.282956961542368" lon="8.219732036814094">
        <ele>1131.88671875</ele>
        <time>2019-08-21T14:19:17Z</time>
      </trkpt>
      <trkpt lat="59.282955033704638" lon="8.219732958823443">
        <ele>1131.83984375</ele>
        <time>2019-08-21T14:19:18Z</time>
      </trkpt>
      <trkpt lat="59.282954027876258" lon="8.219732036814094">
        <ele>1131.80859375</ele>
        <time>2019-08-21T14:19:19Z</time>
      </trkpt>
      <trkpt lat="59.282953022047877" lon="8.219731030985713">
        <ele>1131.77734375</ele>
        <time>2019-08-21T14:19:20Z</time>
      </trkpt>
      <trkpt lat="59.282957967370749" lon="8.219714015722275">
        <ele>1131.8203125</ele>
        <time>2019-08-21T14:19:21Z</time>
      </trkpt>
      <trkpt lat="59.282964002341032" lon="8.219684008508921">
        <ele>1131.5234375</ele>
        <time>2019-08-21T14:19:22Z</time>
      </trkpt>
      <trkpt lat="59.282968025654554" lon="8.219647966325283">
        <ele>1131.08203125</ele>
        <time>2019-08-21T14:19:23Z</time>
      </trkpt>
      <trkpt lat="59.282970037311316" lon="8.219608990475535">
        <ele>1130.546875</ele>
        <time>2019-08-21T14:19:24Z</time>
      </trkpt>
      <trkpt lat="59.282972970977426" lon="8.219568002969027">
        <ele>1130.00390625</ele>
        <time>2019-08-21T14:19:25Z</time>
      </trkpt>
      <trkpt lat="59.282976994290948" lon="8.21953003294766">
        <ele>1129.546875</ele>
        <time>2019-08-21T14:19:26Z</time>
      </trkpt>
      <trkpt lat="59.28298101760447" lon="8.219485022127628">
        <ele>1128.98046875</ele>
        <time>2019-08-21T14:19:27Z</time>
      </trkpt>
      <trkpt lat="59.282978000119328" lon="8.219440011307597">
        <ele>1128.21484375</ele>
        <time>2019-08-21T14:19:28Z</time>
      </trkpt>
      <trkpt lat="59.282976994290948" lon="8.219402963295579">
        <ele>1127.47265625</ele>
        <time>2019-08-21T14:19:29Z</time>
      </trkpt>
      <trkpt lat="59.282978000119328" lon="8.219354012981057">
        <ele>1126.53515625</ele>
        <time>2019-08-21T14:19:30Z</time>
      </trkpt>
      <trkpt lat="59.282975988462567" lon="8.219313025474548">
        <ele>1125.6640625</ele>
        <time>2019-08-21T14:19:31Z</time>
      </trkpt>
      <trkpt lat="59.282975988462567" lon="8.219290981069207">
        <ele>1125.2265625</ele>
        <time>2019-08-21T14:19:32Z</time>
      </trkpt>
      <trkpt lat="59.282972970977426" lon="8.219266002997756">
        <ele>1124.63671875</ele>
        <time>2019-08-21T14:19:33Z</time>
      </trkpt>
      <trkpt lat="59.282969031482935" lon="8.219229960814118">
        <ele>1123.79296875</ele>
        <time>2019-08-21T14:19:34Z</time>
      </trkpt>
      <trkpt lat="59.282967019826174" lon="8.219187967479229">
        <ele>1122.890625</ele>
        <time>2019-08-21T14:19:35Z</time>
      </trkpt>
      <trkpt lat="59.282961990684271" lon="8.219147985801101">
        <ele>1121.953125</ele>
        <time>2019-08-21T14:19:36Z</time>
      </trkpt>
      <trkpt lat="59.282958973199129" lon="8.219111021608114">
        <ele>1121.22265625</ele>
        <time>2019-08-21T14:19:37Z</time>
      </trkpt>
      <trkpt lat="59.282956961542368" lon="8.219083026051521">
        <ele>1120.671875</ele>
        <time>2019-08-21T14:19:38Z</time>
      </trkpt>
      <trkpt lat="59.282953022047877" lon="8.219045978039503">
        <ele>1119.890625</ele>
        <time>2019-08-21T14:19:39Z</time>
      </trkpt>
      <trkpt lat="59.282947992905974" lon="8.21899501606822">
        <ele>1118.81640625</ele>
        <time>2019-08-21T14:19:40Z</time>
      </trkpt>
      <trkpt lat="59.282948998734355" lon="8.218943970277906">
        <ele>1117.97265625</ele>
        <time>2019-08-21T14:19:41Z</time>
      </trkpt>
      <trkpt lat="59.282962996512651" lon="8.218903988599777">
        <ele>1117.8671875</ele>
        <time>2019-08-21T14:19:42Z</time>
      </trkpt>
      <trkpt lat="59.282976994290948" lon="8.218874987214804">
        <ele>1118.03515625</ele>
        <time>2019-08-21T14:19:43Z</time>
      </trkpt>
      <trkpt lat="59.282986968755722" lon="8.218846991658211">
        <ele>1118.26171875</ele>
        <time>2019-08-21T14:19:44Z</time>
      </trkpt>
      <trkpt lat="59.282995015382767" lon="8.218826958909631">
        <ele>1118.484375</ele>
        <time>2019-08-21T14:19:45Z</time>
      </trkpt>
      <trkpt lat="59.283000966534019" lon="8.218795023858547">
        <ele>1118.54296875</ele>
        <time>2019-08-21T14:19:46Z</time>
      </trkpt>
      <trkpt lat="59.283008007332683" lon="8.218763004988432">
        <ele>1118.67578125</ele>
        <time>2019-08-21T14:19:47Z</time>
      </trkpt>
      <trkpt lat="59.283008007332683" lon="8.218735009431839">
        <ele>1118.50390625</ele>
        <time>2019-08-21T14:19:48Z</time>
      </trkpt>
      <trkpt lat="59.283013958483934" lon="8.218700978904963">
        <ele>1118.59765625</ele>
        <time>2019-08-21T14:19:49Z</time>
      </trkpt>
      <trkpt lat="59.283018987625837" lon="8.218676000833511">
        <ele>1118.71484375</ele>
        <time>2019-08-21T14:19:50Z</time>
      </trkpt>
      <trkpt lat="59.283019993454218" lon="8.218649011105299">
        <ele>1118.61328125</ele>
        <time>2019-08-21T14:19:51Z</time>
      </trkpt>
      <trkpt lat="59.28302401676774" lon="8.218622021377087">
        <ele>1118.68359375</ele>
        <time>2019-08-21T14:19:52Z</time>
      </trkpt>
      <trkpt lat="59.283022005110979" lon="8.218591008335352">
        <ele>1118.15234375</ele>
        <time>2019-08-21T14:19:53Z</time>
      </trkpt>
      <trkpt lat="59.283022005110979" lon="8.21856401860714">
        <ele>1117.46875</ele>
        <time>2019-08-21T14:19:54Z</time>
      </trkpt>
      <trkpt lat="59.283020999282598" lon="8.218536023050547">
        <ele>1116.70703125</ele>
        <time>2019-08-21T14:19:55Z</time>
      </trkpt>
      <trkpt lat="59.283017981797457" lon="8.21852202527225">
        <ele>1116.1953125</ele>
        <time>2019-08-21T14:19:56Z</time>
      </trkpt>
      <trkpt lat="59.283005995675921" lon="8.218507021665573">
        <ele>1115.19921875</ele>
        <time>2019-08-21T14:19:57Z</time>
      </trkpt>
      <trkpt lat="59.282998032867908" lon="8.218475002795458">
        <ele>1114.0078125</ele>
        <time>2019-08-21T14:19:58Z</time>
      </trkpt>
      <trkpt lat="59.282995015382767" lon="8.218446001410484">
        <ele>1113.15625</ele>
        <time>2019-08-21T14:19:59Z</time>
      </trkpt>
      <trkpt lat="59.282996021211147" lon="8.218413982540369">
        <ele>1112.43359375</ele>
        <time>2019-08-21T14:20:00Z</time>
      </trkpt>
      <trkpt lat="59.282999038696289" lon="8.218375006690621">
        <ele>1111.62890625</ele>
        <time>2019-08-21T14:20:01Z</time>
      </trkpt>
      <trkpt lat="59.28300297819078" lon="8.21835002861917">
        <ele>1111.19921875</ele>
        <time>2019-08-21T14:20:02Z</time>
      </trkpt>
      <trkpt lat="59.283000966534019" lon="8.218334019184113">
        <ele>1110.71875</ele>
        <time>2019-08-21T14:20:03Z</time>
      </trkpt>
      <trkpt lat="59.282999038696289" lon="8.218315998092294">
        <ele>1110.16796875</ele>
        <time>2019-08-21T14:20:04Z</time>
      </trkpt>
      <trkpt lat="59.282997027039528" lon="8.218302000313997">
        <ele>1109.703125</ele>
        <time>2019-08-21T14:20:05Z</time>
      </trkpt>
      <trkpt lat="59.282999038696289" lon="8.21828599087894">
        <ele>1109.35546875</ele>
        <time>2019-08-21T14:20:06Z</time>
      </trkpt>
      <trkpt lat="59.283000966534019" lon="8.218276016414166">
        <ele>1109.16796875</ele>
        <time>2019-08-21T14:20:07Z</time>
      </trkpt>
      <trkpt lat="59.283007001504302" lon="8.218270987272263">
        <ele>1109.296875</ele>
        <time>2019-08-21T14:20:08Z</time>
      </trkpt>
      <trkpt lat="59.283027034252882" lon="8.218228993937373">
        <ele>1109.01953125</ele>
        <time>2019-08-21T14:20:10Z</time>
      </trkpt>
      <trkpt lat="59.283034997060895" lon="8.218206027522683">
        <ele>1108.734375</ele>
        <time>2019-08-21T14:20:11Z</time>
      </trkpt>
      <trkpt lat="59.283044971525669" lon="8.218185994774103">
        <ele>1108.61328125</ele>
        <time>2019-08-21T14:20:12Z</time>
      </trkpt>
      <trkpt lat="59.283054023981094" lon="8.218167973682284">
        <ele>1108.265625</ele>
        <time>2019-08-21T14:20:13Z</time>
      </trkpt>
      <trkpt lat="59.283056035637856" lon="8.218146013095975">
        <ele>1107.6875</ele>
        <time>2019-08-21T14:20:14Z</time>
      </trkpt>
      <trkpt lat="59.283054023981094" lon="8.218120029196143">
        <ele>1106.94921875</ele>
        <time>2019-08-21T14:20:15Z</time>
      </trkpt>
      <trkpt lat="59.283054023981094" lon="8.218098990619183">
        <ele>1106.375</ele>
        <time>2019-08-21T14:20:16Z</time>
      </trkpt>
      <trkpt lat="59.283053018152714" lon="8.218082981184125">
        <ele>1105.921875</ele>
        <time>2019-08-21T14:20:17Z</time>
      </trkpt>
      <trkpt lat="59.283052012324333" lon="8.218054985627532">
        <ele>1105.140625</ele>
        <time>2019-08-21T14:20:18Z</time>
      </trkpt>
      <trkpt lat="59.283050000667572" lon="8.218019027262926">
        <ele>1104.09375</ele>
        <time>2019-08-21T14:20:19Z</time>
      </trkpt>
      <trkpt lat="59.283057963475585" lon="8.217974016442895">
        <ele>1102.9140625</ele>
        <time>2019-08-21T14:20:20Z</time>
      </trkpt>
      <trkpt lat="59.283060980960727" lon="8.217934034764767">
        <ele>1101.8125</ele>
        <time>2019-08-21T14:20:21Z</time>
      </trkpt>
      <trkpt lat="59.283062992617488" lon="8.217895980924368">
        <ele>1100.75390625</ele>
        <time>2019-08-21T14:20:22Z</time>
      </trkpt>
      <trkpt lat="59.283065004274249" lon="8.217860022559762">
        <ele>1099.75390625</ele>
        <time>2019-08-21T14:20:23Z</time>
      </trkpt>
      <trkpt lat="59.283065004274249" lon="8.21783697232604">
        <ele>1099.09375</ele>
        <time>2019-08-21T14:20:24Z</time>
      </trkpt>
      <trkpt lat="59.283065004274249" lon="8.217820962890983">
        <ele>1098.63671875</ele>
        <time>2019-08-21T14:20:25Z</time>
      </trkpt>
      <trkpt lat="59.283057041466236" lon="8.217804031446576">
        <ele>1098.05078125</ele>
        <time>2019-08-21T14:20:26Z</time>
      </trkpt>
      <trkpt lat="59.283044971525669" lon="8.217780981212854">
        <ele>1097.1953125</ele>
        <time>2019-08-21T14:20:27Z</time>
      </trkpt>
      <trkpt lat="59.283037008717656" lon="8.2177509739995">
        <ele>1095.85546875</ele>
        <time>2019-08-21T14:20:28Z</time>
      </trkpt>
      <trkpt lat="59.283032985404134" lon="8.217723984271288">
        <ele>1094.7578125</ele>
        <time>2019-08-21T14:20:29Z</time>
      </trkpt>
      <trkpt lat="59.283030973747373" lon="8.217695988714695">
        <ele>1093.72265625</ele>
        <time>2019-08-21T14:20:30Z</time>
      </trkpt>
      <trkpt lat="59.283033991232514" lon="8.217676961794496">
        <ele>1093.24609375</ele>
        <time>2019-08-21T14:20:31Z</time>
      </trkpt>
      <trkpt lat="59.283028040081263" lon="8.217674028128386">
        <ele>1092.83984375</ele>
        <time>2019-08-21T14:20:32Z</time>
      </trkpt>
      <trkpt lat="59.283018987625837" lon="8.217673022300005">
        <ele>1092.33984375</ele>
        <time>2019-08-21T14:20:33Z</time>
      </trkpt>
      <trkpt lat="59.283015970140696" lon="8.217658018693328">
        <ele>1091.6796875</ele>
        <time>2019-08-21T14:20:34Z</time>
      </trkpt>
      <trkpt lat="59.283016975969076" lon="8.217636980116367">
        <ele>1091.0234375</ele>
        <time>2019-08-21T14:20:35Z</time>
      </trkpt>
      <trkpt lat="59.283019993454218" lon="8.217618959024549">
        <ele>1090.578125</ele>
        <time>2019-08-21T14:20:36Z</time>
      </trkpt>
      <trkpt lat="59.28302401676774" lon="8.217607978731394">
        <ele>1090.421875</ele>
        <time>2019-08-21T14:20:37Z</time>
      </trkpt>
      <trkpt lat="59.283026028424501" lon="8.217596998438239">
        <ele>1090.1640625</ele>
        <time>2019-08-21T14:20:38Z</time>
      </trkpt>
      <trkpt lat="59.283028040081263" lon="8.217551987618208">
        <ele>1088.76953125</ele>
        <time>2019-08-21T14:20:40Z</time>
      </trkpt>
      <trkpt lat="59.283027034252882" lon="8.217533966526389">
        <ele>1088.11328125</ele>
        <time>2019-08-21T14:20:41Z</time>
      </trkpt>
      <trkpt lat="59.283027034252882" lon="8.217514017596841">
        <ele>1087.44921875</ele>
        <time>2019-08-21T14:20:42Z</time>
      </trkpt>
      <trkpt lat="59.283028962090611" lon="8.21748903952539">
        <ele>1086.72265625</ele>
        <time>2019-08-21T14:20:43Z</time>
      </trkpt>
      <trkpt lat="59.283032985404134" lon="8.217451991513372">
        <ele>1085.72265625</ele>
        <time>2019-08-21T14:20:44Z</time>
      </trkpt>
      <trkpt lat="59.283040026202798" lon="8.217413015663624">
        <ele>1084.8359375</ele>
        <time>2019-08-21T14:20:45Z</time>
      </trkpt>
      <trkpt lat="59.283053018152714" lon="8.21738300845027">
        <ele>1084.296875</ele>
        <time>2019-08-21T14:20:46Z</time>
      </trkpt>
      <trkpt lat="59.28306601010263" lon="8.217346966266632">
        <ele>1083.328125</ele>
        <time>2019-08-21T14:20:47Z</time>
      </trkpt>
      <trkpt lat="59.283070033416152" lon="8.217314025387168">
        <ele>1082.32421875</ele>
        <time>2019-08-21T14:20:48Z</time>
      </trkpt>
      <trkpt lat="59.283073972910643" lon="8.217292986810207">
        <ele>1081.70703125</ele>
        <time>2019-08-21T14:20:49Z</time>
      </trkpt>
      <trkpt lat="59.283074978739023" lon="8.217281000688672">
        <ele>1081.3359375</ele>
        <time>2019-08-21T14:20:50Z</time>
      </trkpt>
      <trkpt lat="59.283076990395784" lon="8.217282006517053">
        <ele>1081.40234375</ele>
        <time>2019-08-21T14:20:51Z</time>
      </trkpt>
      <trkpt lat="59.283075984567404" lon="8.217261973768473">
        <ele>1080.734375</ele>
        <time>2019-08-21T14:20:52Z</time>
      </trkpt>
      <trkpt lat="59.283085037022829" lon="8.217229032889009">
        <ele>1079.83203125</ele>
        <time>2019-08-21T14:20:53Z</time>
      </trkpt>
      <trkpt lat="59.283102974295616" lon="8.217198019847274">
        <ele>1079.1875</ele>
        <time>2019-08-21T14:20:54Z</time>
      </trkpt>
      <trkpt lat="59.283115966245532" lon="8.217166000977159">
        <ele>1078.453125</ele>
        <time>2019-08-21T14:20:55Z</time>
      </trkpt>
      <trkpt lat="59.283123007044196" lon="8.217150997370482">
        <ele>1078.12890625</ele>
        <time>2019-08-21T14:20:56Z</time>
      </trkpt>
      <trkpt lat="59.283128036186099" lon="8.217135993763804">
        <ele>1077.76953125</ele>
        <time>2019-08-21T14:20:57Z</time>
      </trkpt>
      <trkpt lat="59.283130969852209" lon="8.217107998207212">
        <ele>1076.97265625</ele>
        <time>2019-08-21T14:20:58Z</time>
      </trkpt>
      <trkpt lat="59.28313197568059" lon="8.217086959630251">
        <ele>1076.35546875</ele>
        <time>2019-08-21T14:20:59Z</time>
      </trkpt>
      <trkpt lat="59.28313298150897" lon="8.217063993215561">
        <ele>1075.67578125</ele>
        <time>2019-08-21T14:21:00Z</time>
      </trkpt>
      <trkpt lat="59.28313298150897" lon="8.217035997658968">
        <ele>1074.8203125</ele>
        <time>2019-08-21T14:21:01Z</time>
      </trkpt>
      <trkpt lat="59.283135998994112" lon="8.217024011537433">
        <ele>1074.5234375</ele>
        <time>2019-08-21T14:21:02Z</time>
      </trkpt>
      <trkpt lat="59.283128958195448" lon="8.217000961303711">
        <ele>1073.6640625</ele>
        <time>2019-08-21T14:21:03Z</time>
      </trkpt>
      <trkpt lat="59.283129964023829" lon="8.216973971575499">
        <ele>1072.86328125</ele>
        <time>2019-08-21T14:21:04Z</time>
      </trkpt>
      <trkpt lat="59.283130969852209" lon="8.216952010989189">
        <ele>1072.21875</ele>
        <time>2019-08-21T14:21:05Z</time>
      </trkpt>
      <trkpt lat="59.283134993165731" lon="8.216922003775835">
        <ele>1071.453125</ele>
        <time>2019-08-21T14:21:06Z</time>
      </trkpt>
      <trkpt lat="59.283135998994112" lon="8.216883027926087">
        <ele>1070.43359375</ele>
        <time>2019-08-21T14:21:07Z</time>
      </trkpt>
      <trkpt lat="59.283138010650873" lon="8.21684698574245">
        <ele>1069.51953125</ele>
        <time>2019-08-21T14:21:08Z</time>
      </trkpt>
      <trkpt lat="59.283143039792776" lon="8.216811027377844">
        <ele>1068.6875</ele>
        <time>2019-08-21T14:21:09Z</time>
      </trkpt>
      <trkpt lat="59.283145973458886" lon="8.216778002679348">
        <ele>1067.8828125</ele>
        <time>2019-08-21T14:21:10Z</time>
      </trkpt>
      <trkpt lat="59.283145973458886" lon="8.216746989637613">
        <ele>1067.05859375</ele>
        <time>2019-08-21T14:21:11Z</time>
      </trkpt>
      <trkpt lat="59.283146979287267" lon="8.216721005737782">
        <ele>1066.3984375</ele>
        <time>2019-08-21T14:21:12Z</time>
      </trkpt>
      <trkpt lat="59.283149996772408" lon="8.21669602766633">
        <ele>1065.81640625</ele>
        <time>2019-08-21T14:21:13Z</time>
      </trkpt>
      <trkpt lat="59.283159971237183" lon="8.216669037938118">
        <ele>1065.38671875</ele>
        <time>2019-08-21T14:21:14Z</time>
      </trkpt>
      <trkpt lat="59.283168017864227" lon="8.216646993532777">
        <ele>1065.0234375</ele>
        <time>2019-08-21T14:21:15Z</time>
      </trkpt>
      <trkpt lat="59.28317598067224" lon="8.216623021289706">
        <ele>1064.60546875</ele>
        <time>2019-08-21T14:21:16Z</time>
      </trkpt>
      <trkpt lat="59.283186960965395" lon="8.216596031561494">
        <ele>1064.19921875</ele>
        <time>2019-08-21T14:21:17Z</time>
      </trkpt>
      <trkpt lat="59.283202970400453" lon="8.216583961620927">
        <ele>1064.359375</ele>
        <time>2019-08-21T14:21:18Z</time>
      </trkpt>
      <trkpt lat="59.283209005370736" lon="8.216581027954817">
        <ele>1064.4609375</ele>
        <time>2019-08-21T14:21:19Z</time>
      </trkpt>
      <trkpt lat="59.283212022855878" lon="8.21656703017652">
        <ele>1064.18359375</ele>
        <time>2019-08-21T14:21:20Z</time>
      </trkpt>
      <trkpt lat="59.283215962350368" lon="8.216541968286037">
        <ele>1063.64453125</ele>
        <time>2019-08-21T14:21:21Z</time>
      </trkpt>
      <trkpt lat="59.283220991492271" lon="8.216511039063335">
        <ele>1062.9921875</ele>
        <time>2019-08-21T14:21:22Z</time>
      </trkpt>
      <trkpt lat="59.283215962350368" lon="8.216472985222936">
        <ele>1061.83203125</ele>
        <time>2019-08-21T14:21:23Z</time>
      </trkpt>
      <trkpt lat="59.283214034512639" lon="8.216453958302736">
        <ele>1061.26953125</ele>
        <time>2019-08-21T14:21:24Z</time>
      </trkpt>
      <trkpt lat="59.283214034512639" lon="8.216441972181201">
        <ele>1060.953125</ele>
        <time>2019-08-21T14:21:25Z</time>
      </trkpt>
      <trkpt lat="59.283209005370736" lon="8.21644096635282">
        <ele>1060.76171875</ele>
        <time>2019-08-21T14:21:26Z</time>
      </trkpt>
      <trkpt lat="59.283186960965395" lon="8.216436021029949">
        <ele>1059.90234375</ele>
        <time>2019-08-21T14:21:28Z</time>
      </trkpt>
      <trkpt lat="59.283168017864227" lon="8.216428980231285">
        <ele>1059.0859375</ele>
        <time>2019-08-21T14:21:29Z</time>
      </trkpt>
      <trkpt lat="59.283157959580421" lon="8.216405007988215">
        <ele>1058.09765625</ele>
        <time>2019-08-21T14:21:30Z</time>
      </trkpt>
      <trkpt lat="59.283172963187099" lon="8.216344993561506">
        <ele>1057.3359375</ele>
        <time>2019-08-21T14:21:32Z</time>
      </trkpt>
      <trkpt lat="59.283184027299285" lon="8.216320015490055">
        <ele>1057.3046875</ele>
        <time>2019-08-21T14:21:33Z</time>
      </trkpt>
      <trkpt lat="59.283187966793776" lon="8.216295037418604">
        <ele>1057.02734375</ele>
        <time>2019-08-21T14:21:34Z</time>
      </trkpt>
      <trkpt lat="59.283189978450537" lon="8.216270981356502">
        <ele>1056.69921875</ele>
        <time>2019-08-21T14:21:35Z</time>
      </trkpt>
      <trkpt lat="59.283194001764059" lon="8.216247009113431">
        <ele>1056.45703125</ele>
        <time>2019-08-21T14:21:36Z</time>
      </trkpt>
      <trkpt lat="59.283202970400453" lon="8.216221025213599">
        <ele>1056.39453125</ele>
        <time>2019-08-21T14:21:37Z</time>
      </trkpt>
      <trkpt lat="59.283205987885594" lon="8.216205015778542">
        <ele>1056.26171875</ele>
        <time>2019-08-21T14:21:38Z</time>
      </trkpt>
      <trkpt lat="59.283214034512639" lon="8.216191018000245">
        <ele>1056.375</ele>
        <time>2019-08-21T14:21:39Z</time>
      </trkpt>
      <trkpt lat="59.283221997320652" lon="8.216190012171865">
        <ele>1056.69921875</ele>
        <time>2019-08-21T14:21:40Z</time>
      </trkpt>
      <trkpt lat="59.283226020634174" lon="8.216183977201581">
        <ele>1056.77734375</ele>
        <time>2019-08-21T14:21:41Z</time>
      </trkpt>
      <trkpt lat="59.283231971785426" lon="8.216170985251665">
        <ele>1056.8359375</ele>
        <time>2019-08-21T14:21:42Z</time>
      </trkpt>
      <trkpt lat="59.283233983442187" lon="8.21613603271544">
        <ele>1056.40234375</ele>
        <time>2019-08-21T14:21:43Z</time>
      </trkpt>
      <trkpt lat="59.283235995098948" lon="8.216106025502086">
        <ele>1056.05078125</ele>
        <time>2019-08-21T14:21:44Z</time>
      </trkpt>
      <trkpt lat="59.28323901258409" lon="8.216083981096745">
        <ele>1056.03515625</ele>
        <time>2019-08-21T14:21:45Z</time>
      </trkpt>
      <trkpt lat="59.283253010362387" lon="8.216046011075378">
        <ele>1056.4609375</ele>
        <time>2019-08-21T14:21:47Z</time>
      </trkpt>
      <trkpt lat="59.283262984827161" lon="8.216054979711771">
        <ele>1056.99609375</ele>
        <time>2019-08-21T14:21:48Z</time>
      </trkpt>
      <trkpt lat="59.283262984827161" lon="8.216048022732139">
        <ele>1056.95703125</ele>
        <time>2019-08-21T14:21:49Z</time>
      </trkpt>
      <trkpt lat="59.2832609731704" lon="8.216026984155178">
        <ele>1056.73828125</ele>
        <time>2019-08-21T14:21:50Z</time>
      </trkpt>
      <trkpt lat="59.283262984827161" lon="8.216005023568869">
        <ele>1056.7109375</ele>
        <time>2019-08-21T14:21:51Z</time>
      </trkpt>
      <trkpt lat="59.283269019797444" lon="8.21598700247705">
        <ele>1056.9140625</ele>
        <time>2019-08-21T14:21:52Z</time>
      </trkpt>
      <trkpt lat="59.283275976777077" lon="8.215969987213612">
        <ele>1057.1796875</ele>
        <time>2019-08-21T14:21:53Z</time>
      </trkpt>
      <trkpt lat="59.283284023404121" lon="8.215953977778554">
        <ele>1057.515625</ele>
        <time>2019-08-21T14:21:54Z</time>
      </trkpt>
      <trkpt lat="59.28328201174736" lon="8.215930005535483">
        <ele>1057.29296875</ele>
        <time>2019-08-21T14:21:55Z</time>
      </trkpt>
      <trkpt lat="59.283276982605457" lon="8.215894969180226">
        <ele>1056.84765625</ele>
        <time>2019-08-21T14:21:56Z</time>
      </trkpt>
      <trkpt lat="59.283276982605457" lon="8.21585901081562">
        <ele>1056.66015625</ele>
        <time>2019-08-21T14:21:57Z</time>
      </trkpt>
      <trkpt lat="59.28328100591898" lon="8.21583797223866">
        <ele>1056.78125</ele>
        <time>2019-08-21T14:21:58Z</time>
      </trkpt>
      <trkpt lat="59.283287962898612" lon="8.215826991945505">
        <ele>1057.12109375</ele>
        <time>2019-08-21T14:21:59Z</time>
      </trkpt>
      <trkpt lat="59.283285029232502" lon="8.215819029137492">
        <ele>1056.8828125</ele>
        <time>2019-08-21T14:22:00Z</time>
      </trkpt>
      <trkpt lat="59.283278994262218" lon="8.215806959196925">
        <ele>1056.44140625</ele>
        <time>2019-08-21T14:22:01Z</time>
      </trkpt>
      <trkpt lat="59.283273965120316" lon="8.215790027752519">
        <ele>1056.03125</ele>
        <time>2019-08-21T14:22:02Z</time>
      </trkpt>
      <trkpt lat="59.283280000090599" lon="8.215761026367545">
        <ele>1056.10546875</ele>
        <time>2019-08-21T14:22:04Z</time>
      </trkpt>
      <trkpt lat="59.283291986212134" lon="8.215740993618965">
        <ele>1056.5078125</ele>
        <time>2019-08-21T14:22:05Z</time>
      </trkpt>
      <trkpt lat="59.28330397233367" lon="8.215718027204275">
        <ele>1056.828125</ele>
        <time>2019-08-21T14:22:06Z</time>
      </trkpt>
      <trkpt lat="59.283312018960714" lon="8.215691959485412">
        <ele>1056.8828125</ele>
        <time>2019-08-21T14:22:07Z</time>
      </trkpt>
      <trkpt lat="59.283315958455205" lon="8.215672010555863">
        <ele>1056.8046875</ele>
        <time>2019-08-21T14:22:08Z</time>
      </trkpt>
      <trkpt lat="59.283307995647192" lon="8.215649966150522">
        <ele>1056.2265625</ele>
        <time>2019-08-21T14:22:09Z</time>
      </trkpt>
      <trkpt lat="59.283305983990431" lon="8.215626999735832">
        <ele>1055.890625</ele>
        <time>2019-08-21T14:22:10Z</time>
      </trkpt>
      <trkpt lat="59.283309001475573" lon="8.215597998350859">
        <ele>1055.6640625</ele>
        <time>2019-08-21T14:22:11Z</time>
      </trkpt>
      <trkpt lat="59.283315036445856" lon="8.215578971430659">
        <ele>1055.625</ele>
        <time>2019-08-21T14:22:12Z</time>
      </trkpt>
      <trkpt lat="59.283316964283586" lon="8.215553993359208">
        <ele>1055.375</ele>
        <time>2019-08-21T14:22:13Z</time>
      </trkpt>
      <trkpt lat="59.283316964283586" lon="8.215525997802615">
        <ele>1054.90625</ele>
        <time>2019-08-21T14:22:14Z</time>
      </trkpt>
      <trkpt lat="59.283313024789095" lon="8.215488027781248">
        <ele>1054.140625</ele>
        <time>2019-08-21T14:22:15Z</time>
      </trkpt>
      <trkpt lat="59.283310007303953" lon="8.215455003082752">
        <ele>1053.48828125</ele>
        <time>2019-08-21T14:22:16Z</time>
      </trkpt>
      <trkpt lat="59.28330497816205" lon="8.215430025011301">
        <ele>1052.9296875</ele>
        <time>2019-08-21T14:22:17Z</time>
      </trkpt>
      <trkpt lat="59.28330497816205" lon="8.215416027233005">
        <ele>1052.69140625</ele>
        <time>2019-08-21T14:22:18Z</time>
      </trkpt>
      <trkpt lat="59.28330397233367" lon="8.215414015576243">
        <ele>1052.62890625</ele>
        <time>2019-08-21T14:22:19Z</time>
      </trkpt>
      <trkpt lat="59.283302966505289" lon="8.215418960899115">
        <ele>1052.69140625</ele>
        <time>2019-08-21T14:22:20Z</time>
      </trkpt>
      <trkpt lat="59.283301960676908" lon="8.215421978384256">
        <ele>1052.71875</ele>
        <time>2019-08-21T14:22:21Z</time>
      </trkpt>
      <trkpt lat="59.283301960676908" lon="8.215423990041018">
        <ele>1052.75</ele>
        <time>2019-08-21T14:22:22Z</time>
      </trkpt>
      <trkpt lat="59.283301960676908" lon="8.215423990041018">
        <ele>1052.75</ele>
        <time>2019-08-21T14:22:23Z</time>
      </trkpt>
      <trkpt lat="59.283301960676908" lon="8.215423990041018">
        <ele>1052.75</ele>
        <time>2019-08-21T14:22:24Z</time>
      </trkpt>
      <trkpt lat="59.283301960676908" lon="8.215424995869398">
        <ele>1052.76953125</ele>
        <time>2019-08-21T14:22:25Z</time>
      </trkpt>
      <trkpt lat="59.283301960676908" lon="8.215426001697779">
        <ele>1052.78515625</ele>
        <time>2019-08-21T14:22:26Z</time>
      </trkpt>
      <trkpt lat="59.283301960676908" lon="8.215424995869398">
        <ele>1052.76953125</ele>
        <time>2019-08-21T14:22:27Z</time>
      </trkpt>
      <trkpt lat="59.283301960676908" lon="8.215422984212637">
        <ele>1052.734375</ele>
        <time>2019-08-21T14:22:28Z</time>
      </trkpt>
      <trkpt lat="59.28330397233367" lon="8.215420972555876">
        <ele>1052.75</ele>
        <time>2019-08-21T14:22:29Z</time>
      </trkpt>
      <trkpt lat="59.28330497816205" lon="8.215420972555876">
        <ele>1052.7734375</ele>
        <time>2019-08-21T14:22:30Z</time>
      </trkpt>
      <trkpt lat="59.28330497816205" lon="8.215420972555876">
        <ele>1052.7734375</ele>
        <time>2019-08-21T14:22:31Z</time>
      </trkpt>
      <trkpt lat="59.283306989818811" lon="8.215419966727495">
        <ele>1052.80859375</ele>
        <time>2019-08-21T14:22:32Z</time>
      </trkpt>
      <trkpt lat="59.283309001475573" lon="8.215418960899115">
        <ele>1052.83984375</ele>
        <time>2019-08-21T14:22:33Z</time>
      </trkpt>
      <trkpt lat="59.283309001475573" lon="8.215418960899115">
        <ele>1052.83984375</ele>
        <time>2019-08-21T14:22:34Z</time>
      </trkpt>
      <trkpt lat="59.283309001475573" lon="8.215418960899115">
        <ele>1052.83984375</ele>
        <time>2019-08-21T14:22:35Z</time>
      </trkpt>
      <trkpt lat="59.283310007303953" lon="8.215415021404624">
        <ele>1052.796875</ele>
        <time>2019-08-21T14:22:36Z</time>
      </trkpt>
      <trkpt lat="59.283310007303953" lon="8.215415021404624">
        <ele>1052.796875</ele>
        <time>2019-08-21T14:22:37Z</time>
      </trkpt>
      <trkpt lat="59.283310007303953" lon="8.215414015576243">
        <ele>1052.78125</ele>
        <time>2019-08-21T14:22:38Z</time>
      </trkpt>
      <trkpt lat="59.283310007303953" lon="8.215414015576243">
        <ele>1052.78125</ele>
        <time>2019-08-21T14:22:39Z</time>
      </trkpt>
      <trkpt lat="59.283311013132334" lon="8.215414015576243">
        <ele>1052.8046875</ele>
        <time>2019-08-21T14:22:40Z</time>
      </trkpt>
      <trkpt lat="59.283310007303953" lon="8.215413009747863">
        <ele>1052.76171875</ele>
        <time>2019-08-21T14:22:41Z</time>
      </trkpt>
      <trkpt lat="59.283310007303953" lon="8.215413009747863">
        <ele>1052.76171875</ele>
        <time>2019-08-21T14:22:42Z</time>
      </trkpt>
      <trkpt lat="59.283307995647192" lon="8.215414015576243">
        <ele>1052.73046875</ele>
        <time>2019-08-21T14:22:43Z</time>
      </trkpt>
      <trkpt lat="59.283307995647192" lon="8.215414015576243">
        <ele>1052.73046875</ele>
        <time>2019-08-21T14:22:44Z</time>
      </trkpt>
      <trkpt lat="59.283307995647192" lon="8.215414015576243">
        <ele>1052.73046875</ele>
        <time>2019-08-21T14:22:45Z</time>
      </trkpt>
      <trkpt lat="59.283307995647192" lon="8.215414015576243">
        <ele>1052.73046875</ele>
        <time>2019-08-21T14:22:46Z</time>
      </trkpt>
      <trkpt lat="59.283309001475573" lon="8.215413009747863">
        <ele>1052.73828125</ele>
        <time>2019-08-21T14:22:47Z</time>
      </trkpt>
      <trkpt lat="59.283311013132334" lon="8.215414015576243">
        <ele>1052.8046875</ele>
        <time>2019-08-21T14:22:48Z</time>
      </trkpt>
      <trkpt lat="59.283311013132334" lon="8.215414015576243">
        <ele>1052.8046875</ele>
        <time>2019-08-21T14:22:49Z</time>
      </trkpt>
      <trkpt lat="59.283311013132334" lon="8.215414015576243">
        <ele>1052.8046875</ele>
        <time>2019-08-21T14:22:50Z</time>
      </trkpt>
      <trkpt lat="59.283311013132334" lon="8.215414015576243">
        <ele>1052.8046875</ele>
        <time>2019-08-21T14:22:51Z</time>
      </trkpt>
      <trkpt lat="59.283311013132334" lon="8.215414015576243">
        <ele>1052.8046875</ele>
        <time>2019-08-21T14:22:52Z</time>
      </trkpt>
      <trkpt lat="59.283311013132334" lon="8.215414015576243">
        <ele>1052.8046875</ele>
        <time>2019-08-21T14:22:53Z</time>
      </trkpt>
      <trkpt lat="59.283311013132334" lon="8.215414015576243">
        <ele>1052.8046875</ele>
        <time>2019-08-21T14:22:54Z</time>
      </trkpt>
      <trkpt lat="59.283311013132334" lon="8.215414015576243">
        <ele>1052.8046875</ele>
        <time>2019-08-21T14:22:55Z</time>
      </trkpt>
      <trkpt lat="59.283311013132334" lon="8.215414015576243">
        <ele>1052.8046875</ele>
        <time>2019-08-21T14:22:56Z</time>
      </trkpt>
      <trkpt lat="59.283311013132334" lon="8.215414015576243">
        <ele>1052.8046875</ele>
        <time>2019-08-21T14:22:57Z</time>
      </trkpt>
      <trkpt lat="59.283311013132334" lon="8.215414015576243">
        <ele>1052.8046875</ele>
        <time>2019-08-21T14:22:58Z</time>
      </trkpt>
      <trkpt lat="59.283311013132334" lon="8.215414015576243">
        <ele>1052.8046875</ele>
        <time>2019-08-21T14:22:59Z</time>
      </trkpt>
      <trkpt lat="59.283311013132334" lon="8.215414015576243">
        <ele>1052.8046875</ele>
        <time>2019-08-21T14:23:00Z</time>
      </trkpt>
      <trkpt lat="59.283311013132334" lon="8.215414015576243">
        <ele>1052.8046875</ele>
        <time>2019-08-21T14:23:01Z</time>
      </trkpt>
      <trkpt lat="59.283311013132334" lon="8.215414015576243">
        <ele>1052.8046875</ele>
        <time>2019-08-21T14:23:02Z</time>
      </trkpt>
      <trkpt lat="59.283311013132334" lon="8.215414015576243">
        <ele>1052.8046875</ele>
        <time>2019-08-21T14:23:03Z</time>
      </trkpt>
      <trkpt lat="59.283311013132334" lon="8.215414015576243">
        <ele>1052.8046875</ele>
        <time>2019-08-21T14:23:04Z</time>
      </trkpt>
      <trkpt lat="59.283311013132334" lon="8.215414015576243">
        <ele>1052.8046875</ele>
        <time>2019-08-21T14:23:05Z</time>
      </trkpt>
      <trkpt lat="59.283311013132334" lon="8.215414015576243">
        <ele>1052.8046875</ele>
        <time>2019-08-21T14:23:06Z</time>
      </trkpt>
      <trkpt lat="59.283311013132334" lon="8.215414015576243">
        <ele>1052.8046875</ele>
        <time>2019-08-21T14:23:07Z</time>
      </trkpt>
      <trkpt lat="59.283311013132334" lon="8.215414015576243">
        <ele>1052.8046875</ele>
        <time>2019-08-21T14:23:08Z</time>
      </trkpt>
      <trkpt lat="59.283311013132334" lon="8.215414015576243">
        <ele>1052.8046875</ele>
        <time>2019-08-21T14:23:09Z</time>
      </trkpt>
      <trkpt lat="59.283311013132334" lon="8.215414015576243">
        <ele>1052.8046875</ele>
        <time>2019-08-21T14:23:10Z</time>
      </trkpt>
      <trkpt lat="59.283312018960714" lon="8.215416027233005">
        <ele>1052.86328125</ele>
        <time>2019-08-21T14:23:11Z</time>
      </trkpt>
      <trkpt lat="59.283312018960714" lon="8.215418038889766">
        <ele>1052.8984375</ele>
        <time>2019-08-21T14:23:12Z</time>
      </trkpt>
      <trkpt lat="59.283312018960714" lon="8.215416027233005">
        <ele>1052.86328125</ele>
        <time>2019-08-21T14:23:13Z</time>
      </trkpt>
      <trkpt lat="59.283312018960714" lon="8.215415021404624">
        <ele>1052.84765625</ele>
        <time>2019-08-21T14:23:14Z</time>
      </trkpt>
      <trkpt lat="59.283312018960714" lon="8.215414015576243">
        <ele>1052.828125</ele>
        <time>2019-08-21T14:23:15Z</time>
      </trkpt>
      <trkpt lat="59.283312018960714" lon="8.215414015576243">
        <ele>1052.828125</ele>
        <time>2019-08-21T14:23:16Z</time>
      </trkpt>
      <trkpt lat="59.283312018960714" lon="8.215414015576243">
        <ele>1052.828125</ele>
        <time>2019-08-21T14:23:17Z</time>
      </trkpt>
      <trkpt lat="59.283312018960714" lon="8.215415021404624">
        <ele>1052.84765625</ele>
        <time>2019-08-21T14:23:18Z</time>
      </trkpt>
      <trkpt lat="59.283312018960714" lon="8.215410998091102">
        <ele>1052.77734375</ele>
        <time>2019-08-21T14:23:19Z</time>
      </trkpt>
      <trkpt lat="59.283314030617476" lon="8.215403035283089">
        <ele>1052.6875</ele>
        <time>2019-08-21T14:23:20Z</time>
      </trkpt>
      <trkpt lat="59.283314030617476" lon="8.215393982827663">
        <ele>1052.53125</ele>
        <time>2019-08-21T14:23:21Z</time>
      </trkpt>
      <trkpt lat="59.283312018960714" lon="8.21538501419127">
        <ele>1052.328125</ele>
        <time>2019-08-21T14:23:22Z</time>
      </trkpt>
      <trkpt lat="59.283312018960714" lon="8.215375961735845">
        <ele>1052.16796875</ele>
        <time>2019-08-21T14:23:23Z</time>
      </trkpt>
      <trkpt lat="59.283312018960714" lon="8.215372022241354">
        <ele>1052.1015625</ele>
        <time>2019-08-21T14:23:24Z</time>
      </trkpt>
      <trkpt lat="59.283312018960714" lon="8.215365987271071">
        <ele>1051.99609375</ele>
        <time>2019-08-21T14:23:25Z</time>
      </trkpt>
      <trkpt lat="59.283311013132334" lon="8.215361963957548">
        <ele>1051.90234375</ele>
        <time>2019-08-21T14:23:26Z</time>
      </trkpt>
      <trkpt lat="59.283310007303953" lon="8.215362969785929">
        <ele>1051.89453125</ele>
        <time>2019-08-21T14:23:27Z</time>
      </trkpt>
      <trkpt lat="59.283305983990431" lon="8.215361963957548">
        <ele>1051.78515625</ele>
        <time>2019-08-21T14:23:28Z</time>
      </trkpt>
      <trkpt lat="59.283289974555373" lon="8.215341009199619">
        <ele>1051.05078125</ele>
        <time>2019-08-21T14:23:30Z</time>
      </trkpt>
      <trkpt lat="59.283285029232502" lon="8.215312007814646">
        <ele>1050.4453125</ele>
        <time>2019-08-21T14:23:31Z</time>
      </trkpt>
      <trkpt lat="59.283285029232502" lon="8.215285018086433">
        <ele>1049.9921875</ele>
        <time>2019-08-21T14:23:32Z</time>
      </trkpt>
      <trkpt lat="59.283278994262218" lon="8.215234978124499">
        <ele>1048.9453125</ele>
        <time>2019-08-21T14:23:34Z</time>
      </trkpt>
      <trkpt lat="59.283283017575741" lon="8.215214023366571">
        <ele>1048.63671875</ele>
        <time>2019-08-21T14:23:35Z</time>
      </trkpt>
      <trkpt lat="59.28328201174736" lon="8.215211005881429">
        <ele>1048.55859375</ele>
        <time>2019-08-21T14:23:36Z</time>
      </trkpt>
      <trkpt lat="59.28328100591898" lon="8.215210000053048">
        <ele>1048.51953125</ele>
        <time>2019-08-21T14:23:37Z</time>
      </trkpt>
      <trkpt lat="59.283283017575741" lon="8.215212011709809">
        <ele>1048.6015625</ele>
        <time>2019-08-21T14:23:38Z</time>
      </trkpt>
      <trkpt lat="59.283285029232502" lon="8.21521301753819">
        <ele>1048.6640625</ele>
        <time>2019-08-21T14:23:39Z</time>
      </trkpt>
      <trkpt lat="59.283285029232502" lon="8.21521301753819">
        <ele>1048.6640625</ele>
        <time>2019-08-21T14:23:40Z</time>
      </trkpt>
      <trkpt lat="59.283286035060883" lon="8.215211005881429">
        <ele>1048.6484375</ele>
        <time>2019-08-21T14:23:41Z</time>
      </trkpt>
      <trkpt lat="59.283286035060883" lon="8.215211005881429">
        <ele>1048.6484375</ele>
        <time>2019-08-21T14:23:42Z</time>
      </trkpt>
      <trkpt lat="59.283286035060883" lon="8.215211005881429">
        <ele>1048.6484375</ele>
        <time>2019-08-21T14:23:43Z</time>
      </trkpt>
      <trkpt lat="59.283286035060883" lon="8.215199019759893">
        <ele>1048.421875</ele>
        <time>2019-08-21T14:23:44Z</time>
      </trkpt>
      <trkpt lat="59.283285029232502" lon="8.215174963697791">
        <ele>1047.94921875</ele>
        <time>2019-08-21T14:23:45Z</time>
      </trkpt>
      <trkpt lat="59.283287040889263" lon="8.215144034475088">
        <ele>1047.41015625</ele>
        <time>2019-08-21T14:23:46Z</time>
      </trkpt>
      <trkpt lat="59.283291986212134" lon="8.215114027261734">
        <ele>1046.95703125</ele>
        <time>2019-08-21T14:23:47Z</time>
      </trkpt>
      <trkpt lat="59.283297015354037" lon="8.215099023655057">
        <ele>1046.7890625</ele>
        <time>2019-08-21T14:23:48Z</time>
      </trkpt>
      <trkpt lat="59.28330103866756" lon="8.215091982856393">
        <ele>1046.75</ele>
        <time>2019-08-21T14:23:49Z</time>
      </trkpt>
      <trkpt lat="59.28330397233367" lon="8.215087037533522">
        <ele>1046.72265625</ele>
        <time>2019-08-21T14:23:50Z</time>
      </trkpt>
      <trkpt lat="59.283330040052533" lon="8.215058958157897">
        <ele>1046.78515625</ele>
        <time>2019-08-21T14:23:52Z</time>
      </trkpt>
      <trkpt lat="59.28334797732532" lon="8.215035991743207">
        <ele>1046.74609375</ele>
        <time>2019-08-21T14:23:53Z</time>
      </trkpt>
      <trkpt lat="59.283362980931997" lon="8.215027023106813">
        <ele>1046.91015625</ele>
        <time>2019-08-21T14:23:54Z</time>
      </trkpt>
      <trkpt lat="59.283373039215803" lon="8.215010007843375">
        <ele>1046.8125</ele>
        <time>2019-08-21T14:23:55Z</time>
      </trkpt>
      <trkpt lat="59.283383013680577" lon="8.214987963438034">
        <ele>1046.61328125</ele>
        <time>2019-08-21T14:23:56Z</time>
      </trkpt>
      <trkpt lat="59.28338997066021" lon="8.214959967881441">
        <ele>1046.20703125</ele>
        <time>2019-08-21T14:23:57Z</time>
      </trkpt>
      <trkpt lat="59.283398017287254" lon="8.214933983981609">
        <ele>1045.8671875</ele>
        <time>2019-08-21T14:23:58Z</time>
      </trkpt>
      <trkpt lat="59.283407991752028" lon="8.214918980374932">
        <ele>1045.79296875</ele>
        <time>2019-08-21T14:23:59Z</time>
      </trkpt>
      <trkpt lat="59.283418972045183" lon="8.2149120233953">
        <ele>1045.91015625</ele>
        <time>2019-08-21T14:24:00Z</time>
      </trkpt>
      <trkpt lat="59.283429030328989" lon="8.214906994253397">
        <ele>1046.0390625</ele>
        <time>2019-08-21T14:24:01Z</time>
      </trkpt>
      <trkpt lat="59.283436993137002" lon="8.214904982596636">
        <ele>1046.18359375</ele>
        <time>2019-08-21T14:24:02Z</time>
      </trkpt>
      <trkpt lat="59.283442022278905" lon="8.214900959283114">
        <ele>1046.22265625</ele>
        <time>2019-08-21T14:24:03Z</time>
      </trkpt>
      <trkpt lat="59.283458031713963" lon="8.214899031445384">
        <ele>1046.5546875</ele>
        <time>2019-08-21T14:24:05Z</time>
      </trkpt>
      <trkpt lat="59.283464988693595" lon="8.214888973161578">
        <ele>1046.5234375</ele>
        <time>2019-08-21T14:24:06Z</time>
      </trkpt>
      <trkpt lat="59.283470017835498" lon="8.214878998696804">
        <ele>1046.44921875</ele>
        <time>2019-08-21T14:24:07Z</time>
      </trkpt>
      <trkpt lat="59.28347303532064" lon="8.214866006746888">
        <ele>1046.26953125</ele>
        <time>2019-08-21T14:24:08Z</time>
      </trkpt>
      <trkpt lat="59.283477980643511" lon="8.214822001755238">
        <ele>1045.546875</ele>
        <time>2019-08-21T14:24:10Z</time>
      </trkpt>
      <trkpt lat="59.283478986471891" lon="8.214789982885122">
        <ele>1044.96484375</ele>
        <time>2019-08-21T14:24:11Z</time>
      </trkpt>
      <trkpt lat="59.283478986471891" lon="8.214771039783955">
        <ele>1044.60546875</ele>
        <time>2019-08-21T14:24:12Z</time>
      </trkpt>
      <trkpt lat="59.283467000350356" lon="8.214752012863755">
        <ele>1043.9453125</ele>
        <time>2019-08-21T14:24:13Z</time>
      </trkpt>
      <trkpt lat="59.283458031713963" lon="8.214731980115175">
        <ele>1043.3359375</ele>
        <time>2019-08-21T14:24:14Z</time>
      </trkpt>
      <trkpt lat="59.283458031713963" lon="8.21471999399364">
        <ele>1043.10546875</ele>
        <time>2019-08-21T14:24:15Z</time>
      </trkpt>
      <trkpt lat="59.283451996743679" lon="8.214698033407331">
        <ele>1042.80859375</ele>
        <time>2019-08-21T14:24:16Z</time>
      </trkpt>
      <trkpt lat="59.283445039764047" lon="8.214647993445396">
        <ele>1042.421875</ele>
        <time>2019-08-21T14:24:17Z</time>
      </trkpt>
      <trkpt lat="59.283435987308621" lon="8.214598959311843">
        <ele>1042.01953125</ele>
        <time>2019-08-21T14:24:18Z</time>
      </trkpt>
      <trkpt lat="59.28343296982348" lon="8.214566018432379">
        <ele>1041.828125</ele>
        <time>2019-08-21T14:24:19Z</time>
      </trkpt>
      <trkpt lat="59.283427018672228" lon="8.214528970420361">
        <ele>1041.57421875</ele>
        <time>2019-08-21T14:24:20Z</time>
      </trkpt>
      <trkpt lat="59.283429030328989" lon="8.214496029540896">
        <ele>1041.48828125</ele>
        <time>2019-08-21T14:24:21Z</time>
      </trkpt>
      <trkpt lat="59.283430958166718" lon="8.214460993185639">
        <ele>1041.38671875</ele>
        <time>2019-08-21T14:24:22Z</time>
      </trkpt>
      <trkpt lat="59.283441016450524" lon="8.214413970708847">
        <ele>1041.2421875</ele>
        <time>2019-08-21T14:24:23Z</time>
      </trkpt>
      <trkpt lat="59.283445961773396" lon="8.214371977373958">
        <ele>1040.9609375</ele>
        <time>2019-08-21T14:24:24Z</time>
      </trkpt>
      <trkpt lat="59.283447973430157" lon="8.214315986260772">
        <ele>1040.5078125</ele>
        <time>2019-08-21T14:24:25Z</time>
      </trkpt>
      <trkpt lat="59.283457025885582" lon="8.214276004582644">
        <ele>1040.28125</ele>
        <time>2019-08-21T14:24:26Z</time>
      </trkpt>
      <trkpt lat="59.283465994521976" lon="8.214243985712528">
        <ele>1040.11328125</ele>
        <time>2019-08-21T14:24:27Z</time>
      </trkpt>
      <trkpt lat="59.28347303532064" lon="8.214212972670794">
        <ele>1039.921875</ele>
        <time>2019-08-21T14:24:28Z</time>
      </trkpt>
      <trkpt lat="59.28347596898675" lon="8.214193023741245">
        <ele>1039.77734375</ele>
        <time>2019-08-21T14:24:29Z</time>
      </trkpt>
      <trkpt lat="59.283480998128653" lon="8.214175002649427">
        <ele>1039.671875</ele>
        <time>2019-08-21T14:24:30Z</time>
      </trkpt>
      <trkpt lat="59.283487033098936" lon="8.21416100487113">
        <ele>1039.609375</ele>
        <time>2019-08-21T14:24:31Z</time>
      </trkpt>
      <trkpt lat="59.283487033098936" lon="8.214149018749595">
        <ele>1039.50390625</ele>
        <time>2019-08-21T14:24:32Z</time>
      </trkpt>
      <trkpt lat="59.283489966765046" lon="8.214142983779311">
        <ele>1039.484375</ele>
        <time>2019-08-21T14:24:33Z</time>
      </trkpt>
      <trkpt lat="59.283487033098936" lon="8.214090010151267">
        <ele>1038.98828125</ele>
        <time>2019-08-21T14:24:35Z</time>
      </trkpt>
      <trkpt lat="59.283492984250188" lon="8.21405497379601">
        <ele>1038.74609375</ele>
        <time>2019-08-21T14:24:36Z</time>
      </trkpt>
      <trkpt lat="59.283502036705613" lon="8.214021027088165">
        <ele>1038.546875</ele>
        <time>2019-08-21T14:24:37Z</time>
      </trkpt>
      <trkpt lat="59.283507987856865" lon="8.213999988511205">
        <ele>1038.42578125</ele>
        <time>2019-08-21T14:24:38Z</time>
      </trkpt>
      <trkpt lat="59.283506982028484" lon="8.213978027924895">
        <ele>1038.22265625</ele>
        <time>2019-08-21T14:24:39Z</time>
      </trkpt>
      <trkpt lat="59.283508993685246" lon="8.213964030146599">
        <ele>1038.12109375</ele>
        <time>2019-08-21T14:24:40Z</time>
      </trkpt>
      <trkpt lat="59.283512011170387" lon="8.213957995176315">
        <ele>1038.1015625</ele>
        <time>2019-08-21T14:24:41Z</time>
      </trkpt>
      <trkpt lat="59.283512011170387" lon="8.213957995176315">
        <ele>1038.1015625</ele>
        <time>2019-08-21T14:24:42Z</time>
      </trkpt>
      <trkpt lat="59.283509999513626" lon="8.213961012661457">
        <ele>1038.10546875</ele>
        <time>2019-08-21T14:24:43Z</time>
      </trkpt>
      <trkpt lat="59.283511005342007" lon="8.213964030146599">
        <ele>1038.14453125</ele>
        <time>2019-08-21T14:24:44Z</time>
      </trkpt>
      <trkpt lat="59.283509999513626" lon="8.213967969641089">
        <ele>1038.16796875</ele>
        <time>2019-08-21T14:24:45Z</time>
      </trkpt>
      <trkpt lat="59.283509999513626" lon="8.213967969641089">
        <ele>1038.16796875</ele>
        <time>2019-08-21T14:24:46Z</time>
      </trkpt>
      <trkpt lat="59.283509999513626" lon="8.213967969641089">
        <ele>1038.16796875</ele>
        <time>2019-08-21T14:24:47Z</time>
      </trkpt>
      <trkpt lat="59.283509999513626" lon="8.213967969641089">
        <ele>1038.16796875</ele>
        <time>2019-08-21T14:24:48Z</time>
      </trkpt>
      <trkpt lat="59.283509999513626" lon="8.213966963812709">
        <ele>1038.16015625</ele>
        <time>2019-08-21T14:24:49Z</time>
      </trkpt>
      <trkpt lat="59.283508993685246" lon="8.213966963812709">
        <ele>1038.1484375</ele>
        <time>2019-08-21T14:24:50Z</time>
      </trkpt>
      <trkpt lat="59.283508993685246" lon="8.213966963812709">
        <ele>1038.1484375</ele>
        <time>2019-08-21T14:24:51Z</time>
      </trkpt>
      <trkpt lat="59.283508993685246" lon="8.213966963812709">
        <ele>1038.1484375</ele>
        <time>2019-08-21T14:24:52Z</time>
      </trkpt>
      <trkpt lat="59.283509999513626" lon="8.213966963812709">
        <ele>1038.16015625</ele>
        <time>2019-08-21T14:24:53Z</time>
      </trkpt>
      <trkpt lat="59.283509999513626" lon="8.213966963812709">
        <ele>1038.16015625</ele>
        <time>2019-08-21T14:24:54Z</time>
      </trkpt>
      <trkpt lat="59.283509999513626" lon="8.213966963812709">
        <ele>1038.16015625</ele>
        <time>2019-08-21T14:24:55Z</time>
      </trkpt>
      <trkpt lat="59.283505976200104" lon="8.213955983519554">
        <ele>1038.01953125</ele>
        <time>2019-08-21T14:24:57Z</time>
      </trkpt>
      <trkpt lat="59.283504970371723" lon="8.213962018489838">
        <ele>1038.05859375</ele>
        <time>2019-08-21T14:24:58Z</time>
      </trkpt>
      <trkpt lat="59.283500025048852" lon="8.213970987126231">
        <ele>1038.0859375</ele>
        <time>2019-08-21T14:24:59Z</time>
      </trkpt>
      <trkpt lat="59.283494995906949" lon="8.213976016268134">
        <ele>1038.07421875</ele>
        <time>2019-08-21T14:25:00Z</time>
      </trkpt>
      <trkpt lat="59.283488038927317" lon="8.213983979076147">
        <ele>1038.06640625</ele>
        <time>2019-08-21T14:25:01Z</time>
      </trkpt>
      <trkpt lat="59.283468006178737" lon="8.213990014046431">
        <ele>1037.90234375</ele>
        <time>2019-08-21T14:25:03Z</time>
      </trkpt>
      <trkpt lat="59.283464988693595" lon="8.213994037359953">
        <ele>1037.90234375</ele>
        <time>2019-08-21T14:25:04Z</time>
      </trkpt>
      <trkpt lat="59.283461971208453" lon="8.213996971026063">
        <ele>1037.89453125</ele>
        <time>2019-08-21T14:25:05Z</time>
      </trkpt>
      <trkpt lat="59.28345400840044" lon="8.214002000167966">
        <ele>1037.8515625</ele>
        <time>2019-08-21T14:25:06Z</time>
      </trkpt>
      <trkpt lat="59.283444033935666" lon="8.214006023481488">
        <ele>1037.77734375</ele>
        <time>2019-08-21T14:25:07Z</time>
      </trkpt>
      <trkpt lat="59.283443028107285" lon="8.213999988511205">
        <ele>1037.71484375</ele>
        <time>2019-08-21T14:25:08Z</time>
      </trkpt>
      <trkpt lat="59.283443028107285" lon="8.21398900821805">
        <ele>1037.6171875</ele>
        <time>2019-08-21T14:25:09Z</time>
      </trkpt>
      <trkpt lat="59.283444033935666" lon="8.213980961591005">
        <ele>1037.55859375</ele>
        <time>2019-08-21T14:25:10Z</time>
      </trkpt>
      <trkpt lat="59.283444033935666" lon="8.213980961591005">
        <ele>1037.55859375</ele>
        <time>2019-08-21T14:25:11Z</time>
      </trkpt>
      <trkpt lat="59.283444033935666" lon="8.213979033753276">
        <ele>1037.54296875</ele>
        <time>2019-08-21T14:25:12Z</time>
      </trkpt>
      <trkpt lat="59.283439004793763" lon="8.213941985741258">
        <ele>1037.16015625</ele>
        <time>2019-08-21T14:25:14Z</time>
      </trkpt>
      <trkpt lat="59.283440010622144" lon="8.213943997398019">
        <ele>1037.1875</ele>
        <time>2019-08-21T14:25:15Z</time>
      </trkpt>
      <trkpt lat="59.283440010622144" lon="8.213948020711541">
        <ele>1037.22265625</ele>
        <time>2019-08-21T14:25:16Z</time>
      </trkpt>
      <trkpt lat="59.283436993137002" lon="8.213951960206032">
        <ele>1037.2265625</ele>
        <time>2019-08-21T14:25:17Z</time>
      </trkpt>
      <trkpt lat="59.283429030328989" lon="8.213966963812709">
        <ele>1037.26953125</ele>
        <time>2019-08-21T14:25:18Z</time>
      </trkpt>
      <trkpt lat="59.283427018672228" lon="8.21396897546947">
        <ele>1037.265625</ele>
        <time>2019-08-21T14:25:19Z</time>
      </trkpt>
      <trkpt lat="59.283428024500608" lon="8.213967969641089">
        <ele>1037.26953125</ele>
        <time>2019-08-21T14:25:20Z</time>
      </trkpt>
      <trkpt lat="59.283429030328989" lon="8.213966963812709">
        <ele>1037.26953125</ele>
        <time>2019-08-21T14:25:21Z</time>
      </trkpt>
      <trkpt lat="59.283429030328989" lon="8.213966963812709">
        <ele>1037.26953125</ele>
        <time>2019-08-21T14:25:22Z</time>
      </trkpt>
      <trkpt lat="59.283427018672228" lon="8.213953971862793">
        <ele>1037.1328125</ele>
        <time>2019-08-21T14:25:24Z</time>
      </trkpt>
      <trkpt lat="59.283428024500608" lon="8.213947014883161">
        <ele>1037.0859375</ele>
        <time>2019-08-21T14:25:25Z</time>
      </trkpt>
      <trkpt lat="59.28343003615737" lon="8.213940979912877">
        <ele>1037.0546875</ele>
        <time>2019-08-21T14:25:26Z</time>
      </trkpt>
      <trkpt lat="59.283429030328989" lon="8.213938968256116">
        <ele>1037.0234375</ele>
        <time>2019-08-21T14:25:27Z</time>
      </trkpt>
      <trkpt lat="59.283428024500608" lon="8.213937040418387">
        <ele>1036.99609375</ele>
        <time>2019-08-21T14:25:28Z</time>
      </trkpt>
      <trkpt lat="59.283429030328989" lon="8.213937962427735">
        <ele>1037.015625</ele>
        <time>2019-08-21T14:25:29Z</time>
      </trkpt>
      <trkpt lat="59.283430958166718" lon="8.213937962427735">
        <ele>1037.03515625</ele>
        <time>2019-08-21T14:25:30Z</time>
      </trkpt>
      <trkpt lat="59.283430958166718" lon="8.213937962427735">
        <ele>1037.03515625</ele>
        <time>2019-08-21T14:25:31Z</time>
      </trkpt>
      <trkpt lat="59.28343003615737" lon="8.213951960206032">
        <ele>1037.1484375</ele>
        <time>2019-08-21T14:25:32Z</time>
      </trkpt>
      <trkpt lat="59.283427018672228" lon="8.213962018489838">
        <ele>1037.203125</ele>
        <time>2019-08-21T14:25:33Z</time>
      </trkpt>
      <trkpt lat="59.28341100923717" lon="8.213981967419386">
        <ele>1037.203125</ele>
        <time>2019-08-21T14:25:35Z</time>
      </trkpt>
      <trkpt lat="59.283400028944016" lon="8.213983979076147">
        <ele>1037.1015625</ele>
        <time>2019-08-21T14:25:36Z</time>
      </trkpt>
      <trkpt lat="59.283397011458874" lon="8.213982973247767">
        <ele>1037.05859375</ele>
        <time>2019-08-21T14:25:37Z</time>
      </trkpt>
      <trkpt lat="59.283388964831829" lon="8.213988002389669">
        <ele>1037.015625</ele>
        <time>2019-08-21T14:25:38Z</time>
      </trkpt>
      <trkpt lat="59.283381002023816" lon="8.213994959369302">
        <ele>1036.98828125</ele>
        <time>2019-08-21T14:25:39Z</time>
      </trkpt>
      <trkpt lat="59.283373961225152" lon="8.21398900821805">
        <ele>1036.859375</ele>
        <time>2019-08-21T14:25:40Z</time>
      </trkpt>
      <trkpt lat="59.283365998417139" lon="8.213980039581657">
        <ele>1036.6953125</ele>
        <time>2019-08-21T14:25:41Z</time>
      </trkpt>
      <trkpt lat="59.283359041437507" lon="8.213985990732908">
        <ele>1036.66796875</ele>
        <time>2019-08-21T14:25:42Z</time>
      </trkpt>
      <trkpt lat="59.283350994810462" lon="8.213980039581657">
        <ele>1036.52734375</ele>
        <time>2019-08-21T14:25:43Z</time>
      </trkpt>
      <trkpt lat="59.283316964283586" lon="8.21396604180336">
        <ele>1035.93359375</ele>
        <time>2019-08-21T14:25:45Z</time>
      </trkpt>
      <trkpt lat="59.283295003697276" lon="8.213953971862793">
        <ele>1035.26171875</ele>
        <time>2019-08-21T14:25:46Z</time>
      </trkpt>
      <trkpt lat="59.283278994262218" lon="8.213955983519554">
        <ele>1034.86328125</ele>
        <time>2019-08-21T14:25:47Z</time>
      </trkpt>
      <trkpt lat="59.283270025625825" lon="8.213966963812709">
        <ele>1034.7265625</ele>
        <time>2019-08-21T14:25:48Z</time>
      </trkpt>
      <trkpt lat="59.283264996483922" lon="8.213979033753276">
        <ele>1034.6953125</ele>
        <time>2019-08-21T14:25:49Z</time>
      </trkpt>
      <trkpt lat="59.2832609731704" lon="8.213974004611373">
        <ele>1034.55078125</ele>
        <time>2019-08-21T14:25:50Z</time>
      </trkpt>
      <trkpt lat="59.28325803950429" lon="8.21396897546947">
        <ele>1034.4296875</ele>
        <time>2019-08-21T14:25:51Z</time>
      </trkpt>
      <trkpt lat="59.283267008140683" lon="8.213947014883161">
        <ele>1034.48046875</ele>
        <time>2019-08-21T14:25:53Z</time>
      </trkpt>
      <trkpt lat="59.283264996483922" lon="8.213941985741258">
        <ele>1034.38671875</ele>
        <time>2019-08-21T14:25:54Z</time>
      </trkpt>
      <trkpt lat="59.283262984827161" lon="8.213931005448103">
        <ele>1034.24609375</ele>
        <time>2019-08-21T14:25:55Z</time>
      </trkpt>
      <trkpt lat="59.283248987048864" lon="8.213896974921227">
        <ele>1033.60546875</ele>
        <time>2019-08-21T14:25:57Z</time>
      </trkpt>
      <trkpt lat="59.283241024240851" lon="8.213884988799691">
        <ele>1033.30859375</ele>
        <time>2019-08-21T14:25:58Z</time>
      </trkpt>
      <trkpt lat="59.283235995098948" lon="8.213878031820059">
        <ele>1033.1484375</ele>
        <time>2019-08-21T14:25:59Z</time>
      </trkpt>
      <trkpt lat="59.283230965957046" lon="8.213868979364634">
        <ele>1032.984375</ele>
        <time>2019-08-21T14:26:00Z</time>
      </trkpt>
      <trkpt lat="59.283229960128665" lon="8.213853975757957">
        <ele>1032.90234375</ele>
        <time>2019-08-21T14:26:01Z</time>
      </trkpt>
      <trkpt lat="59.283229038119316" lon="8.213806031271815">
        <ele>1032.6875</ele>
        <time>2019-08-21T14:26:03Z</time>
      </trkpt>
      <trkpt lat="59.283230965957046" lon="8.21379597298801">
        <ele>1032.69140625</ele>
        <time>2019-08-21T14:26:04Z</time>
      </trkpt>
      <trkpt lat="59.283229960128665" lon="8.213797984644771">
        <ele>1032.67578125</ele>
        <time>2019-08-21T14:26:05Z</time>
      </trkpt>
      <trkpt lat="59.283229960128665" lon="8.213797984644771">
        <ele>1032.67578125</ele>
        <time>2019-08-21T14:26:06Z</time>
      </trkpt>
      <trkpt lat="59.283230965957046" lon="8.213799996301532">
        <ele>1032.70703125</ele>
        <time>2019-08-21T14:26:07Z</time>
      </trkpt>
      <trkpt lat="59.283230965957046" lon="8.213799996301532">
        <ele>1032.70703125</ele>
        <time>2019-08-21T14:26:08Z</time>
      </trkpt>
      <trkpt lat="59.283210011199117" lon="8.213811982423067">
        <ele>1032.25</ele>
        <time>2019-08-21T14:26:10Z</time>
      </trkpt>
      <trkpt lat="59.283204982057214" lon="8.213809970766306">
        <ele>1032.12109375</ele>
        <time>2019-08-21T14:26:11Z</time>
      </trkpt>
      <trkpt lat="59.283194001764059" lon="8.213808964937925">
        <ele>1031.85546875</ele>
        <time>2019-08-21T14:26:12Z</time>
      </trkpt>
      <trkpt lat="59.283184027299285" lon="8.213808964937925">
        <ele>1031.61328125</ele>
        <time>2019-08-21T14:26:13Z</time>
      </trkpt>
      <trkpt lat="59.283171035349369" lon="8.213820029050112">
        <ele>1031.3359375</ele>
        <time>2019-08-21T14:26:14Z</time>
      </trkpt>
      <trkpt lat="59.283149996772408" lon="8.213820029050112">
        <ele>1030.828125</ele>
        <time>2019-08-21T14:26:16Z</time>
      </trkpt>
      <trkpt lat="59.28313298150897" lon="8.213837966322899">
        <ele>1030.45703125</ele>
        <time>2019-08-21T14:26:18Z</time>
      </trkpt>
      <trkpt lat="59.283126024529338" lon="8.213855987414718">
        <ele>1030.33203125</ele>
        <time>2019-08-21T14:26:19Z</time>
      </trkpt>
      <trkpt lat="59.283124012872577" lon="8.213869985193014">
        <ele>1030.3125</ele>
        <time>2019-08-21T14:26:20Z</time>
      </trkpt>
      <trkpt lat="59.283116972073913" lon="8.213870991021395">
        <ele>1030.140625</ele>
        <time>2019-08-21T14:26:21Z</time>
      </trkpt>
      <trkpt lat="59.283106997609138" lon="8.213873002678156">
        <ele>1029.89453125</ele>
        <time>2019-08-21T14:26:22Z</time>
      </trkpt>
      <trkpt lat="59.28308897651732" lon="8.213895969092846">
        <ele>1029.54296875</ele>
        <time>2019-08-21T14:26:24Z</time>
      </trkpt>
      <trkpt lat="59.283072967082262" lon="8.213932011276484">
        <ele>1029.3828125</ele>
        <time>2019-08-21T14:26:26Z</time>
      </trkpt>
      <trkpt lat="59.283063998445868" lon="8.213952966034412">
        <ele>1029.29296875</ele>
        <time>2019-08-21T14:26:27Z</time>
      </trkpt>
      <trkpt lat="59.283052012324333" lon="8.213964030146599">
        <ele>1029.05859375</ele>
        <time>2019-08-21T14:26:28Z</time>
      </trkpt>
      <trkpt lat="59.283042037859559" lon="8.213963024318218">
        <ele>1028.8203125</ele>
        <time>2019-08-21T14:26:29Z</time>
      </trkpt>
      <trkpt lat="59.283019993454218" lon="8.213953971862793">
        <ele>1028.34765625</ele>
        <time>2019-08-21T14:26:31Z</time>
      </trkpt>
      <trkpt lat="59.283010018989444" lon="8.213949026539922">
        <ele>1028.1328125</ele>
        <time>2019-08-21T14:26:32Z</time>
      </trkpt>
      <trkpt lat="59.282999960705638" lon="8.213945003226399">
        <ele>1027.921875</ele>
        <time>2019-08-21T14:26:33Z</time>
      </trkpt>
      <trkpt lat="59.282991997897625" lon="8.213938968256116">
        <ele>1027.7421875</ele>
        <time>2019-08-21T14:26:34Z</time>
      </trkpt>
      <trkpt lat="59.282982023432851" lon="8.213924970477819">
        <ele>1027.48046875</ele>
        <time>2019-08-21T14:26:35Z</time>
      </trkpt>
      <trkpt lat="59.282970959320664" lon="8.213907033205032">
        <ele>1027.1796875</ele>
        <time>2019-08-21T14:26:36Z</time>
      </trkpt>
      <trkpt lat="59.282962996512651" lon="8.213907033205032">
        <ele>1027.0390625</ele>
        <time>2019-08-21T14:26:37Z</time>
      </trkpt>
      <trkpt lat="59.282955033704638" lon="8.213910972699523">
        <ele>1026.9140625</ele>
        <time>2019-08-21T14:26:38Z</time>
      </trkpt>
      <trkpt lat="59.282946987077594" lon="8.213906027376652">
        <ele>1026.74609375</ele>
        <time>2019-08-21T14:26:39Z</time>
      </trkpt>
      <trkpt lat="59.282942041754723" lon="8.213908961042762">
        <ele>1026.671875</ele>
        <time>2019-08-21T14:26:40Z</time>
      </trkpt>
      <trkpt lat="59.282932989299297" lon="8.213909966871142">
        <ele>1026.515625</ele>
        <time>2019-08-21T14:26:41Z</time>
      </trkpt>
      <trkpt lat="59.282921003177762" lon="8.213912984356284">
        <ele>1026.3125</ele>
        <time>2019-08-21T14:26:42Z</time>
      </trkpt>
      <trkpt lat="59.282911028712988" lon="8.213911978527904">
        <ele>1026.12890625</ele>
        <time>2019-08-21T14:26:43Z</time>
      </trkpt>
      <trkpt lat="59.282908011227846" lon="8.213920025154948">
        <ele>1026.109375</ele>
        <time>2019-08-21T14:26:44Z</time>
      </trkpt>
      <trkpt lat="59.282899964600801" lon="8.213927987962961">
        <ele>1026</ele>
        <time>2019-08-21T14:26:45Z</time>
      </trkpt>
      <trkpt lat="59.282892001792789" lon="8.213931005448103">
        <ele>1025.86328125</ele>
        <time>2019-08-21T14:26:46Z</time>
      </trkpt>
      <trkpt lat="59.282879009842873" lon="8.213935028761625">
        <ele>1025.64453125</ele>
        <time>2019-08-21T14:26:47Z</time>
      </trkpt>
      <trkpt lat="59.282864006236196" lon="8.213939974084497">
        <ele>1025.38671875</ele>
        <time>2019-08-21T14:26:48Z</time>
      </trkpt>
      <trkpt lat="59.282853025943041" lon="8.213939974084497">
        <ele>1025.18359375</ele>
        <time>2019-08-21T14:26:49Z</time>
      </trkpt>
      <trkpt lat="59.282844979315996" lon="8.213938968256116">
        <ele>1025.03125</ele>
        <time>2019-08-21T14:26:50Z</time>
      </trkpt>
      <trkpt lat="59.282836010679603" lon="8.213950032368302">
        <ele>1024.90234375</ele>
        <time>2019-08-21T14:26:51Z</time>
      </trkpt>
      <trkpt lat="59.282826036214828" lon="8.213961012661457">
        <ele>1024.75</ele>
        <time>2019-08-21T14:26:52Z</time>
      </trkpt>
      <trkpt lat="59.282796029001474" lon="8.213983979076147">
        <ele>1024.25</ele>
        <time>2019-08-21T14:26:54Z</time>
      </trkpt>
      <trkpt lat="59.282771972939372" lon="8.213995965197682">
        <ele>1023.81640625</ele>
        <time>2019-08-21T14:26:55Z</time>
      </trkpt>
      <trkpt lat="59.282753029838204" lon="8.214009962975979">
        <ele>1023.609375</ele>
        <time>2019-08-21T14:26:56Z</time>
      </trkpt>
      <trkpt lat="59.282742971554399" lon="8.214019015431404">
        <ele>1023.51953125</ele>
        <time>2019-08-21T14:26:57Z</time>
      </trkpt>
      <trkpt lat="59.282734002918005" lon="8.214023038744927">
        <ele>1023.42578125</ele>
        <time>2019-08-21T14:26:58Z</time>
      </trkpt>
      <trkpt lat="59.282727967947721" lon="8.214033013209701">
        <ele>1023.375</ele>
        <time>2019-08-21T14:26:59Z</time>
      </trkpt>
      <trkpt lat="59.28272201679647" lon="8.214041981846094">
        <ele>1023.32421875</ele>
        <time>2019-08-21T14:27:00Z</time>
      </trkpt>
      <trkpt lat="59.282715981826186" lon="8.2140520401299">
        <ele>1023.26953125</ele>
        <time>2019-08-21T14:27:01Z</time>
      </trkpt>
      <trkpt lat="59.282696032896638" lon="8.214077018201351">
        <ele>1023.06640625</ele>
        <time>2019-08-21T14:27:03Z</time>
      </trkpt>
      <trkpt lat="59.282685974612832" lon="8.214084981009364">
        <ele>1022.95703125</ele>
        <time>2019-08-21T14:27:04Z</time>
      </trkpt>
      <trkpt lat="59.2826790176332" lon="8.21409797295928">
        <ele>1022.8828125</ele>
        <time>2019-08-21T14:27:05Z</time>
      </trkpt>
      <trkpt lat="59.282656973227859" lon="8.214112976565957">
        <ele>1022.62109375</ele>
        <time>2019-08-21T14:27:07Z</time>
      </trkpt>
      <trkpt lat="59.282648004591465" lon="8.214114988222718">
        <ele>1022.51171875</ele>
        <time>2019-08-21T14:27:08Z</time>
      </trkpt>
      <trkpt lat="59.282640963792801" lon="8.214119011536241">
        <ele>1022.421875</ele>
        <time>2019-08-21T14:27:09Z</time>
      </trkpt>
      <trkpt lat="59.282634006813169" lon="8.214126974344254">
        <ele>1022.3359375</ele>
        <time>2019-08-21T14:27:10Z</time>
      </trkpt>
      <trkpt lat="59.282626966014504" lon="8.214149018749595">
        <ele>1022.24609375</ele>
        <time>2019-08-21T14:27:11Z</time>
      </trkpt>
      <trkpt lat="59.282624032348394" lon="8.214154969900847">
        <ele>1022.2109375</ele>
        <time>2019-08-21T14:27:12Z</time>
      </trkpt>
      <trkpt lat="59.282623026520014" lon="8.214164022356272">
        <ele>1022.1953125</ele>
        <time>2019-08-21T14:27:13Z</time>
      </trkpt>
      <trkpt lat="59.282623026520014" lon="8.214178020134568">
        <ele>1022.203125</ele>
        <time>2019-08-21T14:27:14Z</time>
      </trkpt>
      <trkpt lat="59.282623026520014" lon="8.214189000427723">
        <ele>1022.20703125</ele>
        <time>2019-08-21T14:27:15Z</time>
      </trkpt>
      <trkpt lat="59.282623026520014" lon="8.214208027347922">
        <ele>1022.21484375</ele>
        <time>2019-08-21T14:27:16Z</time>
      </trkpt>
      <trkpt lat="59.282625960186124" lon="8.214215990155935">
        <ele>1022.2578125</ele>
        <time>2019-08-21T14:27:17Z</time>
      </trkpt>
      <trkpt lat="59.282633000984788" lon="8.214228982105851">
        <ele>1022.3671875</ele>
        <time>2019-08-21T14:27:18Z</time>
      </trkpt>
      <trkpt lat="59.282646998763084" lon="8.214252032339573">
        <ele>1022.58984375</ele>
        <time>2019-08-21T14:27:20Z</time>
      </trkpt>
      <trkpt lat="59.282656973227859" lon="8.214263012632728">
        <ele>1022.75390625</ele>
        <time>2019-08-21T14:27:21Z</time>
      </trkpt>
      <trkpt lat="59.282665019854903" lon="8.214270975440741">
        <ele>1022.8828125</ele>
        <time>2019-08-21T14:27:22Z</time>
      </trkpt>
      <trkpt lat="59.282666025683284" lon="8.214271981269121">
        <ele>1022.90234375</ele>
        <time>2019-08-21T14:27:23Z</time>
      </trkpt>
      <trkpt lat="59.282665019854903" lon="8.214272987097502">
        <ele>1022.88671875</ele>
        <time>2019-08-21T14:27:24Z</time>
      </trkpt>
      <trkpt lat="59.28265898488462" lon="8.214281033724546">
        <ele>1022.8046875</ele>
        <time>2019-08-21T14:27:25Z</time>
      </trkpt>
      <trkpt lat="59.282653033733368" lon="8.214288996532559">
        <ele>1022.71875</ele>
        <time>2019-08-21T14:27:26Z</time>
      </trkpt>
      <trkpt lat="59.282646998763084" lon="8.214293019846082">
        <ele>1022.62890625</ele>
        <time>2019-08-21T14:27:27Z</time>
      </trkpt>
      <trkpt lat="59.282645992934704" lon="8.214297965168953">
        <ele>1022.6171875</ele>
        <time>2019-08-21T14:27:28Z</time>
      </trkpt>
      <trkpt lat="59.282643981277943" lon="8.214305005967617">
        <ele>1022.58984375</ele>
        <time>2019-08-21T14:27:29Z</time>
      </trkpt>
      <trkpt lat="59.282642975449562" lon="8.214306011795998">
        <ele>1022.57421875</ele>
        <time>2019-08-21T14:27:30Z</time>
      </trkpt>
      <trkpt lat="59.282641969621181" lon="8.214309029281139">
        <ele>1022.5625</ele>
        <time>2019-08-21T14:27:31Z</time>
      </trkpt>
      <trkpt lat="59.282642975449562" lon="8.214311962947249">
        <ele>1022.578125</ele>
        <time>2019-08-21T14:27:32Z</time>
      </trkpt>
      <trkpt lat="59.282643981277943" lon="8.214311962947249">
        <ele>1022.59375</ele>
        <time>2019-08-21T14:27:33Z</time>
      </trkpt>
      <trkpt lat="59.282649010419846" lon="8.214309029281139">
        <ele>1022.67578125</ele>
        <time>2019-08-21T14:27:34Z</time>
      </trkpt>
      <trkpt lat="59.282650016248226" lon="8.21431003510952">
        <ele>1022.69140625</ele>
        <time>2019-08-21T14:27:35Z</time>
      </trkpt>
      <trkpt lat="59.282651022076607" lon="8.214311040937901">
        <ele>1022.70703125</ele>
        <time>2019-08-21T14:27:36Z</time>
      </trkpt>
      <trkpt lat="59.282654039561749" lon="8.214311962947249">
        <ele>1022.7578125</ele>
        <time>2019-08-21T14:27:37Z</time>
      </trkpt>
      <trkpt lat="59.282662002369761" lon="8.214313974604011">
        <ele>1022.890625</ele>
        <time>2019-08-21T14:27:38Z</time>
      </trkpt>
      <trkpt lat="59.282668037340045" lon="8.214313974604011">
        <ele>1022.98828125</ele>
        <time>2019-08-21T14:27:39Z</time>
      </trkpt>
      <trkpt lat="59.282668959349394" lon="8.214313974604011">
        <ele>1023</ele>
        <time>2019-08-21T14:27:40Z</time>
      </trkpt>
      <trkpt lat="59.282668037340045" lon="8.214314980432391">
        <ele>1022.98828125</ele>
        <time>2019-08-21T14:27:41Z</time>
      </trkpt>
      <trkpt lat="59.282669965177774" lon="8.214316992089152">
        <ele>1023.0234375</ele>
        <time>2019-08-21T14:27:42Z</time>
      </trkpt>
      <trkpt lat="59.282669965177774" lon="8.214317997917533">
        <ele>1023.0234375</ele>
        <time>2019-08-21T14:27:43Z</time>
      </trkpt>
      <trkpt lat="59.282668959349394" lon="8.214317997917533">
        <ele>1023.0078125</ele>
        <time>2019-08-21T14:27:44Z</time>
      </trkpt>
      <trkpt lat="59.282667031511664" lon="8.214317997917533">
        <ele>1022.9765625</ele>
        <time>2019-08-21T14:27:45Z</time>
      </trkpt>
      <trkpt lat="59.282665019854903" lon="8.214319003745914">
        <ele>1022.9453125</ele>
        <time>2019-08-21T14:27:46Z</time>
      </trkpt>
      <trkpt lat="59.282663008198142" lon="8.214317997917533">
        <ele>1022.91015625</ele>
        <time>2019-08-21T14:27:47Z</time>
      </trkpt>
      <trkpt lat="59.282657979056239" lon="8.214324032887816">
        <ele>1022.8359375</ele>
        <time>2019-08-21T14:27:48Z</time>
      </trkpt>
      <trkpt lat="59.282652027904987" lon="8.214329984039068">
        <ele>1022.7421875</ele>
        <time>2019-08-21T14:27:49Z</time>
      </trkpt>
      <trkpt lat="59.282643981277943" lon="8.214337024837732">
        <ele>1022.6171875</ele>
        <time>2019-08-21T14:27:50Z</time>
      </trkpt>
      <trkpt lat="59.282639035955071" lon="8.214343981817365">
        <ele>1022.5390625</ele>
        <time>2019-08-21T14:27:51Z</time>
      </trkpt>
      <trkpt lat="59.282634006813169" lon="8.214352028444409">
        <ele>1022.4609375</ele>
        <time>2019-08-21T14:27:52Z</time>
      </trkpt>
      <trkpt lat="59.282628977671266" lon="8.214356973767281">
        <ele>1022.37890625</ele>
        <time>2019-08-21T14:27:53Z</time>
      </trkpt>
      <trkpt lat="59.282624032348394" lon="8.214362002909184">
        <ele>1022.296875</ele>
        <time>2019-08-21T14:27:54Z</time>
      </trkpt>
      <trkpt lat="59.282621014863253" lon="8.214364014565945">
        <ele>1022.2421875</ele>
        <time>2019-08-21T14:27:55Z</time>
      </trkpt>
      <trkpt lat="59.282619003206491" lon="8.214367032051086">
        <ele>1022.2109375</ele>
        <time>2019-08-21T14:27:56Z</time>
      </trkpt>
      <trkpt lat="59.282617997378111" lon="8.214368037879467">
        <ele>1022.1953125</ele>
        <time>2019-08-21T14:27:57Z</time>
      </trkpt>
      <trkpt lat="59.282617997378111" lon="8.214369965717197">
        <ele>1022.1953125</ele>
        <time>2019-08-21T14:27:58Z</time>
      </trkpt>
      <trkpt lat="59.282617997378111" lon="8.214369965717197">
        <ele>1022.1953125</ele>
        <time>2019-08-21T14:27:59Z</time>
      </trkpt>
      <trkpt lat="59.28261699154973" lon="8.214368959888816">
        <ele>1022.17578125</ele>
        <time>2019-08-21T14:28:00Z</time>
      </trkpt>
      <trkpt lat="59.28261699154973" lon="8.214368959888816">
        <ele>1022.17578125</ele>
        <time>2019-08-21T14:28:01Z</time>
      </trkpt>
      <trkpt lat="59.282617997378111" lon="8.214368959888816">
        <ele>1022.1953125</ele>
        <time>2019-08-21T14:28:02Z</time>
      </trkpt>
      <trkpt lat="59.28261699154973" lon="8.214368959888816">
        <ele>1022.17578125</ele>
        <time>2019-08-21T14:28:03Z</time>
      </trkpt>
      <trkpt lat="59.28261699154973" lon="8.214369965717197">
        <ele>1022.17578125</ele>
        <time>2019-08-21T14:28:04Z</time>
      </trkpt>
      <trkpt lat="59.282613974064589" lon="8.214381029829383">
        <ele>1022.12890625</ele>
        <time>2019-08-21T14:28:05Z</time>
      </trkpt>
      <trkpt lat="59.282610034570098" lon="8.214389998465776">
        <ele>1022.05859375</ele>
        <time>2019-08-21T14:28:06Z</time>
      </trkpt>
      <trkpt lat="59.282595030963421" lon="8.214440038427711">
        <ele>1021.78515625</ele>
        <time>2019-08-21T14:28:08Z</time>
      </trkpt>
      <trkpt lat="59.282588995993137" lon="8.214469039812684">
        <ele>1021.65625</ele>
        <time>2019-08-21T14:28:09Z</time>
      </trkpt>
      <trkpt lat="59.282578015699983" lon="8.214493012055755">
        <ele>1021.42578125</ele>
        <time>2019-08-21T14:28:10Z</time>
      </trkpt>
      <trkpt lat="59.282564017921686" lon="8.214511033147574">
        <ele>1021.1328125</ele>
        <time>2019-08-21T14:28:11Z</time>
      </trkpt>
      <trkpt lat="59.282542979344726" lon="8.214538022875786">
        <ele>1020.6796875</ele>
        <time>2019-08-21T14:28:12Z</time>
      </trkpt>
      <trkpt lat="59.282522024586797" lon="8.21456803008914">
        <ele>1020.203125</ele>
        <time>2019-08-21T14:28:13Z</time>
      </trkpt>
      <trkpt lat="59.282502997666597" lon="8.21459099650383">
        <ele>1019.765625</ele>
        <time>2019-08-21T14:28:14Z</time>
      </trkpt>
      <trkpt lat="59.282485982403159" lon="8.214609017595649">
        <ele>1019.47265625</ele>
        <time>2019-08-21T14:28:15Z</time>
      </trkpt>
      <trkpt lat="59.282466033473611" lon="8.214631984010339">
        <ele>1019.453125</ele>
        <time>2019-08-21T14:28:16Z</time>
      </trkpt>
      <trkpt lat="59.28244499489665" lon="8.214658973738551">
        <ele>1019.4375</ele>
        <time>2019-08-21T14:28:17Z</time>
      </trkpt>
      <trkpt lat="59.282433008775115" lon="8.214683029800654">
        <ele>1019.41796875</ele>
        <time>2019-08-21T14:28:18Z</time>
      </trkpt>
      <trkpt lat="59.28242102265358" lon="8.214722005650401">
        <ele>1019.3828125</ele>
        <time>2019-08-21T14:28:19Z</time>
      </trkpt>
      <trkpt lat="59.282403001561761" lon="8.214753018692136">
        <ele>1019.40234375</ele>
        <time>2019-08-21T14:28:20Z</time>
      </trkpt>
      <trkpt lat="59.282385986298323" lon="8.214774979278445">
        <ele>1019.39453125</ele>
        <time>2019-08-21T14:28:21Z</time>
      </trkpt>
      <trkpt lat="59.282366037368774" lon="8.214798029512167">
        <ele>1019.36328125</ele>
        <time>2019-08-21T14:28:22Z</time>
      </trkpt>
      <trkpt lat="59.282349022105336" lon="8.214812027290463">
        <ele>1019.32421875</ele>
        <time>2019-08-21T14:28:23Z</time>
      </trkpt>
      <trkpt lat="59.28233896382153" lon="8.214815966784954">
        <ele>1019.3046875</ele>
        <time>2019-08-21T14:28:24Z</time>
      </trkpt>
      <trkpt lat="59.28233502432704" lon="8.214818984270096">
        <ele>1019.29296875</ele>
        <time>2019-08-21T14:28:25Z</time>
      </trkpt>
      <trkpt lat="59.282310968264937" lon="8.214833987876773">
        <ele>1019.21875</ele>
        <time>2019-08-21T14:28:27Z</time>
      </trkpt>
      <trkpt lat="59.282290013507009" lon="8.214857038110495">
        <ele>1019.08984375</ele>
        <time>2019-08-21T14:28:28Z</time>
      </trkpt>
      <trkpt lat="59.282270986586809" lon="8.214872041717172">
        <ele>1018.9765625</ele>
        <time>2019-08-21T14:28:29Z</time>
      </trkpt>
      <trkpt lat="59.2822490260005" lon="8.214894002303481">
        <ele>1018.796875</ele>
        <time>2019-08-21T14:28:30Z</time>
      </trkpt>
      <trkpt lat="59.282219018787146" lon="8.21493498980999">
        <ele>1018.43359375</ele>
        <time>2019-08-21T14:28:31Z</time>
      </trkpt>
      <trkpt lat="59.282195968553424" lon="8.214954016730189">
        <ele>1018.3828125</ele>
        <time>2019-08-21T14:28:32Z</time>
      </trkpt>
      <trkpt lat="59.282179037109017" lon="8.214972959831357">
        <ele>1018.37109375</ele>
        <time>2019-08-21T14:28:33Z</time>
      </trkpt>
      <trkpt lat="59.282156992703676" lon="8.214996010065079">
        <ele>1018.37109375</ele>
        <time>2019-08-21T14:28:34Z</time>
      </trkpt>
      <trkpt lat="59.282137965783477" lon="8.215010007843375">
        <ele>1018.375</ele>
        <time>2019-08-21T14:28:35Z</time>
      </trkpt>
      <trkpt lat="59.282126985490322" lon="8.215018976479769">
        <ele>1018.375</ele>
        <time>2019-08-21T14:28:36Z</time>
      </trkpt>
      <trkpt lat="59.282114999368787" lon="8.215048983693123">
        <ele>1018.203125</ele>
        <time>2019-08-21T14:28:37Z</time>
      </trkpt>
      <trkpt lat="59.282089015468955" lon="8.215078990906477">
        <ele>1018.12890625</ele>
        <time>2019-08-21T14:28:38Z</time>
      </trkpt>
      <trkpt lat="59.282067976891994" lon="8.215088965371251">
        <ele>1018.1953125</ele>
        <time>2019-08-21T14:28:39Z</time>
      </trkpt>
      <trkpt lat="59.282049033790827" lon="8.215105980634689">
        <ele>1018.1875</ele>
        <time>2019-08-21T14:28:40Z</time>
      </trkpt>
      <trkpt lat="59.282024977728724" lon="8.215124001726508">
        <ele>1018.2109375</ele>
        <time>2019-08-21T14:28:41Z</time>
      </trkpt>
      <trkpt lat="59.282007962465286" lon="8.215132970362902">
        <ele>1018.26171875</ele>
        <time>2019-08-21T14:28:42Z</time>
      </trkpt>
      <trkpt lat="59.281997988000512" lon="8.215142022818327">
        <ele>1018.26171875</ele>
        <time>2019-08-21T14:28:43Z</time>
      </trkpt>
      <trkpt lat="59.281990025192499" lon="8.215169012546539">
        <ele>1018.10546875</ele>
        <time>2019-08-21T14:28:44Z</time>
      </trkpt>
      <trkpt lat="59.281978039070964" lon="8.215210000053048">
        <ele>1017.87109375</ele>
        <time>2019-08-21T14:28:45Z</time>
      </trkpt>
      <trkpt lat="59.281964963302016" lon="8.215261967852712">
        <ele>1017.5625</ele>
        <time>2019-08-21T14:28:46Z</time>
      </trkpt>
      <trkpt lat="59.28195096552372" lon="8.215300021693111">
        <ele>1017.34765625</ele>
        <time>2019-08-21T14:28:47Z</time>
      </trkpt>
      <trkpt lat="59.281940991058946" lon="8.215317958965898">
        <ele>1017.265625</ele>
        <time>2019-08-21T14:28:48Z</time>
      </trkpt>
      <trkpt lat="59.281935961917043" lon="8.215332962572575">
        <ele>1017.171875</ele>
        <time>2019-08-21T14:28:49Z</time>
      </trkpt>
      <trkpt lat="59.28192900493741" lon="8.215363975614309">
        <ele>1016.93359375</ele>
        <time>2019-08-21T14:28:50Z</time>
      </trkpt>
      <trkpt lat="59.281920036301017" lon="8.215394988656044">
        <ele>1016.70703125</ele>
        <time>2019-08-21T14:28:51Z</time>
      </trkpt>
      <trkpt lat="59.281909978017211" lon="8.215405968949199">
        <ele>1016.66015625</ele>
        <time>2019-08-21T14:28:52Z</time>
      </trkpt>
      <trkpt lat="59.281896986067295" lon="8.215422984212637">
        <ele>1016.57421875</ele>
        <time>2019-08-21T14:28:53Z</time>
      </trkpt>
      <trkpt lat="59.281880976632237" lon="8.215445028617978">
        <ele>1016.453125</ele>
        <time>2019-08-21T14:28:54Z</time>
      </trkpt>
      <trkpt lat="59.281872007995844" lon="8.215475035831332">
        <ele>1016.22265625</ele>
        <time>2019-08-21T14:28:55Z</time>
      </trkpt>
      <trkpt lat="59.281857004389167" lon="8.215510994195938">
        <ele>1015.96875</ele>
        <time>2019-08-21T14:28:56Z</time>
      </trkpt>
      <trkpt lat="59.281835965812206" lon="8.215550975874066">
        <ele>1015.69921875</ele>
        <time>2019-08-21T14:28:57Z</time>
      </trkpt>
      <trkpt lat="59.28182297386229" lon="8.215586012229323">
        <ele>1015.4609375</ele>
        <time>2019-08-21T14:28:58Z</time>
      </trkpt>
      <trkpt lat="59.281808976083994" lon="8.215615013614297">
        <ele>1015.265625</ele>
        <time>2019-08-21T14:28:59Z</time>
      </trkpt>
      <trkpt lat="59.281788021326065" lon="8.215645020827651">
        <ele>1015.0703125</ele>
        <time>2019-08-21T14:29:00Z</time>
      </trkpt>
      <trkpt lat="59.281762959435582" lon="8.215669998899102">
        <ele>1014.91015625</ele>
        <time>2019-08-21T14:29:01Z</time>
      </trkpt>
      <trkpt lat="59.28173697553575" lon="8.21568701416254">
        <ele>1014.80859375</ele>
        <time>2019-08-21T14:29:02Z</time>
      </trkpt>
      <trkpt lat="59.281715014949441" lon="8.215701011940837">
        <ele>1014.71484375</ele>
        <time>2019-08-21T14:29:03Z</time>
      </trkpt>
      <trkpt lat="59.281701017171144" lon="8.215706963092089">
        <ele>1014.68359375</ele>
        <time>2019-08-21T14:29:04Z</time>
      </trkpt>
      <trkpt lat="59.281685007736087" lon="8.215706963092089">
        <ele>1014.7109375</ele>
        <time>2019-08-21T14:29:05Z</time>
      </trkpt>
      <trkpt lat="59.281665980815887" lon="8.215714003890753">
        <ele>1014.671875</ele>
        <time>2019-08-21T14:29:06Z</time>
      </trkpt>
      <trkpt lat="59.281644020229578" lon="8.215724984183908">
        <ele>1014.5625</ele>
        <time>2019-08-21T14:29:07Z</time>
      </trkpt>
      <trkpt lat="59.281624993309379" lon="8.215733030810952">
        <ele>1014.46484375</ele>
        <time>2019-08-21T14:29:08Z</time>
      </trkpt>
      <trkpt lat="59.281610995531082" lon="8.215738981962204">
        <ele>1014.39453125</ele>
        <time>2019-08-21T14:29:09Z</time>
      </trkpt>
      <trkpt lat="59.281590962782502" lon="8.215722972527146">
        <ele>1014.5625</ele>
        <time>2019-08-21T14:29:10Z</time>
      </trkpt>
      <trkpt lat="59.281573025509715" lon="8.215709980577231">
        <ele>1014.69140625</ele>
        <time>2019-08-21T14:29:11Z</time>
      </trkpt>
      <trkpt lat="59.281562967225909" lon="8.215709980577231">
        <ele>1014.6875</ele>
        <time>2019-08-21T14:29:12Z</time>
      </trkpt>
      <trkpt lat="59.281550981104374" lon="8.215733030810952">
        <ele>1014.4375</ele>
        <time>2019-08-21T14:29:13Z</time>
      </trkpt>
      <trkpt lat="59.281537989154458" lon="8.215754991397262">
        <ele>1014.203125</ele>
        <time>2019-08-21T14:29:14Z</time>
      </trkpt>
      <trkpt lat="59.281526003032923" lon="8.215768989175558">
        <ele>1014.0546875</ele>
        <time>2019-08-21T14:29:15Z</time>
      </trkpt>
      <trkpt lat="59.281510999426246" lon="8.215778041630983">
        <ele>1013.95703125</ele>
        <time>2019-08-21T14:29:16Z</time>
      </trkpt>
      <trkpt lat="59.28149800747633" lon="8.215784998610616">
        <ele>1013.8828125</ele>
        <time>2019-08-21T14:29:17Z</time>
      </trkpt>
      <trkpt lat="59.281489960849285" lon="8.215779969468713">
        <ele>1013.9296875</ele>
        <time>2019-08-21T14:29:18Z</time>
      </trkpt>
      <trkpt lat="59.28147504106164" lon="8.215788016095758">
        <ele>1013.84765625</ele>
        <time>2019-08-21T14:29:19Z</time>
      </trkpt>
      <trkpt lat="59.281432963907719" lon="8.215774018317461">
        <ele>1013.98046875</ele>
        <time>2019-08-21T14:29:21Z</time>
      </trkpt>
      <trkpt lat="59.281423995271325" lon="8.215761026367545">
        <ele>1014.109375</ele>
        <time>2019-08-21T14:29:22Z</time>
      </trkpt>
      <trkpt lat="59.281417960301042" lon="8.215741999447346">
        <ele>1014.296875</ele>
        <time>2019-08-21T14:29:23Z</time>
      </trkpt>
      <trkpt lat="59.281407985836267" lon="8.215724984183908">
        <ele>1014.46484375</ele>
        <time>2019-08-21T14:29:24Z</time>
      </trkpt>
      <trkpt lat="59.28139298222959" lon="8.21570604108274">
        <ele>1014.6484375</ele>
        <time>2019-08-21T14:29:25Z</time>
      </trkpt>
      <trkpt lat="59.281366998329759" lon="8.215688019990921">
        <ele>1014.8046875</ele>
        <time>2019-08-21T14:29:26Z</time>
      </trkpt>
      <trkpt lat="59.281343026086688" lon="8.215674022212625">
        <ele>1014.9140625</ele>
        <time>2019-08-21T14:29:27Z</time>
      </trkpt>
      <trkpt lat="59.281323999166489" lon="8.215682990849018">
        <ele>1014.8046875</ele>
        <time>2019-08-21T14:29:28Z</time>
      </trkpt>
      <trkpt lat="59.281293991953135" lon="8.215747028589249">
        <ele>1014.1796875</ele>
        <time>2019-08-21T14:29:30Z</time>
      </trkpt>
      <trkpt lat="59.28128401748836" lon="8.215760020539165">
        <ele>1014.0546875</ele>
        <time>2019-08-21T14:29:31Z</time>
      </trkpt>
      <trkpt lat="59.281272031366825" lon="8.215771000832319">
        <ele>1013.94921875</ele>
        <time>2019-08-21T14:29:32Z</time>
      </trkpt>
      <trkpt lat="59.281250992789865" lon="8.215784998610616">
        <ele>1013.81640625</ele>
        <time>2019-08-21T14:29:33Z</time>
      </trkpt>
      <trkpt lat="59.281226014718413" lon="8.21579497307539">
        <ele>1013.72265625</ele>
        <time>2019-08-21T14:29:34Z</time>
      </trkpt>
      <trkpt lat="59.281207993626595" lon="8.215797990560532">
        <ele>1013.69140625</ele>
        <time>2019-08-21T14:29:35Z</time>
      </trkpt>
      <trkpt lat="59.28119801916182" lon="8.215796984732151">
        <ele>1013.69921875</ele>
        <time>2019-08-21T14:29:36Z</time>
      </trkpt>
      <trkpt lat="59.281189972534776" lon="8.21579597890377">
        <ele>1013.70703125</ele>
        <time>2019-08-21T14:29:37Z</time>
      </trkpt>
      <trkpt lat="59.28117698058486" lon="8.215806037187576">
        <ele>1013.6171875</ele>
        <time>2019-08-21T14:29:38Z</time>
      </trkpt>
      <trkpt lat="59.281158037483692" lon="8.21581601165235">
        <ele>1013.53515625</ele>
        <time>2019-08-21T14:29:39Z</time>
      </trkpt>
      <trkpt lat="59.281141022220254" lon="8.215808970853686">
        <ele>1013.58984375</ele>
        <time>2019-08-21T14:29:40Z</time>
      </trkpt>
      <trkpt lat="59.281117971986532" lon="8.215791033580899">
        <ele>1013.7265625</ele>
        <time>2019-08-21T14:29:41Z</time>
      </trkpt>
      <trkpt lat="59.281087964773178" lon="8.215740993618965">
        <ele>1014.07421875</ele>
        <time>2019-08-21T14:29:43Z</time>
      </trkpt>
      <trkpt lat="59.281078996136785" lon="8.215721966698766">
        <ele>1014.1953125</ele>
        <time>2019-08-21T14:29:44Z</time>
      </trkpt>
      <trkpt lat="59.281061980873346" lon="8.21570897474885">
        <ele>1014.25</ele>
        <time>2019-08-21T14:29:45Z</time>
      </trkpt>
      <trkpt lat="59.281045971438289" lon="8.215688019990921">
        <ele>1014.35546875</ele>
        <time>2019-08-21T14:29:46Z</time>
      </trkpt>
      <trkpt lat="59.281029962003231" lon="8.215677039697766">
        <ele>1014.38671875</ele>
        <time>2019-08-21T14:29:47Z</time>
      </trkpt>
      <trkpt lat="59.281016970053315" lon="8.215663963928819">
        <ele>1014.4375</ele>
        <time>2019-08-21T14:29:48Z</time>
      </trkpt>
      <trkpt lat="59.280996015295386" lon="8.215660024434328">
        <ele>1014.3984375</ele>
        <time>2019-08-21T14:29:49Z</time>
      </trkpt>
      <trkpt lat="59.280971037223935" lon="8.215657006949186">
        <ele>1014.33984375</ele>
        <time>2019-08-21T14:29:50Z</time>
      </trkpt>
      <trkpt lat="59.280957039445639" lon="8.215634040534496">
        <ele>1014.43359375</ele>
        <time>2019-08-21T14:29:51Z</time>
      </trkpt>
      <trkpt lat="59.280949998646975" lon="8.215601015836">
        <ele>1014.60546875</ele>
        <time>2019-08-21T14:29:52Z</time>
      </trkpt>
      <trkpt lat="59.280943041667342" lon="8.215560028329492">
        <ele>1014.81640625</ele>
        <time>2019-08-21T14:29:53Z</time>
      </trkpt>
      <trkpt lat="59.280941030010581" lon="8.215531026944518">
        <ele>1014.96875</ele>
        <time>2019-08-21T14:29:54Z</time>
      </trkpt>
      <trkpt lat="59.280934995040298" lon="8.215505965054035">
        <ele>1015.078125</ele>
        <time>2019-08-21T14:29:55Z</time>
      </trkpt>
      <trkpt lat="59.280920997262001" lon="8.215476963669062">
        <ele>1015.17578125</ele>
        <time>2019-08-21T14:29:56Z</time>
      </trkpt>
      <trkpt lat="59.280912028625607" lon="8.215452991425991">
        <ele>1015.26953125</ele>
        <time>2019-08-21T14:29:57Z</time>
      </trkpt>
      <trkpt lat="59.280903981998563" lon="8.215430025011301">
        <ele>1015.359375</ele>
        <time>2019-08-21T14:29:58Z</time>
      </trkpt>
      <trkpt lat="59.280887972563505" lon="8.215410998091102">
        <ele>1015.39453125</ele>
        <time>2019-08-21T14:29:59Z</time>
      </trkpt>
      <trkpt lat="59.280873974785209" lon="8.215390965342522">
        <ele>1015.44140625</ele>
        <time>2019-08-21T14:30:00Z</time>
      </trkpt>
      <trkpt lat="59.280866011977196" lon="8.215379985049367">
        <ele>1015.46875</ele>
        <time>2019-08-21T14:30:01Z</time>
      </trkpt>
      <trkpt lat="59.280865006148815" lon="8.215386020019651">
        <ele>1015.4296875</ele>
        <time>2019-08-21T14:30:02Z</time>
      </trkpt>
      <trkpt lat="59.280857965350151" lon="8.215386020019651">
        <ele>1015.3984375</ele>
        <time>2019-08-21T14:30:03Z</time>
      </trkpt>
      <trkpt lat="59.280855031684041" lon="8.215383002534509">
        <ele>1015.40234375</ele>
        <time>2019-08-21T14:30:04Z</time>
      </trkpt>
      <trkpt lat="59.28085302002728" lon="8.215384008362889">
        <ele>1015.38671875</ele>
        <time>2019-08-21T14:30:05Z</time>
      </trkpt>
      <trkpt lat="59.280842039734125" lon="8.215389037504792">
        <ele>1015.3125</ele>
        <time>2019-08-21T14:30:06Z</time>
      </trkpt>
      <trkpt lat="59.280830975621939" lon="8.215393982827663">
        <ele>1015.23828125</ele>
        <time>2019-08-21T14:30:07Z</time>
      </trkpt>
      <trkpt lat="59.280824018642306" lon="8.215377973392606">
        <ele>1015.30078125</ele>
        <time>2019-08-21T14:30:08Z</time>
      </trkpt>
      <trkpt lat="59.280818989500403" lon="8.215366993099451">
        <ele>1015.37109375</ele>
        <time>2019-08-21T14:30:09Z</time>
      </trkpt>
      <trkpt lat="59.28081102669239" lon="8.215372022241354">
        <ele>1015.35546875</ele>
        <time>2019-08-21T14:30:10Z</time>
      </trkpt>
      <trkpt lat="59.280796023085713" lon="8.215376967564225">
        <ele>1015.35546875</ele>
        <time>2019-08-21T14:30:11Z</time>
      </trkpt>
      <trkpt lat="59.280765010043979" lon="8.215398006141186">
        <ele>1015.2890625</ele>
        <time>2019-08-21T14:30:13Z</time>
      </trkpt>
      <trkpt lat="59.280749000608921" lon="8.215397000312805">
        <ele>1015.32421875</ele>
        <time>2019-08-21T14:30:14Z</time>
      </trkpt>
      <trkpt lat="59.280733997002244" lon="8.215404041111469">
        <ele>1015.30859375</ele>
        <time>2019-08-21T14:30:15Z</time>
      </trkpt>
      <trkpt lat="59.280719999223948" lon="8.215418960899115">
        <ele>1015.2421875</ele>
        <time>2019-08-21T14:30:16Z</time>
      </trkpt>
      <trkpt lat="59.280709018930793" lon="8.215442011132836">
        <ele>1015.125</ele>
        <time>2019-08-21T14:30:17Z</time>
      </trkpt>
      <trkpt lat="59.280696026980877" lon="8.215466989204288">
        <ele>1014.99609375</ele>
        <time>2019-08-21T14:30:18Z</time>
      </trkpt>
      <trkpt lat="59.280684040859342" lon="8.215476041659713">
        <ele>1014.95703125</ele>
        <time>2019-08-21T14:30:19Z</time>
      </trkpt>
      <trkpt lat="59.280656967312098" lon="8.215525997802615">
        <ele>1014.6875</ele>
        <time>2019-08-21T14:30:21Z</time>
      </trkpt>
      <trkpt lat="59.280644981190562" lon="8.21555801667273">
        <ele>1014.546875</ele>
        <time>2019-08-21T14:30:22Z</time>
      </trkpt>
      <trkpt lat="59.280635006725788" lon="8.215578971430659">
        <ele>1014.546875</ele>
        <time>2019-08-21T14:30:23Z</time>
      </trkpt>
      <trkpt lat="59.280626038089395" lon="8.215614007785916">
        <ele>1014.54296875</ele>
        <time>2019-08-21T14:30:24Z</time>
      </trkpt>
      <trkpt lat="59.28061799146235" lon="8.215662958100438">
        <ele>1014.55078125</ele>
        <time>2019-08-21T14:30:25Z</time>
      </trkpt>
      <trkpt lat="59.280612962320447" lon="8.21570897474885">
        <ele>1014.55859375</ele>
        <time>2019-08-21T14:30:26Z</time>
      </trkpt>
      <trkpt lat="59.280608016997576" lon="8.215753985568881">
        <ele>1014.57421875</ele>
        <time>2019-08-21T14:30:27Z</time>
      </trkpt>
      <trkpt lat="59.280601982027292" lon="8.215801008045673">
        <ele>1014.60546875</ele>
        <time>2019-08-21T14:30:28Z</time>
      </trkpt>
      <trkpt lat="59.280577003955841" lon="8.215887006372213">
        <ele>1014.70703125</ele>
        <time>2019-08-21T14:30:30Z</time>
      </trkpt>
      <trkpt lat="59.280563006177545" lon="8.215930005535483">
        <ele>1014.75</ele>
        <time>2019-08-21T14:30:31Z</time>
      </trkpt>
      <trkpt lat="59.280549008399248" lon="8.215960012748838">
        <ele>1014.80859375</ele>
        <time>2019-08-21T14:30:32Z</time>
      </trkpt>
      <trkpt lat="59.280540961772203" lon="8.215995971113443">
        <ele>1014.921875</ele>
        <time>2019-08-21T14:30:33Z</time>
      </trkpt>
      <trkpt lat="59.280536016449332" lon="8.216027989983559">
        <ele>1014.9921875</ele>
        <time>2019-08-21T14:30:34Z</time>
      </trkpt>
      <trkpt lat="59.280529981479049" lon="8.216057997196913">
        <ele>1015.08203125</ele>
        <time>2019-08-21T14:30:35Z</time>
      </trkpt>
      <trkpt lat="59.280524030327797" lon="8.21609697304666">
        <ele>1015.16015625</ele>
        <time>2019-08-21T14:30:36Z</time>
      </trkpt>
      <trkpt lat="59.280514977872372" lon="8.216127986088395">
        <ele>1015.30078125</ele>
        <time>2019-08-21T14:30:37Z</time>
      </trkpt>
      <trkpt lat="59.280511038377881" lon="8.216166961938143">
        <ele>1015.31640625</ele>
        <time>2019-08-21T14:30:38Z</time>
      </trkpt>
      <trkpt lat="59.280512966215611" lon="8.216215996071696">
        <ele>1015.19921875</ele>
        <time>2019-08-21T14:30:39Z</time>
      </trkpt>
      <trkpt lat="59.280519001185894" lon="8.216256983578205">
        <ele>1015.01953125</ele>
        <time>2019-08-21T14:30:40Z</time>
      </trkpt>
      <trkpt lat="59.280519001185894" lon="8.216300988569856">
        <ele>1014.953125</ele>
        <time>2019-08-21T14:30:41Z</time>
      </trkpt>
      <trkpt lat="59.280515983700752" lon="8.216337030753493">
        <ele>1014.94921875</ele>
        <time>2019-08-21T14:30:42Z</time>
      </trkpt>
      <trkpt lat="59.28050902672112" lon="8.216363014653325">
        <ele>1015.0234375</ele>
        <time>2019-08-21T14:30:43Z</time>
      </trkpt>
      <trkpt lat="59.28050902672112" lon="8.216404002159834">
        <ele>1014.95703125</ele>
        <time>2019-08-21T14:30:44Z</time>
      </trkpt>
      <trkpt lat="59.280513972043991" lon="8.216444989666343">
        <ele>1014.8125</ele>
        <time>2019-08-21T14:30:45Z</time>
      </trkpt>
      <trkpt lat="59.280522018671036" lon="8.21648396551609">
        <ele>1014.6328125</ele>
        <time>2019-08-21T14:30:46Z</time>
      </trkpt>
      <trkpt lat="59.280524030327797" lon="8.216525036841631">
        <ele>1014.546875</ele>
        <time>2019-08-21T14:30:47Z</time>
      </trkpt>
      <trkpt lat="59.280521012842655" lon="8.216557977721095">
        <ele>1014.54296875</ele>
        <time>2019-08-21T14:30:48Z</time>
      </trkpt>
      <trkpt lat="59.280517995357513" lon="8.216592008247972">
        <ele>1014.5390625</ele>
        <time>2019-08-21T14:30:49Z</time>
      </trkpt>
      <trkpt lat="59.280517995357513" lon="8.216626960784197">
        <ele>1014.48828125</ele>
        <time>2019-08-21T14:30:50Z</time>
      </trkpt>
      <trkpt lat="59.280520007014275" lon="8.21665302850306">
        <ele>1014.421875</ele>
        <time>2019-08-21T14:30:51Z</time>
      </trkpt>
      <trkpt lat="59.280525036156178" lon="8.216679012402892">
        <ele>1014.3203125</ele>
        <time>2019-08-21T14:30:52Z</time>
      </trkpt>
      <trkpt lat="59.280530987307429" lon="8.216711031273007">
        <ele>1014.19921875</ele>
        <time>2019-08-21T14:30:53Z</time>
      </trkpt>
      <trkpt lat="59.280540039762855" lon="8.216744977980852">
        <ele>1014.046875</ele>
        <time>2019-08-21T14:30:54Z</time>
      </trkpt>
      <trkpt lat="59.28055202588439" lon="8.216780014336109">
        <ele>1013.90234375</ele>
        <time>2019-08-21T14:30:55Z</time>
      </trkpt>
      <trkpt lat="59.280559988692403" lon="8.216810021549463">
        <ele>1013.83984375</ele>
        <time>2019-08-21T14:30:56Z</time>
      </trkpt>
      <trkpt lat="59.280565017834306" lon="8.216844974085689">
        <ele>1013.78515625</ele>
        <time>2019-08-21T14:30:57Z</time>
      </trkpt>
      <trkpt lat="59.28057599812746" lon="8.216876992955804">
        <ele>1013.7109375</ele>
        <time>2019-08-21T14:30:58Z</time>
      </trkpt>
      <trkpt lat="59.280588990077376" lon="8.216905994340777">
        <ele>1013.640625</ele>
        <time>2019-08-21T14:30:59Z</time>
      </trkpt>
      <trkpt lat="59.280586978420615" lon="8.216948993504047">
        <ele>1013.60546875</ele>
        <time>2019-08-21T14:31:00Z</time>
      </trkpt>
      <trkpt lat="59.280584966763854" lon="8.216990986838937">
        <ele>1013.57421875</ele>
        <time>2019-08-21T14:31:01Z</time>
      </trkpt>
      <trkpt lat="59.280585972592235" lon="8.217029962688685">
        <ele>1013.53125</ele>
        <time>2019-08-21T14:31:02Z</time>
      </trkpt>
      <trkpt lat="59.280580021440983" lon="8.217074973508716">
        <ele>1013.5078125</ele>
        <time>2019-08-21T14:31:03Z</time>
      </trkpt>
      <trkpt lat="59.280582033097744" lon="8.217101963236928">
        <ele>1013.4765625</ele>
        <time>2019-08-21T14:31:04Z</time>
      </trkpt>
      <trkpt lat="59.280584966763854" lon="8.217120990157127">
        <ele>1013.44921875</ele>
        <time>2019-08-21T14:31:05Z</time>
      </trkpt>
      <trkpt lat="59.280585972592235" lon="8.217140017077327">
        <ele>1013.4296875</ele>
        <time>2019-08-21T14:31:06Z</time>
      </trkpt>
      <trkpt lat="59.280586978420615" lon="8.217162983492017">
        <ele>1013.40234375</ele>
        <time>2019-08-21T14:31:07Z</time>
      </trkpt>
      <trkpt lat="59.280585972592235" lon="8.217188967391849">
        <ele>1013.3828125</ele>
        <time>2019-08-21T14:31:08Z</time>
      </trkpt>
      <trkpt lat="59.280588990077376" lon="8.217210005968809">
        <ele>1013.35546875</ele>
        <time>2019-08-21T14:31:09Z</time>
      </trkpt>
      <trkpt lat="59.280588990077376" lon="8.217227021232247">
        <ele>1013.3515625</ele>
        <time>2019-08-21T14:31:10Z</time>
      </trkpt>
      <trkpt lat="59.280588990077376" lon="8.217245964333415">
        <ele>1013.3515625</ele>
        <time>2019-08-21T14:31:11Z</time>
      </trkpt>
      <trkpt lat="59.280587984248996" lon="8.217263985425234">
        <ele>1013.3515625</ele>
        <time>2019-08-21T14:31:12Z</time>
      </trkpt>
      <trkpt lat="59.280585972592235" lon="8.217284018173814">
        <ele>1013.35546875</ele>
        <time>2019-08-21T14:31:13Z</time>
      </trkpt>
      <trkpt lat="59.280584966763854" lon="8.217306984588504">
        <ele>1013.359375</ele>
        <time>2019-08-21T14:31:14Z</time>
      </trkpt>
      <trkpt lat="59.280583960935473" lon="8.217327017337084">
        <ele>1013.36328125</ele>
        <time>2019-08-21T14:31:15Z</time>
      </trkpt>
      <trkpt lat="59.280584966763854" lon="8.217344032600522">
        <ele>1013.359375</ele>
        <time>2019-08-21T14:31:16Z</time>
      </trkpt>
      <trkpt lat="59.280584966763854" lon="8.217361969873309">
        <ele>1013.359375</ele>
        <time>2019-08-21T14:31:17Z</time>
      </trkpt>
      <trkpt lat="59.280581027269363" lon="8.21738401427865">
        <ele>1013.3671875</ele>
        <time>2019-08-21T14:31:18Z</time>
      </trkpt>
      <trkpt lat="59.280583038926125" lon="8.21740304119885">
        <ele>1013.36328125</ele>
        <time>2019-08-21T14:31:19Z</time>
      </trkpt>
      <trkpt lat="59.280583038926125" lon="8.217418966814876">
        <ele>1013.36328125</ele>
        <time>2019-08-21T14:31:20Z</time>
      </trkpt>
      <trkpt lat="59.280580021440983" lon="8.217440005391836">
        <ele>1013.37109375</ele>
        <time>2019-08-21T14:31:21Z</time>
      </trkpt>
      <trkpt lat="59.280578009784222" lon="8.217462971806526">
        <ele>1013.375</ele>
        <time>2019-08-21T14:31:22Z</time>
      </trkpt>
      <trkpt lat="59.28057499229908" lon="8.217486022040248">
        <ele>1013.3828125</ele>
        <time>2019-08-21T14:31:23Z</time>
      </trkpt>
      <trkpt lat="59.280570968985558" lon="8.217506976798177">
        <ele>1013.390625</ele>
        <time>2019-08-21T14:31:24Z</time>
      </trkpt>
      <trkpt lat="59.280569041147828" lon="8.217518962919712">
        <ele>1013.39453125</ele>
        <time>2019-08-21T14:31:25Z</time>
      </trkpt>
      <trkpt lat="59.280568035319448" lon="8.217520974576473">
        <ele>1013.39453125</ele>
        <time>2019-08-21T14:31:26Z</time>
      </trkpt>
      <trkpt lat="59.280567029491067" lon="8.217519968748093">
        <ele>1013.3984375</ele>
        <time>2019-08-21T14:31:27Z</time>
      </trkpt>
      <trkpt lat="59.280567029491067" lon="8.217518962919712">
        <ele>1013.3984375</ele>
        <time>2019-08-21T14:31:28Z</time>
      </trkpt>
      <trkpt lat="59.280567029491067" lon="8.217518040910363">
        <ele>1013.3984375</ele>
        <time>2019-08-21T14:31:29Z</time>
      </trkpt>
      <trkpt lat="59.280567029491067" lon="8.217518040910363">
        <ele>1013.3984375</ele>
        <time>2019-08-21T14:31:30Z</time>
      </trkpt>
      <trkpt lat="59.280566023662686" lon="8.217517035081983">
        <ele>1013.40234375</ele>
        <time>2019-08-21T14:31:31Z</time>
      </trkpt>
      <trkpt lat="59.280566023662686" lon="8.217517035081983">
        <ele>1013.40234375</ele>
        <time>2019-08-21T14:31:32Z</time>
      </trkpt>
      <trkpt lat="59.280566023662686" lon="8.217517035081983">
        <ele>1013.40234375</ele>
        <time>2019-08-21T14:31:33Z</time>
      </trkpt>
      <trkpt lat="59.280566023662686" lon="8.217516029253602">
        <ele>1013.40234375</ele>
        <time>2019-08-21T14:31:34Z</time>
      </trkpt>
      <trkpt lat="59.280566023662686" lon="8.217516029253602">
        <ele>1013.40234375</ele>
        <time>2019-08-21T14:31:35Z</time>
      </trkpt>
      <trkpt lat="59.280566023662686" lon="8.217516029253602">
        <ele>1013.40234375</ele>
        <time>2019-08-21T14:31:36Z</time>
      </trkpt>
      <trkpt lat="59.280566023662686" lon="8.217516029253602">
        <ele>1013.40234375</ele>
        <time>2019-08-21T14:31:37Z</time>
      </trkpt>
      <trkpt lat="59.280566023662686" lon="8.217516029253602">
        <ele>1013.40234375</ele>
        <time>2019-08-21T14:31:38Z</time>
      </trkpt>
      <trkpt lat="59.280566023662686" lon="8.217516029253602">
        <ele>1013.40234375</ele>
        <time>2019-08-21T14:31:39Z</time>
      </trkpt>
      <trkpt lat="59.280566023662686" lon="8.217516029253602">
        <ele>1013.40234375</ele>
        <time>2019-08-21T14:31:40Z</time>
      </trkpt>
      <trkpt lat="59.280566023662686" lon="8.217517035081983">
        <ele>1013.40234375</ele>
        <time>2019-08-21T14:31:41Z</time>
      </trkpt>
      <trkpt lat="59.280566023662686" lon="8.217517035081983">
        <ele>1013.40234375</ele>
        <time>2019-08-21T14:31:42Z</time>
      </trkpt>
      <trkpt lat="59.280567029491067" lon="8.217518040910363">
        <ele>1013.3984375</ele>
        <time>2019-08-21T14:31:43Z</time>
      </trkpt>
      <trkpt lat="59.280567029491067" lon="8.217518962919712">
        <ele>1013.3984375</ele>
        <time>2019-08-21T14:31:44Z</time>
      </trkpt>
      <trkpt lat="59.280567029491067" lon="8.217528015375137">
        <ele>1013.3984375</ele>
        <time>2019-08-21T14:31:45Z</time>
      </trkpt>
      <trkpt lat="59.280566023662686" lon="8.217537989839912">
        <ele>1013.40234375</ele>
        <time>2019-08-21T14:31:46Z</time>
      </trkpt>
      <trkpt lat="59.280563006177545" lon="8.21755601093173">
        <ele>1013.40625</ele>
        <time>2019-08-21T14:31:47Z</time>
      </trkpt>
      <trkpt lat="59.280560994520783" lon="8.217574032023549">
        <ele>1013.41015625</ele>
        <time>2019-08-21T14:31:48Z</time>
      </trkpt>
      <trkpt lat="59.280558982864022" lon="8.217602027580142">
        <ele>1013.41796875</ele>
        <time>2019-08-21T14:31:49Z</time>
      </trkpt>
      <trkpt lat="59.280557977035642" lon="8.217639997601509">
        <ele>1013.41796875</ele>
        <time>2019-08-21T14:31:50Z</time>
      </trkpt>
      <trkpt lat="59.280556971207261" lon="8.217670004814863">
        <ele>1013.421875</ele>
        <time>2019-08-21T14:31:51Z</time>
      </trkpt>
      <trkpt lat="59.280558982864022" lon="8.217696994543076">
        <ele>1013.41796875</ele>
        <time>2019-08-21T14:31:52Z</time>
      </trkpt>
      <trkpt lat="59.280557977035642" lon="8.217734964564443">
        <ele>1013.41796875</ele>
        <time>2019-08-21T14:31:53Z</time>
      </trkpt>
      <trkpt lat="59.280556971207261" lon="8.217775030061603">
        <ele>1013.4296875</ele>
        <time>2019-08-21T14:31:54Z</time>
      </trkpt>
      <trkpt lat="59.280558982864022" lon="8.217819035053253">
        <ele>1013.5234375</ele>
        <time>2019-08-21T14:31:55Z</time>
      </trkpt>
      <trkpt lat="59.280559988692403" lon="8.217868991196156">
        <ele>1013.6328125</ele>
        <time>2019-08-21T14:31:56Z</time>
      </trkpt>
      <trkpt lat="59.280564012005925" lon="8.217906961217523">
        <ele>1013.71484375</ele>
        <time>2019-08-21T14:31:57Z</time>
      </trkpt>
      <trkpt lat="59.280569963157177" lon="8.217939985916019">
        <ele>1013.77734375</ele>
        <time>2019-08-21T14:31:58Z</time>
      </trkpt>
      <trkpt lat="59.280570968985558" lon="8.217983990907669">
        <ele>1013.87890625</ele>
        <time>2019-08-21T14:31:59Z</time>
      </trkpt>
      <trkpt lat="59.280572980642319" lon="8.218019027262926">
        <ele>1013.95703125</ele>
        <time>2019-08-21T14:32:00Z</time>
      </trkpt>
      <trkpt lat="59.280579015612602" lon="8.218040987849236">
        <ele>1014</ele>
        <time>2019-08-21T14:32:01Z</time>
      </trkpt>
      <trkpt lat="59.280585972592235" lon="8.218060014769435">
        <ele>1013.99609375</ele>
        <time>2019-08-21T14:32:02Z</time>
      </trkpt>
      <trkpt lat="59.280587984248996" lon="8.218079963698983">
        <ele>1013.9765625</ele>
        <time>2019-08-21T14:32:03Z</time>
      </trkpt>
      <trkpt lat="59.280588990077376" lon="8.218101002275944">
        <ele>1013.95703125</ele>
        <time>2019-08-21T14:32:04Z</time>
      </trkpt>
      <trkpt lat="59.280585972592235" lon="8.218120029196143">
        <ele>1013.94140625</ele>
        <time>2019-08-21T14:32:05Z</time>
      </trkpt>
      <trkpt lat="59.280582033097744" lon="8.21813696064055">
        <ele>1013.92578125</ele>
        <time>2019-08-21T14:32:06Z</time>
      </trkpt>
      <trkpt lat="59.280580021440983" lon="8.218151964247227">
        <ele>1013.9140625</ele>
        <time>2019-08-21T14:32:07Z</time>
      </trkpt>
      <trkpt lat="59.280578009784222" lon="8.218165962025523">
        <ele>1013.90234375</ele>
        <time>2019-08-21T14:32:08Z</time>
      </trkpt>
      <trkpt lat="59.280572980642319" lon="8.21817995980382">
        <ele>1013.890625</ele>
        <time>2019-08-21T14:32:09Z</time>
      </trkpt>
      <trkpt lat="59.280567029491067" lon="8.218194041401148">
        <ele>1013.87890625</ele>
        <time>2019-08-21T14:32:10Z</time>
      </trkpt>
      <trkpt lat="59.280563006177545" lon="8.218204015865922">
        <ele>1013.87109375</ele>
        <time>2019-08-21T14:32:11Z</time>
      </trkpt>
      <trkpt lat="59.280559988692403" lon="8.218214996159077">
        <ele>1013.86328125</ele>
        <time>2019-08-21T14:32:12Z</time>
      </trkpt>
      <trkpt lat="59.280555965378881" lon="8.218234023079276">
        <ele>1013.84375</ele>
        <time>2019-08-21T14:32:13Z</time>
      </trkpt>
      <trkpt lat="59.28055303171277" lon="8.218256989493966">
        <ele>1013.8203125</ele>
        <time>2019-08-21T14:32:14Z</time>
      </trkpt>
      <trkpt lat="59.28055303171277" lon="8.218277022242546">
        <ele>1013.796875</ele>
        <time>2019-08-21T14:32:15Z</time>
      </trkpt>
      <trkpt lat="59.2805549595505" lon="8.218297977000475">
        <ele>1013.77734375</ele>
        <time>2019-08-21T14:32:16Z</time>
      </trkpt>
      <trkpt lat="59.280556971207261" lon="8.218321027234197">
        <ele>1013.75</ele>
        <time>2019-08-21T14:32:17Z</time>
      </trkpt>
      <trkpt lat="59.280557977035642" lon="8.218346005305648">
        <ele>1013.703125</ele>
        <time>2019-08-21T14:32:18Z</time>
      </trkpt>
      <trkpt lat="59.280556971207261" lon="8.218367965891957">
        <ele>1013.65234375</ele>
        <time>2019-08-21T14:32:19Z</time>
      </trkpt>
      <trkpt lat="59.280560994520783" lon="8.218391016125679">
        <ele>1013.6015625</ele>
        <time>2019-08-21T14:32:20Z</time>
      </trkpt>
      <trkpt lat="59.280565017834306" lon="8.21841498836875">
        <ele>1013.54296875</ele>
        <time>2019-08-21T14:32:21Z</time>
      </trkpt>
      <trkpt lat="59.280569041147828" lon="8.218440972268581">
        <ele>1013.484375</ele>
        <time>2019-08-21T14:32:22Z</time>
      </trkpt>
      <trkpt lat="59.280569041147828" lon="8.218467961996794">
        <ele>1013.421875</ele>
        <time>2019-08-21T14:32:23Z</time>
      </trkpt>
      <trkpt lat="59.280563006177545" lon="8.218495035544038">
        <ele>1013.36328125</ele>
        <time>2019-08-21T14:32:24Z</time>
      </trkpt>
      <trkpt lat="59.280558982864022" lon="8.218518001958728">
        <ele>1013.31640625</ele>
        <time>2019-08-21T14:32:25Z</time>
      </trkpt>
      <trkpt lat="59.280556971207261" lon="8.218537028878927">
        <ele>1013.2734375</ele>
        <time>2019-08-21T14:32:26Z</time>
      </trkpt>
      <trkpt lat="59.280554037541151" lon="8.218553038313985">
        <ele>1013.2421875</ele>
        <time>2019-08-21T14:32:27Z</time>
      </trkpt>
      <trkpt lat="59.28055303171277" lon="8.218567036092281">
        <ele>1013.2109375</ele>
        <time>2019-08-21T14:32:28Z</time>
      </trkpt>
      <trkpt lat="59.28055303171277" lon="8.218582961708307">
        <ele>1013.17578125</ele>
        <time>2019-08-21T14:32:29Z</time>
      </trkpt>
      <trkpt lat="59.280549008399248" lon="8.218600982800126">
        <ele>1013.140625</ele>
        <time>2019-08-21T14:32:30Z</time>
      </trkpt>
      <trkpt lat="59.280540039762855" lon="8.218609029427171">
        <ele>1013.16015625</ele>
        <time>2019-08-21T14:32:31Z</time>
      </trkpt>
      <trkpt lat="59.280538028106093" lon="8.21860701777041">
        <ele>1013.16796875</ele>
        <time>2019-08-21T14:32:32Z</time>
      </trkpt>
      <trkpt lat="59.280537022277713" lon="8.218604000285268">
        <ele>1013.171875</ele>
        <time>2019-08-21T14:32:33Z</time>
      </trkpt>
      <trkpt lat="59.280536016449332" lon="8.218602994456887">
        <ele>1013.17578125</ele>
        <time>2019-08-21T14:32:34Z</time>
      </trkpt>
      <trkpt lat="59.280534004792571" lon="8.218599976971746">
        <ele>1013.1875</ele>
        <time>2019-08-21T14:32:35Z</time>
      </trkpt>
      <trkpt lat="59.28053299896419" lon="8.218600982800126">
        <ele>1013.19140625</ele>
        <time>2019-08-21T14:32:36Z</time>
      </trkpt>
      <trkpt lat="59.280527969822288" lon="8.218596037477255">
        <ele>1013.21875</ele>
        <time>2019-08-21T14:32:37Z</time>
      </trkpt>
      <trkpt lat="59.280525036156178" lon="8.218590002506971">
        <ele>1013.2421875</ele>
        <time>2019-08-21T14:32:38Z</time>
      </trkpt>
      <trkpt lat="59.280522018671036" lon="8.218582039698958">
        <ele>1013.26953125</ele>
        <time>2019-08-21T14:32:39Z</time>
      </trkpt>
      <trkpt lat="59.280521012842655" lon="8.218582961708307">
        <ele>1013.26953125</ele>
        <time>2019-08-21T14:32:40Z</time>
      </trkpt>
      <trkpt lat="59.280521012842655" lon="8.218584973365068">
        <ele>1013.265625</ele>
        <time>2019-08-21T14:32:41Z</time>
      </trkpt>
      <trkpt lat="59.280520007014275" lon="8.218584973365068">
        <ele>1013.26953125</ele>
        <time>2019-08-21T14:32:42Z</time>
      </trkpt>
      <trkpt lat="59.280520007014275" lon="8.218583967536688">
        <ele>1013.26953125</ele>
        <time>2019-08-21T14:32:43Z</time>
      </trkpt>
      <trkpt lat="59.280521012842655" lon="8.218584973365068">
        <ele>1013.265625</ele>
        <time>2019-08-21T14:32:44Z</time>
      </trkpt>
      <trkpt lat="59.280521012842655" lon="8.218584973365068">
        <ele>1013.265625</ele>
        <time>2019-08-21T14:32:45Z</time>
      </trkpt>
      <trkpt lat="59.280521012842655" lon="8.218584973365068">
        <ele>1013.265625</ele>
        <time>2019-08-21T14:32:46Z</time>
      </trkpt>
      <trkpt lat="59.280521012842655" lon="8.218584973365068">
        <ele>1013.265625</ele>
        <time>2019-08-21T14:32:47Z</time>
      </trkpt>
      <trkpt lat="59.280521012842655" lon="8.218584973365068">
        <ele>1013.265625</ele>
        <time>2019-08-21T14:32:48Z</time>
      </trkpt>
      <trkpt lat="59.280521012842655" lon="8.218584973365068">
        <ele>1013.265625</ele>
        <time>2019-08-21T14:32:49Z</time>
      </trkpt>
      <trkpt lat="59.280521012842655" lon="8.218584973365068">
        <ele>1013.265625</ele>
        <time>2019-08-21T14:32:50Z</time>
      </trkpt>
      <trkpt lat="59.280521012842655" lon="8.218584973365068">
        <ele>1013.265625</ele>
        <time>2019-08-21T14:32:51Z</time>
      </trkpt>
      <trkpt lat="59.280521012842655" lon="8.218584973365068">
        <ele>1013.265625</ele>
        <time>2019-08-21T14:32:52Z</time>
      </trkpt>
      <trkpt lat="59.280521012842655" lon="8.218584973365068">
        <ele>1013.265625</ele>
        <time>2019-08-21T14:32:53Z</time>
      </trkpt>
      <trkpt lat="59.280521012842655" lon="8.218584973365068">
        <ele>1013.265625</ele>
        <time>2019-08-21T14:32:54Z</time>
      </trkpt>
      <trkpt lat="59.280521012842655" lon="8.218584973365068">
        <ele>1013.265625</ele>
        <time>2019-08-21T14:32:55Z</time>
      </trkpt>
      <trkpt lat="59.280521012842655" lon="8.218584973365068">
        <ele>1013.265625</ele>
        <time>2019-08-21T14:32:56Z</time>
      </trkpt>
      <trkpt lat="59.280521012842655" lon="8.218584973365068">
        <ele>1013.265625</ele>
        <time>2019-08-21T14:32:57Z</time>
      </trkpt>
      <trkpt lat="59.280521012842655" lon="8.218584973365068">
        <ele>1013.265625</ele>
        <time>2019-08-21T14:32:58Z</time>
      </trkpt>
      <trkpt lat="59.280521012842655" lon="8.218584973365068">
        <ele>1013.265625</ele>
        <time>2019-08-21T14:32:59Z</time>
      </trkpt>
      <trkpt lat="59.280521012842655" lon="8.218584973365068">
        <ele>1013.265625</ele>
        <time>2019-08-21T14:33:00Z</time>
      </trkpt>
      <trkpt lat="59.280521012842655" lon="8.218584973365068">
        <ele>1013.265625</ele>
        <time>2019-08-21T14:33:01Z</time>
      </trkpt>
      <trkpt lat="59.280521012842655" lon="8.218584973365068">
        <ele>1013.265625</ele>
        <time>2019-08-21T14:33:02Z</time>
      </trkpt>
      <trkpt lat="59.280521012842655" lon="8.218584973365068">
        <ele>1013.265625</ele>
        <time>2019-08-21T14:33:03Z</time>
      </trkpt>
      <trkpt lat="59.280521012842655" lon="8.218584973365068">
        <ele>1013.265625</ele>
        <time>2019-08-21T14:33:04Z</time>
      </trkpt>
      <trkpt lat="59.280521012842655" lon="8.218584973365068">
        <ele>1013.265625</ele>
        <time>2019-08-21T14:33:05Z</time>
      </trkpt>
      <trkpt lat="59.280521012842655" lon="8.218584973365068">
        <ele>1013.265625</ele>
        <time>2019-08-21T14:33:06Z</time>
      </trkpt>
      <trkpt lat="59.280521012842655" lon="8.218584973365068">
        <ele>1013.265625</ele>
        <time>2019-08-21T14:33:07Z</time>
      </trkpt>
      <trkpt lat="59.280521012842655" lon="8.218584973365068">
        <ele>1013.265625</ele>
        <time>2019-08-21T14:33:08Z</time>
      </trkpt>
      <trkpt lat="59.280521012842655" lon="8.218584973365068">
        <ele>1013.265625</ele>
        <time>2019-08-21T14:33:09Z</time>
      </trkpt>
      <trkpt lat="59.280521012842655" lon="8.218584973365068">
        <ele>1013.265625</ele>
        <time>2019-08-21T14:33:10Z</time>
      </trkpt>
      <trkpt lat="59.280521012842655" lon="8.218584973365068">
        <ele>1013.265625</ele>
        <time>2019-08-21T14:33:11Z</time>
      </trkpt>
      <trkpt lat="59.280521012842655" lon="8.218584973365068">
        <ele>1013.265625</ele>
        <time>2019-08-21T14:33:12Z</time>
      </trkpt>
      <trkpt lat="59.280521012842655" lon="8.218584973365068">
        <ele>1013.265625</ele>
        <time>2019-08-21T14:33:13Z</time>
      </trkpt>
      <trkpt lat="59.280521012842655" lon="8.218584973365068">
        <ele>1013.265625</ele>
        <time>2019-08-21T14:33:14Z</time>
      </trkpt>
      <trkpt lat="59.280521012842655" lon="8.218584973365068">
        <ele>1013.265625</ele>
        <time>2019-08-21T14:33:15Z</time>
      </trkpt>
      <trkpt lat="59.280498968437314" lon="8.218554966151714">
        <ele>1013.40234375</ele>
        <time>2019-08-21T14:33:17Z</time>
      </trkpt>
      <trkpt lat="59.280471978709102" lon="8.218530993908644">
        <ele>1013.54296875</ele>
        <time>2019-08-21T14:33:18Z</time>
      </trkpt>
      <trkpt lat="59.28044599480927" lon="8.21850098669529">
        <ele>1013.6953125</ele>
        <time>2019-08-21T14:33:19Z</time>
      </trkpt>
      <trkpt lat="59.280427973717451" lon="8.218480031937361">
        <ele>1013.80078125</ele>
        <time>2019-08-21T14:33:20Z</time>
      </trkpt>
      <trkpt lat="59.280410036444664" lon="8.218459999188781">
        <ele>1013.90625</ele>
        <time>2019-08-21T14:33:21Z</time>
      </trkpt>
      <trkpt lat="59.280391009524465" lon="8.218434015288949">
        <ele>1014.0234375</ele>
        <time>2019-08-21T14:33:22Z</time>
      </trkpt>
      <trkpt lat="59.280372988432646" lon="8.218407025560737">
        <ele>1014.14453125</ele>
        <time>2019-08-21T14:33:23Z</time>
      </trkpt>
      <trkpt lat="59.280356978997588" lon="8.218379030004144">
        <ele>1014.2578125</ele>
        <time>2019-08-21T14:33:24Z</time>
      </trkpt>
      <trkpt lat="59.28033803589642" lon="8.218353968113661">
        <ele>1014.375</ele>
        <time>2019-08-21T14:33:25Z</time>
      </trkpt>
      <trkpt lat="59.280322026461363" lon="8.21832899004221">
        <ele>1014.48046875</ele>
        <time>2019-08-21T14:33:26Z</time>
      </trkpt>
      <trkpt lat="59.280312974005938" lon="8.218321027234197">
        <ele>1014.5234375</ele>
        <time>2019-08-21T14:33:27Z</time>
      </trkpt>
      <trkpt lat="59.280309034511447" lon="8.218318009749055">
        <ele>1014.5390625</ele>
        <time>2019-08-21T14:33:28Z</time>
      </trkpt>
      <trkpt lat="59.280309034511447" lon="8.218303006142378">
        <ele>1014.5546875</ele>
        <time>2019-08-21T14:33:29Z</time>
      </trkpt>
      <trkpt lat="59.280308028683066" lon="8.218300994485617">
        <ele>1014.5625</ele>
        <time>2019-08-21T14:33:30Z</time>
      </trkpt>
      <trkpt lat="59.280309034511447" lon="8.218297977000475">
        <ele>1014.5625</ele>
        <time>2019-08-21T14:33:31Z</time>
      </trkpt>
      <trkpt lat="59.280310962349176" lon="8.218296971172094">
        <ele>1014.55859375</ele>
        <time>2019-08-21T14:33:32Z</time>
      </trkpt>
      <trkpt lat="59.280311968177557" lon="8.218294037505984">
        <ele>1014.55859375</ele>
        <time>2019-08-21T14:33:33Z</time>
      </trkpt>
      <trkpt lat="59.280311968177557" lon="8.218294037505984">
        <ele>1014.55859375</ele>
        <time>2019-08-21T14:33:34Z</time>
      </trkpt>
      <trkpt lat="59.280302999541163" lon="8.21828599087894">
        <ele>1014.59375</ele>
        <time>2019-08-21T14:33:35Z</time>
      </trkpt>
      <trkpt lat="59.280299982056022" lon="8.218189012259245">
        <ele>1014.7109375</ele>
        <time>2019-08-21T14:33:37Z</time>
      </trkpt>
      <trkpt lat="59.280302999541163" lon="8.218155987560749">
        <ele>1014.73828125</ele>
        <time>2019-08-21T14:33:38Z</time>
      </trkpt>
      <trkpt lat="59.280295958742499" lon="8.218145007267594">
        <ele>1014.7734375</ele>
        <time>2019-08-21T14:33:39Z</time>
      </trkpt>
      <trkpt lat="59.280289001762867" lon="8.218144001439214">
        <ele>1014.796875</ele>
        <time>2019-08-21T14:33:40Z</time>
      </trkpt>
      <trkpt lat="59.280287995934486" lon="8.218145007267594">
        <ele>1014.80078125</ele>
        <time>2019-08-21T14:33:41Z</time>
      </trkpt>
      <trkpt lat="59.280284978449345" lon="8.218150958418846">
        <ele>1014.80078125</ele>
        <time>2019-08-21T14:33:42Z</time>
      </trkpt>
      <trkpt lat="59.280262012034655" lon="8.218194041401148">
        <ele>1014.8203125</ele>
        <time>2019-08-21T14:33:44Z</time>
      </trkpt>
      <trkpt lat="59.280235022306442" lon="8.218211978673935">
        <ele>1014.85546875</ele>
        <time>2019-08-21T14:33:45Z</time>
      </trkpt>
      <trkpt lat="59.280213983729482" lon="8.218217007815838">
        <ele>1014.890625</ele>
        <time>2019-08-21T14:33:46Z</time>
      </trkpt>
      <trkpt lat="59.280199985951185" lon="8.218219019472599">
        <ele>1014.9140625</ele>
        <time>2019-08-21T14:33:47Z</time>
      </trkpt>
      <trkpt lat="59.280180037021637" lon="8.218238968402147">
        <ele>1014.91796875</ele>
        <time>2019-08-21T14:33:48Z</time>
      </trkpt>
      <trkpt lat="59.280160004273057" lon="8.218256989493966">
        <ele>1014.91796875</ele>
        <time>2019-08-21T14:33:49Z</time>
      </trkpt>
      <trkpt lat="59.280142989009619" lon="8.218265036121011">
        <ele>1014.92578125</ele>
        <time>2019-08-21T14:33:50Z</time>
      </trkpt>
      <trkpt lat="59.280121028423309" lon="8.218288002535701">
        <ele>1014.91015625</ele>
        <time>2019-08-21T14:33:51Z</time>
      </trkpt>
      <trkpt lat="59.280094038695097" lon="8.218302000313997">
        <ele>1014.9140625</ele>
        <time>2019-08-21T14:33:52Z</time>
      </trkpt>
      <trkpt lat="59.280078029260039" lon="8.218305017799139">
        <ele>1014.92578125</ele>
        <time>2019-08-21T14:33:53Z</time>
      </trkpt>
      <trkpt lat="59.280076017603278" lon="8.218294037505984">
        <ele>1014.95703125</ele>
        <time>2019-08-21T14:33:54Z</time>
      </trkpt>
      <trkpt lat="59.280066965147853" lon="8.21822295896709">
        <ele>1015.16015625</ele>
        <time>2019-08-21T14:33:56Z</time>
      </trkpt>
      <trkpt lat="59.280053973197937" lon="8.218176020309329">
        <ele>1015.31640625</ele>
        <time>2019-08-21T14:33:57Z</time>
      </trkpt>
      <trkpt lat="59.28003896959126" lon="8.21813402697444">
        <ele>1015.4765625</ele>
        <time>2019-08-21T14:33:58Z</time>
      </trkpt>
      <trkpt lat="59.280019020661712" lon="8.21809203363955">
        <ele>1015.65625</ele>
        <time>2019-08-21T14:33:59Z</time>
      </trkpt>
      <trkpt lat="59.280003011226654" lon="8.218054985627532">
        <ele>1015.82421875</ele>
        <time>2019-08-21T14:34:00Z</time>
      </trkpt>
      <trkpt lat="59.27999597042799" lon="8.218037970364094">
        <ele>1015.87890625</ele>
        <time>2019-08-21T14:34:01Z</time>
      </trkpt>
      <trkpt lat="59.279977027326822" lon="8.218018021434546">
        <ele>1015.98046875</ele>
        <time>2019-08-21T14:34:02Z</time>
      </trkpt>
      <trkpt lat="59.27995297126472" lon="8.218000000342727">
        <ele>1016.10546875</ele>
        <time>2019-08-21T14:34:03Z</time>
      </trkpt>
      <trkpt lat="59.279949031770229" lon="8.217974016442895">
        <ele>1016.1484375</ele>
        <time>2019-08-21T14:34:04Z</time>
      </trkpt>
      <trkpt lat="59.279937967658043" lon="8.217977033928037">
        <ele>1016.1953125</ele>
        <time>2019-08-21T14:34:05Z</time>
      </trkpt>
      <trkpt lat="59.279919024556875" lon="8.217992037534714">
        <ele>1016.26171875</ele>
        <time>2019-08-21T14:34:06Z</time>
      </trkpt>
      <trkpt lat="59.279896980151534" lon="8.218010980635881">
        <ele>1016.33984375</ele>
        <time>2019-08-21T14:34:07Z</time>
      </trkpt>
      <trkpt lat="59.279878959059715" lon="8.218021960929036">
        <ele>1016.40625</ele>
        <time>2019-08-21T14:34:08Z</time>
      </trkpt>
      <trkpt lat="59.279862027615309" lon="8.218030007556081">
        <ele>1016.47265625</ele>
        <time>2019-08-21T14:34:09Z</time>
      </trkpt>
      <trkpt lat="59.279850963503122" lon="8.218038976192474">
        <ele>1016.5078125</ele>
        <time>2019-08-21T14:34:10Z</time>
      </trkpt>
      <trkpt lat="59.279840989038348" lon="8.218040987849236">
        <ele>1016.55078125</ele>
        <time>2019-08-21T14:34:11Z</time>
      </trkpt>
      <trkpt lat="59.279832020401955" lon="8.218046016991139">
        <ele>1016.5859375</ele>
        <time>2019-08-21T14:34:12Z</time>
      </trkpt>
      <trkpt lat="59.279826991260052" lon="8.218040987849236">
        <ele>1016.61328125</ele>
        <time>2019-08-21T14:34:13Z</time>
      </trkpt>
      <trkpt lat="59.279825985431671" lon="8.218038976192474">
        <ele>1016.62109375</ele>
        <time>2019-08-21T14:34:14Z</time>
      </trkpt>
      <trkpt lat="59.279826991260052" lon="8.218037970364094">
        <ele>1016.6171875</ele>
        <time>2019-08-21T14:34:15Z</time>
      </trkpt>
      <trkpt lat="59.279825985431671" lon="8.218038976192474">
        <ele>1016.62109375</ele>
        <time>2019-08-21T14:34:16Z</time>
      </trkpt>
      <trkpt lat="59.279825985431671" lon="8.218039982020855">
        <ele>1016.6171875</ele>
        <time>2019-08-21T14:34:17Z</time>
      </trkpt>
      <trkpt lat="59.279825985431671" lon="8.218040987849236">
        <ele>1016.6171875</ele>
        <time>2019-08-21T14:34:18Z</time>
      </trkpt>
      <trkpt lat="59.27982397377491" lon="8.218055991455913">
        <ele>1016.59375</ele>
        <time>2019-08-21T14:34:19Z</time>
      </trkpt>
      <trkpt lat="59.279819028452039" lon="8.21807099506259">
        <ele>1016.56640625</ele>
        <time>2019-08-21T14:34:20Z</time>
      </trkpt>
      <trkpt lat="59.279815005138516" lon="8.218084992840886">
        <ele>1016.53515625</ele>
        <time>2019-08-21T14:34:21Z</time>
      </trkpt>
      <trkpt lat="59.279808970168233" lon="8.218107037246227">
        <ele>1016.4921875</ele>
        <time>2019-08-21T14:34:22Z</time>
      </trkpt>
      <trkpt lat="59.279802013188601" lon="8.218116005882621">
        <ele>1016.4921875</ele>
        <time>2019-08-21T14:34:23Z</time>
      </trkpt>
      <trkpt lat="59.279794972389936" lon="8.218121035024524">
        <ele>1016.50390625</ele>
        <time>2019-08-21T14:34:24Z</time>
      </trkpt>
      <trkpt lat="59.279788015410304" lon="8.218122040852904">
        <ele>1016.53125</ele>
        <time>2019-08-21T14:34:25Z</time>
      </trkpt>
      <trkpt lat="59.279783992096782" lon="8.218125980347395">
        <ele>1016.5390625</ele>
        <time>2019-08-21T14:34:26Z</time>
      </trkpt>
      <trkpt lat="59.279781980440021" lon="8.218128997832537">
        <ele>1016.53515625</ele>
        <time>2019-08-21T14:34:27Z</time>
      </trkpt>
      <trkpt lat="59.279779968783259" lon="8.218132015317679">
        <ele>1016.53515625</ele>
        <time>2019-08-21T14:34:28Z</time>
      </trkpt>
      <trkpt lat="59.27977804094553" lon="8.21813402697444">
        <ele>1016.5390625</ele>
        <time>2019-08-21T14:34:29Z</time>
      </trkpt>
      <trkpt lat="59.27977804094553" lon="8.21813402697444">
        <ele>1016.5390625</ele>
        <time>2019-08-21T14:34:30Z</time>
      </trkpt>
      <trkpt lat="59.27977804094553" lon="8.21813402697444">
        <ele>1016.5390625</ele>
        <time>2019-08-21T14:34:31Z</time>
      </trkpt>
      <trkpt lat="59.279777035117149" lon="8.21813402697444">
        <ele>1016.54296875</ele>
        <time>2019-08-21T14:34:32Z</time>
      </trkpt>
      <trkpt lat="59.279777035117149" lon="8.21813402697444">
        <ele>1016.54296875</ele>
        <time>2019-08-21T14:34:33Z</time>
      </trkpt>
      <trkpt lat="59.279777035117149" lon="8.21813402697444">
        <ele>1016.54296875</ele>
        <time>2019-08-21T14:34:34Z</time>
      </trkpt>
      <trkpt lat="59.279777035117149" lon="8.21813402697444">
        <ele>1016.54296875</ele>
        <time>2019-08-21T14:34:35Z</time>
      </trkpt>
      <trkpt lat="59.279777035117149" lon="8.21813402697444">
        <ele>1016.54296875</ele>
        <time>2019-08-21T14:34:36Z</time>
      </trkpt>
      <trkpt lat="59.279777035117149" lon="8.218133021146059">
        <ele>1016.546875</ele>
        <time>2019-08-21T14:34:37Z</time>
      </trkpt>
      <trkpt lat="59.27977804094553" lon="8.218133021146059">
        <ele>1016.5390625</ele>
        <time>2019-08-21T14:34:38Z</time>
      </trkpt>
      <trkpt lat="59.27977804094553" lon="8.218133021146059">
        <ele>1016.5390625</ele>
        <time>2019-08-21T14:34:39Z</time>
      </trkpt>
      <trkpt lat="59.27977804094553" lon="8.218133021146059">
        <ele>1016.5390625</ele>
        <time>2019-08-21T14:34:40Z</time>
      </trkpt>
      <trkpt lat="59.279777035117149" lon="8.218133021146059">
        <ele>1016.546875</ele>
        <time>2019-08-21T14:34:41Z</time>
      </trkpt>
      <trkpt lat="59.279777035117149" lon="8.218133021146059">
        <ele>1016.546875</ele>
        <time>2019-08-21T14:34:42Z</time>
      </trkpt>
      <trkpt lat="59.279777035117149" lon="8.218133021146059">
        <ele>1016.546875</ele>
        <time>2019-08-21T14:34:43Z</time>
      </trkpt>
      <trkpt lat="59.279777035117149" lon="8.218133021146059">
        <ele>1016.546875</ele>
        <time>2019-08-21T14:34:44Z</time>
      </trkpt>
      <trkpt lat="59.279777035117149" lon="8.218133021146059">
        <ele>1016.546875</ele>
        <time>2019-08-21T14:34:45Z</time>
      </trkpt>
      <trkpt lat="59.279777035117149" lon="8.218133021146059">
        <ele>1016.546875</ele>
        <time>2019-08-21T14:34:46Z</time>
      </trkpt>
      <trkpt lat="59.279777035117149" lon="8.218133021146059">
        <ele>1016.546875</ele>
        <time>2019-08-21T14:34:47Z</time>
      </trkpt>
      <trkpt lat="59.279777035117149" lon="8.218133021146059">
        <ele>1016.546875</ele>
        <time>2019-08-21T14:34:48Z</time>
      </trkpt>
      <trkpt lat="59.279777035117149" lon="8.218133021146059">
        <ele>1016.546875</ele>
        <time>2019-08-21T14:34:49Z</time>
      </trkpt>
      <trkpt lat="59.279777035117149" lon="8.218133021146059">
        <ele>1016.546875</ele>
        <time>2019-08-21T14:34:50Z</time>
      </trkpt>
      <trkpt lat="59.279777035117149" lon="8.218133021146059">
        <ele>1016.546875</ele>
        <time>2019-08-21T14:34:51Z</time>
      </trkpt>
      <trkpt lat="59.279777035117149" lon="8.218133021146059">
        <ele>1016.546875</ele>
        <time>2019-08-21T14:34:52Z</time>
      </trkpt>
      <trkpt lat="59.279777035117149" lon="8.218133021146059">
        <ele>1016.546875</ele>
        <time>2019-08-21T14:34:53Z</time>
      </trkpt>
      <trkpt lat="59.279777035117149" lon="8.218133021146059">
        <ele>1016.546875</ele>
        <time>2019-08-21T14:34:54Z</time>
      </trkpt>
      <trkpt lat="59.279777035117149" lon="8.218133021146059">
        <ele>1016.546875</ele>
        <time>2019-08-21T14:34:55Z</time>
      </trkpt>
      <trkpt lat="59.279777035117149" lon="8.218133021146059">
        <ele>1016.546875</ele>
        <time>2019-08-21T14:34:56Z</time>
      </trkpt>
      <trkpt lat="59.279777035117149" lon="8.218133021146059">
        <ele>1016.546875</ele>
        <time>2019-08-21T14:34:57Z</time>
      </trkpt>
      <trkpt lat="59.279777035117149" lon="8.218133021146059">
        <ele>1016.546875</ele>
        <time>2019-08-21T14:34:58Z</time>
      </trkpt>
      <trkpt lat="59.279777035117149" lon="8.218133021146059">
        <ele>1016.546875</ele>
        <time>2019-08-21T14:34:59Z</time>
      </trkpt>
      <trkpt lat="59.279777035117149" lon="8.218133021146059">
        <ele>1016.546875</ele>
        <time>2019-08-21T14:35:00Z</time>
      </trkpt>
      <trkpt lat="59.279777035117149" lon="8.21813402697444">
        <ele>1016.54296875</ele>
        <time>2019-08-21T14:35:01Z</time>
      </trkpt>
      <trkpt lat="59.279777035117149" lon="8.218133021146059">
        <ele>1016.546875</ele>
        <time>2019-08-21T14:35:02Z</time>
      </trkpt>
      <trkpt lat="59.279777035117149" lon="8.218133021146059">
        <ele>1016.546875</ele>
        <time>2019-08-21T14:35:03Z</time>
      </trkpt>
      <trkpt lat="59.279777035117149" lon="8.218133021146059">
        <ele>1016.546875</ele>
        <time>2019-08-21T14:35:04Z</time>
      </trkpt>
      <trkpt lat="59.279777035117149" lon="8.218133021146059">
        <ele>1016.546875</ele>
        <time>2019-08-21T14:35:05Z</time>
      </trkpt>
      <trkpt lat="59.27977804094553" lon="8.218133021146059">
        <ele>1016.5390625</ele>
        <time>2019-08-21T14:35:06Z</time>
      </trkpt>
      <trkpt lat="59.27977804094553" lon="8.218133021146059">
        <ele>1016.5390625</ele>
        <time>2019-08-21T14:35:07Z</time>
      </trkpt>
      <trkpt lat="59.27977804094553" lon="8.218133021146059">
        <ele>1016.5390625</ele>
        <time>2019-08-21T14:35:08Z</time>
      </trkpt>
      <trkpt lat="59.27977804094553" lon="8.21813402697444">
        <ele>1016.5390625</ele>
        <time>2019-08-21T14:35:09Z</time>
      </trkpt>
      <trkpt lat="59.27977804094553" lon="8.218133021146059">
        <ele>1016.5390625</ele>
        <time>2019-08-21T14:35:10Z</time>
      </trkpt>
      <trkpt lat="59.27977804094553" lon="8.218133021146059">
        <ele>1016.5390625</ele>
        <time>2019-08-21T14:35:11Z</time>
      </trkpt>
      <trkpt lat="59.27977804094553" lon="8.218133021146059">
        <ele>1016.5390625</ele>
        <time>2019-08-21T14:35:12Z</time>
      </trkpt>
      <trkpt lat="59.27977804094553" lon="8.218133021146059">
        <ele>1016.5390625</ele>
        <time>2019-08-21T14:35:13Z</time>
      </trkpt>
      <trkpt lat="59.27977804094553" lon="8.218133021146059">
        <ele>1016.5390625</ele>
        <time>2019-08-21T14:35:14Z</time>
      </trkpt>
      <trkpt lat="59.27977804094553" lon="8.218133021146059">
        <ele>1016.5390625</ele>
        <time>2019-08-21T14:35:15Z</time>
      </trkpt>
      <trkpt lat="59.279778962954879" lon="8.218131009489298">
        <ele>1016.54296875</ele>
        <time>2019-08-21T14:35:16Z</time>
      </trkpt>
      <trkpt lat="59.279778962954879" lon="8.218131009489298">
        <ele>1016.54296875</ele>
        <time>2019-08-21T14:35:17Z</time>
      </trkpt>
      <trkpt lat="59.279778962954879" lon="8.218130003660917">
        <ele>1016.546875</ele>
        <time>2019-08-21T14:35:18Z</time>
      </trkpt>
      <trkpt lat="59.279778962954879" lon="8.218130003660917">
        <ele>1016.546875</ele>
        <time>2019-08-21T14:35:19Z</time>
      </trkpt>
      <trkpt lat="59.279778962954879" lon="8.218131009489298">
        <ele>1016.54296875</ele>
        <time>2019-08-21T14:35:20Z</time>
      </trkpt>
      <trkpt lat="59.279778962954879" lon="8.218130003660917">
        <ele>1016.546875</ele>
        <time>2019-08-21T14:35:21Z</time>
      </trkpt>
      <trkpt lat="59.279778962954879" lon="8.218130003660917">
        <ele>1016.546875</ele>
        <time>2019-08-21T14:35:22Z</time>
      </trkpt>
      <trkpt lat="59.27977804094553" lon="8.218127992004156">
        <ele>1016.55859375</ele>
        <time>2019-08-21T14:35:23Z</time>
      </trkpt>
      <trkpt lat="59.279763959348202" lon="8.218151964247227">
        <ele>1016.5390625</ele>
        <time>2019-08-21T14:35:25Z</time>
      </trkpt>
      <trkpt lat="59.279749039560556" lon="8.218175014480948">
        <ele>1016.53125</ele>
        <time>2019-08-21T14:35:26Z</time>
      </trkpt>
      <trkpt lat="59.279722971841693" lon="8.218194041401148">
        <ele>1016.58203125</ele>
        <time>2019-08-21T14:35:27Z</time>
      </trkpt>
      <trkpt lat="59.279697993770242" lon="8.21820099838078">
        <ele>1016.6796875</ele>
        <time>2019-08-21T14:35:28Z</time>
      </trkpt>
      <trkpt lat="59.279680978506804" lon="8.218204015865922">
        <ele>1016.75390625</ele>
        <time>2019-08-21T14:35:29Z</time>
      </trkpt>
      <trkpt lat="59.279671004042029" lon="8.218202004209161">
        <ele>1016.80859375</ele>
        <time>2019-08-21T14:35:30Z</time>
      </trkpt>
      <trkpt lat="59.279658012092113" lon="8.218218013644218">
        <ele>1016.82421875</ele>
        <time>2019-08-21T14:35:31Z</time>
      </trkpt>
      <trkpt lat="59.279644014313817" lon="8.218250032514334">
        <ele>1016.80078125</ele>
        <time>2019-08-21T14:35:32Z</time>
      </trkpt>
      <trkpt lat="59.279642002657056" lon="8.218290014192462">
        <ele>1016.69140625</ele>
        <time>2019-08-21T14:35:33Z</time>
      </trkpt>
      <trkpt lat="59.279635967686772" lon="8.218320021405816">
        <ele>1016.6328125</ele>
        <time>2019-08-21T14:35:34Z</time>
      </trkpt>
      <trkpt lat="59.279626999050379" lon="8.218339970335364">
        <ele>1016.61328125</ele>
        <time>2019-08-21T14:35:35Z</time>
      </trkpt>
      <trkpt lat="59.279613001272082" lon="8.218365032225847">
        <ele>1016.6015625</ele>
        <time>2019-08-21T14:35:36Z</time>
      </trkpt>
      <trkpt lat="59.279601015150547" lon="8.218394033610821">
        <ele>1016.5703125</ele>
        <time>2019-08-21T14:35:37Z</time>
      </trkpt>
      <trkpt lat="59.279591040685773" lon="8.218423034995794">
        <ele>1016.53125</ele>
        <time>2019-08-21T14:35:38Z</time>
      </trkpt>
      <trkpt lat="59.279578970745206" lon="8.218451030552387">
        <ele>1016.51171875</ele>
        <time>2019-08-21T14:35:39Z</time>
      </trkpt>
      <trkpt lat="59.279568996280432" lon="8.218477014452219">
        <ele>1016.4921875</ele>
        <time>2019-08-21T14:35:40Z</time>
      </trkpt>
      <trkpt lat="59.279563967138529" lon="8.21850199252367">
        <ele>1016.44921875</ele>
        <time>2019-08-21T14:35:41Z</time>
      </trkpt>
      <trkpt lat="59.279550975188613" lon="8.218519007787108">
        <ele>1016.484375</ele>
        <time>2019-08-21T14:35:42Z</time>
      </trkpt>
      <trkpt lat="59.279552986845374" lon="8.218534011393786">
        <ele>1016.421875</ele>
        <time>2019-08-21T14:35:43Z</time>
      </trkpt>
      <trkpt lat="59.279562961310148" lon="8.218568963930011">
        <ele>1016.2421875</ele>
        <time>2019-08-21T14:35:44Z</time>
      </trkpt>
      <trkpt lat="59.279570002108812" lon="8.218604000285268">
        <ele>1016.07421875</ele>
        <time>2019-08-21T14:35:45Z</time>
      </trkpt>
      <trkpt lat="59.279564972966909" lon="8.218644987791777">
        <ele>1015.97265625</ele>
        <time>2019-08-21T14:35:46Z</time>
      </trkpt>
      <trkpt lat="59.279552986845374" lon="8.218683963641524">
        <ele>1015.9140625</ele>
        <time>2019-08-21T14:35:47Z</time>
      </trkpt>
      <trkpt lat="59.279548041522503" lon="8.218711037188768">
        <ele>1015.84375</ele>
        <time>2019-08-21T14:35:48Z</time>
      </trkpt>
      <trkpt lat="59.279545024037361" lon="8.218739032745361">
        <ele>1015.7578125</ele>
        <time>2019-08-21T14:35:49Z</time>
      </trkpt>
      <trkpt lat="59.279536977410316" lon="8.21877901442349">
        <ele>1015.64453125</ele>
        <time>2019-08-21T14:35:50Z</time>
      </trkpt>
      <trkpt lat="59.279527002945542" lon="8.218824025243521">
        <ele>1015.51171875</ele>
        <time>2019-08-21T14:35:51Z</time>
      </trkpt>
      <trkpt lat="59.279516022652388" lon="8.218872975558043">
        <ele>1015.34765625</ele>
        <time>2019-08-21T14:35:52Z</time>
      </trkpt>
      <trkpt lat="59.279506970196962" lon="8.218927960842848">
        <ele>1015.29296875</ele>
        <time>2019-08-21T14:35:53Z</time>
      </trkpt>
      <trkpt lat="59.279498001560569" lon="8.218969032168388">
        <ele>1015.27734375</ele>
        <time>2019-08-21T14:35:54Z</time>
      </trkpt>
      <trkpt lat="59.279489032924175" lon="8.219011025503278">
        <ele>1015.26171875</ele>
        <time>2019-08-21T14:35:55Z</time>
      </trkpt>
      <trkpt lat="59.279476040974259" lon="8.219056958332658">
        <ele>1015.25390625</ele>
        <time>2019-08-21T14:35:56Z</time>
      </trkpt>
      <trkpt lat="59.279461037367582" lon="8.219095012173057">
        <ele>1015.26171875</ele>
        <time>2019-08-21T14:35:57Z</time>
      </trkpt>
      <trkpt lat="59.279443016275764" lon="8.219135999679565">
        <ele>1015.2734375</ele>
        <time>2019-08-21T14:35:58Z</time>
      </trkpt>
      <trkpt lat="59.279424995183945" lon="8.219169024378061">
        <ele>1015.375</ele>
        <time>2019-08-21T14:35:59Z</time>
      </trkpt>
      <trkpt lat="59.279416026547551" lon="8.219184027984738">
        <ele>1015.45703125</ele>
        <time>2019-08-21T14:36:00Z</time>
      </trkpt>
      <trkpt lat="59.279408985748887" lon="8.219204982742667">
        <ele>1015.52734375</ele>
        <time>2019-08-21T14:36:01Z</time>
      </trkpt>
      <trkpt lat="59.279398005455732" lon="8.219233984127641">
        <ele>1015.63671875</ele>
        <time>2019-08-21T14:36:02Z</time>
      </trkpt>
      <trkpt lat="59.279385013505816" lon="8.219250999391079">
        <ele>1015.765625</ele>
        <time>2019-08-21T14:36:03Z</time>
      </trkpt>
      <trkpt lat="59.27937101572752" lon="8.219268014654517">
        <ele>1015.90625</ele>
        <time>2019-08-21T14:36:04Z</time>
      </trkpt>
      <trkpt lat="59.279357017949224" lon="8.219278994947672">
        <ele>1016.046875</ele>
        <time>2019-08-21T14:36:05Z</time>
      </trkpt>
      <trkpt lat="59.279346037656069" lon="8.219305984675884">
        <ele>1016.17578125</ele>
        <time>2019-08-21T14:36:06Z</time>
      </trkpt>
      <trkpt lat="59.279331034049392" lon="8.219340015202761">
        <ele>1016.3515625</ele>
        <time>2019-08-21T14:36:07Z</time>
      </trkpt>
      <trkpt lat="59.279315024614334" lon="8.219362981617451">
        <ele>1016.5390625</ele>
        <time>2019-08-21T14:36:08Z</time>
      </trkpt>
      <trkpt lat="59.279294991865754" lon="8.219393994659185">
        <ele>1016.78125</ele>
        <time>2019-08-21T14:36:09Z</time>
      </trkpt>
      <trkpt lat="59.279277976602316" lon="8.219427019357681">
        <ele>1017.00390625</ele>
        <time>2019-08-21T14:36:10Z</time>
      </trkpt>
      <trkpt lat="59.2792649846524" lon="8.219453003257513">
        <ele>1017.15625</ele>
        <time>2019-08-21T14:36:11Z</time>
      </trkpt>
      <trkpt lat="59.279255010187626" lon="8.219479992985725">
        <ele>1017.26953125</ele>
        <time>2019-08-21T14:36:12Z</time>
      </trkpt>
      <trkpt lat="59.279246041551232" lon="8.219513017684221">
        <ele>1017.3671875</ele>
        <time>2019-08-21T14:36:13Z</time>
      </trkpt>
      <trkpt lat="59.279239000752568" lon="8.219550987705588">
        <ele>1017.44140625</ele>
        <time>2019-08-21T14:36:14Z</time>
      </trkpt>
      <trkpt lat="59.279236989095807" lon="8.219591975212097">
        <ele>1017.46484375</ele>
        <time>2019-08-21T14:36:15Z</time>
      </trkpt>
      <trkpt lat="59.279231959953904" lon="8.219614019617438">
        <ele>1017.51953125</ele>
        <time>2019-08-21T14:36:16Z</time>
      </trkpt>
      <trkpt lat="59.279222991317511" lon="8.219644026830792">
        <ele>1017.6171875</ele>
        <time>2019-08-21T14:36:17Z</time>
      </trkpt>
      <trkpt lat="59.279211005195975" lon="8.219667999073863">
        <ele>1017.75</ele>
        <time>2019-08-21T14:36:18Z</time>
      </trkpt>
      <trkpt lat="59.279200024902821" lon="8.21968300268054">
        <ele>1017.87109375</ele>
        <time>2019-08-21T14:36:19Z</time>
      </trkpt>
      <trkpt lat="59.279188960790634" lon="8.219713009893894">
        <ele>1017.9921875</ele>
        <time>2019-08-21T14:36:20Z</time>
      </trkpt>
      <trkpt lat="59.279174041002989" lon="8.219738993793726">
        <ele>1018.16015625</ele>
        <time>2019-08-21T14:36:21Z</time>
      </trkpt>
      <trkpt lat="59.279164988547564" lon="8.219766989350319">
        <ele>1018.2578125</ele>
        <time>2019-08-21T14:36:22Z</time>
      </trkpt>
      <trkpt lat="59.279158031567931" lon="8.219809988513589">
        <ele>1018.32421875</ele>
        <time>2019-08-21T14:36:23Z</time>
      </trkpt>
      <trkpt lat="59.279147973284125" lon="8.219848964363337">
        <ele>1018.37109375</ele>
        <time>2019-08-21T14:36:24Z</time>
      </trkpt>
      <trkpt lat="59.279131041839719" lon="8.219885006546974">
        <ele>1018.4609375</ele>
        <time>2019-08-21T14:36:25Z</time>
      </trkpt>
      <trkpt lat="59.279114026576281" lon="8.21991702541709">
        <ele>1018.55078125</ele>
        <time>2019-08-21T14:36:26Z</time>
      </trkpt>
      <trkpt lat="59.279096005484462" lon="8.219934962689877">
        <ele>1018.6484375</ele>
        <time>2019-08-21T14:36:27Z</time>
      </trkpt>
      <trkpt lat="59.279079996049404" lon="8.219956001266837">
        <ele>1018.7421875</ele>
        <time>2019-08-21T14:36:28Z</time>
      </trkpt>
      <trkpt lat="59.279065998271108" lon="8.219976034015417">
        <ele>1018.82421875</ele>
        <time>2019-08-21T14:36:29Z</time>
      </trkpt>
      <trkpt lat="59.279059041291475" lon="8.220008974894881">
        <ele>1018.8828125</ele>
        <time>2019-08-21T14:36:30Z</time>
      </trkpt>
      <trkpt lat="59.27904998883605" lon="8.220058009028435">
        <ele>1018.9765625</ele>
        <time>2019-08-21T14:36:31Z</time>
      </trkpt>
      <trkpt lat="59.279034985229373" lon="8.220089022070169">
        <ele>1019.09765625</ele>
        <time>2019-08-21T14:36:32Z</time>
      </trkpt>
      <trkpt lat="59.279024004936218" lon="8.220121040940285">
        <ele>1019.19921875</ele>
        <time>2019-08-21T14:36:33Z</time>
      </trkpt>
      <trkpt lat="59.279012018814683" lon="8.220166973769665">
        <ele>1019.33203125</ele>
        <time>2019-08-21T14:36:34Z</time>
      </trkpt>
      <trkpt lat="59.279003972187638" lon="8.220211984589696">
        <ele>1019.44140625</ele>
        <time>2019-08-21T14:36:35Z</time>
      </trkpt>
      <trkpt lat="59.278999026864767" lon="8.220266969874501">
        <ele>1019.546875</ele>
        <time>2019-08-21T14:36:36Z</time>
      </trkpt>
      <trkpt lat="59.278987040743232" lon="8.220314998179674">
        <ele>1019.70703125</ele>
        <time>2019-08-21T14:36:37Z</time>
      </trkpt>
      <trkpt lat="59.278979999944568" lon="8.220351962372661">
        <ele>1019.81640625</ele>
        <time>2019-08-21T14:36:38Z</time>
      </trkpt>
      <trkpt lat="59.27898402325809" lon="8.220400996506214">
        <ele>1019.84765625</ele>
        <time>2019-08-21T14:36:39Z</time>
      </trkpt>
      <trkpt lat="59.278982011601329" lon="8.220437960699201">
        <ele>1019.91796875</ele>
        <time>2019-08-21T14:36:40Z</time>
      </trkpt>
      <trkpt lat="59.278978994116187" lon="8.220479032024741">
        <ele>1020.00390625</ele>
        <time>2019-08-21T14:36:41Z</time>
      </trkpt>
      <trkpt lat="59.278976982459426" lon="8.220530999824405">
        <ele>1020.09765625</ele>
        <time>2019-08-21T14:36:42Z</time>
      </trkpt>
      <trkpt lat="59.278968013823032" lon="8.220575004816055">
        <ele>1020.1875</ele>
        <time>2019-08-21T14:36:43Z</time>
      </trkpt>
      <trkpt lat="59.278958961367607" lon="8.220622027292848">
        <ele>1020.23828125</ele>
        <time>2019-08-21T14:36:44Z</time>
      </trkpt>
      <trkpt lat="59.278945969417691" lon="8.220665026456118">
        <ele>1020.328125</ele>
        <time>2019-08-21T14:36:45Z</time>
      </trkpt>
      <trkpt lat="59.278929037973285" lon="8.220711965113878">
        <ele>1020.4453125</ele>
        <time>2019-08-21T14:36:46Z</time>
      </trkpt>
      <trkpt lat="59.278921997174621" lon="8.220763010904193">
        <ele>1020.4609375</ele>
        <time>2019-08-21T14:36:47Z</time>
      </trkpt>
      <trkpt lat="59.278914034366608" lon="8.220793018117547">
        <ele>1020.50390625</ele>
        <time>2019-08-21T14:36:48Z</time>
      </trkpt>
      <trkpt lat="59.27890095859766" lon="8.220825036987662">
        <ele>1020.58984375</ele>
        <time>2019-08-21T14:36:49Z</time>
      </trkpt>
      <trkpt lat="59.278890984132886" lon="8.220858983695507">
        <ele>1020.6015625</ele>
        <time>2019-08-21T14:36:50Z</time>
      </trkpt>
      <trkpt lat="59.278880003839731" lon="8.220882033929229">
        <ele>1020.64453125</ele>
        <time>2019-08-21T14:36:51Z</time>
      </trkpt>
      <trkpt lat="59.278867011889815" lon="8.220906006172299">
        <ele>1020.67578125</ele>
        <time>2019-08-21T14:36:52Z</time>
      </trkpt>
      <trkpt lat="59.278846979141235" lon="8.220927966758609">
        <ele>1020.76171875</ele>
        <time>2019-08-21T14:36:53Z</time>
      </trkpt>
      <trkpt lat="59.278829963877797" lon="8.220947999507189">
        <ele>1020.828125</ele>
        <time>2019-08-21T14:36:54Z</time>
      </trkpt>
      <trkpt lat="59.278815966099501" lon="8.220961997285485">
        <ele>1020.890625</ele>
        <time>2019-08-21T14:36:55Z</time>
      </trkpt>
      <trkpt lat="59.278800040483475" lon="8.220982030034065">
        <ele>1020.94921875</ele>
        <time>2019-08-21T14:36:56Z</time>
      </trkpt>
      <trkpt lat="59.278787970542908" lon="8.221023017540574">
        <ele>1020.94140625</ele>
        <time>2019-08-21T14:36:57Z</time>
      </trkpt>
      <trkpt lat="59.278785036876798" lon="8.221071967855096">
        <ele>1020.8515625</ele>
        <time>2019-08-21T14:36:58Z</time>
      </trkpt>
      <trkpt lat="59.278775984421372" lon="8.221117984503508">
        <ele>1020.8046875</ele>
        <time>2019-08-21T14:36:59Z</time>
      </trkpt>
      <trkpt lat="59.278763998299837" lon="8.221168024465442">
        <ele>1020.75</ele>
        <time>2019-08-21T14:37:00Z</time>
      </trkpt>
      <trkpt lat="59.278752012178302" lon="8.221199959516525">
        <ele>1020.73828125</ele>
        <time>2019-08-21T14:37:01Z</time>
      </trkpt>
      <trkpt lat="59.278742959722877" lon="8.221232984215021">
        <ele>1020.703125</ele>
        <time>2019-08-21T14:37:02Z</time>
      </trkpt>
      <trkpt lat="59.278736002743244" lon="8.22127103805542">
        <ele>1020.640625</ele>
        <time>2019-08-21T14:37:03Z</time>
      </trkpt>
      <trkpt lat="59.278730973601341" lon="8.221297021955252">
        <ele>1020.59765625</ele>
        <time>2019-08-21T14:37:04Z</time>
      </trkpt>
      <trkpt lat="59.278727034106851" lon="8.221317976713181">
        <ele>1020.55859375</ele>
        <time>2019-08-21T14:37:05Z</time>
      </trkpt>
      <trkpt lat="59.278717981651425" lon="8.221343960613012">
        <ele>1020.5390625</ele>
        <time>2019-08-21T14:37:06Z</time>
      </trkpt>
      <trkpt lat="59.278707001358271" lon="8.221366005018354">
        <ele>1020.53515625</ele>
        <time>2019-08-21T14:37:07Z</time>
      </trkpt>
      <trkpt lat="59.278689818456769" lon="8.221525177359581">
        <ele>1020.58984375</ele>
      </trkpt>
      <trkpt lat="59.278447329998016" lon="8.221836900338531">
        <ele>1020.890625</ele>
      </trkpt>
      <trkpt lat="59.278177851811051" lon="8.22199271991849">
        <ele>1021.09765625</ele>
      </trkpt>
      <trkpt lat="59.277908289805055" lon="8.222044687718153">
        <ele>1021.7421875</ele>
      </trkpt>
      <trkpt lat="59.277611905708909" lon="8.222044687718153">
        <ele>1023.39453125</ele>
      </trkpt>
      <trkpt lat="59.277342343702912" lon="8.222044687718153">
        <ele>1025.3671875</ele>
      </trkpt>
      <trkpt lat="59.277045959606767" lon="8.222044687718153">
        <ele>1027.14453125</ele>
      </trkpt>
      <trkpt lat="59.276776481419802" lon="8.222044687718153">
        <ele>1028.171875</ele>
      </trkpt>
      <trkpt lat="59.276506919413805" lon="8.222044687718153">
        <ele>1029.09375</ele>
      </trkpt>
      <trkpt lat="59.27623744122684" lon="8.221940752118826">
        <ele>1028.51171875</ele>
      </trkpt>
      <trkpt lat="59.275940973311663" lon="8.221940752118826">
        <ele>1027.44140625</ele>
      </trkpt>
      <trkpt lat="59.275644589215517" lon="8.221940752118826">
        <ele>1027.1875</ele>
      </trkpt>
      <trkpt lat="59.275375111028552" lon="8.221940752118826">
        <ele>1026.22265625</ele>
      </trkpt>
      <trkpt lat="59.275105549022555" lon="8.22214862331748">
        <ele>1025.09375</ele>
      </trkpt>
      <trkpt lat="59.275024747475982" lon="8.22266804985702">
        <ele>1024.390625</ele>
      </trkpt>
      <trkpt lat="59.275024747475982" lon="8.223187560215592">
        <ele>1024.53515625</ele>
      </trkpt>
      <trkpt lat="59.274970851838589" lon="8.223706986755133">
        <ele>1024.4921875</ele>
      </trkpt>
      <trkpt lat="59.274970851838589" lon="8.224226497113705">
        <ele>1021.34375</ele>
      </trkpt>
      <trkpt lat="59.275078643113375" lon="8.224746007472277">
        <ele>1021.96484375</ele>
      </trkpt>
      <trkpt lat="59.275105549022555" lon="8.225265434011817">
        <ele>1022.4375</ele>
      </trkpt>
      <trkpt lat="59.275051653385162" lon="8.225784944370389">
        <ele>1019.4453125</ele>
      </trkpt>
      <trkpt lat="59.275024747475982" lon="8.226304370909929">
        <ele>1019.57421875</ele>
      </trkpt>
      <trkpt lat="59.274943862110376" lon="8.226823881268501">
        <ele>1019.96484375</ele>
      </trkpt>
      <trkpt lat="59.274755269289017" lon="8.227239456027746">
        <ele>1017.1875</ele>
      </trkpt>
      <trkpt lat="59.274620488286018" lon="8.227706998586655">
        <ele>1018.40625</ele>
      </trkpt>
      <trkpt lat="59.274512697011232" lon="8.228226425126195">
        <ele>1020.84375</ele>
      </trkpt>
      <trkpt lat="59.27429711446166" lon="8.228590115904808">
        <ele>1019.39453125</ele>
      </trkpt>
      <trkpt lat="59.274243218824267" lon="8.229109542444348">
        <ele>1019.1640625</ele>
      </trkpt>
      <trkpt lat="59.274135427549481" lon="8.22962905280292">
        <ele>1017.9140625</ele>
      </trkpt>
      <trkpt lat="59.274000646546483" lon="8.230096595361829">
        <ele>1019.6796875</ele>
      </trkpt>
      <trkpt lat="59.273731168359518" lon="8.230148563161492">
        <ele>1017.61328125</ele>
      </trkpt>
      <trkpt lat="59.273461690172553" lon="8.230356350541115">
        <ele>1017.4375</ele>
      </trkpt>
      <trkpt lat="59.273192128166556" lon="8.230356350541115">
        <ele>1017.75390625</ele>
      </trkpt>
      <trkpt lat="59.272922649979591" lon="8.230148563161492">
        <ele>1018.078125</ele>
      </trkpt>
      <trkpt lat="59.272680161520839" lon="8.229888807982206">
        <ele>1018.4609375</ele>
      </trkpt>
      <trkpt lat="59.272410599514842" lon="8.229681020602584">
        <ele>1021.8359375</ele>
      </trkpt>
      <trkpt lat="59.27219501696527" lon="8.229317329823971">
        <ele>1023.78515625</ele>
      </trkpt>
      <trkpt lat="59.271925538778305" lon="8.229161510244012">
        <ele>1025.8203125</ele>
      </trkpt>
      <trkpt lat="59.27165606059134" lon="8.229109542444348">
        <ele>1028.421875</ele>
      </trkpt>
      <trkpt lat="59.271386582404375" lon="8.229213478043675">
        <ele>1033.31640625</ele>
      </trkpt>
      <trkpt lat="59.271170916035771" lon="8.229525117203593">
        <ele>1037.078125</ele>
      </trkpt>
      <trkpt lat="59.270955333486199" lon="8.229888807982206">
        <ele>1039.87109375</ele>
      </trkpt>
      <trkpt lat="59.270820636302233" lon="8.230408234521747">
        <ele>1040.90625</ele>
      </trkpt>
      <trkpt lat="59.270685855299234" lon="8.230875777080655">
        <ele>1041.8828125</ele>
      </trkpt>
      <trkpt lat="59.270497262477875" lon="8.231343319639564">
        <ele>1045.43359375</ele>
      </trkpt>
      <trkpt lat="59.270416377112269" lon="8.231862829998136">
        <ele>1049.390625</ele>
      </trkpt>
      <trkpt lat="59.270281596109271" lon="8.232330288738012">
        <ele>1054.90625</ele>
      </trkpt>
      <trkpt lat="59.270093003287911" lon="8.232745863497257">
        <ele>1057.84375</ele>
      </trkpt>
      <trkpt lat="59.269985212013125" lon="8.233265373855829">
        <ele>1059.5390625</ele>
      </trkpt>
      <trkpt lat="59.269823525100946" lon="8.233732916414738">
        <ele>1062.12109375</ele>
      </trkpt>
      <trkpt lat="59.269742639735341" lon="8.234356278553605">
        <ele>1063.13671875</ele>
      </trkpt>
      <trkpt lat="59.269661754369736" lon="8.234875788912177">
        <ele>1062.7578125</ele>
      </trkpt>
      <trkpt lat="59.269473161548376" lon="8.235343247652054">
        <ele>1063.7421875</ele>
      </trkpt>
      <trkpt lat="59.269311474636197" lon="8.235810790210962">
        <ele>1063.515625</ele>
      </trkpt>
      <trkpt lat="59.269176693633199" lon="8.236278332769871">
        <ele>1063.03515625</ele>
      </trkpt>
      <trkpt lat="59.268961111083627" lon="8.236693907529116">
        <ele>1064.140625</ele>
      </trkpt>
      <trkpt lat="59.268691632896662" lon="8.236901694908738">
        <ele>1069.16015625</ele>
      </trkpt>
      <trkpt lat="59.268529945984483" lon="8.237317269667983">
        <ele>1072.5625</ele>
      </trkpt>
      <trkpt lat="59.26847605034709" lon="8.237836780026555">
        <ele>1073.68359375</ele>
      </trkpt>
      <trkpt lat="59.268395164981484" lon="8.238356290385127">
        <ele>1076.6015625</ele>
      </trkpt>
      <trkpt lat="59.268341269344091" lon="8.238875716924667">
        <ele>1075.94140625</ele>
      </trkpt>
      <trkpt lat="59.268206488341093" lon="8.239343259483576">
        <ele>1078.07421875</ele>
      </trkpt>
      <trkpt lat="59.267990905791521" lon="8.239706866443157">
        <ele>1079.45703125</ele>
      </trkpt>
      <trkpt lat="59.267721427604556" lon="8.23991465382278">
        <ele>1079.97265625</ele>
      </trkpt>
      <trkpt lat="59.267478855326772" lon="8.240174409002066">
        <ele>1075.80859375</ele>
      </trkpt>
      <trkpt lat="59.267209377139807" lon="8.240382196381688">
        <ele>1066.984375</ele>
      </trkpt>
      <trkpt lat="59.266939898952842" lon="8.240693919360638">
        <ele>1060.6015625</ele>
      </trkpt>
      <trkpt lat="59.266697326675057" lon="8.241005558520556">
        <ele>1054.10546875</ele>
      </trkpt>
      <trkpt lat="59.266481744125485" lon="8.241369249299169">
        <ele>1047.66015625</ele>
      </trkpt>
      <trkpt lat="59.266266161575913" lon="8.24173285625875">
        <ele>1042.9609375</ele>
      </trkpt>
      <trkpt lat="59.266077484935522" lon="8.242304250597954">
        <ele>1040.60546875</ele>
      </trkpt>
      <trkpt lat="59.265888892114162" lon="8.242719825357199">
        <ele>1039.484375</ele>
      </trkpt>
      <trkpt lat="59.26567330956459" lon="8.243031548336148">
        <ele>1039.875</ele>
      </trkpt>
      <trkpt lat="59.265457643195987" lon="8.243343187496066">
        <ele>1042.56640625</ele>
      </trkpt>
      <trkpt lat="59.265188165009022" lon="8.243654910475016">
        <ele>1049.42578125</ele>
      </trkpt>
      <trkpt lat="59.26497258245945" lon="8.244018517434597">
        <ele>1057.23046875</ele>
      </trkpt>
      <trkpt lat="59.264810895547271" lon="8.244434092193842">
        <ele>1062.79296875</ele>
      </trkpt>
      <trkpt lat="59.264622218906879" lon="8.244849666953087">
        <ele>1069.01171875</ele>
      </trkpt>
      <trkpt lat="59.264406636357307" lon="8.2452133577317">
        <ele>1074.5546875</ele>
      </trkpt>
      <trkpt lat="59.264217959716916" lon="8.24573278427124">
        <ele>1080.72265625</ele>
      </trkpt>
      <trkpt lat="59.264137158170342" lon="8.246304262429476">
        <ele>1084.02734375</ele>
      </trkpt>
      <trkpt lat="59.264029366895556" lon="8.246823688969016">
        <ele>1092.625</ele>
      </trkpt>
      <trkpt lat="59.263975471258163" lon="8.247343199327588">
        <ele>1098.56640625</ele>
      </trkpt>
      <trkpt lat="59.26392157562077" lon="8.24786270968616">
        <ele>1105.83203125</ele>
      </trkpt>
      <trkpt lat="59.263705993071198" lon="8.248330168426037">
        <ele>1120.2578125</ele>
      </trkpt>
      <trkpt lat="59.263490326702595" lon="8.248745743185282">
        <ele>1128.37890625</ele>
      </trkpt>
      <trkpt lat="59.26322084851563" lon="8.248849678784609">
        <ele>1134.9296875</ele>
      </trkpt>
      <trkpt lat="59.262978360056877" lon="8.248589923605323">
        <ele>1138.58203125</ele>
      </trkpt>
      <trkpt lat="59.262816589325666" lon="8.248122381046414">
        <ele>1141.83203125</ele>
      </trkpt>
      <trkpt lat="59.262601006776094" lon="8.247758774086833">
        <ele>1151.73046875</ele>
      </trkpt>
      <trkpt lat="59.262466309592128" lon="8.247291231527925">
        <ele>1153.4609375</ele>
      </trkpt>
      <trkpt lat="59.262493215501308" lon="8.247810741886497">
        <ele>1153.84765625</ele>
      </trkpt>
      <trkpt lat="59.262466309592128" lon="8.248330168426037">
        <ele>1144.5859375</ele>
      </trkpt>
      <trkpt lat="59.262439319863915" lon="8.248849678784609">
        <ele>1141.84375</ele>
      </trkpt>
      <trkpt lat="59.262493215501308" lon="8.249369189143181">
        <ele>1141.37890625</ele>
      </trkpt>
      <trkpt lat="59.262601006776094" lon="8.249888615682721">
        <ele>1141.46875</ele>
      </trkpt>
      <trkpt lat="59.26270879805088" lon="8.250408126041293">
        <ele>1139.92578125</ele>
      </trkpt>
      <trkpt lat="59.262843579053879" lon="8.250875668600202">
        <ele>1136.88671875</ele>
      </trkpt>
      <trkpt lat="59.262897474691272" lon="8.251395095139742">
        <ele>1132.7109375</ele>
      </trkpt>
      <trkpt lat="59.262951370328665" lon="8.251914605498314">
        <ele>1129.015625</ele>
      </trkpt>
      <trkpt lat="59.26303225569427" lon="8.252434032037854">
        <ele>1129.64453125</ele>
      </trkpt>
      <trkpt lat="59.263086151331663" lon="8.252953542396426">
        <ele>1132.93359375</ele>
      </trkpt>
      <trkpt lat="59.263166952878237" lon="8.25352493673563">
        <ele>1134.0234375</ele>
      </trkpt>
      <trkpt lat="59.263328639790416" lon="8.253940511494875">
        <ele>1133.1015625</ele>
      </trkpt>
      <trkpt lat="59.263598201796412" lon="8.253680840134621">
        <ele>1125.296875</ele>
      </trkpt>
      <trkpt lat="59.263679003342986" lon="8.253161329776049">
        <ele>1124.21875</ele>
      </trkpt>
      <trkpt lat="59.263759888708591" lon="8.252641819417477">
        <ele>1121.14453125</ele>
      </trkpt>
      <trkpt lat="59.263867679983377" lon="8.252122392877936">
        <ele>1116.42578125</ele>
      </trkpt>
      <trkpt lat="59.263867679983377" lon="8.251602882519364">
        <ele>1116.6953125</ele>
      </trkpt>
      <trkpt lat="59.263975471258163" lon="8.251083455979824">
        <ele>1112.234375</ele>
      </trkpt>
      <trkpt lat="59.264083262532949" lon="8.250511977821589">
        <ele>1106.72265625</ele>
      </trkpt>
      <trkpt lat="59.264191053807735" lon="8.249992551282048">
        <ele>1103.0078125</ele>
      </trkpt>
      <trkpt lat="59.264325834810734" lon="8.24952500872314">
        <ele>1097.015625</ele>
      </trkpt>
      <trkpt lat="59.264568323269486" lon="8.249265253543854">
        <ele>1084.14453125</ele>
      </trkpt>
      <trkpt lat="59.264703104272485" lon="8.248797710984945">
        <ele>1079.9375</ele>
      </trkpt>
      <trkpt lat="59.264864791184664" lon="8.248330168426037">
        <ele>1075.9453125</ele>
      </trkpt>
      <trkpt lat="59.265080373734236" lon="8.247914593666792">
        <ele>1067.49609375</ele>
      </trkpt>
      <trkpt lat="59.265349851921201" lon="8.247758774086833">
        <ele>1060.37109375</ele>
      </trkpt>
      <trkpt lat="59.265619330108166" lon="8.247758774086833">
        <ele>1054.87890625</ele>
      </trkpt>
      <trkpt lat="59.26586190238595" lon="8.248018529266119">
        <ele>1050.5078125</ele>
      </trkpt>
      <trkpt lat="59.266131380572915" lon="8.248018529266119">
        <ele>1041.60546875</ele>
      </trkpt>
      <trkpt lat="59.266293067485094" lon="8.247550986707211">
        <ele>1035.96484375</ele>
      </trkpt>
      <trkpt lat="59.266427848488092" lon="8.247083444148302">
        <ele>1032.08203125</ele>
      </trkpt>
      <trkpt lat="59.266670420765877" lon="8.246823688969016">
        <ele>1027.203125</ele>
      </trkpt>
      <trkpt lat="59.266966804862022" lon="8.246823688969016">
        <ele>1022.16796875</ele>
      </trkpt>
      <trkpt lat="59.267182471230626" lon="8.247135411947966">
        <ele>1018.3515625</ele>
      </trkpt>
      <trkpt lat="59.2672632727772" lon="8.247654838487506">
        <ele>1011.015625</ele>
      </trkpt>
      <trkpt lat="59.2672632727772" lon="8.248174348846078">
        <ele>1004.62109375</ele>
      </trkpt>
      <trkpt lat="59.267290262505412" lon="8.24869385920465">
        <ele>998.97265625</ele>
      </trkpt>
      <trkpt lat="59.267290262505412" lon="8.249265253543854">
        <ele>992.98828125</ele>
      </trkpt>
      <trkpt lat="59.267398053780198" lon="8.249784763902426">
        <ele>984.20703125</ele>
      </trkpt>
      <trkpt lat="59.267667531967163" lon="8.249940583482385">
        <ele>972.85546875</ele>
      </trkpt>
      <trkpt lat="59.267937010154128" lon="8.25004443526268">
        <ele>963.60546875</ele>
      </trkpt>
      <trkpt lat="59.268206488341093" lon="8.250200338661671">
        <ele>954.5859375</ele>
      </trkpt>
      <trkpt lat="59.268422154709697" lon="8.250615913420916">
        <ele>941.49609375</ele>
      </trkpt>
      <trkpt lat="59.268691632896662" lon="8.250771733000875">
        <ele>930.13671875</ele>
      </trkpt>
      <trkpt lat="59.268934121355414" lon="8.251031488180161">
        <ele>922.90234375</ele>
      </trkpt>
      <trkpt lat="59.269203683361411" lon="8.251291243359447">
        <ele>916.69921875</ele>
      </trkpt>
      <trkpt lat="59.269473161548376" lon="8.251447062939405">
        <ele>909.7109375</ele>
      </trkpt>
      <trkpt lat="59.269715650007129" lon="8.251706818118691">
        <ele>898.8515625</ele>
      </trkpt>
      <trkpt lat="59.269850431010127" lon="8.2521743606776">
        <ele>889.6796875</ele>
      </trkpt>
      <trkpt lat="59.269985212013125" lon="8.252641819417477">
        <ele>881.015625</ele>
      </trkpt>
      <trkpt lat="59.270119909197092" lon="8.253109361976385">
        <ele>874.9921875</ele>
      </trkpt>
      <trkpt lat="59.270173804834485" lon="8.253628872334957">
        <ele>869.5703125</ele>
      </trkpt>
      <trkpt lat="59.270281596109271" lon="8.254148298874497">
        <ele>864.265625</ele>
      </trkpt>
      <trkpt lat="59.270578064024448" lon="8.254408054053783">
        <ele>860.40234375</ele>
      </trkpt>
      <trkpt lat="59.27079364657402" lon="8.254719777032733">
        <ele>859.28515625</ele>
      </trkpt>
      <trkpt lat="59.271090114489198" lon="8.254979532212019">
        <ele>857.14453125</ele>
      </trkpt>
      <trkpt lat="59.271359592676163" lon="8.255187319591641">
        <ele>855.45703125</ele>
      </trkpt>
      <trkpt lat="59.271521279588342" lon="8.255654778331518">
        <ele>854.1171875</ele>
      </trkpt>
      <trkpt lat="59.271682966500521" lon="8.256070436909795">
        <ele>853.953125</ele>
      </trkpt>
      <trkpt lat="59.271979434415698" lon="8.256070436909795">
        <ele>852.69140625</ele>
      </trkpt>
      <trkpt lat="59.272248912602663" lon="8.256330108270049">
        <ele>852.63671875</ele>
      </trkpt>
      <trkpt lat="59.272518390789628" lon="8.256434043869376">
        <ele>852.31640625</ele>
      </trkpt>
      <trkpt lat="59.272787952795625" lon="8.256382076069713">
        <ele>852.02734375</ele>
      </trkpt>
      <trkpt lat="59.27305743098259" lon="8.256589863449335">
        <ele>853.18359375</ele>
      </trkpt>
      <trkpt lat="59.273326909169555" lon="8.256382076069713">
        <ele>852.6328125</ele>
      </trkpt>
      <trkpt lat="59.27359638735652" lon="8.256226256489754">
        <ele>854.1796875</ele>
      </trkpt>
      <trkpt lat="59.273865865543485" lon="8.256018469110131">
        <ele>854.6015625</ele>
      </trkpt>
      <trkpt lat="59.274081531912088" lon="8.255654778331518">
        <ele>854.23046875</ele>
      </trkpt>
      <trkpt lat="59.274324020370841" lon="8.2553431391716">
        <ele>853.51953125</ele>
      </trkpt>
      <trkpt lat="59.274539602920413" lon="8.254979532212019">
        <ele>853.43359375</ele>
      </trkpt>
      <trkpt lat="59.274782175198197" lon="8.254719777032733">
        <ele>855.44921875</ele>
      </trkpt>
      <trkpt lat="59.274970851838589" lon="8.254304202273488">
        <ele>856.62890625</ele>
      </trkpt>
      <trkpt lat="59.274889966472983" lon="8.253784691914916">
        <ele>854.0546875</ele>
      </trkpt>
      <trkpt lat="59.274970851838589" lon="8.253265265375376">
        <ele>851.8984375</ele>
      </trkpt>
      <trkpt lat="59.275240330025554" lon="8.253057394176722">
        <ele>851.9296875</ele>
      </trkpt>
      <trkpt lat="59.275536797940731" lon="8.252953542396426">
        <ele>851.8984375</ele>
      </trkpt>
      <trkpt lat="59.275779286399484" lon="8.25269378721714">
        <ele>853.9609375</ele>
      </trkpt>
      <trkpt lat="59.275994868949056" lon="8.252278212457895">
        <ele>853.203125</ele>
      </trkpt>
      <trkpt lat="59.27623744122684" lon="8.251966573297977">
        <ele>854.0546875</ele>
      </trkpt>
      <trkpt lat="59.276453023776412" lon="8.251654850319028">
        <ele>854.2109375</ele>
      </trkpt>
      <trkpt lat="59.276641700416803" lon="8.251239275559783">
        <ele>855.32421875</ele>
      </trkpt>
      <trkpt lat="59.276857282966375" lon="8.250823700800538">
        <ele>857.2109375</ele>
      </trkpt>
      <trkpt lat="59.27712676115334" lon="8.250615913420916">
        <ele>859.375</ele>
      </trkpt>
      <trkpt lat="59.277369333431125" lon="8.25035615824163">
        <ele>859.94140625</ele>
      </trkpt>
      <trkpt lat="59.277611905708909" lon="8.250096403062344">
        <ele>859.296875</ele>
      </trkpt>
      <trkpt lat="59.277881383895874" lon="8.249888615682721">
        <ele>858.70703125</ele>
      </trkpt>
      <trkpt lat="59.278150862082839" lon="8.249732796102762">
        <ele>858.1171875</ele>
      </trkpt>
      <trkpt lat="59.278420340269804" lon="8.249576976522803">
        <ele>857.22265625</ele>
      </trkpt>
      <trkpt lat="59.278582027181983" lon="8.249161401763558">
        <ele>854.71484375</ele>
      </trkpt>
      <trkpt lat="59.27885158918798" lon="8.248953530564904">
        <ele>854.5</ele>
      </trkpt>
      <trkpt lat="59.279067171737552" lon="8.249369189143181">
        <ele>854.89453125</ele>
      </trkpt>
      <trkpt lat="59.279282754287124" lon="8.249836647883058">
        <ele>855.10546875</ele>
      </trkpt>
      <trkpt lat="59.279471430927515" lon="8.250252222642303">
        <ele>856.6328125</ele>
      </trkpt>
      <trkpt lat="59.27974090911448" lon="8.250304190441966">
        <ele>855.796875</ele>
      </trkpt>
      <trkpt lat="59.280037293210626" lon="8.250460010021925">
        <ele>856.4140625</ele>
      </trkpt>
      <trkpt lat="59.280306855216622" lon="8.250615913420916">
        <ele>858.27734375</ele>
      </trkpt>
      <trkpt lat="59.280576333403587" lon="8.250771733000875">
        <ele>859.88671875</ele>
      </trkpt>
      <trkpt lat="59.280872801318765" lon="8.250823700800538">
        <ele>858.41015625</ele>
      </trkpt>
      <trkpt lat="59.28116918541491" lon="8.250927552580833">
        <ele>858.03515625</ele>
      </trkpt>
      <trkpt lat="59.281438663601875" lon="8.251031488180161">
        <ele>858.47265625</ele>
      </trkpt>
      <trkpt lat="59.281708225607872" lon="8.251135339960456">
        <ele>858.6953125</ele>
      </trkpt>
      <trkpt lat="59.28203159943223" lon="8.251135339960456">
        <ele>858.90625</ele>
      </trkpt>
      <trkpt lat="59.282328067347407" lon="8.251135339960456">
        <ele>859.0546875</ele>
      </trkpt>
      <trkpt lat="59.282624451443553" lon="8.251135339960456">
        <ele>858.5234375</ele>
      </trkpt>
      <trkpt lat="59.282703995704651" lon="8.25105587951839">
        <ele>857.9375</ele>
      </trkpt>
      <trkpt lat="59.283000463619828" lon="8.250951943919063">
        <ele>857.94921875</ele>
      </trkpt>
      <trkpt lat="59.283269941806793" lon="8.250951943919063">
        <ele>857.9609375</ele>
      </trkpt>
      <trkpt lat="59.283539419993758" lon="8.250900059938431">
        <ele>857.7578125</ele>
      </trkpt>
      <trkpt lat="59.283808981999755" lon="8.250848092138767">
        <ele>857.34375</ele>
      </trkpt>
      <trkpt lat="59.284105366095901" lon="8.250796124339104">
        <ele>856.71875</ele>
      </trkpt>
      <trkpt lat="59.284374928101897" lon="8.25074415653944">
        <ele>857.58203125</ele>
      </trkpt>
      <trkpt lat="59.284644406288862" lon="8.250692272558808">
        <ele>858.5703125</ele>
      </trkpt>
      <trkpt lat="59.284913884475827" lon="8.250640304759145">
        <ele>859.984375</ele>
      </trkpt>
      <trkpt lat="59.285183362662792" lon="8.250536369159818">
        <ele>862.3046875</ele>
      </trkpt>
      <trkpt lat="59.285452840849757" lon="8.250328581780195">
        <ele>862.23828125</ele>
      </trkpt>
      <trkpt lat="59.285668423399329" lon="8.249964974820614">
        <ele>859.78125</ele>
      </trkpt>
      <trkpt lat="59.285910995677114" lon="8.249653251841664">
        <ele>858.25390625</ele>
      </trkpt>
      <trkpt lat="59.286126578226686" lon="8.249289644882083">
        <ele>857.328125</ele>
      </trkpt>
      <trkpt lat="59.286288265138865" lon="8.248874070122838">
        <ele>858.32421875</ele>
      </trkpt>
      <trkpt lat="59.286450035870075" lon="8.24840652756393">
        <ele>858.27734375</ele>
      </trkpt>
      <trkpt lat="59.286638628691435" lon="8.247990952804685">
        <ele>857.9609375</ele>
      </trkpt>
      <trkpt lat="59.286854211241007" lon="8.247627345845103">
        <ele>859.38671875</ele>
      </trkpt>
      <trkpt lat="59.286962002515793" lon="8.247107835486531">
        <ele>857.48046875</ele>
      </trkpt>
      <trkpt lat="59.287123773247004" lon="8.246692260727286">
        <ele>860.5625</ele>
      </trkpt>
      <trkpt lat="59.287285460159183" lon="8.246224718168378">
        <ele>861.87890625</ele>
      </trkpt>
      <trkpt lat="59.287420157343149" lon="8.245653323829174">
        <ele>861.05859375</ele>
      </trkpt>
      <trkpt lat="59.287501042708755" lon="8.245133813470602">
        <ele>861.16796875</ele>
      </trkpt>
      <trkpt lat="59.287635739892721" lon="8.244666270911694">
        <ele>862.28125</ele>
      </trkpt>
      <trkpt lat="59.28777052089572" lon="8.244198812171817">
        <ele>864.75</ele>
      </trkpt>
      <trkpt lat="59.287932207807899" lon="8.243783237412572">
        <ele>866.79296875</ele>
      </trkpt>
      <trkpt lat="59.288066988810897" lon="8.243315694853663">
        <ele>867.51953125</ele>
      </trkpt>
      <trkpt lat="59.288174780085683" lon="8.242796184495091">
        <ele>871.0390625</ele>
      </trkpt>
      <trkpt lat="59.288282571360469" lon="8.242276757955551">
        <ele>871.10546875</ele>
      </trkpt>
      <trkpt lat="59.288525143638253" lon="8.242017002776265">
        <ele>875.34375</ele>
      </trkpt>
      <trkpt lat="59.288767632097006" lon="8.241757247596979">
        <ele>880.43359375</ele>
      </trkpt>
      <trkpt lat="59.289037110283971" lon="8.241549460217357">
        <ele>885.8203125</ele>
      </trkpt>
      <trkpt lat="59.289279682561755" lon="8.241289705038071">
        <ele>889.875</ele>
      </trkpt>
      <trkpt lat="59.289495265111327" lon="8.240874130278826">
        <ele>893.9375</ele>
      </trkpt>
      <trkpt lat="59.289656952023506" lon="8.240458555519581">
        <ele>894.18359375</ele>
      </trkpt>
      <trkpt lat="59.289764743298292" lon="8.239939045161009">
        <ele>892.890625</ele>
      </trkpt>
      <trkpt lat="59.28987261839211" lon="8.239419618621469">
        <ele>892.3125</ele>
      </trkpt>
      <trkpt lat="59.289926514029503" lon="8.238900108262897">
        <ele>892</ele>
      </trkpt>
      <trkpt lat="59.290088200941682" lon="8.238328713923693">
        <ele>894.578125</ele>
      </trkpt>
      <trkpt lat="59.290249887853861" lon="8.237861171364784">
        <ele>897.171875</ele>
      </trkpt>
      <trkpt lat="59.290384585037827" lon="8.237393628805876">
        <ele>899.7578125</ele>
      </trkpt>
      <trkpt lat="59.290546271950006" lon="8.236874202266336">
        <ele>901.87890625</ele>
      </trkpt>
      <trkpt lat="59.290681052953005" lon="8.236406659707427">
        <ele>903.63671875</ele>
      </trkpt>
      <trkpt lat="59.290842739865184" lon="8.235939117148519">
        <ele>903.91796875</ele>
      </trkpt>
      <trkpt lat="59.290977520868182" lon="8.23547157458961">
        <ele>903.2265625</ele>
      </trkpt>
      <trkpt lat="59.291139207780361" lon="8.235004032030702">
        <ele>902.4375</ele>
      </trkpt>
      <trkpt lat="59.291327884420753" lon="8.234588457271457">
        <ele>901.5078125</ele>
      </trkpt>
      <trkpt lat="59.291570372879505" lon="8.234276818111539">
        <ele>901.609375</ele>
      </trkpt>
      <trkpt lat="59.291785955429077" lon="8.233913127332926">
        <ele>901.51171875</ele>
      </trkpt>
      <trkpt lat="59.291947726160288" lon="8.233445584774017">
        <ele>901.125</ele>
      </trkpt>
      <trkpt lat="59.292136318981647" lon="8.233030010014772">
        <ele>900.80859375</ele>
      </trkpt>
      <trkpt lat="59.292351901531219" lon="8.232666403055191">
        <ele>899.66015625</ele>
      </trkpt>
      <trkpt lat="59.292567484080791" lon="8.23230279609561">
        <ele>896.5390625</ele>
      </trkpt>
      <trkpt lat="59.292783150449395" lon="8.231939105316997">
        <ele>892.88671875</ele>
      </trkpt>
      <trkpt lat="59.29305262863636" lon="8.231679433956742">
        <ele>888.4296875</ele>
      </trkpt>
      <trkpt lat="59.293295117095113" lon="8.231315743178129">
        <ele>883.16015625</ele>
      </trkpt>
      <trkpt lat="59.293510783463717" lon="8.230900168418884">
        <ele>879.65234375</ele>
      </trkpt>
      <trkpt lat="59.293699376285076" lon="8.230432625859976">
        <ele>877.71484375</ele>
      </trkpt>
      <trkpt lat="59.293807167559862" lon="8.229913199320436">
        <ele>875.51953125</ele>
      </trkpt>
      <trkpt lat="59.29394194856286" lon="8.229445656761527">
        <ele>869.3671875</ele>
      </trkpt>
      <trkpt lat="59.294049739837646" lon="8.228926146402955">
        <ele>863.5</ele>
      </trkpt>
      <trkpt lat="59.294157531112432" lon="8.228302784264088">
        <ele>859.84375</ele>
      </trkpt>
      <trkpt lat="59.294238416478038" lon="8.227783357724547">
        <ele>854.30078125</ele>
      </trkpt>
      <trkpt lat="59.294319218024611" lon="8.227263847365975">
        <ele>847.046875</ele>
      </trkpt>
      <trkpt lat="59.294400103390217" lon="8.226744337007403">
        <ele>843.89453125</ele>
      </trkpt>
      <trkpt lat="59.294507894665003" lon="8.226224910467863">
        <ele>837.234375</ele>
      </trkpt>
      <trkpt lat="59.294723477214575" lon="8.225705400109291">
        <ele>830.9375</ele>
      </trkpt>
      <trkpt lat="59.294777372851968" lon="8.225185973569751">
        <ele>826.0078125</ele>
      </trkpt>
      <trkpt lat="59.294858258217573" lon="8.224614495411515">
        <ele>821.09375</ele>
      </trkpt>
      <trkpt lat="59.294939059764147" lon="8.224043101072311">
        <ele>814.171875</ele>
      </trkpt>
      <trkpt lat="59.295154642313719" lon="8.223731378093362">
        <ele>805.24609375</ele>
      </trkpt>
      <trkpt lat="59.295370224863291" lon="8.223419738933444">
        <ele>798.71484375</ele>
      </trkpt>
      <trkpt lat="59.295451110228896" lon="8.222900228574872">
        <ele>794.5859375</ele>
      </trkpt>
      <trkpt lat="59.295451110228896" lon="8.222328834235668">
        <ele>793.23046875</ele>
      </trkpt>
      <trkpt lat="59.295666692778468" lon="8.221965227276087">
        <ele>787.703125</ele>
      </trkpt>
      <trkpt lat="59.295828379690647" lon="8.22154956869781">
        <ele>783.68359375</ele>
      </trkpt>
      <trkpt lat="59.296070951968431" lon="8.221237929537892">
        <ele>779.07421875</ele>
      </trkpt>
      <trkpt lat="59.296178743243217" lon="8.22071841917932">
        <ele>778.83203125</ele>
      </trkpt>
      <trkpt lat="59.296286534518003" lon="8.22019899263978">
        <ele>776.22265625</ele>
      </trkpt>
      <trkpt lat="59.296340430155396" lon="8.219679482281208">
        <ele>773.3203125</ele>
      </trkpt>
      <trkpt lat="59.296609908342361" lon="8.219523662701249">
        <ele>768.38671875</ele>
      </trkpt>
      <trkpt lat="59.296771679073572" lon="8.219004152342677">
        <ele>764.23828125</ele>
      </trkpt>
      <trkpt lat="59.296798668801785" lon="8.218978168442845">
        <ele>763.69921875</ele>
      </trkpt>
      <trkpt lat="59.296919871121645" lon="8.218822348862886">
        <ele>761.125</ele>
      </trkpt>
      <trkpt lat="59.297054652124643" lon="8.218718413263559">
        <ele>760.66796875</ele>
      </trkpt>
      <trkpt lat="59.297189433127642" lon="8.218640545383096">
        <ele>760.265625</ele>
      </trkpt>
      <trkpt lat="59.297324130311608" lon="8.218588577583432">
        <ele>759.92578125</ele>
      </trkpt>
      <trkpt lat="59.297458911314607" lon="8.218614561483264">
        <ele>759.609375</ele>
      </trkpt>
      <trkpt lat="59.297593608498573" lon="8.218666529282928">
        <ele>758.8515625</ele>
      </trkpt>
      <trkpt lat="59.297728389501572" lon="8.218666529282928">
        <ele>757.9296875</ele>
      </trkpt>
      <trkpt lat="59.29786317050457" lon="8.218640545383096">
        <ele>756.3515625</ele>
      </trkpt>
      <trkpt lat="59.297997867688537" lon="8.218536609783769">
        <ele>754.57421875</ele>
      </trkpt>
      <trkpt lat="59.298146059736609" lon="8.218432758003473">
        <ele>752.3828125</ele>
      </trkpt>
      <trkpt lat="59.298294335603714" lon="8.218276854604483">
        <ele>750.1015625</ele>
      </trkpt>
      <trkpt lat="59.298415621742606" lon="8.218121035024524">
        <ele>748.68359375</ele>
      </trkpt>
      <trkpt lat="59.298536907881498" lon="8.217991199344397">
        <ele>747.3515625</ele>
      </trkpt>
      <trkpt lat="59.298658110201359" lon="8.217861279845238">
        <ele>746.16796875</ele>
      </trkpt>
      <trkpt lat="59.298792891204357" lon="8.217731444165111">
        <ele>744.7265625</ele>
      </trkpt>
      <trkpt lat="59.298927672207355" lon="8.217601524665952">
        <ele>742.66796875</ele>
      </trkpt>
      <trkpt lat="59.299075864255428" lon="8.217497672885656">
        <ele>741.5078125</ele>
      </trkpt>
      <trkpt lat="59.29919715039432" lon="8.217367837205529">
        <ele>741.09765625</ele>
      </trkpt>
      <trkpt lat="59.299318436533213" lon="8.217211933806539">
        <ele>740.6953125</ele>
      </trkpt>
      <trkpt lat="59.299453133717179" lon="8.217082098126411">
        <ele>740.28125</ele>
      </trkpt>
      <trkpt lat="59.299560924991965" lon="8.216926278546453">
        <ele>740.046875</ele>
      </trkpt>
      <trkpt lat="59.299655305221677" lon="8.21671849116683">
        <ele>739.83984375</ele>
      </trkpt>
      <trkpt lat="59.299776507541537" lon="8.216588571667671">
        <ele>739.4921875</ele>
      </trkpt>
      <trkpt lat="59.299911288544536" lon="8.216536603868008">
        <ele>739.046875</ele>
      </trkpt>
      <trkpt lat="59.300046069547534" lon="8.216536603868008">
        <ele>738.41796875</ele>
      </trkpt>
      <trkpt lat="59.300167271867394" lon="8.216666523367167">
        <ele>737.60546875</ele>
      </trkpt>
      <trkpt lat="59.300302052870393" lon="8.216666523367167">
        <ele>736.625</ele>
      </trkpt>
      <trkpt lat="59.300436833873391" lon="8.216692507266998">
        <ele>735.52734375</ele>
      </trkpt>
      <trkpt lat="59.300571531057358" lon="8.216666523367167">
        <ele>734.21484375</ele>
      </trkpt>
      <trkpt lat="59.300679322332144" lon="8.216484719887376">
        <ele>733.31640625</ele>
      </trkpt>
      <trkpt lat="59.30078711360693" lon="8.216328816488385">
        <ele>732.125</ele>
      </trkpt>
      <trkpt lat="59.300894904881716" lon="8.216172996908426">
        <ele>730.37109375</ele>
      </trkpt>
      <trkpt lat="59.301016191020608" lon="8.216043161228299">
        <ele>728.23828125</ele>
      </trkpt>
      <trkpt lat="59.301123982295394" lon="8.215861357748509">
        <ele>726.484375</ele>
      </trkpt>
      <trkpt lat="59.301204867660999" lon="8.215653570368886">
        <ele>726.26953125</ele>
      </trkpt>
      <trkpt lat="59.301312658935785" lon="8.215497666969895">
        <ele>725.65234375</ele>
      </trkpt>
      <trkpt lat="59.301433945074677" lon="8.215367831289768">
        <ele>724.4140625</ele>
      </trkpt>
      <trkpt lat="59.301568642258644" lon="8.215263895690441">
        <ele>722.65625</ele>
      </trkpt>
      <trkpt lat="59.301703423261642" lon="8.215160043910146">
        <ele>720.6953125</ele>
      </trkpt>
      <trkpt lat="59.301851615309715" lon="8.215056108310819">
        <ele>718.1796875</ele>
      </trkpt>
      <trkpt lat="59.302053786814213" lon="8.21490028873086">
        <ele>713.7265625</ele>
      </trkpt>
      <trkpt lat="59.302309770137072" lon="8.214744469150901">
        <ele>708.6171875</ele>
      </trkpt>
      <trkpt lat="59.30244455114007" lon="8.214666517451406">
        <ele>706.8515625</ele>
      </trkpt>
      <trkpt lat="59.302579248324037" lon="8.214536681771278">
        <ele>705.83984375</ele>
      </trkpt>
      <trkpt lat="59.302781419828534" lon="8.214354878291488">
        <ele>704.63671875</ele>
      </trkpt>
      <trkpt lat="59.302970012649894" lon="8.214121107012034">
        <ele>703.80859375</ele>
      </trkpt>
      <trkpt lat="59.303131783381104" lon="8.213835367932916">
        <ele>703.8359375</ele>
      </trkpt>
      <trkpt lat="59.303252985700965" lon="8.21357561275363">
        <ele>703.5859375</ele>
      </trkpt>
      <trkpt lat="59.30364366620779" lon="8.213601093739271">
        <ele>697.63671875</ele>
      </trkpt>
      <trkpt lat="59.303791858255863" lon="8.213523142039776">
        <ele>695.18359375</ele>
      </trkpt>
      <trkpt lat="59.303940134122968" lon="8.213445190340281">
        <ele>693.21875</ele>
      </trkpt>
      <trkpt lat="59.304088326171041" lon="8.213445190340281">
        <ele>691.51171875</ele>
      </trkpt>
      <trkpt lat="59.304223107174039" lon="8.213497158139944">
        <ele>690.0390625</ele>
      </trkpt>
      <trkpt lat="59.304357804358006" lon="8.213549125939608">
        <ele>688.375</ele>
      </trkpt>
      <trkpt lat="59.304492585361004" lon="8.213575109839439">
        <ele>686.41796875</ele>
      </trkpt>
      <trkpt lat="59.304640777409077" lon="8.213678961619735">
        <ele>683.9765625</ele>
      </trkpt>
      <trkpt lat="59.304775558412075" lon="8.213782897219062">
        <ele>682.29296875</ele>
      </trkpt>
      <trkpt lat="59.304869854822755" lon="8.213990684598684">
        <ele>681.59375</ele>
      </trkpt>
      <trkpt lat="59.305004635825753" lon="8.21409453637898">
        <ele>680.7109375</ele>
      </trkpt>
      <trkpt lat="59.30513933300972" lon="8.214146504178643">
        <ele>680.53125</ele>
      </trkpt>
      <trkpt lat="59.305274114012718" lon="8.214172488078475">
        <ele>680.26953125</ele>
      </trkpt>
      <trkpt lat="59.305422306060791" lon="8.214172488078475">
        <ele>679.953125</ele>
      </trkpt>
      <trkpt lat="59.305557087063789" lon="8.21409453637898">
        <ele>679.58203125</ele>
      </trkpt>
      <trkpt lat="59.305651383474469" lon="8.213860765099526">
        <ele>679.109375</ele>
      </trkpt>
      <trkpt lat="59.305732268840075" lon="8.213626993820071">
        <ele>678.8671875</ele>
      </trkpt>
      <trkpt lat="59.305866966024041" lon="8.213523142039776">
        <ele>678.01171875</ele>
      </trkpt>
      <trkpt lat="59.30600174702704" lon="8.213497158139944">
        <ele>676.55859375</ele>
      </trkpt>
      <trkpt lat="59.306149939075112" lon="8.213497158139944">
        <ele>675.16796875</ele>
      </trkpt>
      <trkpt lat="59.306284720078111" lon="8.213393306359649">
        <ele>673.6484375</ele>
      </trkpt>
      <trkpt lat="59.306406006217003" lon="8.21326338686049">
        <ele>672.0234375</ele>
      </trkpt>
      <trkpt lat="59.306527292355895" lon="8.213133551180363">
        <ele>670.2734375</ele>
      </trkpt>
      <trkpt lat="59.306661989539862" lon="8.213029615581036">
        <ele>668.44921875</ele>
      </trkpt>
      <trkpt lat="59.306783275678754" lon="8.212873796001077">
        <ele>666.6640625</ele>
      </trkpt>
      <trkpt lat="59.306918056681752" lon="8.212795844301581">
        <ele>665.19921875</ele>
      </trkpt>
      <trkpt lat="59.307039342820644" lon="8.212640024721623">
        <ele>664.77734375</ele>
      </trkpt>
      <trkpt lat="59.30714713409543" lon="8.212406253442168">
        <ele>664.84765625</ele>
      </trkpt>
      <trkpt lat="59.307214440777898" lon="8.212172482162714">
        <ele>665.578125</ele>
      </trkpt>
      <trkpt lat="59.307322232052684" lon="8.212016662582755">
        <ele>666.8046875</ele>
      </trkpt>
      <trkpt lat="59.307403117418289" lon="8.211782891303301">
        <ele>666.75</ele>
      </trkpt>
      <trkpt lat="59.307416612282395" lon="8.211471168324351">
        <ele>664.48046875</ele>
      </trkpt>
      <trkpt lat="59.307430107146502" lon="8.211211496964097">
        <ele>662.87109375</ele>
      </trkpt>
      <trkpt lat="59.307484002783895" lon="8.210951741784811">
        <ele>662.7578125</ele>
      </trkpt>
      <trkpt lat="59.307510908693075" lon="8.210691986605525">
        <ele>662.234375</ele>
      </trkpt>
      <trkpt lat="59.307524403557181" lon="8.210432231426239">
        <ele>661.0703125</ele>
      </trkpt>
      <trkpt lat="59.307537898421288" lon="8.210172476246953">
        <ele>660.66015625</ele>
      </trkpt>
      <trkpt lat="59.307578299194574" lon="8.209912804886699">
        <ele>660.3515625</ele>
      </trkpt>
      <trkpt lat="59.307578299194574" lon="8.209653049707413">
        <ele>659.140625</ele>
      </trkpt>
      <trkpt lat="59.307578299194574" lon="8.209393294528127">
        <ele>658.1328125</ele>
      </trkpt>
      <trkpt lat="59.307618699967861" lon="8.209133539348841">
        <ele>656.73046875</ele>
      </trkpt>
      <trkpt lat="59.307645689696074" lon="8.208873784169555">
        <ele>654.4921875</ele>
      </trkpt>
      <trkpt lat="59.307659100741148" lon="8.208588128909469">
        <ele>651.19921875</ele>
      </trkpt>
      <trkpt lat="59.30768609046936" lon="8.208328373730183">
        <ele>648.25390625</ele>
      </trkpt>
      <trkpt lat="59.307739986106753" lon="8.208068618550897">
        <ele>645.14453125</ele>
      </trkpt>
      <trkpt lat="59.30778038688004" lon="8.207808863371611">
        <ele>641.08984375</ele>
      </trkpt>
      <trkpt lat="59.307807376608253" lon="8.207549192011356">
        <ele>640.3671875</ele>
      </trkpt>
      <trkpt lat="59.307861272245646" lon="8.20728943683207">
        <ele>640.6484375</ele>
      </trkpt>
      <trkpt lat="59.307888178154826" lon="8.207029681652784">
        <ele>639.98828125</ele>
      </trkpt>
      <trkpt lat="59.307955568656325" lon="8.20679591037333">
        <ele>639.8828125</ele>
      </trkpt>
      <trkpt lat="59.308049865067005" lon="8.206588122993708">
        <ele>640.15234375</ele>
      </trkpt>
      <trkpt lat="59.308184646070004" lon="8.206432303413749">
        <ele>642.3046875</ele>
      </trkpt>
      <trkpt lat="59.308252036571503" lon="8.206198532134295">
        <ele>642.50390625</ele>
      </trkpt>
      <trkpt lat="59.308278942480683" lon="8.205938776955009">
        <ele>642.05859375</ele>
      </trkpt>
      <trkpt lat="59.308332838118076" lon="8.205679021775723">
        <ele>643.03515625</ele>
      </trkpt>
      <trkpt lat="59.308346332982183" lon="8.205419266596437">
        <ele>643.078125</ele>
      </trkpt>
      <trkpt lat="59.308346332982183" lon="8.20513361133635">
        <ele>642.56640625</ele>
      </trkpt>
      <trkpt lat="59.308373322710395" lon="8.204873856157064">
        <ele>643.234375</ele>
      </trkpt>
      <trkpt lat="59.308386733755469" lon="8.204614100977778">
        <ele>644.84765625</ele>
      </trkpt>
      <trkpt lat="59.308373322710395" lon="8.204354345798492">
        <ele>647.08984375</ele>
      </trkpt>
      <trkpt lat="59.308346332982183" lon="8.204094674438238">
        <ele>646.91796875</ele>
      </trkpt>
      <trkpt lat="59.308332838118076" lon="8.203834919258952">
        <ele>644.578125</ele>
      </trkpt>
      <trkpt lat="59.308319427073002" lon="8.203575164079666">
        <ele>642.37890625</ele>
      </trkpt>
      <trkpt lat="59.308319427073002" lon="8.203289425000548">
        <ele>640.63671875</ele>
      </trkpt>
      <trkpt lat="59.308319427073002" lon="8.202977785840631">
        <ele>639.26953125</ele>
      </trkpt>
      <trkpt lat="59.308319427073002" lon="8.202718030661345">
        <ele>638.3984375</ele>
      </trkpt>
      <trkpt lat="59.308319427073002" lon="8.202432291582227">
        <ele>636.4296875</ele>
      </trkpt>
      <trkpt lat="59.308305932208896" lon="8.202172620221973">
        <ele>633.69140625</ele>
      </trkpt>
      <trkpt lat="59.308305932208896" lon="8.201912865042687">
        <ele>631.3125</ele>
      </trkpt>
      <trkpt lat="59.308265531435609" lon="8.201627125963569">
        <ele>628.8671875</ele>
      </trkpt>
      <trkpt lat="59.308252036571503" lon="8.201367370784283">
        <ele>627.62890625</ele>
      </trkpt>
      <trkpt lat="59.30822504684329" lon="8.201107615604997">
        <ele>625.92578125</ele>
      </trkpt>
      <trkpt lat="59.30822504684329" lon="8.200821960344911">
        <ele>624.6015625</ele>
      </trkpt>
      <trkpt lat="59.30822504684329" lon="8.200562205165625">
        <ele>623.3203125</ele>
      </trkpt>
      <trkpt lat="59.30822504684329" lon="8.200302449986339">
        <ele>623.13671875</ele>
      </trkpt>
      <trkpt lat="59.308252036571503" lon="8.200016710907221">
        <ele>624.98046875</ele>
      </trkpt>
      <trkpt lat="59.308252036571503" lon="8.199731055647135">
        <ele>624.3359375</ele>
      </trkpt>
      <trkpt lat="59.308278942480683" lon="8.199471300467849">
        <ele>624.60546875</ele>
      </trkpt>
      <trkpt lat="59.308305932208896" lon="8.199211545288563">
        <ele>624.5703125</ele>
      </trkpt>
      <trkpt lat="59.308305932208896" lon="8.198899906128645">
        <ele>624.1875</ele>
      </trkpt>
      <trkpt lat="59.308319427073002" lon="8.198640150949359">
        <ele>624.484375</ele>
      </trkpt>
      <trkpt lat="59.308319427073002" lon="8.198380395770073">
        <ele>624.25</ele>
      </trkpt>
      <trkpt lat="59.308359827846289" lon="8.198120640590787">
        <ele>624.94140625</ele>
      </trkpt>
      <trkpt lat="59.308373322710395" lon="8.197860885411501">
        <ele>624.90625</ele>
      </trkpt>
      <trkpt lat="59.308373322710395" lon="8.197575230151415">
        <ele>624.46875</ele>
      </trkpt>
      <trkpt lat="59.308359827846289" lon="8.197289491072297">
        <ele>623.5546875</ele>
      </trkpt>
      <trkpt lat="59.308359827846289" lon="8.197003751993179">
        <ele>622.77734375</ele>
      </trkpt>
      <trkpt lat="59.308373322710395" lon="8.196718096733093">
        <ele>622.28125</ele>
      </trkpt>
      <trkpt lat="59.308400228619576" lon="8.196458341553807">
        <ele>622.19140625</ele>
      </trkpt>
      <trkpt lat="59.308440713211894" lon="8.196198586374521">
        <ele>622.1875</ele>
      </trkpt>
      <trkpt lat="59.308481113985181" lon="8.195938831195235">
        <ele>622.45703125</ele>
      </trkpt>
      <trkpt lat="59.308535009622574" lon="8.195679159834981">
        <ele>623.2265625</ele>
      </trkpt>
      <trkpt lat="59.308561915531754" lon="8.195419404655695">
        <ele>623.6640625</ele>
      </trkpt>
      <trkpt lat="59.308602400124073" lon="8.195159649476409">
        <ele>623.90625</ele>
      </trkpt>
      <trkpt lat="59.308602400124073" lon="8.194899894297123">
        <ele>623.15625</ele>
      </trkpt>
      <trkpt lat="59.308602400124073" lon="8.194614155218005">
        <ele>622.5859375</ele>
      </trkpt>
      <trkpt lat="59.308602400124073" lon="8.194328499957919">
        <ele>622.7734375</ele>
      </trkpt>
      <trkpt lat="59.308561915531754" lon="8.194068744778633">
        <ele>622.421875</ele>
      </trkpt>
      <trkpt lat="59.308521514758468" lon="8.193808989599347">
        <ele>621.96484375</ele>
      </trkpt>
      <trkpt lat="59.308508019894361" lon="8.193549234420061">
        <ele>621.87890625</ele>
      </trkpt>
      <trkpt lat="59.308481113985181" lon="8.193263579159975">
        <ele>621.69921875</ele>
      </trkpt>
      <trkpt lat="59.308454124256968" lon="8.193003823980689">
        <ele>621.5234375</ele>
      </trkpt>
      <trkpt lat="59.308427218347788" lon="8.192718084901571">
        <ele>621.34375</ele>
      </trkpt>
      <trkpt lat="59.308386733755469" lon="8.192432429641485">
        <ele>621.0546875</ele>
      </trkpt>
      <trkpt lat="59.308373322710395" lon="8.192172674462199">
        <ele>620.91796875</ele>
      </trkpt>
      <trkpt lat="59.308346332982183" lon="8.191912919282913">
        <ele>620.71875</ele>
      </trkpt>
      <trkpt lat="59.308319427073002" lon="8.191653164103627">
        <ele>620.3046875</ele>
      </trkpt>
      <trkpt lat="59.308319427073002" lon="8.191367508843541">
        <ele>620.328125</ele>
      </trkpt>
      <trkpt lat="59.308305932208896" lon="8.191107753664255">
        <ele>620.50390625</ele>
      </trkpt>
      <trkpt lat="59.308359827846289" lon="8.190847998484969">
        <ele>619.48046875</ele>
      </trkpt>
      <trkpt lat="59.308427218347788" lon="8.190614227205515">
        <ele>618.16796875</ele>
      </trkpt>
    </trkseg>
  </trk>

</gpx>